<?xml version='1.0' encoding='UTF-8'?><gpx version="1.1" creator="JPX - https://github.com/jenetics/jpx" xmlns="http://www.topografix.com/GPX/1/1"><trk><trkseg><trkpt lat="45.1473431115784" lon="8.989935060502955"><ele>87.0</ele><time>2026-04-05T08:21:32.999Z</time></trkpt><trkpt lat="45.1472827010038" lon="8.989878601931972"><ele>87.0</ele><time>2026-04-05T08:21:33.999Z</time></trkpt><trkpt lat="45.147191579733914" lon="8.989854420626473"><ele>87.0</ele><time>2026-04-05T08:21:34.999Z</time></trkpt><trkpt lat="45.14712435410545" lon="8.989792162356755"><ele>87.0</ele><time>2026-04-05T08:21:35.999Z</time></trkpt><trkpt lat="45.14702436989708" lon="8.989716374051248"><ele>87.0</ele><time>2026-04-05T08:21:37.999Z</time></trkpt><trkpt lat="45.146909599200136" lon="8.989654193187604"><ele>87.0</ele><time>2026-04-05T08:21:39.999Z</time></trkpt><trkpt lat="45.14678478373645" lon="8.989628598334445"><ele>87.0</ele><time>2026-04-05T08:21:41.999Z</time></trkpt><trkpt lat="45.1467175974921" lon="8.989665778319347"><ele>87.0</ele><time>2026-04-05T08:21:42.999Z</time></trkpt><trkpt lat="45.146666577353784" lon="8.989735178277703"><ele>87.0</ele><time>2026-04-05T08:21:43.999Z</time></trkpt><trkpt lat="45.146617456758655" lon="8.989794836790034"><ele>87.0</ele><time>2026-04-05T08:21:44.999Z</time></trkpt><trkpt lat="45.146581621855994" lon="8.989953822220544"><ele>86.6</ele><time>2026-04-05T08:21:46.999Z</time></trkpt><trkpt lat="45.14653872902921" lon="8.990081116980653"><ele>86.19999999999999</ele><time>2026-04-05T08:21:49Z</time></trkpt><trkpt lat="45.146455597700886" lon="8.990171740345895"><ele>85.8</ele><time>2026-04-05T08:21:51Z</time></trkpt><trkpt lat="45.146375625591716" lon="8.990210813676903"><ele>85.4</ele><time>2026-04-05T08:21:52Z</time></trkpt><trkpt lat="45.1462971658968" lon="8.990222020950405"><ele>85.0</ele><time>2026-04-05T08:21:53Z</time></trkpt><trkpt lat="45.14620140689511" lon="8.990131405719524"><ele>85.0</ele><time>2026-04-05T08:21:54Z</time></trkpt><trkpt lat="45.14609170869236" lon="8.990079760536442"><ele>85.0</ele><time>2026-04-05T08:21:55Z</time></trkpt><trkpt lat="45.14596675480869" lon="8.99002127458199"><ele>85.0</ele><time>2026-04-05T08:21:56Z</time></trkpt><trkpt lat="45.145840305038085" lon="8.989958889472005"><ele>85.0</ele><time>2026-04-05T08:21:57Z</time></trkpt><trkpt lat="45.1456975839785" lon="8.98986898013312"><ele>84.0</ele><time>2026-04-05T08:21:58Z</time></trkpt><trkpt lat="45.1455554052825" lon="8.989785144550972"><ele>83.0</ele><time>2026-04-05T08:21:59Z</time></trkpt><trkpt lat="45.14540344345177" lon="8.989702345859303"><ele>82.0</ele><time>2026-04-05T08:22:00Z</time></trkpt><trkpt lat="45.14521827917629" lon="8.989598084495222"><ele>82.0</ele><time>2026-04-05T08:22:01Z</time></trkpt><trkpt lat="45.14500962464468" lon="8.989471389707441"><ele>82.0</ele><time>2026-04-05T08:22:02Z</time></trkpt><trkpt lat="45.144754248636154" lon="8.989327682921788"><ele>82.5</ele><time>2026-04-05T08:22:03Z</time></trkpt><trkpt lat="45.14449104181965" lon="8.98915929732892"><ele>83.0</ele><time>2026-04-05T08:22:04Z</time></trkpt><trkpt lat="45.14421846264801" lon="8.988991086490651"><ele>83.5</ele><time>2026-04-05T08:22:05Z</time></trkpt><trkpt lat="45.14392991419893" lon="8.988814092627107"><ele>84.0</ele><time>2026-04-05T08:22:06Z</time></trkpt><trkpt lat="45.14364624541602" lon="8.988642736839026"><ele>84.0</ele><time>2026-04-05T08:22:07Z</time></trkpt><trkpt lat="45.143368871233065" lon="8.98847242116446"><ele>84.0</ele><time>2026-04-05T08:22:08Z</time></trkpt><trkpt lat="45.143104948172166" lon="8.988307075005585"><ele>84.5</ele><time>2026-04-05T08:22:09Z</time></trkpt><trkpt lat="45.14284176436622" lon="8.988153596482201"><ele>85.0</ele><time>2026-04-05T08:22:10Z</time></trkpt><trkpt lat="45.14259137510842" lon="8.987997080311912"><ele>84.5</ele><time>2026-04-05T08:22:11Z</time></trkpt><trkpt lat="45.14233943915533" lon="8.987840928291513"><ele>84.0</ele><time>2026-04-05T08:22:12Z</time></trkpt><trkpt lat="45.14208110334651" lon="8.987684214332939"><ele>84.0</ele><time>2026-04-05T08:22:13Z</time></trkpt><trkpt lat="45.14183328182309" lon="8.987531999567004"><ele>84.0</ele><time>2026-04-05T08:22:14Z</time></trkpt><trkpt lat="45.14159495124031" lon="8.987374773433347"><ele>83.5</ele><time>2026-04-05T08:22:15Z</time></trkpt><trkpt lat="45.141356607639196" lon="8.987221803580045"><ele>83.0</ele><time>2026-04-05T08:22:16Z</time></trkpt><trkpt lat="45.14111738888739" lon="8.987076556872582"><ele>83.0</ele><time>2026-04-05T08:22:17Z</time></trkpt><trkpt lat="45.14087241132887" lon="8.986924431851982"><ele>83.0</ele><time>2026-04-05T08:22:18Z</time></trkpt><trkpt lat="45.14063481541531" lon="8.986771257797596"><ele>83.0</ele><time>2026-04-05T08:22:19Z</time></trkpt><trkpt lat="45.14039286594263" lon="8.986620504822797"><ele>83.0</ele><time>2026-04-05T08:22:20Z</time></trkpt><trkpt lat="45.1401554516297" lon="8.986470099721979"><ele>83.0</ele><time>2026-04-05T08:22:21Z</time></trkpt><trkpt lat="45.13991469114377" lon="8.986320734980069"><ele>83.0</ele><time>2026-04-05T08:22:22Z</time></trkpt><trkpt lat="45.13967969788131" lon="8.986166417340828"><ele>83.0</ele><time>2026-04-05T08:22:23Z</time></trkpt><trkpt lat="45.13944515512254" lon="8.986017577258766"><ele>83.0</ele><time>2026-04-05T08:22:24Z</time></trkpt><trkpt lat="45.13921152423876" lon="8.985874785442348"><ele>83.0</ele><time>2026-04-05T08:22:25Z</time></trkpt><trkpt lat="45.138977935637385" lon="8.985731416624414"><ele>83.0</ele><time>2026-04-05T08:22:26Z</time></trkpt><trkpt lat="45.138735497991945" lon="8.985584048245949"><ele>83.0</ele><time>2026-04-05T08:22:27Z</time></trkpt><trkpt lat="45.138478746102834" lon="8.985418471368098"><ele>83.0</ele><time>2026-04-05T08:22:28Z</time></trkpt><trkpt lat="45.13821488141976" lon="8.985236290803371"><ele>83.5</ele><time>2026-04-05T08:22:29Z</time></trkpt><trkpt lat="45.1379503906968" lon="8.985071698317304"><ele>84.0</ele><time>2026-04-05T08:22:30Z</time></trkpt><trkpt lat="45.13768097034507" lon="8.984926374841216"><ele>84.5</ele><time>2026-04-05T08:22:31Z</time></trkpt><trkpt lat="45.13742012044017" lon="8.98476404435798"><ele>85.0</ele><time>2026-04-05T08:22:32Z</time></trkpt><trkpt lat="45.13715977104804" lon="8.984604178617158"><ele>83.5</ele><time>2026-04-05T08:22:33Z</time></trkpt><trkpt lat="45.13689668054564" lon="8.984445748337874"><ele>82.0</ele><time>2026-04-05T08:22:34Z</time></trkpt><trkpt lat="45.13663927238744" lon="8.984285921601362"><ele>82.0</ele><time>2026-04-05T08:22:35Z</time></trkpt><trkpt lat="45.13637791784598" lon="8.98412881936007"><ele>82.0</ele><time>2026-04-05T08:22:36Z</time></trkpt><trkpt lat="45.1361104577422" lon="8.983956028069734"><ele>82.0</ele><time>2026-04-05T08:22:37Z</time></trkpt><trkpt lat="45.135823517108484" lon="8.983774466483117"><ele>82.0</ele><time>2026-04-05T08:22:38Z</time></trkpt><trkpt lat="45.13553462940726" lon="8.983600963377889"><ele>82.0</ele><time>2026-04-05T08:22:39Z</time></trkpt><trkpt lat="45.13525668098681" lon="8.983433413456522"><ele>82.0</ele><time>2026-04-05T08:22:40Z</time></trkpt><trkpt lat="45.1349871321249" lon="8.983265862736186"><ele>81.5</ele><time>2026-04-05T08:22:41Z</time></trkpt><trkpt lat="45.134723056990936" lon="8.983104221942428"><ele>81.0</ele><time>2026-04-05T08:22:42Z</time></trkpt><trkpt lat="45.13446475742233" lon="8.98294639731797"><ele>81.0</ele><time>2026-04-05T08:22:43Z</time></trkpt><trkpt lat="45.13420858154817" lon="8.982784678229988"><ele>81.0</ele><time>2026-04-05T08:22:44Z</time></trkpt><trkpt lat="45.13395078806969" lon="8.982622197393297"><ele>80.5</ele><time>2026-04-05T08:22:45Z</time></trkpt><trkpt lat="45.13369496669382" lon="8.982462287939681"><ele>80.0</ele><time>2026-04-05T08:22:46Z</time></trkpt><trkpt lat="45.13343352622158" lon="8.98230460351269"><ele>81.0</ele><time>2026-04-05T08:22:47Z</time></trkpt><trkpt lat="45.13317641825081" lon="8.982149583022835"><ele>82.0</ele><time>2026-04-05T08:22:48Z</time></trkpt><trkpt lat="45.132922162445325" lon="8.981991947075594"><ele>82.0</ele><time>2026-04-05T08:22:49Z</time></trkpt><trkpt lat="45.132666032992574" lon="8.981838434812204"><ele>82.0</ele><time>2026-04-05T08:22:50Z</time></trkpt><trkpt lat="45.13240741348184" lon="8.981680558019258"><ele>82.5</ele><time>2026-04-05T08:22:51Z</time></trkpt><trkpt lat="45.132143823337664" lon="8.981519446830276"><ele>83.0</ele><time>2026-04-05T08:22:52Z</time></trkpt><trkpt lat="45.13187096371607" lon="8.981352064538425"><ele>83.0</ele><time>2026-04-05T08:22:53Z</time></trkpt><trkpt lat="45.131591674487375" lon="8.981179978773058"><ele>83.0</ele><time>2026-04-05T08:22:54Z</time></trkpt><trkpt lat="45.13131293148157" lon="8.981009619187356"><ele>82.0</ele><time>2026-04-05T08:22:55Z</time></trkpt><trkpt lat="45.13102758510198" lon="8.980833123714117"><ele>81.0</ele><time>2026-04-05T08:22:56Z</time></trkpt><trkpt lat="45.130735117423924" lon="8.980662590004183"><ele>80.5</ele><time>2026-04-05T08:22:57Z</time></trkpt><trkpt lat="45.130451180729494" lon="8.980485986479446"><ele>80.0</ele><time>2026-04-05T08:22:58Z</time></trkpt><trkpt lat="45.13017829647902" lon="8.980312018181232"><ele>80.0</ele><time>2026-04-05T08:22:59Z</time></trkpt><trkpt lat="45.12990464945744" lon="8.980142841119156"><ele>80.0</ele><time>2026-04-05T08:23:00Z</time></trkpt><trkpt lat="45.12963348922029" lon="8.979977880289571"><ele>80.0</ele><time>2026-04-05T08:23:00.999Z</time></trkpt><trkpt lat="45.12936727483835" lon="8.979815490423187"><ele>80.0</ele><time>2026-04-05T08:23:01.999Z</time></trkpt><trkpt lat="45.129102052445255" lon="8.979656382149901"><ele>79.5</ele><time>2026-04-05T08:23:02.999Z</time></trkpt><trkpt lat="45.12884335826436" lon="8.979491735100455"><ele>79.0</ele><time>2026-04-05T08:23:03.999Z</time></trkpt><trkpt lat="45.12857769780504" lon="8.979328890407043"><ele>79.5</ele><time>2026-04-05T08:23:04.999Z</time></trkpt><trkpt lat="45.12831346021223" lon="8.979166892729587"><ele>80.0</ele><time>2026-04-05T08:23:05.999Z</time></trkpt><trkpt lat="45.12804205530876" lon="8.97901671700608"><ele>80.5</ele><time>2026-04-05T08:23:06.999Z</time></trkpt><trkpt lat="45.127783769873325" lon="8.978871140952341"><ele>81.0</ele><time>2026-04-05T08:23:07.999Z</time></trkpt><trkpt lat="45.12752119626712" lon="8.978732460440398"><ele>80.0</ele><time>2026-04-05T08:23:08.999Z</time></trkpt><trkpt lat="45.12726008638599" lon="8.978593474208997"><ele>79.0</ele><time>2026-04-05T08:23:09.999Z</time></trkpt><trkpt lat="45.126993065202925" lon="8.97847798001418"><ele>79.0</ele><time>2026-04-05T08:23:10.999Z</time></trkpt><trkpt lat="45.12673002803415" lon="8.97836297505847"><ele>79.0</ele><time>2026-04-05T08:23:11.999Z</time></trkpt><trkpt lat="45.126465682010156" lon="8.97825879612866"><ele>80.0</ele><time>2026-04-05T08:23:12.999Z</time></trkpt><trkpt lat="45.12620503447297" lon="8.978170772836497"><ele>81.0</ele><time>2026-04-05T08:23:13.999Z</time></trkpt><trkpt lat="45.12594220329989" lon="8.97808552941588"><ele>79.5</ele><time>2026-04-05T08:23:14.999Z</time></trkpt><trkpt lat="45.125664952563795" lon="8.978001265086123"><ele>78.0</ele><time>2026-04-05T08:23:15.999Z</time></trkpt><trkpt lat="45.12535588020154" lon="8.977927951798804"><ele>78.0</ele><time>2026-04-05T08:23:16.999Z</time></trkpt><trkpt lat="45.12503196077967" lon="8.977857320834193"><ele>78.0</ele><time>2026-04-05T08:23:17.999Z</time></trkpt><trkpt lat="45.124696959219584" lon="8.977782864402563"><ele>78.0</ele><time>2026-04-05T08:23:18.999Z</time></trkpt><trkpt lat="45.1243560173669" lon="8.977712181598003"><ele>78.0</ele><time>2026-04-05T08:23:19.999Z</time></trkpt><trkpt lat="45.124035214891016" lon="8.977662435536242"><ele>76.5</ele><time>2026-04-05T08:23:20.999Z</time></trkpt><trkpt lat="45.123737096614654" lon="8.977610280269682"><ele>75.0</ele><time>2026-04-05T08:23:21.999Z</time></trkpt><trkpt lat="45.12344166962122" lon="8.977551977446405"><ele>73.5</ele><time>2026-04-05T08:23:22.999Z</time></trkpt><trkpt lat="45.12314616543784" lon="8.97750012819049"><ele>72.0</ele><time>2026-04-05T08:23:23.999Z</time></trkpt><trkpt lat="45.122850815757616" lon="8.97744294905815"><ele>72.0</ele><time>2026-04-05T08:23:24.999Z</time></trkpt><trkpt lat="45.12255131469299" lon="8.97738711276122"><ele>72.0</ele><time>2026-04-05T08:23:25.999Z</time></trkpt><trkpt lat="45.12225447464917" lon="8.977326529486426"><ele>72.5</ele><time>2026-04-05T08:23:26.999Z</time></trkpt><trkpt lat="45.121967197172296" lon="8.97726920834782"><ele>73.0</ele><time>2026-04-05T08:23:27.999Z</time></trkpt><trkpt lat="45.12168008998864" lon="8.977215754352509"><ele>72.0</ele><time>2026-04-05T08:23:28.999Z</time></trkpt><trkpt lat="45.121390478431145" lon="8.977162253789842"><ele>71.0</ele><time>2026-04-05T08:23:29.999Z</time></trkpt><trkpt lat="45.12109169631001" lon="8.977106131548773"><ele>71.0</ele><time>2026-04-05T08:23:30.999Z</time></trkpt><trkpt lat="45.12079123456728" lon="8.977051061346492"><ele>71.0</ele><time>2026-04-05T08:23:31.999Z</time></trkpt><trkpt lat="45.120495057419056" lon="8.97699681333548"><ele>71.5</ele><time>2026-04-05T08:23:32.999Z</time></trkpt><trkpt lat="45.12019709223266" lon="8.976942803413642"><ele>72.0</ele><time>2026-04-05T08:23:33.999Z</time></trkpt><trkpt lat="45.11990228965713" lon="8.976886429605672"><ele>73.5</ele><time>2026-04-05T08:23:34.999Z</time></trkpt><trkpt lat="45.11960912765308" lon="8.976832092187122"><ele>75.0</ele><time>2026-04-05T08:23:35.999Z</time></trkpt><trkpt lat="45.11931171513514" lon="8.976779036996644"><ele>76.5</ele><time>2026-04-05T08:23:36.999Z</time></trkpt><trkpt lat="45.11901760000478" lon="8.976718380059504"><ele>78.0</ele><time>2026-04-05T08:23:37.999Z</time></trkpt><trkpt lat="45.11872731499501" lon="8.976659471866338"><ele>78.0</ele><time>2026-04-05T08:23:38.999Z</time></trkpt><trkpt lat="45.118435003810795" lon="8.976610016231021"><ele>78.0</ele><time>2026-04-05T08:23:39.999Z</time></trkpt><trkpt lat="45.11814702633759" lon="8.976563060526939"><ele>79.5</ele><time>2026-04-05T08:23:40.999Z</time></trkpt><trkpt lat="45.117861039602005" lon="8.97651448250999"><ele>81.0</ele><time>2026-04-05T08:23:41.999Z</time></trkpt><trkpt lat="45.11757100534862" lon="8.976466988601786"><ele>78.5</ele><time>2026-04-05T08:23:42.999Z</time></trkpt><trkpt lat="45.11726737110888" lon="8.976424014671831"><ele>76.0</ele><time>2026-04-05T08:23:43.999Z</time></trkpt><trkpt lat="45.116935639200705" lon="8.976348252957472"><ele>76.0</ele><time>2026-04-05T08:23:44.999Z</time></trkpt><trkpt lat="45.116608178951815" lon="8.976284545599814"><ele>76.0</ele><time>2026-04-05T08:23:45.999Z</time></trkpt><trkpt lat="45.11627195251822" lon="8.97622289417936"><ele>76.0</ele><time>2026-04-05T08:23:46.999Z</time></trkpt><trkpt lat="45.11593073817653" lon="8.976164311200382"><ele>76.0</ele><time>2026-04-05T08:23:47.999Z</time></trkpt><trkpt lat="45.11559867067273" lon="8.97610203425054"><ele>76.0</ele><time>2026-04-05T08:23:48.999Z</time></trkpt><trkpt lat="45.115277947658676" lon="8.976048789645418"><ele>76.0</ele><time>2026-04-05T08:23:49.999Z</time></trkpt><trkpt lat="45.11496496204344" lon="8.97599082109774"><ele>73.5</ele><time>2026-04-05T08:23:50.999Z</time></trkpt><trkpt lat="45.11465390907081" lon="8.975932581381562"><ele>71.0</ele><time>2026-04-05T08:23:51.999Z</time></trkpt><trkpt lat="45.11435247421842" lon="8.975876901287608"><ele>69.0</ele><time>2026-04-05T08:23:52.999Z</time></trkpt><trkpt lat="45.114053370405564" lon="8.975822029851672"><ele>67.0</ele><time>2026-04-05T08:23:54Z</time></trkpt><trkpt lat="45.113760562612384" lon="8.975763698009997"><ele>67.0</ele><time>2026-04-05T08:23:55Z</time></trkpt><trkpt lat="45.11346984523199" lon="8.975705385816445"><ele>67.0</ele><time>2026-04-05T08:23:56Z</time></trkpt><trkpt lat="45.113177979123606" lon="8.975649000148225"><ele>67.5</ele><time>2026-04-05T08:23:57Z</time></trkpt><trkpt lat="45.112892547145144" lon="8.975592958807056"><ele>68.0</ele><time>2026-04-05T08:23:58Z</time></trkpt><trkpt lat="45.11260950282965" lon="8.97553600194688"><ele>68.5</ele><time>2026-04-05T08:23:59Z</time></trkpt><trkpt lat="45.112316649038426" lon="8.975479381811686"><ele>69.0</ele><time>2026-04-05T08:24:00Z</time></trkpt><trkpt lat="45.112030452262964" lon="8.975400220551904"><ele>69.0</ele><time>2026-04-05T08:24:01Z</time></trkpt><trkpt lat="45.1117481924391" lon="8.975312088252666"><ele>69.0</ele><time>2026-04-05T08:24:02Z</time></trkpt><trkpt lat="45.1114535348254" lon="8.975213679776132"><ele>69.0</ele><time>2026-04-05T08:24:03Z</time></trkpt><trkpt lat="45.11115552713103" lon="8.975102481631074"><ele>69.0</ele><time>2026-04-05T08:24:04Z</time></trkpt><trkpt lat="45.11086056973937" lon="8.974983335781662"><ele>68.5</ele><time>2026-04-05T08:24:05Z</time></trkpt><trkpt lat="45.110570807734184" lon="8.974862242710637"><ele>68.0</ele><time>2026-04-05T08:24:06Z</time></trkpt><trkpt lat="45.11028285077826" lon="8.974736802406362"><ele>68.0</ele><time>2026-04-05T08:24:07Z</time></trkpt><trkpt lat="45.10999947795324" lon="8.974615545443285"><ele>68.0</ele><time>2026-04-05T08:24:08Z</time></trkpt><trkpt lat="45.10972506592804" lon="8.974493829401778"><ele>67.0</ele><time>2026-04-05T08:24:09Z</time></trkpt><trkpt lat="45.10944959807228" lon="8.974370037372326"><ele>66.0</ele><time>2026-04-05T08:24:10Z</time></trkpt><trkpt lat="45.109177074156136" lon="8.97424966571031"><ele>67.0</ele><time>2026-04-05T08:24:11Z</time></trkpt><trkpt lat="45.10890619045074" lon="8.974123594337687"><ele>68.0</ele><time>2026-04-05T08:24:12Z</time></trkpt><trkpt lat="45.1086339663504" lon="8.974008828157551"><ele>68.0</ele><time>2026-04-05T08:24:13Z</time></trkpt><trkpt lat="45.10836239874413" lon="8.973886628379702"><ele>68.0</ele><time>2026-04-05T08:24:14Z</time></trkpt><trkpt lat="45.10808711757413" lon="8.973765024093824"><ele>66.5</ele><time>2026-04-05T08:24:15Z</time></trkpt><trkpt lat="45.1078087533891" lon="8.973647127050251"><ele>65.0</ele><time>2026-04-05T08:24:16Z</time></trkpt><trkpt lat="45.10753708877892" lon="8.973529380981836"><ele>65.0</ele><time>2026-04-05T08:24:17Z</time></trkpt><trkpt lat="45.107275031212545" lon="8.973411458569748"><ele>65.0</ele><time>2026-04-05T08:24:18Z</time></trkpt><trkpt lat="45.10701368590469" lon="8.973305599601321"><ele>65.0</ele><time>2026-04-05T08:24:19Z</time></trkpt><trkpt lat="45.106742217437755" lon="8.973195294602137"><ele>65.0</ele><time>2026-04-05T08:24:20Z</time></trkpt><trkpt lat="45.10646487353721" lon="8.973082991405962"><ele>65.0</ele><time>2026-04-05T08:24:21Z</time></trkpt><trkpt lat="45.10616970715953" lon="8.9729560959585"><ele>65.0</ele><time>2026-04-05T08:24:22Z</time></trkpt><trkpt lat="45.10588078715889" lon="8.972827241601836"><ele>65.5</ele><time>2026-04-05T08:24:23Z</time></trkpt><trkpt lat="45.105588237518845" lon="8.97270454527908"><ele>66.0</ele><time>2026-04-05T08:24:24Z</time></trkpt><trkpt lat="45.10530239604493" lon="8.972578448997291"><ele>65.5</ele><time>2026-04-05T08:24:25Z</time></trkpt><trkpt lat="45.10502022075371" lon="8.972446945394053"><ele>65.0</ele><time>2026-04-05T08:24:26Z</time></trkpt><trkpt lat="45.1047408334832" lon="8.972324433884388"><ele>65.0</ele><time>2026-04-05T08:24:27Z</time></trkpt><trkpt lat="45.104464077628364" lon="8.972198183390544"><ele>65.0</ele><time>2026-04-05T08:24:28Z</time></trkpt><trkpt lat="45.10418963617009" lon="8.972070458715537"><ele>66.5</ele><time>2026-04-05T08:24:29Z</time></trkpt><trkpt lat="45.103915267716566" lon="8.971944453721129"><ele>68.0</ele><time>2026-04-05T08:24:30Z</time></trkpt><trkpt lat="45.10364274664709" lon="8.971823747510413"><ele>68.0</ele><time>2026-04-05T08:24:31Z</time></trkpt><trkpt lat="45.103366727178724" lon="8.9717095609495"><ele>68.0</ele><time>2026-04-05T08:24:32Z</time></trkpt><trkpt lat="45.10309321771988" lon="8.971587656039324"><ele>67.0</ele><time>2026-04-05T08:24:33Z</time></trkpt><trkpt lat="45.102817143703" lon="8.971468669785715"><ele>66.0</ele><time>2026-04-05T08:24:34Z</time></trkpt><trkpt lat="45.10253391981694" lon="8.97134068208618"><ele>66.0</ele><time>2026-04-05T08:24:35Z</time></trkpt><trkpt lat="45.1022391890482" lon="8.971212611275453"><ele>66.0</ele><time>2026-04-05T08:24:36Z</time></trkpt><trkpt lat="45.10195414788021" lon="8.971093793397369"><ele>66.0</ele><time>2026-04-05T08:24:37Z</time></trkpt><trkpt lat="45.10167081497035" lon="8.970972307127816"><ele>66.0</ele><time>2026-04-05T08:24:38Z</time></trkpt><trkpt lat="45.101384373270456" lon="8.970849328418748"><ele>66.0</ele><time>2026-04-05T08:24:39Z</time></trkpt><trkpt lat="45.101105571125935" lon="8.970724737097559"><ele>66.0</ele><time>2026-04-05T08:24:40Z</time></trkpt><trkpt lat="45.10082621180797" lon="8.970607940514807"><ele>66.0</ele><time>2026-04-05T08:24:41Z</time></trkpt><trkpt lat="45.10054778125897" lon="8.970485612439894"><ele>66.0</ele><time>2026-04-05T08:24:42Z</time></trkpt><trkpt lat="45.10027262316858" lon="8.970365128483333"><ele>66.0</ele><time>2026-04-05T08:24:43Z</time></trkpt><trkpt lat="45.09999571081124" lon="8.970245143167162"><ele>66.0</ele><time>2026-04-05T08:24:44Z</time></trkpt><trkpt lat="45.099723054024416" lon="8.970121409067747"><ele>65.0</ele><time>2026-04-05T08:24:45Z</time></trkpt><trkpt lat="45.09944961051064" lon="8.969999800593781"><ele>64.0</ele><time>2026-04-05T08:24:46Z</time></trkpt><trkpt lat="45.09917965622958" lon="8.969881159447366"><ele>65.0</ele><time>2026-04-05T08:24:47Z</time></trkpt><trkpt lat="45.09890780521924" lon="8.969764100318324"><ele>66.0</ele><time>2026-04-05T08:24:48Z</time></trkpt><trkpt lat="45.09863523364851" lon="8.969640812430194"><ele>66.0</ele><time>2026-04-05T08:24:49Z</time></trkpt><trkpt lat="45.098348237318724" lon="8.969515735019824"><ele>66.0</ele><time>2026-04-05T08:24:50Z</time></trkpt><trkpt lat="45.098062072726236" lon="8.969390978490601"><ele>66.0</ele><time>2026-04-05T08:24:51Z</time></trkpt><trkpt lat="45.09778290746576" lon="8.969269506047118"><ele>66.0</ele><time>2026-04-05T08:24:52Z</time></trkpt><trkpt lat="45.0975046737565" lon="8.969153383883748"><ele>66.5</ele><time>2026-04-05T08:24:53Z</time></trkpt><trkpt lat="45.09722841531686" lon="8.96904161465907"><ele>67.0</ele><time>2026-04-05T08:24:54Z</time></trkpt><trkpt lat="45.09695009430784" lon="8.968935919983997"><ele>67.0</ele><time>2026-04-05T08:24:55Z</time></trkpt><trkpt lat="45.09666461384463" lon="8.96883580541984"><ele>67.0</ele><time>2026-04-05T08:24:56Z</time></trkpt><trkpt lat="45.09638079228941" lon="8.968740799386405"><ele>66.5</ele><time>2026-04-05T08:24:57Z</time></trkpt><trkpt lat="45.09609657069857" lon="8.968658103607552"><ele>66.0</ele><time>2026-04-05T08:24:58Z</time></trkpt><trkpt lat="45.095812879907534" lon="8.96858302123629"><ele>66.5</ele><time>2026-04-05T08:24:59Z</time></trkpt><trkpt lat="45.095528649271984" lon="8.968521611613774"><ele>67.0</ele><time>2026-04-05T08:25:00Z</time></trkpt><trkpt lat="45.095244031934016" lon="8.968464820441747"><ele>67.0</ele><time>2026-04-05T08:25:01Z</time></trkpt><trkpt lat="45.09495147689775" lon="8.968422275981126"><ele>67.0</ele><time>2026-04-05T08:25:02Z</time></trkpt><trkpt lat="45.09466074564198" lon="8.96838274257393"><ele>67.0</ele><time>2026-04-05T08:25:02.999Z</time></trkpt><trkpt lat="45.09437079556651" lon="8.968349982990746"><ele>67.0</ele><time>2026-04-05T08:25:03.999Z</time></trkpt><trkpt lat="45.09408421009715" lon="8.968323172626173"><ele>67.0</ele><time>2026-04-05T08:25:04.999Z</time></trkpt><trkpt lat="45.09380169733537" lon="8.968307102858432"><ele>67.0</ele><time>2026-04-05T08:25:05.999Z</time></trkpt><trkpt lat="45.0935143137801" lon="8.968300961096247"><ele>67.5</ele><time>2026-04-05T08:25:06.999Z</time></trkpt><trkpt lat="45.093223658309554" lon="8.968310776074732"><ele>68.0</ele><time>2026-04-05T08:25:07.999Z</time></trkpt><trkpt lat="45.09293106877316" lon="8.968324515468822"><ele>68.0</ele><time>2026-04-05T08:25:08.999Z</time></trkpt><trkpt lat="45.09262839978719" lon="8.9683476739591"><ele>68.0</ele><time>2026-04-05T08:25:09.999Z</time></trkpt><trkpt lat="45.092324625146496" lon="8.968382135439864"><ele>68.5</ele><time>2026-04-05T08:25:10.999Z</time></trkpt><trkpt lat="45.092022379490814" lon="8.968425015595955"><ele>69.0</ele><time>2026-04-05T08:25:11.999Z</time></trkpt><trkpt lat="45.09171858618888" lon="8.96848031574937"><ele>68.5</ele><time>2026-04-05T08:25:12.999Z</time></trkpt><trkpt lat="45.09141984276474" lon="8.968540772752535"><ele>68.0</ele><time>2026-04-05T08:25:13.999Z</time></trkpt><trkpt lat="45.091120738762186" lon="8.968613159079863"><ele>68.0</ele><time>2026-04-05T08:25:14.999Z</time></trkpt><trkpt lat="45.09082679868778" lon="8.968694835007007"><ele>68.0</ele><time>2026-04-05T08:25:15.999Z</time></trkpt><trkpt lat="45.09053716283565" lon="8.968783810256276"><ele>68.0</ele><time>2026-04-05T08:25:16.999Z</time></trkpt><trkpt lat="45.090255242940266" lon="8.968878579065773"><ele>68.0</ele><time>2026-04-05T08:25:17.999Z</time></trkpt><trkpt lat="45.08997600576456" lon="8.968973118746767"><ele>68.0</ele><time>2026-04-05T08:25:18.999Z</time></trkpt><trkpt lat="45.08969770009124" lon="8.969078696097828"><ele>68.0</ele><time>2026-04-05T08:25:19.999Z</time></trkpt><trkpt lat="45.089422912773564" lon="8.969181839053707"><ele>68.0</ele><time>2026-04-05T08:25:20.999Z</time></trkpt><trkpt lat="45.089150540824086" lon="8.969294993744962"><ele>68.0</ele><time>2026-04-05T08:25:21.999Z</time></trkpt><trkpt lat="45.08887889504747" lon="8.969412829896939"><ele>69.5</ele><time>2026-04-05T08:25:22.999Z</time></trkpt><trkpt lat="45.08860780872921" lon="8.969530227810898"><ele>71.0</ele><time>2026-04-05T08:25:23.999Z</time></trkpt><trkpt lat="45.08833887887642" lon="8.969648919053316"><ele>70.5</ele><time>2026-04-05T08:25:24.999Z</time></trkpt><trkpt lat="45.08806652375148" lon="8.969769305500199"><ele>70.0</ele><time>2026-04-05T08:25:25.999Z</time></trkpt><trkpt lat="45.087797248329174" lon="8.969877497107687"><ele>70.0</ele><time>2026-04-05T08:25:26.999Z</time></trkpt><trkpt lat="45.08753278917146" lon="8.96998821816245"><ele>70.0</ele><time>2026-04-05T08:25:27.999Z</time></trkpt><trkpt lat="45.087258270506766" lon="8.970104142476822"><ele>69.0</ele><time>2026-04-05T08:25:28.999Z</time></trkpt><trkpt lat="45.086979537041586" lon="8.970219916296498"><ele>68.0</ele><time>2026-04-05T08:25:29.999Z</time></trkpt><trkpt lat="45.08667918766379" lon="8.970344262963993"><ele>67.5</ele><time>2026-04-05T08:25:30.999Z</time></trkpt><trkpt lat="45.08637567870537" lon="8.970460133297983"><ele>67.0</ele><time>2026-04-05T08:25:31.999Z</time></trkpt><trkpt lat="45.086076150417" lon="8.970591291674344"><ele>67.0</ele><time>2026-04-05T08:25:32.999Z</time></trkpt><trkpt lat="45.08577857587939" lon="8.970711717640778"><ele>67.0</ele><time>2026-04-05T08:25:33.999Z</time></trkpt><trkpt lat="45.085487159684874" lon="8.970827317599516"><ele>67.0</ele><time>2026-04-05T08:25:34.999Z</time></trkpt><trkpt lat="45.08519519532532" lon="8.970952268324757"><ele>67.0</ele><time>2026-04-05T08:25:35.999Z</time></trkpt><trkpt lat="45.08490570439802" lon="8.971076014173494"><ele>65.5</ele><time>2026-04-05T08:25:36.999Z</time></trkpt><trkpt lat="45.084624277760014" lon="8.97119142246894"><ele>64.0</ele><time>2026-04-05T08:25:37.999Z</time></trkpt><trkpt lat="45.08434369897726" lon="8.971315191969417"><ele>63.0</ele><time>2026-04-05T08:25:38.999Z</time></trkpt><trkpt lat="45.08406625550908" lon="8.971436595764592"><ele>62.0</ele><time>2026-04-05T08:25:39.999Z</time></trkpt><trkpt lat="45.08379784804843" lon="8.971551948437584"><ele>62.0</ele><time>2026-04-05T08:25:40.999Z</time></trkpt><trkpt lat="45.08353242093269" lon="8.971663970876444"><ele>62.0</ele><time>2026-04-05T08:25:41.999Z</time></trkpt><trkpt lat="45.08326896677031" lon="8.971768498068057"><ele>62.5</ele><time>2026-04-05T08:25:42.999Z</time></trkpt><trkpt lat="45.08300145693098" lon="8.971879511602946"><ele>63.0</ele><time>2026-04-05T08:25:43.999Z</time></trkpt><trkpt lat="45.08272614259561" lon="8.971991009557811"><ele>63.0</ele><time>2026-04-05T08:25:44.999Z</time></trkpt><trkpt lat="45.08245976840623" lon="8.97210592575416"><ele>63.0</ele><time>2026-04-05T08:25:45.999Z</time></trkpt><trkpt lat="45.08218845101505" lon="8.972216151679941"><ele>62.5</ele><time>2026-04-05T08:25:46.999Z</time></trkpt><trkpt lat="45.08192441561852" lon="8.972328759504434"><ele>62.0</ele><time>2026-04-05T08:25:47.999Z</time></trkpt><trkpt lat="45.081655653922205" lon="8.972446051065909"><ele>63.5</ele><time>2026-04-05T08:25:48.999Z</time></trkpt><trkpt lat="45.08138817070446" lon="8.972565802159558"><ele>65.0</ele><time>2026-04-05T08:25:49.999Z</time></trkpt><trkpt lat="45.081129272027454" lon="8.97268351728723"><ele>65.0</ele><time>2026-04-05T08:25:50.999Z</time></trkpt><trkpt lat="45.080872599887385" lon="8.972791585027732"><ele>65.0</ele><time>2026-04-05T08:25:51.999Z</time></trkpt><trkpt lat="45.080614261634544" lon="8.972898436716124"><ele>68.5</ele><time>2026-04-05T08:25:52.999Z</time></trkpt><trkpt lat="45.080354273045465" lon="8.973002862499918"><ele>72.0</ele><time>2026-04-05T08:25:53.999Z</time></trkpt><trkpt lat="45.080099350823495" lon="8.973112352450498"><ele>70.5</ele><time>2026-04-05T08:25:54.999Z</time></trkpt><trkpt lat="45.07985348738492" lon="8.973219485753198"><ele>69.0</ele><time>2026-04-05T08:25:55.999Z</time></trkpt><trkpt lat="45.07961310851638" lon="8.973321572540256"><ele>69.5</ele><time>2026-04-05T08:25:56.999Z</time></trkpt><trkpt lat="45.07936668934527" lon="8.973427890034694"><ele>70.0</ele><time>2026-04-05T08:25:57.999Z</time></trkpt><trkpt lat="45.079117010062795" lon="8.973527984708019"><ele>70.0</ele><time>2026-04-05T08:25:58.999Z</time></trkpt><trkpt lat="45.078857545898636" lon="8.973623853931912"><ele>70.0</ele><time>2026-04-05T08:26:00Z</time></trkpt><trkpt lat="45.07859630675599" lon="8.973692340442607"><ele>70.0</ele><time>2026-04-05T08:26:01Z</time></trkpt><trkpt lat="45.0783212610409" lon="8.973750688542044"><ele>70.0</ele><time>2026-04-05T08:26:02Z</time></trkpt><trkpt lat="45.07803968264874" lon="8.973787515588237"><ele>69.5</ele><time>2026-04-05T08:26:03Z</time></trkpt><trkpt lat="45.0777417994417" lon="8.973820143348362"><ele>69.0</ele><time>2026-04-05T08:26:04Z</time></trkpt><trkpt lat="45.07743553329812" lon="8.973829084372236"><ele>69.0</ele><time>2026-04-05T08:26:05Z</time></trkpt><trkpt lat="45.07712212770699" lon="8.9738185978874"><ele>69.0</ele><time>2026-04-05T08:26:06Z</time></trkpt><trkpt lat="45.076814073991244" lon="8.973790186013343"><ele>68.5</ele><time>2026-04-05T08:26:07Z</time></trkpt><trkpt lat="45.07650248286994" lon="8.973745031937858"><ele>68.0</ele><time>2026-04-05T08:26:08Z</time></trkpt><trkpt lat="45.07620280962768" lon="8.97368268255133"><ele>68.0</ele><time>2026-04-05T08:26:09Z</time></trkpt><trkpt lat="45.075902434900634" lon="8.973602389264226"><ele>68.0</ele><time>2026-04-05T08:26:10Z</time></trkpt><trkpt lat="45.075611142017024" lon="8.97351516954508"><ele>67.5</ele><time>2026-04-05T08:26:11Z</time></trkpt><trkpt lat="45.07532653169679" lon="8.97341614143952"><ele>67.0</ele><time>2026-04-05T08:26:12Z</time></trkpt><trkpt lat="45.075043816264646" lon="8.973299180557497"><ele>67.0</ele><time>2026-04-05T08:26:13Z</time></trkpt><trkpt lat="45.074772451675976" lon="8.973159833359402"><ele>67.0</ele><time>2026-04-05T08:26:14Z</time></trkpt><trkpt lat="45.07450636208167" lon="8.973003629528513"><ele>67.0</ele><time>2026-04-05T08:26:15Z</time></trkpt><trkpt lat="45.074244611932286" lon="8.972820531473095"><ele>67.0</ele><time>2026-04-05T08:26:16Z</time></trkpt><trkpt lat="45.07397806338206" lon="8.972620230563182"><ele>67.5</ele><time>2026-04-05T08:26:17Z</time></trkpt><trkpt lat="45.073717144415184" lon="8.972407629103952"><ele>68.0</ele><time>2026-04-05T08:26:18Z</time></trkpt><trkpt lat="45.07346509689344" lon="8.972189459608312"><ele>68.5</ele><time>2026-04-05T08:26:19Z</time></trkpt><trkpt lat="45.07321518897072" lon="8.971953860917962"><ele>69.0</ele><time>2026-04-05T08:26:20Z</time></trkpt><trkpt lat="45.07297325985143" lon="8.971711661370621"><ele>69.5</ele><time>2026-04-05T08:26:21Z</time></trkpt><trkpt lat="45.072738847804246" lon="8.971454797445713"><ele>70.0</ele><time>2026-04-05T08:26:22Z</time></trkpt><trkpt lat="45.07250758424279" lon="8.97117789270316"><ele>70.0</ele><time>2026-04-05T08:26:23Z</time></trkpt><trkpt lat="45.07226074028955" lon="8.970893624819064"><ele>70.0</ele><time>2026-04-05T08:26:24Z</time></trkpt><trkpt lat="45.071992774513994" lon="8.970593055904384"><ele>69.5</ele><time>2026-04-05T08:26:25Z</time></trkpt><trkpt lat="45.07172349300487" lon="8.970297541110263"><ele>69.0</ele><time>2026-04-05T08:26:26Z</time></trkpt><trkpt lat="45.07146264016233" lon="8.970023364640145"><ele>69.0</ele><time>2026-04-05T08:26:27Z</time></trkpt><trkpt lat="45.071223184618006" lon="8.969763809087361"><ele>69.0</ele><time>2026-04-05T08:26:28Z</time></trkpt><trkpt lat="45.07100413945082" lon="8.969516687488966"><ele>69.0</ele><time>2026-04-05T08:26:29Z</time></trkpt><trkpt lat="45.07078116034262" lon="8.96927158854556"><ele>69.0</ele><time>2026-04-05T08:26:30Z</time></trkpt><trkpt lat="45.07055929689231" lon="8.969025898215515"><ele>69.0</ele><time>2026-04-05T08:26:31Z</time></trkpt><trkpt lat="45.0703404928068" lon="8.96878532029285"><ele>69.0</ele><time>2026-04-05T08:26:32Z</time></trkpt><trkpt lat="45.07011964390268" lon="8.968541187575005"><ele>69.0</ele><time>2026-04-05T08:26:33Z</time></trkpt><trkpt lat="45.069898682774976" lon="8.968298019412227"><ele>69.0</ele><time>2026-04-05T08:26:34Z</time></trkpt><trkpt lat="45.069669077487994" lon="8.968057983410615"><ele>69.0</ele><time>2026-04-05T08:26:35Z</time></trkpt><trkpt lat="45.06944623086575" lon="8.967818506247083"><ele>69.0</ele><time>2026-04-05T08:26:36Z</time></trkpt><trkpt lat="45.069217499950334" lon="8.967579631481057"><ele>68.0</ele><time>2026-04-05T08:26:37Z</time></trkpt><trkpt lat="45.06899295793109" lon="8.967338929413556"><ele>67.0</ele><time>2026-04-05T08:26:38Z</time></trkpt><trkpt lat="45.068767532658484" lon="8.96708732543812"><ele>67.0</ele><time>2026-04-05T08:26:39Z</time></trkpt><trkpt lat="45.06854321153523" lon="8.966838918978157"><ele>67.0</ele><time>2026-04-05T08:26:40Z</time></trkpt><trkpt lat="45.06832037815546" lon="8.966594599311408"><ele>68.0</ele><time>2026-04-05T08:26:41Z</time></trkpt><trkpt lat="45.06810155790843" lon="8.966353346455385"><ele>69.0</ele><time>2026-04-05T08:26:42Z</time></trkpt><trkpt lat="45.06787843760701" lon="8.966116327625015"><ele>69.0</ele><time>2026-04-05T08:26:43Z</time></trkpt><trkpt lat="45.06765579693224" lon="8.965880213047715"><ele>69.0</ele><time>2026-04-05T08:26:44Z</time></trkpt><trkpt lat="45.067422861832625" lon="8.965634561144972"><ele>69.0</ele><time>2026-04-05T08:26:45Z</time></trkpt><trkpt lat="45.067200064181186" lon="8.965388425005445"><ele>69.0</ele><time>2026-04-05T08:26:46Z</time></trkpt><trkpt lat="45.06696763466145" lon="8.96513770233759"><ele>69.0</ele><time>2026-04-05T08:26:47Z</time></trkpt><trkpt lat="45.06673255597755" lon="8.964887321824083"><ele>69.0</ele><time>2026-04-05T08:26:48Z</time></trkpt><trkpt lat="45.06650184268329" lon="8.964636805576609"><ele>69.5</ele><time>2026-04-05T08:26:49Z</time></trkpt><trkpt lat="45.066264440944906" lon="8.964382004732808"><ele>70.0</ele><time>2026-04-05T08:26:50Z</time></trkpt><trkpt lat="45.06600808589058" lon="8.964101031679334"><ele>69.5</ele><time>2026-04-05T08:26:51Z</time></trkpt><trkpt lat="45.0657544143534" lon="8.963823898173448"><ele>69.0</ele><time>2026-04-05T08:26:52Z</time></trkpt><trkpt lat="45.065485118189066" lon="8.96354070480012"><ele>68.5</ele><time>2026-04-05T08:26:53Z</time></trkpt><trkpt lat="45.06523199877978" lon="8.963260878360483"><ele>68.0</ele><time>2026-04-05T08:26:54Z</time></trkpt><trkpt lat="45.064980003789266" lon="8.962975719756955"><ele>68.5</ele><time>2026-04-05T08:26:55Z</time></trkpt><trkpt lat="45.06471975456639" lon="8.962678365303859"><ele>69.0</ele><time>2026-04-05T08:26:56Z</time></trkpt><trkpt lat="45.0644633887175" lon="8.962375712575728"><ele>69.0</ele><time>2026-04-05T08:26:57Z</time></trkpt><trkpt lat="45.064212067540346" lon="8.96209026628564"><ele>69.0</ele><time>2026-04-05T08:26:58Z</time></trkpt><trkpt lat="45.063968530735515" lon="8.961811954828109"><ele>68.5</ele><time>2026-04-05T08:26:59Z</time></trkpt><trkpt lat="45.06372803594056" lon="8.961554217369358"><ele>68.0</ele><time>2026-04-05T08:27:00Z</time></trkpt><trkpt lat="45.063496840228325" lon="8.961295665859094"><ele>68.0</ele><time>2026-04-05T08:27:01Z</time></trkpt><trkpt lat="45.06326536088883" lon="8.961041845003658"><ele>68.0</ele><time>2026-04-05T08:27:02Z</time></trkpt><trkpt lat="45.06302939035101" lon="8.960788364127609"><ele>68.0</ele><time>2026-04-05T08:27:03Z</time></trkpt><trkpt lat="45.06279248202869" lon="8.960531413341238"><ele>68.0</ele><time>2026-04-05T08:27:04Z</time></trkpt><trkpt lat="45.062559288359864" lon="8.960273427141292"><ele>69.0</ele><time>2026-04-05T08:27:05Z</time></trkpt><trkpt lat="45.062325329524306" lon="8.959999829214011"><ele>70.0</ele><time>2026-04-05T08:27:05.999Z</time></trkpt><trkpt lat="45.06208015047641" lon="8.959750836288656"><ele>70.0</ele><time>2026-04-05T08:27:06.999Z</time></trkpt><trkpt lat="45.06183585207247" lon="8.959482096717919"><ele>70.0</ele><time>2026-04-05T08:27:07.999Z</time></trkpt><trkpt lat="45.06160432741158" lon="8.959225881085729"><ele>70.0</ele><time>2026-04-05T08:27:08.999Z</time></trkpt><trkpt lat="45.06137566846546" lon="8.958970253716389"><ele>70.0</ele><time>2026-04-05T08:27:09.999Z</time></trkpt><trkpt lat="45.061139319954016" lon="8.958721881771961"><ele>70.0</ele><time>2026-04-05T08:27:10.999Z</time></trkpt><trkpt lat="45.060900182410414" lon="8.958472798768966"><ele>70.0</ele><time>2026-04-05T08:27:11.999Z</time></trkpt><trkpt lat="45.06066398807004" lon="8.958222375701608"><ele>69.0</ele><time>2026-04-05T08:27:12.999Z</time></trkpt><trkpt lat="45.060428605686354" lon="8.957970832191547"><ele>68.0</ele><time>2026-04-05T08:27:13.999Z</time></trkpt><trkpt lat="45.060194076625045" lon="8.957712438754433"><ele>68.5</ele><time>2026-04-05T08:27:14.999Z</time></trkpt><trkpt lat="45.05993880959618" lon="8.957431640792436"><ele>69.0</ele><time>2026-04-05T08:27:15.999Z</time></trkpt><trkpt lat="45.059684157340996" lon="8.957159028215116"><ele>69.0</ele><time>2026-04-05T08:27:16.999Z</time></trkpt><trkpt lat="45.0594337399968" lon="8.956886903255727"><ele>69.0</ele><time>2026-04-05T08:27:17.999Z</time></trkpt><trkpt lat="45.059189396401905" lon="8.956619745675814"><ele>69.0</ele><time>2026-04-05T08:27:18.999Z</time></trkpt><trkpt lat="45.058940504894665" lon="8.956355848966583"><ele>69.0</ele><time>2026-04-05T08:27:19.999Z</time></trkpt><trkpt lat="45.058671419361744" lon="8.956083249018436"><ele>69.0</ele><time>2026-04-05T08:27:20.999Z</time></trkpt><trkpt lat="45.05840387205459" lon="8.955808990222675"><ele>69.0</ele><time>2026-04-05T08:27:21.999Z</time></trkpt><trkpt lat="45.05815637510351" lon="8.955534322005493"><ele>69.0</ele><time>2026-04-05T08:27:22.999Z</time></trkpt><trkpt lat="45.05791017763846" lon="8.95526580843916"><ele>69.0</ele><time>2026-04-05T08:27:23.999Z</time></trkpt><trkpt lat="45.05767439282281" lon="8.955006097032081"><ele>69.5</ele><time>2026-04-05T08:27:24.999Z</time></trkpt><trkpt lat="45.0574421908373" lon="8.954747596959372"><ele>70.0</ele><time>2026-04-05T08:27:25.999Z</time></trkpt><trkpt lat="45.05720960050748" lon="8.954494825954662"><ele>70.0</ele><time>2026-04-05T08:27:26.999Z</time></trkpt><trkpt lat="45.05697594346294" lon="8.954242782405021"><ele>70.0</ele><time>2026-04-05T08:27:27.999Z</time></trkpt><trkpt lat="45.05674113594587" lon="8.953995985296618"><ele>68.5</ele><time>2026-04-05T08:27:28.999Z</time></trkpt><trkpt lat="45.056498941411306" lon="8.95375295044131"><ele>67.0</ele><time>2026-04-05T08:27:29.999Z</time></trkpt><trkpt lat="45.05625024479607" lon="8.953523066732712"><ele>67.0</ele><time>2026-04-05T08:27:30.999Z</time></trkpt><trkpt lat="45.05599363646368" lon="8.953305050822221"><ele>67.0</ele><time>2026-04-05T08:27:31.999Z</time></trkpt><trkpt lat="45.055731140744136" lon="8.953092367687063"><ele>68.0</ele><time>2026-04-05T08:27:32.999Z</time></trkpt><trkpt lat="45.05547117133782" lon="8.952889287676106"><ele>69.0</ele><time>2026-04-05T08:27:33.999Z</time></trkpt><trkpt lat="45.05521434277115" lon="8.952690148062308"><ele>69.0</ele><time>2026-04-05T08:27:34.999Z</time></trkpt><trkpt lat="45.05496185060526" lon="8.952495346751778"><ele>69.0</ele><time>2026-04-05T08:27:35.999Z</time></trkpt><trkpt lat="45.05470984513196" lon="8.95231219290223"><ele>70.5</ele><time>2026-04-05T08:27:36.999Z</time></trkpt><trkpt lat="45.05445784401299" lon="8.952135786371835"><ele>72.0</ele><time>2026-04-05T08:27:37.999Z</time></trkpt><trkpt lat="45.05420926785941" lon="8.95196156534588"><ele>72.0</ele><time>2026-04-05T08:27:38.999Z</time></trkpt><trkpt lat="45.05396377119097" lon="8.951784152150905"><ele>72.0</ele><time>2026-04-05T08:27:39.999Z</time></trkpt><trkpt lat="45.0537169911067" lon="8.951605892675952"><ele>72.0</ele><time>2026-04-05T08:27:40.999Z</time></trkpt><trkpt lat="45.053472012360594" lon="8.951433976657988"><ele>72.0</ele><time>2026-04-05T08:27:41.999Z</time></trkpt><trkpt lat="45.05322655686861" lon="8.951259243383861"><ele>73.5</ele><time>2026-04-05T08:27:42.999Z</time></trkpt><trkpt lat="45.05298428648352" lon="8.951080706452553"><ele>75.0</ele><time>2026-04-05T08:27:43.999Z</time></trkpt><trkpt lat="45.052742677897534" lon="8.950908791153324"><ele>74.0</ele><time>2026-04-05T08:27:44.999Z</time></trkpt><trkpt lat="45.05250163094251" lon="8.95073241578655"><ele>73.0</ele><time>2026-04-05T08:27:45.999Z</time></trkpt><trkpt lat="45.05226296829034" lon="8.950560845172125"><ele>73.0</ele><time>2026-04-05T08:27:46.999Z</time></trkpt><trkpt lat="45.0520271803984" lon="8.950384391496108"><ele>73.0</ele><time>2026-04-05T08:27:47.999Z</time></trkpt><trkpt lat="45.05178867296186" lon="8.950212413911503"><ele>71.5</ele><time>2026-04-05T08:27:48.999Z</time></trkpt><trkpt lat="45.05155297051775" lon="8.950037902143938"><ele>70.0</ele><time>2026-04-05T08:27:49.999Z</time></trkpt><trkpt lat="45.051321655861265" lon="8.949873066614908"><ele>70.0</ele><time>2026-04-05T08:27:50.999Z</time></trkpt><trkpt lat="45.051086856979666" lon="8.949709166902528"><ele>70.0</ele><time>2026-04-05T08:27:51.999Z</time></trkpt><trkpt lat="45.05084264567837" lon="8.949540058325628"><ele>70.5</ele><time>2026-04-05T08:27:52.999Z</time></trkpt><trkpt lat="45.050602658467064" lon="8.949361747829691"><ele>71.0</ele><time>2026-04-05T08:27:53.999Z</time></trkpt><trkpt lat="45.05035092062622" lon="8.949179998061705"><ele>71.5</ele><time>2026-04-05T08:27:54.999Z</time></trkpt><trkpt lat="45.05010092495957" lon="8.949002490285048"><ele>72.0</ele><time>2026-04-05T08:27:55.999Z</time></trkpt><trkpt lat="45.04985072049962" lon="8.948832101008552"><ele>72.0</ele><time>2026-04-05T08:27:56.999Z</time></trkpt><trkpt lat="45.049618946709906" lon="8.948659922575297"><ele>72.0</ele><time>2026-04-05T08:27:57.999Z</time></trkpt><trkpt lat="45.04937581067683" lon="8.948489710599963"><ele>72.5</ele><time>2026-04-05T08:27:58.999Z</time></trkpt><trkpt lat="45.04913448148556" lon="8.948321290809524"><ele>73.0</ele><time>2026-04-05T08:27:59.999Z</time></trkpt><trkpt lat="45.04890213975906" lon="8.948154052259614"><ele>73.0</ele><time>2026-04-05T08:28:00.999Z</time></trkpt><trkpt lat="45.048676566045444" lon="8.947990594210799"><ele>73.0</ele><time>2026-04-05T08:28:01.999Z</time></trkpt><trkpt lat="45.04844927467422" lon="8.947828768459786"><ele>73.0</ele><time>2026-04-05T08:28:02.999Z</time></trkpt><trkpt lat="45.048214387769775" lon="8.947668631142285"><ele>73.0</ele><time>2026-04-05T08:28:03.999Z</time></trkpt><trkpt lat="45.047968610684606" lon="8.947506915028834"><ele>72.5</ele><time>2026-04-05T08:28:04.999Z</time></trkpt><trkpt lat="45.047721691777305" lon="8.947337352822474"><ele>72.0</ele><time>2026-04-05T08:28:06Z</time></trkpt><trkpt lat="45.04746571717166" lon="8.947166208591929"><ele>73.0</ele><time>2026-04-05T08:28:07Z</time></trkpt><trkpt lat="45.047200848761825" lon="8.946974297440784"><ele>74.0</ele><time>2026-04-05T08:28:08Z</time></trkpt><trkpt lat="45.04693613146187" lon="8.946765398709063"><ele>73.5</ele><time>2026-04-05T08:28:09Z</time></trkpt><trkpt lat="45.046677930360204" lon="8.946563803421775"><ele>73.0</ele><time>2026-04-05T08:28:10Z</time></trkpt><trkpt lat="45.046421093202696" lon="8.946375535681552"><ele>74.5</ele><time>2026-04-05T08:28:11Z</time></trkpt><trkpt lat="45.046171494746794" lon="8.946192351225132"><ele>76.0</ele><time>2026-04-05T08:28:12Z</time></trkpt><trkpt lat="45.045921502633284" lon="8.946015407262431"><ele>75.5</ele><time>2026-04-05T08:28:13Z</time></trkpt><trkpt lat="45.045673563713265" lon="8.94583200634107"><ele>75.0</ele><time>2026-04-05T08:28:14Z</time></trkpt><trkpt lat="45.045415323534506" lon="8.945645633942998"><ele>75.0</ele><time>2026-04-05T08:28:15Z</time></trkpt><trkpt lat="45.04512985727967" lon="8.94544723537635"><ele>75.0</ele><time>2026-04-05T08:28:16Z</time></trkpt><trkpt lat="45.0448444347915" lon="8.945246045089517"><ele>73.5</ele><time>2026-04-05T08:28:17Z</time></trkpt><trkpt lat="45.04454304343261" lon="8.945043449147231"><ele>72.0</ele><time>2026-04-05T08:28:18Z</time></trkpt><trkpt lat="45.0442513508719" lon="8.944844414402677"><ele>71.5</ele><time>2026-04-05T08:28:19Z</time></trkpt><trkpt lat="45.04396785386711" lon="8.944650014876263"><ele>71.0</ele><time>2026-04-05T08:28:20Z</time></trkpt><trkpt lat="45.04369116486353" lon="8.944463234414792"><ele>71.0</ele><time>2026-04-05T08:28:21Z</time></trkpt><trkpt lat="45.043428761178816" lon="8.944271608285094"><ele>71.0</ele><time>2026-04-05T08:28:22Z</time></trkpt><trkpt lat="45.04317643570474" lon="8.94408417727191"><ele>71.5</ele><time>2026-04-05T08:28:23Z</time></trkpt><trkpt lat="45.042921097468366" lon="8.943902762107518"><ele>72.0</ele><time>2026-04-05T08:28:24Z</time></trkpt><trkpt lat="45.04267094712576" lon="8.943719270063516"><ele>72.0</ele><time>2026-04-05T08:28:25Z</time></trkpt><trkpt lat="45.042409178298094" lon="8.943533689549382"><ele>72.0</ele><time>2026-04-05T08:28:26Z</time></trkpt><trkpt lat="45.04214492497185" lon="8.943349307357586"><ele>72.0</ele><time>2026-04-05T08:28:27Z</time></trkpt><trkpt lat="45.0418836253774" lon="8.943168400197225"><ele>72.0</ele><time>2026-04-05T08:28:28Z</time></trkpt><trkpt lat="45.041628880406236" lon="8.9429858234525"><ele>72.0</ele><time>2026-04-05T08:28:29Z</time></trkpt><trkpt lat="45.04137897245568" lon="8.942804953153319"><ele>72.0</ele><time>2026-04-05T08:28:30Z</time></trkpt><trkpt lat="45.041129645440705" lon="8.942625105028478"><ele>71.5</ele><time>2026-04-05T08:28:31Z</time></trkpt><trkpt lat="45.04088572955369" lon="8.942439214169147"><ele>71.0</ele><time>2026-04-05T08:28:32Z</time></trkpt><trkpt lat="45.04062747387767" lon="8.942249508686714"><ele>73.0</ele><time>2026-04-05T08:28:33Z</time></trkpt><trkpt lat="45.04036587418885" lon="8.942062885867001"><ele>75.0</ele><time>2026-04-05T08:28:34Z</time></trkpt><trkpt lat="45.04010305010677" lon="8.941877654962587"><ele>74.0</ele><time>2026-04-05T08:28:35Z</time></trkpt><trkpt lat="45.03984225561656" lon="8.941693763977309"><ele>73.0</ele><time>2026-04-05T08:28:36Z</time></trkpt><trkpt lat="45.039580615691634" lon="8.941516094973995"><ele>73.0</ele><time>2026-04-05T08:28:37Z</time></trkpt><trkpt lat="45.03930329610394" lon="8.941327638622015"><ele>73.0</ele><time>2026-04-05T08:28:38Z</time></trkpt><trkpt lat="45.039020732998665" lon="8.941148898086233"><ele>73.0</ele><time>2026-04-05T08:28:39Z</time></trkpt><trkpt lat="45.038746816593466" lon="8.940963238790943"><ele>73.0</ele><time>2026-04-05T08:28:40Z</time></trkpt><trkpt lat="45.03848103011555" lon="8.940772684527442"><ele>73.5</ele><time>2026-04-05T08:28:41Z</time></trkpt><trkpt lat="45.03819657708524" lon="8.940568764475037"><ele>74.0</ele><time>2026-04-05T08:28:42Z</time></trkpt><trkpt lat="45.037903748958925" lon="8.940354606621908"><ele>74.0</ele><time>2026-04-05T08:28:43Z</time></trkpt><trkpt lat="45.03761699955024" lon="8.940144957347753"><ele>74.0</ele><time>2026-04-05T08:28:44Z</time></trkpt><trkpt lat="45.037338357072706" lon="8.93994963487314"><ele>73.0</ele><time>2026-04-05T08:28:45Z</time></trkpt><trkpt lat="45.03707378580883" lon="8.939761117227059"><ele>72.0</ele><time>2026-04-05T08:28:46Z</time></trkpt><trkpt lat="45.03681329281145" lon="8.939580338973983"><ele>72.0</ele><time>2026-04-05T08:28:47Z</time></trkpt><trkpt lat="45.03655347364926" lon="8.93940176549975"><ele>72.0</ele><time>2026-04-05T08:28:48Z</time></trkpt><trkpt lat="45.03629785299232" lon="8.939227748347438"><ele>72.0</ele><time>2026-04-05T08:28:49Z</time></trkpt><trkpt lat="45.03604215992289" lon="8.9390517557424"><ele>72.0</ele><time>2026-04-05T08:28:50Z</time></trkpt><trkpt lat="45.03578724996964" lon="8.938880714013495"><ele>72.5</ele><time>2026-04-05T08:28:51Z</time></trkpt><trkpt lat="45.035539425574534" lon="8.938707038854456"><ele>73.0</ele><time>2026-04-05T08:28:52Z</time></trkpt><trkpt lat="45.03529331004381" lon="8.9385292920699"><ele>72.5</ele><time>2026-04-05T08:28:53Z</time></trkpt><trkpt lat="45.03504929756986" lon="8.938352347646997"><ele>72.0</ele><time>2026-04-05T08:28:54Z</time></trkpt><trkpt lat="45.034805851543815" lon="8.938172533555184"><ele>74.0</ele><time>2026-04-05T08:28:55Z</time></trkpt><trkpt lat="45.03456282523782" lon="8.937995124870014"><ele>76.0</ele><time>2026-04-05T08:28:56Z</time></trkpt><trkpt lat="45.034314552438644" lon="8.937830102174818"><ele>75.5</ele><time>2026-04-05T08:28:57Z</time></trkpt><trkpt lat="45.03406534864847" lon="8.937661843367383"><ele>75.0</ele><time>2026-04-05T08:28:58Z</time></trkpt><trkpt lat="45.03381881600696" lon="8.93748734938156"><ele>75.0</ele><time>2026-04-05T08:28:59Z</time></trkpt><trkpt lat="45.03357154468961" lon="8.937308499862345"><ele>75.0</ele><time>2026-04-05T08:29:00Z</time></trkpt><trkpt lat="45.03331730693456" lon="8.937132043185828"><ele>74.0</ele><time>2026-04-05T08:29:01Z</time></trkpt><trkpt lat="45.03306607980167" lon="8.93695255132331"><ele>73.0</ele><time>2026-04-05T08:29:02Z</time></trkpt><trkpt lat="45.032811025101644" lon="8.936775161947946"><ele>73.0</ele><time>2026-04-05T08:29:03Z</time></trkpt><trkpt lat="45.03253796118117" lon="8.936580741079032"><ele>73.0</ele><time>2026-04-05T08:29:04Z</time></trkpt><trkpt lat="45.032250301374866" lon="8.936386258855327"><ele>74.0</ele><time>2026-04-05T08:29:05Z</time></trkpt><trkpt lat="45.0319676174333" lon="8.936186860146332"><ele>75.0</ele><time>2026-04-05T08:29:06Z</time></trkpt><trkpt lat="45.03168712360786" lon="8.935991514711155"><ele>75.5</ele><time>2026-04-05T08:29:07Z</time></trkpt><trkpt lat="45.03140097772009" lon="8.935805799883928"><ele>76.0</ele><time>2026-04-05T08:29:08Z</time></trkpt><trkpt lat="45.031126054243664" lon="8.93561080613677"><ele>76.0</ele><time>2026-04-05T08:29:08.999Z</time></trkpt><trkpt lat="45.03085316364691" lon="8.935421090658759"><ele>76.0</ele><time>2026-04-05T08:29:09.999Z</time></trkpt><trkpt lat="45.03058931784801" lon="8.935233133569017"><ele>76.0</ele><time>2026-04-05T08:29:10.999Z</time></trkpt><trkpt lat="45.030330229828834" lon="8.935049127232881"><ele>76.0</ele><time>2026-04-05T08:29:11.999Z</time></trkpt><trkpt lat="45.03007015978398" lon="8.934861276347018"><ele>77.0</ele><time>2026-04-05T08:29:12.999Z</time></trkpt><trkpt lat="45.02981182800377" lon="8.934680955647625"><ele>78.0</ele><time>2026-04-05T08:29:13.999Z</time></trkpt><trkpt lat="45.029554227879366" lon="8.934501735558749"><ele>78.0</ele><time>2026-04-05T08:29:14.999Z</time></trkpt><trkpt lat="45.029296105928076" lon="8.934324100067851"><ele>78.0</ele><time>2026-04-05T08:29:15.999Z</time></trkpt><trkpt lat="45.02903665388221" lon="8.934150510946692"><ele>77.5</ele><time>2026-04-05T08:29:16.999Z</time></trkpt><trkpt lat="45.02878256064707" lon="8.933975453051815"><ele>77.0</ele><time>2026-04-05T08:29:17.999Z</time></trkpt><trkpt lat="45.02852476605934" lon="8.93379752565863"><ele>78.5</ele><time>2026-04-05T08:29:18.999Z</time></trkpt><trkpt lat="45.028271822986866" lon="8.933617358434411"><ele>80.0</ele><time>2026-04-05T08:29:19.999Z</time></trkpt><trkpt lat="45.02801071236148" lon="8.933430939741815"><ele>79.0</ele><time>2026-04-05T08:29:20.999Z</time></trkpt><trkpt lat="45.02775158429358" lon="8.933242842066576"><ele>78.0</ele><time>2026-04-05T08:29:21.999Z</time></trkpt><trkpt lat="45.02747488168703" lon="8.933059860923121"><ele>76.5</ele><time>2026-04-05T08:29:22.999Z</time></trkpt><trkpt lat="45.027175867850374" lon="8.932844691457573"><ele>75.0</ele><time>2026-04-05T08:29:23.999Z</time></trkpt><trkpt lat="45.02686377930536" lon="8.932618852661681"><ele>75.5</ele><time>2026-04-05T08:29:24.999Z</time></trkpt><trkpt lat="45.026532007328804" lon="8.93239309774524"><ele>76.0</ele><time>2026-04-05T08:29:25.999Z</time></trkpt><trkpt lat="45.02621064291829" lon="8.932165800030551"><ele>76.0</ele><time>2026-04-05T08:29:26.999Z</time></trkpt><trkpt lat="45.025899881206996" lon="8.93194392699888"><ele>76.0</ele><time>2026-04-05T08:29:27.999Z</time></trkpt><trkpt lat="45.02558973085064" lon="8.931735251427785"><ele>76.5</ele><time>2026-04-05T08:29:28.999Z</time></trkpt><trkpt lat="45.02529233721081" lon="8.93152878746644"><ele>77.0</ele><time>2026-04-05T08:29:29.999Z</time></trkpt><trkpt lat="45.02500017784504" lon="8.93132538505368"><ele>78.0</ele><time>2026-04-05T08:29:30.999Z</time></trkpt><trkpt lat="45.024716054981674" lon="8.93111826157804"><ele>79.0</ele><time>2026-04-05T08:29:31.999Z</time></trkpt><trkpt lat="45.02444206701099" lon="8.930921083617294"><ele>78.0</ele><time>2026-04-05T08:29:32.999Z</time></trkpt><trkpt lat="45.02416798867962" lon="8.930742642163182"><ele>77.0</ele><time>2026-04-05T08:29:33.999Z</time></trkpt><trkpt lat="45.0239053319936" lon="8.930554878190032"><ele>77.0</ele><time>2026-04-05T08:29:34.999Z</time></trkpt><trkpt lat="45.02364298960901" lon="8.9303650966869"><ele>77.0</ele><time>2026-04-05T08:29:35.999Z</time></trkpt><trkpt lat="45.02338277467049" lon="8.930185278839199"><ele>77.5</ele><time>2026-04-05T08:29:36.999Z</time></trkpt><trkpt lat="45.023119136396815" lon="8.930005552220656"><ele>78.0</ele><time>2026-04-05T08:29:37.999Z</time></trkpt><trkpt lat="45.022858499788384" lon="8.929829518039316"><ele>78.0</ele><time>2026-04-05T08:29:38.999Z</time></trkpt><trkpt lat="45.02259823510984" lon="8.929649482190579"><ele>78.0</ele><time>2026-04-05T08:29:39.999Z</time></trkpt><trkpt lat="45.0223390433449" lon="8.929476207223418"><ele>78.0</ele><time>2026-04-05T08:29:40.999Z</time></trkpt><trkpt lat="45.022080662824415" lon="8.929293525143454"><ele>78.0</ele><time>2026-04-05T08:29:41.999Z</time></trkpt><trkpt lat="45.02182253374385" lon="8.929102678249007"><ele>78.5</ele><time>2026-04-05T08:29:42.999Z</time></trkpt><trkpt lat="45.021562020080545" lon="8.928917407308868"><ele>79.0</ele><time>2026-04-05T08:29:43.999Z</time></trkpt><trkpt lat="45.02130259308258" lon="8.928732046154307"><ele>79.0</ele><time>2026-04-05T08:29:44.999Z</time></trkpt><trkpt lat="45.02104367694043" lon="8.928548692950514"><ele>79.0</ele><time>2026-04-05T08:29:45.999Z</time></trkpt><trkpt lat="45.0207844253445" lon="8.928368697852429"><ele>80.0</ele><time>2026-04-05T08:29:46.999Z</time></trkpt><trkpt lat="45.02052515599568" lon="8.928186525394832"><ele>81.0</ele><time>2026-04-05T08:29:47.999Z</time></trkpt><trkpt lat="45.02026780892479" lon="8.92800936067455"><ele>81.0</ele><time>2026-04-05T08:29:48.999Z</time></trkpt><trkpt lat="45.02001056062777" lon="8.927834999599176"><ele>81.0</ele><time>2026-04-05T08:29:49.999Z</time></trkpt><trkpt lat="45.019747047411606" lon="8.927642774152636"><ele>80.0</ele><time>2026-04-05T08:29:50.999Z</time></trkpt><trkpt lat="45.019482026229426" lon="8.927457034708969"><ele>79.0</ele><time>2026-04-05T08:29:51.999Z</time></trkpt><trkpt lat="45.01922082036073" lon="8.927274914481966"><ele>79.5</ele><time>2026-04-05T08:29:52.999Z</time></trkpt><trkpt lat="45.018965195360046" lon="8.927093288767649"><ele>80.0</ele><time>2026-04-05T08:29:53.999Z</time></trkpt><trkpt lat="45.01870672102265" lon="8.926916587649684"><ele>80.0</ele><time>2026-04-05T08:29:54.999Z</time></trkpt><trkpt lat="45.01845686480293" lon="8.926737238953145"><ele>80.0</ele><time>2026-04-05T08:29:55.999Z</time></trkpt><trkpt lat="45.01820539218599" lon="8.926556088473507"><ele>79.0</ele><time>2026-04-05T08:29:56.999Z</time></trkpt><trkpt lat="45.017953910931496" lon="8.926379980922254"><ele>78.0</ele><time>2026-04-05T08:29:57.999Z</time></trkpt><trkpt lat="45.017699425446395" lon="8.926195191762496"><ele>78.5</ele><time>2026-04-05T08:29:58.999Z</time></trkpt><trkpt lat="45.01745293519557" lon="8.926009363539888"><ele>79.0</ele><time>2026-04-05T08:29:59.999Z</time></trkpt><trkpt lat="45.0172015304537" lon="8.925824343859027"><ele>79.5</ele><time>2026-04-05T08:30:00.999Z</time></trkpt><trkpt lat="45.01694263454553" lon="8.925635549619493"><ele>80.0</ele><time>2026-04-05T08:30:01.999Z</time></trkpt><trkpt lat="45.016675341603154" lon="8.925444651227705"><ele>79.0</ele><time>2026-04-05T08:30:02.999Z</time></trkpt><trkpt lat="45.016389964098906" lon="8.925244496375251"><ele>78.0</ele><time>2026-04-05T08:30:03.999Z</time></trkpt><trkpt lat="45.016108550237725" lon="8.925043627321847"><ele>77.5</ele><time>2026-04-05T08:30:04.999Z</time></trkpt><trkpt lat="45.015829184359994" lon="8.924838368876559"><ele>77.0</ele><time>2026-04-05T08:30:05.999Z</time></trkpt><trkpt lat="45.015551426910356" lon="8.924636749628045"><ele>77.0</ele><time>2026-04-05T08:30:06.999Z</time></trkpt><trkpt lat="45.01528421104779" lon="8.924426364495849"><ele>77.0</ele><time>2026-04-05T08:30:07.999Z</time></trkpt><trkpt lat="45.015014027359705" lon="8.924229937957238"><ele>77.5</ele><time>2026-04-05T08:30:08.999Z</time></trkpt><trkpt lat="45.01474204565885" lon="8.924045428764703"><ele>78.0</ele><time>2026-04-05T08:30:09.999Z</time></trkpt><trkpt lat="45.01447571601326" lon="8.923865903455148"><ele>78.0</ele><time>2026-04-05T08:30:10.999Z</time></trkpt><trkpt lat="45.014218942654416" lon="8.923684382067389"><ele>78.0</ele><time>2026-04-05T08:30:12Z</time></trkpt><trkpt lat="45.013960132067204" lon="8.923509074590735"><ele>76.5</ele><time>2026-04-05T08:30:13Z</time></trkpt><trkpt lat="45.013707825737505" lon="8.92332728740364"><ele>75.0</ele><time>2026-04-05T08:30:14Z</time></trkpt><trkpt lat="45.01344306190442" lon="8.923137109456516"><ele>75.5</ele><time>2026-04-05T08:30:15Z</time></trkpt><trkpt lat="45.01316944919528" lon="8.922935317736252"><ele>76.0</ele><time>2026-04-05T08:30:16Z</time></trkpt><trkpt lat="45.01289850573053" lon="8.922733108493373"><ele>76.0</ele><time>2026-04-05T08:30:17Z</time></trkpt><trkpt lat="45.01262700250646" lon="8.922533710184737"><ele>76.0</ele><time>2026-04-05T08:30:18Z</time></trkpt><trkpt lat="45.012350469840385" lon="8.922342946015965"><ele>78.5</ele><time>2026-04-05T08:30:19Z</time></trkpt><trkpt lat="45.01207199978125" lon="8.922144329259767"><ele>81.0</ele><time>2026-04-05T08:30:20Z</time></trkpt><trkpt lat="45.01179327350202" lon="8.921959337913517"><ele>80.0</ele><time>2026-04-05T08:30:21Z</time></trkpt><trkpt lat="45.01152531279531" lon="8.921773626809594"><ele>79.0</ele><time>2026-04-05T08:30:22Z</time></trkpt><trkpt lat="45.011262325175515" lon="8.921580199589641"><ele>79.0</ele><time>2026-04-05T08:30:23Z</time></trkpt><trkpt lat="45.01100441238025" lon="8.921388696534311"><ele>79.0</ele><time>2026-04-05T08:30:24Z</time></trkpt><trkpt lat="45.01074283847502" lon="8.921198298805153"><ele>78.5</ele><time>2026-04-05T08:30:25Z</time></trkpt><trkpt lat="45.01048534446418" lon="8.921009287220906"><ele>78.0</ele><time>2026-04-05T08:30:26Z</time></trkpt><trkpt lat="45.01022978754602" lon="8.920828989769756"><ele>78.0</ele><time>2026-04-05T08:30:27Z</time></trkpt><trkpt lat="45.00997726676197" lon="8.920635638382478"><ele>78.0</ele><time>2026-04-05T08:30:28Z</time></trkpt><trkpt lat="45.009722062053264" lon="8.920446453805555"><ele>78.0</ele><time>2026-04-05T08:30:29Z</time></trkpt><trkpt lat="45.00945586048954" lon="8.92026269144096"><ele>78.0</ele><time>2026-04-05T08:30:30Z</time></trkpt><trkpt lat="45.009191869957625" lon="8.920078401248686"><ele>78.5</ele><time>2026-04-05T08:30:31Z</time></trkpt><trkpt lat="45.008929881051415" lon="8.91988535690962"><ele>79.0</ele><time>2026-04-05T08:30:32Z</time></trkpt><trkpt lat="45.00866741306103" lon="8.919701351331165"><ele>79.0</ele><time>2026-04-05T08:30:33Z</time></trkpt><trkpt lat="45.008399127554384" lon="8.919506038692635"><ele>79.0</ele><time>2026-04-05T08:30:34Z</time></trkpt><trkpt lat="45.0081063005476" lon="8.919296382668213"><ele>78.5</ele><time>2026-04-05T08:30:35Z</time></trkpt><trkpt lat="45.0078105045653" lon="8.919084956014581"><ele>78.0</ele><time>2026-04-05T08:30:36Z</time></trkpt><trkpt lat="45.007518366073484" lon="8.918874923376725"><ele>77.5</ele><time>2026-04-05T08:30:37Z</time></trkpt><trkpt lat="45.00722718361638" lon="8.918667362596524"><ele>77.0</ele><time>2026-04-05T08:30:38Z</time></trkpt><trkpt lat="45.006940898231626" lon="8.91846311622543"><ele>78.0</ele><time>2026-04-05T08:30:39Z</time></trkpt><trkpt lat="45.00665729286642" lon="8.918259692721373"><ele>79.0</ele><time>2026-04-05T08:30:40Z</time></trkpt><trkpt lat="45.00637918136382" lon="8.918063355947186"><ele>79.0</ele><time>2026-04-05T08:30:41Z</time></trkpt><trkpt lat="45.00610852382614" lon="8.917865516075171"><ele>79.0</ele><time>2026-04-05T08:30:42Z</time></trkpt><trkpt lat="45.00583397464363" lon="8.917674479315453"><ele>77.5</ele><time>2026-04-05T08:30:43Z</time></trkpt><trkpt lat="45.00555509160271" lon="8.91748578625589"><ele>76.0</ele><time>2026-04-05T08:30:44Z</time></trkpt><trkpt lat="45.00528467608757" lon="8.917290530227946"><ele>76.0</ele><time>2026-04-05T08:30:45Z</time></trkpt><trkpt lat="45.00501557502277" lon="8.917095778058602"><ele>76.0</ele><time>2026-04-05T08:30:46Z</time></trkpt><trkpt lat="45.004745841808756" lon="8.916906502340108"><ele>76.5</ele><time>2026-04-05T08:30:47Z</time></trkpt><trkpt lat="45.00448312546593" lon="8.916715718633569"><ele>77.0</ele><time>2026-04-05T08:30:48Z</time></trkpt><trkpt lat="45.004219878210044" lon="8.9165258410159"><ele>78.0</ele><time>2026-04-05T08:30:49Z</time></trkpt><trkpt lat="45.003963707150476" lon="8.916339781086862"><ele>79.0</ele><time>2026-04-05T08:30:50Z</time></trkpt><trkpt lat="45.003707505543744" lon="8.916155655332993"><ele>79.0</ele><time>2026-04-05T08:30:51Z</time></trkpt><trkpt lat="45.003452670328365" lon="8.915974248349276"><ele>79.0</ele><time>2026-04-05T08:30:52Z</time></trkpt><trkpt lat="45.00319654464643" lon="8.91580220349646"><ele>78.0</ele><time>2026-04-05T08:30:53Z</time></trkpt><trkpt lat="45.00294281075503" lon="8.915612495994157"><ele>77.0</ele><time>2026-04-05T08:30:54Z</time></trkpt><trkpt lat="45.00268159923987" lon="8.915436671350228"><ele>76.5</ele><time>2026-04-05T08:30:55Z</time></trkpt><trkpt lat="45.002420968062594" lon="8.915253521346408"><ele>76.0</ele><time>2026-04-05T08:30:56Z</time></trkpt><trkpt lat="45.00214700356487" lon="8.915061622700705"><ele>76.0</ele><time>2026-04-05T08:30:57Z</time></trkpt><trkpt lat="45.00186667969116" lon="8.914863806911777"><ele>76.0</ele><time>2026-04-05T08:30:58Z</time></trkpt><trkpt lat="45.00158283571527" lon="8.914667454208281"><ele>76.0</ele><time>2026-04-05T08:30:59Z</time></trkpt><trkpt lat="45.001291816184825" lon="8.914467504295633"><ele>76.0</ele><time>2026-04-05T08:31:00Z</time></trkpt><trkpt lat="45.00101047719059" lon="8.914272644174076"><ele>77.5</ele><time>2026-04-05T08:31:01Z</time></trkpt><trkpt lat="45.0007342775303" lon="8.914079249233904"><ele>79.0</ele><time>2026-04-05T08:31:02Z</time></trkpt><trkpt lat="45.00046697749273" lon="8.913881300585155"><ele>79.0</ele><time>2026-04-05T08:31:03Z</time></trkpt><trkpt lat="45.00019777720882" lon="8.913676842542374"><ele>79.0</ele><time>2026-04-05T08:31:04Z</time></trkpt><trkpt lat="44.99993147793037" lon="8.913475094954155"><ele>79.5</ele><time>2026-04-05T08:31:05Z</time></trkpt><trkpt lat="44.999663601582114" lon="8.91327386450374"><ele>80.0</ele><time>2026-04-05T08:31:06Z</time></trkpt><trkpt lat="44.99939611385723" lon="8.913077896459983"><ele>80.0</ele><time>2026-04-05T08:31:07Z</time></trkpt><trkpt lat="44.99913389004642" lon="8.912889886462644"><ele>80.0</ele><time>2026-04-05T08:31:08Z</time></trkpt><trkpt lat="44.998877650304074" lon="8.912708731783525"><ele>78.5</ele><time>2026-04-05T08:31:09Z</time></trkpt><trkpt lat="44.99862486067036" lon="8.912531755710367"><ele>77.0</ele><time>2026-04-05T08:31:10Z</time></trkpt><trkpt lat="44.99837101300335" lon="8.912357147161503"><ele>78.0</ele><time>2026-04-05T08:31:11Z</time></trkpt><trkpt lat="44.99812210678219" lon="8.91216994540025"><ele>79.0</ele><time>2026-04-05T08:31:12Z</time></trkpt><trkpt lat="44.99787050910055" lon="8.911979544996843"><ele>79.0</ele><time>2026-04-05T08:31:13Z</time></trkpt><trkpt lat="44.997614695029746" lon="8.911798596525076"><ele>79.0</ele><time>2026-04-05T08:31:14Z</time></trkpt><trkpt lat="44.99736038412151" lon="8.911614130930005"><ele>79.0</ele><time>2026-04-05T08:31:14.999Z</time></trkpt><trkpt lat="44.997102013579436" lon="8.91141864164674"><ele>79.0</ele><time>2026-04-05T08:31:15.999Z</time></trkpt><trkpt lat="44.99684006964047" lon="8.911224712703069"><ele>79.0</ele><time>2026-04-05T08:31:16.999Z</time></trkpt><trkpt lat="44.99656761547457" lon="8.911039977503895"><ele>79.0</ele><time>2026-04-05T08:31:17.999Z</time></trkpt><trkpt lat="44.99630512114334" lon="8.910851759489763"><ele>78.5</ele><time>2026-04-05T08:31:18.999Z</time></trkpt><trkpt lat="44.9960471322996" lon="8.910671466912556"><ele>78.0</ele><time>2026-04-05T08:31:19.999Z</time></trkpt><trkpt lat="44.99578673847163" lon="8.910491511048935"><ele>78.0</ele><time>2026-04-05T08:31:20.999Z</time></trkpt><trkpt lat="44.995526409227" lon="8.910303053968333"><ele>78.0</ele><time>2026-04-05T08:31:21.999Z</time></trkpt><trkpt lat="44.99526471623825" lon="8.910118169049607"><ele>78.0</ele><time>2026-04-05T08:31:22.999Z</time></trkpt><trkpt lat="44.994993241259" lon="8.909926431246149"><ele>78.0</ele><time>2026-04-05T08:31:23.999Z</time></trkpt><trkpt lat="44.99472424135139" lon="8.909732805559676"><ele>78.0</ele><time>2026-04-05T08:31:24.999Z</time></trkpt><trkpt lat="44.99445068857622" lon="8.909537801669286"><ele>78.0</ele><time>2026-04-05T08:31:25.999Z</time></trkpt><trkpt lat="44.99418016090071" lon="8.909348644660339"><ele>78.5</ele><time>2026-04-05T08:31:26.999Z</time></trkpt><trkpt lat="44.99391530236533" lon="8.909159232393623"><ele>79.0</ele><time>2026-04-05T08:31:27.999Z</time></trkpt><trkpt lat="44.9936495399069" lon="8.908963466504884"><ele>79.0</ele><time>2026-04-05T08:31:28.999Z</time></trkpt><trkpt lat="44.99338000599801" lon="8.90877114868144"><ele>79.0</ele><time>2026-04-05T08:31:29.999Z</time></trkpt><trkpt lat="44.99311134143711" lon="8.90857717930683"><ele>77.5</ele><time>2026-04-05T08:31:30.999Z</time></trkpt><trkpt lat="44.992851705927116" lon="8.908383024358947"><ele>76.0</ele><time>2026-04-05T08:31:31.999Z</time></trkpt><trkpt lat="44.992592431324645" lon="8.908189445426412"><ele>78.0</ele><time>2026-04-05T08:31:32.999Z</time></trkpt><trkpt lat="44.992326680550235" lon="8.908006736238745"><ele>80.0</ele><time>2026-04-05T08:31:33.999Z</time></trkpt><trkpt lat="44.992063659749775" lon="8.907808234862644"><ele>80.0</ele><time>2026-04-05T08:31:34.999Z</time></trkpt><trkpt lat="44.991797325854115" lon="8.907608832203762"><ele>80.0</ele><time>2026-04-05T08:31:35.999Z</time></trkpt><trkpt lat="44.991526897676614" lon="8.907413761883781"><ele>81.5</ele><time>2026-04-05T08:31:36.999Z</time></trkpt><trkpt lat="44.99125255416371" lon="8.907226705367776"><ele>83.0</ele><time>2026-04-05T08:31:37.999Z</time></trkpt><trkpt lat="44.99098636186006" lon="8.907032453518989"><ele>82.5</ele><time>2026-04-05T08:31:38.999Z</time></trkpt><trkpt lat="44.9907206251769" lon="8.906840421803713"><ele>82.0</ele><time>2026-04-05T08:31:39.999Z</time></trkpt><trkpt lat="44.99044697039321" lon="8.906650962223965"><ele>82.0</ele><time>2026-04-05T08:31:40.999Z</time></trkpt><trkpt lat="44.99017106440956" lon="8.906451801826938"><ele>82.0</ele><time>2026-04-05T08:31:41.999Z</time></trkpt><trkpt lat="44.989900939835735" lon="8.906255522794156"><ele>82.0</ele><time>2026-04-05T08:31:42.999Z</time></trkpt><trkpt lat="44.98963364784881" lon="8.906062259248364"><ele>82.0</ele><time>2026-04-05T08:31:43.999Z</time></trkpt><trkpt lat="44.98936838294552" lon="8.905879153540248"><ele>82.0</ele><time>2026-04-05T08:31:44.999Z</time></trkpt><trkpt lat="44.98910651628794" lon="8.90569551407778"><ele>82.0</ele><time>2026-04-05T08:31:45.999Z</time></trkpt><trkpt lat="44.988846343422416" lon="8.905519636382843"><ele>82.0</ele><time>2026-04-05T08:31:46.999Z</time></trkpt><trkpt lat="44.98857572672882" lon="8.905321740626764"><ele>82.0</ele><time>2026-04-05T08:31:47.999Z</time></trkpt><trkpt lat="44.988302482621044" lon="8.905119453242268"><ele>81.5</ele><time>2026-04-05T08:31:48.999Z</time></trkpt><trkpt lat="44.98803941099501" lon="8.904938116292751"><ele>81.0</ele><time>2026-04-05T08:31:49.999Z</time></trkpt><trkpt lat="44.98777180951862" lon="8.904762052870366"><ele>80.5</ele><time>2026-04-05T08:31:50.999Z</time></trkpt><trkpt lat="44.98749546455769" lon="8.904576371573754"><ele>80.0</ele><time>2026-04-05T08:31:51.999Z</time></trkpt><trkpt lat="44.98722624495204" lon="8.904389205842568"><ele>80.0</ele><time>2026-04-05T08:31:52.999Z</time></trkpt><trkpt lat="44.986959613756" lon="8.90420024564383"><ele>80.0</ele><time>2026-04-05T08:31:53.999Z</time></trkpt><trkpt lat="44.98669681003193" lon="8.904015888980693"><ele>79.5</ele><time>2026-04-05T08:31:54.999Z</time></trkpt><trkpt lat="44.9864346483615" lon="8.903822027288708"><ele>79.0</ele><time>2026-04-05T08:31:55.999Z</time></trkpt><trkpt lat="44.986170884175365" lon="8.903637906600474"><ele>79.0</ele><time>2026-04-05T08:31:56.999Z</time></trkpt><trkpt lat="44.985908052790286" lon="8.903449211718847"><ele>79.0</ele><time>2026-04-05T08:31:57.999Z</time></trkpt><trkpt lat="44.98564497003971" lon="8.903256213649923"><ele>80.0</ele><time>2026-04-05T08:31:58.999Z</time></trkpt><trkpt lat="44.98538109096901" lon="8.903068601799035"><ele>81.0</ele><time>2026-04-05T08:31:59.999Z</time></trkpt><trkpt lat="44.985121559739504" lon="8.90287790065772"><ele>81.0</ele><time>2026-04-05T08:32:00.999Z</time></trkpt><trkpt lat="44.98485947579556" lon="8.90269175271531"><ele>81.0</ele><time>2026-04-05T08:32:01.999Z</time></trkpt><trkpt lat="44.98460770984418" lon="8.902495620054324"><ele>80.5</ele><time>2026-04-05T08:32:02.999Z</time></trkpt><trkpt lat="44.98434791197885" lon="8.902317496049589"><ele>80.0</ele><time>2026-04-05T08:32:03.999Z</time></trkpt><trkpt lat="44.98408557022909" lon="8.902128445612265"><ele>81.0</ele><time>2026-04-05T08:32:04.999Z</time></trkpt><trkpt lat="44.9838162609961" lon="8.901938526032662"><ele>82.0</ele><time>2026-04-05T08:32:05.999Z</time></trkpt><trkpt lat="44.98353918855794" lon="8.901747372097633"><ele>82.5</ele><time>2026-04-05T08:32:06.999Z</time></trkpt><trkpt lat="44.98326229779074" lon="8.901543299458599"><ele>83.0</ele><time>2026-04-05T08:32:07.999Z</time></trkpt><trkpt lat="44.98298953376191" lon="8.901342392288354"><ele>83.0</ele><time>2026-04-05T08:32:08.999Z</time></trkpt><trkpt lat="44.98271427177018" lon="8.901154793340426"><ele>83.0</ele><time>2026-04-05T08:32:09.999Z</time></trkpt><trkpt lat="44.98245206929471" lon="8.900973932168707"><ele>82.5</ele><time>2026-04-05T08:32:10.999Z</time></trkpt><trkpt lat="44.982186205676435" lon="8.900777593708632"><ele>82.0</ele><time>2026-04-05T08:32:11.999Z</time></trkpt><trkpt lat="44.981925624810195" lon="8.900576167852957"><ele>82.0</ele><time>2026-04-05T08:32:12.999Z</time></trkpt><trkpt lat="44.981666708567" lon="8.900392103476033"><ele>82.0</ele><time>2026-04-05T08:32:13.999Z</time></trkpt><trkpt lat="44.981418934858326" lon="8.900219105090482"><ele>82.0</ele><time>2026-04-05T08:32:14.999Z</time></trkpt><trkpt lat="44.98118205653377" lon="8.900041243701132"><ele>82.0</ele><time>2026-04-05T08:32:15.999Z</time></trkpt><trkpt lat="44.98093516381656" lon="8.899850528909784"><ele>82.5</ele><time>2026-04-05T08:32:16.999Z</time></trkpt><trkpt lat="44.98067815095394" lon="8.899664810878768"><ele>83.0</ele><time>2026-04-05T08:32:18Z</time></trkpt><trkpt lat="44.980416888870174" lon="8.899472174813669"><ele>83.0</ele><time>2026-04-05T08:32:19Z</time></trkpt><trkpt lat="44.98015144709647" lon="8.899273245489322"><ele>83.0</ele><time>2026-04-05T08:32:20Z</time></trkpt><trkpt lat="44.979883259769174" lon="8.899084790198334"><ele>83.0</ele><time>2026-04-05T08:32:21Z</time></trkpt><trkpt lat="44.97961847093161" lon="8.898891000883932"><ele>83.0</ele><time>2026-04-05T08:32:22Z</time></trkpt><trkpt lat="44.97935177408604" lon="8.898695776076087"><ele>83.5</ele><time>2026-04-05T08:32:23Z</time></trkpt><trkpt lat="44.97908802871606" lon="8.898504335050843"><ele>84.0</ele><time>2026-04-05T08:32:24Z</time></trkpt><trkpt lat="44.97882513926828" lon="8.898311511259879"><ele>84.0</ele><time>2026-04-05T08:32:25Z</time></trkpt><trkpt lat="44.97856112393768" lon="8.898129879101393"><ele>84.0</ele><time>2026-04-05T08:32:26Z</time></trkpt><trkpt lat="44.978302598220324" lon="8.897945919901364"><ele>84.5</ele><time>2026-04-05T08:32:27Z</time></trkpt><trkpt lat="44.97804581489937" lon="8.897761659940764"><ele>85.0</ele><time>2026-04-05T08:32:28Z</time></trkpt><trkpt lat="44.9777781982745" lon="8.897571064930316"><ele>85.0</ele><time>2026-04-05T08:32:29Z</time></trkpt><trkpt lat="44.97749502164406" lon="8.89736585736499"><ele>85.0</ele><time>2026-04-05T08:32:30Z</time></trkpt><trkpt lat="44.977203912711744" lon="8.897173433844136"><ele>85.0</ele><time>2026-04-05T08:32:31Z</time></trkpt><trkpt lat="44.97692545237211" lon="8.896976102093682"><ele>85.0</ele><time>2026-04-05T08:32:32Z</time></trkpt><trkpt lat="44.976663171989145" lon="8.896780162499798"><ele>84.0</ele><time>2026-04-05T08:32:33Z</time></trkpt><trkpt lat="44.97641635880141" lon="8.896586735130256"><ele>83.0</ele><time>2026-04-05T08:32:34Z</time></trkpt><trkpt lat="44.97616840387132" lon="8.896369706056618"><ele>83.0</ele><time>2026-04-05T08:32:35Z</time></trkpt><trkpt lat="44.97591558657551" lon="8.896129038299778"><ele>83.0</ele><time>2026-04-05T08:32:36Z</time></trkpt><trkpt lat="44.97566026219645" lon="8.895876140530957"><ele>82.5</ele><time>2026-04-05T08:32:37Z</time></trkpt><trkpt lat="44.97541382795225" lon="8.895622365725192"><ele>82.0</ele><time>2026-04-05T08:32:38Z</time></trkpt><trkpt lat="44.97517720680815" lon="8.89536938257112"><ele>82.0</ele><time>2026-04-05T08:32:39Z</time></trkpt><trkpt lat="44.97494275323951" lon="8.895118397448869"><ele>82.0</ele><time>2026-04-05T08:32:40Z</time></trkpt><trkpt lat="44.97470922300789" lon="8.894871054116486"><ele>82.0</ele><time>2026-04-05T08:32:41Z</time></trkpt><trkpt lat="44.97447983146671" lon="8.894625248592714"><ele>82.0</ele><time>2026-04-05T08:32:42Z</time></trkpt><trkpt lat="44.97425835885415" lon="8.894384530044448"><ele>83.0</ele><time>2026-04-05T08:32:43Z</time></trkpt><trkpt lat="44.97403156630922" lon="8.894155124948028"><ele>84.0</ele><time>2026-04-05T08:32:44Z</time></trkpt><trkpt lat="44.97380996750895" lon="8.893917766370862"><ele>84.0</ele><time>2026-04-05T08:32:45Z</time></trkpt><trkpt lat="44.97358698088647" lon="8.893674892842036"><ele>84.0</ele><time>2026-04-05T08:32:46Z</time></trkpt><trkpt lat="44.97336133700262" lon="8.893437543264122"><ele>84.5</ele><time>2026-04-05T08:32:47Z</time></trkpt><trkpt lat="44.97313286851954" lon="8.893198667460672"><ele>85.0</ele><time>2026-04-05T08:32:48Z</time></trkpt><trkpt lat="44.972905078538396" lon="8.892950336403347"><ele>85.0</ele><time>2026-04-05T08:32:49Z</time></trkpt><trkpt lat="44.972670323663635" lon="8.892706456412396"><ele>85.0</ele><time>2026-04-05T08:32:50Z</time></trkpt><trkpt lat="44.97243806054488" lon="8.892460778889497"><ele>84.5</ele><time>2026-04-05T08:32:51Z</time></trkpt><trkpt lat="44.972205909656815" lon="8.89221615987005"><ele>84.0</ele><time>2026-04-05T08:32:52Z</time></trkpt><trkpt lat="44.971971584660345" lon="8.89197706499639"><ele>84.0</ele><time>2026-04-05T08:32:53Z</time></trkpt><trkpt lat="44.971738492547004" lon="8.891730621526637"><ele>84.0</ele><time>2026-04-05T08:32:54Z</time></trkpt><trkpt lat="44.97151111408947" lon="8.891490325413159"><ele>83.0</ele><time>2026-04-05T08:32:55Z</time></trkpt><trkpt lat="44.97128646683496" lon="8.89125103057105"><ele>82.0</ele><time>2026-04-05T08:32:56Z</time></trkpt><trkpt lat="44.97106207595209" lon="8.891017196213731"><ele>84.0</ele><time>2026-04-05T08:32:57Z</time></trkpt><trkpt lat="44.97083249704658" lon="8.890776491307312"><ele>86.0</ele><time>2026-04-05T08:32:58Z</time></trkpt><trkpt lat="44.970593480956786" lon="8.89052851791676"><ele>86.0</ele><time>2026-04-05T08:32:59Z</time></trkpt><trkpt lat="44.97035048226213" lon="8.890274512874939"><ele>86.0</ele><time>2026-04-05T08:33:00Z</time></trkpt><trkpt lat="44.97010533652499" lon="8.89002390805083"><ele>86.5</ele><time>2026-04-05T08:33:01Z</time></trkpt><trkpt lat="44.969868867643676" lon="8.88977251102562"><ele>87.0</ele><time>2026-04-05T08:33:02Z</time></trkpt><trkpt lat="44.96962611917571" lon="8.889518040302045"><ele>86.0</ele><time>2026-04-05T08:33:03Z</time></trkpt><trkpt lat="44.96937935006863" lon="8.889253410736345"><ele>85.0</ele><time>2026-04-05T08:33:04Z</time></trkpt><trkpt lat="44.96913748765849" lon="8.888993723556087"><ele>87.0</ele><time>2026-04-05T08:33:05Z</time></trkpt><trkpt lat="44.968897993924145" lon="8.888735181278301"><ele>89.0</ele><time>2026-04-05T08:33:06Z</time></trkpt><trkpt lat="44.96865896583161" lon="8.888478820574585"><ele>88.5</ele><time>2026-04-05T08:33:07Z</time></trkpt><trkpt lat="44.96841746284955" lon="8.888214342999278"><ele>88.0</ele><time>2026-04-05T08:33:08Z</time></trkpt><trkpt lat="44.96817159568129" lon="8.887950722965392"><ele>88.0</ele><time>2026-04-05T08:33:09Z</time></trkpt><trkpt lat="44.967923241171725" lon="8.887687349881695"><ele>88.0</ele><time>2026-04-05T08:33:10Z</time></trkpt><trkpt lat="44.96767633773916" lon="8.887426279277141"><ele>89.0</ele><time>2026-04-05T08:33:11Z</time></trkpt><trkpt lat="44.967429611433566" lon="8.887162080724492"><ele>90.0</ele><time>2026-04-05T08:33:12Z</time></trkpt><trkpt lat="44.96718384965339" lon="8.886896168699051"><ele>88.5</ele><time>2026-04-05T08:33:13Z</time></trkpt><trkpt lat="44.96694977396834" lon="8.886639656072532"><ele>87.0</ele><time>2026-04-05T08:33:14Z</time></trkpt><trkpt lat="44.96671136398993" lon="8.886381600276897"><ele>88.0</ele><time>2026-04-05T08:33:15Z</time></trkpt><trkpt lat="44.96647616231304" lon="8.886128692083368"><ele>89.0</ele><time>2026-04-05T08:33:16Z</time></trkpt><trkpt lat="44.96623981078418" lon="8.885873463467403"><ele>88.0</ele><time>2026-04-05T08:33:17Z</time></trkpt><trkpt lat="44.966002084945416" lon="8.885613919282338"><ele>87.0</ele><time>2026-04-05T08:33:18Z</time></trkpt><trkpt lat="44.965744677824944" lon="8.885346665577995"><ele>87.5</ele><time>2026-04-05T08:33:19Z</time></trkpt><trkpt lat="44.96549234978049" lon="8.885079335755785"><ele>88.0</ele><time>2026-04-05T08:33:19.999Z</time></trkpt><trkpt lat="44.96524782898571" lon="8.88481815905528"><ele>87.5</ele><time>2026-04-05T08:33:20.999Z</time></trkpt><trkpt lat="44.96500092642893" lon="8.884558306656471"><ele>87.0</ele><time>2026-04-05T08:33:21.999Z</time></trkpt><trkpt lat="44.964761436567734" lon="8.884303989135004"><ele>87.0</ele><time>2026-04-05T08:33:22.999Z</time></trkpt><trkpt lat="44.96453128896256" lon="8.884053813154663"><ele>87.0</ele><time>2026-04-05T08:33:23.999Z</time></trkpt><trkpt lat="44.9642987260348" lon="8.883807478680868"><ele>86.5</ele><time>2026-04-05T08:33:24.999Z</time></trkpt><trkpt lat="44.964068150825206" lon="8.88356201828715"><ele>86.0</ele><time>2026-04-05T08:33:25.999Z</time></trkpt><trkpt lat="44.963840141392815" lon="8.88332000242381"><ele>85.5</ele><time>2026-04-05T08:33:26.999Z</time></trkpt><trkpt lat="44.96360991161826" lon="8.88307470294591"><ele>85.0</ele><time>2026-04-05T08:33:27.999Z</time></trkpt><trkpt lat="44.963363993928226" lon="8.882814576306611"><ele>87.5</ele><time>2026-04-05T08:33:28.999Z</time></trkpt><trkpt lat="44.96311325742383" lon="8.88254906834751"><ele>90.0</ele><time>2026-04-05T08:33:29.999Z</time></trkpt><trkpt lat="44.96285101691225" lon="8.882267679825715"><ele>90.0</ele><time>2026-04-05T08:33:30.999Z</time></trkpt><trkpt lat="44.96259474888768" lon="8.881992275182585"><ele>90.0</ele><time>2026-04-05T08:33:31.999Z</time></trkpt><trkpt lat="44.962336293991335" lon="8.881725389187789"><ele>90.5</ele><time>2026-04-05T08:33:32.999Z</time></trkpt><trkpt lat="44.962081504085866" lon="8.881457184426091"><ele>91.0</ele><time>2026-04-05T08:33:33.999Z</time></trkpt><trkpt lat="44.96182701230628" lon="8.881191664419246"><ele>89.5</ele><time>2026-04-05T08:33:34.999Z</time></trkpt><trkpt lat="44.96157647366529" lon="8.880929774589061"><ele>88.0</ele><time>2026-04-05T08:33:35.999Z</time></trkpt><trkpt lat="44.9613337367588" lon="8.880665055344803"><ele>88.0</ele><time>2026-04-05T08:33:36.999Z</time></trkpt><trkpt lat="44.96108702404773" lon="8.880407559255785"><ele>88.0</ele><time>2026-04-05T08:33:37.999Z</time></trkpt><trkpt lat="44.960849200006635" lon="8.880150926811066"><ele>88.5</ele><time>2026-04-05T08:33:38.999Z</time></trkpt><trkpt lat="44.96060919140436" lon="8.879896643906635"><ele>89.0</ele><time>2026-04-05T08:33:39.999Z</time></trkpt><trkpt lat="44.96036794236935" lon="8.879644570327388"><ele>89.0</ele><time>2026-04-05T08:33:40.999Z</time></trkpt><trkpt lat="44.96013420583117" lon="8.879391143459673"><ele>89.0</ele><time>2026-04-05T08:33:41.999Z</time></trkpt><trkpt lat="44.95989397101203" lon="8.87913833078815"><ele>88.0</ele><time>2026-04-05T08:33:42.999Z</time></trkpt><trkpt lat="44.95963713457838" lon="8.878870487474941"><ele>87.0</ele><time>2026-04-05T08:33:43.999Z</time></trkpt><trkpt lat="44.959367455049275" lon="8.878589842646008"><ele>88.5</ele><time>2026-04-05T08:33:44.999Z</time></trkpt><trkpt lat="44.9591051526567" lon="8.878309312056063"><ele>90.0</ele><time>2026-04-05T08:33:45.999Z</time></trkpt><trkpt lat="44.95884734215138" lon="8.87803039937239"><ele>90.0</ele><time>2026-04-05T08:33:46.999Z</time></trkpt><trkpt lat="44.9585915115687" lon="8.877760494233298"><ele>90.0</ele><time>2026-04-05T08:33:47.999Z</time></trkpt><trkpt lat="44.95834132279825" lon="8.877493627890331"><ele>90.0</ele><time>2026-04-05T08:33:48.999Z</time></trkpt><trkpt lat="44.95809154647872" lon="8.877228185614257"><ele>90.0</ele><time>2026-04-05T08:33:49.999Z</time></trkpt><trkpt lat="44.95783555931987" lon="8.876954372650733"><ele>89.5</ele><time>2026-04-05T08:33:50.999Z</time></trkpt><trkpt lat="44.95758287095918" lon="8.876683778906637"><ele>89.0</ele><time>2026-04-05T08:33:51.999Z</time></trkpt><trkpt lat="44.95733202259737" lon="8.876417694966488"><ele>89.0</ele><time>2026-04-05T08:33:52.999Z</time></trkpt><trkpt lat="44.95708324079103" lon="8.876159066400453"><ele>89.0</ele><time>2026-04-05T08:33:53.999Z</time></trkpt><trkpt lat="44.956838141467436" lon="8.875901858276345"><ele>89.5</ele><time>2026-04-05T08:33:54.999Z</time></trkpt><trkpt lat="44.95659613975138" lon="8.875647552416478"><ele>90.0</ele><time>2026-04-05T08:33:55.999Z</time></trkpt><trkpt lat="44.95635802285593" lon="8.875390368904016"><ele>90.0</ele><time>2026-04-05T08:33:56.999Z</time></trkpt><trkpt lat="44.95612341544759" lon="8.875135706632822"><ele>90.0</ele><time>2026-04-05T08:33:57.999Z</time></trkpt><trkpt lat="44.95589744256342" lon="8.874874350801985"><ele>90.0</ele><time>2026-04-05T08:33:58.999Z</time></trkpt><trkpt lat="44.95567689277128" lon="8.874600236489451"><ele>90.0</ele><time>2026-04-05T08:33:59.999Z</time></trkpt><trkpt lat="44.95545747813847" lon="8.874322745864276"><ele>90.0</ele><time>2026-04-05T08:34:00.999Z</time></trkpt><trkpt lat="44.955253377661634" lon="8.874036534380062"><ele>90.0</ele><time>2026-04-05T08:34:01.999Z</time></trkpt><trkpt lat="44.955056770708005" lon="8.873738890470632"><ele>90.0</ele><time>2026-04-05T08:34:02.999Z</time></trkpt><trkpt lat="44.95487366279226" lon="8.873445436547224"><ele>90.0</ele><time>2026-04-05T08:34:03.999Z</time></trkpt><trkpt lat="44.954697568317556" lon="8.873138823882465"><ele>90.0</ele><time>2026-04-05T08:34:04.999Z</time></trkpt><trkpt lat="44.95452992829574" lon="8.872820552313936"><ele>90.0</ele><time>2026-04-05T08:34:05.999Z</time></trkpt><trkpt lat="44.954365979180416" lon="8.87249216848136"><ele>90.0</ele><time>2026-04-05T08:34:06.999Z</time></trkpt><trkpt lat="44.954202519623294" lon="8.87215599945384"><ele>90.0</ele><time>2026-04-05T08:34:07.999Z</time></trkpt><trkpt lat="44.95404310404333" lon="8.871809452741669"><ele>90.5</ele><time>2026-04-05T08:34:08.999Z</time></trkpt><trkpt lat="44.95389628780145" lon="8.871460700567761"><ele>91.0</ele><time>2026-04-05T08:34:09.999Z</time></trkpt><trkpt lat="44.95375642476974" lon="8.87110937088132"><ele>90.5</ele><time>2026-04-05T08:34:10.999Z</time></trkpt><trkpt lat="44.95361503840895" lon="8.870759165725667"><ele>90.0</ele><time>2026-04-05T08:34:11.999Z</time></trkpt><trkpt lat="44.953483486445826" lon="8.8704161058514"><ele>90.0</ele><time>2026-04-05T08:34:12.999Z</time></trkpt><trkpt lat="44.953355598442975" lon="8.870081115013377"><ele>90.0</ele><time>2026-04-05T08:34:13.999Z</time></trkpt><trkpt lat="44.95323136707249" lon="8.869751904169878"><ele>90.0</ele><time>2026-04-05T08:34:14.999Z</time></trkpt><trkpt lat="44.953104209165886" lon="8.869421494828952"><ele>90.0</ele><time>2026-04-05T08:34:15.999Z</time></trkpt><trkpt lat="44.952964068442974" lon="8.869081184890875"><ele>89.0</ele><time>2026-04-05T08:34:16.999Z</time></trkpt><trkpt lat="44.952817127296925" lon="8.868717212017122"><ele>88.0</ele><time>2026-04-05T08:34:17.999Z</time></trkpt><trkpt lat="44.95267423292048" lon="8.868352187424488"><ele>89.5</ele><time>2026-04-05T08:34:18.999Z</time></trkpt><trkpt lat="44.952530816626485" lon="8.867992249161471"><ele>91.0</ele><time>2026-04-05T08:34:19.999Z</time></trkpt><trkpt lat="44.95239784185278" lon="8.86763261726627"><ele>92.0</ele><time>2026-04-05T08:34:20.999Z</time></trkpt><trkpt lat="44.95225582085109" lon="8.867271946864912"><ele>93.0</ele><time>2026-04-05T08:34:21.999Z</time></trkpt><trkpt lat="44.95211046404441" lon="8.866902640467696"><ele>92.5</ele><time>2026-04-05T08:34:22.999Z</time></trkpt><trkpt lat="44.9519654452485" lon="8.866534413420066"><ele>92.0</ele><time>2026-04-05T08:34:24Z</time></trkpt><trkpt lat="44.951820389912285" lon="8.866176593734782"><ele>93.5</ele><time>2026-04-05T08:34:25Z</time></trkpt><trkpt lat="44.9516634082686" lon="8.865830205980894"><ele>95.0</ele><time>2026-04-05T08:34:26Z</time></trkpt><trkpt lat="44.95149847246965" lon="8.865499617487023"><ele>95.0</ele><time>2026-04-05T08:34:27Z</time></trkpt><trkpt lat="44.951327695168395" lon="8.865173526621628"><ele>95.0</ele><time>2026-04-05T08:34:28Z</time></trkpt><trkpt lat="44.95114497659928" lon="8.86486439256279"><ele>93.5</ele><time>2026-04-05T08:34:29Z</time></trkpt><trkpt lat="44.95095678776496" lon="8.864562675538837"><ele>92.0</ele><time>2026-04-05T08:34:30Z</time></trkpt><trkpt lat="44.95076719731422" lon="8.864261896375528"><ele>91.5</ele><time>2026-04-05T08:34:31Z</time></trkpt><trkpt lat="44.9505746386493" lon="8.863972379943618"><ele>91.0</ele><time>2026-04-05T08:34:32Z</time></trkpt><trkpt lat="44.95037167739151" lon="8.86369512492684"><ele>90.5</ele><time>2026-04-05T08:34:33Z</time></trkpt><trkpt lat="44.95016569638435" lon="8.86343054301237"><ele>90.0</ele><time>2026-04-05T08:34:34Z</time></trkpt><trkpt lat="44.94995096629892" lon="8.863167879834862"><ele>90.0</ele><time>2026-04-05T08:34:35Z</time></trkpt><trkpt lat="44.949737994309906" lon="8.862925743292562"><ele>90.0</ele><time>2026-04-05T08:34:36Z</time></trkpt><trkpt lat="44.94952157179304" lon="8.86269160761659"><ele>90.0</ele><time>2026-04-05T08:34:37Z</time></trkpt><trkpt lat="44.94928604899539" lon="8.862465747143723"><ele>90.0</ele><time>2026-04-05T08:34:38Z</time></trkpt><trkpt lat="44.9490500882205" lon="8.86225113523936"><ele>90.5</ele><time>2026-04-05T08:34:39Z</time></trkpt><trkpt lat="44.94880781019415" lon="8.862043106407636"><ele>91.0</ele><time>2026-04-05T08:34:40Z</time></trkpt><trkpt lat="44.948553655406286" lon="8.861846418562216"><ele>91.0</ele><time>2026-04-05T08:34:41Z</time></trkpt><trkpt lat="44.948307343797985" lon="8.861666257852372"><ele>91.0</ele><time>2026-04-05T08:34:42Z</time></trkpt><trkpt lat="44.948045314053076" lon="8.861484821724913"><ele>91.0</ele><time>2026-04-05T08:34:43Z</time></trkpt><trkpt lat="44.94776255454181" lon="8.861303949485595"><ele>91.0</ele><time>2026-04-05T08:34:44Z</time></trkpt><trkpt lat="44.94746586695554" lon="8.861122125376822"><ele>91.5</ele><time>2026-04-05T08:34:45Z</time></trkpt><trkpt lat="44.9471753025209" lon="8.860949607336373"><ele>92.0</ele><time>2026-04-05T08:34:46Z</time></trkpt><trkpt lat="44.94689426569233" lon="8.860770252381736"><ele>92.5</ele><time>2026-04-05T08:34:47Z</time></trkpt><trkpt lat="44.946618494967055" lon="8.860590372325566"><ele>93.0</ele><time>2026-04-05T08:34:48Z</time></trkpt><trkpt lat="44.94634344899599" lon="8.860417837726278"><ele>93.0</ele><time>2026-04-05T08:34:49Z</time></trkpt><trkpt lat="44.94607137864386" lon="8.860245819172798"><ele>93.0</ele><time>2026-04-05T08:34:50Z</time></trkpt><trkpt lat="44.94580923991057" lon="8.860075804436894"><ele>93.0</ele><time>2026-04-05T08:34:51Z</time></trkpt><trkpt lat="44.94555240146366" lon="8.859909590058438"><ele>93.0</ele><time>2026-04-05T08:34:52Z</time></trkpt><trkpt lat="44.945298861545346" lon="8.859749442004304"><ele>93.0</ele><time>2026-04-05T08:34:53Z</time></trkpt><trkpt lat="44.94504615645805" lon="8.859588567266261"><ele>93.0</ele><time>2026-04-05T08:34:54Z</time></trkpt><trkpt lat="44.9447931217413" lon="8.859433903648656"><ele>93.5</ele><time>2026-04-05T08:34:55Z</time></trkpt><trkpt lat="44.9445474672836" lon="8.859274455805176"><ele>94.0</ele><time>2026-04-05T08:34:56Z</time></trkpt><trkpt lat="44.944299282864485" lon="8.859118844547112"><ele>95.0</ele><time>2026-04-05T08:34:57Z</time></trkpt><trkpt lat="44.94403465746039" lon="8.858953697896574"><ele>96.0</ele><time>2026-04-05T08:34:58Z</time></trkpt><trkpt lat="44.94376483479924" lon="8.85879498575715"><ele>96.0</ele><time>2026-04-05T08:34:59Z</time></trkpt><trkpt lat="44.943482848104274" lon="8.858625030581965"><ele>96.0</ele><time>2026-04-05T08:35:00Z</time></trkpt><trkpt lat="44.94317734614048" lon="8.858438547516693"><ele>95.5</ele><time>2026-04-05T08:35:01Z</time></trkpt><trkpt lat="44.942861299154096" lon="8.858250161194727"><ele>95.0</ele><time>2026-04-05T08:35:02Z</time></trkpt><trkpt lat="44.94254607766982" lon="8.858060186379339"><ele>95.0</ele><time>2026-04-05T08:35:03Z</time></trkpt><trkpt lat="44.942220316887386" lon="8.857856150180066"><ele>95.0</ele><time>2026-04-05T08:35:04Z</time></trkpt><trkpt lat="44.94189453658981" lon="8.85764584023384"><ele>94.5</ele><time>2026-04-05T08:35:05Z</time></trkpt><trkpt lat="44.94157588114804" lon="8.857441013647833"><ele>94.0</ele><time>2026-04-05T08:35:06Z</time></trkpt><trkpt lat="44.941280211115284" lon="8.857256591656993"><ele>94.0</ele><time>2026-04-05T08:35:07Z</time></trkpt><trkpt lat="44.94098400969563" lon="8.857076010142395"><ele>94.0</ele><time>2026-04-05T08:35:08Z</time></trkpt><trkpt lat="44.94069670924612" lon="8.856900069607452"><ele>94.5</ele><time>2026-04-05T08:35:09Z</time></trkpt><trkpt lat="44.940409348960635" lon="8.856720895915473"><ele>95.0</ele><time>2026-04-05T08:35:10Z</time></trkpt><trkpt lat="44.94012551429304" lon="8.856534724069567"><ele>95.0</ele><time>2026-04-05T08:35:11Z</time></trkpt><trkpt lat="44.93984116698631" lon="8.856346016448272"><ele>95.0</ele><time>2026-04-05T08:35:12Z</time></trkpt><trkpt lat="44.939551333337874" lon="8.856161990658928"><ele>95.0</ele><time>2026-04-05T08:35:13Z</time></trkpt><trkpt lat="44.93926271652169" lon="8.855974552257274"><ele>95.0</ele><time>2026-04-05T08:35:14Z</time></trkpt><trkpt lat="44.93897561025225" lon="8.855786757863717"><ele>95.5</ele><time>2026-04-05T08:35:15Z</time></trkpt><trkpt lat="44.93868996503266" lon="8.855608506345877"><ele>96.0</ele><time>2026-04-05T08:35:16Z</time></trkpt><trkpt lat="44.938408847168624" lon="8.855428854760309"><ele>96.0</ele><time>2026-04-05T08:35:17Z</time></trkpt><trkpt lat="44.93812964465664" lon="8.855254999123723"><ele>96.0</ele><time>2026-04-05T08:35:18Z</time></trkpt><trkpt lat="44.93784805939923" lon="8.85508605072521"><ele>96.0</ele><time>2026-04-05T08:35:19Z</time></trkpt><trkpt lat="44.93757244903683" lon="8.854916844144084"><ele>96.0</ele><time>2026-04-05T08:35:20Z</time></trkpt><trkpt lat="44.93729965637937" lon="8.854742506612709"><ele>96.5</ele><time>2026-04-05T08:35:21Z</time></trkpt><trkpt lat="44.937025104416975" lon="8.85456679961137"><ele>97.0</ele><time>2026-04-05T08:35:22Z</time></trkpt><trkpt lat="44.936757624375474" lon="8.854395825237297"><ele>97.5</ele><time>2026-04-05T08:35:23Z</time></trkpt><trkpt lat="44.936493611652075" lon="8.85423454892093"><ele>98.0</ele><time>2026-04-05T08:35:24Z</time></trkpt><trkpt lat="44.93622350970675" lon="8.854059315685074"><ele>98.0</ele><time>2026-04-05T08:35:25Z</time></trkpt><trkpt lat="44.935943972227776" lon="8.853877426575067"><ele>98.0</ele><time>2026-04-05T08:35:26Z</time></trkpt><trkpt lat="44.93565889916547" lon="8.853689637669957"><ele>97.0</ele><time>2026-04-05T08:35:27Z</time></trkpt><trkpt lat="44.93537930174305" lon="8.853515862365908"><ele>96.0</ele><time>2026-04-05T08:35:28Z</time></trkpt><trkpt lat="44.935110783757935" lon="8.853343530276291"><ele>98.0</ele><time>2026-04-05T08:35:29Z</time></trkpt><trkpt lat="44.934847104174665" lon="8.853177577841574"><ele>100.0</ele><time>2026-04-05T08:35:30Z</time></trkpt><trkpt lat="44.93458747809876" lon="8.853017973277938"><ele>100.0</ele><time>2026-04-05T08:35:30.999Z</time></trkpt><trkpt lat="44.93433122300712" lon="8.852854063637238"><ele>100.0</ele><time>2026-04-05T08:35:31.999Z</time></trkpt><trkpt lat="44.93407716664137" lon="8.852692594762983"><ele>100.5</ele><time>2026-04-05T08:35:32.999Z</time></trkpt><trkpt lat="44.93382696971658" lon="8.852538982491566"><ele>101.0</ele><time>2026-04-05T08:35:33.999Z</time></trkpt><trkpt lat="44.93357977052335" lon="8.852385397268879"><ele>101.5</ele><time>2026-04-05T08:35:34.999Z</time></trkpt><trkpt lat="44.9333323807767" lon="8.852229788706984"><ele>102.0</ele><time>2026-04-05T08:35:35.999Z</time></trkpt><trkpt lat="44.933081503612165" lon="8.85207389260565"><ele>102.0</ele><time>2026-04-05T08:35:36.999Z</time></trkpt><trkpt lat="44.932822321355346" lon="8.851912796141345"><ele>102.0</ele><time>2026-04-05T08:35:37.999Z</time></trkpt><trkpt lat="44.932551643433875" lon="8.851746148391147"><ele>101.5</ele><time>2026-04-05T08:35:38.999Z</time></trkpt><trkpt lat="44.93227039795543" lon="8.851576343811129"><ele>101.0</ele><time>2026-04-05T08:35:39.999Z</time></trkpt><trkpt lat="44.93198836723353" lon="8.85141086228189"><ele>101.0</ele><time>2026-04-05T08:35:40.999Z</time></trkpt><trkpt lat="44.93170707423311" lon="8.851234967619382"><ele>101.0</ele><time>2026-04-05T08:35:41.999Z</time></trkpt><trkpt lat="44.93143007041933" lon="8.851061054088856"><ele>100.0</ele><time>2026-04-05T08:35:42.999Z</time></trkpt><trkpt lat="44.93115442204697" lon="8.85088157514426"><ele>99.0</ele><time>2026-04-05T08:35:43.999Z</time></trkpt><trkpt lat="44.93087188477684" lon="8.850704674103547"><ele>99.0</ele><time>2026-04-05T08:35:44.999Z</time></trkpt><trkpt lat="44.930596165485426" lon="8.85052920745365"><ele>99.0</ele><time>2026-04-05T08:35:45.999Z</time></trkpt><trkpt lat="44.930317941557455" lon="8.850356223346937"><ele>100.0</ele><time>2026-04-05T08:35:46.999Z</time></trkpt><trkpt lat="44.930044186784144" lon="8.850184036879044"><ele>101.0</ele><time>2026-04-05T08:35:47.999Z</time></trkpt><trkpt lat="44.929777264167015" lon="8.850007655101274"><ele>101.0</ele><time>2026-04-05T08:35:48.999Z</time></trkpt><trkpt lat="44.92951072677523" lon="8.849837998798268"><ele>101.0</ele><time>2026-04-05T08:35:49.999Z</time></trkpt><trkpt lat="44.92924166635962" lon="8.849667626944969"><ele>101.0</ele><time>2026-04-05T08:35:50.999Z</time></trkpt><trkpt lat="44.92897501502453" lon="8.849502548642256"><ele>101.0</ele><time>2026-04-05T08:35:51.999Z</time></trkpt><trkpt lat="44.92870431728951" lon="8.849332834799014"><ele>100.0</ele><time>2026-04-05T08:35:52.999Z</time></trkpt><trkpt lat="44.92843384520088" lon="8.84916594431185"><ele>99.0</ele><time>2026-04-05T08:35:53.999Z</time></trkpt><trkpt lat="44.92816199555972" lon="8.848995067562683"><ele>99.0</ele><time>2026-04-05T08:35:54.999Z</time></trkpt><trkpt lat="44.92789397307407" lon="8.848826431204404"><ele>99.0</ele><time>2026-04-05T08:35:55.999Z</time></trkpt><trkpt lat="44.927619301422055" lon="8.848659380447735"><ele>99.5</ele><time>2026-04-05T08:35:56.999Z</time></trkpt><trkpt lat="44.92735048631554" lon="8.84848964240084"><ele>100.0</ele><time>2026-04-05T08:35:57.999Z</time></trkpt><trkpt lat="44.92708144265153" lon="8.84832547567889"><ele>100.0</ele><time>2026-04-05T08:35:58.999Z</time></trkpt><trkpt lat="44.926814905494155" lon="8.848159925270835"><ele>100.0</ele><time>2026-04-05T08:35:59.999Z</time></trkpt><trkpt lat="44.92655015077209" lon="8.847988949891047"><ele>100.0</ele><time>2026-04-05T08:36:00.999Z</time></trkpt><trkpt lat="44.92627454775732" lon="8.84781866392572"><ele>100.0</ele><time>2026-04-05T08:36:01.999Z</time></trkpt><trkpt lat="44.9259971557059" lon="8.84764951783922"><ele>100.0</ele><time>2026-04-05T08:36:02.999Z</time></trkpt><trkpt lat="44.925731202575385" lon="8.847481967761054"><ele>100.0</ele><time>2026-04-05T08:36:03.999Z</time></trkpt><trkpt lat="44.92547225124315" lon="8.847309636200713"><ele>100.0</ele><time>2026-04-05T08:36:04.999Z</time></trkpt><trkpt lat="44.925210161007136" lon="8.847146241482983"><ele>100.0</ele><time>2026-04-05T08:36:05.999Z</time></trkpt><trkpt lat="44.924948363007196" lon="8.846982948004841"><ele>101.0</ele><time>2026-04-05T08:36:06.999Z</time></trkpt><trkpt lat="44.924678891273835" lon="8.846817165314649"><ele>102.0</ele><time>2026-04-05T08:36:07.999Z</time></trkpt><trkpt lat="44.92440958285105" lon="8.846651941477072"><ele>102.5</ele><time>2026-04-05T08:36:08.999Z</time></trkpt><trkpt lat="44.924140891270035" lon="8.846486582083376"><ele>103.0</ele><time>2026-04-05T08:36:09.999Z</time></trkpt><trkpt lat="44.923869896937575" lon="8.846324745868447"><ele>103.0</ele><time>2026-04-05T08:36:10.999Z</time></trkpt><trkpt lat="44.923591855633724" lon="8.84616355909121"><ele>103.0</ele><time>2026-04-05T08:36:11.999Z</time></trkpt><trkpt lat="44.92331927611067" lon="8.846022111973632"><ele>103.0</ele><time>2026-04-05T08:36:12.999Z</time></trkpt><trkpt lat="44.92304940028293" lon="8.845875337029993"><ele>103.0</ele><time>2026-04-05T08:36:13.999Z</time></trkpt><trkpt lat="44.92278246573736" lon="8.845735538848663"><ele>104.0</ele><time>2026-04-05T08:36:14.999Z</time></trkpt><trkpt lat="44.9225171748427" lon="8.845607114759039"><ele>105.0</ele><time>2026-04-05T08:36:15.999Z</time></trkpt><trkpt lat="44.92225254505392" lon="8.845482046652371"><ele>105.0</ele><time>2026-04-05T08:36:16.999Z</time></trkpt><trkpt lat="44.92198975898764" lon="8.845371302339013"><ele>105.0</ele><time>2026-04-05T08:36:17.999Z</time></trkpt><trkpt lat="44.921726410139435" lon="8.845272361375146"><ele>105.5</ele><time>2026-04-05T08:36:18.999Z</time></trkpt><trkpt lat="44.921459115637646" lon="8.845179521464354"><ele>106.0</ele><time>2026-04-05T08:36:19.999Z</time></trkpt><trkpt lat="44.92119219616637" lon="8.845091597709114"><ele>106.0</ele><time>2026-04-05T08:36:20.999Z</time></trkpt><trkpt lat="44.920914007800256" lon="8.845009553405104"><ele>106.0</ele><time>2026-04-05T08:36:21.999Z</time></trkpt><trkpt lat="44.92063587724422" lon="8.844933940906694"><ele>106.5</ele><time>2026-04-05T08:36:22.999Z</time></trkpt><trkpt lat="44.92036069985832" lon="8.844861831485517"><ele>107.0</ele><time>2026-04-05T08:36:23.999Z</time></trkpt><trkpt lat="44.92008454826954" lon="8.844795802675593"><ele>106.0</ele><time>2026-04-05T08:36:24.999Z</time></trkpt><trkpt lat="44.91981490496095" lon="8.844739766090692"><ele>105.0</ele><time>2026-04-05T08:36:25.999Z</time></trkpt><trkpt lat="44.91954473673382" lon="8.844688806203722"><ele>105.0</ele><time>2026-04-05T08:36:26.999Z</time></trkpt><trkpt lat="44.919274616375624" lon="8.84464676282891"><ele>105.0</ele><time>2026-04-05T08:36:27.999Z</time></trkpt><trkpt lat="44.9190048206953" lon="8.844610571675132"><ele>105.5</ele><time>2026-04-05T08:36:29Z</time></trkpt><trkpt lat="44.91874124495054" lon="8.844577206497396"><ele>106.0</ele><time>2026-04-05T08:36:30Z</time></trkpt><trkpt lat="44.91847670682323" lon="8.844544309893474"><ele>105.5</ele><time>2026-04-05T08:36:31Z</time></trkpt><trkpt lat="44.91821259415305" lon="8.844516867187195"><ele>105.0</ele><time>2026-04-05T08:36:32Z</time></trkpt><trkpt lat="44.917951208070384" lon="8.844487137160748"><ele>105.0</ele><time>2026-04-05T08:36:33Z</time></trkpt><trkpt lat="44.91768627585028" lon="8.844464532530731"><ele>105.0</ele><time>2026-04-05T08:36:34Z</time></trkpt><trkpt lat="44.917427516578634" lon="8.84443942015075"><ele>105.5</ele><time>2026-04-05T08:36:35Z</time></trkpt><trkpt lat="44.91717190835958" lon="8.84441153956202"><ele>106.0</ele><time>2026-04-05T08:36:36Z</time></trkpt><trkpt lat="44.916917960685325" lon="8.84438199393061"><ele>108.0</ele><time>2026-04-05T08:36:37Z</time></trkpt><trkpt lat="44.91666217512439" lon="8.844360926238085"><ele>110.0</ele><time>2026-04-05T08:36:38Z</time></trkpt><trkpt lat="44.91640873422088" lon="8.844335148500521"><ele>110.0</ele><time>2026-04-05T08:36:39Z</time></trkpt><trkpt lat="44.91615469166006" lon="8.844307050932048"><ele>110.0</ele><time>2026-04-05T08:36:40Z</time></trkpt><trkpt lat="44.91589923705813" lon="8.8442773047935"><ele>109.5</ele><time>2026-04-05T08:36:41Z</time></trkpt><trkpt lat="44.91564517517943" lon="8.844252953463624"><ele>109.0</ele><time>2026-04-05T08:36:42Z</time></trkpt><trkpt lat="44.915387239758054" lon="8.844234658685028"><ele>109.0</ele><time>2026-04-05T08:36:43Z</time></trkpt><trkpt lat="44.91513266312978" lon="8.844209275352435"><ele>109.0</ele><time>2026-04-05T08:36:44Z</time></trkpt><trkpt lat="44.914875117381214" lon="8.844188422570467"><ele>108.0</ele><time>2026-04-05T08:36:45Z</time></trkpt><trkpt lat="44.914622145462786" lon="8.844165241361123"><ele>107.0</ele><time>2026-04-05T08:36:46Z</time></trkpt><trkpt lat="44.91437045479966" lon="8.844142463002937"><ele>106.0</ele><time>2026-04-05T08:36:47Z</time></trkpt><trkpt lat="44.91411560388982" lon="8.844122859146111"><ele>105.0</ele><time>2026-04-05T08:36:48Z</time></trkpt><trkpt lat="44.91386597437476" lon="8.844095436502947"><ele>105.0</ele><time>2026-04-05T08:36:49Z</time></trkpt><trkpt lat="44.91361755990453" lon="8.844067939647212"><ele>105.0</ele><time>2026-04-05T08:36:50Z</time></trkpt><trkpt lat="44.91336548656699" lon="8.844049255312433"><ele>105.5</ele><time>2026-04-05T08:36:51Z</time></trkpt><trkpt lat="44.91311544631409" lon="8.844026575554427"><ele>106.0</ele><time>2026-04-05T08:36:52Z</time></trkpt><trkpt lat="44.91286577524303" lon="8.844009121336837"><ele>106.0</ele><time>2026-04-05T08:36:53Z</time></trkpt><trkpt lat="44.91260239105366" lon="8.843983747256445"><ele>106.0</ele><time>2026-04-05T08:36:54Z</time></trkpt><trkpt lat="44.91232024109323" lon="8.843965368353928"><ele>105.5</ele><time>2026-04-05T08:36:55Z</time></trkpt><trkpt lat="44.912028372705436" lon="8.843944250967697"><ele>105.0</ele><time>2026-04-05T08:36:56Z</time></trkpt><trkpt lat="44.91171763694683" lon="8.843918579248102"><ele>105.0</ele><time>2026-04-05T08:36:57Z</time></trkpt><trkpt lat="44.911388786374545" lon="8.843884472741891"><ele>105.0</ele><time>2026-04-05T08:36:58Z</time></trkpt><trkpt lat="44.91106568215807" lon="8.843846984993759"><ele>106.0</ele><time>2026-04-05T08:36:59Z</time></trkpt><trkpt lat="44.9107557546121" lon="8.843805756386082"><ele>107.0</ele><time>2026-04-05T08:37:00Z</time></trkpt><trkpt lat="44.91045278810347" lon="8.843771264602164"><ele>107.0</ele><time>2026-04-05T08:37:01Z</time></trkpt><trkpt lat="44.91016435169991" lon="8.843735561348893"><ele>107.0</ele><time>2026-04-05T08:37:02Z</time></trkpt><trkpt lat="44.9098840266504" lon="8.84370446772672"><ele>107.5</ele><time>2026-04-05T08:37:03Z</time></trkpt><trkpt lat="44.90961162746424" lon="8.843673916768294"><ele>108.0</ele><time>2026-04-05T08:37:04Z</time></trkpt><trkpt lat="44.90934160429654" lon="8.843649005513502"><ele>108.0</ele><time>2026-04-05T08:37:05Z</time></trkpt><trkpt lat="44.90908140841088" lon="8.843636801649641"><ele>108.0</ele><time>2026-04-05T08:37:06Z</time></trkpt><trkpt lat="44.90882295638123" lon="8.843616549224492"><ele>108.0</ele><time>2026-04-05T08:37:07Z</time></trkpt><trkpt lat="44.90855992676084" lon="8.843592570754534"><ele>108.0</ele><time>2026-04-05T08:37:08Z</time></trkpt><trkpt lat="44.90828861100879" lon="8.843562273875005"><ele>108.5</ele><time>2026-04-05T08:37:09Z</time></trkpt><trkpt lat="44.90801843355877" lon="8.843531730161954"><ele>109.0</ele><time>2026-04-05T08:37:10Z</time></trkpt><trkpt lat="44.90774299154336" lon="8.843506356601011"><ele>109.0</ele><time>2026-04-05T08:37:11Z</time></trkpt><trkpt lat="44.90746499441371" lon="8.843478619930957"><ele>109.0</ele><time>2026-04-05T08:37:12Z</time></trkpt><trkpt lat="44.90718756690105" lon="8.843448357843677"><ele>109.0</ele><time>2026-04-05T08:37:13Z</time></trkpt><trkpt lat="44.90690150659867" lon="8.84342375168548"><ele>109.0</ele><time>2026-04-05T08:37:14Z</time></trkpt><trkpt lat="44.90662320045977" lon="8.843400540528876"><ele>108.0</ele><time>2026-04-05T08:37:15Z</time></trkpt><trkpt lat="44.90633733953649" lon="8.843373083554173"><ele>107.0</ele><time>2026-04-05T08:37:16Z</time></trkpt><trkpt lat="44.90604842940315" lon="8.843342968439307"><ele>108.0</ele><time>2026-04-05T08:37:17Z</time></trkpt><trkpt lat="44.90576280279412" lon="8.84331544757799"><ele>109.0</ele><time>2026-04-05T08:37:18Z</time></trkpt><trkpt lat="44.90547644122754" lon="8.843285962652558"><ele>109.0</ele><time>2026-04-05T08:37:19Z</time></trkpt><trkpt lat="44.905187292687145" lon="8.843259643468668"><ele>109.0</ele><time>2026-04-05T08:37:20Z</time></trkpt><trkpt lat="44.904900334829016" lon="8.84323867028223"><ele>109.0</ele><time>2026-04-05T08:37:21Z</time></trkpt><trkpt lat="44.904610875756" lon="8.843218940512562"><ele>109.0</ele><time>2026-04-05T08:37:22Z</time></trkpt><trkpt lat="44.90432356252767" lon="8.843194388847218"><ele>110.0</ele><time>2026-04-05T08:37:23Z</time></trkpt><trkpt lat="44.904046610068754" lon="8.84316420234212"><ele>111.0</ele><time>2026-04-05T08:37:24Z</time></trkpt><trkpt lat="44.90376924034648" lon="8.843134380464459"><ele>111.0</ele><time>2026-04-05T08:37:25Z</time></trkpt><trkpt lat="44.90349395298217" lon="8.843106618205345"><ele>111.0</ele><time>2026-04-05T08:37:26Z</time></trkpt><trkpt lat="44.90321440495337" lon="8.843078682446745"><ele>110.0</ele><time>2026-04-05T08:37:27Z</time></trkpt><trkpt lat="44.90292688587953" lon="8.843053405098113"><ele>109.0</ele><time>2026-04-05T08:37:28Z</time></trkpt><trkpt lat="44.902648437633594" lon="8.843030974639353"><ele>110.5</ele><time>2026-04-05T08:37:29Z</time></trkpt><trkpt lat="44.90237547910056" lon="8.843007114057276"><ele>112.0</ele><time>2026-04-05T08:37:30Z</time></trkpt><trkpt lat="44.90210394299832" lon="8.842979454810072"><ele>112.0</ele><time>2026-04-05T08:37:31Z</time></trkpt><trkpt lat="44.9018374165176" lon="8.842951913390275"><ele>112.0</ele><time>2026-04-05T08:37:32Z</time></trkpt><trkpt lat="44.90157408927933" lon="8.842925167827504"><ele>111.0</ele><time>2026-04-05T08:37:33Z</time></trkpt><trkpt lat="44.9013095150952" lon="8.84289381231748"><ele>110.0</ele><time>2026-04-05T08:37:34Z</time></trkpt><trkpt lat="44.90104112617309" lon="8.842853623444984"><ele>110.0</ele><time>2026-04-05T08:37:34.999Z</time></trkpt><trkpt lat="44.900763840309196" lon="8.84281794321381"><ele>110.0</ele><time>2026-04-05T08:37:35.999Z</time></trkpt><trkpt lat="44.90048173950886" lon="8.84278046236719"><ele>110.0</ele><time>2026-04-05T08:37:36.999Z</time></trkpt><trkpt lat="44.90018512743562" lon="8.842735765582207"><ele>110.0</ele><time>2026-04-05T08:37:37.999Z</time></trkpt><trkpt lat="44.89986878447817" lon="8.842686416785641"><ele>111.5</ele><time>2026-04-05T08:37:38.999Z</time></trkpt><trkpt lat="44.89954531469225" lon="8.842633786564138"><ele>113.0</ele><time>2026-04-05T08:37:39.999Z</time></trkpt><trkpt lat="44.89921430874079" lon="8.84258655849785"><ele>113.5</ele><time>2026-04-05T08:37:40.999Z</time></trkpt><trkpt lat="44.89889742583339" lon="8.842541610734921"><ele>114.0</ele><time>2026-04-05T08:37:41.999Z</time></trkpt><trkpt lat="44.89858408707674" lon="8.842497831115045"><ele>114.5</ele><time>2026-04-05T08:37:42.999Z</time></trkpt><trkpt lat="44.898284085030824" lon="8.84244576739184"><ele>115.0</ele><time>2026-04-05T08:37:43.999Z</time></trkpt><trkpt lat="44.897987216363155" lon="8.84239382856083"><ele>115.0</ele><time>2026-04-05T08:37:44.999Z</time></trkpt><trkpt lat="44.89770805412079" lon="8.842347972699992"><ele>115.0</ele><time>2026-04-05T08:37:45.999Z</time></trkpt><trkpt lat="44.897444589096004" lon="8.842299777969066"><ele>115.5</ele><time>2026-04-05T08:37:46.999Z</time></trkpt><trkpt lat="44.89719847558945" lon="8.842258776644067"><ele>116.0</ele><time>2026-04-05T08:37:47.999Z</time></trkpt><trkpt lat="44.89695577793801" lon="8.842215937675046"><ele>115.0</ele><time>2026-04-05T08:37:48.999Z</time></trkpt><trkpt lat="44.896713909535244" lon="8.842176659908027"><ele>114.0</ele><time>2026-04-05T08:37:49.999Z</time></trkpt><trkpt lat="44.896478303983386" lon="8.842135195796045"><ele>114.0</ele><time>2026-04-05T08:37:50.999Z</time></trkpt><trkpt lat="44.89624469313553" lon="8.842101167071954"><ele>114.0</ele><time>2026-04-05T08:37:51.999Z</time></trkpt><trkpt lat="44.89600675626345" lon="8.842062924491314"><ele>115.5</ele><time>2026-04-05T08:37:52.999Z</time></trkpt><trkpt lat="44.895766129930976" lon="8.842020049336886"><ele>117.0</ele><time>2026-04-05T08:37:53.999Z</time></trkpt><trkpt lat="44.89552974709331" lon="8.8419762609577"><ele>117.0</ele><time>2026-04-05T08:37:54.999Z</time></trkpt><trkpt lat="44.89529169249627" lon="8.84193046151148"><ele>117.0</ele><time>2026-04-05T08:37:55.999Z</time></trkpt><trkpt lat="44.89505959749576" lon="8.84189229474084"><ele>116.5</ele><time>2026-04-05T08:37:56.999Z</time></trkpt><trkpt lat="44.89482412852678" lon="8.841856832620804"><ele>116.0</ele><time>2026-04-05T08:37:57.999Z</time></trkpt><trkpt lat="44.894585454905354" lon="8.84182067188798"><ele>117.0</ele><time>2026-04-05T08:37:58.999Z</time></trkpt><trkpt lat="44.89433959570601" lon="8.841780181602417"><ele>118.0</ele><time>2026-04-05T08:37:59.999Z</time></trkpt><trkpt lat="44.89409293841192" lon="8.84173461448346"><ele>118.0</ele><time>2026-04-05T08:38:00.999Z</time></trkpt><trkpt lat="44.89384025136913" lon="8.841688677088136"><ele>118.0</ele><time>2026-04-05T08:38:01.999Z</time></trkpt><trkpt lat="44.893590029949536" lon="8.841648731838951"><ele>117.5</ele><time>2026-04-05T08:38:02.999Z</time></trkpt><trkpt lat="44.893338566978215" lon="8.841611290179069"><ele>117.0</ele><time>2026-04-05T08:38:03.999Z</time></trkpt><trkpt lat="44.89308764852789" lon="8.841578510249795"><ele>117.0</ele><time>2026-04-05T08:38:04.999Z</time></trkpt><trkpt lat="44.8928410617661" lon="8.84153396127411"><ele>117.0</ele><time>2026-04-05T08:38:05.999Z</time></trkpt><trkpt lat="44.89259671274305" lon="8.841486589182075"><ele>116.5</ele><time>2026-04-05T08:38:06.999Z</time></trkpt><trkpt lat="44.892357022588456" lon="8.841433705922446"><ele>116.0</ele><time>2026-04-05T08:38:07.999Z</time></trkpt><trkpt lat="44.89211368451254" lon="8.841380038300246"><ele>116.0</ele><time>2026-04-05T08:38:08.999Z</time></trkpt><trkpt lat="44.89185847004249" lon="8.841323682135059"><ele>116.0</ele><time>2026-04-05T08:38:09.999Z</time></trkpt><trkpt lat="44.89158308037774" lon="8.841263943285115"><ele>115.5</ele><time>2026-04-05T08:38:10.999Z</time></trkpt><trkpt lat="44.891304534853845" lon="8.841195538093535"><ele>115.0</ele><time>2026-04-05T08:38:11.999Z</time></trkpt><trkpt lat="44.89102099019609" lon="8.841123554358182"><ele>116.0</ele><time>2026-04-05T08:38:12.999Z</time></trkpt><trkpt lat="44.890735990058815" lon="8.841047392256684"><ele>117.0</ele><time>2026-04-05T08:38:13.999Z</time></trkpt><trkpt lat="44.8904512017356" lon="8.840962134048116"><ele>117.5</ele><time>2026-04-05T08:38:14.999Z</time></trkpt><trkpt lat="44.89016892263313" lon="8.84086320310784"><ele>118.0</ele><time>2026-04-05T08:38:15.999Z</time></trkpt><trkpt lat="44.889872293967855" lon="8.84075076920416"><ele>118.0</ele><time>2026-04-05T08:38:16.999Z</time></trkpt><trkpt lat="44.88956904471699" lon="8.840621888217528"><ele>118.0</ele><time>2026-04-05T08:38:17.999Z</time></trkpt><trkpt lat="44.88925979953919" lon="8.840501648852921"><ele>117.5</ele><time>2026-04-05T08:38:18.999Z</time></trkpt><trkpt lat="44.888959657207266" lon="8.840382957777782"><ele>117.0</ele><time>2026-04-05T08:38:19.999Z</time></trkpt><trkpt lat="44.8886644582668" lon="8.840267889894047"><ele>117.0</ele><time>2026-04-05T08:38:20.999Z</time></trkpt><trkpt lat="44.88838373078523" lon="8.840153098883972"><ele>117.0</ele><time>2026-04-05T08:38:21.999Z</time></trkpt><trkpt lat="44.88811312945775" lon="8.840031773402371"><ele>117.0</ele><time>2026-04-05T08:38:22.999Z</time></trkpt><trkpt lat="44.88784138563015" lon="8.839909473012103"><ele>117.0</ele><time>2026-04-05T08:38:23.999Z</time></trkpt><trkpt lat="44.88757388323335" lon="8.83978601919473"><ele>117.0</ele><time>2026-04-05T08:38:24.999Z</time></trkpt><trkpt lat="44.88731175526866" lon="8.839661036619429"><ele>117.0</ele><time>2026-04-05T08:38:25.999Z</time></trkpt><trkpt lat="44.88705595594659" lon="8.8395304836319"><ele>117.0</ele><time>2026-04-05T08:38:26.999Z</time></trkpt><trkpt lat="44.88678743323024" lon="8.839404724629759"><ele>117.0</ele><time>2026-04-05T08:38:27.999Z</time></trkpt><trkpt lat="44.88651267356144" lon="8.839274817976166"><ele>117.0</ele><time>2026-04-05T08:38:28.999Z</time></trkpt><trkpt lat="44.88624052775286" lon="8.83914292350524"><ele>117.0</ele><time>2026-04-05T08:38:29.999Z</time></trkpt><trkpt lat="44.8859632804465" lon="8.839009759821892"><ele>118.0</ele><time>2026-04-05T08:38:30.999Z</time></trkpt><trkpt lat="44.8857024071166" lon="8.838882187539014"><ele>119.0</ele><time>2026-04-05T08:38:31.999Z</time></trkpt><trkpt lat="44.88545841421716" lon="8.838758027413572"><ele>119.0</ele><time>2026-04-05T08:38:32.999Z</time></trkpt><trkpt lat="44.885227144189564" lon="8.838645788999075"><ele>119.0</ele><time>2026-04-05T08:38:33.999Z</time></trkpt><trkpt lat="44.88500209803481" lon="8.838530708497412"><ele>119.0</ele><time>2026-04-05T08:38:35Z</time></trkpt><trkpt lat="44.88479164199524" lon="8.838428457231293"><ele>119.0</ele><time>2026-04-05T08:38:36Z</time></trkpt><trkpt lat="44.884596127806134" lon="8.838330101750987"><ele>119.0</ele><time>2026-04-05T08:38:37Z</time></trkpt><trkpt lat="44.88441567859624" lon="8.83824443753432"><ele>118.33333333333333</ele><time>2026-04-05T08:38:38Z</time></trkpt><trkpt lat="44.88424979572475" lon="8.838160012608098"><ele>117.66666666666666</ele><time>2026-04-05T08:38:39Z</time></trkpt><trkpt lat="44.88410216734691" lon="8.83809174024256"><ele>117.0</ele><time>2026-04-05T08:38:40Z</time></trkpt><trkpt lat="44.88397299361867" lon="8.838031974526215"><ele>117.0</ele><time>2026-04-05T08:38:41Z</time></trkpt><trkpt lat="44.883857022032565" lon="8.837970848428743"><ele>116.99999999999999</ele><time>2026-04-05T08:38:42Z</time></trkpt><trkpt lat="44.88375423613941" lon="8.837905138796025"><ele>116.99999999999999</ele><time>2026-04-05T08:38:43Z</time></trkpt><trkpt lat="44.88366631916091" lon="8.837844017984768"><ele>117.0</ele><time>2026-04-05T08:38:44Z</time></trkpt><trkpt lat="44.88358860921362" lon="8.837797861986841"><ele>117.0</ele><time>2026-04-05T08:38:45Z</time></trkpt><trkpt lat="44.88351531851002" lon="8.837767785771929"><ele>117.0</ele><time>2026-04-05T08:38:46Z</time></trkpt><trkpt lat="44.88344568014482" lon="8.837742929732471"><ele>117.0</ele><time>2026-04-05T08:38:47Z</time></trkpt><trkpt lat="44.883376696101045" lon="8.837712621136324"><ele>117.0</ele><time>2026-04-05T08:38:49Z</time></trkpt><trkpt lat="44.88331523627709" lon="8.837676294121817"><ele>117.0</ele><time>2026-04-05T08:39:12Z</time></trkpt><trkpt lat="44.883236906369376" lon="8.837628394134175"><ele>117.0</ele><time>2026-04-05T08:39:14Z</time></trkpt><trkpt lat="44.88316444671644" lon="8.837592469951929"><ele>117.0</ele><time>2026-04-05T08:39:15Z</time></trkpt><trkpt lat="44.88307176240455" lon="8.83757170072943"><ele>117.75</ele><time>2026-04-05T08:39:16Z</time></trkpt><trkpt lat="44.882955239935995" lon="8.837530268055014"><ele>118.5</ele><time>2026-04-05T08:39:17Z</time></trkpt><trkpt lat="44.88283516721029" lon="8.837469890160088"><ele>119.25</ele><time>2026-04-05T08:39:18Z</time></trkpt><trkpt lat="44.88267081100763" lon="8.837402371411464"><ele>120.0</ele><time>2026-04-05T08:39:19Z</time></trkpt><trkpt lat="44.88247538363343" lon="8.837321167465673"><ele>120.0</ele><time>2026-04-05T08:39:20Z</time></trkpt><trkpt lat="44.882245540705505" lon="8.83721910603823"><ele>120.0</ele><time>2026-04-05T08:39:21Z</time></trkpt><trkpt lat="44.881980537735465" lon="8.837103524045412"><ele>119.0</ele><time>2026-04-05T08:39:22Z</time></trkpt><trkpt lat="44.881696647672214" lon="8.836965615487797"><ele>118.0</ele><time>2026-04-05T08:39:23Z</time></trkpt><trkpt lat="44.881379370493114" lon="8.836819818717046"><ele>119.5</ele><time>2026-04-05T08:39:24Z</time></trkpt><trkpt lat="44.88105082481237" lon="8.83667282968322"><ele>121.0</ele><time>2026-04-05T08:39:25Z</time></trkpt><trkpt lat="44.88071732775066" lon="8.836515917117815"><ele>121.0</ele><time>2026-04-05T08:39:26Z</time></trkpt><trkpt lat="44.880388137794604" lon="8.836363232076412"><ele>121.0</ele><time>2026-04-05T08:39:27Z</time></trkpt><trkpt lat="44.880060460828595" lon="8.836210621567291"><ele>121.0</ele><time>2026-04-05T08:39:28Z</time></trkpt><trkpt lat="44.87974120947244" lon="8.836070830603886"><ele>121.0</ele><time>2026-04-05T08:39:29Z</time></trkpt><trkpt lat="44.879434552747455" lon="8.835921179784032"><ele>122.5</ele><time>2026-04-05T08:39:30Z</time></trkpt><trkpt lat="44.879137119383664" lon="8.835788729650462"><ele>124.0</ele><time>2026-04-05T08:39:31Z</time></trkpt><trkpt lat="44.878850774255866" lon="8.83564557691405"><ele>124.0</ele><time>2026-04-05T08:39:32Z</time></trkpt><trkpt lat="44.87857217306505" lon="8.835521873084325"><ele>124.0</ele><time>2026-04-05T08:39:33Z</time></trkpt><trkpt lat="44.87829344785596" lon="8.83539411751777"><ele>123.5</ele><time>2026-04-05T08:39:34Z</time></trkpt><trkpt lat="44.87801656683878" lon="8.835263809455032"><ele>123.0</ele><time>2026-04-05T08:39:35Z</time></trkpt><trkpt lat="44.87773887047243" lon="8.83513297554116"><ele>123.0</ele><time>2026-04-05T08:39:36Z</time></trkpt><trkpt lat="44.87745648452814" lon="8.835002751408542"><ele>123.0</ele><time>2026-04-05T08:39:37Z</time></trkpt><trkpt lat="44.87717398139199" lon="8.834874268273829"><ele>123.0</ele><time>2026-04-05T08:39:38Z</time></trkpt><trkpt lat="44.87688822699671" lon="8.834747350339326"><ele>123.0</ele><time>2026-04-05T08:39:39Z</time></trkpt><trkpt lat="44.8765952992989" lon="8.83461114326639"><ele>122.5</ele><time>2026-04-05T08:39:40Z</time></trkpt><trkpt lat="44.876275333188495" lon="8.834468588197023"><ele>122.0</ele><time>2026-04-05T08:39:41Z</time></trkpt><trkpt lat="44.87593497540019" lon="8.83432082448961"><ele>122.0</ele><time>2026-04-05T08:39:42Z</time></trkpt><trkpt lat="44.8755793232143" lon="8.834165426730555"><ele>122.0</ele><time>2026-04-05T08:39:43Z</time></trkpt><trkpt lat="44.87522356068911" lon="8.834013204024794"><ele>123.0</ele><time>2026-04-05T08:39:43.999Z</time></trkpt><trkpt lat="44.87487529880145" lon="8.833866241641022"><ele>124.0</ele><time>2026-04-05T08:39:44.999Z</time></trkpt><trkpt lat="44.874539466695836" lon="8.833726370062614"><ele>124.5</ele><time>2026-04-05T08:39:45.999Z</time></trkpt><trkpt lat="44.87421522595208" lon="8.833588196611911"><ele>125.0</ele><time>2026-04-05T08:39:46.999Z</time></trkpt><trkpt lat="44.87390464644743" lon="8.83345701871039"><ele>124.5</ele><time>2026-04-05T08:39:47.999Z</time></trkpt><trkpt lat="44.87360168542529" lon="8.833329322019313"><ele>124.0</ele><time>2026-04-05T08:39:48.999Z</time></trkpt><trkpt lat="44.87329902217115" lon="8.833202876829267"><ele>124.0</ele><time>2026-04-05T08:39:49.999Z</time></trkpt><trkpt lat="44.873003606192704" lon="8.833075759787606"><ele>124.0</ele><time>2026-04-05T08:39:50.999Z</time></trkpt><trkpt lat="44.872713678902656" lon="8.832947321147666"><ele>124.0</ele><time>2026-04-05T08:39:51.999Z</time></trkpt><trkpt lat="44.87242304421552" lon="8.832815792834912"><ele>124.0</ele><time>2026-04-05T08:39:52.999Z</time></trkpt><trkpt lat="44.87213147450554" lon="8.832682840134186"><ele>124.0</ele><time>2026-04-05T08:39:53.999Z</time></trkpt><trkpt lat="44.871842935446985" lon="8.832551614791424"><ele>124.0</ele><time>2026-04-05T08:39:54.999Z</time></trkpt><trkpt lat="44.87154822650107" lon="8.83242332458719"><ele>123.5</ele><time>2026-04-05T08:39:55.999Z</time></trkpt><trkpt lat="44.87125503872696" lon="8.832286777674387"><ele>123.0</ele><time>2026-04-05T08:39:56.999Z</time></trkpt><trkpt lat="44.87095953463257" lon="8.832153762808426"><ele>123.0</ele><time>2026-04-05T08:39:57.999Z</time></trkpt><trkpt lat="44.87066897003969" lon="8.832013219427097"><ele>123.0</ele><time>2026-04-05T08:39:58.999Z</time></trkpt><trkpt lat="44.87037622328648" lon="8.831896728201484"><ele>123.5</ele><time>2026-04-05T08:39:59.999Z</time></trkpt><trkpt lat="44.870084577706535" lon="8.8317718810606"><ele>124.0</ele><time>2026-04-05T08:40:00.999Z</time></trkpt><trkpt lat="44.86978932602919" lon="8.831647883901372"><ele>124.0</ele><time>2026-04-05T08:40:01.999Z</time></trkpt><trkpt lat="44.86949871822054" lon="8.831521758918193"><ele>124.0</ele><time>2026-04-05T08:40:02.999Z</time></trkpt><trkpt lat="44.86921052675281" lon="8.831397577426653"><ele>125.0</ele><time>2026-04-05T08:40:03.999Z</time></trkpt><trkpt lat="44.86892511378052" lon="8.831272696013652"><ele>126.0</ele><time>2026-04-05T08:40:04.999Z</time></trkpt><trkpt lat="44.868638989949645" lon="8.8311433423177"><ele>126.0</ele><time>2026-04-05T08:40:05.999Z</time></trkpt><trkpt lat="44.86834693150531" lon="8.831027625668925"><ele>126.0</ele><time>2026-04-05T08:40:06.999Z</time></trkpt><trkpt lat="44.868055477038425" lon="8.83090155200394"><ele>125.5</ele><time>2026-04-05T08:40:07.999Z</time></trkpt><trkpt lat="44.8677568616709" lon="8.830790366603841"><ele>125.0</ele><time>2026-04-05T08:40:08.999Z</time></trkpt><trkpt lat="44.86744247856008" lon="8.830690731275537"><ele>124.5</ele><time>2026-04-05T08:40:09.999Z</time></trkpt><trkpt lat="44.867132861455424" lon="8.830591881331284"><ele>124.0</ele><time>2026-04-05T08:40:10.999Z</time></trkpt><trkpt lat="44.866830608828614" lon="8.830502381700724"><ele>124.5</ele><time>2026-04-05T08:40:11.999Z</time></trkpt><trkpt lat="44.86653253526442" lon="8.830421963779775"><ele>125.0</ele><time>2026-04-05T08:40:12.999Z</time></trkpt><trkpt lat="44.86624899346326" lon="8.830351840679613"><ele>125.0</ele><time>2026-04-05T08:40:13.999Z</time></trkpt><trkpt lat="44.865962094834195" lon="8.830287859209452"><ele>125.0</ele><time>2026-04-05T08:40:14.999Z</time></trkpt><trkpt lat="44.86567986367687" lon="8.830230708854083"><ele>126.0</ele><time>2026-04-05T08:40:15.999Z</time></trkpt><trkpt lat="44.865402007559155" lon="8.830171761763843"><ele>127.0</ele><time>2026-04-05T08:40:16.999Z</time></trkpt><trkpt lat="44.86512361816295" lon="8.830125920098585"><ele>126.5</ele><time>2026-04-05T08:40:17.999Z</time></trkpt><trkpt lat="44.86484975246007" lon="8.830074479102297"><ele>126.0</ele><time>2026-04-05T08:40:18.999Z</time></trkpt><trkpt lat="44.8645654784097" lon="8.830053125097653"><ele>126.0</ele><time>2026-04-05T08:40:19.999Z</time></trkpt><trkpt lat="44.864281292072626" lon="8.830034910009655"><ele>126.0</ele><time>2026-04-05T08:40:20.999Z</time></trkpt><trkpt lat="44.86398973831978" lon="8.830019457384342"><ele>126.0</ele><time>2026-04-05T08:40:21.999Z</time></trkpt><trkpt lat="44.863692789931235" lon="8.830007494703972"><ele>126.0</ele><time>2026-04-05T08:40:22.999Z</time></trkpt><trkpt lat="44.86339583180512" lon="8.829998684137971"><ele>126.5</ele><time>2026-04-05T08:40:23.999Z</time></trkpt><trkpt lat="44.86309004306451" lon="8.829994925281834"><ele>127.0</ele><time>2026-04-05T08:40:24.999Z</time></trkpt><trkpt lat="44.86278939816301" lon="8.829971826322426"><ele>128.0</ele><time>2026-04-05T08:40:25.999Z</time></trkpt><trkpt lat="44.86248592907289" lon="8.829959650822415"><ele>129.0</ele><time>2026-04-05T08:40:26.999Z</time></trkpt><trkpt lat="44.86218601831178" lon="8.829935282713747"><ele>129.0</ele><time>2026-04-05T08:40:27.999Z</time></trkpt><trkpt lat="44.86187345897438" lon="8.829914827499783"><ele>129.0</ele><time>2026-04-05T08:40:28.999Z</time></trkpt><trkpt lat="44.861552630140494" lon="8.829906605024"><ele>129.0</ele><time>2026-04-05T08:40:29.999Z</time></trkpt><trkpt lat="44.861234436151044" lon="8.829886913859703"><ele>129.0</ele><time>2026-04-05T08:40:30.999Z</time></trkpt><trkpt lat="44.86092309006368" lon="8.829864064960681"><ele>129.0</ele><time>2026-04-05T08:40:31.999Z</time></trkpt><trkpt lat="44.86060536482469" lon="8.829855601498851"><ele>129.0</ele><time>2026-04-05T08:40:32.999Z</time></trkpt><trkpt lat="44.860289874923716" lon="8.829844661753661"><ele>129.0</ele><time>2026-04-05T08:40:33.999Z</time></trkpt><trkpt lat="44.859979668053946" lon="8.82983258748527"><ele>129.0</ele><time>2026-04-05T08:40:34.999Z</time></trkpt><trkpt lat="44.85967184156694" lon="8.829819037324697"><ele>129.0</ele><time>2026-04-05T08:40:35.999Z</time></trkpt><trkpt lat="44.85936801587074" lon="8.82979885501395"><ele>129.0</ele><time>2026-04-05T08:40:36.999Z</time></trkpt><trkpt lat="44.85905898351458" lon="8.829781473872492"><ele>129.0</ele><time>2026-04-05T08:40:37.999Z</time></trkpt><trkpt lat="44.85874741152108" lon="8.829765348154726"><ele>129.0</ele><time>2026-04-05T08:40:38.999Z</time></trkpt><trkpt lat="44.858429310768976" lon="8.829745436728318"><ele>129.0</ele><time>2026-04-05T08:40:39.999Z</time></trkpt><trkpt lat="44.85810331753658" lon="8.829719652638449"><ele>129.0</ele><time>2026-04-05T08:40:41Z</time></trkpt><trkpt lat="44.857778725703355" lon="8.82970845893563"><ele>129.5</ele><time>2026-04-05T08:40:42Z</time></trkpt><trkpt lat="44.857468716305995" lon="8.829676359244942"><ele>130.0</ele><time>2026-04-05T08:40:43Z</time></trkpt><trkpt lat="44.8571672943857" lon="8.829655570048926"><ele>130.0</ele><time>2026-04-05T08:40:44Z</time></trkpt><trkpt lat="44.85686497842985" lon="8.829643116858435"><ele>130.0</ele><time>2026-04-05T08:40:45Z</time></trkpt><trkpt lat="44.85656743056521" lon="8.829633932536925"><ele>129.5</ele><time>2026-04-05T08:40:46Z</time></trkpt><trkpt lat="44.85627190648126" lon="8.829620656739596"><ele>129.0</ele><time>2026-04-05T08:40:47Z</time></trkpt><trkpt lat="44.85598077696297" lon="8.829604810653692"><ele>130.0</ele><time>2026-04-05T08:40:48Z</time></trkpt><trkpt lat="44.85569094677088" lon="8.82959162020365"><ele>131.0</ele><time>2026-04-05T08:40:49Z</time></trkpt><trkpt lat="44.855400273430774" lon="8.829574877814697"><ele>131.5</ele><time>2026-04-05T08:40:50Z</time></trkpt><trkpt lat="44.85510635926287" lon="8.829569046548947"><ele>132.0</ele><time>2026-04-05T08:40:51Z</time></trkpt><trkpt lat="44.85481681126894" lon="8.829557316970305"><ele>132.0</ele><time>2026-04-05T08:40:52Z</time></trkpt><trkpt lat="44.85451478449414" lon="8.829534900703617"><ele>132.0</ele><time>2026-04-05T08:40:53Z</time></trkpt><trkpt lat="44.85421945213694" lon="8.829516362247574"><ele>133.0</ele><time>2026-04-05T08:40:54Z</time></trkpt><trkpt lat="44.85392706217144" lon="8.829492669578347"><ele>134.0</ele><time>2026-04-05T08:40:55Z</time></trkpt><trkpt lat="44.85363410276395" lon="8.829474147533174"><ele>135.0</ele><time>2026-04-05T08:40:56Z</time></trkpt><trkpt lat="44.85333627450045" lon="8.82945704845934"><ele>136.0</ele><time>2026-04-05T08:40:57Z</time></trkpt><trkpt lat="44.853031973393264" lon="8.82944762406219"><ele>136.0</ele><time>2026-04-05T08:40:58Z</time></trkpt><trkpt lat="44.85272717376877" lon="8.829433418482196"><ele>136.0</ele><time>2026-04-05T08:40:59Z</time></trkpt><trkpt lat="44.852416345720506" lon="8.829412098746891"><ele>135.0</ele><time>2026-04-05T08:41:00Z</time></trkpt><trkpt lat="44.85210580945759" lon="8.829391855522896"><ele>134.0</ele><time>2026-04-05T08:41:01Z</time></trkpt><trkpt lat="44.85179670101911" lon="8.829374184531115"><ele>134.0</ele><time>2026-04-05T08:41:02Z</time></trkpt><trkpt lat="44.85149197622075" lon="8.829353495310816"><ele>134.0</ele><time>2026-04-05T08:41:03Z</time></trkpt><trkpt lat="44.85118845958473" lon="8.829336236449262"><ele>135.0</ele><time>2026-04-05T08:41:04Z</time></trkpt><trkpt lat="44.85088399363785" lon="8.829318913556657"><ele>136.0</ele><time>2026-04-05T08:41:05Z</time></trkpt><trkpt lat="44.850566801222804" lon="8.82930663427109"><ele>136.0</ele><time>2026-04-05T08:41:06Z</time></trkpt><trkpt lat="44.850254162913224" lon="8.829287735197186"><ele>136.0</ele><time>2026-04-05T08:41:07Z</time></trkpt><trkpt lat="44.84993829705775" lon="8.829266604831494"><ele>136.0</ele><time>2026-04-05T08:41:08Z</time></trkpt><trkpt lat="44.8496245333471" lon="8.829246971994932"><ele>136.0</ele><time>2026-04-05T08:41:09Z</time></trkpt><trkpt lat="44.84931396375945" lon="8.829230487495112"><ele>136.0</ele><time>2026-04-05T08:41:10Z</time></trkpt><trkpt lat="44.849003842128795" lon="8.829214141178154"><ele>136.0</ele><time>2026-04-05T08:41:11Z</time></trkpt><trkpt lat="44.84869704480732" lon="8.82919330324499"><ele>136.5</ele><time>2026-04-05T08:41:12Z</time></trkpt><trkpt lat="44.848396201672536" lon="8.829175381819011"><ele>137.0</ele><time>2026-04-05T08:41:13Z</time></trkpt><trkpt lat="44.8481056923807" lon="8.829149763228159"><ele>137.0</ele><time>2026-04-05T08:41:14Z</time></trkpt><trkpt lat="44.84781599323468" lon="8.8291306765939"><ele>137.0</ele><time>2026-04-05T08:41:15Z</time></trkpt><trkpt lat="44.84753462400581" lon="8.829111795491377"><ele>138.0</ele><time>2026-04-05T08:41:16Z</time></trkpt><trkpt lat="44.84725507017115" lon="8.829093829475486"><ele>139.0</ele><time>2026-04-05T08:41:17Z</time></trkpt><trkpt lat="44.84696339427758" lon="8.829073835546286"><ele>137.5</ele><time>2026-04-05T08:41:18Z</time></trkpt><trkpt lat="44.84665091644272" lon="8.82905567939134"><ele>136.0</ele><time>2026-04-05T08:41:19Z</time></trkpt><trkpt lat="44.846320756055036" lon="8.829038046571132"><ele>136.0</ele><time>2026-04-05T08:41:20Z</time></trkpt><trkpt lat="44.845989576116686" lon="8.82902520362554"><ele>136.0</ele><time>2026-04-05T08:41:21Z</time></trkpt><trkpt lat="44.845670754389246" lon="8.82901112071189"><ele>137.0</ele><time>2026-04-05T08:41:22Z</time></trkpt><trkpt lat="44.84535861496357" lon="8.828991508636513"><ele>138.0</ele><time>2026-04-05T08:41:23Z</time></trkpt><trkpt lat="44.845049162707554" lon="8.828971238263236"><ele>138.0</ele><time>2026-04-05T08:41:24Z</time></trkpt><trkpt lat="44.84475286740446" lon="8.828944071398432"><ele>138.0</ele><time>2026-04-05T08:41:25Z</time></trkpt><trkpt lat="44.84448033442992" lon="8.828915505311492"><ele>138.0</ele><time>2026-04-05T08:41:26Z</time></trkpt><trkpt lat="44.844220136136926" lon="8.828890166977338"><ele>138.0</ele><time>2026-04-05T08:41:27Z</time></trkpt><trkpt lat="44.84396378794774" lon="8.82886375798259"><ele>138.0</ele><time>2026-04-05T08:41:28Z</time></trkpt><trkpt lat="44.843704289026725" lon="8.82884161819372"><ele>138.0</ele><time>2026-04-05T08:41:29Z</time></trkpt><trkpt lat="44.84344792330629" lon="8.828820837865148"><ele>138.0</ele><time>2026-04-05T08:41:30Z</time></trkpt><trkpt lat="44.84318686314206" lon="8.828808077740353"><ele>138.0</ele><time>2026-04-05T08:41:31Z</time></trkpt><trkpt lat="44.842935775691906" lon="8.828784047337818"><ele>138.0</ele><time>2026-04-05T08:41:32Z</time></trkpt><trkpt lat="44.84266434470315" lon="8.828767333523171"><ele>138.0</ele><time>2026-04-05T08:41:33Z</time></trkpt><trkpt lat="44.842393560285174" lon="8.828755005075486"><ele>138.5</ele><time>2026-04-05T08:41:34Z</time></trkpt><trkpt lat="44.842126535115476" lon="8.828739468801235"><ele>139.0</ele><time>2026-04-05T08:41:35Z</time></trkpt><trkpt lat="44.84186315834968" lon="8.82872161221543"><ele>139.5</ele><time>2026-04-05T08:41:36Z</time></trkpt><trkpt lat="44.84159698609413" lon="8.828704774189369"><ele>140.0</ele><time>2026-04-05T08:41:37Z</time></trkpt><trkpt lat="44.84132974992271" lon="8.828688836696374"><ele>140.0</ele><time>2026-04-05T08:41:38Z</time></trkpt><trkpt lat="44.84105152905506" lon="8.828671460980035"><ele>140.0</ele><time>2026-04-05T08:41:39Z</time></trkpt><trkpt lat="44.840770976530166" lon="8.828647426305753"><ele>140.0</ele><time>2026-04-05T08:41:40Z</time></trkpt><trkpt lat="44.8404890844885" lon="8.828619006662876"><ele>140.0</ele><time>2026-04-05T08:41:41Z</time></trkpt><trkpt lat="44.840206060765844" lon="8.828591594683642"><ele>139.5</ele><time>2026-04-05T08:41:42Z</time></trkpt><trkpt lat="44.83992623818746" lon="8.828556513665744"><ele>139.0</ele><time>2026-04-05T08:41:43Z</time></trkpt><trkpt lat="44.83964880864679" lon="8.828511225007459"><ele>140.0</ele><time>2026-04-05T08:41:44Z</time></trkpt><trkpt lat="44.83937545763649" lon="8.82846712636641"><ele>141.0</ele><time>2026-04-05T08:41:45Z</time></trkpt><trkpt lat="44.83910509274267" lon="8.828422620026808"><ele>141.0</ele><time>2026-04-05T08:41:46Z</time></trkpt><trkpt lat="44.83883306750756" lon="8.828375559048556"><ele>141.0</ele><time>2026-04-05T08:41:46.999Z</time></trkpt><trkpt lat="44.83856257875379" lon="8.82833348517841"><ele>141.5</ele><time>2026-04-05T08:41:47.999Z</time></trkpt><trkpt lat="44.83829340206507" lon="8.828289897974404"><ele>142.0</ele><time>2026-04-05T08:41:48.999Z</time></trkpt><trkpt lat="44.83802681088817" lon="8.828247126275159"><ele>142.0</ele><time>2026-04-05T08:41:49.999Z</time></trkpt><trkpt lat="44.837759051882294" lon="8.828208204361175"><ele>142.0</ele><time>2026-04-05T08:41:50.999Z</time></trkpt><trkpt lat="44.837488335887386" lon="8.828182995566632"><ele>141.5</ele><time>2026-04-05T08:41:51.999Z</time></trkpt><trkpt lat="44.837218931168245" lon="8.828144382948828"><ele>141.0</ele><time>2026-04-05T08:41:52.999Z</time></trkpt><trkpt lat="44.83695382381111" lon="8.828103093562113"><ele>141.5</ele><time>2026-04-05T08:41:53.999Z</time></trkpt><trkpt lat="44.836684344072175" lon="8.828063862596203"><ele>142.0</ele><time>2026-04-05T08:41:54.999Z</time></trkpt><trkpt lat="44.836399149770806" lon="8.828022765857096"><ele>142.0</ele><time>2026-04-05T08:41:55.999Z</time></trkpt><trkpt lat="44.83613168016992" lon="8.82798303391236"><ele>142.0</ele><time>2026-04-05T08:41:56.999Z</time></trkpt><trkpt lat="44.83588603140482" lon="8.827945341524977"><ele>142.5</ele><time>2026-04-05T08:41:57.999Z</time></trkpt><trkpt lat="44.83565934166637" lon="8.82789963602354"><ele>143.0</ele><time>2026-04-05T08:41:58.999Z</time></trkpt><trkpt lat="44.83542065727995" lon="8.827831058755345"><ele>143.0</ele><time>2026-04-05T08:41:59.999Z</time></trkpt><trkpt lat="44.83517975725745" lon="8.8277330287275"><ele>143.0</ele><time>2026-04-05T08:42:00.999Z</time></trkpt><trkpt lat="44.834951290896235" lon="8.82760267783191"><ele>144.0</ele><time>2026-04-05T08:42:01.999Z</time></trkpt><trkpt lat="44.83472682054907" lon="8.827457816365047"><ele>145.0</ele><time>2026-04-05T08:42:02.999Z</time></trkpt><trkpt lat="44.834509065128934" lon="8.827290790370645"><ele>144.5</ele><time>2026-04-05T08:42:03.999Z</time></trkpt><trkpt lat="44.83429534879064" lon="8.82709861264238"><ele>144.0</ele><time>2026-04-05T08:42:04.999Z</time></trkpt><trkpt lat="44.83408846426868" lon="8.82688060325593"><ele>144.0</ele><time>2026-04-05T08:42:05.999Z</time></trkpt><trkpt lat="44.83388246867821" lon="8.82664285588827"><ele>144.0</ele><time>2026-04-05T08:42:06.999Z</time></trkpt><trkpt lat="44.83368526876843" lon="8.826380513773115"><ele>144.0</ele><time>2026-04-05T08:42:07.999Z</time></trkpt><trkpt lat="44.833500826209615" lon="8.826096814276882"><ele>144.0</ele><time>2026-04-05T08:42:08.999Z</time></trkpt><trkpt lat="44.83333510127354" lon="8.825804348106848"><ele>145.0</ele><time>2026-04-05T08:42:09.999Z</time></trkpt><trkpt lat="44.833172808775345" lon="8.825497480510288"><ele>146.0</ele><time>2026-04-05T08:42:10.999Z</time></trkpt><trkpt lat="44.83301759151785" lon="8.825162888159271"><ele>146.0</ele><time>2026-04-05T08:42:11.999Z</time></trkpt><trkpt lat="44.832866491206154" lon="8.82479680556281"><ele>146.0</ele><time>2026-04-05T08:42:12.999Z</time></trkpt><trkpt lat="44.832723444921776" lon="8.824434198647905"><ele>147.5</ele><time>2026-04-05T08:42:13.999Z</time></trkpt><trkpt lat="44.83260032574215" lon="8.824098366957251"><ele>149.0</ele><time>2026-04-05T08:42:14.999Z</time></trkpt><trkpt lat="44.83248683533148" lon="8.82376759574845"><ele>148.0</ele><time>2026-04-05T08:42:15.999Z</time></trkpt><trkpt lat="44.832380372682735" lon="8.823428733637785"><ele>147.0</ele><time>2026-04-05T08:42:16.999Z</time></trkpt><trkpt lat="44.83227709963542" lon="8.82307702452329"><ele>147.0</ele><time>2026-04-05T08:42:17.999Z</time></trkpt><trkpt lat="44.83217441051566" lon="8.822708738872192"><ele>147.0</ele><time>2026-04-05T08:42:18.999Z</time></trkpt><trkpt lat="44.832083954697815" lon="8.822327696369548"><ele>147.0</ele><time>2026-04-05T08:42:19.999Z</time></trkpt><trkpt lat="44.83199419551597" lon="8.821943256359488"><ele>147.0</ele><time>2026-04-05T08:42:20.999Z</time></trkpt><trkpt lat="44.83190195948286" lon="8.821546613322248"><ele>147.0</ele><time>2026-04-05T08:42:21.999Z</time></trkpt><trkpt lat="44.831810636701626" lon="8.821143920310268"><ele>147.0</ele><time>2026-04-05T08:42:22.999Z</time></trkpt><trkpt lat="44.8317169377057" lon="8.82074934202309"><ele>147.5</ele><time>2026-04-05T08:42:23.999Z</time></trkpt><trkpt lat="44.83162617713421" lon="8.820362204935178"><ele>148.0</ele><time>2026-04-05T08:42:24.999Z</time></trkpt><trkpt lat="44.83153870056947" lon="8.819981279079473"><ele>148.0</ele><time>2026-04-05T08:42:25.999Z</time></trkpt><trkpt lat="44.83145097026424" lon="8.819592700479763"><ele>148.0</ele><time>2026-04-05T08:42:26.999Z</time></trkpt><trkpt lat="44.831356417576366" lon="8.819195683686749"><ele>148.5</ele><time>2026-04-05T08:42:27.999Z</time></trkpt><trkpt lat="44.83126005586155" lon="8.818788851015233"><ele>149.0</ele><time>2026-04-05T08:42:28.999Z</time></trkpt><trkpt lat="44.831164358315164" lon="8.81838304006519"><ele>148.0</ele><time>2026-04-05T08:42:29.999Z</time></trkpt><trkpt lat="44.83106519781284" lon="8.817963426073293"><ele>147.0</ele><time>2026-04-05T08:42:30.999Z</time></trkpt><trkpt lat="44.83095899679966" lon="8.817539036065648"><ele>147.0</ele><time>2026-04-05T08:42:31.999Z</time></trkpt><trkpt lat="44.83085968492521" lon="8.817106995826574"><ele>147.0</ele><time>2026-04-05T08:42:32.999Z</time></trkpt><trkpt lat="44.83075573331762" lon="8.816676809993092"><ele>147.0</ele><time>2026-04-05T08:42:33.999Z</time></trkpt><trkpt lat="44.83065525191477" lon="8.816252898454202"><ele>147.0</ele><time>2026-04-05T08:42:34.999Z</time></trkpt><trkpt lat="44.83055241495887" lon="8.815818305322331"><ele>146.5</ele><time>2026-04-05T08:42:35.999Z</time></trkpt><trkpt lat="44.830448520505755" lon="8.815382272555171"><ele>146.0</ele><time>2026-04-05T08:42:36.999Z</time></trkpt><trkpt lat="44.83034645194167" lon="8.814956996056328"><ele>146.0</ele><time>2026-04-05T08:42:37.999Z</time></trkpt><trkpt lat="44.83024200611647" lon="8.814535490007563"><ele>146.0</ele><time>2026-04-05T08:42:38.999Z</time></trkpt><trkpt lat="44.83015130564394" lon="8.814122844760686"><ele>145.5</ele><time>2026-04-05T08:42:39.999Z</time></trkpt><trkpt lat="44.83006612976906" lon="8.81371080445997"><ele>145.0</ele><time>2026-04-05T08:42:40.999Z</time></trkpt><trkpt lat="44.82997846966858" lon="8.81329181058923"><ele>145.0</ele><time>2026-04-05T08:42:41.999Z</time></trkpt><trkpt lat="44.82988219972712" lon="8.812875579754612"><ele>145.0</ele><time>2026-04-05T08:42:42.999Z</time></trkpt><trkpt lat="44.82979269506338" lon="8.812483097883662"><ele>145.5</ele><time>2026-04-05T08:42:43.999Z</time></trkpt><trkpt lat="44.829704581019485" lon="8.812109013483395"><ele>146.0</ele><time>2026-04-05T08:42:44.999Z</time></trkpt><trkpt lat="44.82961261852708" lon="8.81173358192431"><ele>146.0</ele><time>2026-04-05T08:42:45.999Z</time></trkpt><trkpt lat="44.829523198935526" lon="8.811362040817983"><ele>146.0</ele><time>2026-04-05T08:42:47Z</time></trkpt><trkpt lat="44.829434236776294" lon="8.810995218448586"><ele>146.0</ele><time>2026-04-05T08:42:48Z</time></trkpt><trkpt lat="44.829348661233304" lon="8.810628881113354"><ele>146.0</ele><time>2026-04-05T08:42:49Z</time></trkpt><trkpt lat="44.829264191143416" lon="8.810266575451243"><ele>145.0</ele><time>2026-04-05T08:42:50Z</time></trkpt><trkpt lat="44.82917823910819" lon="8.809904516776962"><ele>144.0</ele><time>2026-04-05T08:42:51Z</time></trkpt><trkpt lat="44.82909180737735" lon="8.809534221175555"><ele>144.0</ele><time>2026-04-05T08:42:52Z</time></trkpt><trkpt lat="44.82900656940338" lon="8.80916464215898"><ele>144.0</ele><time>2026-04-05T08:42:53Z</time></trkpt><trkpt lat="44.828919804251434" lon="8.808801947699347"><ele>144.5</ele><time>2026-04-05T08:42:54Z</time></trkpt><trkpt lat="44.828829844211846" lon="8.808436694060354"><ele>145.0</ele><time>2026-04-05T08:42:55Z</time></trkpt><trkpt lat="44.8287379157361" lon="8.808059816636764"><ele>145.0</ele><time>2026-04-05T08:42:56Z</time></trkpt><trkpt lat="44.8286456669929" lon="8.807672058321184"><ele>145.0</ele><time>2026-04-05T08:42:57Z</time></trkpt><trkpt lat="44.82855572933666" lon="8.807279583342787"><ele>144.5</ele><time>2026-04-05T08:42:58Z</time></trkpt><trkpt lat="44.828465635614634" lon="8.806879063287"><ele>144.0</ele><time>2026-04-05T08:42:59Z</time></trkpt><trkpt lat="44.82836701264906" lon="8.806462751165219"><ele>145.0</ele><time>2026-04-05T08:43:00Z</time></trkpt><trkpt lat="44.828270426689166" lon="8.806071526587976"><ele>146.0</ele><time>2026-04-05T08:43:01Z</time></trkpt><trkpt lat="44.82818280246113" lon="8.805703419947985"><ele>146.5</ele><time>2026-04-05T08:43:02Z</time></trkpt><trkpt lat="44.82809254977203" lon="8.805352693111466"><ele>147.0</ele><time>2026-04-05T08:43:03Z</time></trkpt><trkpt lat="44.82800638907747" lon="8.80499701236211"><ele>147.0</ele><time>2026-04-05T08:43:04Z</time></trkpt><trkpt lat="44.82792170433325" lon="8.804645021908197"><ele>147.0</ele><time>2026-04-05T08:43:05Z</time></trkpt><trkpt lat="44.82783984103822" lon="8.80429612570454"><ele>147.5</ele><time>2026-04-05T08:43:06Z</time></trkpt><trkpt lat="44.82776330614562" lon="8.80395135002586"><ele>148.0</ele><time>2026-04-05T08:43:07Z</time></trkpt><trkpt lat="44.827683419911644" lon="8.803608246286519"><ele>149.5</ele><time>2026-04-05T08:43:08Z</time></trkpt><trkpt lat="44.82760517345138" lon="8.803266591033399"><ele>151.0</ele><time>2026-04-05T08:43:09Z</time></trkpt><trkpt lat="44.82753103242072" lon="8.802928039251555"><ele>150.5</ele><time>2026-04-05T08:43:10Z</time></trkpt><trkpt lat="44.82746148470284" lon="8.80259371843391"><ele>150.0</ele><time>2026-04-05T08:43:11Z</time></trkpt><trkpt lat="44.82738787814333" lon="8.80225245143838"><ele>150.0</ele><time>2026-04-05T08:43:12Z</time></trkpt><trkpt lat="44.827305758777364" lon="8.801891584943935"><ele>150.0</ele><time>2026-04-05T08:43:13Z</time></trkpt><trkpt lat="44.82721693055216" lon="8.801515109058489"><ele>149.0</ele><time>2026-04-05T08:43:14Z</time></trkpt><trkpt lat="44.82712975925998" lon="8.801128930263973"><ele>148.0</ele><time>2026-04-05T08:43:15Z</time></trkpt><trkpt lat="44.82703450124856" lon="8.800739011086302"><ele>148.0</ele><time>2026-04-05T08:43:16Z</time></trkpt><trkpt lat="44.82693970703472" lon="8.800350041404505"><ele>148.0</ele><time>2026-04-05T08:43:17Z</time></trkpt><trkpt lat="44.82684337621961" lon="8.799963619602124"><ele>149.5</ele><time>2026-04-05T08:43:18Z</time></trkpt><trkpt lat="44.82675200407579" lon="8.799573257075576"><ele>151.0</ele><time>2026-04-05T08:43:19Z</time></trkpt><trkpt lat="44.8266605484569" lon="8.799185815246613"><ele>151.0</ele><time>2026-04-05T08:43:20Z</time></trkpt><trkpt lat="44.826567948823794" lon="8.798800924413523"><ele>151.0</ele><time>2026-04-05T08:43:21Z</time></trkpt><trkpt lat="44.826479480277825" lon="8.798417200057582"><ele>149.5</ele><time>2026-04-05T08:43:22Z</time></trkpt><trkpt lat="44.82638734106987" lon="8.798034379223989"><ele>148.0</ele><time>2026-04-05T08:43:23Z</time></trkpt><trkpt lat="44.826295112787975" lon="8.797661483144982"><ele>148.0</ele><time>2026-04-05T08:43:24Z</time></trkpt><trkpt lat="44.82620291642706" lon="8.797275325007464"><ele>148.0</ele><time>2026-04-05T08:43:25Z</time></trkpt><trkpt lat="44.82610452662364" lon="8.796866526842358"><ele>149.0</ele><time>2026-04-05T08:43:26Z</time></trkpt><trkpt lat="44.82600443141915" lon="8.79646577287738"><ele>150.0</ele><time>2026-04-05T08:43:27Z</time></trkpt><trkpt lat="44.825905174980996" lon="8.796077869959802"><ele>150.5</ele><time>2026-04-05T08:43:28Z</time></trkpt><trkpt lat="44.82580878886461" lon="8.7956963237076"><ele>151.0</ele><time>2026-04-05T08:43:29Z</time></trkpt><trkpt lat="44.82570086556811" lon="8.795319412162378"><ele>149.5</ele><time>2026-04-05T08:43:30Z</time></trkpt><trkpt lat="44.82559572584829" lon="8.7949433571759"><ele>148.0</ele><time>2026-04-05T08:43:31Z</time></trkpt><trkpt lat="44.82548450479323" lon="8.794575517225129"><ele>147.5</ele><time>2026-04-05T08:43:32Z</time></trkpt><trkpt lat="44.82537186309097" lon="8.794210350677046"><ele>147.0</ele><time>2026-04-05T08:43:33Z</time></trkpt><trkpt lat="44.82525777754605" lon="8.793847472841309"><ele>147.0</ele><time>2026-04-05T08:43:34Z</time></trkpt><trkpt lat="44.82514096064528" lon="8.793488712499544"><ele>147.0</ele><time>2026-04-05T08:43:35Z</time></trkpt><trkpt lat="44.82502541495255" lon="8.79313301301965"><ele>147.0</ele><time>2026-04-05T08:43:36Z</time></trkpt><trkpt lat="44.824907782134936" lon="8.79278264865254"><ele>147.0</ele><time>2026-04-05T08:43:37Z</time></trkpt><trkpt lat="44.82478455810769" lon="8.792438121598048"><ele>147.0</ele><time>2026-04-05T08:43:38Z</time></trkpt><trkpt lat="44.82465764321388" lon="8.792092694150847"><ele>147.0</ele><time>2026-04-05T08:43:39Z</time></trkpt><trkpt lat="44.82452174291874" lon="8.791756090381623"><ele>146.5</ele><time>2026-04-05T08:43:40Z</time></trkpt><trkpt lat="44.82438639421243" lon="8.791400071779185"><ele>146.0</ele><time>2026-04-05T08:43:41Z</time></trkpt><trkpt lat="44.82424344528827" lon="8.791047190289813"><ele>147.0</ele><time>2026-04-05T08:43:42Z</time></trkpt><trkpt lat="44.82410082354099" lon="8.790703077957698"><ele>148.0</ele><time>2026-04-05T08:43:43Z</time></trkpt><trkpt lat="44.823964251286625" lon="8.79037304114671"><ele>147.5</ele><time>2026-04-05T08:43:44Z</time></trkpt><trkpt lat="44.82382509580493" lon="8.790042709140325"><ele>147.0</ele><time>2026-04-05T08:43:45Z</time></trkpt><trkpt lat="44.8236894888342" lon="8.789712144637887"><ele>147.0</ele><time>2026-04-05T08:43:46Z</time></trkpt><trkpt lat="44.82354225109074" lon="8.789390560909785"><ele>147.0</ele><time>2026-04-05T08:43:47Z</time></trkpt><trkpt lat="44.82338926963009" lon="8.789057449436067"><ele>147.0</ele><time>2026-04-05T08:43:48Z</time></trkpt><trkpt lat="44.82323759363088" lon="8.788727407512507"><ele>147.0</ele><time>2026-04-05T08:43:49Z</time></trkpt><trkpt lat="44.8230803221452" lon="8.788395174808517"><ele>147.0</ele><time>2026-04-05T08:43:50Z</time></trkpt><trkpt lat="44.82292821050831" lon="8.788068075526713"><ele>147.0</ele><time>2026-04-05T08:43:51Z</time></trkpt><trkpt lat="44.82277040244093" lon="8.787740021016171"><ele>148.0</ele><time>2026-04-05T08:43:52Z</time></trkpt><trkpt lat="44.822609722847666" lon="8.787418656483654"><ele>149.0</ele><time>2026-04-05T08:43:53Z</time></trkpt><trkpt lat="44.82245494171618" lon="8.787097767231483"><ele>148.0</ele><time>2026-04-05T08:43:54Z</time></trkpt><trkpt lat="44.822295894879545" lon="8.786786897136178"><ele>147.0</ele><time>2026-04-05T08:43:55Z</time></trkpt><trkpt lat="44.8221355957698" lon="8.786478613565244"><ele>147.0</ele><time>2026-04-05T08:43:56Z</time></trkpt><trkpt lat="44.82197737162853" lon="8.786169361065294"><ele>147.0</ele><time>2026-04-05T08:43:57Z</time></trkpt><trkpt lat="44.821815721272415" lon="8.7858616461967"><ele>147.5</ele><time>2026-04-05T08:43:58Z</time></trkpt><trkpt lat="44.82165154418026" lon="8.785551410689488"><ele>148.0</ele><time>2026-04-05T08:43:58.999Z</time></trkpt><trkpt lat="44.82148017831139" lon="8.785251143331537"><ele>147.5</ele><time>2026-04-05T08:43:59.999Z</time></trkpt><trkpt lat="44.82130904754996" lon="8.784953809453619"><ele>147.0</ele><time>2026-04-05T08:44:00.999Z</time></trkpt><trkpt lat="44.821133458167395" lon="8.784657934182043"><ele>147.5</ele><time>2026-04-05T08:44:01.999Z</time></trkpt><trkpt lat="44.820954885946946" lon="8.784364717554741"><ele>148.0</ele><time>2026-04-05T08:44:02.999Z</time></trkpt><trkpt lat="44.82077316815775" lon="8.784073169567737"><ele>148.0</ele><time>2026-04-05T08:44:03.999Z</time></trkpt><trkpt lat="44.820580913792625" lon="8.783762757900337"><ele>148.0</ele><time>2026-04-05T08:44:04.999Z</time></trkpt><trkpt lat="44.82038378906194" lon="8.783445324092483"><ele>148.0</ele><time>2026-04-05T08:44:05.999Z</time></trkpt><trkpt lat="44.820175785485105" lon="8.783104413029392"><ele>148.0</ele><time>2026-04-05T08:44:06.999Z</time></trkpt><trkpt lat="44.81996968117152" lon="8.782772002791962"><ele>148.0</ele><time>2026-04-05T08:44:07.999Z</time></trkpt><trkpt lat="44.81976433291099" lon="8.782440900946343"><ele>148.0</ele><time>2026-04-05T08:44:08.999Z</time></trkpt><trkpt lat="44.81956767874866" lon="8.782110873960551"><ele>148.0</ele><time>2026-04-05T08:44:09.999Z</time></trkpt><trkpt lat="44.819370458467034" lon="8.78178564958403"><ele>148.0</ele><time>2026-04-05T08:44:10.999Z</time></trkpt><trkpt lat="44.81917389101398" lon="8.781461580558624"><ele>148.5</ele><time>2026-04-05T08:44:11.999Z</time></trkpt><trkpt lat="44.81897727234476" lon="8.78113460602924"><ele>149.0</ele><time>2026-04-05T08:44:12.999Z</time></trkpt><trkpt lat="44.81877452712646" lon="8.780805101943596"><ele>149.0</ele><time>2026-04-05T08:44:13.999Z</time></trkpt><trkpt lat="44.81857645893145" lon="8.780482346596813"><ele>149.0</ele><time>2026-04-05T08:44:14.999Z</time></trkpt><trkpt lat="44.81837874305905" lon="8.780162208522654"><ele>148.5</ele><time>2026-04-05T08:44:15.999Z</time></trkpt><trkpt lat="44.818185481326566" lon="8.779836246289687"><ele>148.0</ele><time>2026-04-05T08:44:16.999Z</time></trkpt><trkpt lat="44.8179925342725" lon="8.779516993945398"><ele>148.0</ele><time>2026-04-05T08:44:17.999Z</time></trkpt><trkpt lat="44.817798851255375" lon="8.779202560683645"><ele>148.0</ele><time>2026-04-05T08:44:18.999Z</time></trkpt><trkpt lat="44.81760657219245" lon="8.778885480038179"><ele>148.0</ele><time>2026-04-05T08:44:19.999Z</time></trkpt><trkpt lat="44.81741097024135" lon="8.77856829209512"><ele>148.0</ele><time>2026-04-05T08:44:20.999Z</time></trkpt><trkpt lat="44.8172179217631" lon="8.77825532436285"><ele>148.5</ele><time>2026-04-05T08:44:21.999Z</time></trkpt><trkpt lat="44.817020763470985" lon="8.77794338336481"><ele>149.0</ele><time>2026-04-05T08:44:22.999Z</time></trkpt><trkpt lat="44.816814713473164" lon="8.777617497672654"><ele>149.0</ele><time>2026-04-05T08:44:23.999Z</time></trkpt><trkpt lat="44.816610130773334" lon="8.777255010997084"><ele>149.0</ele><time>2026-04-05T08:44:24.999Z</time></trkpt><trkpt lat="44.816397576877065" lon="8.77691314008096"><ele>149.0</ele><time>2026-04-05T08:44:25.999Z</time></trkpt><trkpt lat="44.816197937191006" lon="8.776575471395548"><ele>149.0</ele><time>2026-04-05T08:44:26.999Z</time></trkpt><trkpt lat="44.815985445837455" lon="8.776235198132277"><ele>149.5</ele><time>2026-04-05T08:44:27.999Z</time></trkpt><trkpt lat="44.81578389220665" lon="8.775902203005643"><ele>150.0</ele><time>2026-04-05T08:44:28.999Z</time></trkpt><trkpt lat="44.81558818941821" lon="8.775577854005503"><ele>150.0</ele><time>2026-04-05T08:44:29.999Z</time></trkpt><trkpt lat="44.81538977478834" lon="8.775255116440233"><ele>150.0</ele><time>2026-04-05T08:44:30.999Z</time></trkpt><trkpt lat="44.81519738929373" lon="8.77493974298796"><ele>150.0</ele><time>2026-04-05T08:44:31.999Z</time></trkpt><trkpt lat="44.81501381361148" lon="8.774627822430647"><ele>150.0</ele><time>2026-04-05T08:44:32.999Z</time></trkpt><trkpt lat="44.814828892416905" lon="8.774323840303385"><ele>149.0</ele><time>2026-04-05T08:44:33.999Z</time></trkpt><trkpt lat="44.814638650362234" lon="8.774012457818369"><ele>148.0</ele><time>2026-04-05T08:44:34.999Z</time></trkpt><trkpt lat="44.81444754685235" lon="8.773708213484051"><ele>149.0</ele><time>2026-04-05T08:44:35.999Z</time></trkpt><trkpt lat="44.814258237637326" lon="8.773406189622927"><ele>150.0</ele><time>2026-04-05T08:44:36.999Z</time></trkpt><trkpt lat="44.81407025247815" lon="8.773095897957143"><ele>150.0</ele><time>2026-04-05T08:44:37.999Z</time></trkpt><trkpt lat="44.81388561959304" lon="8.772796746181585"><ele>150.0</ele><time>2026-04-05T08:44:38.999Z</time></trkpt><trkpt lat="44.813702176424954" lon="8.772497413250134"><ele>150.0</ele><time>2026-04-05T08:44:39.999Z</time></trkpt><trkpt lat="44.81351900844802" lon="8.772194716996086"><ele>150.0</ele><time>2026-04-05T08:44:40.999Z</time></trkpt><trkpt lat="44.81333237927014" lon="8.771886171294886"><ele>149.0</ele><time>2026-04-05T08:44:41.999Z</time></trkpt><trkpt lat="44.81314542670966" lon="8.771581675089465"><ele>148.0</ele><time>2026-04-05T08:44:42.999Z</time></trkpt><trkpt lat="44.812959462207274" lon="8.771276658727617"><ele>147.5</ele><time>2026-04-05T08:44:43.999Z</time></trkpt><trkpt lat="44.81277586833593" lon="8.770972324713245"><ele>147.0</ele><time>2026-04-05T08:44:44.999Z</time></trkpt><trkpt lat="44.8125888376169" lon="8.770667004608182"><ele>147.5</ele><time>2026-04-05T08:44:45.999Z</time></trkpt><trkpt lat="44.812400870926574" lon="8.77036498500485"><ele>148.0</ele><time>2026-04-05T08:44:46.999Z</time></trkpt><trkpt lat="44.81221610294745" lon="8.770063800658344"><ele>148.0</ele><time>2026-04-05T08:44:47.999Z</time></trkpt><trkpt lat="44.81203131665072" lon="8.7697634235773"><ele>148.0</ele><time>2026-04-05T08:44:48.999Z</time></trkpt><trkpt lat="44.811840986358845" lon="8.769450479251157"><ele>148.5</ele><time>2026-04-05T08:44:49.999Z</time></trkpt><trkpt lat="44.811650188299716" lon="8.769143459288271"><ele>149.0</ele><time>2026-04-05T08:44:50.999Z</time></trkpt><trkpt lat="44.811455557077146" lon="8.768815486391652"><ele>148.5</ele><time>2026-04-05T08:44:51.999Z</time></trkpt><trkpt lat="44.8112513302821" lon="8.768465807565482"><ele>148.0</ele><time>2026-04-05T08:44:53Z</time></trkpt><trkpt lat="44.8110399947346" lon="8.768110542128047"><ele>149.0</ele><time>2026-04-05T08:44:54Z</time></trkpt><trkpt lat="44.810824100939826" lon="8.767752931319597"><ele>150.0</ele><time>2026-04-05T08:44:55Z</time></trkpt><trkpt lat="44.810610594964544" lon="8.767388226428277"><ele>150.5</ele><time>2026-04-05T08:44:56Z</time></trkpt><trkpt lat="44.810397850057974" lon="8.767022722255684"><ele>151.0</ele><time>2026-04-05T08:44:57Z</time></trkpt><trkpt lat="44.810189091006286" lon="8.766653591931732"><ele>150.5</ele><time>2026-04-05T08:44:58Z</time></trkpt><trkpt lat="44.80997967607178" lon="8.766281271190193"><ele>150.0</ele><time>2026-04-05T08:44:59Z</time></trkpt><trkpt lat="44.80977641272072" lon="8.765905399120252"><ele>149.5</ele><time>2026-04-05T08:45:00Z</time></trkpt><trkpt lat="44.80956710766572" lon="8.765532921783427"><ele>149.0</ele><time>2026-04-05T08:45:01Z</time></trkpt><trkpt lat="44.80936177983612" lon="8.765161697942725"><ele>149.5</ele><time>2026-04-05T08:45:02Z</time></trkpt><trkpt lat="44.8091603020553" lon="8.764799371959327"><ele>150.0</ele><time>2026-04-05T08:45:03Z</time></trkpt><trkpt lat="44.80895970114917" lon="8.764442102981269"><ele>149.5</ele><time>2026-04-05T08:45:04Z</time></trkpt><trkpt lat="44.80876071270038" lon="8.764082547230496"><ele>149.0</ele><time>2026-04-05T08:45:05Z</time></trkpt><trkpt lat="44.80856270696637" lon="8.763728329327733"><ele>149.5</ele><time>2026-04-05T08:45:06Z</time></trkpt><trkpt lat="44.808368062831704" lon="8.763376487031746"><ele>150.0</ele><time>2026-04-05T08:45:07Z</time></trkpt><trkpt lat="44.80816856679397" lon="8.763024284989793"><ele>149.0</ele><time>2026-04-05T08:45:08Z</time></trkpt><trkpt lat="44.80797139066502" lon="8.762674097890473"><ele>148.0</ele><time>2026-04-05T08:45:09Z</time></trkpt><trkpt lat="44.807776701534586" lon="8.762324806758777"><ele>148.0</ele><time>2026-04-05T08:45:10Z</time></trkpt><trkpt lat="44.80758069197318" lon="8.761971305392537"><ele>148.0</ele><time>2026-04-05T08:45:11Z</time></trkpt><trkpt lat="44.80737989387703" lon="8.761623592787101"><ele>148.0</ele><time>2026-04-05T08:45:12Z</time></trkpt><trkpt lat="44.80717883357239" lon="8.761274937529151"><ele>148.0</ele><time>2026-04-05T08:45:13Z</time></trkpt><trkpt lat="44.80698669248181" lon="8.760926632783624"><ele>148.0</ele><time>2026-04-05T08:45:14Z</time></trkpt><trkpt lat="44.806790947191224" lon="8.760578682641903"><ele>148.0</ele><time>2026-04-05T08:45:15Z</time></trkpt><trkpt lat="44.806597783955304" lon="8.76023258465983"><ele>148.0</ele><time>2026-04-05T08:45:16Z</time></trkpt><trkpt lat="44.806401086265204" lon="8.759891735915433"><ele>148.0</ele><time>2026-04-05T08:45:17Z</time></trkpt><trkpt lat="44.806220090456804" lon="8.759571202865565"><ele>147.5</ele><time>2026-04-05T08:45:18Z</time></trkpt><trkpt lat="44.80603756023835" lon="8.759247592761621"><ele>147.0</ele><time>2026-04-05T08:45:19Z</time></trkpt><trkpt lat="44.80585504190629" lon="8.758917201541724"><ele>148.0</ele><time>2026-04-05T08:45:20Z</time></trkpt><trkpt lat="44.8056702020248" lon="8.758590810745886"><ele>149.0</ele><time>2026-04-05T08:45:21Z</time></trkpt><trkpt lat="44.805488056398055" lon="8.758261465982558"><ele>149.0</ele><time>2026-04-05T08:45:22Z</time></trkpt><trkpt lat="44.80530062209723" lon="8.757935452903494"><ele>149.0</ele><time>2026-04-05T08:45:23Z</time></trkpt><trkpt lat="44.80511851198054" lon="8.757610887007885"><ele>150.0</ele><time>2026-04-05T08:45:24Z</time></trkpt><trkpt lat="44.80493555753179" lon="8.757285048161576"><ele>151.0</ele><time>2026-04-05T08:45:25Z</time></trkpt><trkpt lat="44.804749426602065" lon="8.756961397529345"><ele>150.5</ele><time>2026-04-05T08:45:26Z</time></trkpt><trkpt lat="44.80456756956316" lon="8.756640785686441"><ele>150.0</ele><time>2026-04-05T08:45:27Z</time></trkpt><trkpt lat="44.80438616906438" lon="8.756319593197265"><ele>150.0</ele><time>2026-04-05T08:45:28Z</time></trkpt><trkpt lat="44.80422483489294" lon="8.756022821886924"><ele>150.0</ele><time>2026-04-05T08:45:29Z</time></trkpt><trkpt lat="44.80406265104068" lon="8.755737524736213"><ele>150.0</ele><time>2026-04-05T08:45:30Z</time></trkpt><trkpt lat="44.8039009205924" lon="8.755441724236668"><ele>150.0</ele><time>2026-04-05T08:45:31Z</time></trkpt><trkpt lat="44.80373516164341" lon="8.755153803123125"><ele>150.0</ele><time>2026-04-05T08:45:32Z</time></trkpt><trkpt lat="44.803570072116685" lon="8.75486212523443"><ele>150.0</ele><time>2026-04-05T08:45:33Z</time></trkpt><trkpt lat="44.80339971745836" lon="8.754567383781486"><ele>150.5</ele><time>2026-04-05T08:45:34Z</time></trkpt><trkpt lat="44.803232098752034" lon="8.754260249569294"><ele>151.0</ele><time>2026-04-05T08:45:35Z</time></trkpt><trkpt lat="44.803059240083776" lon="8.753944806692184"><ele>151.0</ele><time>2026-04-05T08:45:36Z</time></trkpt><trkpt lat="44.802888497638" lon="8.753630502270964"><ele>151.0</ele><time>2026-04-05T08:45:37Z</time></trkpt><trkpt lat="44.80271515661223" lon="8.75331935604869"><ele>151.0</ele><time>2026-04-05T08:45:38Z</time></trkpt><trkpt lat="44.802543375956276" lon="8.75301110420442"><ele>151.0</ele><time>2026-04-05T08:45:39Z</time></trkpt><trkpt lat="44.80236998475043" lon="8.752704613265417"><ele>151.0</ele><time>2026-04-05T08:45:40Z</time></trkpt><trkpt lat="44.80219502472005" lon="8.752397068759501"><ele>151.0</ele><time>2026-04-05T08:45:41Z</time></trkpt><trkpt lat="44.80202227398424" lon="8.752083397113081"><ele>151.5</ele><time>2026-04-05T08:45:42Z</time></trkpt><trkpt lat="44.80184317925802" lon="8.751769859153272"><ele>152.0</ele><time>2026-04-05T08:45:43Z</time></trkpt><trkpt lat="44.80166764796269" lon="8.751460295269142"><ele>152.0</ele><time>2026-04-05T08:45:44Z</time></trkpt><trkpt lat="44.80149470517706" lon="8.751151105041732"><ele>152.0</ele><time>2026-04-05T08:45:45Z</time></trkpt><trkpt lat="44.80131989231465" lon="8.750845090563802"><ele>153.0</ele><time>2026-04-05T08:45:46Z</time></trkpt><trkpt lat="44.801146066117006" lon="8.750529909513327"><ele>154.0</ele><time>2026-04-05T08:45:47Z</time></trkpt><trkpt lat="44.80096222615985" lon="8.750214135539126"><ele>154.0</ele><time>2026-04-05T08:45:48Z</time></trkpt><trkpt lat="44.80077673873989" lon="8.749895881638384"><ele>154.0</ele><time>2026-04-05T08:45:49Z</time></trkpt><trkpt lat="44.800582597948306" lon="8.749569386647519"><ele>154.0</ele><time>2026-04-05T08:45:50Z</time></trkpt><trkpt lat="44.800386625609086" lon="8.749230457560895"><ele>154.0</ele><time>2026-04-05T08:45:51Z</time></trkpt><trkpt lat="44.80018568841108" lon="8.74887443647181"><ele>155.5</ele><time>2026-04-05T08:45:52Z</time></trkpt><trkpt lat="44.79998373127335" lon="8.748515806081858"><ele>157.0</ele><time>2026-04-05T08:45:53Z</time></trkpt><trkpt lat="44.79978308762793" lon="8.748160681563574"><ele>157.0</ele><time>2026-04-05T08:45:54Z</time></trkpt><trkpt lat="44.79958705274056" lon="8.747812825863438"><ele>157.0</ele><time>2026-04-05T08:45:55Z</time></trkpt><trkpt lat="44.79939832448609" lon="8.747462559551398"><ele>155.5</ele><time>2026-04-05T08:45:56Z</time></trkpt><trkpt lat="44.799191740860934" lon="8.747083771291056"><ele>154.0</ele><time>2026-04-05T08:45:57Z</time></trkpt><trkpt lat="44.79897259407984" lon="8.746690864432237"><ele>154.0</ele><time>2026-04-05T08:45:58Z</time></trkpt><trkpt lat="44.79874674875111" lon="8.746287557682155"><ele>154.0</ele><time>2026-04-05T08:45:59Z</time></trkpt><trkpt lat="44.798514619524624" lon="8.74586635406052"><ele>154.0</ele><time>2026-04-05T08:46:00Z</time></trkpt><trkpt lat="44.798288404588405" lon="8.74545627500767"><ele>154.0</ele><time>2026-04-05T08:46:01Z</time></trkpt><trkpt lat="44.79807316761088" lon="8.74507446112596"><ele>154.0</ele><time>2026-04-05T08:46:02Z</time></trkpt><trkpt lat="44.79787263966305" lon="8.744715007207741"><ele>154.0</ele><time>2026-04-05T08:46:03Z</time></trkpt><trkpt lat="44.797675576868194" lon="8.744365884034565"><ele>155.0</ele><time>2026-04-05T08:46:04Z</time></trkpt><trkpt lat="44.79748305460618" lon="8.744026003915092"><ele>156.0</ele><time>2026-04-05T08:46:04.999Z</time></trkpt><trkpt lat="44.7972972396118" lon="8.743694072834785"><ele>155.0</ele><time>2026-04-05T08:46:05.999Z</time></trkpt><trkpt lat="44.79711115987781" lon="8.74337151297492"><ele>154.0</ele><time>2026-04-05T08:46:06.999Z</time></trkpt><trkpt lat="44.796931084552554" lon="8.743051351769369"><ele>155.0</ele><time>2026-04-05T08:46:07.999Z</time></trkpt><trkpt lat="44.796758756972686" lon="8.7427371478881"><ele>156.0</ele><time>2026-04-05T08:46:08.999Z</time></trkpt><trkpt lat="44.79658844685015" lon="8.7424243970656"><ele>156.0</ele><time>2026-04-05T08:46:09.999Z</time></trkpt><trkpt lat="44.796419953395315" lon="8.74211441576746"><ele>156.0</ele><time>2026-04-05T08:46:10.999Z</time></trkpt><trkpt lat="44.79624741737004" lon="8.74180616023962"><ele>155.5</ele><time>2026-04-05T08:46:11.999Z</time></trkpt><trkpt lat="44.79607865855372" lon="8.741503018368327"><ele>155.0</ele><time>2026-04-05T08:46:12.999Z</time></trkpt><trkpt lat="44.79590587814569" lon="8.741199213980615"><ele>155.0</ele><time>2026-04-05T08:46:13.999Z</time></trkpt><trkpt lat="44.795733620338844" lon="8.740889935876265"><ele>155.0</ele><time>2026-04-05T08:46:14.999Z</time></trkpt><trkpt lat="44.79556246372484" lon="8.740578107112537"><ele>155.0</ele><time>2026-04-05T08:46:15.999Z</time></trkpt><trkpt lat="44.79538851055599" lon="8.740269692969907"><ele>155.0</ele><time>2026-04-05T08:46:16.999Z</time></trkpt><trkpt lat="44.79521612291217" lon="8.739955814944587"><ele>155.5</ele><time>2026-04-05T08:46:17.999Z</time></trkpt><trkpt lat="44.79504451316091" lon="8.739642936932679"><ele>156.0</ele><time>2026-04-05T08:46:18.999Z</time></trkpt><trkpt lat="44.79487512828559" lon="8.739334806609369"><ele>156.0</ele><time>2026-04-05T08:46:19.999Z</time></trkpt><trkpt lat="44.79470207520313" lon="8.73903186828648"><ele>156.0</ele><time>2026-04-05T08:46:20.999Z</time></trkpt><trkpt lat="44.794531697613394" lon="8.73872898930269"><ele>155.5</ele><time>2026-04-05T08:46:21.999Z</time></trkpt><trkpt lat="44.7943588231912" lon="8.738422781522626"><ele>155.0</ele><time>2026-04-05T08:46:22.999Z</time></trkpt><trkpt lat="44.79418567482666" lon="8.73811216386771"><ele>155.0</ele><time>2026-04-05T08:46:23.999Z</time></trkpt><trkpt lat="44.794013047574985" lon="8.73779920246628"><ele>155.0</ele><time>2026-04-05T08:46:24.999Z</time></trkpt><trkpt lat="44.793840930168194" lon="8.737487543042452"><ele>155.0</ele><time>2026-04-05T08:46:25.999Z</time></trkpt><trkpt lat="44.79366608586336" lon="8.737178004132284"><ele>155.0</ele><time>2026-04-05T08:46:26.999Z</time></trkpt><trkpt lat="44.79348807490132" lon="8.736860475193707"><ele>155.5</ele><time>2026-04-05T08:46:27.999Z</time></trkpt><trkpt lat="44.7933042932344" lon="8.736547137413265"><ele>156.0</ele><time>2026-04-05T08:46:28.999Z</time></trkpt><trkpt lat="44.79312720373694" lon="8.73623015209979"><ele>155.0</ele><time>2026-04-05T08:46:29.999Z</time></trkpt><trkpt lat="44.792947884896215" lon="8.735909035413325"><ele>154.0</ele><time>2026-04-05T08:46:30.999Z</time></trkpt><trkpt lat="44.79276277366511" lon="8.735582571382515"><ele>154.0</ele><time>2026-04-05T08:46:31.999Z</time></trkpt><trkpt lat="44.792577772013416" lon="8.735252314340242"><ele>154.0</ele><time>2026-04-05T08:46:32.999Z</time></trkpt><trkpt lat="44.79238911680636" lon="8.734910292901493"><ele>154.0</ele><time>2026-04-05T08:46:33.999Z</time></trkpt><trkpt lat="44.79220860001745" lon="8.734578617343434"><ele>154.0</ele><time>2026-04-05T08:46:34.999Z</time></trkpt><trkpt lat="44.792028986474925" lon="8.734258235207887"><ele>153.5</ele><time>2026-04-05T08:46:35.999Z</time></trkpt><trkpt lat="44.79184961095493" lon="8.733947286411071"><ele>153.0</ele><time>2026-04-05T08:46:36.999Z</time></trkpt><trkpt lat="44.79166897402561" lon="8.733634362086944"><ele>153.0</ele><time>2026-04-05T08:46:37.999Z</time></trkpt><trkpt lat="44.791489837097515" lon="8.733322355617204"><ele>153.0</ele><time>2026-04-05T08:46:38.999Z</time></trkpt><trkpt lat="44.79131544654505" lon="8.733012203389102"><ele>153.0</ele><time>2026-04-05T08:46:39.999Z</time></trkpt><trkpt lat="44.791142811782876" lon="8.732696681882553"><ele>153.0</ele><time>2026-04-05T08:46:40.999Z</time></trkpt><trkpt lat="44.79096866856641" lon="8.732386053518539"><ele>154.0</ele><time>2026-04-05T08:46:41.999Z</time></trkpt><trkpt lat="44.79079476528054" lon="8.732075664941952"><ele>155.0</ele><time>2026-04-05T08:46:42.999Z</time></trkpt><trkpt lat="44.79061922475634" lon="8.731767030757924"><ele>155.0</ele><time>2026-04-05T08:46:43.999Z</time></trkpt><trkpt lat="44.79044552149218" lon="8.731456867491788"><ele>155.0</ele><time>2026-04-05T08:46:44.999Z</time></trkpt><trkpt lat="44.790268531898946" lon="8.731147093915824"><ele>154.0</ele><time>2026-04-05T08:46:45.999Z</time></trkpt><trkpt lat="44.79009424163408" lon="8.730837587001172"><ele>153.0</ele><time>2026-04-05T08:46:46.999Z</time></trkpt><trkpt lat="44.78992308228398" lon="8.730534335859272"><ele>153.0</ele><time>2026-04-05T08:46:47.999Z</time></trkpt><trkpt lat="44.789752177877794" lon="8.730233246642637"><ele>153.0</ele><time>2026-04-05T08:46:48.999Z</time></trkpt><trkpt lat="44.78958328472081" lon="8.729931311016635"><ele>153.0</ele><time>2026-04-05T08:46:49.999Z</time></trkpt><trkpt lat="44.789420257369734" lon="8.729632063265132"><ele>153.0</ele><time>2026-04-05T08:46:50.999Z</time></trkpt><trkpt lat="44.789253566087964" lon="8.72933538571439"><ele>153.0</ele><time>2026-04-05T08:46:51.999Z</time></trkpt><trkpt lat="44.78908782162068" lon="8.72903668354661"><ele>153.0</ele><time>2026-04-05T08:46:52.999Z</time></trkpt><trkpt lat="44.788918929168915" lon="8.728740170402233"><ele>153.0</ele><time>2026-04-05T08:46:53.999Z</time></trkpt><trkpt lat="44.78874409293264" lon="8.728436706218204"><ele>153.0</ele><time>2026-04-05T08:46:54.999Z</time></trkpt><trkpt lat="44.78856105985139" lon="8.72812292126065"><ele>152.0</ele><time>2026-04-05T08:46:55.999Z</time></trkpt><trkpt lat="44.78837852350057" lon="8.727807041870191"><ele>151.0</ele><time>2026-04-05T08:46:56.999Z</time></trkpt><trkpt lat="44.788197180789844" lon="8.72747973365334"><ele>151.0</ele><time>2026-04-05T08:46:57.999Z</time></trkpt><trkpt lat="44.78800774972436" lon="8.727149173516311"><ele>151.0</ele><time>2026-04-05T08:46:59Z</time></trkpt><trkpt lat="44.787819500864494" lon="8.726818350111824"><ele>148.5</ele><time>2026-04-05T08:47:00Z</time></trkpt><trkpt lat="44.787642006653655" lon="8.726492622081947"><ele>146.0</ele><time>2026-04-05T08:47:01Z</time></trkpt><trkpt lat="44.78746237462298" lon="8.726168712411386"><ele>145.5</ele><time>2026-04-05T08:47:02Z</time></trkpt><trkpt lat="44.78728900886783" lon="8.725848021669146"><ele>145.0</ele><time>2026-04-05T08:47:03Z</time></trkpt><trkpt lat="44.7871185541916" lon="8.72551945603266"><ele>144.5</ele><time>2026-04-05T08:47:04Z</time></trkpt><trkpt lat="44.78695432009516" lon="8.72518136570195"><ele>144.0</ele><time>2026-04-05T08:47:05Z</time></trkpt><trkpt lat="44.786792745522156" lon="8.724838893859024"><ele>146.5</ele><time>2026-04-05T08:47:06Z</time></trkpt><trkpt lat="44.78663169712341" lon="8.72449665213796"><ele>149.0</ele><time>2026-04-05T08:47:07Z</time></trkpt><trkpt lat="44.78647253055611" lon="8.724151103399114"><ele>149.0</ele><time>2026-04-05T08:47:08Z</time></trkpt><trkpt lat="44.786323985097646" lon="8.723789494179364"><ele>149.0</ele><time>2026-04-05T08:47:09Z</time></trkpt><trkpt lat="44.786174724831575" lon="8.723435311568503"><ele>149.5</ele><time>2026-04-05T08:47:10Z</time></trkpt><trkpt lat="44.786033633375844" lon="8.723083276043203"><ele>150.0</ele><time>2026-04-05T08:47:11Z</time></trkpt><trkpt lat="44.785896829711525" lon="8.722728379120694"><ele>150.5</ele><time>2026-04-05T08:47:12Z</time></trkpt><trkpt lat="44.78576205309795" lon="8.722378577975835"><ele>151.0</ele><time>2026-04-05T08:47:13Z</time></trkpt><trkpt lat="44.785638219364806" lon="8.722012115710932"><ele>150.5</ele><time>2026-04-05T08:47:14Z</time></trkpt><trkpt lat="44.7855039900807" lon="8.721632719310444"><ele>150.0</ele><time>2026-04-05T08:47:15Z</time></trkpt><trkpt lat="44.785376032768724" lon="8.721246317275474"><ele>149.5</ele><time>2026-04-05T08:47:16Z</time></trkpt><trkpt lat="44.78524608916099" lon="8.720840460332527"><ele>149.0</ele><time>2026-04-05T08:47:17Z</time></trkpt><trkpt lat="44.78512311710762" lon="8.720404712254961"><ele>150.5</ele><time>2026-04-05T08:47:18Z</time></trkpt><trkpt lat="44.78499482190774" lon="8.71996586361373"><ele>152.0</ele><time>2026-04-05T08:47:19Z</time></trkpt><trkpt lat="44.78487441380851" lon="8.719522835712839"><ele>150.5</ele><time>2026-04-05T08:47:20Z</time></trkpt><trkpt lat="44.78475031873329" lon="8.71909252220718"><ele>149.0</ele><time>2026-04-05T08:47:21Z</time></trkpt><trkpt lat="44.784633895002884" lon="8.718662158013654"><ele>149.5</ele><time>2026-04-05T08:47:22Z</time></trkpt><trkpt lat="44.78450757658942" lon="8.718222067001264"><ele>150.0</ele><time>2026-04-05T08:47:23Z</time></trkpt><trkpt lat="44.78439267559413" lon="8.717789039658967"><ele>151.5</ele><time>2026-04-05T08:47:24Z</time></trkpt><trkpt lat="44.78428063835227" lon="8.717363286378298"><ele>153.0</ele><time>2026-04-05T08:47:25Z</time></trkpt><trkpt lat="44.784165774925164" lon="8.716942143249375"><ele>152.5</ele><time>2026-04-05T08:47:26Z</time></trkpt><trkpt lat="44.78405311308183" lon="8.716536934752403"><ele>152.0</ele><time>2026-04-05T08:47:27Z</time></trkpt><trkpt lat="44.783942853973755" lon="8.716152607668763"><ele>151.0</ele><time>2026-04-05T08:47:28Z</time></trkpt><trkpt lat="44.78383054343783" lon="8.71577045893384"><ele>150.0</ele><time>2026-04-05T08:47:29Z</time></trkpt><trkpt lat="44.78372361986601" lon="8.715388887793596"><ele>150.0</ele><time>2026-04-05T08:47:30Z</time></trkpt><trkpt lat="44.78361676133696" lon="8.715013753001834"><ele>150.0</ele><time>2026-04-05T08:47:31Z</time></trkpt><trkpt lat="44.78351552897031" lon="8.714643203107853"><ele>151.0</ele><time>2026-04-05T08:47:32Z</time></trkpt><trkpt lat="44.78340715751955" lon="8.714272946632319"><ele>152.0</ele><time>2026-04-05T08:47:33Z</time></trkpt><trkpt lat="44.783304272244365" lon="8.713909731024728"><ele>151.5</ele><time>2026-04-05T08:47:34Z</time></trkpt><trkpt lat="44.78319832819253" lon="8.71354442752524"><ele>151.0</ele><time>2026-04-05T08:47:35Z</time></trkpt><trkpt lat="44.783094696047854" lon="8.71318119261336"><ele>151.0</ele><time>2026-04-05T08:47:36Z</time></trkpt><trkpt lat="44.78299707039742" lon="8.712817447353158"><ele>151.0</ele><time>2026-04-05T08:47:37Z</time></trkpt><trkpt lat="44.78289573934644" lon="8.712459745056305"><ele>151.0</ele><time>2026-04-05T08:47:38Z</time></trkpt><trkpt lat="44.782795825214755" lon="8.712104310366058"><ele>151.0</ele><time>2026-04-05T08:47:39Z</time></trkpt><trkpt lat="44.78269474306319" lon="8.71175211588832"><ele>151.0</ele><time>2026-04-05T08:47:40Z</time></trkpt><trkpt lat="44.782590358371024" lon="8.711393975993794"><ele>151.0</ele><time>2026-04-05T08:47:41Z</time></trkpt><trkpt lat="44.78247706338503" lon="8.711013202651825"><ele>151.0</ele><time>2026-04-05T08:47:42Z</time></trkpt><trkpt lat="44.782360450435625" lon="8.710613620520737"><ele>151.0</ele><time>2026-04-05T08:47:43Z</time></trkpt><trkpt lat="44.782237642218334" lon="8.710202392314434"><ele>151.0</ele><time>2026-04-05T08:47:44Z</time></trkpt><trkpt lat="44.7821194872009" lon="8.709789010023652"><ele>151.0</ele><time>2026-04-05T08:47:45Z</time></trkpt><trkpt lat="44.78199675917053" lon="8.709373944639035"><ele>151.0</ele><time>2026-04-05T08:47:46Z</time></trkpt><trkpt lat="44.781881925917034" lon="8.708968364765628"><ele>151.0</ele><time>2026-04-05T08:47:47Z</time></trkpt><trkpt lat="44.78176487084656" lon="8.708563161491298"><ele>152.5</ele><time>2026-04-05T08:47:48Z</time></trkpt><trkpt lat="44.78165357893658" lon="8.70815601529822"><ele>154.0</ele><time>2026-04-05T08:47:49Z</time></trkpt><trkpt lat="44.78154544267265" lon="8.707752021069282"><ele>153.0</ele><time>2026-04-05T08:47:50Z</time></trkpt><trkpt lat="44.78143533451218" lon="8.707337986536253"><ele>152.0</ele><time>2026-04-05T08:47:51Z</time></trkpt><trkpt lat="44.78132308779339" lon="8.706926407854747"><ele>151.5</ele><time>2026-04-05T08:47:52Z</time></trkpt><trkpt lat="44.78119969692279" lon="8.706516249334285"><ele>151.0</ele><time>2026-04-05T08:47:53Z</time></trkpt><trkpt lat="44.781086986225255" lon="8.706115960222425"><ele>151.0</ele><time>2026-04-05T08:47:54Z</time></trkpt><trkpt lat="44.78097078571343" lon="8.705723473398153"><ele>151.0</ele><time>2026-04-05T08:47:55Z</time></trkpt><trkpt lat="44.780858873227366" lon="8.705334536314789"><ele>150.5</ele><time>2026-04-05T08:47:56Z</time></trkpt><trkpt lat="44.780748905832084" lon="8.704944418169811"><ele>150.0</ele><time>2026-04-05T08:47:57Z</time></trkpt><trkpt lat="44.78064384353199" lon="8.704562342016608"><ele>149.5</ele><time>2026-04-05T08:47:58Z</time></trkpt><trkpt lat="44.78054311692018" lon="8.70418927793633"><ele>149.0</ele><time>2026-04-05T08:47:59Z</time></trkpt><trkpt lat="44.78043437036812" lon="8.703806384581153"><ele>148.5</ele><time>2026-04-05T08:48:00Z</time></trkpt><trkpt lat="44.78033097784072" lon="8.703426958560305"><ele>148.0</ele><time>2026-04-05T08:48:01Z</time></trkpt><trkpt lat="44.78023100455685" lon="8.7030667382651"><ele>148.0</ele><time>2026-04-05T08:48:02Z</time></trkpt><trkpt lat="44.78013156993541" lon="8.702705486873338"><ele>148.0</ele><time>2026-04-05T08:48:03Z</time></trkpt><trkpt lat="44.780030325464885" lon="8.702342357836148"><ele>148.0</ele><time>2026-04-05T08:48:04Z</time></trkpt><trkpt lat="44.779927421513754" lon="8.701982668824565"><ele>148.0</ele><time>2026-04-05T08:48:05Z</time></trkpt><trkpt lat="44.77982066827956" lon="8.701613858887491"><ele>148.0</ele><time>2026-04-05T08:48:06Z</time></trkpt><trkpt lat="44.7797174374726" lon="8.701255758731168"><ele>148.0</ele><time>2026-04-05T08:48:06.999Z</time></trkpt><trkpt lat="44.77961237419687" lon="8.700890458944137"><ele>147.5</ele><time>2026-04-05T08:48:07.999Z</time></trkpt><trkpt lat="44.77949980637079" lon="8.700505149837403"><ele>147.0</ele><time>2026-04-05T08:48:08.999Z</time></trkpt><trkpt lat="44.779377024273636" lon="8.700103342378254"><ele>147.0</ele><time>2026-04-05T08:48:09.999Z</time></trkpt><trkpt lat="44.7792683427082" lon="8.699700241017227"><ele>147.0</ele><time>2026-04-05T08:48:10.999Z</time></trkpt><trkpt lat="44.77915953803651" lon="8.699305635510747"><ele>147.0</ele><time>2026-04-05T08:48:11.999Z</time></trkpt><trkpt lat="44.77905158905416" lon="8.698902811728283"><ele>147.0</ele><time>2026-04-05T08:48:12.999Z</time></trkpt><trkpt lat="44.77894831452417" lon="8.698505935361068"><ele>147.0</ele><time>2026-04-05T08:48:13.999Z</time></trkpt><trkpt lat="44.778845566139196" lon="8.698109633251038"><ele>147.0</ele><time>2026-04-05T08:48:14.999Z</time></trkpt><trkpt lat="44.7787510994027" lon="8.697718645417474"><ele>147.0</ele><time>2026-04-05T08:48:15.999Z</time></trkpt><trkpt lat="44.77865739117339" lon="8.697327560591326"><ele>147.0</ele><time>2026-04-05T08:48:16.999Z</time></trkpt><trkpt lat="44.77855896112709" lon="8.696933048286063"><ele>145.5</ele><time>2026-04-05T08:48:17.999Z</time></trkpt><trkpt lat="44.77846641316987" lon="8.696533314875397"><ele>144.0</ele><time>2026-04-05T08:48:18.999Z</time></trkpt><trkpt lat="44.77837745586048" lon="8.696143917116785"><ele>145.0</ele><time>2026-04-05T08:48:19.999Z</time></trkpt><trkpt lat="44.77828875964978" lon="8.695749115686782"><ele>146.0</ele><time>2026-04-05T08:48:20.999Z</time></trkpt><trkpt lat="44.77820521459756" lon="8.695361085443045"><ele>146.0</ele><time>2026-04-05T08:48:21.999Z</time></trkpt><trkpt lat="44.77812378832805" lon="8.694967246234949"><ele>146.0</ele><time>2026-04-05T08:48:22.999Z</time></trkpt><trkpt lat="44.778046336106414" lon="8.694573493997352"><ele>147.0</ele><time>2026-04-05T08:48:23.999Z</time></trkpt><trkpt lat="44.77796680790832" lon="8.694175746886495"><ele>148.0</ele><time>2026-04-05T08:48:24.999Z</time></trkpt><trkpt lat="44.77788568727145" lon="8.693772789638482"><ele>146.5</ele><time>2026-04-05T08:48:25.999Z</time></trkpt><trkpt lat="44.777803727000624" lon="8.693365334102499"><ele>145.0</ele><time>2026-04-05T08:48:26.999Z</time></trkpt><trkpt lat="44.7777291272884" lon="8.692954196152336"><ele>144.0</ele><time>2026-04-05T08:48:27.999Z</time></trkpt><trkpt lat="44.77765793890424" lon="8.692539202847277"><ele>143.0</ele><time>2026-04-05T08:48:28.999Z</time></trkpt><trkpt lat="44.77758227752301" lon="8.692117061952759"><ele>143.0</ele><time>2026-04-05T08:48:29.999Z</time></trkpt><trkpt lat="44.777511234605626" lon="8.69168134067799"><ele>143.0</ele><time>2026-04-05T08:48:30.999Z</time></trkpt><trkpt lat="44.77743934463521" lon="8.69124494424218"><ele>143.5</ele><time>2026-04-05T08:48:31.999Z</time></trkpt><trkpt lat="44.777372588037586" lon="8.69081955540644"><ele>144.0</ele><time>2026-04-05T08:48:32.999Z</time></trkpt><trkpt lat="44.777310547471835" lon="8.690403440385111"><ele>143.5</ele><time>2026-04-05T08:48:33.999Z</time></trkpt><trkpt lat="44.77725538800405" lon="8.69000173165574"><ele>143.0</ele><time>2026-04-05T08:48:34.999Z</time></trkpt><trkpt lat="44.777197394632985" lon="8.689603061429006"><ele>142.0</ele><time>2026-04-05T08:48:35.999Z</time></trkpt><trkpt lat="44.777133929009615" lon="8.689221772850571"><ele>141.0</ele><time>2026-04-05T08:48:36.999Z</time></trkpt><trkpt lat="44.77708431126996" lon="8.688845063565683"><ele>140.0</ele><time>2026-04-05T08:48:37.999Z</time></trkpt><trkpt lat="44.77703458322087" lon="8.688475545276994"><ele>139.0</ele><time>2026-04-05T08:48:38.999Z</time></trkpt><trkpt lat="44.776988436687006" lon="8.688091135036068"><ele>139.0</ele><time>2026-04-05T08:48:39.999Z</time></trkpt><trkpt lat="44.7769402656615" lon="8.687699727123707"><ele>139.0</ele><time>2026-04-05T08:48:40.999Z</time></trkpt><trkpt lat="44.776895487694006" lon="8.687298698313091"><ele>137.5</ele><time>2026-04-05T08:48:41.999Z</time></trkpt><trkpt lat="44.77684802831378" lon="8.68688856147786"><ele>136.0</ele><time>2026-04-05T08:48:42.999Z</time></trkpt><trkpt lat="44.77680089113379" lon="8.686476046199692"><ele>134.5</ele><time>2026-04-05T08:48:43.999Z</time></trkpt><trkpt lat="44.77675317308677" lon="8.686053221625647"><ele>133.0</ele><time>2026-04-05T08:48:44.999Z</time></trkpt><trkpt lat="44.776703117913094" lon="8.685609967725485"><ele>131.5</ele><time>2026-04-05T08:48:45.999Z</time></trkpt><trkpt lat="44.77665115262332" lon="8.685174820951575"><ele>130.0</ele><time>2026-04-05T08:48:46.999Z</time></trkpt><trkpt lat="44.776599246791065" lon="8.68473762937897"><ele>128.5</ele><time>2026-04-05T08:48:47.999Z</time></trkpt><trkpt lat="44.7765468230293" lon="8.684300442038142"><ele>127.0</ele><time>2026-04-05T08:48:48.999Z</time></trkpt><trkpt lat="44.776495475502266" lon="8.683869393317526"><ele>125.5</ele><time>2026-04-05T08:48:49.999Z</time></trkpt><trkpt lat="44.77644373847924" lon="8.683436046959505"><ele>124.0</ele><time>2026-04-05T08:48:50.999Z</time></trkpt><trkpt lat="44.77639801473243" lon="8.683007423088837"><ele>122.5</ele><time>2026-04-05T08:48:51.999Z</time></trkpt><trkpt lat="44.776348228105846" lon="8.682579642883754"><ele>121.0</ele><time>2026-04-05T08:48:52.999Z</time></trkpt><trkpt lat="44.77630293661761" lon="8.682161006952924"><ele>121.5</ele><time>2026-04-05T08:48:53.999Z</time></trkpt><trkpt lat="44.776257276262164" lon="8.681750077422071"><ele>122.0</ele><time>2026-04-05T08:48:54.999Z</time></trkpt><trkpt lat="44.77620915047941" lon="8.68134369046833"><ele>122.0</ele><time>2026-04-05T08:48:55.999Z</time></trkpt><trkpt lat="44.77616350163406" lon="8.68095476797872"><ele>122.0</ele><time>2026-04-05T08:48:56.999Z</time></trkpt><trkpt lat="44.77611873387563" lon="8.68055603348486"><ele>122.5</ele><time>2026-04-05T08:48:57.999Z</time></trkpt><trkpt lat="44.77607034005743" lon="8.680163012539234"><ele>123.0</ele><time>2026-04-05T08:48:58.999Z</time></trkpt><trkpt lat="44.77602133531513" lon="8.67976779988628"><ele>122.5</ele><time>2026-04-05T08:48:59.999Z</time></trkpt><trkpt lat="44.77596672180832" lon="8.679370607409291"><ele>122.0</ele><time>2026-04-05T08:49:00.999Z</time></trkpt><trkpt lat="44.77591151028663" lon="8.67897214655766"><ele>122.0</ele><time>2026-04-05T08:49:01.999Z</time></trkpt><trkpt lat="44.775841875881895" lon="8.678563619348"><ele>122.0</ele><time>2026-04-05T08:49:02.999Z</time></trkpt><trkpt lat="44.77576499058848" lon="8.678146090815643"><ele>122.0</ele><time>2026-04-05T08:49:03.999Z</time></trkpt><trkpt lat="44.77568444976733" lon="8.677705298621172"><ele>122.0</ele><time>2026-04-05T08:49:05Z</time></trkpt><trkpt lat="44.775593462407244" lon="8.677250460844231"><ele>122.0</ele><time>2026-04-05T08:49:06Z</time></trkpt><trkpt lat="44.775497529012746" lon="8.676803835899499"><ele>122.0</ele><time>2026-04-05T08:49:07Z</time></trkpt><trkpt lat="44.775396057549806" lon="8.676378140338514"><ele>121.5</ele><time>2026-04-05T08:49:08Z</time></trkpt><trkpt lat="44.775300758654616" lon="8.6759671011309"><ele>121.0</ele><time>2026-04-05T08:49:09Z</time></trkpt><trkpt lat="44.775197798344486" lon="8.67556699072135"><ele>122.5</ele><time>2026-04-05T08:49:10Z</time></trkpt><trkpt lat="44.77509623926723" lon="8.675181830076966"><ele>124.0</ele><time>2026-04-05T08:49:11Z</time></trkpt><trkpt lat="44.77499493296725" lon="8.674806819656137"><ele>124.0</ele><time>2026-04-05T08:49:12Z</time></trkpt><trkpt lat="44.77488397072953" lon="8.674441113331982"><ele>124.0</ele><time>2026-04-05T08:49:13Z</time></trkpt><trkpt lat="44.774771522344395" lon="8.674083157462482"><ele>123.0</ele><time>2026-04-05T08:49:14Z</time></trkpt><trkpt lat="44.77465061065825" lon="8.67371806128889"><ele>122.0</ele><time>2026-04-05T08:49:15Z</time></trkpt><trkpt lat="44.774516100138534" lon="8.673360185121883"><ele>122.0</ele><time>2026-04-05T08:49:16Z</time></trkpt><trkpt lat="44.7743952268543" lon="8.673012061246041"><ele>122.0</ele><time>2026-04-05T08:49:17Z</time></trkpt><trkpt lat="44.77426461655133" lon="8.67266113685395"><ele>122.5</ele><time>2026-04-05T08:49:18Z</time></trkpt><trkpt lat="44.77413353329157" lon="8.672324665667821"><ele>123.0</ele><time>2026-04-05T08:49:19Z</time></trkpt><trkpt lat="44.77399821147483" lon="8.671983716770237"><ele>122.5</ele><time>2026-04-05T08:49:20Z</time></trkpt><trkpt lat="44.77385374727274" lon="8.671632229324008"><ele>122.0</ele><time>2026-04-05T08:49:21Z</time></trkpt><trkpt lat="44.77369246196001" lon="8.67127437476684"><ele>121.5</ele><time>2026-04-05T08:49:22Z</time></trkpt><trkpt lat="44.77352436748193" lon="8.670912816289128"><ele>121.0</ele><time>2026-04-05T08:49:23Z</time></trkpt><trkpt lat="44.77335234983068" lon="8.670535999751094"><ele>121.0</ele><time>2026-04-05T08:49:24Z</time></trkpt><trkpt lat="44.7731885817954" lon="8.670143542608015"><ele>121.0</ele><time>2026-04-05T08:49:25Z</time></trkpt><trkpt lat="44.77300524000288" lon="8.669732743391858"><ele>121.0</ele><time>2026-04-05T08:49:26Z</time></trkpt><trkpt lat="44.7728383644687" lon="8.669321082880519"><ele>121.0</ele><time>2026-04-05T08:49:27Z</time></trkpt><trkpt lat="44.772659865330866" lon="8.668920905018174"><ele>121.0</ele><time>2026-04-05T08:49:28Z</time></trkpt><trkpt lat="44.77249776447476" lon="8.668522650157628"><ele>121.0</ele><time>2026-04-05T08:49:29Z</time></trkpt><trkpt lat="44.77234030693887" lon="8.668136836806845"><ele>120.5</ele><time>2026-04-05T08:49:30Z</time></trkpt><trkpt lat="44.77217818363922" lon="8.66776874532555"><ele>120.0</ele><time>2026-04-05T08:49:31Z</time></trkpt><trkpt lat="44.77202271753775" lon="8.667411866246606"><ele>120.0</ele><time>2026-04-05T08:49:32Z</time></trkpt><trkpt lat="44.77187025690908" lon="8.667063153180678"><ele>120.0</ele><time>2026-04-05T08:49:33Z</time></trkpt><trkpt lat="44.77171661644156" lon="8.666715803426891"><ele>120.0</ele><time>2026-04-05T08:49:34Z</time></trkpt><trkpt lat="44.771566010047515" lon="8.66637587370404"><ele>120.0</ele><time>2026-04-05T08:49:35Z</time></trkpt><trkpt lat="44.77141907386292" lon="8.666039681291064"><ele>121.5</ele><time>2026-04-05T08:49:36Z</time></trkpt><trkpt lat="44.771271405192174" lon="8.66570671402457"><ele>123.0</ele><time>2026-04-05T08:49:37Z</time></trkpt><trkpt lat="44.77112891529552" lon="8.665371173325719"><ele>122.0</ele><time>2026-04-05T08:49:38Z</time></trkpt><trkpt lat="44.770987664627235" lon="8.665035426982888"><ele>121.0</ele><time>2026-04-05T08:49:39Z</time></trkpt><trkpt lat="44.770837164812875" lon="8.664701669782282"><ele>121.0</ele><time>2026-04-05T08:49:40Z</time></trkpt><trkpt lat="44.77068905956447" lon="8.66437039201862"><ele>121.0</ele><time>2026-04-05T08:49:41Z</time></trkpt><trkpt lat="44.770543471392145" lon="8.664035199931847"><ele>121.0</ele><time>2026-04-05T08:49:42Z</time></trkpt><trkpt lat="44.77039569839821" lon="8.663695649052352"><ele>121.0</ele><time>2026-04-05T08:49:43Z</time></trkpt><trkpt lat="44.77024271287153" lon="8.66334568129731"><ele>121.0</ele><time>2026-04-05T08:49:44Z</time></trkpt><trkpt lat="44.77008637016146" lon="8.662989392317286"><ele>121.0</ele><time>2026-04-05T08:49:45Z</time></trkpt><trkpt lat="44.769931207230066" lon="8.662631902485378"><ele>121.5</ele><time>2026-04-05T08:49:46Z</time></trkpt><trkpt lat="44.76977333448585" lon="8.662269535596725"><ele>122.0</ele><time>2026-04-05T08:49:47Z</time></trkpt><trkpt lat="44.769610004132964" lon="8.661905763183594"><ele>123.0</ele><time>2026-04-05T08:49:48Z</time></trkpt><trkpt lat="44.76945676280306" lon="8.661540280372698"><ele>124.0</ele><time>2026-04-05T08:49:49Z</time></trkpt><trkpt lat="44.76930322016605" lon="8.661177579250737"><ele>126.0</ele><time>2026-04-05T08:49:50Z</time></trkpt><trkpt lat="44.769152775035806" lon="8.660812515486288"><ele>128.0</ele><time>2026-04-05T08:49:51Z</time></trkpt><trkpt lat="44.76899894076649" lon="8.66045144997735"><ele>128.5</ele><time>2026-04-05T08:49:52Z</time></trkpt><trkpt lat="44.76884519643229" lon="8.660094764144143"><ele>129.0</ele><time>2026-04-05T08:49:53Z</time></trkpt><trkpt lat="44.76869019956496" lon="8.659737854774114"><ele>128.0</ele><time>2026-04-05T08:49:54Z</time></trkpt><trkpt lat="44.768536436976895" lon="8.65938083017752"><ele>127.0</ele><time>2026-04-05T08:49:55Z</time></trkpt><trkpt lat="44.76838198675431" lon="8.659025788336942"><ele>126.5</ele><time>2026-04-05T08:49:56Z</time></trkpt><trkpt lat="44.7682299783823" lon="8.658669484352842"><ele>126.0</ele><time>2026-04-05T08:49:57Z</time></trkpt><trkpt lat="44.76807939855459" lon="8.658316431392244"><ele>125.5</ele><time>2026-04-05T08:49:58Z</time></trkpt><trkpt lat="44.76791393288645" lon="8.657940341747205"><ele>125.0</ele><time>2026-04-05T08:49:59Z</time></trkpt><trkpt lat="44.7677451323663" lon="8.657555669580454"><ele>127.0</ele><time>2026-04-05T08:50:00Z</time></trkpt><trkpt lat="44.767580194665406" lon="8.657171776211946"><ele>129.0</ele><time>2026-04-05T08:50:01Z</time></trkpt><trkpt lat="44.767415394950476" lon="8.65678701939041"><ele>129.5</ele><time>2026-04-05T08:50:02Z</time></trkpt><trkpt lat="44.767251225212185" lon="8.656407569643756"><ele>130.0</ele><time>2026-04-05T08:50:03Z</time></trkpt><trkpt lat="44.767085231143334" lon="8.656031365399796"><ele>130.0</ele><time>2026-04-05T08:50:04Z</time></trkpt><trkpt lat="44.76692775556321" lon="8.655662203535403"><ele>130.0</ele><time>2026-04-05T08:50:05Z</time></trkpt><trkpt lat="44.76677438033852" lon="8.655293418563273"><ele>130.0</ele><time>2026-04-05T08:50:06Z</time></trkpt><trkpt lat="44.76662093046888" lon="8.654931883879692"><ele>130.0</ele><time>2026-04-05T08:50:07Z</time></trkpt><trkpt lat="44.76646491038387" lon="8.6545707676522"><ele>129.5</ele><time>2026-04-05T08:50:08Z</time></trkpt><trkpt lat="44.76631342825438" lon="8.654213445403713"><ele>129.0</ele><time>2026-04-05T08:50:09Z</time></trkpt><trkpt lat="44.7661616794214" lon="8.653855744626116"><ele>130.5</ele><time>2026-04-05T08:50:10Z</time></trkpt><trkpt lat="44.766007933623364" lon="8.653495789749849"><ele>132.0</ele><time>2026-04-05T08:50:10.999Z</time></trkpt><trkpt lat="44.76585433745838" lon="8.653138244159704"><ele>132.0</ele><time>2026-04-05T08:50:11.999Z</time></trkpt><trkpt lat="44.76569780343225" lon="8.652784923163779"><ele>132.0</ele><time>2026-04-05T08:50:12.999Z</time></trkpt><trkpt lat="44.76554320900938" lon="8.652435704520519"><ele>132.0</ele><time>2026-04-05T08:50:13.999Z</time></trkpt><trkpt lat="44.76539116334544" lon="8.652085911758594"><ele>132.0</ele><time>2026-04-05T08:50:14.999Z</time></trkpt><trkpt lat="44.76522655544268" lon="8.651717468573965"><ele>132.0</ele><time>2026-04-05T08:50:15.999Z</time></trkpt><trkpt lat="44.76505976052589" lon="8.651344940319985"><ele>132.0</ele><time>2026-04-05T08:50:16.999Z</time></trkpt><trkpt lat="44.76488788894386" lon="8.650970508459748"><ele>132.5</ele><time>2026-04-05T08:50:17.999Z</time></trkpt><trkpt lat="44.76470775387383" lon="8.650580470366817"><ele>133.0</ele><time>2026-04-05T08:50:18.999Z</time></trkpt><trkpt lat="44.764535263983745" lon="8.650180835461118"><ele>133.0</ele><time>2026-04-05T08:50:19.999Z</time></trkpt><trkpt lat="44.76437439604536" lon="8.649797992258526"><ele>133.0</ele><time>2026-04-05T08:50:20.999Z</time></trkpt><trkpt lat="44.76422347949758" lon="8.649424421561662"><ele>133.5</ele><time>2026-04-05T08:50:21.999Z</time></trkpt><trkpt lat="44.76408281940626" lon="8.649077577935488"><ele>134.0</ele><time>2026-04-05T08:50:22.999Z</time></trkpt><trkpt lat="44.763943463726505" lon="8.648759705323426"><ele>133.5</ele><time>2026-04-05T08:50:23.999Z</time></trkpt><trkpt lat="44.763806650712425" lon="8.648450895625245"><ele>133.0</ele><time>2026-04-05T08:50:24.999Z</time></trkpt><trkpt lat="44.76367438953964" lon="8.648159900991502"><ele>133.0</ele><time>2026-04-05T08:50:25.999Z</time></trkpt><trkpt lat="44.763557273504766" lon="8.647892210091612"><ele>133.0</ele><time>2026-04-05T08:50:26.999Z</time></trkpt><trkpt lat="44.76344069963049" lon="8.647628904928592"><ele>133.0</ele><time>2026-04-05T08:50:27.999Z</time></trkpt><trkpt lat="44.76333131156521" lon="8.64737143221287"><ele>134.33333333333334</ele><time>2026-04-05T08:50:28.999Z</time></trkpt><trkpt lat="44.76322547406326" lon="8.64711429915762"><ele>135.66666666666666</ele><time>2026-04-05T08:50:29.999Z</time></trkpt><trkpt lat="44.76311802718621" lon="8.646858526976686"><ele>137.0</ele><time>2026-04-05T08:50:30.999Z</time></trkpt><trkpt lat="44.76301093209656" lon="8.646598293940166"><ele>137.0</ele><time>2026-04-05T08:50:31.999Z</time></trkpt><trkpt lat="44.76289142406531" lon="8.646331453384105"><ele>137.0</ele><time>2026-04-05T08:50:32.999Z</time></trkpt><trkpt lat="44.76276711458543" lon="8.646062299854059"><ele>138.0</ele><time>2026-04-05T08:50:33.999Z</time></trkpt><trkpt lat="44.76263016685867" lon="8.645798807539244"><ele>139.0</ele><time>2026-04-05T08:50:34.999Z</time></trkpt><trkpt lat="44.76248879333361" lon="8.645526222187044"><ele>140.0</ele><time>2026-04-05T08:50:35.999Z</time></trkpt><trkpt lat="44.76233554897543" lon="8.64526001616361"><ele>141.0</ele><time>2026-04-05T08:50:36.999Z</time></trkpt><trkpt lat="44.76216722159925" lon="8.64499201181986"><ele>141.0</ele><time>2026-04-05T08:50:37.999Z</time></trkpt><trkpt lat="44.761990334844796" lon="8.644716089189291"><ele>141.0</ele><time>2026-04-05T08:50:38.999Z</time></trkpt><trkpt lat="44.761810931057596" lon="8.644449073280649"><ele>142.0</ele><time>2026-04-05T08:50:39.999Z</time></trkpt><trkpt lat="44.76162220095514" lon="8.644208110937145"><ele>143.0</ele><time>2026-04-05T08:50:40.999Z</time></trkpt><trkpt lat="44.76142864022896" lon="8.64397743883776"><ele>143.0</ele><time>2026-04-05T08:50:41.999Z</time></trkpt><trkpt lat="44.76122704283381" lon="8.643760542433114"><ele>143.0</ele><time>2026-04-05T08:50:42.999Z</time></trkpt><trkpt lat="44.761026340744365" lon="8.643569670890715"><ele>142.5</ele><time>2026-04-05T08:50:43.999Z</time></trkpt><trkpt lat="44.76081989313391" lon="8.643398549273636"><ele>142.0</ele><time>2026-04-05T08:50:44.999Z</time></trkpt><trkpt lat="44.760605819414856" lon="8.643252314663433"><ele>142.0</ele><time>2026-04-05T08:50:45.999Z</time></trkpt><trkpt lat="44.760384318191186" lon="8.643130275569046"><ele>142.0</ele><time>2026-04-05T08:50:46.999Z</time></trkpt><trkpt lat="44.760173102504496" lon="8.643033738360511"><ele>142.33333333333334</ele><time>2026-04-05T08:50:47.999Z</time></trkpt><trkpt lat="44.75996014270453" lon="8.642954301652162"><ele>142.66666666666666</ele><time>2026-04-05T08:50:48.999Z</time></trkpt><trkpt lat="44.75973661223751" lon="8.642903414797495"><ele>143.0</ele><time>2026-04-05T08:50:49.999Z</time></trkpt><trkpt lat="44.759503383223574" lon="8.64288016830302"><ele>143.0</ele><time>2026-04-05T08:50:50.999Z</time></trkpt><trkpt lat="44.75923926135665" lon="8.642865871205375"><ele>143.0</ele><time>2026-04-05T08:50:51.999Z</time></trkpt><trkpt lat="44.75896467024079" lon="8.642858132490781"><ele>143.0</ele><time>2026-04-05T08:50:52.999Z</time></trkpt><trkpt lat="44.75870087508901" lon="8.642877199181127"><ele>143.0</ele><time>2026-04-05T08:50:53.999Z</time></trkpt><trkpt lat="44.75845806846757" lon="8.642915627749558"><ele>143.0</ele><time>2026-04-05T08:50:54.999Z</time></trkpt><trkpt lat="44.75821393090882" lon="8.64297301244792"><ele>143.0</ele><time>2026-04-05T08:50:55.999Z</time></trkpt><trkpt lat="44.757981141400776" lon="8.643045754509892"><ele>143.0</ele><time>2026-04-05T08:50:56.999Z</time></trkpt><trkpt lat="44.757747466501215" lon="8.64313281994778"><ele>143.0</ele><time>2026-04-05T08:50:57.999Z</time></trkpt><trkpt lat="44.75753054054658" lon="8.643232247026765"><ele>142.66666666666666</ele><time>2026-04-05T08:50:58.999Z</time></trkpt><trkpt lat="44.757327969313074" lon="8.64336095378653"><ele>142.33333333333334</ele><time>2026-04-05T08:50:59.999Z</time></trkpt><trkpt lat="44.75713818700748" lon="8.643509568808415"><ele>142.0</ele><time>2026-04-05T08:51:00.999Z</time></trkpt><trkpt lat="44.75695554328216" lon="8.643690367545814"><ele>143.5</ele><time>2026-04-05T08:51:01.999Z</time></trkpt><trkpt lat="44.75677624583223" lon="8.643880095776652"><ele>145.0</ele><time>2026-04-05T08:51:02.999Z</time></trkpt><trkpt lat="44.75660171319302" lon="8.644081512851802"><ele>145.0</ele><time>2026-04-05T08:51:03.999Z</time></trkpt><trkpt lat="44.75642963654161" lon="8.644294959881542"><ele>145.0</ele><time>2026-04-05T08:51:04.999Z</time></trkpt><trkpt lat="44.75626826337119" lon="8.644496925053872"><ele>145.0</ele><time>2026-04-05T08:51:05.999Z</time></trkpt><trkpt lat="44.7561099189479" lon="8.644682152492875"><ele>145.0</ele><time>2026-04-05T08:51:06.999Z</time></trkpt><trkpt lat="44.75592652905077" lon="8.64486835464274"><ele>145.0</ele><time>2026-04-05T08:51:07.999Z</time></trkpt><trkpt lat="44.755724837505035" lon="8.645056260034858"><ele>145.0</ele><time>2026-04-05T08:51:08.999Z</time></trkpt><trkpt lat="44.75549287400849" lon="8.645238012282611"><ele>145.0</ele><time>2026-04-05T08:51:09.999Z</time></trkpt><trkpt lat="44.755287493875166" lon="8.645377082632193"><ele>143.5</ele><time>2026-04-05T08:51:11Z</time></trkpt><trkpt lat="44.755075725195134" lon="8.645501001023408"><ele>142.0</ele><time>2026-04-05T08:51:12Z</time></trkpt><trkpt lat="44.75486204341958" lon="8.645607801062075"><ele>142.0</ele><time>2026-04-05T08:51:13Z</time></trkpt><trkpt lat="44.754647047341415" lon="8.645702046353588"><ele>142.0</ele><time>2026-04-05T08:51:14Z</time></trkpt><trkpt lat="44.75442588316655" lon="8.645778706341375"><ele>143.5</ele><time>2026-04-05T08:51:15Z</time></trkpt><trkpt lat="44.75420960752813" lon="8.645849996334105"><ele>145.0</ele><time>2026-04-05T08:51:16Z</time></trkpt><trkpt lat="44.75398396028396" lon="8.645922617414932"><ele>145.0</ele><time>2026-04-05T08:51:17Z</time></trkpt><trkpt lat="44.75374170565856" lon="8.645985028628903"><ele>145.0</ele><time>2026-04-05T08:51:18Z</time></trkpt><trkpt lat="44.75350079176616" lon="8.646033764745438"><ele>144.5</ele><time>2026-04-05T08:51:19Z</time></trkpt><trkpt lat="44.75327891865329" lon="8.646076330145371"><ele>144.0</ele><time>2026-04-05T08:51:20Z</time></trkpt><trkpt lat="44.753052070742655" lon="8.646118238175415"><ele>144.0</ele><time>2026-04-05T08:51:21Z</time></trkpt><trkpt lat="44.75281437225982" lon="8.64616331313234"><ele>144.0</ele><time>2026-04-05T08:51:22Z</time></trkpt><trkpt lat="44.752573210792406" lon="8.646201944699182"><ele>143.5</ele><time>2026-04-05T08:51:23Z</time></trkpt><trkpt lat="44.75233533772324" lon="8.646238735895716"><ele>143.0</ele><time>2026-04-05T08:51:24Z</time></trkpt><trkpt lat="44.75209593177213" lon="8.646282609604985"><ele>143.0</ele><time>2026-04-05T08:51:25Z</time></trkpt><trkpt lat="44.75186243163201" lon="8.64632357824069"><ele>143.0</ele><time>2026-04-05T08:51:26Z</time></trkpt><trkpt lat="44.751627042235704" lon="8.646363637326985"><ele>143.0</ele><time>2026-04-05T08:51:27Z</time></trkpt><trkpt lat="44.751391426593855" lon="8.646406010075253"><ele>143.0</ele><time>2026-04-05T08:51:28Z</time></trkpt><trkpt lat="44.75115051676326" lon="8.64644687994727"><ele>143.0</ele><time>2026-04-05T08:51:29Z</time></trkpt><trkpt lat="44.75090564499922" lon="8.646497257977991"><ele>143.0</ele><time>2026-04-05T08:51:30Z</time></trkpt><trkpt lat="44.75065071499802" lon="8.646552475030408"><ele>143.0</ele><time>2026-04-05T08:51:31Z</time></trkpt><trkpt lat="44.75040450172976" lon="8.646621994520494"><ele>143.0</ele><time>2026-04-05T08:51:32Z</time></trkpt><trkpt lat="44.750136858730556" lon="8.646704185871975"><ele>142.5</ele><time>2026-04-05T08:51:33Z</time></trkpt><trkpt lat="44.74983761554441" lon="8.646801057400879"><ele>142.0</ele><time>2026-04-05T08:51:34Z</time></trkpt><trkpt lat="44.749509130437275" lon="8.646899373470696"><ele>141.0</ele><time>2026-04-05T08:51:35Z</time></trkpt><trkpt lat="44.74915627875776" lon="8.64700351552686"><ele>140.0</ele><time>2026-04-05T08:51:36Z</time></trkpt><trkpt lat="44.74878661457602" lon="8.64711583198432"><ele>141.0</ele><time>2026-04-05T08:51:37Z</time></trkpt><trkpt lat="44.748402487802515" lon="8.64724630829186"><ele>142.0</ele><time>2026-04-05T08:51:38Z</time></trkpt><trkpt lat="44.748024528289456" lon="8.647380795601793"><ele>143.5</ele><time>2026-04-05T08:51:39Z</time></trkpt><trkpt lat="44.74766507443879" lon="8.647514348731548"><ele>145.0</ele><time>2026-04-05T08:51:40Z</time></trkpt><trkpt lat="44.74731942283685" lon="8.64764567404365"><ele>145.0</ele><time>2026-04-05T08:51:41Z</time></trkpt><trkpt lat="44.74699159946074" lon="8.647784127222538"><ele>145.0</ele><time>2026-04-05T08:51:42Z</time></trkpt><trkpt lat="44.746668575435315" lon="8.647927562392425"><ele>144.0</ele><time>2026-04-05T08:51:43Z</time></trkpt><trkpt lat="44.7463525967525" lon="8.648070179499468"><ele>143.0</ele><time>2026-04-05T08:51:44Z</time></trkpt><trkpt lat="44.746041342995696" lon="8.648213894537959"><ele>143.0</ele><time>2026-04-05T08:51:45Z</time></trkpt><trkpt lat="44.74573722242507" lon="8.648357216875642"><ele>143.0</ele><time>2026-04-05T08:51:46Z</time></trkpt><trkpt lat="44.74543461693945" lon="8.64849181909091"><ele>142.0</ele><time>2026-04-05T08:51:47Z</time></trkpt><trkpt lat="44.74512451334236" lon="8.648630787093907"><ele>141.0</ele><time>2026-04-05T08:51:48Z</time></trkpt><trkpt lat="44.74481887889586" lon="8.648768851010443"><ele>141.0</ele><time>2026-04-05T08:51:49Z</time></trkpt><trkpt lat="44.74452383627411" lon="8.648903527657696"><ele>141.0</ele><time>2026-04-05T08:51:50Z</time></trkpt><trkpt lat="44.74423526109676" lon="8.649034587972142"><ele>143.0</ele><time>2026-04-05T08:51:51Z</time></trkpt><trkpt lat="44.74393766751454" lon="8.649174391254936"><ele>145.0</ele><time>2026-04-05T08:51:52Z</time></trkpt><trkpt lat="44.743629963334094" lon="8.649322630554122"><ele>143.5</ele><time>2026-04-05T08:51:53Z</time></trkpt><trkpt lat="44.743335548199944" lon="8.64946879863999"><ele>142.0</ele><time>2026-04-05T08:51:54Z</time></trkpt><trkpt lat="44.743051016352034" lon="8.64961735654629"><ele>142.0</ele><time>2026-04-05T08:51:55Z</time></trkpt><trkpt lat="44.74276972572477" lon="8.649782790907894"><ele>142.0</ele><time>2026-04-05T08:51:56Z</time></trkpt><trkpt lat="44.74248874574418" lon="8.649953286605168"><ele>142.0</ele><time>2026-04-05T08:51:57Z</time></trkpt><trkpt lat="44.742219602830325" lon="8.650128773860786"><ele>142.0</ele><time>2026-04-05T08:51:58Z</time></trkpt><trkpt lat="44.74196651993013" lon="8.650304025385525"><ele>144.5</ele><time>2026-04-05T08:51:59Z</time></trkpt><trkpt lat="44.74171255069799" lon="8.650488851498139"><ele>147.0</ele><time>2026-04-05T08:52:00Z</time></trkpt><trkpt lat="44.74145203768579" lon="8.650696481680974"><ele>147.0</ele><time>2026-04-05T08:52:01Z</time></trkpt><trkpt lat="44.74119826104507" lon="8.650909853620638"><ele>147.0</ele><time>2026-04-05T08:52:02Z</time></trkpt><trkpt lat="44.74095755026808" lon="8.651124830647028"><ele>146.5</ele><time>2026-04-05T08:52:03Z</time></trkpt><trkpt lat="44.74072749585716" lon="8.65133621074949"><ele>146.0</ele><time>2026-04-05T08:52:04Z</time></trkpt><trkpt lat="44.740498338034364" lon="8.651566857020455"><ele>146.0</ele><time>2026-04-05T08:52:05Z</time></trkpt><trkpt lat="44.740269517349" lon="8.65181760021181"><ele>146.0</ele><time>2026-04-05T08:52:06Z</time></trkpt><trkpt lat="44.74004063770298" lon="8.652083123192273"><ele>146.5</ele><time>2026-04-05T08:52:07Z</time></trkpt><trkpt lat="44.73982717428882" lon="8.652340228505922"><ele>147.0</ele><time>2026-04-05T08:52:08Z</time></trkpt><trkpt lat="44.73961440585764" lon="8.652597108226903"><ele>146.5</ele><time>2026-04-05T08:52:09Z</time></trkpt><trkpt lat="44.7394055303167" lon="8.65287466055877"><ele>146.0</ele><time>2026-04-05T08:52:10Z</time></trkpt><trkpt lat="44.73920407094098" lon="8.653155705106702"><ele>146.5</ele><time>2026-04-05T08:52:11Z</time></trkpt><trkpt lat="44.73900567345595" lon="8.653440569339676"><ele>147.0</ele><time>2026-04-05T08:52:12Z</time></trkpt><trkpt lat="44.73881400258015" lon="8.653731237559287"><ele>147.0</ele><time>2026-04-05T08:52:13Z</time></trkpt><trkpt lat="44.73862965021733" lon="8.654034850517851"><ele>147.0</ele><time>2026-04-05T08:52:14Z</time></trkpt><trkpt lat="44.73844737748767" lon="8.654344791479101"><ele>148.0</ele><time>2026-04-05T08:52:15Z</time></trkpt><trkpt lat="44.73827207649303" lon="8.654664513188356"><ele>149.0</ele><time>2026-04-05T08:52:16Z</time></trkpt><trkpt lat="44.73810135889649" lon="8.654984567422778"><ele>148.0</ele><time>2026-04-05T08:52:16.999Z</time></trkpt><trkpt lat="44.73793201698872" lon="8.655312642303493"><ele>147.0</ele><time>2026-04-05T08:52:17.999Z</time></trkpt><trkpt lat="44.73776476688691" lon="8.65563962324456"><ele>147.5</ele><time>2026-04-05T08:52:18.999Z</time></trkpt><trkpt lat="44.737597515233574" lon="8.655970438790936"><ele>148.0</ele><time>2026-04-05T08:52:19.999Z</time></trkpt><trkpt lat="44.73742967364982" lon="8.656298394654353"><ele>147.0</ele><time>2026-04-05T08:52:20.999Z</time></trkpt><trkpt lat="44.7372596472959" lon="8.656620101630132"><ele>146.0</ele><time>2026-04-05T08:52:21.999Z</time></trkpt><trkpt lat="44.73708234972064" lon="8.656945153825916"><ele>145.5</ele><time>2026-04-05T08:52:22.999Z</time></trkpt><trkpt lat="44.73689997792134" lon="8.657267753755589"><ele>145.0</ele><time>2026-04-05T08:52:23.999Z</time></trkpt><trkpt lat="44.736712090214276" lon="8.657590510932932"><ele>145.0</ele><time>2026-04-05T08:52:24.999Z</time></trkpt><trkpt lat="44.7365181920467" lon="8.657897857919524"><ele>145.0</ele><time>2026-04-05T08:52:25.999Z</time></trkpt><trkpt lat="44.7363157980508" lon="8.658206159197734"><ele>145.0</ele><time>2026-04-05T08:52:26.999Z</time></trkpt><trkpt lat="44.73610860637005" lon="8.658508453189226"><ele>145.0</ele><time>2026-04-05T08:52:27.999Z</time></trkpt><trkpt lat="44.735889192245615" lon="8.658820231101386"><ele>145.0</ele><time>2026-04-05T08:52:28.999Z</time></trkpt><trkpt lat="44.735667728585035" lon="8.659123713615134"><ele>145.0</ele><time>2026-04-05T08:52:29.999Z</time></trkpt><trkpt lat="44.735435877012954" lon="8.659421508221671"><ele>145.0</ele><time>2026-04-05T08:52:30.999Z</time></trkpt><trkpt lat="44.73520180173714" lon="8.659708145026721"><ele>145.0</ele><time>2026-04-05T08:52:31.999Z</time></trkpt><trkpt lat="44.7349705394059" lon="8.659984848024523"><ele>145.0</ele><time>2026-04-05T08:52:32.999Z</time></trkpt><trkpt lat="44.73473606492179" lon="8.660253455485604"><ele>145.0</ele><time>2026-04-05T08:52:33.999Z</time></trkpt><trkpt lat="44.734497833507994" lon="8.660506870476956"><ele>144.5</ele><time>2026-04-05T08:52:34.999Z</time></trkpt><trkpt lat="44.734259271473576" lon="8.660756146283092"><ele>144.0</ele><time>2026-04-05T08:52:35.999Z</time></trkpt><trkpt lat="44.73401284621031" lon="8.660990845736121"><ele>144.0</ele><time>2026-04-05T08:52:36.999Z</time></trkpt><trkpt lat="44.73375531509348" lon="8.661225107347182"><ele>144.0</ele><time>2026-04-05T08:52:37.999Z</time></trkpt><trkpt lat="44.73349352628406" lon="8.661454310771102"><ele>144.0</ele><time>2026-04-05T08:52:38.999Z</time></trkpt><trkpt lat="44.733229897925135" lon="8.661675418556607"><ele>144.0</ele><time>2026-04-05T08:52:39.999Z</time></trkpt><trkpt lat="44.732967371043806" lon="8.66188476442092"><ele>143.5</ele><time>2026-04-05T08:52:40.999Z</time></trkpt><trkpt lat="44.73269872451166" lon="8.662080558757934"><ele>143.0</ele><time>2026-04-05T08:52:41.999Z</time></trkpt><trkpt lat="44.7324334418678" lon="8.662266003876535"><ele>143.0</ele><time>2026-04-05T08:52:42.999Z</time></trkpt><trkpt lat="44.732166350067544" lon="8.662448758982025"><ele>143.0</ele><time>2026-04-05T08:52:43.999Z</time></trkpt><trkpt lat="44.731895763767675" lon="8.662624546407791"><ele>143.0</ele><time>2026-04-05T08:52:44.999Z</time></trkpt><trkpt lat="44.731627343788524" lon="8.66279512513272"><ele>143.0</ele><time>2026-04-05T08:52:45.999Z</time></trkpt><trkpt lat="44.73135586072011" lon="8.662960929642429"><ele>143.0</ele><time>2026-04-05T08:52:46.999Z</time></trkpt><trkpt lat="44.73108809970011" lon="8.66311129014419"><ele>143.0</ele><time>2026-04-05T08:52:47.999Z</time></trkpt><trkpt lat="44.73082177197742" lon="8.663266071980933"><ele>142.5</ele><time>2026-04-05T08:52:48.999Z</time></trkpt><trkpt lat="44.730557327462684" lon="8.663411008896043"><ele>142.0</ele><time>2026-04-05T08:52:49.999Z</time></trkpt><trkpt lat="44.73029607090844" lon="8.663558350378967"><ele>144.0</ele><time>2026-04-05T08:52:50.999Z</time></trkpt><trkpt lat="44.73003866225715" lon="8.663700878581393"><ele>146.0</ele><time>2026-04-05T08:52:51.999Z</time></trkpt><trkpt lat="44.72977615330713" lon="8.66385012360438"><ele>146.0</ele><time>2026-04-05T08:52:52.999Z</time></trkpt><trkpt lat="44.72950505215773" lon="8.66400146455501"><ele>146.0</ele><time>2026-04-05T08:52:53.999Z</time></trkpt><trkpt lat="44.729233659698664" lon="8.664162705758548"><ele>146.5</ele><time>2026-04-05T08:52:54.999Z</time></trkpt><trkpt lat="44.728966876435294" lon="8.66432227720842"><ele>147.0</ele><time>2026-04-05T08:52:55.999Z</time></trkpt><trkpt lat="44.72869400355734" lon="8.664476209824779"><ele>145.5</ele><time>2026-04-05T08:52:56.999Z</time></trkpt><trkpt lat="44.72842334218886" lon="8.664633206432036"><ele>144.0</ele><time>2026-04-05T08:52:57.999Z</time></trkpt><trkpt lat="44.728159479970756" lon="8.664786457449399"><ele>144.0</ele><time>2026-04-05T08:52:58.999Z</time></trkpt><trkpt lat="44.727898050025175" lon="8.664937840002741"><ele>144.0</ele><time>2026-04-05T08:52:59.999Z</time></trkpt><trkpt lat="44.7276370298944" lon="8.665092051535884"><ele>143.5</ele><time>2026-04-05T08:53:00.999Z</time></trkpt><trkpt lat="44.72737764731068" lon="8.665232513022518"><ele>143.0</ele><time>2026-04-05T08:53:01.999Z</time></trkpt><trkpt lat="44.72711480069319" lon="8.665381313746591"><ele>141.5</ele><time>2026-04-05T08:53:02.999Z</time></trkpt><trkpt lat="44.72684701906444" lon="8.665530885679148"><ele>140.0</ele><time>2026-04-05T08:53:03.999Z</time></trkpt><trkpt lat="44.726580404201634" lon="8.665684645266454"><ele>140.0</ele><time>2026-04-05T08:53:04.999Z</time></trkpt><trkpt lat="44.726326110561" lon="8.665838347726336"><ele>140.0</ele><time>2026-04-05T08:53:05.999Z</time></trkpt><trkpt lat="44.726066132059024" lon="8.66598591780949"><ele>140.5</ele><time>2026-04-05T08:53:06.999Z</time></trkpt><trkpt lat="44.725797988847944" lon="8.666130207147747"><ele>141.0</ele><time>2026-04-05T08:53:07.999Z</time></trkpt><trkpt lat="44.725515984109194" lon="8.666270877362326"><ele>141.0</ele><time>2026-04-05T08:53:08.999Z</time></trkpt><trkpt lat="44.72523064170704" lon="8.666400972644748"><ele>141.0</ele><time>2026-04-05T08:53:09.999Z</time></trkpt><trkpt lat="44.72493993804531" lon="8.666528317339385"><ele>143.0</ele><time>2026-04-05T08:53:10.999Z</time></trkpt><trkpt lat="44.72462386788461" lon="8.666646444403977"><ele>145.0</ele><time>2026-04-05T08:53:11.999Z</time></trkpt><trkpt lat="44.7242960910877" lon="8.666763123311194"><ele>145.0</ele><time>2026-04-05T08:53:12.999Z</time></trkpt><trkpt lat="44.72396766870742" lon="8.666864460356269"><ele>145.0</ele><time>2026-04-05T08:53:13.999Z</time></trkpt><trkpt lat="44.72364082574395" lon="8.666951236756665"><ele>142.0</ele><time>2026-04-05T08:53:14.999Z</time></trkpt><trkpt lat="44.72331128138764" lon="8.66703201756708"><ele>139.0</ele><time>2026-04-05T08:53:15.999Z</time></trkpt><trkpt lat="44.722983124568515" lon="8.66710612997787"><ele>140.0</ele><time>2026-04-05T08:53:17Z</time></trkpt><trkpt lat="44.72265719111969" lon="8.66715960973236"><ele>141.0</ele><time>2026-04-05T08:53:18Z</time></trkpt><trkpt lat="44.722333701673605" lon="8.667203716361314"><ele>141.0</ele><time>2026-04-05T08:53:19Z</time></trkpt><trkpt lat="44.72201114495237" lon="8.667236770960109"><ele>141.0</ele><time>2026-04-05T08:53:20Z</time></trkpt><trkpt lat="44.721689791852164" lon="8.66726076562051"><ele>141.0</ele><time>2026-04-05T08:53:21Z</time></trkpt><trkpt lat="44.72137183776642" lon="8.667257326809404"><ele>141.0</ele><time>2026-04-05T08:53:22Z</time></trkpt><trkpt lat="44.72104034139279" lon="8.667254818318778"><ele>141.0</ele><time>2026-04-05T08:53:23Z</time></trkpt><trkpt lat="44.72068477701787" lon="8.667239425509818"><ele>141.0</ele><time>2026-04-05T08:53:24Z</time></trkpt><trkpt lat="44.72032343208891" lon="8.667207883817685"><ele>141.0</ele><time>2026-04-05T08:53:25Z</time></trkpt><trkpt lat="44.71996517805323" lon="8.66717018098053"><ele>141.0</ele><time>2026-04-05T08:53:26Z</time></trkpt><trkpt lat="44.71961657487765" lon="8.667121954771117"><ele>141.5</ele><time>2026-04-05T08:53:27Z</time></trkpt><trkpt lat="44.71927804420969" lon="8.667062714490966"><ele>142.0</ele><time>2026-04-05T08:53:28Z</time></trkpt><trkpt lat="44.71894156591851" lon="8.667012131338618"><ele>142.0</ele><time>2026-04-05T08:53:29Z</time></trkpt><trkpt lat="44.71860305272811" lon="8.666955075889156"><ele>142.0</ele><time>2026-04-05T08:53:30Z</time></trkpt><trkpt lat="44.71825538912906" lon="8.666900780445843"><ele>142.0</ele><time>2026-04-05T08:53:31Z</time></trkpt><trkpt lat="44.717908674150245" lon="8.666849949315498"><ele>142.0</ele><time>2026-04-05T08:53:32Z</time></trkpt><trkpt lat="44.71756741920167" lon="8.666811241613951"><ele>142.0</ele><time>2026-04-05T08:53:33Z</time></trkpt><trkpt lat="44.71723978325552" lon="8.666763267143928"><ele>142.0</ele><time>2026-04-05T08:53:34Z</time></trkpt><trkpt lat="44.716909405221514" lon="8.666721722530445"><ele>139.5</ele><time>2026-04-05T08:53:35Z</time></trkpt><trkpt lat="44.716571170293484" lon="8.666682796321497"><ele>137.0</ele><time>2026-04-05T08:53:36Z</time></trkpt><trkpt lat="44.716231611724005" lon="8.666652189829108"><ele>137.5</ele><time>2026-04-05T08:53:37Z</time></trkpt><trkpt lat="44.71590546100794" lon="8.66663171412418"><ele>138.0</ele><time>2026-04-05T08:53:38Z</time></trkpt><trkpt lat="44.71557602516695" lon="8.666616395065848"><ele>139.0</ele><time>2026-04-05T08:53:39Z</time></trkpt><trkpt lat="44.715229023164284" lon="8.666608418116155"><ele>140.0</ele><time>2026-04-05T08:53:40Z</time></trkpt><trkpt lat="44.714879217883116" lon="8.666601566797263"><ele>140.0</ele><time>2026-04-05T08:53:41Z</time></trkpt><trkpt lat="44.7145444876507" lon="8.666593085982104"><ele>140.0</ele><time>2026-04-05T08:53:42Z</time></trkpt><trkpt lat="44.71422181125013" lon="8.666603675960893"><ele>140.5</ele><time>2026-04-05T08:53:43Z</time></trkpt><trkpt lat="44.71390491902417" lon="8.666614847550056"><ele>141.0</ele><time>2026-04-05T08:53:44Z</time></trkpt><trkpt lat="44.71359590957809" lon="8.666628831947301"><ele>140.5</ele><time>2026-04-05T08:53:45Z</time></trkpt><trkpt lat="44.71329520658055" lon="8.666650998246979"><ele>140.0</ele><time>2026-04-05T08:53:46Z</time></trkpt><trkpt lat="44.712994312666744" lon="8.666681583471913"><ele>140.0</ele><time>2026-04-05T08:53:47Z</time></trkpt><trkpt lat="44.712682694325885" lon="8.666714212679446"><ele>140.0</ele><time>2026-04-05T08:53:48Z</time></trkpt><trkpt lat="44.712355637587386" lon="8.666751078344188"><ele>140.0</ele><time>2026-04-05T08:53:49Z</time></trkpt><trkpt lat="44.71203105353017" lon="8.666795429748397"><ele>140.0</ele><time>2026-04-05T08:53:50Z</time></trkpt><trkpt lat="44.71171446184375" lon="8.666846195243021"><ele>141.0</ele><time>2026-04-05T08:53:51Z</time></trkpt><trkpt lat="44.711403205613" lon="8.666891839905873"><ele>142.0</ele><time>2026-04-05T08:53:52Z</time></trkpt><trkpt lat="44.71109356963174" lon="8.666933488169729"><ele>141.5</ele><time>2026-04-05T08:53:53Z</time></trkpt><trkpt lat="44.7107817984169" lon="8.666978696288147"><ele>141.0</ele><time>2026-04-05T08:53:54Z</time></trkpt><trkpt lat="44.71047998131674" lon="8.667019312076247"><ele>140.5</ele><time>2026-04-05T08:53:55Z</time></trkpt><trkpt lat="44.71017529744534" lon="8.667067233921497"><ele>140.0</ele><time>2026-04-05T08:53:56Z</time></trkpt><trkpt lat="44.709869330867804" lon="8.667116379613702"><ele>140.0</ele><time>2026-04-05T08:53:57Z</time></trkpt><trkpt lat="44.709569679098784" lon="8.667160623538972"><ele>140.0</ele><time>2026-04-05T08:53:58Z</time></trkpt><trkpt lat="44.709273037331215" lon="8.667205764618647"><ele>141.0</ele><time>2026-04-05T08:53:59Z</time></trkpt><trkpt lat="44.70897582773703" lon="8.667253952188776"><ele>142.0</ele><time>2026-04-05T08:54:00Z</time></trkpt><trkpt lat="44.70867803646107" lon="8.667295753290187"><ele>142.0</ele><time>2026-04-05T08:54:01Z</time></trkpt><trkpt lat="44.70837860996815" lon="8.667338061596583"><ele>142.0</ele><time>2026-04-05T08:54:02Z</time></trkpt><trkpt lat="44.708080515745095" lon="8.6673832096814"><ele>142.0</ele><time>2026-04-05T08:54:03Z</time></trkpt><trkpt lat="44.70778748548843" lon="8.667418105989707"><ele>142.0</ele><time>2026-04-05T08:54:04Z</time></trkpt><trkpt lat="44.707493205948246" lon="8.667451003709006"><ele>142.0</ele><time>2026-04-05T08:54:05Z</time></trkpt><trkpt lat="44.70719877400747" lon="8.667476298249863"><ele>142.0</ele><time>2026-04-05T08:54:06Z</time></trkpt><trkpt lat="44.70690585026458" lon="8.667497106429757"><ele>142.0</ele><time>2026-04-05T08:54:07Z</time></trkpt><trkpt lat="44.70661554327093" lon="8.667506767103623"><ele>142.0</ele><time>2026-04-05T08:54:08Z</time></trkpt><trkpt lat="44.70632409343411" lon="8.667520185773052"><ele>142.5</ele><time>2026-04-05T08:54:09Z</time></trkpt><trkpt lat="44.70601660826847" lon="8.667534127575813"><ele>143.0</ele><time>2026-04-05T08:54:10Z</time></trkpt><trkpt lat="44.705701132812486" lon="8.667552664249905"><ele>143.0</ele><time>2026-04-05T08:54:11Z</time></trkpt><trkpt lat="44.70538767945591" lon="8.667558124452933"><ele>143.0</ele><time>2026-04-05T08:54:12Z</time></trkpt><trkpt lat="44.7050404333529" lon="8.66754929063807"><ele>142.5</ele><time>2026-04-05T08:54:13Z</time></trkpt><trkpt lat="44.70469047527239" lon="8.667539066108807"><ele>142.0</ele><time>2026-04-05T08:54:14Z</time></trkpt><trkpt lat="44.704357256736365" lon="8.667520714386876"><ele>142.0</ele><time>2026-04-05T08:54:15Z</time></trkpt><trkpt lat="44.70403182736371" lon="8.667497491144541"><ele>142.0</ele><time>2026-04-05T08:54:16Z</time></trkpt><trkpt lat="44.70371052948454" lon="8.667468684836168"><ele>141.5</ele><time>2026-04-05T08:54:17Z</time></trkpt><trkpt lat="44.703384264035215" lon="8.667428282522854"><ele>141.0</ele><time>2026-04-05T08:54:18Z</time></trkpt><trkpt lat="44.703065615196365" lon="8.667378759853237"><ele>141.0</ele><time>2026-04-05T08:54:19Z</time></trkpt><trkpt lat="44.70275254428909" lon="8.66733440869586"><ele>141.0</ele><time>2026-04-05T08:54:20Z</time></trkpt><trkpt lat="44.70244155215191" lon="8.667287338149693"><ele>141.5</ele><time>2026-04-05T08:54:21Z</time></trkpt><trkpt lat="44.70213953042103" lon="8.667240261381743"><ele>142.0</ele><time>2026-04-05T08:54:22Z</time></trkpt><trkpt lat="44.701846528777494" lon="8.667189955443044"><ele>142.0</ele><time>2026-04-05T08:54:23Z</time></trkpt><trkpt lat="44.70155221341897" lon="8.66713827108707"><ele>142.0</ele><time>2026-04-05T08:54:24Z</time></trkpt><trkpt lat="44.70125707030428" lon="8.667083934527358"><ele>144.5</ele><time>2026-04-05T08:54:24.999Z</time></trkpt><trkpt lat="44.70095660993367" lon="8.66703621943946"><ele>147.0</ele><time>2026-04-05T08:54:25.999Z</time></trkpt><trkpt lat="44.70066378711023" lon="8.666979981479727"><ele>147.5</ele><time>2026-04-05T08:54:26.999Z</time></trkpt><trkpt lat="44.70036998858584" lon="8.666925172748366"><ele>148.0</ele><time>2026-04-05T08:54:27.999Z</time></trkpt><trkpt lat="44.70007041925588" lon="8.666875662359569"><ele>148.0</ele><time>2026-04-05T08:54:28.999Z</time></trkpt><trkpt lat="44.69977194413772" lon="8.666824033623104"><ele>148.0</ele><time>2026-04-05T08:54:29.999Z</time></trkpt><trkpt lat="44.69947420475429" lon="8.666770252539669"><ele>147.5</ele><time>2026-04-05T08:54:30.999Z</time></trkpt><trkpt lat="44.69918052958007" lon="8.666718705066591"><ele>147.0</ele><time>2026-04-05T08:54:31.999Z</time></trkpt><trkpt lat="44.69888744858823" lon="8.66666883800298"><ele>147.0</ele><time>2026-04-05T08:54:32.999Z</time></trkpt><trkpt lat="44.69859083352904" lon="8.666614474102408"><ele>147.0</ele><time>2026-04-05T08:54:33.999Z</time></trkpt><trkpt lat="44.69829842482127" lon="8.666557091189524"><ele>146.0</ele><time>2026-04-05T08:54:34.999Z</time></trkpt><trkpt lat="44.69799793732879" lon="8.666506480131218"><ele>145.0</ele><time>2026-04-05T08:54:35.999Z</time></trkpt><trkpt lat="44.69769711082533" lon="8.666455361409067"><ele>145.0</ele><time>2026-04-05T08:54:36.999Z</time></trkpt><trkpt lat="44.69739146121879" lon="8.666408781032024"><ele>145.0</ele><time>2026-04-05T08:54:37.999Z</time></trkpt><trkpt lat="44.69708793594867" lon="8.666354033046883"><ele>145.0</ele><time>2026-04-05T08:54:38.999Z</time></trkpt><trkpt lat="44.69677832415758" lon="8.666308102446083"><ele>145.0</ele><time>2026-04-05T08:54:39.999Z</time></trkpt><trkpt lat="44.69646771059859" lon="8.666258113293003"><ele>145.0</ele><time>2026-04-05T08:54:40.999Z</time></trkpt><trkpt lat="44.69615987552831" lon="8.666206474201173"><ele>145.0</ele><time>2026-04-05T08:54:41.999Z</time></trkpt><trkpt lat="44.695860254135034" lon="8.666152589710046"><ele>146.5</ele><time>2026-04-05T08:54:42.999Z</time></trkpt><trkpt lat="44.69554985851852" lon="8.666097660772815"><ele>148.0</ele><time>2026-04-05T08:54:43.999Z</time></trkpt><trkpt lat="44.695227571543434" lon="8.666039654228175"><ele>149.0</ele><time>2026-04-05T08:54:44.999Z</time></trkpt><trkpt lat="44.69490340716236" lon="8.665986341661547"><ele>150.0</ele><time>2026-04-05T08:54:45.999Z</time></trkpt><trkpt lat="44.69458708543403" lon="8.665930060109295"><ele>150.0</ele><time>2026-04-05T08:54:46.999Z</time></trkpt><trkpt lat="44.6942699882005" lon="8.665874693460628"><ele>150.0</ele><time>2026-04-05T08:54:47.999Z</time></trkpt><trkpt lat="44.69396024523678" lon="8.665818740830703"><ele>150.0</ele><time>2026-04-05T08:54:48.999Z</time></trkpt><trkpt lat="44.69364923550503" lon="8.66576495237342"><ele>150.0</ele><time>2026-04-05T08:54:49.999Z</time></trkpt><trkpt lat="44.69334199289148" lon="8.665718167195346"><ele>150.0</ele><time>2026-04-05T08:54:50.999Z</time></trkpt><trkpt lat="44.693039702358526" lon="8.665665266442224"><ele>150.0</ele><time>2026-04-05T08:54:51.999Z</time></trkpt><trkpt lat="44.69273943253022" lon="8.665616258118082"><ele>150.0</ele><time>2026-04-05T08:54:52.999Z</time></trkpt><trkpt lat="44.69243717825472" lon="8.665569943547945"><ele>150.0</ele><time>2026-04-05T08:54:53.999Z</time></trkpt><trkpt lat="44.69213740092022" lon="8.665529338270083"><ele>152.0</ele><time>2026-04-05T08:54:54.999Z</time></trkpt><trkpt lat="44.69184310013553" lon="8.665478960689423"><ele>154.0</ele><time>2026-04-05T08:54:55.999Z</time></trkpt><trkpt lat="44.691553406887074" lon="8.66542570960242"><ele>154.0</ele><time>2026-04-05T08:54:56.999Z</time></trkpt><trkpt lat="44.691257860441105" lon="8.665366993516619"><ele>154.0</ele><time>2026-04-05T08:54:57.999Z</time></trkpt><trkpt lat="44.69096175127909" lon="8.665300519237839"><ele>156.5</ele><time>2026-04-05T08:54:58.999Z</time></trkpt><trkpt lat="44.690661026996345" lon="8.665220925929189"><ele>159.0</ele><time>2026-04-05T08:54:59.999Z</time></trkpt><trkpt lat="44.69035524978905" lon="8.66512326447138"><ele>158.5</ele><time>2026-04-05T08:55:00.999Z</time></trkpt><trkpt lat="44.69002724743188" lon="8.665008788391145"><ele>158.0</ele><time>2026-04-05T08:55:01.999Z</time></trkpt><trkpt lat="44.68970055979351" lon="8.664882329516002"><ele>158.0</ele><time>2026-04-05T08:55:02.999Z</time></trkpt><trkpt lat="44.68937566874295" lon="8.664736957688875"><ele>158.0</ele><time>2026-04-05T08:55:03.999Z</time></trkpt><trkpt lat="44.68906071001857" lon="8.664590333189327"><ele>159.5</ele><time>2026-04-05T08:55:04.999Z</time></trkpt><trkpt lat="44.68875781226073" lon="8.664441596429066"><ele>161.0</ele><time>2026-04-05T08:55:05.999Z</time></trkpt><trkpt lat="44.6884593945497" lon="8.664287477205972"><ele>161.0</ele><time>2026-04-05T08:55:06.999Z</time></trkpt><trkpt lat="44.68817107196072" lon="8.664121456075506"><ele>161.0</ele><time>2026-04-05T08:55:07.999Z</time></trkpt><trkpt lat="44.6878818529572" lon="8.66395887414617"><ele>159.0</ele><time>2026-04-05T08:55:08.999Z</time></trkpt><trkpt lat="44.68759560971159" lon="8.66379851454633"><ele>157.0</ele><time>2026-04-05T08:55:09.999Z</time></trkpt><trkpt lat="44.687312068053835" lon="8.663642086533958"><ele>157.0</ele><time>2026-04-05T08:55:10.999Z</time></trkpt><trkpt lat="44.68703243298805" lon="8.663489523309426"><ele>157.0</ele><time>2026-04-05T08:55:11.999Z</time></trkpt><trkpt lat="44.6867522318578" lon="8.663336537670274"><ele>157.0</ele><time>2026-04-05T08:55:12.999Z</time></trkpt><trkpt lat="44.686469574359116" lon="8.663180849690855"><ele>157.0</ele><time>2026-04-05T08:55:13.999Z</time></trkpt><trkpt lat="44.686176317993926" lon="8.663012183459331"><ele>156.5</ele><time>2026-04-05T08:55:14.999Z</time></trkpt><trkpt lat="44.68587277538757" lon="8.662836757751052"><ele>156.0</ele><time>2026-04-05T08:55:15.999Z</time></trkpt><trkpt lat="44.68555579643241" lon="8.662658993821259"><ele>155.5</ele><time>2026-04-05T08:55:16.999Z</time></trkpt><trkpt lat="44.68522400565365" lon="8.662473917195628"><ele>155.0</ele><time>2026-04-05T08:55:17.999Z</time></trkpt><trkpt lat="44.68488513554134" lon="8.662293034569073"><ele>155.0</ele><time>2026-04-05T08:55:18.999Z</time></trkpt><trkpt lat="44.684553289474955" lon="8.662113837824629"><ele>155.0</ele><time>2026-04-05T08:55:19.999Z</time></trkpt><trkpt lat="44.68422565075422" lon="8.661935438892353"><ele>156.0</ele><time>2026-04-05T08:55:20.999Z</time></trkpt><trkpt lat="44.68390574625393" lon="8.661757488930272"><ele>157.0</ele><time>2026-04-05T08:55:21.999Z</time></trkpt><trkpt lat="44.68356544990076" lon="8.661565468667028"><ele>157.0</ele><time>2026-04-05T08:55:23Z</time></trkpt><trkpt lat="44.68321812124377" lon="8.661364717421428"><ele>157.0</ele><time>2026-04-05T08:55:24Z</time></trkpt><trkpt lat="44.68290243691052" lon="8.661176511474661"><ele>158.0</ele><time>2026-04-05T08:55:25Z</time></trkpt><trkpt lat="44.68260587315976" lon="8.661005624648157"><ele>159.0</ele><time>2026-04-05T08:55:26Z</time></trkpt><trkpt lat="44.68230909743856" lon="8.66083261986356"><ele>159.0</ele><time>2026-04-05T08:55:27Z</time></trkpt><trkpt lat="44.68202142128824" lon="8.660667682994024"><ele>159.0</ele><time>2026-04-05T08:55:28Z</time></trkpt><trkpt lat="44.68173423079655" lon="8.660520720270434"><ele>160.0</ele><time>2026-04-05T08:55:29Z</time></trkpt><trkpt lat="44.681463856390195" lon="8.660365851524823"><ele>161.0</ele><time>2026-04-05T08:55:30Z</time></trkpt><trkpt lat="44.681195982811175" lon="8.660216719497212"><ele>158.5</ele><time>2026-04-05T08:55:31Z</time></trkpt><trkpt lat="44.68093919359947" lon="8.660070262951312"><ele>156.0</ele><time>2026-04-05T08:55:32Z</time></trkpt><trkpt lat="44.68066808672209" lon="8.659906374552211"><ele>156.0</ele><time>2026-04-05T08:55:33Z</time></trkpt><trkpt lat="44.68040930529141" lon="8.659746003790898"><ele>156.0</ele><time>2026-04-05T08:55:34Z</time></trkpt><trkpt lat="44.680140922312575" lon="8.659595550184624"><ele>159.0</ele><time>2026-04-05T08:55:35Z</time></trkpt><trkpt lat="44.67986005162203" lon="8.659446229457307"><ele>162.0</ele><time>2026-04-05T08:55:36Z</time></trkpt><trkpt lat="44.67956768385323" lon="8.659281144156747"><ele>159.5</ele><time>2026-04-05T08:55:37Z</time></trkpt><trkpt lat="44.67927756308287" lon="8.659120982828695"><ele>157.0</ele><time>2026-04-05T08:55:38Z</time></trkpt><trkpt lat="44.67899736775208" lon="8.658955241043625"><ele>157.0</ele><time>2026-04-05T08:55:39Z</time></trkpt><trkpt lat="44.678722689456855" lon="8.658805321907384"><ele>157.0</ele><time>2026-04-05T08:55:40Z</time></trkpt><trkpt lat="44.67846864544904" lon="8.658658763683185"><ele>158.0</ele><time>2026-04-05T08:55:41Z</time></trkpt><trkpt lat="44.67820602345108" lon="8.658523998198811"><ele>159.0</ele><time>2026-04-05T08:55:42Z</time></trkpt><trkpt lat="44.677933799281" lon="8.658425899838734"><ele>158.0</ele><time>2026-04-05T08:55:43Z</time></trkpt><trkpt lat="44.677664667774614" lon="8.65834458608297"><ele>157.0</ele><time>2026-04-05T08:55:44Z</time></trkpt><trkpt lat="44.677392898802815" lon="8.658265028280361"><ele>157.0</ele><time>2026-04-05T08:55:45Z</time></trkpt><trkpt lat="44.67711324420011" lon="8.658197617719564"><ele>157.0</ele><time>2026-04-05T08:55:46Z</time></trkpt><trkpt lat="44.67682351002984" lon="8.65815343867471"><ele>158.0</ele><time>2026-04-05T08:55:47Z</time></trkpt><trkpt lat="44.67651218532301" lon="8.658124129478367"><ele>159.0</ele><time>2026-04-05T08:55:48Z</time></trkpt><trkpt lat="44.676195470931454" lon="8.658109565111904"><ele>157.5</ele><time>2026-04-05T08:55:49Z</time></trkpt><trkpt lat="44.675880873499366" lon="8.65811797370261"><ele>156.0</ele><time>2026-04-05T08:55:50Z</time></trkpt><trkpt lat="44.675568894325295" lon="8.658145852922685"><ele>155.0</ele><time>2026-04-05T08:55:51Z</time></trkpt><trkpt lat="44.67526139287003" lon="8.658185290882509"><ele>154.0</ele><time>2026-04-05T08:55:52Z</time></trkpt><trkpt lat="44.67495883459613" lon="8.658240762504123"><ele>154.0</ele><time>2026-04-05T08:55:53Z</time></trkpt><trkpt lat="44.67467051746927" lon="8.658304656724386"><ele>154.0</ele><time>2026-04-05T08:55:54Z</time></trkpt><trkpt lat="44.674380079687104" lon="8.658377229769373"><ele>152.0</ele><time>2026-04-05T08:55:55Z</time></trkpt><trkpt lat="44.674094359452944" lon="8.658473968790993"><ele>150.0</ele><time>2026-04-05T08:55:56Z</time></trkpt><trkpt lat="44.67380469183382" lon="8.658580002872748"><ele>152.5</ele><time>2026-04-05T08:55:57Z</time></trkpt><trkpt lat="44.67351122927788" lon="8.658686561175442"><ele>155.0</ele><time>2026-04-05T08:55:58Z</time></trkpt><trkpt lat="44.67322391516509" lon="8.658790014464026"><ele>155.0</ele><time>2026-04-05T08:55:59Z</time></trkpt><trkpt lat="44.67293507631633" lon="8.658896611129629"><ele>155.0</ele><time>2026-04-05T08:56:00Z</time></trkpt><trkpt lat="44.67264808748685" lon="8.65899651564206"><ele>154.5</ele><time>2026-04-05T08:56:01Z</time></trkpt><trkpt lat="44.67235639516641" lon="8.659099980630959"><ele>154.0</ele><time>2026-04-05T08:56:02Z</time></trkpt><trkpt lat="44.67206255897459" lon="8.659199038275789"><ele>154.5</ele><time>2026-04-05T08:56:03Z</time></trkpt><trkpt lat="44.671769057197025" lon="8.659301789345111"><ele>155.0</ele><time>2026-04-05T08:56:04Z</time></trkpt><trkpt lat="44.671481928306655" lon="8.659405735484725"><ele>154.5</ele><time>2026-04-05T08:56:05Z</time></trkpt><trkpt lat="44.67119548234634" lon="8.659506298824382"><ele>154.0</ele><time>2026-04-05T08:56:06Z</time></trkpt><trkpt lat="44.6709118615705" lon="8.65960078570466"><ele>155.5</ele><time>2026-04-05T08:56:07Z</time></trkpt><trkpt lat="44.67063316864604" lon="8.659675457120834"><ele>157.0</ele><time>2026-04-05T08:56:08Z</time></trkpt><trkpt lat="44.67034952668469" lon="8.65974268271149"><ele>159.0</ele><time>2026-04-05T08:56:09Z</time></trkpt><trkpt lat="44.67006095932236" lon="8.65980680056075"><ele>161.0</ele><time>2026-04-05T08:56:10Z</time></trkpt><trkpt lat="44.66976996518902" lon="8.65985485329349"><ele>161.0</ele><time>2026-04-05T08:56:11Z</time></trkpt><trkpt lat="44.669476439433836" lon="8.659895994675594"><ele>161.0</ele><time>2026-04-05T08:56:12Z</time></trkpt><trkpt lat="44.669179802152286" lon="8.659916060265662"><ele>163.5</ele><time>2026-04-05T08:56:13Z</time></trkpt><trkpt lat="44.66887920530729" lon="8.659935799538896"><ele>166.0</ele><time>2026-04-05T08:56:14Z</time></trkpt><trkpt lat="44.66857209310016" lon="8.659942344248615"><ele>167.0</ele><time>2026-04-05T08:56:15Z</time></trkpt><trkpt lat="44.66826157614955" lon="8.659937669892663"><ele>168.0</ele><time>2026-04-05T08:56:16Z</time></trkpt><trkpt lat="44.66796167459412" lon="8.659917701097214"><ele>167.5</ele><time>2026-04-05T08:56:17Z</time></trkpt><trkpt lat="44.66766727755247" lon="8.659895964687937"><ele>167.0</ele><time>2026-04-05T08:56:18Z</time></trkpt><trkpt lat="44.667357250094575" lon="8.659851388262158"><ele>167.0</ele><time>2026-04-05T08:56:19Z</time></trkpt><trkpt lat="44.66701319170307" lon="8.6597910530852"><ele>167.0</ele><time>2026-04-05T08:56:20Z</time></trkpt><trkpt lat="44.666633104535876" lon="8.659723154244709"><ele>167.5</ele><time>2026-04-05T08:56:21Z</time></trkpt><trkpt lat="44.666267845579796" lon="8.659647304035735"><ele>168.0</ele><time>2026-04-05T08:56:22Z</time></trkpt><trkpt lat="44.66589652255159" lon="8.6595667831798"><ele>169.0</ele><time>2026-04-05T08:56:23Z</time></trkpt><trkpt lat="44.66553839524423" lon="8.659486583430338"><ele>170.0</ele><time>2026-04-05T08:56:24Z</time></trkpt><trkpt lat="44.66521100032355" lon="8.659410743889977"><ele>171.0</ele><time>2026-04-05T08:56:25Z</time></trkpt><trkpt lat="44.66488817844588" lon="8.659330625333105"><ele>172.0</ele><time>2026-04-05T08:56:26Z</time></trkpt><trkpt lat="44.66456803972665" lon="8.65926384488572"><ele>172.5</ele><time>2026-04-05T08:56:27Z</time></trkpt><trkpt lat="44.6642448937576" lon="8.659194380310929"><ele>173.0</ele><time>2026-04-05T08:56:28Z</time></trkpt><trkpt lat="44.66392776106434" lon="8.659130471456383"><ele>172.5</ele><time>2026-04-05T08:56:29Z</time></trkpt><trkpt lat="44.66360533926534" lon="8.659063599579401"><ele>172.0</ele><time>2026-04-05T08:56:30Z</time></trkpt><trkpt lat="44.66331196061836" lon="8.65900785744686"><ele>172.0</ele><time>2026-04-05T08:56:31Z</time></trkpt><trkpt lat="44.663008686912335" lon="8.658953569249809"><ele>172.0</ele><time>2026-04-05T08:56:32Z</time></trkpt><trkpt lat="44.662694959407816" lon="8.658903219126024"><ele>173.0</ele><time>2026-04-05T08:56:32.999Z</time></trkpt><trkpt lat="44.6623817516267" lon="8.65886585813467"><ele>174.0</ele><time>2026-04-05T08:56:33.999Z</time></trkpt><trkpt lat="44.66207099141419" lon="8.65883700830073"><ele>174.5</ele><time>2026-04-05T08:56:34.999Z</time></trkpt><trkpt lat="44.66175522492067" lon="8.65881678492295"><ele>175.0</ele><time>2026-04-05T08:56:35.999Z</time></trkpt><trkpt lat="44.66144093888788" lon="8.65881173455127"><ele>175.0</ele><time>2026-04-05T08:56:36.999Z</time></trkpt><trkpt lat="44.661131786389625" lon="8.658817743340059"><ele>175.0</ele><time>2026-04-05T08:56:37.999Z</time></trkpt><trkpt lat="44.660824293468146" lon="8.65882865367468"><ele>175.5</ele><time>2026-04-05T08:56:38.999Z</time></trkpt><trkpt lat="44.660525796210706" lon="8.658848433303973"><ele>176.0</ele><time>2026-04-05T08:56:39.999Z</time></trkpt><trkpt lat="44.66023353489587" lon="8.65887827511577"><ele>176.0</ele><time>2026-04-05T08:56:40.999Z</time></trkpt><trkpt lat="44.6599373906593" lon="8.658914698555042"><ele>176.0</ele><time>2026-04-05T08:56:41.999Z</time></trkpt><trkpt lat="44.65963948210945" lon="8.658947013327078"><ele>177.0</ele><time>2026-04-05T08:56:42.999Z</time></trkpt><trkpt lat="44.65932831189153" lon="8.658990702454583"><ele>178.0</ele><time>2026-04-05T08:56:43.999Z</time></trkpt><trkpt lat="44.65900984680239" lon="8.659028632755028"><ele>178.0</ele><time>2026-04-05T08:56:44.999Z</time></trkpt><trkpt lat="44.65870126783719" lon="8.659066722018437"><ele>178.0</ele><time>2026-04-05T08:56:45.999Z</time></trkpt><trkpt lat="44.658389442464106" lon="8.659106342509725"><ele>178.0</ele><time>2026-04-05T08:56:46.999Z</time></trkpt><trkpt lat="44.65807746384142" lon="8.659147727887559"><ele>178.0</ele><time>2026-04-05T08:56:47.999Z</time></trkpt><trkpt lat="44.65776167253626" lon="8.659194278076441"><ele>181.5</ele><time>2026-04-05T08:56:48.999Z</time></trkpt><trkpt lat="44.65744833714822" lon="8.65924553597385"><ele>185.0</ele><time>2026-04-05T08:56:49.999Z</time></trkpt><trkpt lat="44.65713906174205" lon="8.659284028677178"><ele>187.0</ele><time>2026-04-05T08:56:50.999Z</time></trkpt><trkpt lat="44.6568551098238" lon="8.659321375587995"><ele>189.0</ele><time>2026-04-05T08:56:51.999Z</time></trkpt><trkpt lat="44.656586637084025" lon="8.659353144039606"><ele>189.0</ele><time>2026-04-05T08:56:52.999Z</time></trkpt><trkpt lat="44.65630636628127" lon="8.659380816656425"><ele>189.0</ele><time>2026-04-05T08:56:53.999Z</time></trkpt><trkpt lat="44.65602082388676" lon="8.65940870304212"><ele>188.0</ele><time>2026-04-05T08:56:54.999Z</time></trkpt><trkpt lat="44.65573801080495" lon="8.659426937021838"><ele>187.0</ele><time>2026-04-05T08:56:55.999Z</time></trkpt><trkpt lat="44.655457126400904" lon="8.659457309382866"><ele>190.5</ele><time>2026-04-05T08:56:56.999Z</time></trkpt><trkpt lat="44.65518207694074" lon="8.659483141363676"><ele>194.0</ele><time>2026-04-05T08:56:57.999Z</time></trkpt><trkpt lat="44.65491582608347" lon="8.659520340896167"><ele>194.0</ele><time>2026-04-05T08:56:58.999Z</time></trkpt><trkpt lat="44.65466100084166" lon="8.65955457877807"><ele>194.0</ele><time>2026-04-05T08:56:59.999Z</time></trkpt><trkpt lat="44.6543929971823" lon="8.65960187674016"><ele>195.5</ele><time>2026-04-05T08:57:00.999Z</time></trkpt><trkpt lat="44.654124617424415" lon="8.659667047429215"><ele>197.0</ele><time>2026-04-05T08:57:01.999Z</time></trkpt><trkpt lat="44.653858745836615" lon="8.65974210544102"><ele>200.0</ele><time>2026-04-05T08:57:02.999Z</time></trkpt><trkpt lat="44.6535964215072" lon="8.659828554891348"><ele>203.0</ele><time>2026-04-05T08:57:03.999Z</time></trkpt><trkpt lat="44.653334279590084" lon="8.659925860124451"><ele>203.0</ele><time>2026-04-05T08:57:04.999Z</time></trkpt><trkpt lat="44.653075231544754" lon="8.660038937924051"><ele>203.0</ele><time>2026-04-05T08:57:05.999Z</time></trkpt><trkpt lat="44.65281873055776" lon="8.660155455987978"><ele>204.5</ele><time>2026-04-05T08:57:06.999Z</time></trkpt><trkpt lat="44.65256572947729" lon="8.66028294617631"><ele>206.0</ele><time>2026-04-05T08:57:07.999Z</time></trkpt><trkpt lat="44.652322492570875" lon="8.660420888937978"><ele>207.0</ele><time>2026-04-05T08:57:08.999Z</time></trkpt><trkpt lat="44.65209180076237" lon="8.66054474522238"><ele>208.0</ele><time>2026-04-05T08:57:09.999Z</time></trkpt><trkpt lat="44.65186493309578" lon="8.660677181022246"><ele>208.0</ele><time>2026-04-05T08:57:10.999Z</time></trkpt><trkpt lat="44.651630577997174" lon="8.660819392722459"><ele>208.0</ele><time>2026-04-05T08:57:11.999Z</time></trkpt><trkpt lat="44.651424037069305" lon="8.660941517275967"><ele>208.0</ele><time>2026-04-05T08:57:12.999Z</time></trkpt><trkpt lat="44.65119829946022" lon="8.661069682221168"><ele>208.0</ele><time>2026-04-05T08:57:13.999Z</time></trkpt><trkpt lat="44.65098110307291" lon="8.661185766123515"><ele>210.0</ele><time>2026-04-05T08:57:14.999Z</time></trkpt><trkpt lat="44.650758033945145" lon="8.66129701655507"><ele>212.0</ele><time>2026-04-05T08:57:15.999Z</time></trkpt><trkpt lat="44.65052948104498" lon="8.661407164088077"><ele>212.0</ele><time>2026-04-05T08:57:16.999Z</time></trkpt><trkpt lat="44.650320961116215" lon="8.661484331612066"><ele>212.0</ele><time>2026-04-05T08:57:17.999Z</time></trkpt><trkpt lat="44.65010719622906" lon="8.66154341304616"><ele>212.0</ele><time>2026-04-05T08:57:18.999Z</time></trkpt><trkpt lat="44.64989084091948" lon="8.66159393623708"><ele>212.66666666666669</ele><time>2026-04-05T08:57:19.999Z</time></trkpt><trkpt lat="44.64967625590716" lon="8.661633750310063"><ele>213.33333333333331</ele><time>2026-04-05T08:57:20.999Z</time></trkpt><trkpt lat="44.649461144140474" lon="8.66166042077537"><ele>214.0</ele><time>2026-04-05T08:57:21.999Z</time></trkpt><trkpt lat="44.64924244558509" lon="8.661674154900231"><ele>214.0</ele><time>2026-04-05T08:57:22.999Z</time></trkpt><trkpt lat="44.64902742715128" lon="8.66167735984176"><ele>214.0</ele><time>2026-04-05T08:57:23.999Z</time></trkpt><trkpt lat="44.648811020433335" lon="8.661675743492923"><ele>214.0</ele><time>2026-04-05T08:57:24.999Z</time></trkpt><trkpt lat="44.64859167409917" lon="8.66165222333617"><ele>217.5</ele><time>2026-04-05T08:57:25.999Z</time></trkpt><trkpt lat="44.64836020461132" lon="8.661615376960192"><ele>221.0</ele><time>2026-04-05T08:57:26.999Z</time></trkpt><trkpt lat="44.64812041810147" lon="8.661555557711523"><ele>221.0</ele><time>2026-04-05T08:57:27.999Z</time></trkpt><trkpt lat="44.64786775798093" lon="8.661490497812023"><ele>221.0</ele><time>2026-04-05T08:57:29Z</time></trkpt><trkpt lat="44.64761434821454" lon="8.66142274552983"><ele>221.5</ele><time>2026-04-05T08:57:30Z</time></trkpt><trkpt lat="44.647368427584595" lon="8.661354721489325"><ele>222.0</ele><time>2026-04-05T08:57:31Z</time></trkpt><trkpt lat="44.64712889213319" lon="8.661285068086185"><ele>222.5</ele><time>2026-04-05T08:57:32Z</time></trkpt><trkpt lat="44.64688911638925" lon="8.661222371011851"><ele>223.0</ele><time>2026-04-05T08:57:33Z</time></trkpt><trkpt lat="44.646657440853275" lon="8.661159355639215"><ele>224.0</ele><time>2026-04-05T08:57:34Z</time></trkpt><trkpt lat="44.646422635468895" lon="8.661097093087958"><ele>225.0</ele><time>2026-04-05T08:57:35Z</time></trkpt><trkpt lat="44.64617938177462" lon="8.661032602973446"><ele>227.5</ele><time>2026-04-05T08:57:36Z</time></trkpt><trkpt lat="44.64593234155951" lon="8.660959892803401"><ele>230.0</ele><time>2026-04-05T08:57:37Z</time></trkpt><trkpt lat="44.64568341345249" lon="8.660887653671207"><ele>230.0</ele><time>2026-04-05T08:57:38Z</time></trkpt><trkpt lat="44.64542667986366" lon="8.66081404873979"><ele>230.0</ele><time>2026-04-05T08:57:39Z</time></trkpt><trkpt lat="44.64516456952904" lon="8.660743338509912"><ele>232.0</ele><time>2026-04-05T08:57:40Z</time></trkpt><trkpt lat="44.6448998485058" lon="8.660671519727796"><ele>234.0</ele><time>2026-04-05T08:57:41Z</time></trkpt><trkpt lat="44.64462470763087" lon="8.660589407557527"><ele>233.0</ele><time>2026-04-05T08:57:42Z</time></trkpt><trkpt lat="44.64435406070436" lon="8.66051178767883"><ele>232.0</ele><time>2026-04-05T08:57:43Z</time></trkpt><trkpt lat="44.644089820141346" lon="8.660442132380474"><ele>232.0</ele><time>2026-04-05T08:57:44Z</time></trkpt><trkpt lat="44.64382345755797" lon="8.66037718429272"><ele>232.0</ele><time>2026-04-05T08:57:45Z</time></trkpt><trkpt lat="44.643551086346115" lon="8.660332739620246"><ele>232.0</ele><time>2026-04-05T08:57:46Z</time></trkpt><trkpt lat="44.64328263286636" lon="8.660307728669284"><ele>232.0</ele><time>2026-04-05T08:57:47Z</time></trkpt><trkpt lat="44.64301371494984" lon="8.660301325097716"><ele>236.0</ele><time>2026-04-05T08:57:48Z</time></trkpt><trkpt lat="44.64274969967808" lon="8.660309591709904"><ele>240.0</ele><time>2026-04-05T08:57:49Z</time></trkpt><trkpt lat="44.64248089723083" lon="8.660339054676367"><ele>240.0</ele><time>2026-04-05T08:57:50Z</time></trkpt><trkpt lat="44.642198022625415" lon="8.660384044810753"><ele>240.0</ele><time>2026-04-05T08:57:51Z</time></trkpt><trkpt lat="44.64191407919124" lon="8.660448060844116"><ele>240.0</ele><time>2026-04-05T08:57:52Z</time></trkpt><trkpt lat="44.641630890303134" lon="8.660528983197317"><ele>240.0</ele><time>2026-04-05T08:57:53Z</time></trkpt><trkpt lat="44.64135363689818" lon="8.6606150726053"><ele>241.5</ele><time>2026-04-05T08:57:54Z</time></trkpt><trkpt lat="44.64109164274855" lon="8.660712492303592"><ele>243.0</ele><time>2026-04-05T08:57:55Z</time></trkpt><trkpt lat="44.64083888323027" lon="8.660804605041314"><ele>243.0</ele><time>2026-04-05T08:57:56Z</time></trkpt><trkpt lat="44.64057371761673" lon="8.66089951925206"><ele>243.0</ele><time>2026-04-05T08:57:57Z</time></trkpt><trkpt lat="44.64029364669478" lon="8.661002088319968"><ele>243.5</ele><time>2026-04-05T08:57:58Z</time></trkpt><trkpt lat="44.64000167540399" lon="8.661112593521604"><ele>244.0</ele><time>2026-04-05T08:57:59Z</time></trkpt><trkpt lat="44.639715391697955" lon="8.66121801287345"><ele>247.5</ele><time>2026-04-05T08:58:00Z</time></trkpt><trkpt lat="44.63943060722176" lon="8.66132550429722"><ele>251.0</ele><time>2026-04-05T08:58:01Z</time></trkpt><trkpt lat="44.63915493296765" lon="8.661437681275467"><ele>251.0</ele><time>2026-04-05T08:58:02Z</time></trkpt><trkpt lat="44.638877550029356" lon="8.661542381628417"><ele>251.0</ele><time>2026-04-05T08:58:03Z</time></trkpt><trkpt lat="44.638583718968974" lon="8.66164888774721"><ele>251.5</ele><time>2026-04-05T08:58:04Z</time></trkpt><trkpt lat="44.63824850002546" lon="8.661773998372261"><ele>252.0</ele><time>2026-04-05T08:58:05.013Z</time></trkpt><trkpt lat="44.63790303206788" lon="8.661900109620465"><ele>251.5</ele><time>2026-04-05T08:58:06.012Z</time></trkpt><trkpt lat="44.637580272974425" lon="8.662013484578997"><ele>251.0</ele><time>2026-04-05T08:58:07.011Z</time></trkpt><trkpt lat="44.63727767089096" lon="8.662120632905788"><ele>251.0</ele><time>2026-04-05T08:58:08.016Z</time></trkpt><trkpt lat="44.63697780785592" lon="8.662225814240175"><ele>251.0</ele><time>2026-04-05T08:58:09.011Z</time></trkpt><trkpt lat="44.6366829358371" lon="8.662330862117967"><ele>250.5</ele><time>2026-04-05T08:58:10.015Z</time></trkpt><trkpt lat="44.63639442222114" lon="8.662431679860513"><ele>250.0</ele><time>2026-04-05T08:58:11.011Z</time></trkpt><trkpt lat="44.634933248203836" lon="8.662831624977908"><ele>242.5</ele><time>2026-04-05T08:58:17Z</time></trkpt><trkpt lat="44.63469524145033" lon="8.66287273721311"><ele>235.0</ele><time>2026-04-05T08:58:18Z</time></trkpt><trkpt lat="44.63443360728574" lon="8.662909548485551"><ele>223.5</ele><time>2026-04-05T08:58:19Z</time></trkpt><trkpt lat="44.63419236255217" lon="8.662898352964863"><ele>212.0</ele><time>2026-04-05T08:58:20Z</time></trkpt><trkpt lat="44.63395058285253" lon="8.662874396341921"><ele>212.0</ele><time>2026-04-05T08:58:21Z</time></trkpt><trkpt lat="44.63371035551596" lon="8.662831664093623"><ele>212.0</ele><time>2026-04-05T08:58:22Z</time></trkpt><trkpt lat="44.633473354219824" lon="8.662772983247132"><ele>209.0</ele><time>2026-04-05T08:58:23Z</time></trkpt><trkpt lat="44.63324645082253" lon="8.66270668670737"><ele>206.0</ele><time>2026-04-05T08:58:24Z</time></trkpt><trkpt lat="44.63301746103746" lon="8.662625877912442"><ele>212.0</ele><time>2026-04-05T08:58:25Z</time></trkpt><trkpt lat="44.63278643562747" lon="8.662531439680771"><ele>218.0</ele><time>2026-04-05T08:58:26Z</time></trkpt><trkpt lat="44.632561553804784" lon="8.66242915553118"><ele>218.0</ele><time>2026-04-05T08:58:27Z</time></trkpt><trkpt lat="44.63234745460669" lon="8.662316295382455"><ele>218.0</ele><time>2026-04-05T08:58:28Z</time></trkpt><trkpt lat="44.63214277259041" lon="8.662192061497567"><ele>219.0</ele><time>2026-04-05T08:58:29Z</time></trkpt><trkpt lat="44.63194214669236" lon="8.662041125679929"><ele>220.0</ele><time>2026-04-05T08:58:30Z</time></trkpt><trkpt lat="44.63173409145658" lon="8.661860043926097"><ele>220.0</ele><time>2026-04-05T08:58:31Z</time></trkpt><trkpt lat="44.631518076872425" lon="8.66165459039433"><ele>220.0</ele><time>2026-04-05T08:58:32Z</time></trkpt><trkpt lat="44.6313332276935" lon="8.661474632003983"><ele>220.0</ele><time>2026-04-05T08:58:33Z</time></trkpt><trkpt lat="44.63115752719226" lon="8.661300290897213"><ele>220.0</ele><time>2026-04-05T08:58:34Z</time></trkpt><trkpt lat="44.63099743421015" lon="8.661138763619558"><ele>220.0</ele><time>2026-04-05T08:58:35Z</time></trkpt><trkpt lat="44.63084354324471" lon="8.66098846801975"><ele>217.66666666666666</ele><time>2026-04-05T08:58:36Z</time></trkpt><trkpt lat="44.630697425934024" lon="8.66086285170825"><ele>215.33333333333331</ele><time>2026-04-05T08:58:37Z</time></trkpt><trkpt lat="44.63055889236937" lon="8.660738295961783"><ele>213.0</ele><time>2026-04-05T08:58:37.999Z</time></trkpt><trkpt lat="44.63044146689594" lon="8.660621652929978"><ele>213.0</ele><time>2026-04-05T08:58:38.999Z</time></trkpt><trkpt lat="44.63033389305277" lon="8.66048716957012"><ele>213.0</ele><time>2026-04-05T08:58:39.999Z</time></trkpt><trkpt lat="44.63023758904396" lon="8.66032248323788"><ele>213.0</ele><time>2026-04-05T08:58:40.999Z</time></trkpt><trkpt lat="44.6301551277833" lon="8.660136484571638"><ele>211.66666666666669</ele><time>2026-04-05T08:58:41.999Z</time></trkpt><trkpt lat="44.6300896158661" lon="8.659938699457337"><ele>210.33333333333334</ele><time>2026-04-05T08:58:42.999Z</time></trkpt><trkpt lat="44.630039414868705" lon="8.659737583931678"><ele>209.0</ele><time>2026-04-05T08:58:43.999Z</time></trkpt><trkpt lat="44.630003800554974" lon="8.659524524246384"><ele>207.66666666666669</ele><time>2026-04-05T08:58:44.999Z</time></trkpt><trkpt lat="44.629977982900336" lon="8.659307686295767"><ele>206.33333333333331</ele><time>2026-04-05T08:58:45.999Z</time></trkpt><trkpt lat="44.62996607101222" lon="8.659092500528455"><ele>205.0</ele><time>2026-04-05T08:58:46.999Z</time></trkpt><trkpt lat="44.62995888228437" lon="8.658875508809425"><ele>205.0</ele><time>2026-04-05T08:58:47.999Z</time></trkpt><trkpt lat="44.62995588425086" lon="8.658658233713556"><ele>205.0</ele><time>2026-04-05T08:58:48.999Z</time></trkpt><trkpt lat="44.62995524977522" lon="8.658445844333169"><ele>205.0</ele><time>2026-04-05T08:58:49.999Z</time></trkpt><trkpt lat="44.629945204086965" lon="8.658229478234066"><ele>204.5</ele><time>2026-04-05T08:58:50.999Z</time></trkpt><trkpt lat="44.629936921353455" lon="8.65802582371672"><ele>204.0</ele><time>2026-04-05T08:58:51.999Z</time></trkpt><trkpt lat="44.629928269811764" lon="8.657829033311971"><ele>203.5</ele><time>2026-04-05T08:58:52.999Z</time></trkpt><trkpt lat="44.629912221151336" lon="8.657647229379403"><ele>203.0</ele><time>2026-04-05T08:58:53.999Z</time></trkpt><trkpt lat="44.629886917442086" lon="8.65747506863794"><ele>202.5</ele><time>2026-04-05T08:58:54.999Z</time></trkpt><trkpt lat="44.62985063718531" lon="8.657316474362775"><ele>202.0</ele><time>2026-04-05T08:58:55.999Z</time></trkpt><trkpt lat="44.62980713779575" lon="8.657171981218742"><ele>201.5</ele><time>2026-04-05T08:58:56.999Z</time></trkpt><trkpt lat="44.62975528282725" lon="8.65703030722205"><ele>201.0</ele><time>2026-04-05T08:58:57.999Z</time></trkpt><trkpt lat="44.62971383359659" lon="8.656874129664505"><ele>200.8</ele><time>2026-04-05T08:58:58.999Z</time></trkpt><trkpt lat="44.62963893813171" lon="8.656750891741243"><ele>200.60000000000002</ele><time>2026-04-05T08:58:59.999Z</time></trkpt><trkpt lat="44.62956794917084" lon="8.6566347749756"><ele>200.4</ele><time>2026-04-05T08:59:00.999Z</time></trkpt><trkpt lat="44.62949759188466" lon="8.656531350116994"><ele>200.2</ele><time>2026-04-05T08:59:01.999Z</time></trkpt><trkpt lat="44.62941978750999" lon="8.656437921788424"><ele>200.0</ele><time>2026-04-05T08:59:02.999Z</time></trkpt><trkpt lat="44.629351346752735" lon="8.656364253840652"><ele>200.00000000000003</ele><time>2026-04-05T08:59:03.999Z</time></trkpt><trkpt lat="44.62929124437536" lon="8.6562989141836"><ele>200.0</ele><time>2026-04-05T08:59:04.999Z</time></trkpt><trkpt lat="44.62920945253624" lon="8.656215735000469"><ele>200.0</ele><time>2026-04-05T08:59:06.999Z</time></trkpt><trkpt lat="44.62915007307921" lon="8.656123886566531"><ele>200.0</ele><time>2026-04-05T08:59:08.999Z</time></trkpt><trkpt lat="44.62909583963409" lon="8.656067304787259"><ele>200.00000000000003</ele><time>2026-04-05T08:59:11.999Z</time></trkpt><trkpt lat="44.62901245520476" lon="8.656035537653892"><ele>200.0</ele><time>2026-04-05T08:59:35Z</time></trkpt><trkpt lat="44.62896147185447" lon="8.655953777268328"><ele>200.0</ele><time>2026-04-05T09:00:05Z</time></trkpt><trkpt lat="44.62879139201372" lon="8.655763558324153"><ele>200.0</ele><time>2026-04-05T09:01:53Z</time></trkpt><trkpt lat="44.628682525042926" lon="8.655668510321078"><ele>200.0</ele><time>2026-04-05T09:03:37.999Z</time></trkpt><trkpt lat="44.628630238220836" lon="8.655605533031489"><ele>200.0</ele><time>2026-04-05T09:03:40.999Z</time></trkpt><trkpt lat="44.6285425771298" lon="8.655486016055253"><ele>200.25</ele><time>2026-04-05T09:04:48Z</time></trkpt><trkpt lat="44.628421941030666" lon="8.655295302461093"><ele>200.5</ele><time>2026-04-05T09:10:45Z</time></trkpt><trkpt lat="44.628321336341166" lon="8.65526256441652"><ele>200.75</ele><time>2026-04-05T09:10:51Z</time></trkpt><trkpt lat="44.62823641904575" lon="8.655180082917681"><ele>201.0</ele><time>2026-04-05T09:10:52Z</time></trkpt><trkpt lat="44.62813892772594" lon="8.655097078261749"><ele>200.8</ele><time>2026-04-05T09:10:53Z</time></trkpt><trkpt lat="44.62805543692868" lon="8.655035836897337"><ele>200.60000000000002</ele><time>2026-04-05T09:10:54Z</time></trkpt><trkpt lat="44.627964532010495" lon="8.65496933850798"><ele>200.4</ele><time>2026-04-05T09:10:55Z</time></trkpt><trkpt lat="44.62787483361687" lon="8.654895081879262"><ele>200.2</ele><time>2026-04-05T09:10:56Z</time></trkpt><trkpt lat="44.62776309579131" lon="8.654816849801959"><ele>200.0</ele><time>2026-04-05T09:10:57Z</time></trkpt><trkpt lat="44.627657947907785" lon="8.654746585640009"><ele>200.0</ele><time>2026-04-05T09:10:58Z</time></trkpt><trkpt lat="44.62758396804372" lon="8.654687568900568"><ele>200.0</ele><time>2026-04-05T09:10:59Z</time></trkpt><trkpt lat="44.62752255923121" lon="8.6546334252335"><ele>200.0</ele><time>2026-04-05T09:11:00Z</time></trkpt><trkpt lat="44.62746858431225" lon="8.65458661552542"><ele>200.0</ele><time>2026-04-05T09:11:01Z</time></trkpt><trkpt lat="44.62742103002086" lon="8.654489782050044"><ele>200.0</ele><time>2026-04-05T09:11:03Z</time></trkpt><trkpt lat="44.627223327082916" lon="8.654377023604514"><ele>200.0</ele><time>2026-04-05T09:13:33.999Z</time></trkpt><trkpt lat="44.62714687074339" lon="8.654292302710852"><ele>200.0</ele><time>2026-04-05T09:13:34.999Z</time></trkpt><trkpt lat="44.627043206201996" lon="8.654236306978243"><ele>200.0</ele><time>2026-04-05T09:13:35.999Z</time></trkpt><trkpt lat="44.626932380646295" lon="8.654125046676297"><ele>200.0</ele><time>2026-04-05T09:13:36.999Z</time></trkpt><trkpt lat="44.62680580274122" lon="8.65404066430637"><ele>200.0</ele><time>2026-04-05T09:13:37.999Z</time></trkpt><trkpt lat="44.62668870980216" lon="8.653987956637787"><ele>200.0</ele><time>2026-04-05T09:13:38.999Z</time></trkpt><trkpt lat="44.62659367626643" lon="8.653939851141814"><ele>200.0</ele><time>2026-04-05T09:13:39.999Z</time></trkpt><trkpt lat="44.62650093434795" lon="8.653899534441662"><ele>200.0</ele><time>2026-04-05T09:13:40.999Z</time></trkpt><trkpt lat="44.6264095429264" lon="8.653873750478622"><ele>200.0</ele><time>2026-04-05T09:13:41.999Z</time></trkpt><trkpt lat="44.62633695483488" lon="8.65386146239813"><ele>200.0</ele><time>2026-04-05T09:13:42.999Z</time></trkpt><trkpt lat="44.62626601226453" lon="8.65385299366884"><ele>200.0</ele><time>2026-04-05T09:13:43.999Z</time></trkpt><trkpt lat="44.6261810122708" lon="8.653806999671962"><ele>200.0</ele><time>2026-04-05T09:13:45.999Z</time></trkpt><trkpt lat="44.62618493840331" lon="8.653684539862558"><ele>200.0</ele><time>2026-04-05T09:13:47.999Z</time></trkpt><trkpt lat="44.62627564306183" lon="8.653636334795596"><ele>200.0</ele><time>2026-04-05T09:13:49.999Z</time></trkpt><trkpt lat="44.62644847384916" lon="8.653691151919833"><ele>200.0</ele><time>2026-04-05T09:13:51.999Z</time></trkpt><trkpt lat="44.626563557277805" lon="8.65373466361805"><ele>200.0</ele><time>2026-04-05T09:13:52.999Z</time></trkpt><trkpt lat="44.62669679744314" lon="8.653746722728243"><ele>200.0</ele><time>2026-04-05T09:13:53.999Z</time></trkpt><trkpt lat="44.62679868578021" lon="8.653759215403712"><ele>200.0</ele><time>2026-04-05T09:13:54.999Z</time></trkpt><trkpt lat="44.62689459995107" lon="8.653839577996749"><ele>200.0</ele><time>2026-04-05T09:13:55.999Z</time></trkpt><trkpt lat="44.62697408849401" lon="8.653893708871214"><ele>200.0</ele><time>2026-04-05T09:13:56.999Z</time></trkpt><trkpt lat="44.62704160371343" lon="8.653931330729261"><ele>200.0</ele><time>2026-04-05T09:13:57.999Z</time></trkpt><trkpt lat="44.62717149160038" lon="8.653892186360302"><ele>200.0</ele><time>2026-04-05T09:13:59.999Z</time></trkpt><trkpt lat="44.62724458146075" lon="8.653772680118164"><ele>200.0</ele><time>2026-04-05T09:14:00.999Z</time></trkpt><trkpt lat="44.62732862066064" lon="8.653653841044228"><ele>199.5</ele><time>2026-04-05T09:14:01.999Z</time></trkpt><trkpt lat="44.62742710563611" lon="8.653524889365027"><ele>199.0</ele><time>2026-04-05T09:14:02.999Z</time></trkpt><trkpt lat="44.627527492160354" lon="8.653374806711723"><ele>198.5</ele><time>2026-04-05T09:14:03.999Z</time></trkpt><trkpt lat="44.6276197100567" lon="8.653247900688056"><ele>198.0</ele><time>2026-04-05T09:14:04.999Z</time></trkpt><trkpt lat="44.62769912482089" lon="8.653142516032489"><ele>198.0</ele><time>2026-04-05T09:14:05.999Z</time></trkpt><trkpt lat="44.627756855150444" lon="8.653072902915552"><ele>198.0</ele><time>2026-04-05T09:14:06.999Z</time></trkpt><trkpt lat="44.62780942872492" lon="8.653014762377131"><ele>198.0</ele><time>2026-04-05T09:14:07.999Z</time></trkpt><trkpt lat="44.627886308021594" lon="8.652963309933108"><ele>198.0</ele><time>2026-04-05T09:14:09.999Z</time></trkpt><trkpt lat="44.627951742025964" lon="8.652872075756358"><ele>198.0</ele><time>2026-04-05T09:14:11.999Z</time></trkpt><trkpt lat="44.62767630900182" lon="8.652729036468099"><ele>197.0</ele><time>2026-04-05T09:14:12.999Z</time></trkpt><trkpt lat="44.6276759180278" lon="8.652607997577308"><ele>196.0</ele><time>2026-04-05T09:14:13.999Z</time></trkpt><trkpt lat="44.62790491916673" lon="8.652464652946836"><ele>195.0</ele><time>2026-04-05T09:14:15.999Z</time></trkpt><trkpt lat="44.628135932446014" lon="8.65250335648366"><ele>195.0</ele><time>2026-04-05T09:18:39Z</time></trkpt><trkpt lat="44.628142887529584" lon="8.652620416113079"><ele>195.0</ele><time>2026-04-05T09:18:41Z</time></trkpt><trkpt lat="44.62809311690393" lon="8.652704390508974"><ele>195.0</ele><time>2026-04-05T09:18:43Z</time></trkpt><trkpt lat="44.62796799588725" lon="8.652805768555515"><ele>195.0</ele><time>2026-04-05T09:18:45Z</time></trkpt><trkpt lat="44.6278826887458" lon="8.652887807143655"><ele>195.0</ele><time>2026-04-05T09:18:46Z</time></trkpt><trkpt lat="44.6277944672776" lon="8.65299348597204"><ele>195.6</ele><time>2026-04-05T09:18:47Z</time></trkpt><trkpt lat="44.62769395964203" lon="8.653116551152959"><ele>196.2</ele><time>2026-04-05T09:18:48Z</time></trkpt><trkpt lat="44.62759558794693" lon="8.653240584377679"><ele>196.8</ele><time>2026-04-05T09:18:49Z</time></trkpt><trkpt lat="44.62752933022278" lon="8.653321526700468"><ele>197.4</ele><time>2026-04-05T09:18:50Z</time></trkpt><trkpt lat="44.62748179111891" lon="8.653401317368317"><ele>198.0</ele><time>2026-04-05T09:18:51Z</time></trkpt><trkpt lat="44.62740273785684" lon="8.653486655545576"><ele>198.0</ele><time>2026-04-05T09:18:53Z</time></trkpt><trkpt lat="44.627340335214505" lon="8.65351148130208"><ele>198.0</ele><time>2026-04-05T09:18:54Z</time></trkpt><trkpt lat="44.62727837810466" lon="8.65355461476304"><ele>198.0</ele><time>2026-04-05T09:18:55Z</time></trkpt><trkpt lat="44.62720415474939" lon="8.653488561641447"><ele>198.0</ele><time>2026-04-05T09:18:56Z</time></trkpt><trkpt lat="44.62713736669563" lon="8.65344763464677"><ele>198.0</ele><time>2026-04-05T09:18:57Z</time></trkpt><trkpt lat="44.627077296921335" lon="8.653420784740254"><ele>198.0</ele><time>2026-04-05T09:18:58Z</time></trkpt><trkpt lat="44.626975958540676" lon="8.653456898107802"><ele>197.66666666666666</ele><time>2026-04-05T09:19:00Z</time></trkpt><trkpt lat="44.626947745380555" lon="8.653372283165321"><ele>197.33333333333331</ele><time>2026-04-05T09:19:01Z</time></trkpt><trkpt lat="44.62689020188737" lon="8.653307001792449"><ele>197.0</ele><time>2026-04-05T09:19:03Z</time></trkpt><trkpt lat="44.626856817930474" lon="8.653225552208129"><ele>196.66666666666666</ele><time>2026-04-05T09:19:05Z</time></trkpt><trkpt lat="44.62681280062603" lon="8.653138181248526"><ele>196.33333333333331</ele><time>2026-04-05T09:19:07Z</time></trkpt><trkpt lat="44.62675724817953" lon="8.653068432285032"><ele>196.0</ele><time>2026-04-05T09:19:13Z</time></trkpt><trkpt lat="44.62670578927976" lon="8.652947458261913"><ele>196.0</ele><time>2026-04-05T09:19:15Z</time></trkpt><trkpt lat="44.62666234736663" lon="8.652861257520028"><ele>196.0</ele><time>2026-04-05T09:19:16Z</time></trkpt><trkpt lat="44.62660679955564" lon="8.652738951257106"><ele>196.0</ele><time>2026-04-05T09:19:18Z</time></trkpt><trkpt lat="44.62654623858133" lon="8.65261720535182"><ele>196.0</ele><time>2026-04-05T09:19:20Z</time></trkpt><trkpt lat="44.62648905967289" lon="8.65248910191619"><ele>196.0</ele><time>2026-04-05T09:19:22Z</time></trkpt><trkpt lat="44.62645196246304" lon="8.652404037561514"><ele>196.0</ele><time>2026-04-05T09:19:24Z</time></trkpt><trkpt lat="44.62642626628552" lon="8.6523229757255"><ele>196.0</ele><time>2026-04-05T09:19:26Z</time></trkpt><trkpt lat="44.6265130613848" lon="8.65255158994693"><ele>196.0</ele><time>2026-04-05T09:19:51.999Z</time></trkpt><trkpt lat="44.62657197606242" lon="8.65269074384967"><ele>196.0</ele><time>2026-04-05T09:19:53.999Z</time></trkpt><trkpt lat="44.62664087822696" lon="8.652818894046293"><ele>196.0</ele><time>2026-04-05T09:19:55.999Z</time></trkpt><trkpt lat="44.62668125555446" lon="8.652955763684394"><ele>196.0</ele><time>2026-04-05T09:19:57.999Z</time></trkpt><trkpt lat="44.62672736533919" lon="8.653053323203219"><ele>196.0</ele><time>2026-04-05T09:19:59.999Z</time></trkpt><trkpt lat="44.62677418204254" lon="8.653153752728958"><ele>196.0</ele><time>2026-04-05T09:20:02.999Z</time></trkpt><trkpt lat="44.62686501039622" lon="8.653191775346079"><ele>196.0</ele><time>2026-04-05T09:20:04.999Z</time></trkpt><trkpt lat="44.626961729223716" lon="8.653282919404935"><ele>196.0</ele><time>2026-04-05T09:20:06.999Z</time></trkpt><trkpt lat="44.62703752829088" lon="8.653339902505751"><ele>196.0</ele><time>2026-04-05T09:20:08.999Z</time></trkpt><trkpt lat="44.62701782490297" lon="8.653121816624848"><ele>196.0</ele><time>2026-04-05T09:20:13.999Z</time></trkpt><trkpt lat="44.62694340249478" lon="8.653117278965977"><ele>196.0</ele><time>2026-04-05T09:27:40Z</time></trkpt><trkpt lat="44.62698325248874" lon="8.653200383096612"><ele>196.0</ele><time>2026-04-05T09:27:54Z</time></trkpt><trkpt lat="44.627030989479515" lon="8.653258181077266"><ele>196.0</ele><time>2026-04-05T09:27:56.999Z</time></trkpt><trkpt lat="44.62703372735188" lon="8.653348536146757"><ele>196.0</ele><time>2026-04-05T09:28:00.999Z</time></trkpt><trkpt lat="44.6269534779399" lon="8.653296898633052"><ele>196.0</ele><time>2026-04-05T09:28:03.999Z</time></trkpt><trkpt lat="44.62689397445037" lon="8.653217915430204"><ele>196.0</ele><time>2026-04-05T09:28:05.999Z</time></trkpt><trkpt lat="44.62682263896776" lon="8.653270176584996"><ele>196.0</ele><time>2026-04-05T09:28:20.999Z</time></trkpt><trkpt lat="44.62690320110056" lon="8.653500286417787"><ele>196.8</ele><time>2026-04-05T09:28:24.999Z</time></trkpt><trkpt lat="44.626873539948605" lon="8.653650612304084"><ele>197.60000000000002</ele><time>2026-04-05T09:28:26.999Z</time></trkpt><trkpt lat="44.62677155963332" lon="8.653704997507404"><ele>198.4</ele><time>2026-04-05T09:28:28.999Z</time></trkpt><trkpt lat="44.626694388278445" lon="8.653685135104757"><ele>199.2</ele><time>2026-04-05T09:28:29.999Z</time></trkpt><trkpt lat="44.626597682077175" lon="8.653659189577956"><ele>200.0</ele><time>2026-04-05T09:28:30.999Z</time></trkpt><trkpt lat="44.626487820093665" lon="8.653632255582357"><ele>200.4</ele><time>2026-04-05T09:28:31.999Z</time></trkpt><trkpt lat="44.62638527596441" lon="8.653603015906414"><ele>200.8</ele><time>2026-04-05T09:28:32.999Z</time></trkpt><trkpt lat="44.62629604692705" lon="8.653572215755485"><ele>201.2</ele><time>2026-04-05T09:28:33.999Z</time></trkpt><trkpt lat="44.62621069581115" lon="8.653555129876931"><ele>201.6</ele><time>2026-04-05T09:28:34.999Z</time></trkpt><trkpt lat="44.62613915973782" lon="8.653543969309792"><ele>202.0</ele><time>2026-04-05T09:28:35.999Z</time></trkpt><trkpt lat="44.626013475654815" lon="8.65352431950923"><ele>201.99999999999997</ele><time>2026-04-05T09:28:37.999Z</time></trkpt><trkpt lat="44.625950550030836" lon="8.653510300699105"><ele>202.0</ele><time>2026-04-05T09:28:38.999Z</time></trkpt><trkpt lat="44.625883579185846" lon="8.653496773632702"><ele>202.0</ele><time>2026-04-05T09:28:39.999Z</time></trkpt><trkpt lat="44.62581288983873" lon="8.653485676911231"><ele>202.0</ele><time>2026-04-05T09:28:40.999Z</time></trkpt><trkpt lat="44.625701183378894" lon="8.65347663879417"><ele>201.99999999999997</ele><time>2026-04-05T09:28:42.999Z</time></trkpt><trkpt lat="44.62563146308474" lon="8.653485698746904"><ele>202.0</ele><time>2026-04-05T09:28:47.999Z</time></trkpt><trkpt lat="44.62550912810296" lon="8.653513516548964"><ele>202.0</ele><time>2026-04-05T09:28:52.999Z</time></trkpt><trkpt lat="44.625441753330804" lon="8.653477125673504"><ele>202.0</ele><time>2026-04-05T09:28:54.999Z</time></trkpt><trkpt lat="44.625380945078625" lon="8.653401653847823"><ele>202.0</ele><time>2026-04-05T09:28:56.999Z</time></trkpt><trkpt lat="44.62531484287288" lon="8.653424863961368"><ele>202.0</ele><time>2026-04-05T09:28:59Z</time></trkpt><trkpt lat="44.62524631086059" lon="8.65343963326425"><ele>202.0</ele><time>2026-04-05T09:29:02Z</time></trkpt><trkpt lat="44.625178229445275" lon="8.653471735495472"><ele>202.0</ele><time>2026-04-05T09:29:07Z</time></trkpt><trkpt lat="44.62509716458097" lon="8.653475783506282"><ele>202.0</ele><time>2026-04-05T09:29:09Z</time></trkpt><trkpt lat="44.62502883994304" lon="8.65340980439816"><ele>201.49999999999997</ele><time>2026-04-05T09:29:11Z</time></trkpt><trkpt lat="44.62497425163775" lon="8.653329033165296"><ele>201.0</ele><time>2026-04-05T09:29:13Z</time></trkpt><trkpt lat="44.62489801927052" lon="8.653260862473156"><ele>200.5</ele><time>2026-04-05T09:29:15Z</time></trkpt><trkpt lat="44.62480413696459" lon="8.65315277297013"><ele>200.0</ele><time>2026-04-05T09:29:17Z</time></trkpt><trkpt lat="44.62476376766598" lon="8.653077783448472"><ele>199.49999999999997</ele><time>2026-04-05T09:29:18Z</time></trkpt><trkpt lat="44.62472456407992" lon="8.652990843773678"><ele>199.0</ele><time>2026-04-05T09:29:19Z</time></trkpt><trkpt lat="44.62467905664974" lon="8.652909917453076"><ele>198.99999999999997</ele><time>2026-04-05T09:29:20Z</time></trkpt><trkpt lat="44.624624865878154" lon="8.652825449311157"><ele>199.0</ele><time>2026-04-05T09:29:21Z</time></trkpt><trkpt lat="44.62456926074601" lon="8.652740798484086"><ele>199.0</ele><time>2026-04-05T09:29:22Z</time></trkpt><trkpt lat="44.62452789565522" lon="8.652645266600382"><ele>199.0</ele><time>2026-04-05T09:29:23Z</time></trkpt><trkpt lat="44.62447993318323" lon="8.652558526384949"><ele>198.99999999999997</ele><time>2026-04-05T09:29:24Z</time></trkpt><trkpt lat="44.62443113307004" lon="8.652470271299558"><ele>199.0</ele><time>2026-04-05T09:29:25Z</time></trkpt><trkpt lat="44.62439180972148" lon="8.652399154948153"><ele>198.14285714285714</ele><time>2026-04-05T09:29:26Z</time></trkpt><trkpt lat="44.62433464646096" lon="8.65233043985887"><ele>197.28571428571428</ele><time>2026-04-05T09:29:28Z</time></trkpt><trkpt lat="44.624305070103915" lon="8.652237920520053"><ele>196.42857142857144</ele><time>2026-04-05T09:29:34Z</time></trkpt><trkpt lat="44.62426475284938" lon="8.652131475554262"><ele>195.57142857142856</ele><time>2026-04-05T09:29:36Z</time></trkpt><trkpt lat="44.62426326810948" lon="8.652029148068241"><ele>194.71428571428572</ele><time>2026-04-05T09:29:37Z</time></trkpt><trkpt lat="44.624268956633045" lon="8.651936379281615"><ele>193.85714285714286</ele><time>2026-04-05T09:29:38Z</time></trkpt><trkpt lat="44.62426033135901" lon="8.651847949984445"><ele>193.0</ele><time>2026-04-05T09:29:39Z</time></trkpt><trkpt lat="44.62418075868688" lon="8.651723646159407"><ele>193.00000000000003</ele><time>2026-04-05T09:29:41Z</time></trkpt><trkpt lat="44.6241195206462" lon="8.65170044049665"><ele>193.0</ele><time>2026-04-05T09:29:42Z</time></trkpt><trkpt lat="44.624050529315724" lon="8.65171783748959"><ele>193.0</ele><time>2026-04-05T09:29:43Z</time></trkpt><trkpt lat="44.62399147653726" lon="8.651766309349675"><ele>193.0</ele><time>2026-04-05T09:29:44Z</time></trkpt><trkpt lat="44.62395594745638" lon="8.651843899042396"><ele>193.0</ele><time>2026-04-05T09:29:45Z</time></trkpt><trkpt lat="44.62394502317548" lon="8.65194269649778"><ele>193.00000000000003</ele><time>2026-04-05T09:29:46Z</time></trkpt><trkpt lat="44.62394322478076" lon="8.652061532568517"><ele>193.0</ele><time>2026-04-05T09:29:47Z</time></trkpt><trkpt lat="44.62394377228753" lon="8.652182794631399"><ele>192.5</ele><time>2026-04-05T09:29:48Z</time></trkpt><trkpt lat="44.62397045106206" lon="8.652298966232774"><ele>192.0</ele><time>2026-04-05T09:29:49Z</time></trkpt><trkpt lat="44.623893877251014" lon="8.652433144707322"><ele>191.5</ele><time>2026-04-05T09:29:50Z</time></trkpt><trkpt lat="44.623818426845766" lon="8.6525598026436"><ele>191.0</ele><time>2026-04-05T09:29:51Z</time></trkpt><trkpt lat="44.6237263908808" lon="8.652685841055511"><ele>191.0</ele><time>2026-04-05T09:29:52Z</time></trkpt><trkpt lat="44.62361903400747" lon="8.65280707715014"><ele>191.0</ele><time>2026-04-05T09:29:53Z</time></trkpt><trkpt lat="44.623480481718055" lon="8.652932872279475"><ele>191.0</ele><time>2026-04-05T09:29:54Z</time></trkpt><trkpt lat="44.623292138867626" lon="8.65306498186577"><ele>191.0</ele><time>2026-04-05T09:29:55Z</time></trkpt><trkpt lat="44.6230787472871" lon="8.653197914289208"><ele>191.0</ele><time>2026-04-05T09:29:56Z</time></trkpt><trkpt lat="44.622850082270574" lon="8.653332305880527"><ele>198.0</ele><time>2026-04-05T09:29:57Z</time></trkpt><trkpt lat="44.62261449230544" lon="8.65343943026429"><ele>205.0</ele><time>2026-04-05T09:29:58Z</time></trkpt><trkpt lat="44.6223933613291" lon="8.653538716283771"><ele>205.0</ele><time>2026-04-05T09:29:59Z</time></trkpt><trkpt lat="44.62220103209492" lon="8.653608157071309"><ele>205.0</ele><time>2026-04-05T09:29:59.999Z</time></trkpt><trkpt lat="44.62207114412933" lon="8.653674157803955"><ele>205.0</ele><time>2026-04-05T09:30:00.999Z</time></trkpt><trkpt lat="44.621942738346696" lon="8.653773695617536"><ele>204.0</ele><time>2026-04-05T09:30:01.999Z</time></trkpt><trkpt lat="44.621847364881646" lon="8.65391178082613"><ele>203.0</ele><time>2026-04-05T09:30:02.999Z</time></trkpt><trkpt lat="44.621739050368326" lon="8.654079841541165"><ele>202.0</ele><time>2026-04-05T09:30:03.999Z</time></trkpt><trkpt lat="44.621624300634934" lon="8.654262046106258"><ele>202.0</ele><time>2026-04-05T09:30:04.999Z</time></trkpt><trkpt lat="44.62153741352149" lon="8.654434542307524"><ele>202.0</ele><time>2026-04-05T09:30:05.999Z</time></trkpt><trkpt lat="44.62147865775396" lon="8.654622907744365"><ele>202.0</ele><time>2026-04-05T09:30:06.999Z</time></trkpt><trkpt lat="44.62139525441265" lon="8.654832817480171"><ele>202.75</ele><time>2026-04-05T09:30:07.999Z</time></trkpt><trkpt lat="44.62129789288732" lon="8.65499924373095"><ele>203.5</ele><time>2026-04-05T09:30:08.999Z</time></trkpt><trkpt lat="44.62120335641252" lon="8.655148994583117"><ele>204.25</ele><time>2026-04-05T09:30:09.999Z</time></trkpt><trkpt lat="44.62111287545257" lon="8.655279161346627"><ele>205.0</ele><time>2026-04-05T09:30:10.999Z</time></trkpt><trkpt lat="44.62102166209184" lon="8.655373101928797"><ele>202.4</ele><time>2026-04-05T09:30:11.999Z</time></trkpt><trkpt lat="44.62094158624284" lon="8.6554219579166"><ele>199.8</ele><time>2026-04-05T09:30:12.999Z</time></trkpt><trkpt lat="44.620855842786774" lon="8.655448966002602"><ele>197.2</ele><time>2026-04-05T09:30:13.999Z</time></trkpt><trkpt lat="44.62076733530409" lon="8.6554319511556"><ele>194.6</ele><time>2026-04-05T09:30:14.999Z</time></trkpt><trkpt lat="44.62067702988801" lon="8.655408250275585"><ele>192.0</ele><time>2026-04-05T09:30:15.999Z</time></trkpt><trkpt lat="44.62056881365337" lon="8.65536224613713"><ele>195.66666666666669</ele><time>2026-04-05T09:30:16.999Z</time></trkpt><trkpt lat="44.620431623955874" lon="8.655286514679347"><ele>199.33333333333334</ele><time>2026-04-05T09:30:17.999Z</time></trkpt><trkpt lat="44.62026999193746" lon="8.655190185648223"><ele>203.0</ele><time>2026-04-05T09:30:18.999Z</time></trkpt><trkpt lat="44.620107758362074" lon="8.655061227313542"><ele>203.0</ele><time>2026-04-05T09:30:19.999Z</time></trkpt><trkpt lat="44.619956262052916" lon="8.654932534786527"><ele>203.0</ele><time>2026-04-05T09:30:20.999Z</time></trkpt><trkpt lat="44.619808074988846" lon="8.654845325612227"><ele>203.0</ele><time>2026-04-05T09:30:21.999Z</time></trkpt><trkpt lat="44.61967433847359" lon="8.654761543596296"><ele>203.0</ele><time>2026-04-05T09:30:22.999Z</time></trkpt><trkpt lat="44.6195417470906" lon="8.654704232227413"><ele>203.0</ele><time>2026-04-05T09:30:23.999Z</time></trkpt><trkpt lat="44.619377997841106" lon="8.654671727938625"><ele>203.0</ele><time>2026-04-05T09:30:24.999Z</time></trkpt><trkpt lat="44.61922446445382" lon="8.654599325741305"><ele>200.0</ele><time>2026-04-05T09:30:25.999Z</time></trkpt><trkpt lat="44.619088119060905" lon="8.654472129642242"><ele>197.0</ele><time>2026-04-05T09:30:26.999Z</time></trkpt><trkpt lat="44.61893497518958" lon="8.65433178755209"><ele>194.0</ele><time>2026-04-05T09:30:27.999Z</time></trkpt><trkpt lat="44.61879057366801" lon="8.654149931440779"><ele>193.66666666666669</ele><time>2026-04-05T09:30:28.999Z</time></trkpt><trkpt lat="44.61865371334946" lon="8.653972618792391"><ele>193.33333333333331</ele><time>2026-04-05T09:30:29.999Z</time></trkpt><trkpt lat="44.618534226076335" lon="8.653798522746241"><ele>193.0</ele><time>2026-04-05T09:30:30.999Z</time></trkpt><trkpt lat="44.61841798180066" lon="8.653654761158807"><ele>198.0</ele><time>2026-04-05T09:30:31.999Z</time></trkpt><trkpt lat="44.61830764456141" lon="8.653503298760286"><ele>203.0</ele><time>2026-04-05T09:30:32.999Z</time></trkpt><trkpt lat="44.618215178907136" lon="8.653323006371899"><ele>208.0</ele><time>2026-04-05T09:30:33.999Z</time></trkpt><trkpt lat="44.61811224939602" lon="8.653132500157529"><ele>208.0</ele><time>2026-04-05T09:30:34.999Z</time></trkpt><trkpt lat="44.61802094479958" lon="8.652966352655403"><ele>208.0</ele><time>2026-04-05T09:30:35.999Z</time></trkpt><trkpt lat="44.61792647566083" lon="8.652839387817234"><ele>208.0</ele><time>2026-04-05T09:30:36.999Z</time></trkpt><trkpt lat="44.61785192338865" lon="8.652736377935122"><ele>208.0</ele><time>2026-04-05T09:30:37.999Z</time></trkpt><trkpt lat="44.617753929169076" lon="8.652699025616158"><ele>206.0</ele><time>2026-04-05T09:30:38.999Z</time></trkpt><trkpt lat="44.61762176533881" lon="8.652722642888744"><ele>204.0</ele><time>2026-04-05T09:30:39.999Z</time></trkpt><trkpt lat="44.61749077853089" lon="8.65278074211399"><ele>202.0</ele><time>2026-04-05T09:30:40.999Z</time></trkpt><trkpt lat="44.617338301667125" lon="8.652874568406164"><ele>200.0</ele><time>2026-04-05T09:30:41.999Z</time></trkpt><trkpt lat="44.617183542945604" lon="8.6529724061629"><ele>200.0</ele><time>2026-04-05T09:30:42.999Z</time></trkpt><trkpt lat="44.61703669667335" lon="8.653089727545613"><ele>200.0</ele><time>2026-04-05T09:30:43.999Z</time></trkpt><trkpt lat="44.61690822202719" lon="8.653162778107331"><ele>200.0</ele><time>2026-04-05T09:30:44.999Z</time></trkpt><trkpt lat="44.61680450815408" lon="8.653289375374083"><ele>200.0</ele><time>2026-04-05T09:30:45.999Z</time></trkpt><trkpt lat="44.616710106737564" lon="8.65344144058565"><ele>201.0</ele><time>2026-04-05T09:30:46.999Z</time></trkpt><trkpt lat="44.61661925553382" lon="8.653634739873542"><ele>202.0</ele><time>2026-04-05T09:30:47.999Z</time></trkpt><trkpt lat="44.616514247347254" lon="8.653855395026723"><ele>203.0</ele><time>2026-04-05T09:30:48.999Z</time></trkpt><trkpt lat="44.61639461984074" lon="8.6540737470495"><ele>203.0</ele><time>2026-04-05T09:30:49.999Z</time></trkpt><trkpt lat="44.616268955878894" lon="8.65433469559401"><ele>203.0</ele><time>2026-04-05T09:30:50.999Z</time></trkpt><trkpt lat="44.6161392991986" lon="8.654571919149713"><ele>203.0</ele><time>2026-04-05T09:30:51.999Z</time></trkpt><trkpt lat="44.616019055321246" lon="8.654834766081944"><ele>201.5</ele><time>2026-04-05T09:30:52.999Z</time></trkpt><trkpt lat="44.61588434218753" lon="8.655174994045764"><ele>200.0</ele><time>2026-04-05T09:30:53.999Z</time></trkpt><trkpt lat="44.61574529229708" lon="8.655502042817998"><ele>200.0</ele><time>2026-04-05T09:30:54.999Z</time></trkpt><trkpt lat="44.61560248792303" lon="8.655875914749174"><ele>200.0</ele><time>2026-04-05T09:30:55.999Z</time></trkpt><trkpt lat="44.615476320247026" lon="8.656178677515408"><ele>199.0</ele><time>2026-04-05T09:30:56.999Z</time></trkpt><trkpt lat="44.61536703451612" lon="8.656459420302857"><ele>198.0</ele><time>2026-04-05T09:30:57.999Z</time></trkpt><trkpt lat="44.61527445044915" lon="8.656688862362923"><ele>197.0</ele><time>2026-04-05T09:30:58.999Z</time></trkpt><trkpt lat="44.615182723566264" lon="8.656927055933155"><ele>203.33333333333334</ele><time>2026-04-05T09:30:59.999Z</time></trkpt><trkpt lat="44.61510072635977" lon="8.657135316720616"><ele>209.66666666666669</ele><time>2026-04-05T09:31:00.999Z</time></trkpt><trkpt lat="44.6150321514993" lon="8.657340250482134"><ele>216.0</ele><time>2026-04-05T09:31:01.999Z</time></trkpt><trkpt lat="44.61499991292881" lon="8.657534463173358"><ele>216.0</ele><time>2026-04-05T09:31:02.999Z</time></trkpt><trkpt lat="44.61499716729953" lon="8.657747175168966"><ele>216.0</ele><time>2026-04-05T09:31:03.999Z</time></trkpt><trkpt lat="44.614999333641336" lon="8.657896549407424"><ele>216.0</ele><time>2026-04-05T09:31:05Z</time></trkpt><trkpt lat="44.615013416405844" lon="8.658043705978566"><ele>216.0</ele><time>2026-04-05T09:31:06Z</time></trkpt><trkpt lat="44.615056948771745" lon="8.658208278978055"><ele>218.25</ele><time>2026-04-05T09:31:07Z</time></trkpt><trkpt lat="44.615089657230705" lon="8.658376281858736"><ele>220.5</ele><time>2026-04-05T09:31:08Z</time></trkpt><trkpt lat="44.61513956573385" lon="8.658528685906273"><ele>222.75</ele><time>2026-04-05T09:31:09Z</time></trkpt><trkpt lat="44.615191239203355" lon="8.658685447850214"><ele>225.0</ele><time>2026-04-05T09:31:10Z</time></trkpt><trkpt lat="44.61524199195197" lon="8.65884043079781"><ele>225.5</ele><time>2026-04-05T09:31:11Z</time></trkpt><trkpt lat="44.61529124048039" lon="8.659010270476404"><ele>226.0</ele><time>2026-04-05T09:31:12Z</time></trkpt><trkpt lat="44.61533726802233" lon="8.659191738536883"><ele>226.5</ele><time>2026-04-05T09:31:13Z</time></trkpt><trkpt lat="44.61536758668703" lon="8.65936432719251"><ele>227.0</ele><time>2026-04-05T09:31:14Z</time></trkpt><trkpt lat="44.61538401569036" lon="8.659540840037979"><ele>221.25</ele><time>2026-04-05T09:31:15Z</time></trkpt><trkpt lat="44.615394266827806" lon="8.659706325440546"><ele>215.5</ele><time>2026-04-05T09:31:16Z</time></trkpt><trkpt lat="44.61539437365395" lon="8.659873881245428"><ele>209.75</ele><time>2026-04-05T09:31:17Z</time></trkpt><trkpt lat="44.615402711933" lon="8.660043684670566"><ele>204.0</ele><time>2026-04-05T09:31:18Z</time></trkpt><trkpt lat="44.61540343126809" lon="8.660213346139516"><ele>205.5</ele><time>2026-04-05T09:31:19Z</time></trkpt><trkpt lat="44.61539238243689" lon="8.66039390910387"><ele>207.0</ele><time>2026-04-05T09:31:20Z</time></trkpt><trkpt lat="44.61537583467407" lon="8.660557182999172"><ele>208.5</ele><time>2026-04-05T09:31:21Z</time></trkpt><trkpt lat="44.615342752042125" lon="8.660716494854876"><ele>210.0</ele><time>2026-04-05T09:31:22Z</time></trkpt><trkpt lat="44.615299671409886" lon="8.660886208512084"><ele>211.25</ele><time>2026-04-05T09:31:23Z</time></trkpt><trkpt lat="44.615242215171605" lon="8.66107382322401"><ele>212.5</ele><time>2026-04-05T09:31:24Z</time></trkpt><trkpt lat="44.6151850016732" lon="8.661247932001931"><ele>213.75</ele><time>2026-04-05T09:31:25Z</time></trkpt><trkpt lat="44.61513783666811" lon="8.661420516600463"><ele>215.0</ele><time>2026-04-05T09:31:26Z</time></trkpt><trkpt lat="44.6150924265823" lon="8.661569445963446"><ele>215.0</ele><time>2026-04-05T09:31:27Z</time></trkpt><trkpt lat="44.61505137782689" lon="8.661726494221986"><ele>215.0</ele><time>2026-04-05T09:31:28Z</time></trkpt><trkpt lat="44.61501391371154" lon="8.661872610156802"><ele>215.0</ele><time>2026-04-05T09:31:29Z</time></trkpt><trkpt lat="44.614972007316126" lon="8.662007762902421"><ele>215.0</ele><time>2026-04-05T09:31:30Z</time></trkpt><trkpt lat="44.61490705490638" lon="8.66216364729219"><ele>213.25</ele><time>2026-04-05T09:31:31Z</time></trkpt><trkpt lat="44.61482596201461" lon="8.662303059953402"><ele>211.5</ele><time>2026-04-05T09:31:32Z</time></trkpt><trkpt lat="44.614729270332724" lon="8.66243448133059"><ele>209.75</ele><time>2026-04-05T09:31:33Z</time></trkpt><trkpt lat="44.61459829507226" lon="8.662523900978941"><ele>208.0</ele><time>2026-04-05T09:31:34Z</time></trkpt><trkpt lat="44.61444381072981" lon="8.662623889751831"><ele>209.25</ele><time>2026-04-05T09:31:35Z</time></trkpt><trkpt lat="44.614318028927876" lon="8.662730049536732"><ele>210.5</ele><time>2026-04-05T09:31:36Z</time></trkpt><trkpt lat="44.61420164531028" lon="8.662816061411041"><ele>211.75</ele><time>2026-04-05T09:31:37Z</time></trkpt><trkpt lat="44.61410063854383" lon="8.662913771588828"><ele>213.0</ele><time>2026-04-05T09:31:38Z</time></trkpt><trkpt lat="44.614011461486534" lon="8.663015635044722"><ele>213.0</ele><time>2026-04-05T09:31:39Z</time></trkpt><trkpt lat="44.613940312803464" lon="8.663131601594312"><ele>213.0</ele><time>2026-04-05T09:31:40Z</time></trkpt><trkpt lat="44.613878977326095" lon="8.663274941014315"><ele>213.0</ele><time>2026-04-05T09:31:41Z</time></trkpt><trkpt lat="44.6138045722769" lon="8.663401783201792"><ele>213.0</ele><time>2026-04-05T09:31:42Z</time></trkpt><trkpt lat="44.61371369719646" lon="8.663530219658083"><ele>214.0</ele><time>2026-04-05T09:31:43Z</time></trkpt><trkpt lat="44.613627075467704" lon="8.663643016385025"><ele>215.0</ele><time>2026-04-05T09:31:44Z</time></trkpt><trkpt lat="44.61353384871975" lon="8.663768307292683"><ele>216.0</ele><time>2026-04-05T09:31:45Z</time></trkpt><trkpt lat="44.613434441570305" lon="8.663891641450482"><ele>217.0</ele><time>2026-04-05T09:31:46Z</time></trkpt><trkpt lat="44.61333559822645" lon="8.664011859973906"><ele>217.0</ele><time>2026-04-05T09:31:47Z</time></trkpt><trkpt lat="44.61322837109094" lon="8.664141921017768"><ele>217.0</ele><time>2026-04-05T09:31:48Z</time></trkpt><trkpt lat="44.61312330572557" lon="8.664291865312206"><ele>217.0</ele><time>2026-04-05T09:31:49Z</time></trkpt><trkpt lat="44.61304208065573" lon="8.664470268886978"><ele>217.0</ele><time>2026-04-05T09:31:50Z</time></trkpt><trkpt lat="44.6129798239003" lon="8.664674595098028"><ele>215.33333333333331</ele><time>2026-04-05T09:31:51Z</time></trkpt><trkpt lat="44.61293707025348" lon="8.664906307857894"><ele>213.66666666666669</ele><time>2026-04-05T09:31:52Z</time></trkpt><trkpt lat="44.61291450681009" lon="8.665133356546898"><ele>212.0</ele><time>2026-04-05T09:31:53Z</time></trkpt><trkpt lat="44.61291116130736" lon="8.665355446272292"><ele>211.0</ele><time>2026-04-05T09:31:54Z</time></trkpt><trkpt lat="44.61291707925186" lon="8.665570551800275"><ele>210.0</ele><time>2026-04-05T09:31:55Z</time></trkpt><trkpt lat="44.61293469862723" lon="8.665773974943606"><ele>209.0</ele><time>2026-04-05T09:31:56Z</time></trkpt><trkpt lat="44.612945353773924" lon="8.66599511741729"><ele>211.0</ele><time>2026-04-05T09:31:57Z</time></trkpt><trkpt lat="44.612984385349904" lon="8.666222971949034"><ele>213.0</ele><time>2026-04-05T09:31:58Z</time></trkpt><trkpt lat="44.6130317503777" lon="8.666429672829402"><ele>215.0</ele><time>2026-04-05T09:31:59Z</time></trkpt><trkpt lat="44.61308762080969" lon="8.66663542485689"><ele>215.0</ele><time>2026-04-05T09:32:00Z</time></trkpt><trkpt lat="44.613143097510815" lon="8.66682800536588"><ele>215.0</ele><time>2026-04-05T09:32:01Z</time></trkpt><trkpt lat="44.61322324774781" lon="8.667047022080306"><ele>215.0</ele><time>2026-04-05T09:32:02Z</time></trkpt><trkpt lat="44.61326713329479" lon="8.667275658955615"><ele>216.0</ele><time>2026-04-05T09:32:03Z</time></trkpt><trkpt lat="44.61332778321738" lon="8.667478098676543"><ele>217.0</ele><time>2026-04-05T09:32:04Z</time></trkpt><trkpt lat="44.6133820907407" lon="8.667663615987033"><ele>218.0</ele><time>2026-04-05T09:32:04.999Z</time></trkpt><trkpt lat="44.61343527436608" lon="8.667827066650327"><ele>219.0</ele><time>2026-04-05T09:32:05.999Z</time></trkpt><trkpt lat="44.613483334148135" lon="8.668007560230794"><ele>220.5</ele><time>2026-04-05T09:32:06.999Z</time></trkpt><trkpt lat="44.61352550451675" lon="8.668157089687801"><ele>222.0</ele><time>2026-04-05T09:32:07.999Z</time></trkpt><trkpt lat="44.61356639538855" lon="8.668304715002515"><ele>223.5</ele><time>2026-04-05T09:32:08.999Z</time></trkpt><trkpt lat="44.613611162710214" lon="8.668457095234357"><ele>225.0</ele><time>2026-04-05T09:32:09.999Z</time></trkpt><trkpt lat="44.613646350585036" lon="8.668606669051304"><ele>222.4</ele><time>2026-04-05T09:32:10.999Z</time></trkpt><trkpt lat="44.61369082323246" lon="8.668762290673465"><ele>219.8</ele><time>2026-04-05T09:32:11.999Z</time></trkpt><trkpt lat="44.61373501163719" lon="8.668918456895847"><ele>217.2</ele><time>2026-04-05T09:32:12.999Z</time></trkpt><trkpt lat="44.61377436181908" lon="8.66906015219257"><ele>214.6</ele><time>2026-04-05T09:32:13.999Z</time></trkpt><trkpt lat="44.61379742897719" lon="8.669193286928653"><ele>212.0</ele><time>2026-04-05T09:32:14.999Z</time></trkpt><trkpt lat="44.61381009427313" lon="8.669317876010625"><ele>212.0</ele><time>2026-04-05T09:32:15.999Z</time></trkpt><trkpt lat="44.61380787153502" lon="8.669439650374416"><ele>212.0</ele><time>2026-04-05T09:32:16.999Z</time></trkpt><trkpt lat="44.6137884943806" lon="8.669548889359072"><ele>212.0</ele><time>2026-04-05T09:32:17.999Z</time></trkpt><trkpt lat="44.613746851532234" lon="8.669656657630581"><ele>212.0</ele><time>2026-04-05T09:32:18.999Z</time></trkpt><trkpt lat="44.61366482760229" lon="8.669764342526857"><ele>212.0</ele><time>2026-04-05T09:32:19.999Z</time></trkpt><trkpt lat="44.61356174062899" lon="8.669869640063931"><ele>216.66666666666669</ele><time>2026-04-05T09:32:20.999Z</time></trkpt><trkpt lat="44.61343926451583" lon="8.669985671089679"><ele>221.33333333333331</ele><time>2026-04-05T09:32:21.999Z</time></trkpt><trkpt lat="44.61329703141812" lon="8.670100866148061"><ele>226.0</ele><time>2026-04-05T09:32:22.999Z</time></trkpt><trkpt lat="44.613147220906185" lon="8.67022241076183"><ele>226.0</ele><time>2026-04-05T09:32:23.999Z</time></trkpt><trkpt lat="44.61298702744423" lon="8.670350507956575"><ele>226.0</ele><time>2026-04-05T09:32:24.999Z</time></trkpt><trkpt lat="44.612832303911425" lon="8.670466041048162"><ele>226.0</ele><time>2026-04-05T09:32:25.999Z</time></trkpt><trkpt lat="44.61269247686315" lon="8.67056799366175"><ele>226.0</ele><time>2026-04-05T09:32:26.999Z</time></trkpt><trkpt lat="44.612562270021485" lon="8.670658507844403"><ele>226.0</ele><time>2026-04-05T09:32:27.999Z</time></trkpt><trkpt lat="44.61244425818034" lon="8.670734936836574"><ele>226.0</ele><time>2026-04-05T09:32:28.999Z</time></trkpt><trkpt lat="44.6123292857028" lon="8.67081119153804"><ele>226.0</ele><time>2026-04-05T09:32:29.999Z</time></trkpt><trkpt lat="44.61220758453097" lon="8.670879744704404"><ele>226.0</ele><time>2026-04-05T09:32:30.999Z</time></trkpt><trkpt lat="44.612092676701835" lon="8.670959426834198"><ele>226.0</ele><time>2026-04-05T09:32:31.999Z</time></trkpt><trkpt lat="44.61198511319773" lon="8.67101374401773"><ele>226.0</ele><time>2026-04-05T09:32:32.999Z</time></trkpt><trkpt lat="44.611881777181566" lon="8.671074694217838"><ele>226.0</ele><time>2026-04-05T09:32:33.999Z</time></trkpt><trkpt lat="44.611772315962654" lon="8.671150837396658"><ele>223.25</ele><time>2026-04-05T09:32:34.999Z</time></trkpt><trkpt lat="44.611659211621415" lon="8.671225708540057"><ele>220.5</ele><time>2026-04-05T09:32:35.999Z</time></trkpt><trkpt lat="44.611553198770515" lon="8.671290399737414"><ele>217.75</ele><time>2026-04-05T09:32:36.999Z</time></trkpt><trkpt lat="44.61141948870024" lon="8.671350807269343"><ele>215.0</ele><time>2026-04-05T09:32:37.999Z</time></trkpt><trkpt lat="44.61126134525846" lon="8.671359032990619"><ele>214.33333333333334</ele><time>2026-04-05T09:32:38.999Z</time></trkpt><trkpt lat="44.61108446971904" lon="8.671350982214655"><ele>213.66666666666669</ele><time>2026-04-05T09:32:39.999Z</time></trkpt><trkpt lat="44.610906158045935" lon="8.671279522487678"><ele>213.0</ele><time>2026-04-05T09:32:40.999Z</time></trkpt><trkpt lat="44.610753569098605" lon="8.67121480870645"><ele>213.0</ele><time>2026-04-05T09:32:41.999Z</time></trkpt><trkpt lat="44.61061789860659" lon="8.67111332218042"><ele>213.0</ele><time>2026-04-05T09:32:42.999Z</time></trkpt><trkpt lat="44.61048267399654" lon="8.670989555498776"><ele>213.0</ele><time>2026-04-05T09:32:43.999Z</time></trkpt><trkpt lat="44.61036482168766" lon="8.670843108385217"><ele>213.33333333333331</ele><time>2026-04-05T09:32:44.999Z</time></trkpt><trkpt lat="44.61024339778179" lon="8.670660380236685"><ele>213.66666666666666</ele><time>2026-04-05T09:32:45.999Z</time></trkpt><trkpt lat="44.61012505676371" lon="8.670482067957538"><ele>214.0</ele><time>2026-04-05T09:32:46.999Z</time></trkpt><trkpt lat="44.610027847749286" lon="8.670329012240996"><ele>216.75</ele><time>2026-04-05T09:32:47.999Z</time></trkpt><trkpt lat="44.60993327402595" lon="8.67018365352586"><ele>219.5</ele><time>2026-04-05T09:32:48.999Z</time></trkpt><trkpt lat="44.6098375516864" lon="8.670050194550631"><ele>222.25</ele><time>2026-04-05T09:32:49.999Z</time></trkpt><trkpt lat="44.609757246752324" lon="8.669928077862481"><ele>225.0</ele><time>2026-04-05T09:32:50.999Z</time></trkpt><trkpt lat="44.60967333772888" lon="8.66980990139347"><ele>225.0</ele><time>2026-04-05T09:32:51.999Z</time></trkpt><trkpt lat="44.609597877907945" lon="8.669696524385197"><ele>225.0</ele><time>2026-04-05T09:32:52.999Z</time></trkpt><trkpt lat="44.60952261945004" lon="8.669580808151354"><ele>225.0</ele><time>2026-04-05T09:32:53.999Z</time></trkpt><trkpt lat="44.6094323656121" lon="8.669454923955795"><ele>225.0</ele><time>2026-04-05T09:32:54.999Z</time></trkpt><trkpt lat="44.609345984823946" lon="8.669323321094367"><ele>223.25</ele><time>2026-04-05T09:32:55.999Z</time></trkpt><trkpt lat="44.60927314506093" lon="8.669162272389555"><ele>221.5</ele><time>2026-04-05T09:32:56.999Z</time></trkpt><trkpt lat="44.60920005678199" lon="8.668998264275352"><ele>219.75</ele><time>2026-04-05T09:32:57.999Z</time></trkpt><trkpt lat="44.60913222934907" lon="8.66882552882324"><ele>218.0</ele><time>2026-04-05T09:32:58.999Z</time></trkpt><trkpt lat="44.60906963605029" lon="8.668657382578171"><ele>220.0</ele><time>2026-04-05T09:32:59.999Z</time></trkpt><trkpt lat="44.60900416806719" lon="8.668480758909489"><ele>222.0</ele><time>2026-04-05T09:33:00.999Z</time></trkpt><trkpt lat="44.608938691366" lon="8.668319742499454"><ele>224.0</ele><time>2026-04-05T09:33:01.999Z</time></trkpt><trkpt lat="44.60887703668479" lon="8.668171793412103"><ele>226.0</ele><time>2026-04-05T09:33:02.999Z</time></trkpt><trkpt lat="44.60881569525712" lon="8.668017068823762"><ele>226.0</ele><time>2026-04-05T09:33:03.999Z</time></trkpt><trkpt lat="44.60875363946552" lon="8.667865426039686"><ele>226.0</ele><time>2026-04-05T09:33:04.999Z</time></trkpt><trkpt lat="44.60869504548142" lon="8.667712470474244"><ele>226.0</ele><time>2026-04-05T09:33:05.999Z</time></trkpt><trkpt lat="44.608635184536766" lon="8.667566314195282"><ele>226.0</ele><time>2026-04-05T09:33:06.999Z</time></trkpt><trkpt lat="44.608586098057664" lon="8.667429446586093"><ele>226.25</ele><time>2026-04-05T09:33:07.999Z</time></trkpt><trkpt lat="44.60853324875363" lon="8.667300179202206"><ele>226.5</ele><time>2026-04-05T09:33:08.999Z</time></trkpt><trkpt lat="44.60847500752537" lon="8.667154262316949"><ele>226.75</ele><time>2026-04-05T09:33:09.999Z</time></trkpt><trkpt lat="44.60840750764255" lon="8.666994706310861"><ele>227.0</ele><time>2026-04-05T09:33:11Z</time></trkpt><trkpt lat="44.608346008987795" lon="8.666829675510364"><ele>227.0</ele><time>2026-04-05T09:33:12Z</time></trkpt><trkpt lat="44.608296412378" lon="8.666661530753125"><ele>227.0</ele><time>2026-04-05T09:33:13Z</time></trkpt><trkpt lat="44.6082603312125" lon="8.666472774589863"><ele>227.0</ele><time>2026-04-05T09:33:14Z</time></trkpt><trkpt lat="44.608245599137014" lon="8.66627562684"><ele>227.0</ele><time>2026-04-05T09:33:15Z</time></trkpt><trkpt lat="44.60825416375732" lon="8.666081506600896"><ele>227.0</ele><time>2026-04-05T09:33:16Z</time></trkpt><trkpt lat="44.60827888763176" lon="8.665890185036488"><ele>227.0</ele><time>2026-04-05T09:33:17Z</time></trkpt><trkpt lat="44.60831137219818" lon="8.665701371120475"><ele>227.0</ele><time>2026-04-05T09:33:18Z</time></trkpt><trkpt lat="44.608334776709796" lon="8.665532556126012"><ele>227.0</ele><time>2026-04-05T09:33:19Z</time></trkpt><trkpt lat="44.60835953254153" lon="8.665383550735578"><ele>226.83333333333334</ele><time>2026-04-05T09:33:20Z</time></trkpt><trkpt lat="44.60838796688545" lon="8.665244182973048"><ele>226.66666666666669</ele><time>2026-04-05T09:33:21Z</time></trkpt><trkpt lat="44.608419648667756" lon="8.665115401514859"><ele>226.5</ele><time>2026-04-05T09:33:22Z</time></trkpt><trkpt lat="44.60842510076633" lon="8.664996734242317"><ele>226.33333333333331</ele><time>2026-04-05T09:33:23Z</time></trkpt><trkpt lat="44.60841313737526" lon="8.66489215063344"><ele>226.16666666666666</ele><time>2026-04-05T09:33:24Z</time></trkpt><trkpt lat="44.60839691723353" lon="8.66478070551793"><ele>226.0</ele><time>2026-04-05T09:33:26Z</time></trkpt><trkpt lat="44.60838443032144" lon="8.664633519166728"><ele>226.0</ele><time>2026-04-05T09:33:28Z</time></trkpt><trkpt lat="44.608396190919" lon="8.66450455340708"><ele>226.00000000000003</ele><time>2026-04-05T09:33:29Z</time></trkpt><trkpt lat="44.60839446441109" lon="8.664380491594148"><ele>226.00000000000003</ele><time>2026-04-05T09:33:30Z</time></trkpt><trkpt lat="44.60840071532215" lon="8.664239670069133"><ele>226.0</ele><time>2026-04-05T09:33:31Z</time></trkpt><trkpt lat="44.608425978214925" lon="8.664088386569992"><ele>226.0</ele><time>2026-04-05T09:33:32Z</time></trkpt><trkpt lat="44.608451809671486" lon="8.663942980036301"><ele>226.0</ele><time>2026-04-05T09:33:33Z</time></trkpt><trkpt lat="44.60845575656502" lon="8.663820785314751"><ele>226.00000000000003</ele><time>2026-04-05T09:33:34Z</time></trkpt><trkpt lat="44.6084535095244" lon="8.663687368505535"><ele>226.00000000000003</ele><time>2026-04-05T09:33:35Z</time></trkpt><trkpt lat="44.608428646597034" lon="8.663553992671027"><ele>226.0</ele><time>2026-04-05T09:33:36Z</time></trkpt><trkpt lat="44.608403013486" lon="8.663417637757322"><ele>226.0</ele><time>2026-04-05T09:33:37Z</time></trkpt><trkpt lat="44.60834704008818" lon="8.663291747196201"><ele>228.5</ele><time>2026-04-05T09:33:38Z</time></trkpt><trkpt lat="44.60826222702705" lon="8.66315081310248"><ele>231.0</ele><time>2026-04-05T09:33:39Z</time></trkpt><trkpt lat="44.608151139267086" lon="8.66303014210881"><ele>233.5</ele><time>2026-04-05T09:33:40Z</time></trkpt><trkpt lat="44.60802906836331" lon="8.66288260785021"><ele>236.0</ele><time>2026-04-05T09:33:41Z</time></trkpt><trkpt lat="44.60789061850501" lon="8.662735197905606"><ele>234.33333333333334</ele><time>2026-04-05T09:33:42Z</time></trkpt><trkpt lat="44.607740904308685" lon="8.662607608225652"><ele>232.66666666666669</ele><time>2026-04-05T09:33:43Z</time></trkpt><trkpt lat="44.60760577023183" lon="8.662476046775266"><ele>231.0</ele><time>2026-04-05T09:33:44Z</time></trkpt><trkpt lat="44.6074470828768" lon="8.662385230627446"><ele>231.0</ele><time>2026-04-05T09:33:45Z</time></trkpt><trkpt lat="44.60727798454361" lon="8.66234300032365"><ele>231.0</ele><time>2026-04-05T09:33:46Z</time></trkpt><trkpt lat="44.60708141178896" lon="8.662287211370618"><ele>231.0</ele><time>2026-04-05T09:33:47Z</time></trkpt><trkpt lat="44.606864341659175" lon="8.662204707654407"><ele>226.5</ele><time>2026-04-05T09:33:48Z</time></trkpt><trkpt lat="44.606604153280756" lon="8.662134040009946"><ele>222.0</ele><time>2026-04-05T09:33:49Z</time></trkpt><trkpt lat="44.606341602154025" lon="8.662062730657125"><ele>222.33333333333331</ele><time>2026-04-05T09:33:50Z</time></trkpt><trkpt lat="44.60611376232204" lon="8.662000848947358"><ele>222.66666666666666</ele><time>2026-04-05T09:33:51Z</time></trkpt><trkpt lat="44.605901146991776" lon="8.661951558818437"><ele>223.0</ele><time>2026-04-05T09:33:52Z</time></trkpt><trkpt lat="44.605661787843694" lon="8.6619340397382"><ele>223.0</ele><time>2026-04-05T09:33:53Z</time></trkpt><trkpt lat="44.60543010259991" lon="8.661952545269312"><ele>223.0</ele><time>2026-04-05T09:33:54Z</time></trkpt><trkpt lat="44.60524938925004" lon="8.661926790079246"><ele>223.0</ele><time>2026-04-05T09:33:55Z</time></trkpt><trkpt lat="44.60508779288069" lon="8.661936896684717"><ele>223.0</ele><time>2026-04-05T09:33:56Z</time></trkpt><trkpt lat="44.60493354619604" lon="8.661930706055935"><ele>223.0</ele><time>2026-04-05T09:33:57Z</time></trkpt><trkpt lat="44.6047935939625" lon="8.661934565762449"><ele>223.0</ele><time>2026-04-05T09:33:58Z</time></trkpt><trkpt lat="44.604641307437454" lon="8.661957465069097"><ele>223.0</ele><time>2026-04-05T09:33:59Z</time></trkpt><trkpt lat="44.604491677637604" lon="8.661991885899733"><ele>224.66666666666666</ele><time>2026-04-05T09:34:00Z</time></trkpt><trkpt lat="44.60434724099326" lon="8.662035152650802"><ele>226.33333333333331</ele><time>2026-04-05T09:34:01Z</time></trkpt><trkpt lat="44.60420878671639" lon="8.66211651607648"><ele>228.0</ele><time>2026-04-05T09:34:02Z</time></trkpt><trkpt lat="44.60407403046553" lon="8.662219016043164"><ele>228.0</ele><time>2026-04-05T09:34:03Z</time></trkpt><trkpt lat="44.6039616524762" lon="8.662344174036752"><ele>228.0</ele><time>2026-04-05T09:34:04Z</time></trkpt><trkpt lat="44.603850155554845" lon="8.662459285930908"><ele>228.0</ele><time>2026-04-05T09:34:05Z</time></trkpt><trkpt lat="44.603753390826434" lon="8.662588154296724"><ele>228.0</ele><time>2026-04-05T09:34:06Z</time></trkpt><trkpt lat="44.603635393778895" lon="8.66271675642162"><ele>227.66666666666669</ele><time>2026-04-05T09:34:07Z</time></trkpt><trkpt lat="44.60349773774713" lon="8.662849402830672"><ele>227.33333333333334</ele><time>2026-04-05T09:34:08Z</time></trkpt><trkpt lat="44.603341248838845" lon="8.663007698831729"><ele>227.0</ele><time>2026-04-05T09:34:09Z</time></trkpt><trkpt lat="44.60312585286" lon="8.663141104545893"><ele>227.0</ele><time>2026-04-05T09:34:10Z</time></trkpt><trkpt lat="44.60288734525294" lon="8.663331030667935"><ele>227.0</ele><time>2026-04-05T09:34:11Z</time></trkpt><trkpt lat="44.602661351816295" lon="8.663493182369033"><ele>227.0</ele><time>2026-04-05T09:34:11.999Z</time></trkpt><trkpt lat="44.60245976912953" lon="8.663664860451524"><ele>227.0</ele><time>2026-04-05T09:34:12.999Z</time></trkpt><trkpt lat="44.602282032863904" lon="8.663833066797917"><ele>227.0</ele><time>2026-04-05T09:34:13.999Z</time></trkpt><trkpt lat="44.60211870074127" lon="8.664009264940754"><ele>227.0</ele><time>2026-04-05T09:34:14.999Z</time></trkpt><trkpt lat="44.60197949428772" lon="8.664174811281299"><ele>227.0</ele><time>2026-04-05T09:34:15.999Z</time></trkpt><trkpt lat="44.60185285336398" lon="8.664282382366178"><ele>226.33333333333334</ele><time>2026-04-05T09:34:16.999Z</time></trkpt><trkpt lat="44.60166168474927" lon="8.664425095949982"><ele>225.66666666666669</ele><time>2026-04-05T09:34:17.999Z</time></trkpt><trkpt lat="44.6014690697951" lon="8.664505272745858"><ele>225.0</ele><time>2026-04-05T09:34:18.999Z</time></trkpt><trkpt lat="44.60130984491793" lon="8.664576627044744"><ele>226.66666666666669</ele><time>2026-04-05T09:34:19.999Z</time></trkpt><trkpt lat="44.60116101271044" lon="8.664614887836759"><ele>228.33333333333334</ele><time>2026-04-05T09:34:20.999Z</time></trkpt><trkpt lat="44.60101710941273" lon="8.664674303745478"><ele>230.0</ele><time>2026-04-05T09:34:21.999Z</time></trkpt><trkpt lat="44.60086295063821" lon="8.66465135782275"><ele>230.0</ele><time>2026-04-05T09:34:22.999Z</time></trkpt><trkpt lat="44.600676020578966" lon="8.664601923329961"><ele>230.0</ele><time>2026-04-05T09:34:23.999Z</time></trkpt><trkpt lat="44.60045337842451" lon="8.664547326293102"><ele>230.0</ele><time>2026-04-05T09:34:24.999Z</time></trkpt><trkpt lat="44.600221257469215" lon="8.664484799061148"><ele>239.5</ele><time>2026-04-05T09:34:25.999Z</time></trkpt><trkpt lat="44.59996846309043" lon="8.664428219008965"><ele>249.0</ele><time>2026-04-05T09:34:26.999Z</time></trkpt><trkpt lat="44.59972689395722" lon="8.66435733680299"><ele>249.0</ele><time>2026-04-05T09:34:27.999Z</time></trkpt><trkpt lat="44.59950311225534" lon="8.664282832434433"><ele>249.0</ele><time>2026-04-05T09:34:28.999Z</time></trkpt><trkpt lat="44.59929674198614" lon="8.66423962636363"><ele>249.0</ele><time>2026-04-05T09:34:29.999Z</time></trkpt><trkpt lat="44.59912630786403" lon="8.664170819497082"><ele>246.66666666666669</ele><time>2026-04-05T09:34:30.999Z</time></trkpt><trkpt lat="44.59895456266038" lon="8.664146961527605"><ele>244.33333333333334</ele><time>2026-04-05T09:34:31.999Z</time></trkpt><trkpt lat="44.598764788742294" lon="8.664121332522951"><ele>242.0</ele><time>2026-04-05T09:34:32.999Z</time></trkpt><trkpt lat="44.598561951302514" lon="8.664132109246347"><ele>242.0</ele><time>2026-04-05T09:34:33.999Z</time></trkpt><trkpt lat="44.59834603402939" lon="8.664194020164087"><ele>242.0</ele><time>2026-04-05T09:34:34.999Z</time></trkpt><trkpt lat="44.5981376257565" lon="8.664275216639226"><ele>242.0</ele><time>2026-04-05T09:34:35.999Z</time></trkpt><trkpt lat="44.59791536420829" lon="8.664343706479892"><ele>238.66666666666669</ele><time>2026-04-05T09:34:36.999Z</time></trkpt><trkpt lat="44.59770655527336" lon="8.664442272178622"><ele>235.33333333333331</ele><time>2026-04-05T09:34:37.999Z</time></trkpt><trkpt lat="44.59753461549008" lon="8.664475515003845"><ele>232.0</ele><time>2026-04-05T09:34:38.999Z</time></trkpt><trkpt lat="44.59736494873731" lon="8.664529288729911"><ele>232.0</ele><time>2026-04-05T09:34:39.999Z</time></trkpt><trkpt lat="44.59720432897713" lon="8.66456183436094"><ele>232.0</ele><time>2026-04-05T09:34:40.999Z</time></trkpt><trkpt lat="44.59700616185859" lon="8.664556533313181"><ele>232.0</ele><time>2026-04-05T09:34:41.999Z</time></trkpt><trkpt lat="44.59679717883219" lon="8.664556773473285"><ele>233.66666666666666</ele><time>2026-04-05T09:34:42.999Z</time></trkpt><trkpt lat="44.59659200292911" lon="8.664520018444877"><ele>235.33333333333331</ele><time>2026-04-05T09:34:43.999Z</time></trkpt><trkpt lat="44.59639208984443" lon="8.664522190979874"><ele>237.0</ele><time>2026-04-05T09:34:44.999Z</time></trkpt><trkpt lat="44.59616660741236" lon="8.664457889427863"><ele>242.5</ele><time>2026-04-05T09:34:45.999Z</time></trkpt><trkpt lat="44.59591003655881" lon="8.664382746862026"><ele>248.0</ele><time>2026-04-05T09:34:46.999Z</time></trkpt><trkpt lat="44.59562948221936" lon="8.664288479925599"><ele>248.0</ele><time>2026-04-05T09:34:47.999Z</time></trkpt><trkpt lat="44.59534030864482" lon="8.664212801520373"><ele>248.0</ele><time>2026-04-05T09:34:48.999Z</time></trkpt><trkpt lat="44.59508102982004" lon="8.664123528273484"><ele>244.0</ele><time>2026-04-05T09:34:49.999Z</time></trkpt><trkpt lat="44.59484115392734" lon="8.664024467947822"><ele>240.0</ele><time>2026-04-05T09:34:50.999Z</time></trkpt><trkpt lat="44.5946101461098" lon="8.663974417437501"><ele>239.0</ele><time>2026-04-05T09:34:51.999Z</time></trkpt><trkpt lat="44.59438766843548" lon="8.663885933271178"><ele>238.0</ele><time>2026-04-05T09:34:52.999Z</time></trkpt><trkpt lat="44.594162245868986" lon="8.663812625411888"><ele>238.0</ele><time>2026-04-05T09:34:53.999Z</time></trkpt><trkpt lat="44.59394413555245" lon="8.663736102837076"><ele>238.0</ele><time>2026-04-05T09:34:54.999Z</time></trkpt><trkpt lat="44.59371122425354" lon="8.663665415032778"><ele>240.0</ele><time>2026-04-05T09:34:55.999Z</time></trkpt><trkpt lat="44.593476388563595" lon="8.663588345637416"><ele>242.0</ele><time>2026-04-05T09:34:56.999Z</time></trkpt><trkpt lat="44.59324412322228" lon="8.663503861802477"><ele>242.0</ele><time>2026-04-05T09:34:57.999Z</time></trkpt><trkpt lat="44.5930119160951" lon="8.663401714763886"><ele>242.0</ele><time>2026-04-05T09:34:58.999Z</time></trkpt><trkpt lat="44.5928074966744" lon="8.6633461151398"><ele>243.0</ele><time>2026-04-05T09:34:59.999Z</time></trkpt><trkpt lat="44.592611889174535" lon="8.663285250224114"><ele>244.0</ele><time>2026-04-05T09:35:00.999Z</time></trkpt><trkpt lat="44.592416732290204" lon="8.663228995430325"><ele>245.0</ele><time>2026-04-05T09:35:01.999Z</time></trkpt><trkpt lat="44.59223890708609" lon="8.66316217301839"><ele>245.0</ele><time>2026-04-05T09:35:02.999Z</time></trkpt><trkpt lat="44.59206310857745" lon="8.663108821246976"><ele>245.0</ele><time>2026-04-05T09:35:03.999Z</time></trkpt><trkpt lat="44.59190111712181" lon="8.663053846247532"><ele>245.0</ele><time>2026-04-05T09:35:04.999Z</time></trkpt><trkpt lat="44.59176947858081" lon="8.662999628898792"><ele>242.25</ele><time>2026-04-05T09:35:05.999Z</time></trkpt><trkpt lat="44.59165397599988" lon="8.662925532315292"><ele>239.5</ele><time>2026-04-05T09:35:06.999Z</time></trkpt><trkpt lat="44.59154431743239" lon="8.662856514601241"><ele>236.75</ele><time>2026-04-05T09:35:07.999Z</time></trkpt><trkpt lat="44.591440598618874" lon="8.66279933651919"><ele>234.0</ele><time>2026-04-05T09:35:08.999Z</time></trkpt><trkpt lat="44.59134825302865" lon="8.662746069823822"><ele>236.5</ele><time>2026-04-05T09:35:09.999Z</time></trkpt><trkpt lat="44.591267649621436" lon="8.662696717367249"><ele>239.0</ele><time>2026-04-05T09:35:10.999Z</time></trkpt><trkpt lat="44.59119544113152" lon="8.662642410854632"><ele>241.5</ele><time>2026-04-05T09:35:11.999Z</time></trkpt><trkpt lat="44.5911243664899" lon="8.66261916606294"><ele>244.0</ele><time>2026-04-05T09:35:12.999Z</time></trkpt><trkpt lat="44.59106733503996" lon="8.662574142343747"><ele>246.5</ele><time>2026-04-05T09:35:13.999Z</time></trkpt><trkpt lat="44.590990249645905" lon="8.662492717262438"><ele>249.0</ele><time>2026-04-05T09:35:14.999Z</time></trkpt><trkpt lat="44.59091024776925" lon="8.662478209301838"><ele>249.0</ele><time>2026-04-05T09:35:15.999Z</time></trkpt><trkpt lat="44.59083731154825" lon="8.662452528927565"><ele>248.99999999999997</ele><time>2026-04-05T09:35:17Z</time></trkpt><trkpt lat="44.590765402798056" lon="8.662427000676145"><ele>249.0</ele><time>2026-04-05T09:35:18Z</time></trkpt><trkpt lat="44.5906946131152" lon="8.662401348879946"><ele>249.0</ele><time>2026-04-05T09:35:19Z</time></trkpt><trkpt lat="44.590620173118104" lon="8.662378359752443"><ele>248.99999999999997</ele><time>2026-04-05T09:35:20Z</time></trkpt><trkpt lat="44.59054410839997" lon="8.662353317051242"><ele>249.0</ele><time>2026-04-05T09:35:21Z</time></trkpt><trkpt lat="44.59048567052442" lon="8.662308808315958"><ele>249.0</ele><time>2026-04-05T09:35:22Z</time></trkpt><trkpt lat="44.590416019388385" lon="8.662285122693731"><ele>249.0</ele><time>2026-04-05T09:35:23Z</time></trkpt><trkpt lat="44.59034781715846" lon="8.662241351152954"><ele>248.99999999999997</ele><time>2026-04-05T09:35:24Z</time></trkpt><trkpt lat="44.59027036664449" lon="8.66222868221689"><ele>249.0</ele><time>2026-04-05T09:35:25Z</time></trkpt><trkpt lat="44.59020177620069" lon="8.662199133956214"><ele>249.0</ele><time>2026-04-05T09:35:26Z</time></trkpt><trkpt lat="44.59012853895524" lon="8.662184114263768"><ele>248.99999999999997</ele><time>2026-04-05T09:35:27Z</time></trkpt><trkpt lat="44.590053797691525" lon="8.662179183606817"><ele>249.0</ele><time>2026-04-05T09:35:28Z</time></trkpt><trkpt lat="44.589981889937775" lon="8.662171276904896"><ele>249.0</ele><time>2026-04-05T09:35:29Z</time></trkpt><trkpt lat="44.58991333180751" lon="8.662168741992817"><ele>247.33333333333334</ele><time>2026-04-05T09:35:30Z</time></trkpt><trkpt lat="44.58984147497121" lon="8.662172030428028"><ele>245.66666666666669</ele><time>2026-04-05T09:35:31Z</time></trkpt><trkpt lat="44.58975910576154" lon="8.662170259747656"><ele>244.0</ele><time>2026-04-05T09:35:32Z</time></trkpt><trkpt lat="44.58966932563687" lon="8.662167465868693"><ele>242.33333333333334</ele><time>2026-04-05T09:35:33Z</time></trkpt><trkpt lat="44.58957450107861" lon="8.662171911149546"><ele>240.66666666666669</ele><time>2026-04-05T09:35:34Z</time></trkpt><trkpt lat="44.58946943146855" lon="8.662183293283807"><ele>239.0</ele><time>2026-04-05T09:35:35Z</time></trkpt><trkpt lat="44.589355415272884" lon="8.662179038597115"><ele>239.0</ele><time>2026-04-05T09:35:36Z</time></trkpt><trkpt lat="44.589224092805075" lon="8.662183121562112"><ele>239.0</ele><time>2026-04-05T09:35:37Z</time></trkpt><trkpt lat="44.58906941910587" lon="8.662202867920877"><ele>239.0</ele><time>2026-04-05T09:35:38Z</time></trkpt><trkpt lat="44.58887036282076" lon="8.66221733144377"><ele>242.5</ele><time>2026-04-05T09:35:39Z</time></trkpt><trkpt lat="44.58862195923541" lon="8.662252768042332"><ele>246.0</ele><time>2026-04-05T09:35:40Z</time></trkpt><trkpt lat="44.588359876614064" lon="8.6622768195277"><ele>246.0</ele><time>2026-04-05T09:35:41Z</time></trkpt><trkpt lat="44.58807163672517" lon="8.662290126828601"><ele>246.0</ele><time>2026-04-05T09:35:42Z</time></trkpt><trkpt lat="44.58779960329515" lon="8.662290328929787"><ele>250.0</ele><time>2026-04-05T09:35:43Z</time></trkpt><trkpt lat="44.58756586912208" lon="8.662307434783525"><ele>254.0</ele><time>2026-04-05T09:35:44Z</time></trkpt><trkpt lat="44.58734534018281" lon="8.662342924288655"><ele>254.0</ele><time>2026-04-05T09:35:45Z</time></trkpt><trkpt lat="44.58712443293442" lon="8.662371060854738"><ele>254.0</ele><time>2026-04-05T09:35:46Z</time></trkpt><trkpt lat="44.58691133472787" lon="8.66237278879638"><ele>254.0</ele><time>2026-04-05T09:35:47Z</time></trkpt><trkpt lat="44.58670056032587" lon="8.662390182055644"><ele>255.0</ele><time>2026-04-05T09:35:48Z</time></trkpt><trkpt lat="44.586498676895886" lon="8.662422291507477"><ele>256.0</ele><time>2026-04-05T09:35:49Z</time></trkpt><trkpt lat="44.58629620486745" lon="8.662471224839747"><ele>257.0</ele><time>2026-04-05T09:35:50Z</time></trkpt><trkpt lat="44.58609508003947" lon="8.662556414917878"><ele>260.0</ele><time>2026-04-05T09:35:51Z</time></trkpt><trkpt lat="44.58586647646442" lon="8.662673659422044"><ele>263.0</ele><time>2026-04-05T09:35:52Z</time></trkpt><trkpt lat="44.58561281850006" lon="8.662831970415251"><ele>262.5</ele><time>2026-04-05T09:35:53Z</time></trkpt><trkpt lat="44.58537656222861" lon="8.662984090963471"><ele>262.0</ele><time>2026-04-05T09:35:54Z</time></trkpt><trkpt lat="44.5851782736142" lon="8.663164960063394"><ele>262.0</ele><time>2026-04-05T09:35:55Z</time></trkpt><trkpt lat="44.58497469062052" lon="8.663282231696488"><ele>262.0</ele><time>2026-04-05T09:35:56Z</time></trkpt><trkpt lat="44.58477654006979" lon="8.663378192982169"><ele>262.0</ele><time>2026-04-05T09:35:57Z</time></trkpt><trkpt lat="44.584593121167124" lon="8.663476097329923"><ele>260.3333333333333</ele><time>2026-04-05T09:35:58Z</time></trkpt><trkpt lat="44.584435944298555" lon="8.66355625852468"><ele>258.6666666666667</ele><time>2026-04-05T09:35:59Z</time></trkpt><trkpt lat="44.584274660741876" lon="8.663650398889905"><ele>257.0</ele><time>2026-04-05T09:36:00Z</time></trkpt><trkpt lat="44.58410110384683" lon="8.6637299451271"><ele>257.0</ele><time>2026-04-05T09:36:01Z</time></trkpt><trkpt lat="44.58393817270048" lon="8.663825722261208"><ele>257.0</ele><time>2026-04-05T09:36:02Z</time></trkpt><trkpt lat="44.58377497235879" lon="8.663936416550632"><ele>257.0</ele><time>2026-04-05T09:36:03Z</time></trkpt><trkpt lat="44.58363293873077" lon="8.66405160966945"><ele>261.0</ele><time>2026-04-05T09:36:04Z</time></trkpt><trkpt lat="44.58353287919539" lon="8.664134235377626"><ele>265.0</ele><time>2026-04-05T09:36:05Z</time></trkpt><trkpt lat="44.58343598722266" lon="8.664223360488078"><ele>269.0</ele><time>2026-04-05T09:36:06Z</time></trkpt><trkpt lat="44.583347771278554" lon="8.664301004486235"><ele>273.0</ele><time>2026-04-05T09:36:07Z</time></trkpt><trkpt lat="44.58324021848536" lon="8.664401129606865"><ele>271.5</ele><time>2026-04-05T09:36:08Z</time></trkpt><trkpt lat="44.583148719265004" lon="8.664492278714755"><ele>270.0</ele><time>2026-04-05T09:36:09Z</time></trkpt><trkpt lat="44.583030153299546" lon="8.664617914385868"><ele>268.5</ele><time>2026-04-05T09:36:10Z</time></trkpt><trkpt lat="44.582905378093656" lon="8.664714730158856"><ele>267.0</ele><time>2026-04-05T09:36:11Z</time></trkpt><trkpt lat="44.582763502904" lon="8.664790088966663"><ele>267.0</ele><time>2026-04-05T09:36:12Z</time></trkpt><trkpt lat="44.58260388753222" lon="8.664839261799306"><ele>267.0</ele><time>2026-04-05T09:36:13Z</time></trkpt><trkpt lat="44.58246437951367" lon="8.664860767981216"><ele>267.0</ele><time>2026-04-05T09:36:14Z</time></trkpt><trkpt lat="44.5823414352684" lon="8.664873984221346"><ele>267.0</ele><time>2026-04-05T09:36:15Z</time></trkpt><trkpt lat="44.582228983065754" lon="8.66483211317281"><ele>267.0</ele><time>2026-04-05T09:36:16Z</time></trkpt><trkpt lat="44.582124019398805" lon="8.6647378874173"><ele>267.0</ele><time>2026-04-05T09:36:17Z</time></trkpt><trkpt lat="44.58203370311327" lon="8.664606242725116"><ele>267.0</ele><time>2026-04-05T09:36:18Z</time></trkpt><trkpt lat="44.5819452215255" lon="8.664395565899806"><ele>267.0</ele><time>2026-04-05T09:36:19Z</time></trkpt><trkpt lat="44.58184241770076" lon="8.664149696878335"><ele>266.5</ele><time>2026-04-05T09:36:19.999Z</time></trkpt><trkpt lat="44.5817200945238" lon="8.663884142728381"><ele>266.0</ele><time>2026-04-05T09:36:20.999Z</time></trkpt><trkpt lat="44.581582603073976" lon="8.663618112954168"><ele>275.33333333333337</ele><time>2026-04-05T09:36:21.999Z</time></trkpt><trkpt lat="44.58147066633075" lon="8.663384691509169"><ele>284.6666666666667</ele><time>2026-04-05T09:36:22.999Z</time></trkpt><trkpt lat="44.58137234636017" lon="8.66315791589014"><ele>294.0</ele><time>2026-04-05T09:36:23.999Z</time></trkpt><trkpt lat="44.581284742531174" lon="8.6629341966049"><ele>285.3333333333333</ele><time>2026-04-05T09:36:24.999Z</time></trkpt><trkpt lat="44.5812056780734" lon="8.66271848443922"><ele>276.66666666666663</ele><time>2026-04-05T09:36:25.999Z</time></trkpt><trkpt lat="44.581126277677846" lon="8.66251579617094"><ele>268.0</ele><time>2026-04-05T09:36:26.999Z</time></trkpt><trkpt lat="44.58100659997356" lon="8.662287983973414"><ele>268.0</ele><time>2026-04-05T09:36:27.999Z</time></trkpt><trkpt lat="44.580898013935936" lon="8.662083228608346"><ele>268.0</ele><time>2026-04-05T09:36:28.999Z</time></trkpt><trkpt lat="44.580817689451976" lon="8.661880574351743"><ele>268.0</ele><time>2026-04-05T09:36:29.999Z</time></trkpt><trkpt lat="44.58070523854985" lon="8.661696480410313"><ele>265.3333333333333</ele><time>2026-04-05T09:36:30.999Z</time></trkpt><trkpt lat="44.580557930273514" lon="8.66150087451172"><ele>262.6666666666667</ele><time>2026-04-05T09:36:31.999Z</time></trkpt><trkpt lat="44.58044190641831" lon="8.661340006706277"><ele>260.0</ele><time>2026-04-05T09:36:32.999Z</time></trkpt><trkpt lat="44.5803277361431" lon="8.661210514042578"><ele>272.6666666666667</ele><time>2026-04-05T09:36:33.999Z</time></trkpt><trkpt lat="44.58020495838992" lon="8.661079791791224"><ele>285.3333333333333</ele><time>2026-04-05T09:36:34.999Z</time></trkpt><trkpt lat="44.58007069050484" lon="8.660935930495613"><ele>298.0</ele><time>2026-04-05T09:36:35.999Z</time></trkpt><trkpt lat="44.57991072413407" lon="8.660814074275622"><ele>298.0</ele><time>2026-04-05T09:36:36.999Z</time></trkpt><trkpt lat="44.57976442815848" lon="8.660756647368844"><ele>298.0</ele><time>2026-04-05T09:36:37.999Z</time></trkpt><trkpt lat="44.57963172607066" lon="8.660656466302237"><ele>298.0</ele><time>2026-04-05T09:36:38.999Z</time></trkpt><trkpt lat="44.579500058769824" lon="8.660567706545462"><ele>298.0</ele><time>2026-04-05T09:36:39.999Z</time></trkpt><trkpt lat="44.57937509042975" lon="8.66042973298643"><ele>297.75</ele><time>2026-04-05T09:36:40.999Z</time></trkpt><trkpt lat="44.57927876090573" lon="8.66026419997516"><ele>297.5</ele><time>2026-04-05T09:36:41.999Z</time></trkpt><trkpt lat="44.579189761629365" lon="8.66012439069244"><ele>297.25</ele><time>2026-04-05T09:36:42.999Z</time></trkpt><trkpt lat="44.57910080773189" lon="8.660034636344406"><ele>297.0</ele><time>2026-04-05T09:36:43.999Z</time></trkpt><trkpt lat="44.57898023537166" lon="8.659997294655508"><ele>297.0</ele><time>2026-04-05T09:36:44.999Z</time></trkpt><trkpt lat="44.57880672631557" lon="8.660009302010982"><ele>297.0</ele><time>2026-04-05T09:36:45.999Z</time></trkpt><trkpt lat="44.57860449101292" lon="8.660026933466336"><ele>297.0</ele><time>2026-04-05T09:36:46.999Z</time></trkpt><trkpt lat="44.57836284834503" lon="8.660044892351966"><ele>295.3333333333333</ele><time>2026-04-05T09:36:47.999Z</time></trkpt><trkpt lat="44.57813166730966" lon="8.660048832412224"><ele>293.66666666666663</ele><time>2026-04-05T09:36:48.999Z</time></trkpt><trkpt lat="44.57794864972499" lon="8.66004707410941"><ele>292.0</ele><time>2026-04-05T09:36:49.999Z</time></trkpt><trkpt lat="44.57778907497867" lon="8.660031854003051"><ele>291.66666666666663</ele><time>2026-04-05T09:36:50.999Z</time></trkpt><trkpt lat="44.577620103380504" lon="8.65998049528201"><ele>291.3333333333333</ele><time>2026-04-05T09:36:51.999Z</time></trkpt><trkpt lat="44.57744019140194" lon="8.65988837651573"><ele>291.0</ele><time>2026-04-05T09:36:52.999Z</time></trkpt><trkpt lat="44.57727812715592" lon="8.659810991291469"><ele>291.0</ele><time>2026-04-05T09:36:53.999Z</time></trkpt><trkpt lat="44.57710164189349" lon="8.659780667481725"><ele>291.0</ele><time>2026-04-05T09:36:54.999Z</time></trkpt><trkpt lat="44.57694120308539" lon="8.659789412071246"><ele>291.0</ele><time>2026-04-05T09:36:55.999Z</time></trkpt><trkpt lat="44.576792718646814" lon="8.659827114408515"><ele>290.5</ele><time>2026-04-05T09:36:56.999Z</time></trkpt><trkpt lat="44.576670211452125" lon="8.65984209162772"><ele>290.0</ele><time>2026-04-05T09:36:57.999Z</time></trkpt><trkpt lat="44.57656085497105" lon="8.65980872686642"><ele>289.5</ele><time>2026-04-05T09:36:58.999Z</time></trkpt><trkpt lat="44.57647133561765" lon="8.65970644536529"><ele>289.0</ele><time>2026-04-05T09:36:59.999Z</time></trkpt><trkpt lat="44.57639581417518" lon="8.659570271695193"><ele>290.5</ele><time>2026-04-05T09:37:00.999Z</time></trkpt><trkpt lat="44.576324853147234" lon="8.659449397105952"><ele>292.0</ele><time>2026-04-05T09:37:01.999Z</time></trkpt><trkpt lat="44.576210426901575" lon="8.659403251651883"><ele>293.5</ele><time>2026-04-05T09:37:02.999Z</time></trkpt><trkpt lat="44.57608227764682" lon="8.659402762033972"><ele>295.0</ele><time>2026-04-05T09:37:03.999Z</time></trkpt><trkpt lat="44.57596077090523" lon="8.659454736900432"><ele>295.0</ele><time>2026-04-05T09:37:04.999Z</time></trkpt><trkpt lat="44.57585309221949" lon="8.659568374474047"><ele>295.0</ele><time>2026-04-05T09:37:05.999Z</time></trkpt><trkpt lat="44.5757578572466" lon="8.659723336239075"><ele>295.0</ele><time>2026-04-05T09:37:06.999Z</time></trkpt><trkpt lat="44.57564029679692" lon="8.65988549464559"><ele>295.0</ele><time>2026-04-05T09:37:07.999Z</time></trkpt><trkpt lat="44.57551465253354" lon="8.660006168934215"><ele>295.0</ele><time>2026-04-05T09:37:08.999Z</time></trkpt><trkpt lat="44.57541805725913" lon="8.66012081827821"><ele>295.0</ele><time>2026-04-05T09:37:09.999Z</time></trkpt><trkpt lat="44.57533417515464" lon="8.660241588052358"><ele>295.0</ele><time>2026-04-05T09:37:10.999Z</time></trkpt><trkpt lat="44.57532698934913" lon="8.6604367216027"><ele>295.0</ele><time>2026-04-05T09:37:11.999Z</time></trkpt><trkpt lat="44.575338783150514" lon="8.6606158299019"><ele>291.5</ele><time>2026-04-05T09:37:12.999Z</time></trkpt><trkpt lat="44.57536465405524" lon="8.66080170934856"><ele>288.0</ele><time>2026-04-05T09:37:13.999Z</time></trkpt><trkpt lat="44.575357412102626" lon="8.660988283300524"><ele>284.5</ele><time>2026-04-05T09:37:14.999Z</time></trkpt><trkpt lat="44.57531684279556" lon="8.66119153459317"><ele>281.0</ele><time>2026-04-05T09:37:15.999Z</time></trkpt><trkpt lat="44.57525587451064" lon="8.661386183801941"><ele>290.25</ele><time>2026-04-05T09:37:16.999Z</time></trkpt><trkpt lat="44.57519132331813" lon="8.661548408012315"><ele>299.5</ele><time>2026-04-05T09:37:17.999Z</time></trkpt><trkpt lat="44.57513229267795" lon="8.661680923199748"><ele>308.75</ele><time>2026-04-05T09:37:18.999Z</time></trkpt><trkpt lat="44.57512114194015" lon="8.661834149020445"><ele>318.0</ele><time>2026-04-05T09:37:19.999Z</time></trkpt><trkpt lat="44.57517109096618" lon="8.661997662493974"><ele>318.75</ele><time>2026-04-05T09:37:20.999Z</time></trkpt><trkpt lat="44.575262089465575" lon="8.662153282406187"><ele>319.5</ele><time>2026-04-05T09:37:21.999Z</time></trkpt><trkpt lat="44.575319258691216" lon="8.66234482836746"><ele>320.25</ele><time>2026-04-05T09:37:23Z</time></trkpt><trkpt lat="44.57535278384889" lon="8.662550963404303"><ele>321.0</ele><time>2026-04-05T09:37:24Z</time></trkpt><trkpt lat="44.575366792006555" lon="8.662766270185807"><ele>311.5</ele><time>2026-04-05T09:37:25Z</time></trkpt><trkpt lat="44.57537417897237" lon="8.662970397941077"><ele>302.0</ele><time>2026-04-05T09:37:26Z</time></trkpt><trkpt lat="44.575360401972034" lon="8.663159038462185"><ele>292.5</ele><time>2026-04-05T09:37:27Z</time></trkpt><trkpt lat="44.57536539802314" lon="8.663323632530885"><ele>283.0</ele><time>2026-04-05T09:37:28Z</time></trkpt><trkpt lat="44.575415184735164" lon="8.663474414584531"><ele>283.0</ele><time>2026-04-05T09:37:29Z</time></trkpt><trkpt lat="44.575456701631424" lon="8.663605671347383"><ele>283.0</ele><time>2026-04-05T09:37:30Z</time></trkpt><trkpt lat="44.57547554667001" lon="8.663753108677373"><ele>283.0</ele><time>2026-04-05T09:37:31Z</time></trkpt><trkpt lat="44.57546168182863" lon="8.663925039136798"><ele>283.0</ele><time>2026-04-05T09:37:32Z</time></trkpt><trkpt lat="44.575435436256264" lon="8.664109523797725"><ele>282.75</ele><time>2026-04-05T09:37:33Z</time></trkpt><trkpt lat="44.575410032113986" lon="8.664291962808624"><ele>282.5</ele><time>2026-04-05T09:37:34Z</time></trkpt><trkpt lat="44.57538533991821" lon="8.664463040304991"><ele>282.25</ele><time>2026-04-05T09:37:35Z</time></trkpt><trkpt lat="44.575350620457144" lon="8.664628953319514"><ele>282.0</ele><time>2026-04-05T09:37:36Z</time></trkpt><trkpt lat="44.57533015937574" lon="8.664793901780493"><ele>287.0</ele><time>2026-04-05T09:37:37Z</time></trkpt><trkpt lat="44.5753107952478" lon="8.664957031336106"><ele>292.0</ele><time>2026-04-05T09:37:38Z</time></trkpt><trkpt lat="44.57530155027161" lon="8.66511892478237"><ele>297.0</ele><time>2026-04-05T09:37:39Z</time></trkpt><trkpt lat="44.57530149547787" lon="8.665279513954307"><ele>302.0</ele><time>2026-04-05T09:37:40Z</time></trkpt><trkpt lat="44.575312152568934" lon="8.66544555905413"><ele>303.5</ele><time>2026-04-05T09:37:41Z</time></trkpt><trkpt lat="44.5753228875291" lon="8.665614489925375"><ele>305.0</ele><time>2026-04-05T09:37:42Z</time></trkpt><trkpt lat="44.57533187083705" lon="8.665789106971564"><ele>306.5</ele><time>2026-04-05T09:37:43Z</time></trkpt><trkpt lat="44.57534093185062" lon="8.665959131858882"><ele>308.0</ele><time>2026-04-05T09:37:44Z</time></trkpt><trkpt lat="44.57534809787654" lon="8.666126355468721"><ele>310.25</ele><time>2026-04-05T09:37:45Z</time></trkpt><trkpt lat="44.57536487302735" lon="8.66630486769146"><ele>312.5</ele><time>2026-04-05T09:37:46Z</time></trkpt><trkpt lat="44.57537460715533" lon="8.666468711595165"><ele>314.75</ele><time>2026-04-05T09:37:47Z</time></trkpt><trkpt lat="44.57536667048455" lon="8.66661977907615"><ele>317.0</ele><time>2026-04-05T09:37:48Z</time></trkpt><trkpt lat="44.57533366733402" lon="8.66676864964456"><ele>317.0</ele><time>2026-04-05T09:37:49Z</time></trkpt><trkpt lat="44.57527523518983" lon="8.666919683856428"><ele>317.0</ele><time>2026-04-05T09:37:50Z</time></trkpt><trkpt lat="44.57519765732839" lon="8.667029971348773"><ele>317.0</ele><time>2026-04-05T09:37:51Z</time></trkpt><trkpt lat="44.57513067044222" lon="8.667139570281384"><ele>317.0</ele><time>2026-04-05T09:37:52Z</time></trkpt><trkpt lat="44.57506362878687" lon="8.667248826132846"><ele>317.0</ele><time>2026-04-05T09:37:53Z</time></trkpt><trkpt lat="44.57497924358549" lon="8.667334978088652"><ele>313.8</ele><time>2026-04-05T09:37:54Z</time></trkpt><trkpt lat="44.574877715569095" lon="8.667394476963624"><ele>310.6</ele><time>2026-04-05T09:37:55Z</time></trkpt><trkpt lat="44.57477161884812" lon="8.66742908044264"><ele>307.40000000000003</ele><time>2026-04-05T09:37:56Z</time></trkpt><trkpt lat="44.574666378968374" lon="8.667430906898403"><ele>304.2</ele><time>2026-04-05T09:37:57Z</time></trkpt><trkpt lat="44.57455067143158" lon="8.667413204298278"><ele>301.0</ele><time>2026-04-05T09:37:58Z</time></trkpt><trkpt lat="44.57444889552896" lon="8.66738099921405"><ele>301.0</ele><time>2026-04-05T09:37:59Z</time></trkpt><trkpt lat="44.574350456076516" lon="8.66734336580749"><ele>301.0</ele><time>2026-04-05T09:38:00Z</time></trkpt><trkpt lat="44.574247956874714" lon="8.667314719046232"><ele>301.0</ele><time>2026-04-05T09:38:01Z</time></trkpt><trkpt lat="44.57414192798418" lon="8.667277388329447"><ele>301.0</ele><time>2026-04-05T09:38:02Z</time></trkpt><trkpt lat="44.57402271914423" lon="8.667248078182501"><ele>301.0</ele><time>2026-04-05T09:38:03Z</time></trkpt><trkpt lat="44.57389808302237" lon="8.667209942238689"><ele>301.0</ele><time>2026-04-05T09:38:04Z</time></trkpt><trkpt lat="44.573774851183344" lon="8.66716957519325"><ele>301.0</ele><time>2026-04-05T09:38:05Z</time></trkpt><trkpt lat="44.5736475980385" lon="8.667138189713326"><ele>301.0</ele><time>2026-04-05T09:38:06Z</time></trkpt><trkpt lat="44.57351851682846" lon="8.667127828321378"><ele>301.0</ele><time>2026-04-05T09:38:07Z</time></trkpt><trkpt lat="44.573393279142316" lon="8.66713797570705"><ele>300.5</ele><time>2026-04-05T09:38:08Z</time></trkpt><trkpt lat="44.5732605012293" lon="8.667163324093744"><ele>300.0</ele><time>2026-04-05T09:38:09Z</time></trkpt><trkpt lat="44.57312812536586" lon="8.667203348122207"><ele>299.5</ele><time>2026-04-05T09:38:10Z</time></trkpt><trkpt lat="44.57300012948633" lon="8.667257941049089"><ele>299.0</ele><time>2026-04-05T09:38:11Z</time></trkpt><trkpt lat="44.57287501731991" lon="8.667342322565432"><ele>299.75</ele><time>2026-04-05T09:38:12Z</time></trkpt><trkpt lat="44.57276568948" lon="8.667449719515664"><ele>300.5</ele><time>2026-04-05T09:38:13Z</time></trkpt><trkpt lat="44.57265506749649" lon="8.667537797903444"><ele>301.25</ele><time>2026-04-05T09:38:14Z</time></trkpt><trkpt lat="44.572513303135494" lon="8.667567985508416"><ele>302.0</ele><time>2026-04-05T09:38:15Z</time></trkpt><trkpt lat="44.572367203740626" lon="8.667562209914871"><ele>302.0</ele><time>2026-04-05T09:38:16Z</time></trkpt><trkpt lat="44.57221122015594" lon="8.667531461237191"><ele>302.0</ele><time>2026-04-05T09:38:17Z</time></trkpt><trkpt lat="44.57206666936746" lon="8.667484207663769"><ele>302.0</ele><time>2026-04-05T09:38:18Z</time></trkpt><trkpt lat="44.5719291263895" lon="8.667425823748983"><ele>300.25</ele><time>2026-04-05T09:38:19Z</time></trkpt><trkpt lat="44.571798628697586" lon="8.667338814333323"><ele>298.5</ele><time>2026-04-05T09:38:20Z</time></trkpt><trkpt lat="44.57168071631842" lon="8.667230783751661"><ele>296.75</ele><time>2026-04-05T09:38:21Z</time></trkpt><trkpt lat="44.57156147096348" lon="8.667134469722876"><ele>295.0</ele><time>2026-04-05T09:38:22Z</time></trkpt><trkpt lat="44.571447900770764" lon="8.66703547847538"><ele>295.0</ele><time>2026-04-05T09:38:23Z</time></trkpt><trkpt lat="44.57131848717344" lon="8.666968838805838"><ele>295.0</ele><time>2026-04-05T09:38:24Z</time></trkpt><trkpt lat="44.571179105431625" lon="8.666913751624035"><ele>295.0</ele><time>2026-04-05T09:38:25Z</time></trkpt><trkpt lat="44.571039858338416" lon="8.666866514377139"><ele>295.0</ele><time>2026-04-05T09:38:26Z</time></trkpt><trkpt lat="44.570904703235506" lon="8.666837343322284"><ele>297.25</ele><time>2026-04-05T09:38:27Z</time></trkpt><trkpt lat="44.570767071699464" lon="8.666826901432232"><ele>299.5</ele><time>2026-04-05T09:38:28Z</time></trkpt><trkpt lat="44.57062962903418" lon="8.666815706047354"><ele>301.75</ele><time>2026-04-05T09:38:29Z</time></trkpt><trkpt lat="44.57049754547343" lon="8.666790424729628"><ele>304.0</ele><time>2026-04-05T09:38:29.999Z</time></trkpt><trkpt lat="44.57036295557418" lon="8.666756427407453"><ele>301.25</ele><time>2026-04-05T09:38:30.999Z</time></trkpt><trkpt lat="44.57022114307001" lon="8.666668316152714"><ele>298.5</ele><time>2026-04-05T09:38:31.999Z</time></trkpt><trkpt lat="44.570085781004295" lon="8.666559925086148"><ele>295.75</ele><time>2026-04-05T09:38:32.999Z</time></trkpt><trkpt lat="44.569966298065914" lon="8.666472078580437"><ele>293.0</ele><time>2026-04-05T09:38:33.999Z</time></trkpt><trkpt lat="44.56985174323651" lon="8.666413001542248"><ele>293.0</ele><time>2026-04-05T09:38:34.999Z</time></trkpt><trkpt lat="44.56973649700099" lon="8.666362326653818"><ele>293.0</ele><time>2026-04-05T09:38:35.999Z</time></trkpt><trkpt lat="44.5696145950839" lon="8.666307235371281"><ele>293.0</ele><time>2026-04-05T09:38:36.999Z</time></trkpt><trkpt lat="44.56949871738089" lon="8.666240989286065"><ele>293.0</ele><time>2026-04-05T09:38:37.999Z</time></trkpt><trkpt lat="44.569379527304875" lon="8.66614957599611"><ele>294.25</ele><time>2026-04-05T09:38:38.999Z</time></trkpt><trkpt lat="44.56925548812334" lon="8.666028481670619"><ele>295.5</ele><time>2026-04-05T09:38:39.999Z</time></trkpt><trkpt lat="44.56916112405085" lon="8.66591430402567"><ele>296.75</ele><time>2026-04-05T09:38:40.999Z</time></trkpt><trkpt lat="44.56906173447539" lon="8.665785745016288"><ele>298.0</ele><time>2026-04-05T09:38:41.999Z</time></trkpt><trkpt lat="44.568968408746414" lon="8.665648918172366"><ele>298.0</ele><time>2026-04-05T09:38:42.999Z</time></trkpt><trkpt lat="44.56885136924869" lon="8.665494226983371"><ele>298.0</ele><time>2026-04-05T09:38:43.999Z</time></trkpt><trkpt lat="44.56873972117746" lon="8.665320980743275"><ele>298.0</ele><time>2026-04-05T09:38:44.999Z</time></trkpt><trkpt lat="44.56863292233868" lon="8.66514509392094"><ele>298.0</ele><time>2026-04-05T09:38:45.999Z</time></trkpt><trkpt lat="44.56853514068013" lon="8.664978532147035"><ele>298.0</ele><time>2026-04-05T09:38:46.999Z</time></trkpt><trkpt lat="44.56844512074545" lon="8.664841932462462"><ele>298.0</ele><time>2026-04-05T09:38:47.999Z</time></trkpt><trkpt lat="44.56836869387429" lon="8.664723412925994"><ele>298.0</ele><time>2026-04-05T09:38:48.999Z</time></trkpt><trkpt lat="44.56829808700454" lon="8.664619991204647"><ele>298.0</ele><time>2026-04-05T09:38:49.999Z</time></trkpt><trkpt lat="44.56822641512579" lon="8.664529336107607"><ele>298.0</ele><time>2026-04-05T09:38:50.999Z</time></trkpt><trkpt lat="44.56815820381545" lon="8.664439293791713"><ele>298.0</ele><time>2026-04-05T09:38:51.999Z</time></trkpt><trkpt lat="44.56807955978049" lon="8.664338554250525"><ele>298.0</ele><time>2026-04-05T09:38:52.999Z</time></trkpt><trkpt lat="44.567994626102355" lon="8.664257714572123"><ele>298.0</ele><time>2026-04-05T09:38:53.999Z</time></trkpt><trkpt lat="44.56790784354936" lon="8.664195040648295"><ele>297.4</ele><time>2026-04-05T09:38:54.999Z</time></trkpt><trkpt lat="44.56781244069144" lon="8.664140335861974"><ele>296.8</ele><time>2026-04-05T09:38:55.999Z</time></trkpt><trkpt lat="44.56771070712014" lon="8.66410355411476"><ele>296.2</ele><time>2026-04-05T09:38:56.999Z</time></trkpt><trkpt lat="44.56760310130749" lon="8.66407168877893"><ele>295.6</ele><time>2026-04-05T09:38:57.999Z</time></trkpt><trkpt lat="44.56749332834009" lon="8.664051517809472"><ele>295.0</ele><time>2026-04-05T09:38:58.999Z</time></trkpt><trkpt lat="44.567392217382185" lon="8.664056264801468"><ele>295.0</ele><time>2026-04-05T09:38:59.999Z</time></trkpt><trkpt lat="44.56729131525704" lon="8.664075030593063"><ele>295.0</ele><time>2026-04-05T09:39:00.999Z</time></trkpt><trkpt lat="44.567176223339935" lon="8.664131673909322"><ele>295.0</ele><time>2026-04-05T09:39:01.999Z</time></trkpt><trkpt lat="44.56705229481367" lon="8.664189003308767"><ele>295.0</ele><time>2026-04-05T09:39:02.999Z</time></trkpt><trkpt lat="44.56691377045542" lon="8.66429106207728"><ele>296.0</ele><time>2026-04-05T09:39:03.999Z</time></trkpt><trkpt lat="44.56675833753923" lon="8.66447005941612"><ele>297.0</ele><time>2026-04-05T09:39:04.999Z</time></trkpt><trkpt lat="44.56665429224936" lon="8.664614658094676"><ele>298.0</ele><time>2026-04-05T09:39:05.999Z</time></trkpt><trkpt lat="44.566567315153335" lon="8.664735118164323"><ele>298.0</ele><time>2026-04-05T09:39:06.999Z</time></trkpt><trkpt lat="44.566457239829234" lon="8.664881831723138"><ele>298.0</ele><time>2026-04-05T09:39:07.999Z</time></trkpt><trkpt lat="44.56635375624045" lon="8.66502413159377"><ele>298.0</ele><time>2026-04-05T09:39:08.999Z</time></trkpt><trkpt lat="44.56625185083149" lon="8.665111621450725"><ele>298.0</ele><time>2026-04-05T09:39:09.999Z</time></trkpt><trkpt lat="44.566152125487456" lon="8.665175851603822"><ele>298.75</ele><time>2026-04-05T09:39:10.999Z</time></trkpt><trkpt lat="44.566039414846436" lon="8.665238300129088"><ele>299.5</ele><time>2026-04-05T09:39:11.999Z</time></trkpt><trkpt lat="44.565935453824224" lon="8.66532315012827"><ele>300.25</ele><time>2026-04-05T09:39:12.999Z</time></trkpt><trkpt lat="44.56583839925623" lon="8.665391500131248"><ele>301.0</ele><time>2026-04-05T09:39:13.999Z</time></trkpt><trkpt lat="44.56574012196746" lon="8.665447760086062"><ele>301.0</ele><time>2026-04-05T09:39:14.999Z</time></trkpt><trkpt lat="44.565646074685894" lon="8.665506388972865"><ele>301.0</ele><time>2026-04-05T09:39:15.999Z</time></trkpt><trkpt lat="44.56555740147837" lon="8.665555010108609"><ele>301.0</ele><time>2026-04-05T09:39:16.999Z</time></trkpt><trkpt lat="44.56547062399625" lon="8.665608551422224"><ele>301.0</ele><time>2026-04-05T09:39:17.999Z</time></trkpt><trkpt lat="44.56537512190737" lon="8.665665370426325"><ele>301.0</ele><time>2026-04-05T09:39:18.999Z</time></trkpt><trkpt lat="44.565275895969236" lon="8.665722832099213"><ele>301.2</ele><time>2026-04-05T09:39:19.999Z</time></trkpt><trkpt lat="44.565185437380826" lon="8.665809681625701"><ele>301.40000000000003</ele><time>2026-04-05T09:39:20.999Z</time></trkpt><trkpt lat="44.56510233290762" lon="8.665916911809376"><ele>301.6</ele><time>2026-04-05T09:39:21.999Z</time></trkpt><trkpt lat="44.56502696053559" lon="8.666020614736366"><ele>301.8</ele><time>2026-04-05T09:39:22.999Z</time></trkpt><trkpt lat="44.56496117289037" lon="8.666120559585806"><ele>302.0</ele><time>2026-04-05T09:39:23.999Z</time></trkpt><trkpt lat="44.56489708006435" lon="8.666224831019031"><ele>302.0</ele><time>2026-04-05T09:39:24.999Z</time></trkpt><trkpt lat="44.564821091015574" lon="8.666334234499503"><ele>302.0</ele><time>2026-04-05T09:39:25.999Z</time></trkpt><trkpt lat="44.56473607900222" lon="8.666450551354846"><ele>302.0</ele><time>2026-04-05T09:39:26.999Z</time></trkpt><trkpt lat="44.56465560150677" lon="8.66657459440288"><ele>302.0</ele><time>2026-04-05T09:39:27.999Z</time></trkpt><trkpt lat="44.564570390684246" lon="8.666694581262908"><ele>303.25</ele><time>2026-04-05T09:39:29Z</time></trkpt><trkpt lat="44.564483957070365" lon="8.666820601485732"><ele>304.5</ele><time>2026-04-05T09:39:30Z</time></trkpt><trkpt lat="44.56439912799128" lon="8.666942331964217"><ele>305.75</ele><time>2026-04-05T09:39:31Z</time></trkpt><trkpt lat="44.56431203675764" lon="8.667077265919472"><ele>307.0</ele><time>2026-04-05T09:39:32Z</time></trkpt><trkpt lat="44.56422359553941" lon="8.667204162561955"><ele>307.0</ele><time>2026-04-05T09:39:33Z</time></trkpt><trkpt lat="44.564157645444716" lon="8.667340310351625"><ele>307.0</ele><time>2026-04-05T09:39:34Z</time></trkpt><trkpt lat="44.56411286655667" lon="8.66747785138707"><ele>307.0</ele><time>2026-04-05T09:39:35Z</time></trkpt><trkpt lat="44.56407812569191" lon="8.667610712763695"><ele>307.0</ele><time>2026-04-05T09:39:36Z</time></trkpt><trkpt lat="44.56405074084703" lon="8.667740417865277"><ele>307.0</ele><time>2026-04-05T09:39:37Z</time></trkpt><trkpt lat="44.56402262269855" lon="8.667870266490658"><ele>306.5</ele><time>2026-04-05T09:39:38Z</time></trkpt><trkpt lat="44.56398054955035" lon="8.667978782042956"><ele>306.0</ele><time>2026-04-05T09:39:39Z</time></trkpt><trkpt lat="44.5639296904144" lon="8.668065794197497"><ele>305.5</ele><time>2026-04-05T09:39:40Z</time></trkpt><trkpt lat="44.56388282068181" lon="8.668135396766363"><ele>305.0</ele><time>2026-04-05T09:39:41Z</time></trkpt><trkpt lat="44.563838465374076" lon="8.668198277660624"><ele>304.5</ele><time>2026-04-05T09:39:43Z</time></trkpt><trkpt lat="44.56375523018643" lon="8.66828686667006"><ele>304.0</ele><time>2026-04-05T09:39:46Z</time></trkpt><trkpt lat="44.56367219952389" lon="8.668390638609475"><ele>304.0</ele><time>2026-04-05T09:39:48Z</time></trkpt><trkpt lat="44.56362101607182" lon="8.668461231180974"><ele>304.0</ele><time>2026-04-05T09:39:49Z</time></trkpt><trkpt lat="44.56356644954382" lon="8.668533365132536"><ele>304.0</ele><time>2026-04-05T09:39:50Z</time></trkpt><trkpt lat="44.563507848164434" lon="8.66860778075216"><ele>304.0</ele><time>2026-04-05T09:39:51Z</time></trkpt><trkpt lat="44.563447186261946" lon="8.668694011306554"><ele>304.0</ele><time>2026-04-05T09:39:52Z</time></trkpt><trkpt lat="44.56336590192089" lon="8.66875409997631"><ele>304.0</ele><time>2026-04-05T09:39:53Z</time></trkpt><trkpt lat="44.56328537911695" lon="8.668864867238305"><ele>302.59999999999997</ele><time>2026-04-05T09:39:54Z</time></trkpt><trkpt lat="44.56320925411254" lon="8.668982126121497"><ele>301.2</ele><time>2026-04-05T09:39:55Z</time></trkpt><trkpt lat="44.56312998062299" lon="8.669061068130556"><ele>299.79999999999995</ele><time>2026-04-05T09:39:56Z</time></trkpt><trkpt lat="44.563054047366755" lon="8.669165719713458"><ele>298.4</ele><time>2026-04-05T09:39:57Z</time></trkpt><trkpt lat="44.56298880120604" lon="8.669264728077572"><ele>297.0</ele><time>2026-04-05T09:39:58Z</time></trkpt><trkpt lat="44.56291514800131" lon="8.669366223986136"><ele>297.6</ele><time>2026-04-05T09:39:59Z</time></trkpt><trkpt lat="44.56283103713586" lon="8.669452874379397"><ele>298.2</ele><time>2026-04-05T09:40:00Z</time></trkpt><trkpt lat="44.562752597368124" lon="8.669551641562796"><ele>298.8</ele><time>2026-04-05T09:40:01Z</time></trkpt><trkpt lat="44.562668666511" lon="8.66964907434513"><ele>299.4</ele><time>2026-04-05T09:40:02Z</time></trkpt><trkpt lat="44.562582261597115" lon="8.66975147525535"><ele>300.0</ele><time>2026-04-05T09:40:03Z</time></trkpt><trkpt lat="44.56245918371607" lon="8.669872676896727"><ele>300.0</ele><time>2026-04-05T09:40:04Z</time></trkpt><trkpt lat="44.56232023306896" lon="8.669989964179267"><ele>300.0</ele><time>2026-04-05T09:40:05Z</time></trkpt><trkpt lat="44.56219413581125" lon="8.670078989389033"><ele>300.0</ele><time>2026-04-05T09:40:06Z</time></trkpt><trkpt lat="44.562083423505506" lon="8.670155372727853"><ele>300.0</ele><time>2026-04-05T09:40:07Z</time></trkpt><trkpt lat="44.56196821462254" lon="8.670224205207864"><ele>299.2</ele><time>2026-04-05T09:40:08Z</time></trkpt><trkpt lat="44.5618568039183" lon="8.670295404061603"><ele>298.4</ele><time>2026-04-05T09:40:09Z</time></trkpt><trkpt lat="44.56176279183738" lon="8.670361240280354"><ele>297.6</ele><time>2026-04-05T09:40:10Z</time></trkpt><trkpt lat="44.56168665759714" lon="8.670412561545518"><ele>296.8</ele><time>2026-04-05T09:40:11Z</time></trkpt><trkpt lat="44.56161133686706" lon="8.670462893139176"><ele>296.0</ele><time>2026-04-05T09:40:12Z</time></trkpt><trkpt lat="44.56155093173938" lon="8.670507140447897"><ele>296.0</ele><time>2026-04-05T09:40:13Z</time></trkpt><trkpt lat="44.56149270550807" lon="8.670562221776072"><ele>296.0</ele><time>2026-04-05T09:40:15Z</time></trkpt><trkpt lat="44.561417052702566" lon="8.67062903518796"><ele>296.0</ele><time>2026-04-05T09:40:24Z</time></trkpt><trkpt lat="44.56132978421863" lon="8.670702308649853"><ele>296.0</ele><time>2026-04-05T09:40:26Z</time></trkpt><trkpt lat="44.56122713950243" lon="8.67077897742779"><ele>296.0</ele><time>2026-04-05T09:40:28Z</time></trkpt><trkpt lat="44.56115971066207" lon="8.670828797393147"><ele>295.83333333333337</ele><time>2026-04-05T09:40:29Z</time></trkpt><trkpt lat="44.561101001226824" lon="8.670874366267196"><ele>295.6666666666667</ele><time>2026-04-05T09:40:30Z</time></trkpt><trkpt lat="44.56104072424386" lon="8.670920890593"><ele>295.5</ele><time>2026-04-05T09:40:31Z</time></trkpt><trkpt lat="44.560976049905506" lon="8.670987101365334"><ele>295.3333333333333</ele><time>2026-04-05T09:40:32Z</time></trkpt><trkpt lat="44.56090598968824" lon="8.671052343203112"><ele>295.16666666666663</ele><time>2026-04-05T09:40:33Z</time></trkpt><trkpt lat="44.560831433209444" lon="8.671101147482561"><ele>295.0</ele><time>2026-04-05T09:40:34Z</time></trkpt><trkpt lat="44.56070789529024" lon="8.671192422962722"><ele>295.0</ele><time>2026-04-05T09:40:35.999Z</time></trkpt><trkpt lat="44.56065187859553" lon="8.671269151398961"><ele>295.0</ele><time>2026-04-05T09:40:36.999Z</time></trkpt><trkpt lat="44.56054621415726" lon="8.671361427688662"><ele>295.0</ele><time>2026-04-05T09:40:38.999Z</time></trkpt><trkpt lat="44.56049539624002" lon="8.671418881290064"><ele>295.0</ele><time>2026-04-05T09:40:39.999Z</time></trkpt><trkpt lat="44.56043890584005" lon="8.671473240666153"><ele>295.0</ele><time>2026-04-05T09:40:40.999Z</time></trkpt><trkpt lat="44.56038526702523" lon="8.671528888305811"><ele>295.0</ele><time>2026-04-05T09:40:41.999Z</time></trkpt><trkpt lat="44.560316659442925" lon="8.671588739499967"><ele>294.5</ele><time>2026-04-05T09:40:42.999Z</time></trkpt><trkpt lat="44.56024667810575" lon="8.671656282198692"><ele>294.0</ele><time>2026-04-05T09:40:43.999Z</time></trkpt><trkpt lat="44.56017525759876" lon="8.671722308005469"><ele>293.5</ele><time>2026-04-05T09:40:44.999Z</time></trkpt><trkpt lat="44.56010096977483" lon="8.67180123453274"><ele>293.0</ele><time>2026-04-05T09:40:45.999Z</time></trkpt><trkpt lat="44.560024450300965" lon="8.67187291494544"><ele>292.5</ele><time>2026-04-05T09:40:46.999Z</time></trkpt><trkpt lat="44.55994663684116" lon="8.671938257883102"><ele>292.0</ele><time>2026-04-05T09:40:47.999Z</time></trkpt><trkpt lat="44.55987080821587" lon="8.672014115279621"><ele>294.25</ele><time>2026-04-05T09:40:48.999Z</time></trkpt><trkpt lat="44.5597914712922" lon="8.672096346827093"><ele>296.5</ele><time>2026-04-05T09:40:49.999Z</time></trkpt><trkpt lat="44.55970529056717" lon="8.672173591939533"><ele>298.75</ele><time>2026-04-05T09:40:50.999Z</time></trkpt><trkpt lat="44.55958764565456" lon="8.67228738106161"><ele>301.0</ele><time>2026-04-05T09:40:51.999Z</time></trkpt><trkpt lat="44.55945312842756" lon="8.672419191305517"><ele>302.0</ele><time>2026-04-05T09:40:52.999Z</time></trkpt><trkpt lat="44.5593173368451" lon="8.672553769836421"><ele>303.0</ele><time>2026-04-05T09:40:53.999Z</time></trkpt><trkpt lat="44.55921079829021" lon="8.672647264284318"><ele>304.0</ele><time>2026-04-05T09:40:54.999Z</time></trkpt><trkpt lat="44.55910952495095" lon="8.67273539281206"><ele>305.0</ele><time>2026-04-05T09:40:55.999Z</time></trkpt><trkpt lat="44.55898424485862" lon="8.672801568407566"><ele>304.5</ele><time>2026-04-05T09:40:56.999Z</time></trkpt><trkpt lat="44.558861591671544" lon="8.672832234943863"><ele>304.0</ele><time>2026-04-05T09:40:57.999Z</time></trkpt><trkpt lat="44.55873173597431" lon="8.672833395833011"><ele>303.5</ele><time>2026-04-05T09:40:58.999Z</time></trkpt><trkpt lat="44.55859453674275" lon="8.672794350466406"><ele>303.0</ele><time>2026-04-05T09:40:59.999Z</time></trkpt><trkpt lat="44.55846573264693" lon="8.672741448100721"><ele>303.0</ele><time>2026-04-05T09:41:00.999Z</time></trkpt><trkpt lat="44.55835570095341" lon="8.672698062059418"><ele>303.0</ele><time>2026-04-05T09:41:01.999Z</time></trkpt><trkpt lat="44.558233796568054" lon="8.672667706334552"><ele>303.0</ele><time>2026-04-05T09:41:02.999Z</time></trkpt><trkpt lat="44.558111777633655" lon="8.672632022900622"><ele>303.0</ele><time>2026-04-05T09:41:03.999Z</time></trkpt><trkpt lat="44.557988517673245" lon="8.672594672689941"><ele>304.75</ele><time>2026-04-05T09:41:04.999Z</time></trkpt><trkpt lat="44.5578637209939" lon="8.672570385891236"><ele>306.5</ele><time>2026-04-05T09:41:05.999Z</time></trkpt><trkpt lat="44.55773713966744" lon="8.672496572319817"><ele>308.25</ele><time>2026-04-05T09:41:06.999Z</time></trkpt><trkpt lat="44.557608509055086" lon="8.67243727396081"><ele>310.0</ele><time>2026-04-05T09:41:07.999Z</time></trkpt><trkpt lat="44.55749772490621" lon="8.672345103957785"><ele>310.0</ele><time>2026-04-05T09:41:08.999Z</time></trkpt><trkpt lat="44.55740166421867" lon="8.672271894618337"><ele>310.0</ele><time>2026-04-05T09:41:09.999Z</time></trkpt><trkpt lat="44.55730201118749" lon="8.672187893602334"><ele>310.0</ele><time>2026-04-05T09:41:10.999Z</time></trkpt><trkpt lat="44.557212162893286" lon="8.67212059273359"><ele>310.0</ele><time>2026-04-05T09:41:11.999Z</time></trkpt><trkpt lat="44.557135426382374" lon="8.6720280153885"><ele>310.0</ele><time>2026-04-05T09:41:12.999Z</time></trkpt><trkpt lat="44.557029607764846" lon="8.671938103345324"><ele>308.0</ele><time>2026-04-05T09:41:13.999Z</time></trkpt><trkpt lat="44.55690029267829" lon="8.671865898900107"><ele>306.0</ele><time>2026-04-05T09:41:14.999Z</time></trkpt><trkpt lat="44.55676502777938" lon="8.671826675656243"><ele>304.0</ele><time>2026-04-05T09:41:15.999Z</time></trkpt><trkpt lat="44.5566256174337" lon="8.671807995855476"><ele>302.0</ele><time>2026-04-05T09:41:16.999Z</time></trkpt><trkpt lat="44.556485858480904" lon="8.671792017053951"><ele>302.0</ele><time>2026-04-05T09:41:17.999Z</time></trkpt><trkpt lat="44.556337830119155" lon="8.67177404155556"><ele>302.0</ele><time>2026-04-05T09:41:18.999Z</time></trkpt><trkpt lat="44.55619281435882" lon="8.671774179548217"><ele>302.0</ele><time>2026-04-05T09:41:19.999Z</time></trkpt><trkpt lat="44.55605961227329" lon="8.671794157647941"><ele>302.0</ele><time>2026-04-05T09:41:20.999Z</time></trkpt><trkpt lat="44.55591533112998" lon="8.67181978758875"><ele>301.5</ele><time>2026-04-05T09:41:21.999Z</time></trkpt><trkpt lat="44.55576977123789" lon="8.67185337922075"><ele>301.0</ele><time>2026-04-05T09:41:22.999Z</time></trkpt><trkpt lat="44.555630485182974" lon="8.671893491606147"><ele>300.5</ele><time>2026-04-05T09:41:23.999Z</time></trkpt><trkpt lat="44.55548853497709" lon="8.67194105694544"><ele>300.0</ele><time>2026-04-05T09:41:24.999Z</time></trkpt><trkpt lat="44.55535597270492" lon="8.671988822696152"><ele>303.25</ele><time>2026-04-05T09:41:25.999Z</time></trkpt><trkpt lat="44.55521682242727" lon="8.672041933584195"><ele>306.5</ele><time>2026-04-05T09:41:26.999Z</time></trkpt><trkpt lat="44.555080081381114" lon="8.672102441976316"><ele>309.75</ele><time>2026-04-05T09:41:27.999Z</time></trkpt><trkpt lat="44.554941226827744" lon="8.67216395805689"><ele>313.0</ele><time>2026-04-05T09:41:28.999Z</time></trkpt><trkpt lat="44.55480554855314" lon="8.672218969621701"><ele>313.0</ele><time>2026-04-05T09:41:29.999Z</time></trkpt><trkpt lat="44.55467253256112" lon="8.672259163760097"><ele>313.0</ele><time>2026-04-05T09:41:30.999Z</time></trkpt><trkpt lat="44.55452984178401" lon="8.672313384861157"><ele>313.0</ele><time>2026-04-05T09:41:31.999Z</time></trkpt><trkpt lat="44.55439019483001" lon="8.67236368083132"><ele>313.0</ele><time>2026-04-05T09:41:32.999Z</time></trkpt><trkpt lat="44.554252381176234" lon="8.672406426279245"><ele>312.0</ele><time>2026-04-05T09:41:33.999Z</time></trkpt><trkpt lat="44.55411037980517" lon="8.672452730321861"><ele>311.0</ele><time>2026-04-05T09:41:35Z</time></trkpt><trkpt lat="44.553969903332025" lon="8.67249442182201"><ele>310.0</ele><time>2026-04-05T09:41:36Z</time></trkpt><trkpt lat="44.55382923456107" lon="8.672545183740707"><ele>309.0</ele><time>2026-04-05T09:41:37Z</time></trkpt><trkpt lat="44.553686965251785" lon="8.672593954217033"><ele>306.6666666666667</ele><time>2026-04-05T09:41:38Z</time></trkpt><trkpt lat="44.55352857474388" lon="8.672639269186167"><ele>304.33333333333337</ele><time>2026-04-05T09:41:39Z</time></trkpt><trkpt lat="44.55338418012134" lon="8.672693430547493"><ele>302.0</ele><time>2026-04-05T09:41:40Z</time></trkpt><trkpt lat="44.55324309542107" lon="8.672730337532064"><ele>307.6666666666667</ele><time>2026-04-05T09:41:41Z</time></trkpt><trkpt lat="44.55308834584016" lon="8.67279299375439"><ele>313.3333333333333</ele><time>2026-04-05T09:41:42Z</time></trkpt><trkpt lat="44.55293175961017" lon="8.672831471791014"><ele>319.0</ele><time>2026-04-05T09:41:43Z</time></trkpt><trkpt lat="44.55277097957809" lon="8.672887002818179"><ele>319.0</ele><time>2026-04-05T09:41:44Z</time></trkpt><trkpt lat="44.55262130301112" lon="8.672937561614164"><ele>319.0</ele><time>2026-04-05T09:41:45Z</time></trkpt><trkpt lat="44.55246782487615" lon="8.672986186910574"><ele>319.0</ele><time>2026-04-05T09:41:46Z</time></trkpt><trkpt lat="44.552296403824094" lon="8.67303791870377"><ele>319.0</ele><time>2026-04-05T09:41:47Z</time></trkpt><trkpt lat="44.55212011147054" lon="8.67305995366471"><ele>319.0</ele><time>2026-04-05T09:41:48Z</time></trkpt><trkpt lat="44.55192394489351" lon="8.673063567601966"><ele>319.0</ele><time>2026-04-05T09:41:49Z</time></trkpt><trkpt lat="44.55172269028743" lon="8.67306992186467"><ele>319.0</ele><time>2026-04-05T09:41:50Z</time></trkpt><trkpt lat="44.55155469469511" lon="8.673077363713894"><ele>319.0</ele><time>2026-04-05T09:41:51Z</time></trkpt><trkpt lat="44.55140546216615" lon="8.673094174591128"><ele>319.0</ele><time>2026-04-05T09:41:52Z</time></trkpt><trkpt lat="44.55126976030809" lon="8.67312575519457"><ele>318.0</ele><time>2026-04-05T09:41:53Z</time></trkpt><trkpt lat="44.55113836084121" lon="8.673182768682095"><ele>317.0</ele><time>2026-04-05T09:41:54Z</time></trkpt><trkpt lat="44.55101044945543" lon="8.673212007936307"><ele>316.0</ele><time>2026-04-05T09:41:55Z</time></trkpt><trkpt lat="44.550884400754136" lon="8.673217652703737"><ele>315.0</ele><time>2026-04-05T09:41:56Z</time></trkpt><trkpt lat="44.550760134318374" lon="8.673243721591195"><ele>315.0</ele><time>2026-04-05T09:41:57Z</time></trkpt><trkpt lat="44.55061977100369" lon="8.673275235420883"><ele>315.0</ele><time>2026-04-05T09:41:58Z</time></trkpt><trkpt lat="44.55048739898489" lon="8.673302161249326"><ele>315.0</ele><time>2026-04-05T09:41:59Z</time></trkpt><trkpt lat="44.55035676965051" lon="8.673334239635683"><ele>315.0</ele><time>2026-04-05T09:42:00Z</time></trkpt><trkpt lat="44.55021896983216" lon="8.67338100305087"><ele>315.6666666666667</ele><time>2026-04-05T09:42:01Z</time></trkpt><trkpt lat="44.550075573750874" lon="8.673419351818668"><ele>316.33333333333337</ele><time>2026-04-05T09:42:02Z</time></trkpt><trkpt lat="44.54992686331565" lon="8.673464239341461"><ele>317.0</ele><time>2026-04-05T09:42:03Z</time></trkpt><trkpt lat="44.54977645671486" lon="8.673514302660392"><ele>317.0</ele><time>2026-04-05T09:42:04Z</time></trkpt><trkpt lat="44.549622275452414" lon="8.67355777160074"><ele>317.0</ele><time>2026-04-05T09:42:05Z</time></trkpt><trkpt lat="44.549446399598324" lon="8.673594528836617"><ele>317.0</ele><time>2026-04-05T09:42:06Z</time></trkpt><trkpt lat="44.54927922817262" lon="8.673626816647678"><ele>322.0</ele><time>2026-04-05T09:42:07Z</time></trkpt><trkpt lat="44.549142574504806" lon="8.67364842257517"><ele>327.0</ele><time>2026-04-05T09:42:08Z</time></trkpt><trkpt lat="44.54902479023213" lon="8.673688418541843"><ele>332.0</ele><time>2026-04-05T09:42:09Z</time></trkpt><trkpt lat="44.54891106108477" lon="8.673736725252173"><ele>337.0</ele><time>2026-04-05T09:42:10Z</time></trkpt><trkpt lat="44.548806022000015" lon="8.673806982477544"><ele>332.75</ele><time>2026-04-05T09:42:11Z</time></trkpt><trkpt lat="44.548697996245735" lon="8.673929195116227"><ele>328.5</ele><time>2026-04-05T09:42:12Z</time></trkpt><trkpt lat="44.548605852999046" lon="8.674067262041957"><ele>324.25</ele><time>2026-04-05T09:42:13Z</time></trkpt><trkpt lat="44.548523336585156" lon="8.674227159171215"><ele>320.0</ele><time>2026-04-05T09:42:14Z</time></trkpt><trkpt lat="44.548468586172724" lon="8.674395751084385"><ele>321.25</ele><time>2026-04-05T09:42:15Z</time></trkpt><trkpt lat="44.5484344047849" lon="8.674559959770942"><ele>322.5</ele><time>2026-04-05T09:42:16Z</time></trkpt><trkpt lat="44.54842824407268" lon="8.674716269666932"><ele>323.75</ele><time>2026-04-05T09:42:17Z</time></trkpt><trkpt lat="44.54844327513736" lon="8.67488356984148"><ele>325.0</ele><time>2026-04-05T09:42:18Z</time></trkpt><trkpt lat="44.54845334110477" lon="8.67504250835803"><ele>325.0</ele><time>2026-04-05T09:42:19Z</time></trkpt><trkpt lat="44.548448818726904" lon="8.675216061624175"><ele>325.0</ele><time>2026-04-05T09:42:20Z</time></trkpt><trkpt lat="44.548432011147874" lon="8.675387364003377"><ele>325.0</ele><time>2026-04-05T09:42:21Z</time></trkpt><trkpt lat="44.54840974332769" lon="8.675545499384988"><ele>325.0</ele><time>2026-04-05T09:42:22Z</time></trkpt><trkpt lat="44.54838433174615" lon="8.675709162838244"><ele>326.6</ele><time>2026-04-05T09:42:23Z</time></trkpt><trkpt lat="44.548365346864635" lon="8.675860414528834"><ele>328.2</ele><time>2026-04-05T09:42:24Z</time></trkpt><trkpt lat="44.54833956118578" lon="8.676022278936415"><ele>329.79999999999995</ele><time>2026-04-05T09:42:25Z</time></trkpt><trkpt lat="44.548309485399166" lon="8.676172165216615"><ele>331.4</ele><time>2026-04-05T09:42:26Z</time></trkpt><trkpt lat="44.548265043170275" lon="8.676311069012403"><ele>333.0</ele><time>2026-04-05T09:42:27Z</time></trkpt><trkpt lat="44.54820561949024" lon="8.676455319256053"><ele>331.5</ele><time>2026-04-05T09:42:28Z</time></trkpt><trkpt lat="44.54811662222494" lon="8.676582425778147"><ele>330.0</ele><time>2026-04-05T09:42:29Z</time></trkpt><trkpt lat="44.54801854677217" lon="8.67670105171145"><ele>328.5</ele><time>2026-04-05T09:42:30Z</time></trkpt><trkpt lat="44.54791896292502" lon="8.676789742859336"><ele>327.0</ele><time>2026-04-05T09:42:31Z</time></trkpt><trkpt lat="44.54781033028371" lon="8.676855987688064"><ele>327.0</ele><time>2026-04-05T09:42:32Z</time></trkpt><trkpt lat="44.54769015746056" lon="8.676888087391694"><ele>327.0</ele><time>2026-04-05T09:42:33Z</time></trkpt><trkpt lat="44.54756359732099" lon="8.676929259074642"><ele>327.0</ele><time>2026-04-05T09:42:34Z</time></trkpt><trkpt lat="44.54743636191231" lon="8.676971601941018"><ele>327.0</ele><time>2026-04-05T09:42:35Z</time></trkpt><trkpt lat="44.5473057507889" lon="8.67701388945798"><ele>333.25</ele><time>2026-04-05T09:42:36Z</time></trkpt><trkpt lat="44.54717375851361" lon="8.677039641122448"><ele>339.5</ele><time>2026-04-05T09:42:37Z</time></trkpt><trkpt lat="44.54704699091088" lon="8.6770530133209"><ele>345.75</ele><time>2026-04-05T09:42:38Z</time></trkpt><trkpt lat="44.54691706138882" lon="8.677048607692047"><ele>352.0</ele><time>2026-04-05T09:42:39Z</time></trkpt><trkpt lat="44.54677936069525" lon="8.67706437855576"><ele>352.0</ele><time>2026-04-05T09:42:40Z</time></trkpt><trkpt lat="44.54664407313143" lon="8.677070248271212"><ele>352.0</ele><time>2026-04-05T09:42:41Z</time></trkpt><trkpt lat="44.546509308810805" lon="8.677067602847817"><ele>352.0</ele><time>2026-04-05T09:42:41.999Z</time></trkpt><trkpt lat="44.54639095006214" lon="8.677066763084568"><ele>352.0</ele><time>2026-04-05T09:42:42.999Z</time></trkpt><trkpt lat="44.546282557838445" lon="8.677072471296777"><ele>347.8</ele><time>2026-04-05T09:42:43.999Z</time></trkpt><trkpt lat="44.54618627483878" lon="8.677099627924758"><ele>343.6</ele><time>2026-04-05T09:42:44.999Z</time></trkpt><trkpt lat="44.54610280622105" lon="8.677165824995921"><ele>339.40000000000003</ele><time>2026-04-05T09:42:45.999Z</time></trkpt><trkpt lat="44.546019612622615" lon="8.67724864561119"><ele>335.20000000000005</ele><time>2026-04-05T09:42:46.999Z</time></trkpt><trkpt lat="44.54597776796605" lon="8.677420036733853"><ele>331.0</ele><time>2026-04-05T09:42:47.999Z</time></trkpt><trkpt lat="44.54588690458163" lon="8.677588634899838"><ele>338.3333333333333</ele><time>2026-04-05T09:42:48.999Z</time></trkpt><trkpt lat="44.545796182430855" lon="8.67778247246225"><ele>345.6666666666667</ele><time>2026-04-05T09:42:49.999Z</time></trkpt><trkpt lat="44.545687606144305" lon="8.677962185472763"><ele>353.0</ele><time>2026-04-05T09:42:50.999Z</time></trkpt><trkpt lat="44.545585307689095" lon="8.678129991942832"><ele>353.0</ele><time>2026-04-05T09:42:51.999Z</time></trkpt><trkpt lat="44.54545823428095" lon="8.678279914435029"><ele>353.0</ele><time>2026-04-05T09:42:52.999Z</time></trkpt><trkpt lat="44.545325158016226" lon="8.678422942280106"><ele>353.0</ele><time>2026-04-05T09:42:53.999Z</time></trkpt><trkpt lat="44.54519310822776" lon="8.678552134406385"><ele>348.6666666666667</ele><time>2026-04-05T09:42:54.999Z</time></trkpt><trkpt lat="44.54507615559903" lon="8.678686590357117"><ele>344.3333333333333</ele><time>2026-04-05T09:42:55.999Z</time></trkpt><trkpt lat="44.54496626748834" lon="8.678820803979677"><ele>340.0</ele><time>2026-04-05T09:42:56.999Z</time></trkpt><trkpt lat="44.54485037578909" lon="8.678973454001262"><ele>340.0</ele><time>2026-04-05T09:42:57.999Z</time></trkpt><trkpt lat="44.54474750615411" lon="8.679133987849408"><ele>340.0</ele><time>2026-04-05T09:42:58.999Z</time></trkpt><trkpt lat="44.544646462796976" lon="8.67929632160877"><ele>340.0</ele><time>2026-04-05T09:42:59.999Z</time></trkpt><trkpt lat="44.54454334076385" lon="8.679467606061978"><ele>338.0</ele><time>2026-04-05T09:43:00.999Z</time></trkpt><trkpt lat="44.54443995135107" lon="8.67963584785136"><ele>336.0</ele><time>2026-04-05T09:43:01.999Z</time></trkpt><trkpt lat="44.544336198688235" lon="8.679808624420156"><ele>334.0</ele><time>2026-04-05T09:43:02.999Z</time></trkpt><trkpt lat="44.544245167121474" lon="8.679986060021252"><ele>334.0</ele><time>2026-04-05T09:43:03.999Z</time></trkpt><trkpt lat="44.544176913493594" lon="8.680156546058472"><ele>334.0</ele><time>2026-04-05T09:43:04.999Z</time></trkpt><trkpt lat="44.544103316379044" lon="8.680328120413083"><ele>334.0</ele><time>2026-04-05T09:43:05.999Z</time></trkpt><trkpt lat="44.54404029968394" lon="8.680504286436836"><ele>334.0</ele><time>2026-04-05T09:43:06.999Z</time></trkpt><trkpt lat="44.54400064429814" lon="8.680690516404935"><ele>335.75</ele><time>2026-04-05T09:43:07.999Z</time></trkpt><trkpt lat="44.543968571426774" lon="8.680885051720832"><ele>337.5</ele><time>2026-04-05T09:43:08.999Z</time></trkpt><trkpt lat="44.54395953461317" lon="8.681095202335987"><ele>339.25</ele><time>2026-04-05T09:43:09.999Z</time></trkpt><trkpt lat="44.54397219068245" lon="8.681310011033087"><ele>341.0</ele><time>2026-04-05T09:43:10.999Z</time></trkpt><trkpt lat="44.5439966812437" lon="8.681550247165601"><ele>341.0</ele><time>2026-04-05T09:43:11.999Z</time></trkpt><trkpt lat="44.544024900994614" lon="8.681796063716865"><ele>341.0</ele><time>2026-04-05T09:43:12.999Z</time></trkpt><trkpt lat="44.54405632598837" lon="8.682043000968028"><ele>341.0</ele><time>2026-04-05T09:43:13.999Z</time></trkpt><trkpt lat="44.5440923443707" lon="8.682313055071795"><ele>338.5</ele><time>2026-04-05T09:43:14.999Z</time></trkpt><trkpt lat="44.54413586320459" lon="8.682620826526044"><ele>336.0</ele><time>2026-04-05T09:43:15.999Z</time></trkpt><trkpt lat="44.544189035783354" lon="8.682988164214"><ele>333.5</ele><time>2026-04-05T09:43:16.999Z</time></trkpt><trkpt lat="44.54424053237604" lon="8.683330213187126"><ele>331.0</ele><time>2026-04-05T09:43:17.999Z</time></trkpt><trkpt lat="44.5442977714629" lon="8.683700306931732"><ele>337.5</ele><time>2026-04-05T09:43:18.999Z</time></trkpt><trkpt lat="44.544350591431595" lon="8.68402001572947"><ele>344.0</ele><time>2026-04-05T09:43:19.999Z</time></trkpt><trkpt lat="44.544396708940454" lon="8.684331014924592"><ele>348.6666666666667</ele><time>2026-04-05T09:43:20.999Z</time></trkpt><trkpt lat="44.544434403654556" lon="8.684597777437704"><ele>353.3333333333333</ele><time>2026-04-05T09:43:21.999Z</time></trkpt><trkpt lat="44.5444703675974" lon="8.684845607220792"><ele>358.0</ele><time>2026-04-05T09:43:22.999Z</time></trkpt><trkpt lat="44.544493087917076" lon="8.685078560472927"><ele>360.3333333333333</ele><time>2026-04-05T09:43:23.999Z</time></trkpt><trkpt lat="44.544497960455224" lon="8.685306854074623"><ele>362.6666666666667</ele><time>2026-04-05T09:43:24.999Z</time></trkpt><trkpt lat="44.54448886501853" lon="8.685547259522751"><ele>365.0</ele><time>2026-04-05T09:43:25.999Z</time></trkpt><trkpt lat="44.54446978236844" lon="8.685771348386192"><ele>365.0</ele><time>2026-04-05T09:43:26.999Z</time></trkpt><trkpt lat="44.54444780851639" lon="8.685978584943488"><ele>365.0</ele><time>2026-04-05T09:43:27.999Z</time></trkpt><trkpt lat="44.54442154581604" lon="8.686166701920046"><ele>365.0</ele><time>2026-04-05T09:43:28.999Z</time></trkpt><trkpt lat="44.54438611828308" lon="8.68636148849421"><ele>365.0</ele><time>2026-04-05T09:43:29.999Z</time></trkpt><trkpt lat="44.544357301815516" lon="8.686560083587231"><ele>363.0</ele><time>2026-04-05T09:43:30.999Z</time></trkpt><trkpt lat="44.544317166292814" lon="8.686738218340007"><ele>361.0</ele><time>2026-04-05T09:43:31.999Z</time></trkpt><trkpt lat="44.54428020201471" lon="8.686905076048141"><ele>359.0</ele><time>2026-04-05T09:43:32.999Z</time></trkpt><trkpt lat="44.544240402458705" lon="8.687066737551927"><ele>357.0</ele><time>2026-04-05T09:43:33.999Z</time></trkpt><trkpt lat="44.544171998886995" lon="8.687185290341755"><ele>353.5</ele><time>2026-04-05T09:43:34.999Z</time></trkpt><trkpt lat="44.544097601962314" lon="8.687326508313232"><ele>350.0</ele><time>2026-04-05T09:43:35.999Z</time></trkpt><trkpt lat="44.54402275496975" lon="8.687482198086109"><ele>346.5</ele><time>2026-04-05T09:43:36.999Z</time></trkpt><trkpt lat="44.543963004190175" lon="8.687673924958354"><ele>343.0</ele><time>2026-04-05T09:43:37.999Z</time></trkpt><trkpt lat="44.543938254390476" lon="8.687906809869359"><ele>342.66666666666663</ele><time>2026-04-05T09:43:38.999Z</time></trkpt><trkpt lat="44.54393268729814" lon="8.688152674781946"><ele>342.3333333333333</ele><time>2026-04-05T09:43:39.999Z</time></trkpt><trkpt lat="44.54393432378451" lon="8.688394333606164"><ele>342.0</ele><time>2026-04-05T09:43:41Z</time></trkpt><trkpt lat="44.543953825779425" lon="8.688635718391199"><ele>342.0</ele><time>2026-04-05T09:43:42Z</time></trkpt><trkpt lat="44.543970218921515" lon="8.688840620514268"><ele>342.0</ele><time>2026-04-05T09:43:43Z</time></trkpt><trkpt lat="44.54398454201021" lon="8.689022046056985"><ele>342.0</ele><time>2026-04-05T09:43:44Z</time></trkpt><trkpt lat="44.543993364281384" lon="8.689188017236154"><ele>342.0</ele><time>2026-04-05T09:43:45Z</time></trkpt><trkpt lat="44.54402149621302" lon="8.689356054538218"><ele>341.75</ele><time>2026-04-05T09:43:46Z</time></trkpt><trkpt lat="44.54401571909003" lon="8.689536125786388"><ele>341.5</ele><time>2026-04-05T09:43:47Z</time></trkpt><trkpt lat="44.543984697234116" lon="8.689712303405488"><ele>341.25</ele><time>2026-04-05T09:43:48Z</time></trkpt><trkpt lat="44.543969450262516" lon="8.689874429475289"><ele>341.0</ele><time>2026-04-05T09:43:49Z</time></trkpt><trkpt lat="44.54396384157037" lon="8.690020129183567"><ele>341.0</ele><time>2026-04-05T09:43:50Z</time></trkpt><trkpt lat="44.543958166293415" lon="8.690179913137529"><ele>341.0</ele><time>2026-04-05T09:43:51Z</time></trkpt><trkpt lat="44.54399665713607" lon="8.690356504146704"><ele>341.0</ele><time>2026-04-05T09:43:52Z</time></trkpt><trkpt lat="44.54405078178658" lon="8.690519051559113"><ele>341.0</ele><time>2026-04-05T09:43:53Z</time></trkpt><trkpt lat="44.544113534580625" lon="8.690656779114846"><ele>340.20000000000005</ele><time>2026-04-05T09:43:54Z</time></trkpt><trkpt lat="44.544142167895956" lon="8.69080503494375"><ele>339.40000000000003</ele><time>2026-04-05T09:43:55Z</time></trkpt><trkpt lat="44.54419474376782" lon="8.690940630811866"><ele>338.6</ele><time>2026-04-05T09:43:56Z</time></trkpt><trkpt lat="44.54422632803342" lon="8.691086560114005"><ele>337.8</ele><time>2026-04-05T09:43:57Z</time></trkpt><trkpt lat="44.54422268638584" lon="8.691241327093026"><ele>337.0</ele><time>2026-04-05T09:43:58Z</time></trkpt><trkpt lat="44.54418896811388" lon="8.69138860094745"><ele>339.5</ele><time>2026-04-05T09:43:59Z</time></trkpt><trkpt lat="44.54411822419097" lon="8.691524615367381"><ele>342.0</ele><time>2026-04-05T09:44:00Z</time></trkpt><trkpt lat="44.544024978585625" lon="8.691651537397789"><ele>344.5</ele><time>2026-04-05T09:44:01Z</time></trkpt><trkpt lat="44.54392344477375" lon="8.691762492249985"><ele>347.0</ele><time>2026-04-05T09:44:02Z</time></trkpt><trkpt lat="44.543840345016214" lon="8.69186453096805"><ele>347.0</ele><time>2026-04-05T09:44:03Z</time></trkpt><trkpt lat="44.54376432093533" lon="8.691979720069341"><ele>347.0</ele><time>2026-04-05T09:44:04Z</time></trkpt><trkpt lat="44.54367739847762" lon="8.692103879983138"><ele>347.0</ele><time>2026-04-05T09:44:05Z</time></trkpt><trkpt lat="44.54358501511665" lon="8.692231581769581"><ele>347.0</ele><time>2026-04-05T09:44:06Z</time></trkpt><trkpt lat="44.54348047913135" lon="8.692358606096555"><ele>347.0</ele><time>2026-04-05T09:44:07Z</time></trkpt><trkpt lat="44.54337253671279" lon="8.692503854430889"><ele>347.0</ele><time>2026-04-05T09:44:08Z</time></trkpt><trkpt lat="44.54329771816033" lon="8.692691785597185"><ele>347.0</ele><time>2026-04-05T09:44:09Z</time></trkpt><trkpt lat="44.54323023082292" lon="8.692876898109336"><ele>347.33333333333337</ele><time>2026-04-05T09:44:10Z</time></trkpt><trkpt lat="44.54317055475261" lon="8.693078801503727"><ele>347.6666666666667</ele><time>2026-04-05T09:44:11Z</time></trkpt><trkpt lat="44.54312618337492" lon="8.693280687480154"><ele>348.0</ele><time>2026-04-05T09:44:12Z</time></trkpt><trkpt lat="44.54308164483229" lon="8.69348728088939"><ele>349.25</ele><time>2026-04-05T09:44:13Z</time></trkpt><trkpt lat="44.543030617844074" lon="8.693687317247793"><ele>350.5</ele><time>2026-04-05T09:44:14Z</time></trkpt><trkpt lat="44.54298653716804" lon="8.693875953651782"><ele>351.75</ele><time>2026-04-05T09:44:15Z</time></trkpt><trkpt lat="44.5429408023041" lon="8.694050069860797"><ele>353.0</ele><time>2026-04-05T09:44:16Z</time></trkpt><trkpt lat="44.542893733118106" lon="8.694206663575878"><ele>350.75</ele><time>2026-04-05T09:44:17Z</time></trkpt><trkpt lat="44.5428387221518" lon="8.694358108152615"><ele>348.5</ele><time>2026-04-05T09:44:18Z</time></trkpt><trkpt lat="44.54277703886551" lon="8.694520140483327"><ele>346.25</ele><time>2026-04-05T09:44:19Z</time></trkpt><trkpt lat="44.54271831037625" lon="8.694688488553224"><ele>344.0</ele><time>2026-04-05T09:44:20Z</time></trkpt><trkpt lat="44.5426563123709" lon="8.694852330434475"><ele>344.0</ele><time>2026-04-05T09:44:21Z</time></trkpt><trkpt lat="44.54258198592793" lon="8.695002802078815"><ele>344.0</ele><time>2026-04-05T09:44:22Z</time></trkpt><trkpt lat="44.542512942917135" lon="8.695155200484907"><ele>344.0</ele><time>2026-04-05T09:44:23Z</time></trkpt><trkpt lat="44.542444785513105" lon="8.695309402734878"><ele>344.0</ele><time>2026-04-05T09:44:24Z</time></trkpt><trkpt lat="44.542379592509775" lon="8.695462878163577"><ele>348.5</ele><time>2026-04-05T09:44:25Z</time></trkpt><trkpt lat="44.54231461333382" lon="8.695621685083806"><ele>353.0</ele><time>2026-04-05T09:44:26Z</time></trkpt><trkpt lat="44.54224136163132" lon="8.695778025343158"><ele>357.5</ele><time>2026-04-05T09:44:27Z</time></trkpt><trkpt lat="44.54216160166216" lon="8.695923311194496"><ele>362.0</ele><time>2026-04-05T09:44:28Z</time></trkpt><trkpt lat="44.542071102749084" lon="8.69606717859732"><ele>359.0</ele><time>2026-04-05T09:44:29Z</time></trkpt><trkpt lat="44.54198688935202" lon="8.696205601656391"><ele>356.0</ele><time>2026-04-05T09:44:30Z</time></trkpt><trkpt lat="44.541906615343215" lon="8.696335867206695"><ele>353.0</ele><time>2026-04-05T09:44:31Z</time></trkpt><trkpt lat="44.541835683673476" lon="8.6964484484213"><ele>350.0</ele><time>2026-04-05T09:44:32Z</time></trkpt><trkpt lat="44.54175998245683" lon="8.69655276747526"><ele>350.0</ele><time>2026-04-05T09:44:33Z</time></trkpt><trkpt lat="44.541663031200024" lon="8.696629073911161"><ele>350.0</ele><time>2026-04-05T09:44:34Z</time></trkpt><trkpt lat="44.54157813784484" lon="8.696730630624975"><ele>350.0</ele><time>2026-04-05T09:44:35Z</time></trkpt><trkpt lat="44.541477580002656" lon="8.696792171665845"><ele>350.0</ele><time>2026-04-05T09:44:36Z</time></trkpt><trkpt lat="44.5413789205004" lon="8.696863298395117"><ele>350.0</ele><time>2026-04-05T09:44:37Z</time></trkpt><trkpt lat="44.5412764014716" lon="8.696917658157167"><ele>349.6</ele><time>2026-04-05T09:44:38Z</time></trkpt><trkpt lat="44.541197970786556" lon="8.696982472530962"><ele>349.2</ele><time>2026-04-05T09:44:39Z</time></trkpt><trkpt lat="44.54111120515887" lon="8.697020631987083"><ele>348.79999999999995</ele><time>2026-04-05T09:44:40Z</time></trkpt><trkpt lat="44.54104141813305" lon="8.697099058946696"><ele>348.4</ele><time>2026-04-05T09:44:41Z</time></trkpt><trkpt lat="44.540972852172565" lon="8.697202143582917"><ele>348.0</ele><time>2026-04-05T09:44:42Z</time></trkpt><trkpt lat="44.5408717411087" lon="8.697321481002342"><ele>348.0</ele><time>2026-04-05T09:44:42.999Z</time></trkpt><trkpt lat="44.54073981379338" lon="8.697479106314066"><ele>348.0</ele><time>2026-04-05T09:44:43.999Z</time></trkpt><trkpt lat="44.540600665533624" lon="8.697615723632708"><ele>348.0</ele><time>2026-04-05T09:44:44.999Z</time></trkpt><trkpt lat="44.540501727274275" lon="8.697734157374105"><ele>348.5</ele><time>2026-04-05T09:44:45.999Z</time></trkpt><trkpt lat="44.54039080670857" lon="8.697852381278638"><ele>349.0</ele><time>2026-04-05T09:44:46.999Z</time></trkpt><trkpt lat="44.54029920596884" lon="8.697992166584328"><ele>349.5</ele><time>2026-04-05T09:44:47.999Z</time></trkpt><trkpt lat="44.54023619407106" lon="8.698103320944877"><ele>350.0</ele><time>2026-04-05T09:44:48.999Z</time></trkpt><trkpt lat="44.54015926734723" lon="8.698197853507383"><ele>350.0</ele><time>2026-04-05T09:44:49.999Z</time></trkpt><trkpt lat="44.540070705507" lon="8.698288979227323"><ele>350.0</ele><time>2026-04-05T09:44:50.999Z</time></trkpt><trkpt lat="44.539979374922524" lon="8.698384999670601"><ele>350.0</ele><time>2026-04-05T09:44:51.999Z</time></trkpt><trkpt lat="44.539871015158056" lon="8.698476494602751"><ele>350.0</ele><time>2026-04-05T09:44:52.999Z</time></trkpt><trkpt lat="44.539753835701845" lon="8.69852136297517"><ele>350.0</ele><time>2026-04-05T09:44:53.999Z</time></trkpt><trkpt lat="44.53961891581262" lon="8.698574317726393"><ele>350.0</ele><time>2026-04-05T09:44:54.999Z</time></trkpt><trkpt lat="44.53950897858355" lon="8.698619035044608"><ele>350.0</ele><time>2026-04-05T09:44:55.999Z</time></trkpt><trkpt lat="44.539410653187865" lon="8.698660128962096"><ele>350.0</ele><time>2026-04-05T09:44:56.999Z</time></trkpt><trkpt lat="44.539325785541656" lon="8.698667122001307"><ele>350.0</ele><time>2026-04-05T09:44:57.999Z</time></trkpt><trkpt lat="44.539230451185226" lon="8.698675368962634"><ele>351.4</ele><time>2026-04-05T09:44:59.999Z</time></trkpt><trkpt lat="44.53911951042964" lon="8.698660898634419"><ele>352.8</ele><time>2026-04-05T09:45:45.999Z</time></trkpt><trkpt lat="44.53905171016476" lon="8.698636173922337"><ele>354.20000000000005</ele><time>2026-04-05T09:45:47Z</time></trkpt><trkpt lat="44.53897444256002" lon="8.698582803007323"><ele>355.6</ele><time>2026-04-05T09:45:48Z</time></trkpt><trkpt lat="44.538897762779904" lon="8.698485581900286"><ele>357.0</ele><time>2026-04-05T09:45:49Z</time></trkpt><trkpt lat="44.53886143615983" lon="8.698352009500988"><ele>354.0</ele><time>2026-04-05T09:45:50Z</time></trkpt><trkpt lat="44.538805414813275" lon="8.698212282873175"><ele>351.0</ele><time>2026-04-05T09:45:51Z</time></trkpt><trkpt lat="44.53874844618732" lon="8.698086001797696"><ele>348.0</ele><time>2026-04-05T09:45:52Z</time></trkpt><trkpt lat="44.5386940111305" lon="8.697984447755942"><ele>345.0</ele><time>2026-04-05T09:45:53Z</time></trkpt><trkpt lat="44.538630763924665" lon="8.697904811882502"><ele>342.0</ele><time>2026-04-05T09:45:54Z</time></trkpt><trkpt lat="44.538550388089746" lon="8.69784633690439"><ele>342.0</ele><time>2026-04-05T09:45:55Z</time></trkpt><trkpt lat="44.53845875691941" lon="8.697835410181325"><ele>342.0</ele><time>2026-04-05T09:45:56Z</time></trkpt><trkpt lat="44.53836825524227" lon="8.697847807895917"><ele>342.0</ele><time>2026-04-05T09:45:57Z</time></trkpt><trkpt lat="44.53827129006799" lon="8.697848709859626"><ele>342.0</ele><time>2026-04-05T09:45:58Z</time></trkpt><trkpt lat="44.53818357077774" lon="8.697854290055172"><ele>342.0</ele><time>2026-04-05T09:45:59Z</time></trkpt><trkpt lat="44.538070550079695" lon="8.697842359472368"><ele>342.0</ele><time>2026-04-05T09:46:00Z</time></trkpt><trkpt lat="44.53793972316632" lon="8.697794391277924"><ele>342.0</ele><time>2026-04-05T09:46:01Z</time></trkpt><trkpt lat="44.53779391592574" lon="8.697763245863774"><ele>342.0</ele><time>2026-04-05T09:46:02Z</time></trkpt><trkpt lat="44.53760360511613" lon="8.697732130976501"><ele>343.6666666666667</ele><time>2026-04-05T09:46:03Z</time></trkpt><trkpt lat="44.53740311133539" lon="8.697649155836418"><ele>345.33333333333337</ele><time>2026-04-05T09:46:04Z</time></trkpt><trkpt lat="44.537220897504724" lon="8.697551019054659"><ele>347.0</ele><time>2026-04-05T09:46:05Z</time></trkpt><trkpt lat="44.53704198752209" lon="8.69744014362107"><ele>347.0</ele><time>2026-04-05T09:46:06Z</time></trkpt><trkpt lat="44.5368950661381" lon="8.697338211734865"><ele>347.0</ele><time>2026-04-05T09:46:07Z</time></trkpt><trkpt lat="44.5367885520458" lon="8.697244618135532"><ele>347.0</ele><time>2026-04-05T09:46:08Z</time></trkpt><trkpt lat="44.53668707567439" lon="8.69717275330352"><ele>347.0</ele><time>2026-04-05T09:46:09Z</time></trkpt><trkpt lat="44.53656372936584" lon="8.697144461338294"><ele>347.0</ele><time>2026-04-05T09:46:10Z</time></trkpt><trkpt lat="44.53643330212057" lon="8.69719218411707"><ele>347.0</ele><time>2026-04-05T09:46:11Z</time></trkpt><trkpt lat="44.53628798698476" lon="8.697283696896134"><ele>347.0</ele><time>2026-04-05T09:46:12Z</time></trkpt><trkpt lat="44.53610456587434" lon="8.697417106649462"><ele>346.0</ele><time>2026-04-05T09:46:13Z</time></trkpt><trkpt lat="44.535882484559096" lon="8.697585658831398"><ele>345.0</ele><time>2026-04-05T09:46:14Z</time></trkpt><trkpt lat="44.53563223378157" lon="8.697767622741354"><ele>347.0</ele><time>2026-04-05T09:46:15Z</time></trkpt><trkpt lat="44.5353707898405" lon="8.697943016983135"><ele>349.0</ele><time>2026-04-05T09:46:16Z</time></trkpt><trkpt lat="44.535167429890386" lon="8.698090513854181"><ele>349.0</ele><time>2026-04-05T09:46:17Z</time></trkpt><trkpt lat="44.53499331717415" lon="8.69821911123502"><ele>349.0</ele><time>2026-04-05T09:46:18Z</time></trkpt><trkpt lat="44.53484257662109" lon="8.69832970349518"><ele>349.0</ele><time>2026-04-05T09:46:19Z</time></trkpt><trkpt lat="44.534715973772414" lon="8.69841371266626"><ele>349.0</ele><time>2026-04-05T09:46:20Z</time></trkpt><trkpt lat="44.53461595877426" lon="8.698480340789542"><ele>349.0</ele><time>2026-04-05T09:46:21Z</time></trkpt><trkpt lat="44.53454119949246" lon="8.698527349931684"><ele>349.0</ele><time>2026-04-05T09:46:22Z</time></trkpt><trkpt lat="44.53448244562069" lon="8.698578415731198"><ele>349.0</ele><time>2026-04-05T09:46:23Z</time></trkpt><trkpt lat="44.534410533934874" lon="8.698640318922026"><ele>349.0</ele><time>2026-04-05T09:46:25Z</time></trkpt><trkpt lat="44.53428200074272" lon="8.698863210995858"><ele>351.0</ele><time>2026-04-05T09:46:52.999Z</time></trkpt><trkpt lat="44.53419778920031" lon="8.698967271656532"><ele>353.0</ele><time>2026-04-05T09:46:53.999Z</time></trkpt><trkpt lat="44.53407709265577" lon="8.699028765300445"><ele>355.0</ele><time>2026-04-05T09:46:54.999Z</time></trkpt><trkpt lat="44.53397910632898" lon="8.699150649936103"><ele>357.0</ele><time>2026-04-05T09:46:55.999Z</time></trkpt><trkpt lat="44.533865779901134" lon="8.699291613902613"><ele>358.6666666666667</ele><time>2026-04-05T09:46:56.999Z</time></trkpt><trkpt lat="44.533746311052525" lon="8.699430242356742"><ele>360.33333333333337</ele><time>2026-04-05T09:46:57.999Z</time></trkpt><trkpt lat="44.53363636636319" lon="8.699622888226568"><ele>362.0</ele><time>2026-04-05T09:46:58.999Z</time></trkpt><trkpt lat="44.53345101206272" lon="8.699829553494984"><ele>362.0</ele><time>2026-04-05T09:46:59.999Z</time></trkpt><trkpt lat="44.53327392298526" lon="8.700027727973422"><ele>362.0</ele><time>2026-04-05T09:47:00.999Z</time></trkpt><trkpt lat="44.533107936584976" lon="8.700193316509571"><ele>362.0</ele><time>2026-04-05T09:47:01.999Z</time></trkpt><trkpt lat="44.532972764807354" lon="8.700382810476619"><ele>363.5</ele><time>2026-04-05T09:47:02.999Z</time></trkpt><trkpt lat="44.53286591342921" lon="8.700558796925982"><ele>365.0</ele><time>2026-04-05T09:47:03.999Z</time></trkpt><trkpt lat="44.532777600429796" lon="8.700701222678559"><ele>366.5</ele><time>2026-04-05T09:47:04.999Z</time></trkpt><trkpt lat="44.53267434010422" lon="8.700836723043201"><ele>368.0</ele><time>2026-04-05T09:47:05.999Z</time></trkpt><trkpt lat="44.53255468365084" lon="8.700952905842444"><ele>368.0</ele><time>2026-04-05T09:47:06.999Z</time></trkpt><trkpt lat="44.53236490302373" lon="8.701052124553534"><ele>368.0</ele><time>2026-04-05T09:47:07.999Z</time></trkpt><trkpt lat="44.53220685576758" lon="8.701101905680662"><ele>368.0</ele><time>2026-04-05T09:47:08.999Z</time></trkpt><trkpt lat="44.532007289590354" lon="8.701115679322005"><ele>369.6666666666667</ele><time>2026-04-05T09:47:09.999Z</time></trkpt><trkpt lat="44.53180516854925" lon="8.701134776590221"><ele>371.3333333333333</ele><time>2026-04-05T09:47:10.999Z</time></trkpt><trkpt lat="44.53164001177868" lon="8.701186617758925"><ele>373.0</ele><time>2026-04-05T09:47:11.999Z</time></trkpt><trkpt lat="44.53147302616123" lon="8.701266473294375"><ele>373.0</ele><time>2026-04-05T09:47:12.999Z</time></trkpt><trkpt lat="44.53132595919726" lon="8.701372860014413"><ele>373.0</ele><time>2026-04-05T09:47:13.999Z</time></trkpt><trkpt lat="44.53118942725663" lon="8.70148841708195"><ele>373.0</ele><time>2026-04-05T09:47:14.999Z</time></trkpt><trkpt lat="44.531094137790554" lon="8.70161711324828"><ele>373.25</ele><time>2026-04-05T09:47:15.999Z</time></trkpt><trkpt lat="44.53099853894067" lon="8.701685032806672"><ele>373.5</ele><time>2026-04-05T09:47:16.999Z</time></trkpt><trkpt lat="44.530898935350784" lon="8.70177411019543"><ele>373.75</ele><time>2026-04-05T09:47:17.999Z</time></trkpt><trkpt lat="44.53079256115086" lon="8.70188362311961"><ele>374.0</ele><time>2026-04-05T09:47:18.999Z</time></trkpt><trkpt lat="44.530651263740886" lon="8.70199110739598"><ele>374.0</ele><time>2026-04-05T09:47:19.999Z</time></trkpt><trkpt lat="44.53052880821472" lon="8.702101171818382"><ele>374.0</ele><time>2026-04-05T09:47:20.999Z</time></trkpt><trkpt lat="44.53039449333535" lon="8.702144619996728"><ele>374.0</ele><time>2026-04-05T09:47:21.999Z</time></trkpt><trkpt lat="44.53030681122581" lon="8.702247301473385"><ele>374.0</ele><time>2026-04-05T09:47:22.999Z</time></trkpt><trkpt lat="44.5302140854124" lon="8.702292400758873"><ele>372.6</ele><time>2026-04-05T09:47:23.999Z</time></trkpt><trkpt lat="44.53011119143267" lon="8.702338981492751"><ele>371.2</ele><time>2026-04-05T09:47:24.999Z</time></trkpt><trkpt lat="44.52999380536095" lon="8.702353449827166"><ele>369.8</ele><time>2026-04-05T09:47:25.999Z</time></trkpt><trkpt lat="44.52987822404542" lon="8.702351026348127"><ele>368.40000000000003</ele><time>2026-04-05T09:47:26.999Z</time></trkpt><trkpt lat="44.52978828392413" lon="8.702329615518295"><ele>367.0</ele><time>2026-04-05T09:47:27.999Z</time></trkpt><trkpt lat="44.52970434955268" lon="8.702259995487797"><ele>367.0</ele><time>2026-04-05T09:47:28.999Z</time></trkpt><trkpt lat="44.52961577347654" lon="8.702197930371687"><ele>367.0</ele><time>2026-04-05T09:47:29.999Z</time></trkpt><trkpt lat="44.52954851868522" lon="8.702118671716768"><ele>367.0</ele><time>2026-04-05T09:47:30.999Z</time></trkpt><trkpt lat="44.52949531456292" lon="8.70201487389041"><ele>367.0</ele><time>2026-04-05T09:47:31.999Z</time></trkpt><trkpt lat="44.529443927587394" lon="8.701917709568558"><ele>367.0</ele><time>2026-04-05T09:47:32.999Z</time></trkpt><trkpt lat="44.52939740211355" lon="8.70183250400016"><ele>367.0</ele><time>2026-04-05T09:47:33.999Z</time></trkpt><trkpt lat="44.52935093035671" lon="8.701747358994153"><ele>365.8</ele><time>2026-04-05T09:47:34.999Z</time></trkpt><trkpt lat="44.529295730720804" lon="8.701645443859618"><ele>364.6</ele><time>2026-04-05T09:47:35.999Z</time></trkpt><trkpt lat="44.52923447583965" lon="8.701532348673547"><ele>363.40000000000003</ele><time>2026-04-05T09:47:36.999Z</time></trkpt><trkpt lat="44.529166728210946" lon="8.701407265895213"><ele>362.20000000000005</ele><time>2026-04-05T09:47:37.999Z</time></trkpt><trkpt lat="44.52907954730282" lon="8.701286962642095"><ele>361.0</ele><time>2026-04-05T09:47:38.999Z</time></trkpt><trkpt lat="44.52901314266578" lon="8.701168446105287"><ele>360.5</ele><time>2026-04-05T09:47:39.999Z</time></trkpt><trkpt lat="44.528939923353114" lon="8.701037572107193"><ele>360.0</ele><time>2026-04-05T09:47:40.999Z</time></trkpt><trkpt lat="44.52885870048789" lon="8.700907854851394"><ele>359.5</ele><time>2026-04-05T09:47:41.999Z</time></trkpt><trkpt lat="44.52877224135087" lon="8.700804707605236"><ele>359.0</ele><time>2026-04-05T09:47:42.999Z</time></trkpt><trkpt lat="44.52867472999383" lon="8.700729125270808"><ele>359.0</ele><time>2026-04-05T09:47:43.999Z</time></trkpt><trkpt lat="44.52856379023463" lon="8.700669919169849"><ele>359.0</ele><time>2026-04-05T09:47:44.999Z</time></trkpt><trkpt lat="44.5284581245955" lon="8.700593594601722"><ele>359.0</ele><time>2026-04-05T09:47:45.999Z</time></trkpt><trkpt lat="44.528338462593325" lon="8.700565953593447"><ele>359.0</ele><time>2026-04-05T09:47:46.999Z</time></trkpt><trkpt lat="44.5282121567278" lon="8.700563506161906"><ele>359.0</ele><time>2026-04-05T09:47:47.999Z</time></trkpt><trkpt lat="44.52808792689955" lon="8.700530538491527"><ele>359.0</ele><time>2026-04-05T09:47:48.999Z</time></trkpt><trkpt lat="44.52794595141537" lon="8.700513575035986"><ele>359.0</ele><time>2026-04-05T09:47:49.999Z</time></trkpt><trkpt lat="44.52779134954182" lon="8.700490049280754"><ele>359.0</ele><time>2026-04-05T09:47:50.999Z</time></trkpt><trkpt lat="44.52765061613174" lon="8.700473938354197"><ele>360.25</ele><time>2026-04-05T09:47:51.999Z</time></trkpt><trkpt lat="44.527526495183096" lon="8.700451294492902"><ele>361.5</ele><time>2026-04-05T09:47:53Z</time></trkpt><trkpt lat="44.52739563742319" lon="8.700431736687923"><ele>362.75</ele><time>2026-04-05T09:47:54Z</time></trkpt><trkpt lat="44.52726616010697" lon="8.700406627124234"><ele>364.0</ele><time>2026-04-05T09:47:55Z</time></trkpt><trkpt lat="44.527137216140595" lon="8.700400219020008"><ele>365.0</ele><time>2026-04-05T09:47:56Z</time></trkpt><trkpt lat="44.52700480628002" lon="8.700382318866394"><ele>366.0</ele><time>2026-04-05T09:47:57Z</time></trkpt><trkpt lat="44.52687098922226" lon="8.700359601554155"><ele>367.0</ele><time>2026-04-05T09:47:58Z</time></trkpt><trkpt lat="44.52674476883075" lon="8.70035315970275"><ele>368.0</ele><time>2026-04-05T09:47:59Z</time></trkpt><trkpt lat="44.52661303770817" lon="8.700359235395975"><ele>368.0</ele><time>2026-04-05T09:48:00Z</time></trkpt><trkpt lat="44.526484433446214" lon="8.700385801861026"><ele>368.0</ele><time>2026-04-05T09:48:01Z</time></trkpt><trkpt lat="44.526363611742866" lon="8.700430226218687"><ele>368.0</ele><time>2026-04-05T09:48:02Z</time></trkpt><trkpt lat="44.526241060820375" lon="8.700509975199054"><ele>368.0</ele><time>2026-04-05T09:48:03Z</time></trkpt><trkpt lat="44.52612381076837" lon="8.700615014685866"><ele>366.75</ele><time>2026-04-05T09:48:04Z</time></trkpt><trkpt lat="44.52601191926074" lon="8.700723465623822"><ele>365.5</ele><time>2026-04-05T09:48:05Z</time></trkpt><trkpt lat="44.52591177345501" lon="8.70084042150427"><ele>364.25</ele><time>2026-04-05T09:48:06Z</time></trkpt><trkpt lat="44.52581853389773" lon="8.700968225310032"><ele>363.0</ele><time>2026-04-05T09:48:07Z</time></trkpt><trkpt lat="44.52572473010822" lon="8.701090107434812"><ele>364.2</ele><time>2026-04-05T09:48:08Z</time></trkpt><trkpt lat="44.52563414608559" lon="8.70120234685638"><ele>365.4</ele><time>2026-04-05T09:48:09Z</time></trkpt><trkpt lat="44.52554618220096" lon="8.701310592415863"><ele>366.59999999999997</ele><time>2026-04-05T09:48:10Z</time></trkpt><trkpt lat="44.52546835494627" lon="8.701416498194925"><ele>367.79999999999995</ele><time>2026-04-05T09:48:11Z</time></trkpt><trkpt lat="44.525413042416474" lon="8.701535234038772"><ele>369.0</ele><time>2026-04-05T09:48:12Z</time></trkpt><trkpt lat="44.52536662235522" lon="8.701677437753494"><ele>369.0</ele><time>2026-04-05T09:48:13Z</time></trkpt><trkpt lat="44.52533134519639" lon="8.701824411536224"><ele>369.0</ele><time>2026-04-05T09:48:14Z</time></trkpt><trkpt lat="44.52532491110502" lon="8.701979030303837"><ele>369.0</ele><time>2026-04-05T09:48:15Z</time></trkpt><trkpt lat="44.52532724740457" lon="8.702141646851215"><ele>369.0</ele><time>2026-04-05T09:48:16Z</time></trkpt><trkpt lat="44.52533572191561" lon="8.702293590741343"><ele>369.0</ele><time>2026-04-05T09:48:17Z</time></trkpt><trkpt lat="44.525344749804255" lon="8.702429885863785"><ele>368.4</ele><time>2026-04-05T09:48:18Z</time></trkpt><trkpt lat="44.52535098078695" lon="8.702565738598333"><ele>367.79999999999995</ele><time>2026-04-05T09:48:19Z</time></trkpt><trkpt lat="44.52535609687782" lon="8.702728229406958"><ele>367.20000000000005</ele><time>2026-04-05T09:48:20Z</time></trkpt><trkpt lat="44.52533779625703" lon="8.702876215638616"><ele>366.6</ele><time>2026-04-05T09:48:21Z</time></trkpt><trkpt lat="44.52530072640522" lon="8.703004722008009"><ele>366.0</ele><time>2026-04-05T09:48:22Z</time></trkpt><trkpt lat="44.525245225331986" lon="8.70312382227939"><ele>367.5</ele><time>2026-04-05T09:48:23Z</time></trkpt><trkpt lat="44.525166055883155" lon="8.70322015254514"><ele>369.0</ele><time>2026-04-05T09:48:24Z</time></trkpt><trkpt lat="44.52506673152751" lon="8.703313866423724"><ele>370.5</ele><time>2026-04-05T09:48:25Z</time></trkpt><trkpt lat="44.52496473154229" lon="8.703387282514338"><ele>372.0</ele><time>2026-04-05T09:48:26Z</time></trkpt><trkpt lat="44.52485845663224" lon="8.70343564394282"><ele>372.0</ele><time>2026-04-05T09:48:27Z</time></trkpt><trkpt lat="44.524755406531085" lon="8.703461926800333"><ele>372.0</ele><time>2026-04-05T09:48:28Z</time></trkpt><trkpt lat="44.52464993353928" lon="8.70344292485246"><ele>372.0</ele><time>2026-04-05T09:48:29Z</time></trkpt><trkpt lat="44.5245558909284" lon="8.703403381227407"><ele>372.0</ele><time>2026-04-05T09:48:30Z</time></trkpt><trkpt lat="44.52444727669546" lon="8.70333149874148"><ele>372.0</ele><time>2026-04-05T09:48:31Z</time></trkpt><trkpt lat="44.524345788015616" lon="8.703249177546883"><ele>370.0</ele><time>2026-04-05T09:48:32Z</time></trkpt><trkpt lat="44.524246872376814" lon="8.703152845649402"><ele>368.0</ele><time>2026-04-05T09:48:33Z</time></trkpt><trkpt lat="44.52413833035853" lon="8.703050902511688"><ele>366.0</ele><time>2026-04-05T09:48:34Z</time></trkpt><trkpt lat="44.52401662325706" lon="8.702943086957902"><ele>364.0</ele><time>2026-04-05T09:48:35Z</time></trkpt><trkpt lat="44.52388692785698" lon="8.702823765227684"><ele>364.66666666666663</ele><time>2026-04-05T09:48:36Z</time></trkpt><trkpt lat="44.52372771722159" lon="8.702692748886461"><ele>365.3333333333333</ele><time>2026-04-05T09:48:37Z</time></trkpt><trkpt lat="44.52354922478281" lon="8.702511643990178"><ele>366.0</ele><time>2026-04-05T09:48:38Z</time></trkpt><trkpt lat="44.52334686779796" lon="8.702337020388528"><ele>366.0</ele><time>2026-04-05T09:48:39Z</time></trkpt><trkpt lat="44.523145768284664" lon="8.70214308910899"><ele>366.0</ele><time>2026-04-05T09:48:40Z</time></trkpt><trkpt lat="44.52295123106305" lon="8.701953959920411"><ele>365.5</ele><time>2026-04-05T09:48:41Z</time></trkpt><trkpt lat="44.52274914443681" lon="8.701767938354395"><ele>365.0</ele><time>2026-04-05T09:48:42Z</time></trkpt><trkpt lat="44.52256021105576" lon="8.70160293221467"><ele>365.0</ele><time>2026-04-05T09:48:43Z</time></trkpt><trkpt lat="44.522389235784615" lon="8.701449214563596"><ele>365.0</ele><time>2026-04-05T09:48:44Z</time></trkpt><trkpt lat="44.522220459425874" lon="8.70129608430501"><ele>365.0</ele><time>2026-04-05T09:48:45Z</time></trkpt><trkpt lat="44.52207045400338" lon="8.701153860180742"><ele>366.0</ele><time>2026-04-05T09:48:46Z</time></trkpt><trkpt lat="44.52192815104389" lon="8.701033047895127"><ele>367.0</ele><time>2026-04-05T09:48:47Z</time></trkpt><trkpt lat="44.521760508276806" lon="8.70091935795335"><ele>368.0</ele><time>2026-04-05T09:48:48Z</time></trkpt><trkpt lat="44.52156940392794" lon="8.700834638231587"><ele>368.0</ele><time>2026-04-05T09:48:49Z</time></trkpt><trkpt lat="44.52137073117794" lon="8.700804410856133"><ele>368.0</ele><time>2026-04-05T09:48:50Z</time></trkpt><trkpt lat="44.521181185547455" lon="8.700795297554153"><ele>368.0</ele><time>2026-04-05T09:48:51Z</time></trkpt><trkpt lat="44.5209954546674" lon="8.700782767717488"><ele>367.33333333333337</ele><time>2026-04-05T09:48:52Z</time></trkpt><trkpt lat="44.52081486021263" lon="8.700726639340923"><ele>366.6666666666667</ele><time>2026-04-05T09:48:53Z</time></trkpt><trkpt lat="44.52063277333333" lon="8.700621844845863"><ele>366.0</ele><time>2026-04-05T09:48:54Z</time></trkpt><trkpt lat="44.52044266779613" lon="8.700486930214074"><ele>366.0</ele><time>2026-04-05T09:48:54.999Z</time></trkpt><trkpt lat="44.520259036559814" lon="8.700333215989653"><ele>366.0</ele><time>2026-04-05T09:48:55.999Z</time></trkpt><trkpt lat="44.520087920929605" lon="8.700207226508054"><ele>366.0</ele><time>2026-04-05T09:48:56.999Z</time></trkpt><trkpt lat="44.51989607442824" lon="8.700112387939068"><ele>366.0</ele><time>2026-04-05T09:48:57.999Z</time></trkpt><trkpt lat="44.519680519203625" lon="8.700042435043208"><ele>366.0</ele><time>2026-04-05T09:48:58.999Z</time></trkpt><trkpt lat="44.51945066873639" lon="8.699995065085673"><ele>366.0</ele><time>2026-04-05T09:48:59.999Z</time></trkpt><trkpt lat="44.519210892259046" lon="8.699967873820533"><ele>366.0</ele><time>2026-04-05T09:49:00.999Z</time></trkpt><trkpt lat="44.5189759774432" lon="8.699925708241919"><ele>366.0</ele><time>2026-04-05T09:49:01.999Z</time></trkpt><trkpt lat="44.51874340814105" lon="8.699874296306401"><ele>366.0</ele><time>2026-04-05T09:49:02.999Z</time></trkpt><trkpt lat="44.5185195589863" lon="8.699836395986594"><ele>366.6666666666667</ele><time>2026-04-05T09:49:03.999Z</time></trkpt><trkpt lat="44.51830112615355" lon="8.699792270660184"><ele>367.33333333333337</ele><time>2026-04-05T09:49:04.999Z</time></trkpt><trkpt lat="44.518097182389646" lon="8.699748305434879"><ele>368.0</ele><time>2026-04-05T09:49:05.999Z</time></trkpt><trkpt lat="44.517898444540464" lon="8.699700464720786"><ele>373.33333333333337</ele><time>2026-04-05T09:49:06.999Z</time></trkpt><trkpt lat="44.51771168011614" lon="8.69966704515728"><ele>378.6666666666667</ele><time>2026-04-05T09:49:07.999Z</time></trkpt><trkpt lat="44.51752841047429" lon="8.699659045131073"><ele>384.0</ele><time>2026-04-05T09:49:08.999Z</time></trkpt><trkpt lat="44.51734435653375" lon="8.699687481335896"><ele>384.0</ele><time>2026-04-05T09:49:09.999Z</time></trkpt><trkpt lat="44.51715344236348" lon="8.699755833131988"><ele>384.0</ele><time>2026-04-05T09:49:10.999Z</time></trkpt><trkpt lat="44.51695702715388" lon="8.699824265169715"><ele>384.0</ele><time>2026-04-05T09:49:11.999Z</time></trkpt><trkpt lat="44.51675139161986" lon="8.69991775077258"><ele>382.5</ele><time>2026-04-05T09:49:12.999Z</time></trkpt><trkpt lat="44.51653988772173" lon="8.700015542381806"><ele>381.0</ele><time>2026-04-05T09:49:13.999Z</time></trkpt><trkpt lat="44.516323242213275" lon="8.700114543957858"><ele>376.0</ele><time>2026-04-05T09:49:14.999Z</time></trkpt><trkpt lat="44.51610341176211" lon="8.70021134720467"><ele>371.0</ele><time>2026-04-05T09:49:15.999Z</time></trkpt><trkpt lat="44.51587520177107" lon="8.700303878199689"><ele>384.5</ele><time>2026-04-05T09:49:16.999Z</time></trkpt><trkpt lat="44.515622086732854" lon="8.700372561634074"><ele>398.0</ele><time>2026-04-05T09:49:17.999Z</time></trkpt><trkpt lat="44.51540536997097" lon="8.700406199189642"><ele>391.0</ele><time>2026-04-05T09:49:18.999Z</time></trkpt><trkpt lat="44.5151836510127" lon="8.700429777583716"><ele>384.0</ele><time>2026-04-05T09:49:19.999Z</time></trkpt><trkpt lat="44.51495496337628" lon="8.700459389518823"><ele>384.0</ele><time>2026-04-05T09:49:20.999Z</time></trkpt><trkpt lat="44.514727178592516" lon="8.700534951990631"><ele>384.0</ele><time>2026-04-05T09:49:21.999Z</time></trkpt><trkpt lat="44.51450376191544" lon="8.70059635409979"><ele>382.0</ele><time>2026-04-05T09:49:22.999Z</time></trkpt><trkpt lat="44.51428081004717" lon="8.700635412883422"><ele>380.0</ele><time>2026-04-05T09:49:23.999Z</time></trkpt><trkpt lat="44.51402042670826" lon="8.700705812956752"><ele>380.0</ele><time>2026-04-05T09:49:24.999Z</time></trkpt><trkpt lat="44.51375708173741" lon="8.700775477529284"><ele>380.0</ele><time>2026-04-05T09:49:25.999Z</time></trkpt><trkpt lat="44.51352776808927" lon="8.700836139383318"><ele>379.6666666666667</ele><time>2026-04-05T09:49:26.999Z</time></trkpt><trkpt lat="44.51332890253415" lon="8.700890615425802"><ele>379.3333333333333</ele><time>2026-04-05T09:49:27.999Z</time></trkpt><trkpt lat="44.513150342798404" lon="8.700968588763955"><ele>379.0</ele><time>2026-04-05T09:49:28.999Z</time></trkpt><trkpt lat="44.51297804105983" lon="8.70103068454359"><ele>386.3333333333333</ele><time>2026-04-05T09:49:29.999Z</time></trkpt><trkpt lat="44.51279300453601" lon="8.7011387329917"><ele>393.66666666666663</ele><time>2026-04-05T09:49:30.999Z</time></trkpt><trkpt lat="44.51259776136404" lon="8.701297310015972"><ele>401.0</ele><time>2026-04-05T09:49:31.999Z</time></trkpt><trkpt lat="44.512392944290944" lon="8.701480718942769"><ele>401.0</ele><time>2026-04-05T09:49:32.999Z</time></trkpt><trkpt lat="44.51217796061433" lon="8.70170251380501"><ele>401.0</ele><time>2026-04-05T09:49:33.999Z</time></trkpt><trkpt lat="44.51196782895604" lon="8.701940774994792"><ele>401.5</ele><time>2026-04-05T09:49:34.999Z</time></trkpt><trkpt lat="44.511783935643734" lon="8.702144372940584"><ele>402.0</ele><time>2026-04-05T09:49:35.999Z</time></trkpt><trkpt lat="44.51160900135224" lon="8.702322905261717"><ele>402.0</ele><time>2026-04-05T09:49:36.999Z</time></trkpt><trkpt lat="44.511437282784996" lon="8.702490567232472"><ele>402.0</ele><time>2026-04-05T09:49:37.999Z</time></trkpt><trkpt lat="44.51127546646644" lon="8.702652426262196"><ele>402.0</ele><time>2026-04-05T09:49:38.999Z</time></trkpt><trkpt lat="44.511123671734445" lon="8.702801452205383"><ele>401.66666666666663</ele><time>2026-04-05T09:49:39.999Z</time></trkpt><trkpt lat="44.51097154609348" lon="8.702951931716484"><ele>401.3333333333333</ele><time>2026-04-05T09:49:40.999Z</time></trkpt><trkpt lat="44.510806534521045" lon="8.703112245448771"><ele>401.0</ele><time>2026-04-05T09:49:41.999Z</time></trkpt><trkpt lat="44.51063992778367" lon="8.703282690157367"><ele>401.0</ele><time>2026-04-05T09:49:42.999Z</time></trkpt><trkpt lat="44.51049022702786" lon="8.703433315136717"><ele>401.0</ele><time>2026-04-05T09:49:43.999Z</time></trkpt><trkpt lat="44.51031479980841" lon="8.703600162695531"><ele>401.0</ele><time>2026-04-05T09:49:44.999Z</time></trkpt><trkpt lat="44.51010667625775" lon="8.703774779953584"><ele>399.0</ele><time>2026-04-05T09:49:45.999Z</time></trkpt><trkpt lat="44.50989765184591" lon="8.70391959023828"><ele>397.0</ele><time>2026-04-05T09:49:46.999Z</time></trkpt><trkpt lat="44.50968573423913" lon="8.704055184050103"><ele>389.5</ele><time>2026-04-05T09:49:47.999Z</time></trkpt><trkpt lat="44.50947276291155" lon="8.704198546488074"><ele>382.0</ele><time>2026-04-05T09:49:48.999Z</time></trkpt><trkpt lat="44.50926519654936" lon="8.70435052348367"><ele>386.0</ele><time>2026-04-05T09:49:49.999Z</time></trkpt><trkpt lat="44.50906067786336" lon="8.704466711847278"><ele>390.0</ele><time>2026-04-05T09:49:50.999Z</time></trkpt><trkpt lat="44.50886446916103" lon="8.704564158035803"><ele>394.0</ele><time>2026-04-05T09:49:51.999Z</time></trkpt><trkpt lat="44.50868466415739" lon="8.70465475624918"><ele>394.0</ele><time>2026-04-05T09:49:52.999Z</time></trkpt><trkpt lat="44.5085209115286" lon="8.704729659477465"><ele>394.0</ele><time>2026-04-05T09:49:53.999Z</time></trkpt><trkpt lat="44.50836138983435" lon="8.704775846416505"><ele>394.0</ele><time>2026-04-05T09:49:54.999Z</time></trkpt><trkpt lat="44.50819099213366" lon="8.704831806224123"><ele>394.0</ele><time>2026-04-05T09:49:55.999Z</time></trkpt><trkpt lat="44.50800989376351" lon="8.704912621880645"><ele>394.0</ele><time>2026-04-05T09:49:56.999Z</time></trkpt><trkpt lat="44.50784839645158" lon="8.704988363351697"><ele>394.0</ele><time>2026-04-05T09:49:57.999Z</time></trkpt><trkpt lat="44.507702258571435" lon="8.70504394340367"><ele>392.75</ele><time>2026-04-05T09:49:59Z</time></trkpt><trkpt lat="44.50756889208567" lon="8.7050696164719"><ele>391.5</ele><time>2026-04-05T09:50:00Z</time></trkpt><trkpt lat="44.50745202203043" lon="8.705113839372386"><ele>390.25</ele><time>2026-04-05T09:50:01Z</time></trkpt><trkpt lat="44.50733831080925" lon="8.70516146217767"><ele>389.0</ele><time>2026-04-05T09:50:02Z</time></trkpt><trkpt lat="44.50724600229632" lon="8.705208642636578"><ele>390.3333333333333</ele><time>2026-04-05T09:50:03Z</time></trkpt><trkpt lat="44.50716591935322" lon="8.705246476784291"><ele>391.66666666666663</ele><time>2026-04-05T09:50:04Z</time></trkpt><trkpt lat="44.507101881287255" lon="8.705276161348994"><ele>393.0</ele><time>2026-04-05T09:50:05Z</time></trkpt><trkpt lat="44.50703568719785" lon="8.705294096137155"><ele>394.33333333333337</ele><time>2026-04-05T09:50:07Z</time></trkpt><trkpt lat="44.506969250996" lon="8.705292331329574"><ele>395.6666666666667</ele><time>2026-04-05T09:50:09Z</time></trkpt><trkpt lat="44.50685505382422" lon="8.705301929241774"><ele>397.0</ele><time>2026-04-05T09:50:11Z</time></trkpt><trkpt lat="44.506803374434625" lon="8.705352517161154"><ele>397.00000000000006</ele><time>2026-04-05T09:50:12Z</time></trkpt><trkpt lat="44.50675099858233" lon="8.705419743477865"><ele>397.0</ele><time>2026-04-05T09:50:13Z</time></trkpt><trkpt lat="44.50669676839252" lon="8.705487084517062"><ele>397.0</ele><time>2026-04-05T09:50:14Z</time></trkpt><trkpt lat="44.506634540859345" lon="8.705534444891311"><ele>397.0</ele><time>2026-04-05T09:50:15Z</time></trkpt><trkpt lat="44.506564972120614" lon="8.705574698375466"><ele>397.00000000000006</ele><time>2026-04-05T09:50:16Z</time></trkpt><trkpt lat="44.5065048403239" lon="8.705611202435641"><ele>397.0</ele><time>2026-04-05T09:50:17Z</time></trkpt><trkpt lat="44.50640328279568" lon="8.705673890397124"><ele>397.0</ele><time>2026-04-05T09:50:19Z</time></trkpt><trkpt lat="44.506309328855934" lon="8.705724275929793"><ele>397.0</ele><time>2026-04-05T09:50:21Z</time></trkpt><trkpt lat="44.50621526210508" lon="8.705811897943638"><ele>397.0</ele><time>2026-04-05T09:50:36Z</time></trkpt><trkpt lat="44.50613650687719" lon="8.705869314542747"><ele>397.0</ele><time>2026-04-05T09:50:37Z</time></trkpt><trkpt lat="44.50603454064103" lon="8.705954557345382"><ele>397.0</ele><time>2026-04-05T09:50:38Z</time></trkpt><trkpt lat="44.50593250810023" lon="8.706049945554318"><ele>398.0</ele><time>2026-04-05T09:50:39Z</time></trkpt><trkpt lat="44.50582885591889" lon="8.706163918526814"><ele>399.0</ele><time>2026-04-05T09:50:40Z</time></trkpt><trkpt lat="44.50573254554749" lon="8.706281875975426"><ele>400.0</ele><time>2026-04-05T09:50:41Z</time></trkpt><trkpt lat="44.50563975540315" lon="8.706396849515558"><ele>401.0</ele><time>2026-04-05T09:50:42Z</time></trkpt><trkpt lat="44.505526325466576" lon="8.706490402360044"><ele>401.0</ele><time>2026-04-05T09:50:43Z</time></trkpt><trkpt lat="44.505428817497425" lon="8.706604316508054"><ele>401.0</ele><time>2026-04-05T09:50:44Z</time></trkpt><trkpt lat="44.505330402520386" lon="8.706752713508163"><ele>401.0</ele><time>2026-04-05T09:50:45Z</time></trkpt><trkpt lat="44.505245555189" lon="8.706937977923245"><ele>401.0</ele><time>2026-04-05T09:50:46Z</time></trkpt><trkpt lat="44.50517582026029" lon="8.707113154755143"><ele>399.5</ele><time>2026-04-05T09:50:47Z</time></trkpt><trkpt lat="44.50512852226596" lon="8.70728231488274"><ele>398.0</ele><time>2026-04-05T09:50:48Z</time></trkpt><trkpt lat="44.50509918804246" lon="8.707459317906292"><ele>396.5</ele><time>2026-04-05T09:50:49Z</time></trkpt><trkpt lat="44.505092982989304" lon="8.707641607536031"><ele>395.0</ele><time>2026-04-05T09:50:50Z</time></trkpt><trkpt lat="44.505108644738414" lon="8.707839481193083"><ele>393.3333333333333</ele><time>2026-04-05T09:50:51Z</time></trkpt><trkpt lat="44.50515277924219" lon="8.70804164918687"><ele>391.66666666666663</ele><time>2026-04-05T09:50:52Z</time></trkpt><trkpt lat="44.5052174086145" lon="8.708264174549413"><ele>390.0</ele><time>2026-04-05T09:50:53Z</time></trkpt><trkpt lat="44.505303909988434" lon="8.708502963467803"><ele>394.5</ele><time>2026-04-05T09:50:54Z</time></trkpt><trkpt lat="44.50539635739282" lon="8.70877694334107"><ele>399.0</ele><time>2026-04-05T09:50:55Z</time></trkpt><trkpt lat="44.50550970532564" lon="8.709089946783504"><ele>399.0</ele><time>2026-04-05T09:50:56Z</time></trkpt><trkpt lat="44.505607547477744" lon="8.70936155456498"><ele>399.0</ele><time>2026-04-05T09:50:57Z</time></trkpt><trkpt lat="44.505693329789175" lon="8.709586405713523"><ele>399.0</ele><time>2026-04-05T09:50:58Z</time></trkpt><trkpt lat="44.50577697186967" lon="8.709805534496377"><ele>399.0</ele><time>2026-04-05T09:50:59Z</time></trkpt><trkpt lat="44.50588041847528" lon="8.709996354229666"><ele>399.0</ele><time>2026-04-05T09:51:00Z</time></trkpt><trkpt lat="44.506013816420115" lon="8.710172388794128"><ele>399.0</ele><time>2026-04-05T09:51:01Z</time></trkpt><trkpt lat="44.50615723955404" lon="8.710360100371426"><ele>402.33333333333337</ele><time>2026-04-05T09:51:01.999Z</time></trkpt><trkpt lat="44.50628461973104" lon="8.710525155896326"><ele>405.6666666666667</ele><time>2026-04-05T09:51:02.999Z</time></trkpt><trkpt lat="44.50640307272805" lon="8.71067882050404"><ele>409.0</ele><time>2026-04-05T09:51:03.999Z</time></trkpt><trkpt lat="44.50652201594965" lon="8.710837090434124"><ele>409.0</ele><time>2026-04-05T09:51:04.999Z</time></trkpt><trkpt lat="44.506635773547806" lon="8.711002423124869"><ele>409.0</ele><time>2026-04-05T09:51:05.999Z</time></trkpt><trkpt lat="44.50673885389789" lon="8.711186984389498"><ele>409.0</ele><time>2026-04-05T09:51:06.999Z</time></trkpt><trkpt lat="44.50683089131866" lon="8.711367317845864"><ele>405.0</ele><time>2026-04-05T09:51:07.999Z</time></trkpt><trkpt lat="44.506926632649304" lon="8.71151318572563"><ele>401.0</ele><time>2026-04-05T09:51:08.999Z</time></trkpt><trkpt lat="44.50698664228225" lon="8.711666119560661"><ele>397.0</ele><time>2026-04-05T09:51:09.999Z</time></trkpt><trkpt lat="44.50704906471185" lon="8.711811672514639"><ele>393.0</ele><time>2026-04-05T09:51:10.999Z</time></trkpt><trkpt lat="44.50710610720052" lon="8.711968470745735"><ele>393.0</ele><time>2026-04-05T09:51:11.999Z</time></trkpt><trkpt lat="44.5071162806032" lon="8.71214085611244"><ele>393.0</ele><time>2026-04-05T09:51:12.999Z</time></trkpt><trkpt lat="44.50706934446566" lon="8.712325023188937"><ele>393.0</ele><time>2026-04-05T09:51:13.999Z</time></trkpt><trkpt lat="44.507006828783275" lon="8.712493809336456"><ele>393.0</ele><time>2026-04-05T09:51:14.999Z</time></trkpt><trkpt lat="44.50690157333284" lon="8.712708191146566"><ele>392.66666666666663</ele><time>2026-04-05T09:51:15.999Z</time></trkpt><trkpt lat="44.5067879711586" lon="8.712921674078158"><ele>392.3333333333333</ele><time>2026-04-05T09:51:16.999Z</time></trkpt><trkpt lat="44.50669835375117" lon="8.713090084475981"><ele>392.0</ele><time>2026-04-05T09:51:17.999Z</time></trkpt><trkpt lat="44.5066223668517" lon="8.713232880210786"><ele>392.0</ele><time>2026-04-05T09:51:18.999Z</time></trkpt><trkpt lat="44.50655290671101" lon="8.71336496374362"><ele>392.0</ele><time>2026-04-05T09:51:19.999Z</time></trkpt><trkpt lat="44.5064908911202" lon="8.71348379808853"><ele>392.0</ele><time>2026-04-05T09:51:20.999Z</time></trkpt><trkpt lat="44.50642526550195" lon="8.713604827634603"><ele>392.0</ele><time>2026-04-05T09:51:21.999Z</time></trkpt><trkpt lat="44.50635722878262" lon="8.713722037882615"><ele>392.0</ele><time>2026-04-05T09:51:22.999Z</time></trkpt><trkpt lat="44.506273644129934" lon="8.713829456176455"><ele>392.0</ele><time>2026-04-05T09:51:23.999Z</time></trkpt><trkpt lat="44.50617470338141" lon="8.713935640945039"><ele>392.0</ele><time>2026-04-05T09:51:24.999Z</time></trkpt><trkpt lat="44.506058342197946" lon="8.71400730087804"><ele>392.0</ele><time>2026-04-05T09:51:25.999Z</time></trkpt><trkpt lat="44.505937645561616" lon="8.714084171049462"><ele>392.0</ele><time>2026-04-05T09:51:26.999Z</time></trkpt><trkpt lat="44.50582262166446" lon="8.714135507280304"><ele>392.0</ele><time>2026-04-05T09:51:27.999Z</time></trkpt><trkpt lat="44.50571077022203" lon="8.714181175515707"><ele>392.0</ele><time>2026-04-05T09:51:28.999Z</time></trkpt><trkpt lat="44.505590721162555" lon="8.714236291736007"><ele>392.0</ele><time>2026-04-05T09:51:29.999Z</time></trkpt><trkpt lat="44.50546725922706" lon="8.714261326481347"><ele>392.0</ele><time>2026-04-05T09:51:30.999Z</time></trkpt><trkpt lat="44.50535015435061" lon="8.714266214085317"><ele>392.25</ele><time>2026-04-05T09:51:31.999Z</time></trkpt><trkpt lat="44.50521782226038" lon="8.714234153538397"><ele>392.5</ele><time>2026-04-05T09:51:32.999Z</time></trkpt><trkpt lat="44.50508024405988" lon="8.714182604937777"><ele>392.75</ele><time>2026-04-05T09:51:33.999Z</time></trkpt><trkpt lat="44.50494389946675" lon="8.714087490705289"><ele>393.0</ele><time>2026-04-05T09:51:34.999Z</time></trkpt><trkpt lat="44.504831340272936" lon="8.714005837749022"><ele>393.0</ele><time>2026-04-05T09:51:35.999Z</time></trkpt><trkpt lat="44.50469029918622" lon="8.713915457036412"><ele>393.0</ele><time>2026-04-05T09:51:36.999Z</time></trkpt><trkpt lat="44.50452306273614" lon="8.713805720869491"><ele>393.0</ele><time>2026-04-05T09:51:37.999Z</time></trkpt><trkpt lat="44.50433458257747" lon="8.713689994493553"><ele>393.5</ele><time>2026-04-05T09:51:38.999Z</time></trkpt><trkpt lat="44.50418783546336" lon="8.71358654390242"><ele>394.0</ele><time>2026-04-05T09:51:39.999Z</time></trkpt><trkpt lat="44.50405892590169" lon="8.71352039464028"><ele>394.5</ele><time>2026-04-05T09:51:40.999Z</time></trkpt><trkpt lat="44.50393212364738" lon="8.713444344509927"><ele>395.0</ele><time>2026-04-05T09:51:41.999Z</time></trkpt><trkpt lat="44.503833123691244" lon="8.713382538259031"><ele>395.8</ele><time>2026-04-05T09:51:42.999Z</time></trkpt><trkpt lat="44.50372742680114" lon="8.713342279760113"><ele>396.6</ele><time>2026-04-05T09:51:43.999Z</time></trkpt><trkpt lat="44.50362386071947" lon="8.713311002447654"><ele>397.4</ele><time>2026-04-05T09:51:44.999Z</time></trkpt><trkpt lat="44.503524953875086" lon="8.713337643124559"><ele>398.2</ele><time>2026-04-05T09:51:45.999Z</time></trkpt><trkpt lat="44.503443666768405" lon="8.713469558497328"><ele>399.0</ele><time>2026-04-05T09:51:46.999Z</time></trkpt><trkpt lat="44.50335814803554" lon="8.713598731475114"><ele>399.2</ele><time>2026-04-05T09:51:47.999Z</time></trkpt><trkpt lat="44.50327502263228" lon="8.71372490490976"><ele>399.4</ele><time>2026-04-05T09:51:48.999Z</time></trkpt><trkpt lat="44.50320222027164" lon="8.71382751665602"><ele>399.6</ele><time>2026-04-05T09:51:49.999Z</time></trkpt><trkpt lat="44.503110382195345" lon="8.713897854727632"><ele>399.8</ele><time>2026-04-05T09:51:50.999Z</time></trkpt><trkpt lat="44.50302955781358" lon="8.71399793295013"><ele>400.0</ele><time>2026-04-05T09:51:51.999Z</time></trkpt><trkpt lat="44.502946837406554" lon="8.714109718819678"><ele>400.25</ele><time>2026-04-05T09:51:52.999Z</time></trkpt><trkpt lat="44.502868697286" lon="8.714208959924651"><ele>400.5</ele><time>2026-04-05T09:51:53.999Z</time></trkpt><trkpt lat="44.50278965347087" lon="8.714334250361714"><ele>400.75</ele><time>2026-04-05T09:51:54.999Z</time></trkpt><trkpt lat="44.5027208305259" lon="8.714475598301856"><ele>401.0</ele><time>2026-04-05T09:51:55.999Z</time></trkpt><trkpt lat="44.5026470518821" lon="8.714618482505962"><ele>402.75</ele><time>2026-04-05T09:51:56.999Z</time></trkpt><trkpt lat="44.50256699022438" lon="8.714770558506167"><ele>404.5</ele><time>2026-04-05T09:51:57.999Z</time></trkpt><trkpt lat="44.50249669076423" lon="8.714937528257343"><ele>406.25</ele><time>2026-04-05T09:51:58.999Z</time></trkpt><trkpt lat="44.502402618548366" lon="8.71508062011057"><ele>408.0</ele><time>2026-04-05T09:51:59.999Z</time></trkpt><trkpt lat="44.50232278303389" lon="8.715238711628784"><ele>407.0</ele><time>2026-04-05T09:52:00.999Z</time></trkpt><trkpt lat="44.502242566499135" lon="8.715403758186852"><ele>406.0</ele><time>2026-04-05T09:52:01.999Z</time></trkpt><trkpt lat="44.50216021858956" lon="8.71556787373951"><ele>405.0</ele><time>2026-04-05T09:52:02.999Z</time></trkpt><trkpt lat="44.5020612547978" lon="8.715764496839936"><ele>405.0</ele><time>2026-04-05T09:52:03.999Z</time></trkpt><trkpt lat="44.501959881236196" lon="8.715950117989822"><ele>405.0</ele><time>2026-04-05T09:52:05Z</time></trkpt><trkpt lat="44.50187887236774" lon="8.716115716822312"><ele>405.0</ele><time>2026-04-05T09:52:06Z</time></trkpt><trkpt lat="44.50182344067586" lon="8.716309583886163"><ele>405.33333333333337</ele><time>2026-04-05T09:52:07Z</time></trkpt><trkpt lat="44.50177800509799" lon="8.716519767372422"><ele>405.6666666666667</ele><time>2026-04-05T09:52:08Z</time></trkpt><trkpt lat="44.50173267406671" lon="8.716755521414076"><ele>406.0</ele><time>2026-04-05T09:52:09Z</time></trkpt><trkpt lat="44.501680723593736" lon="8.716991639915017"><ele>405.0</ele><time>2026-04-05T09:52:10Z</time></trkpt><trkpt lat="44.50162830461035" lon="8.717194714187059"><ele>404.0</ele><time>2026-04-05T09:52:11Z</time></trkpt><trkpt lat="44.50155552099164" lon="8.717388907398737"><ele>403.0</ele><time>2026-04-05T09:52:12Z</time></trkpt><trkpt lat="44.50144941029807" lon="8.717576627221684"><ele>403.25</ele><time>2026-04-05T09:52:13Z</time></trkpt><trkpt lat="44.50138334518088" lon="8.717736352499259"><ele>403.5</ele><time>2026-04-05T09:52:14Z</time></trkpt><trkpt lat="44.50130437113274" lon="8.71786297031828"><ele>403.75</ele><time>2026-04-05T09:52:15Z</time></trkpt><trkpt lat="44.50123561389023" lon="8.71797720545945"><ele>404.0</ele><time>2026-04-05T09:52:16Z</time></trkpt><trkpt lat="44.501155502978285" lon="8.71808688450131"><ele>404.0</ele><time>2026-04-05T09:52:17Z</time></trkpt><trkpt lat="44.50109891703072" lon="8.718216718632245"><ele>404.0</ele><time>2026-04-05T09:52:18Z</time></trkpt><trkpt lat="44.50103218149455" lon="8.718327415452027"><ele>404.0</ele><time>2026-04-05T09:52:19Z</time></trkpt><trkpt lat="44.50095465015992" lon="8.718428319940042"><ele>404.0</ele><time>2026-04-05T09:52:20Z</time></trkpt><trkpt lat="44.500888791938365" lon="8.718541407081236"><ele>404.0</ele><time>2026-04-05T09:52:21Z</time></trkpt><trkpt lat="44.50081386776682" lon="8.718669801356638"><ele>405.3333333333333</ele><time>2026-04-05T09:52:22Z</time></trkpt><trkpt lat="44.50072661713552" lon="8.718856023990908"><ele>406.66666666666663</ele><time>2026-04-05T09:52:23Z</time></trkpt><trkpt lat="44.500598717240415" lon="8.719038495796802"><ele>408.0</ele><time>2026-04-05T09:52:24Z</time></trkpt><trkpt lat="44.50046840744352" lon="8.7192638545535"><ele>408.5</ele><time>2026-04-05T09:52:25Z</time></trkpt><trkpt lat="44.500318715690945" lon="8.719522111220266"><ele>409.0</ele><time>2026-04-05T09:52:26Z</time></trkpt><trkpt lat="44.50015302517658" lon="8.719800835256645"><ele>409.0</ele><time>2026-04-05T09:52:27Z</time></trkpt><trkpt lat="44.50001262562777" lon="8.72003804191633"><ele>409.0</ele><time>2026-04-05T09:52:28Z</time></trkpt><trkpt lat="44.49988771383011" lon="8.720269821849747"><ele>409.0</ele><time>2026-04-05T09:52:29Z</time></trkpt><trkpt lat="44.4997971418904" lon="8.720531025518905"><ele>409.0</ele><time>2026-04-05T09:52:30Z</time></trkpt><trkpt lat="44.499703693491085" lon="8.720778727807865"><ele>409.0</ele><time>2026-04-05T09:52:31Z</time></trkpt><trkpt lat="44.4996483487299" lon="8.721040968918638"><ele>409.0</ele><time>2026-04-05T09:52:32Z</time></trkpt><trkpt lat="44.49963600332785" lon="8.721287269913152"><ele>409.0</ele><time>2026-04-05T09:52:33Z</time></trkpt><trkpt lat="44.499619130538434" lon="8.72148810608061"><ele>409.0</ele><time>2026-04-05T09:52:34Z</time></trkpt><trkpt lat="44.49959188063526" lon="8.721663242941206"><ele>409.0</ele><time>2026-04-05T09:52:35Z</time></trkpt><trkpt lat="44.499538735431685" lon="8.721811813812527"><ele>409.0</ele><time>2026-04-05T09:52:36Z</time></trkpt><trkpt lat="44.4994499694256" lon="8.721934050949198"><ele>410.6666666666667</ele><time>2026-04-05T09:52:37Z</time></trkpt><trkpt lat="44.499321329446126" lon="8.722003396771726"><ele>412.33333333333337</ele><time>2026-04-05T09:52:38Z</time></trkpt><trkpt lat="44.49915831303217" lon="8.722101603226344"><ele>414.0</ele><time>2026-04-05T09:52:39Z</time></trkpt><trkpt lat="44.498965009405644" lon="8.722184683458064"><ele>418.66666666666663</ele><time>2026-04-05T09:52:40Z</time></trkpt><trkpt lat="44.49874797597488" lon="8.722272165016033"><ele>423.3333333333333</ele><time>2026-04-05T09:52:41Z</time></trkpt><trkpt lat="44.49856242766825" lon="8.722395102083462"><ele>428.0</ele><time>2026-04-05T09:52:42Z</time></trkpt><trkpt lat="44.49840109184245" lon="8.722508932712119"><ele>428.0</ele><time>2026-04-05T09:52:43Z</time></trkpt><trkpt lat="44.49823936236026" lon="8.722623041062356"><ele>428.0</ele><time>2026-04-05T09:52:44Z</time></trkpt><trkpt lat="44.498095948617795" lon="8.72272422676796"><ele>428.0</ele><time>2026-04-05T09:52:45Z</time></trkpt><trkpt lat="44.49796976910137" lon="8.722812897582624"><ele>432.75</ele><time>2026-04-05T09:52:46Z</time></trkpt><trkpt lat="44.49786624693013" lon="8.722886913924931"><ele>437.5</ele><time>2026-04-05T09:52:47Z</time></trkpt><trkpt lat="44.49778268634216" lon="8.722967609663236"><ele>442.25</ele><time>2026-04-05T09:52:48Z</time></trkpt><trkpt lat="44.49771799232443" lon="8.723092006506535"><ele>447.0</ele><time>2026-04-05T09:52:49Z</time></trkpt><trkpt lat="44.49767107109145" lon="8.723252204051631"><ele>447.0</ele><time>2026-04-05T09:52:50Z</time></trkpt><trkpt lat="44.497660583085064" lon="8.723426136365308"><ele>447.0</ele><time>2026-04-05T09:52:51Z</time></trkpt><trkpt lat="44.49761219147269" lon="8.723591223145075"><ele>447.0</ele><time>2026-04-05T09:52:52Z</time></trkpt><trkpt lat="44.49753193437575" lon="8.723822641755177"><ele>447.0</ele><time>2026-04-05T09:52:53Z</time></trkpt><trkpt lat="44.49745000654632" lon="8.7240795327032"><ele>442.0</ele><time>2026-04-05T09:52:54Z</time></trkpt><trkpt lat="44.497373315056066" lon="8.724329622799338"><ele>437.0</ele><time>2026-04-05T09:52:55Z</time></trkpt><trkpt lat="44.49731256454593" lon="8.724531586971208"><ele>432.0</ele><time>2026-04-05T09:52:56Z</time></trkpt><trkpt lat="44.49725249919948" lon="8.724698626112446"><ele>434.5</ele><time>2026-04-05T09:52:57Z</time></trkpt><trkpt lat="44.497166584789206" lon="8.72481423296532"><ele>437.0</ele><time>2026-04-05T09:52:58Z</time></trkpt><trkpt lat="44.49706359500514" lon="8.724906239492357"><ele>439.5</ele><time>2026-04-05T09:52:59Z</time></trkpt><trkpt lat="44.49694192294688" lon="8.724973877124876"><ele>442.0</ele><time>2026-04-05T09:53:00Z</time></trkpt><trkpt lat="44.49682013723881" lon="8.725016946132275"><ele>442.0</ele><time>2026-04-05T09:53:01Z</time></trkpt><trkpt lat="44.49672716193765" lon="8.725059213625276"><ele>442.00000000000006</ele><time>2026-04-05T09:53:02Z</time></trkpt><trkpt lat="44.496642739661205" lon="8.725154056081445"><ele>442.00000000000006</ele><time>2026-04-05T09:53:03Z</time></trkpt><trkpt lat="44.49658173322664" lon="8.725288714545478"><ele>442.0</ele><time>2026-04-05T09:53:04Z</time></trkpt><trkpt lat="44.496571518812154" lon="8.725443736684689"><ele>442.0</ele><time>2026-04-05T09:53:05Z</time></trkpt><trkpt lat="44.49660414692103" lon="8.7255865394694"><ele>441.75</ele><time>2026-04-05T09:53:05.999Z</time></trkpt><trkpt lat="44.496668713598154" lon="8.725710774864748"><ele>441.5</ele><time>2026-04-05T09:53:06.999Z</time></trkpt><trkpt lat="44.496754251018025" lon="8.725800183430486"><ele>441.25</ele><time>2026-04-05T09:53:07.999Z</time></trkpt><trkpt lat="44.496863023946375" lon="8.725839921610975"><ele>441.0</ele><time>2026-04-05T09:53:08.999Z</time></trkpt><trkpt lat="44.49699887563881" lon="8.725868610623822"><ele>439.20000000000005</ele><time>2026-04-05T09:53:09.999Z</time></trkpt><trkpt lat="44.4971234619316" lon="8.725918645536769"><ele>437.40000000000003</ele><time>2026-04-05T09:53:10.999Z</time></trkpt><trkpt lat="44.49722640344129" lon="8.726007371022353"><ele>435.6</ele><time>2026-04-05T09:53:11.999Z</time></trkpt><trkpt lat="44.497287922183915" lon="8.726091674033443"><ele>433.8</ele><time>2026-04-05T09:53:12.999Z</time></trkpt><trkpt lat="44.497311508536185" lon="8.726217639969184"><ele>432.0</ele><time>2026-04-05T09:53:13.999Z</time></trkpt><trkpt lat="44.49730497688291" lon="8.726383113987321"><ele>432.0</ele><time>2026-04-05T09:53:14.999Z</time></trkpt><trkpt lat="44.49728081442081" lon="8.726605421145214"><ele>432.0</ele><time>2026-04-05T09:53:15.999Z</time></trkpt><trkpt lat="44.49725416474148" lon="8.726835684102072"><ele>432.0</ele><time>2026-04-05T09:53:16.999Z</time></trkpt><trkpt lat="44.49723096295704" lon="8.72710288841123"><ele>433.33333333333337</ele><time>2026-04-05T09:53:17.999Z</time></trkpt><trkpt lat="44.4972072920452" lon="8.727403167322697"><ele>434.6666666666667</ele><time>2026-04-05T09:53:18.999Z</time></trkpt><trkpt lat="44.497184712421564" lon="8.72765826889075"><ele>436.0</ele><time>2026-04-05T09:53:19.999Z</time></trkpt><trkpt lat="44.49715143271141" lon="8.727851429364671"><ele>437.0</ele><time>2026-04-05T09:53:20.999Z</time></trkpt><trkpt lat="44.497133229609425" lon="8.728005653454273"><ele>438.0</ele><time>2026-04-05T09:53:21.999Z</time></trkpt><trkpt lat="44.49710145890715" lon="8.728102967318865"><ele>439.0</ele><time>2026-04-05T09:53:22.999Z</time></trkpt><trkpt lat="44.497048347121336" lon="8.728171333105319"><ele>440.0</ele><time>2026-04-05T09:53:23.999Z</time></trkpt><trkpt lat="44.49695014181738" lon="8.728186492439487"><ele>441.0</ele><time>2026-04-05T09:53:24.999Z</time></trkpt><trkpt lat="44.496826324330705" lon="8.728141126434576"><ele>441.0</ele><time>2026-04-05T09:53:25.999Z</time></trkpt><trkpt lat="44.49667260149833" lon="8.728072675974413"><ele>441.0</ele><time>2026-04-05T09:53:26.999Z</time></trkpt><trkpt lat="44.496519732062225" lon="8.728001976505375"><ele>441.0</ele><time>2026-04-05T09:53:27.999Z</time></trkpt><trkpt lat="44.49638866786804" lon="8.727940932257491"><ele>443.66666666666663</ele><time>2026-04-05T09:53:28.999Z</time></trkpt><trkpt lat="44.49625047027586" lon="8.72794168019651"><ele>446.3333333333333</ele><time>2026-04-05T09:53:29.999Z</time></trkpt><trkpt lat="44.49609880085038" lon="8.728002899835596"><ele>449.0</ele><time>2026-04-05T09:53:30.999Z</time></trkpt><trkpt lat="44.49591141826399" lon="8.728094275759277"><ele>449.0</ele><time>2026-04-05T09:53:31.999Z</time></trkpt><trkpt lat="44.49568917978537" lon="8.728145009106766"><ele>449.0</ele><time>2026-04-05T09:53:32.999Z</time></trkpt><trkpt lat="44.49544556997103" lon="8.728228973200364"><ele>456.66666666666663</ele><time>2026-04-05T09:53:33.999Z</time></trkpt><trkpt lat="44.495218699372955" lon="8.72832198494687"><ele>464.33333333333337</ele><time>2026-04-05T09:53:34.999Z</time></trkpt><trkpt lat="44.49502582878729" lon="8.728396003523308"><ele>472.0</ele><time>2026-04-05T09:53:35.999Z</time></trkpt><trkpt lat="44.49486342265593" lon="8.728451221997116"><ele>472.0</ele><time>2026-04-05T09:53:36.999Z</time></trkpt><trkpt lat="44.49472102109082" lon="8.728495490144752"><ele>472.0</ele><time>2026-04-05T09:53:37.999Z</time></trkpt><trkpt lat="44.49458654564945" lon="8.728540504071884"><ele>472.0</ele><time>2026-04-05T09:53:38.999Z</time></trkpt><trkpt lat="44.4944380251509" lon="8.728511825890351"><ele>472.0</ele><time>2026-04-05T09:53:39.999Z</time></trkpt><trkpt lat="44.4942675896612" lon="8.728430821070075"><ele>471.6666666666667</ele><time>2026-04-05T09:53:40.999Z</time></trkpt><trkpt lat="44.49407218144229" lon="8.72831241897279"><ele>471.33333333333337</ele><time>2026-04-05T09:53:41.999Z</time></trkpt><trkpt lat="44.493856345870235" lon="8.728204741607382"><ele>471.0</ele><time>2026-04-05T09:53:42.999Z</time></trkpt><trkpt lat="44.493669253229086" lon="8.728136090697584"><ele>471.0</ele><time>2026-04-05T09:53:43.999Z</time></trkpt><trkpt lat="44.49350701161047" lon="8.728045400006328"><ele>471.0</ele><time>2026-04-05T09:53:44.999Z</time></trkpt><trkpt lat="44.49335563663683" lon="8.728004064881203"><ele>471.0</ele><time>2026-04-05T09:53:45.999Z</time></trkpt><trkpt lat="44.493235993432144" lon="8.727941375118554"><ele>471.0</ele><time>2026-04-05T09:53:46.999Z</time></trkpt><trkpt lat="44.49310173713242" lon="8.727934732188999"><ele>471.0</ele><time>2026-04-05T09:53:47.999Z</time></trkpt><trkpt lat="44.492958419680285" lon="8.727965170761887"><ele>471.0</ele><time>2026-04-05T09:53:48.999Z</time></trkpt><trkpt lat="44.492837005031" lon="8.728047365267273"><ele>471.0</ele><time>2026-04-05T09:53:49.999Z</time></trkpt><trkpt lat="44.49272926441268" lon="8.72819349053751"><ele>469.33333333333337</ele><time>2026-04-05T09:53:50.999Z</time></trkpt><trkpt lat="44.49260182641736" lon="8.728367971490428"><ele>467.6666666666667</ele><time>2026-04-05T09:53:51.999Z</time></trkpt><trkpt lat="44.49242547107693" lon="8.728498525769474"><ele>466.0</ele><time>2026-04-05T09:53:52.999Z</time></trkpt><trkpt lat="44.492242173195024" lon="8.728623448975704"><ele>466.0</ele><time>2026-04-05T09:53:53.999Z</time></trkpt><trkpt lat="44.49209885372228" lon="8.72878738832112"><ele>466.0</ele><time>2026-04-05T09:53:54.999Z</time></trkpt><trkpt lat="44.49200388848218" lon="8.728951018434813"><ele>466.0</ele><time>2026-04-05T09:53:55.999Z</time></trkpt><trkpt lat="44.4919034988263" lon="8.72908047946294"><ele>475.6666666666667</ele><time>2026-04-05T09:53:56.999Z</time></trkpt><trkpt lat="44.49178674220835" lon="8.729156544815343"><ele>485.33333333333337</ele><time>2026-04-05T09:53:57.999Z</time></trkpt><trkpt lat="44.49162949678809" lon="8.729200818000894"><ele>495.0</ele><time>2026-04-05T09:53:58.999Z</time></trkpt><trkpt lat="44.49146451226742" lon="8.729268558906071"><ele>495.0</ele><time>2026-04-05T09:53:59.999Z</time></trkpt><trkpt lat="44.49134407457104" lon="8.729331561919736"><ele>495.0</ele><time>2026-04-05T09:54:00.999Z</time></trkpt><trkpt lat="44.49122322120701" lon="8.729373747057327"><ele>495.0</ele><time>2026-04-05T09:54:01.999Z</time></trkpt><trkpt lat="44.49108858952033" lon="8.729378289052386"><ele>495.0</ele><time>2026-04-05T09:54:02.999Z</time></trkpt><trkpt lat="44.49095869302209" lon="8.729308225134112"><ele>497.5</ele><time>2026-04-05T09:54:03.999Z</time></trkpt><trkpt lat="44.49082664913551" lon="8.72920786405767"><ele>500.0</ele><time>2026-04-05T09:54:04.999Z</time></trkpt><trkpt lat="44.49070845683351" lon="8.729118848261008"><ele>502.5</ele><time>2026-04-05T09:54:05.999Z</time></trkpt><trkpt lat="44.49058048162777" lon="8.729080087253472"><ele>505.0</ele><time>2026-04-05T09:54:06.999Z</time></trkpt><trkpt lat="44.49045195669351" lon="8.729078332935572"><ele>506.0</ele><time>2026-04-05T09:54:07.999Z</time></trkpt><trkpt lat="44.49033860076355" lon="8.729122370541166"><ele>507.0</ele><time>2026-04-05T09:54:08.999Z</time></trkpt><trkpt lat="44.490244406434975" lon="8.729227752452593"><ele>508.0</ele><time>2026-04-05T09:54:09.999Z</time></trkpt><trkpt lat="44.49016511718649" lon="8.729346879167206"><ele>509.0</ele><time>2026-04-05T09:54:11Z</time></trkpt><trkpt lat="44.490133181619264" lon="8.729514278286862"><ele>505.75</ele><time>2026-04-05T09:54:12Z</time></trkpt><trkpt lat="44.49013041498666" lon="8.729702373936712"><ele>502.5</ele><time>2026-04-05T09:54:13Z</time></trkpt><trkpt lat="44.49011201817349" lon="8.729906037547412"><ele>499.25</ele><time>2026-04-05T09:54:14Z</time></trkpt><trkpt lat="44.49007983240841" lon="8.730083889326226"><ele>496.0</ele><time>2026-04-05T09:54:15Z</time></trkpt><trkpt lat="44.49003641621974" lon="8.730220174931407"><ele>498.25</ele><time>2026-04-05T09:54:16Z</time></trkpt><trkpt lat="44.489977920065456" lon="8.730334759124002"><ele>500.5</ele><time>2026-04-05T09:54:17Z</time></trkpt><trkpt lat="44.489860474522295" lon="8.730429942614546"><ele>502.75</ele><time>2026-04-05T09:54:18Z</time></trkpt><trkpt lat="44.489734369336595" lon="8.730510207310758"><ele>505.0</ele><time>2026-04-05T09:54:19Z</time></trkpt><trkpt lat="44.489582374519685" lon="8.730540412234651"><ele>505.0</ele><time>2026-04-05T09:54:20Z</time></trkpt><trkpt lat="44.4894070674378" lon="8.730581518940772"><ele>505.0</ele><time>2026-04-05T09:54:21Z</time></trkpt><trkpt lat="44.48921358078898" lon="8.730576171370792"><ele>505.0</ele><time>2026-04-05T09:54:22Z</time></trkpt><trkpt lat="44.48904740296679" lon="8.730605371244428"><ele>505.0</ele><time>2026-04-05T09:54:23Z</time></trkpt><trkpt lat="44.48891055609947" lon="8.730649997331264"><ele>505.0</ele><time>2026-04-05T09:54:24Z</time></trkpt><trkpt lat="44.48879749182778" lon="8.730704874855858"><ele>505.0</ele><time>2026-04-05T09:54:25Z</time></trkpt><trkpt lat="44.48870619632292" lon="8.730777017073565"><ele>505.0</ele><time>2026-04-05T09:54:26Z</time></trkpt><trkpt lat="44.48864139525057" lon="8.730926721456019"><ele>501.5</ele><time>2026-04-05T09:54:27Z</time></trkpt><trkpt lat="44.48862374045493" lon="8.731117958632357"><ele>498.0</ele><time>2026-04-05T09:54:28Z</time></trkpt><trkpt lat="44.488689013466484" lon="8.731276996803562"><ele>494.5</ele><time>2026-04-05T09:54:29Z</time></trkpt><trkpt lat="44.48873303431967" lon="8.731451183335782"><ele>491.0</ele><time>2026-04-05T09:54:30Z</time></trkpt><trkpt lat="44.488768839577126" lon="8.731577032755412"><ele>499.4</ele><time>2026-04-05T09:54:31Z</time></trkpt><trkpt lat="44.48872908528227" lon="8.731704057560291"><ele>507.8</ele><time>2026-04-05T09:54:32Z</time></trkpt><trkpt lat="44.48863989642915" lon="8.731795531605675"><ele>516.1999999999999</ele><time>2026-04-05T09:54:33Z</time></trkpt><trkpt lat="44.48855920068987" lon="8.731918617575268"><ele>524.6</ele><time>2026-04-05T09:54:34Z</time></trkpt><trkpt lat="44.488507283621495" lon="8.73205670716659"><ele>533.0</ele><time>2026-04-05T09:54:35Z</time></trkpt><trkpt lat="44.48851220873331" lon="8.73223368893731"><ele>535.0</ele><time>2026-04-05T09:54:36Z</time></trkpt><trkpt lat="44.488579060873086" lon="8.732397779900676"><ele>537.0</ele><time>2026-04-05T09:54:37Z</time></trkpt><trkpt lat="44.48869096056952" lon="8.73252251326337"><ele>539.0</ele><time>2026-04-05T09:54:38Z</time></trkpt><trkpt lat="44.48877643304162" lon="8.732683726457099"><ele>541.0</ele><time>2026-04-05T09:54:39Z</time></trkpt><trkpt lat="44.48882622709338" lon="8.732817980672085"><ele>541.25</ele><time>2026-04-05T09:54:40Z</time></trkpt><trkpt lat="44.48884747154549" lon="8.732955805651788"><ele>541.5</ele><time>2026-04-05T09:54:41Z</time></trkpt><trkpt lat="44.488824518733516" lon="8.733106281324371"><ele>541.75</ele><time>2026-04-05T09:54:42Z</time></trkpt><trkpt lat="44.4887647020205" lon="8.733253174522135"><ele>542.0</ele><time>2026-04-05T09:54:43Z</time></trkpt><trkpt lat="44.48867271334213" lon="8.733403335726507"><ele>537.75</ele><time>2026-04-05T09:54:44Z</time></trkpt><trkpt lat="44.488574899721016" lon="8.733562467179643"><ele>533.5</ele><time>2026-04-05T09:54:45Z</time></trkpt><trkpt lat="44.48844408720632" lon="8.733629493446916"><ele>529.25</ele><time>2026-04-05T09:54:46Z</time></trkpt><trkpt lat="44.488305230676254" lon="8.733690536012455"><ele>525.0</ele><time>2026-04-05T09:54:47Z</time></trkpt><trkpt lat="44.48814410843668" lon="8.733783047839466"><ele>525.0</ele><time>2026-04-05T09:54:48Z</time></trkpt><trkpt lat="44.48796182260773" lon="8.733859996316504"><ele>525.0</ele><time>2026-04-05T09:54:49Z</time></trkpt><trkpt lat="44.48776310504705" lon="8.733944726884072"><ele>525.0</ele><time>2026-04-05T09:54:50Z</time></trkpt><trkpt lat="44.48753795235891" lon="8.734027796179308"><ele>543.0</ele><time>2026-04-05T09:54:51Z</time></trkpt><trkpt lat="44.48727082561712" lon="8.734103821432159"><ele>561.0</ele><time>2026-04-05T09:54:52Z</time></trkpt><trkpt lat="44.48698629582537" lon="8.734207223969754"><ele>569.5</ele><time>2026-04-05T09:54:53.014Z</time></trkpt><trkpt lat="44.486723535732125" lon="8.734303129115917"><ele>578.0</ele><time>2026-04-05T09:54:54.012Z</time></trkpt><trkpt lat="44.48648777039476" lon="8.734388708544381"><ele>578.0</ele><time>2026-04-05T09:54:55.01Z</time></trkpt><trkpt lat="44.486265509050284" lon="8.73446925245266"><ele>578.0</ele><time>2026-04-05T09:54:56.013Z</time></trkpt><trkpt lat="44.48540441230357" lon="8.734916495167402"><ele>552.5</ele><time>2026-04-05T09:55:03Z</time></trkpt><trkpt lat="44.485260385091344" lon="8.735022451237642"><ele>527.0</ele><time>2026-04-05T09:55:04Z</time></trkpt><trkpt lat="44.48506900465665" lon="8.735339600194278"><ele>527.0</ele><time>2026-04-05T09:55:05Z</time></trkpt><trkpt lat="44.484980453787735" lon="8.735516425827052"><ele>527.0</ele><time>2026-04-05T09:55:06Z</time></trkpt><trkpt lat="44.485027258768355" lon="8.735760859566657"><ele>527.0</ele><time>2026-04-05T09:55:07Z</time></trkpt><trkpt lat="44.48492482188552" lon="8.735847277167428"><ele>527.0</ele><time>2026-04-05T09:55:08Z</time></trkpt><trkpt lat="44.48479863934596" lon="8.735900408314317"><ele>527.0</ele><time>2026-04-05T09:55:09Z</time></trkpt><trkpt lat="44.4846866789461" lon="8.735930077162367"><ele>527.0</ele><time>2026-04-05T09:55:10Z</time></trkpt><trkpt lat="44.48453898408781" lon="8.735924350607752"><ele>527.0</ele><time>2026-04-05T09:55:11Z</time></trkpt><trkpt lat="44.484384716991116" lon="8.73594529179748"><ele>527.6666666666666</ele><time>2026-04-05T09:55:11.999Z</time></trkpt><trkpt lat="44.4842225604807" lon="8.736027952108675"><ele>528.3333333333334</ele><time>2026-04-05T09:55:12.999Z</time></trkpt><trkpt lat="44.48407909545304" lon="8.73613143390374"><ele>529.0</ele><time>2026-04-05T09:55:13.999Z</time></trkpt><trkpt lat="44.4839626199645" lon="8.736277820998902"><ele>529.0</ele><time>2026-04-05T09:55:14.999Z</time></trkpt><trkpt lat="44.48387978159908" lon="8.736458182170283"><ele>529.0</ele><time>2026-04-05T09:55:15.999Z</time></trkpt><trkpt lat="44.4837745748664" lon="8.7366123037463"><ele>529.0</ele><time>2026-04-05T09:55:16.999Z</time></trkpt><trkpt lat="44.48364198987034" lon="8.736722657898271"><ele>525.25</ele><time>2026-04-05T09:55:17.999Z</time></trkpt><trkpt lat="44.48349924002542" lon="8.736794074089659"><ele>521.5</ele><time>2026-04-05T09:55:18.999Z</time></trkpt><trkpt lat="44.48337571005189" lon="8.73686239886463"><ele>517.75</ele><time>2026-04-05T09:55:19.999Z</time></trkpt><trkpt lat="44.483287894462165" lon="8.736930499166906"><ele>514.0</ele><time>2026-04-05T09:55:20.999Z</time></trkpt><trkpt lat="44.48320138944087" lon="8.737008222516181"><ele>514.25</ele><time>2026-04-05T09:55:21.999Z</time></trkpt><trkpt lat="44.4831080932303" lon="8.737051628635573"><ele>514.5</ele><time>2026-04-05T09:55:22.999Z</time></trkpt><trkpt lat="44.483001235330455" lon="8.737031650414043"><ele>514.75</ele><time>2026-04-05T09:55:23.999Z</time></trkpt><trkpt lat="44.482910629847396" lon="8.736940280021898"><ele>515.0</ele><time>2026-04-05T09:55:24.999Z</time></trkpt><trkpt lat="44.482809899377635" lon="8.736795061355153"><ele>515.0</ele><time>2026-04-05T09:55:25.999Z</time></trkpt><trkpt lat="44.482700369551345" lon="8.736662681357643"><ele>515.0</ele><time>2026-04-05T09:55:26.999Z</time></trkpt><trkpt lat="44.48261918729962" lon="8.736555960517508"><ele>515.0</ele><time>2026-04-05T09:55:27.999Z</time></trkpt><trkpt lat="44.482532795212244" lon="8.736498041539592"><ele>515.0</ele><time>2026-04-05T09:55:28.999Z</time></trkpt><trkpt lat="44.48244745898447" lon="8.736479571447655"><ele>515.0</ele><time>2026-04-05T09:55:29.999Z</time></trkpt><trkpt lat="44.48237001881388" lon="8.736462146900914"><ele>515.0</ele><time>2026-04-05T09:55:30.999Z</time></trkpt><trkpt lat="44.48231864294733" lon="8.736405296862145"><ele>515.0</ele><time>2026-04-05T09:55:31.999Z</time></trkpt><trkpt lat="44.48230042929824" lon="8.73631573398044"><ele>515.0</ele><time>2026-04-05T09:55:32.999Z</time></trkpt><trkpt lat="44.482418053518415" lon="8.7362157813158"><ele>515.0</ele><time>2026-04-05T09:55:34.999Z</time></trkpt><trkpt lat="44.48248010930785" lon="8.736282612404015"><ele>515.0</ele><time>2026-04-05T09:55:35.999Z</time></trkpt><trkpt lat="44.48255256693952" lon="8.736358197936184"><ele>515.0</ele><time>2026-04-05T09:55:36.999Z</time></trkpt><trkpt lat="44.48263587050373" lon="8.736436959154622"><ele>515.0</ele><time>2026-04-05T09:55:37.999Z</time></trkpt><trkpt lat="44.48273181794956" lon="8.736527980907114"><ele>515.0</ele><time>2026-04-05T09:55:38.999Z</time></trkpt><trkpt lat="44.48283613375862" lon="8.736625698183207"><ele>515.0</ele><time>2026-04-05T09:55:39.999Z</time></trkpt><trkpt lat="44.482926710751336" lon="8.736680092318059"><ele>515.0</ele><time>2026-04-05T09:55:40.999Z</time></trkpt><trkpt lat="44.48298979446116" lon="8.736757815585065"><ele>515.0</ele><time>2026-04-05T09:55:41.999Z</time></trkpt><trkpt lat="44.48306597242842" lon="8.736785735209239"><ele>514.75</ele><time>2026-04-05T09:55:42.999Z</time></trkpt><trkpt lat="44.483166473440505" lon="8.736727729674977"><ele>514.5</ele><time>2026-04-05T09:55:43.999Z</time></trkpt><trkpt lat="44.48326572280966" lon="8.7366015892716"><ele>514.25</ele><time>2026-04-05T09:55:44.999Z</time></trkpt><trkpt lat="44.48337827036053" lon="8.736477033229997"><ele>514.0</ele><time>2026-04-05T09:55:45.999Z</time></trkpt><trkpt lat="44.48346221994154" lon="8.736366835572676"><ele>514.0</ele><time>2026-04-05T09:55:46.999Z</time></trkpt><trkpt lat="44.4835425982322" lon="8.73623331232334"><ele>514.0</ele><time>2026-04-05T09:55:47.999Z</time></trkpt><trkpt lat="44.48359717659867" lon="8.736078871941778"><ele>514.0</ele><time>2026-04-05T09:55:48.999Z</time></trkpt><trkpt lat="44.48362513933302" lon="8.735922890070453"><ele>514.0</ele><time>2026-04-05T09:55:49.999Z</time></trkpt><trkpt lat="44.48365876258877" lon="8.735791214266737"><ele>512.25</ele><time>2026-04-05T09:55:50.999Z</time></trkpt><trkpt lat="44.48373343967524" lon="8.735672519412436"><ele>510.5</ele><time>2026-04-05T09:55:51.999Z</time></trkpt><trkpt lat="44.483839026631564" lon="8.735593330759606"><ele>508.75</ele><time>2026-04-05T09:55:52.999Z</time></trkpt><trkpt lat="44.483982930530445" lon="8.735534751682335"><ele>507.0</ele><time>2026-04-05T09:55:53.999Z</time></trkpt><trkpt lat="44.4841053094009" lon="8.735465842945047"><ele>507.0</ele><time>2026-04-05T09:55:54.999Z</time></trkpt><trkpt lat="44.48419696662077" lon="8.735411249083418"><ele>507.00000000000006</ele><time>2026-04-05T09:55:55.999Z</time></trkpt><trkpt lat="44.48428926160795" lon="8.73537130324725"><ele>507.00000000000006</ele><time>2026-04-05T09:55:56.999Z</time></trkpt><trkpt lat="44.48436446162616" lon="8.735281136431261"><ele>507.0</ele><time>2026-04-05T09:55:57.999Z</time></trkpt><trkpt lat="44.48442508553574" lon="8.735173211612551"><ele>507.0</ele><time>2026-04-05T09:55:58.999Z</time></trkpt><trkpt lat="44.48445980713138" lon="8.735012132733404"><ele>501.5</ele><time>2026-04-05T09:55:59.999Z</time></trkpt><trkpt lat="44.48446235004684" lon="8.734888098266033"><ele>496.0</ele><time>2026-04-05T09:56:00.999Z</time></trkpt><trkpt lat="44.48445502875284" lon="8.73475531128146"><ele>490.5</ele><time>2026-04-05T09:56:01.999Z</time></trkpt><trkpt lat="44.48435400345959" lon="8.734643473217488"><ele>485.0</ele><time>2026-04-05T09:56:02.999Z</time></trkpt><trkpt lat="44.48422228635798" lon="8.734580711675322"><ele>485.0</ele><time>2026-04-05T09:56:03.999Z</time></trkpt><trkpt lat="44.48408196713337" lon="8.734448661937401"><ele>485.0</ele><time>2026-04-05T09:56:04.999Z</time></trkpt><trkpt lat="44.48394015388473" lon="8.734325828587709"><ele>485.0</ele><time>2026-04-05T09:56:05.999Z</time></trkpt><trkpt lat="44.483784068863876" lon="8.734167244835843"><ele>481.5</ele><time>2026-04-05T09:56:06.999Z</time></trkpt><trkpt lat="44.4836394339679" lon="8.734024911733892"><ele>478.0</ele><time>2026-04-05T09:56:07.999Z</time></trkpt><trkpt lat="44.48352752296383" lon="8.733925243185496"><ele>474.5</ele><time>2026-04-05T09:56:08.999Z</time></trkpt><trkpt lat="44.48343243510726" lon="8.73386162636736"><ele>471.0</ele><time>2026-04-05T09:56:09.999Z</time></trkpt><trkpt lat="44.48337577007889" lon="8.733766591615344"><ele>471.0</ele><time>2026-04-05T09:56:10.999Z</time></trkpt><trkpt lat="44.48335451383182" lon="8.733644530225057"><ele>471.0</ele><time>2026-04-05T09:56:11.999Z</time></trkpt><trkpt lat="44.4833966578818" lon="8.733521551688241"><ele>471.0</ele><time>2026-04-05T09:56:12.999Z</time></trkpt><trkpt lat="44.48345578648812" lon="8.733370265493187"><ele>471.0</ele><time>2026-04-05T09:56:13.999Z</time></trkpt><trkpt lat="44.48353424075975" lon="8.733243241746225"><ele>471.0</ele><time>2026-04-05T09:56:14.999Z</time></trkpt><trkpt lat="44.48363046504345" lon="8.733130155094212"><ele>471.1666666666667</ele><time>2026-04-05T09:56:15.999Z</time></trkpt><trkpt lat="44.48373437642304" lon="8.733042507836258"><ele>471.33333333333337</ele><time>2026-04-05T09:56:17Z</time></trkpt><trkpt lat="44.483824958909956" lon="8.732987674672565"><ele>471.5</ele><time>2026-04-05T09:56:18Z</time></trkpt><trkpt lat="44.48389421430265" lon="8.732925062760955"><ele>471.6666666666667</ele><time>2026-04-05T09:56:19Z</time></trkpt><trkpt lat="44.48394502718821" lon="8.732854829703433"><ele>471.83333333333337</ele><time>2026-04-05T09:56:20Z</time></trkpt><trkpt lat="44.483961276205044" lon="8.732763026405774"><ele>472.0</ele><time>2026-04-05T09:56:21Z</time></trkpt><trkpt lat="44.48392552264419" lon="8.732651015661158"><ele>473.20000000000005</ele><time>2026-04-05T09:56:22Z</time></trkpt><trkpt lat="44.483853863219785" lon="8.732572045267329"><ele>474.40000000000003</ele><time>2026-04-05T09:56:23Z</time></trkpt><trkpt lat="44.48375535286754" lon="8.732522141188484"><ele>475.59999999999997</ele><time>2026-04-05T09:56:24Z</time></trkpt><trkpt lat="44.48365219490974" lon="8.732490463026226"><ele>476.79999999999995</ele><time>2026-04-05T09:56:25Z</time></trkpt><trkpt lat="44.48355154132427" lon="8.732415137243112"><ele>478.0</ele><time>2026-04-05T09:56:26Z</time></trkpt><trkpt lat="44.48343074653585" lon="8.732355396305842"><ele>478.0</ele><time>2026-04-05T09:56:27Z</time></trkpt><trkpt lat="44.48331655695096" lon="8.732296430069336"><ele>477.99999999999994</ele><time>2026-04-05T09:56:28Z</time></trkpt><trkpt lat="44.48321155390516" lon="8.732236942875172"><ele>477.99999999999994</ele><time>2026-04-05T09:56:29Z</time></trkpt><trkpt lat="44.48311899387059" lon="8.732164647585133"><ele>478.0</ele><time>2026-04-05T09:56:30Z</time></trkpt><trkpt lat="44.48303334270251" lon="8.732084885995311"><ele>478.0</ele><time>2026-04-05T09:56:31Z</time></trkpt><trkpt lat="44.48294826282454" lon="8.732006851624242"><ele>472.5</ele><time>2026-04-05T09:56:32Z</time></trkpt><trkpt lat="44.482856848748796" lon="8.73197911075095"><ele>467.0</ele><time>2026-04-05T09:56:33Z</time></trkpt><trkpt lat="44.48274808971908" lon="8.731994796339647"><ele>461.5</ele><time>2026-04-05T09:56:34Z</time></trkpt><trkpt lat="44.482622629178536" lon="8.732022562154892"><ele>456.0</ele><time>2026-04-05T09:56:35Z</time></trkpt><trkpt lat="44.48249489795134" lon="8.732042851012373"><ele>456.0</ele><time>2026-04-05T09:56:36Z</time></trkpt><trkpt lat="44.48236869961044" lon="8.732058239742306"><ele>456.0</ele><time>2026-04-05T09:56:37Z</time></trkpt><trkpt lat="44.48224807718427" lon="8.732062431997747"><ele>456.0</ele><time>2026-04-05T09:56:38Z</time></trkpt><trkpt lat="44.48212715413347" lon="8.732044504274102"><ele>456.0</ele><time>2026-04-05T09:56:39Z</time></trkpt><trkpt lat="44.48201911906655" lon="8.731990267420422"><ele>458.6</ele><time>2026-04-05T09:56:40Z</time></trkpt><trkpt lat="44.48191263360073" lon="8.731934260656637"><ele>461.20000000000005</ele><time>2026-04-05T09:56:41Z</time></trkpt><trkpt lat="44.4818184630797" lon="8.73185369559887"><ele>463.79999999999995</ele><time>2026-04-05T09:56:42Z</time></trkpt><trkpt lat="44.481749598329685" lon="8.731760238315315"><ele>466.4</ele><time>2026-04-05T09:56:43Z</time></trkpt><trkpt lat="44.48172090048767" lon="8.731638537356256"><ele>469.0</ele><time>2026-04-05T09:56:44Z</time></trkpt><trkpt lat="44.481711860623705" lon="8.731510592289855"><ele>469.00000000000006</ele><time>2026-04-05T09:56:45Z</time></trkpt><trkpt lat="44.481703808497755" lon="8.731394169798865"><ele>469.0</ele><time>2026-04-05T09:56:46Z</time></trkpt><trkpt lat="44.48168880731914" lon="8.731295945908471"><ele>469.0</ele><time>2026-04-05T09:56:48Z</time></trkpt><trkpt lat="44.48163926955346" lon="8.731230241133487"><ele>469.0</ele><time>2026-04-05T09:56:58Z</time></trkpt><trkpt lat="44.48157534083569" lon="8.731204245347254"><ele>469.00000000000006</ele><time>2026-04-05T09:57:04Z</time></trkpt><trkpt lat="44.481590057757565" lon="8.73135085374339"><ele>469.0</ele><time>2026-04-05T09:57:07Z</time></trkpt><trkpt lat="44.481629009100956" lon="8.731463219823048"><ele>469.0</ele><time>2026-04-05T09:57:08Z</time></trkpt><trkpt lat="44.48165981206991" lon="8.73158077608431"><ele>469.0</ele><time>2026-04-05T09:57:09Z</time></trkpt><trkpt lat="44.48167402588085" lon="8.731714169481457"><ele>469.0</ele><time>2026-04-05T09:57:10Z</time></trkpt><trkpt lat="44.4817088859773" lon="8.731821707702995"><ele>469.0</ele><time>2026-04-05T09:57:11Z</time></trkpt><trkpt lat="44.48177337232233" lon="8.731913773821839"><ele>469.0</ele><time>2026-04-05T09:57:12Z</time></trkpt><trkpt lat="44.481857431927416" lon="8.731981749976573"><ele>465.75</ele><time>2026-04-05T09:57:13Z</time></trkpt><trkpt lat="44.48195571344355" lon="8.73203925275176"><ele>462.5</ele><time>2026-04-05T09:57:14Z</time></trkpt><trkpt lat="44.48207668667749" lon="8.732088048184803"><ele>459.25</ele><time>2026-04-05T09:57:15Z</time></trkpt><trkpt lat="44.482198051911716" lon="8.73212453728746"><ele>456.0</ele><time>2026-04-05T09:57:16Z</time></trkpt><trkpt lat="44.48239420816162" lon="8.73209795695417"><ele>456.0</ele><time>2026-04-05T09:57:17Z</time></trkpt><trkpt lat="44.48257533165034" lon="8.732049830934262"><ele>456.0</ele><time>2026-04-05T09:57:18Z</time></trkpt><trkpt lat="44.4827209760304" lon="8.732009768798463"><ele>456.0</ele><time>2026-04-05T09:57:19Z</time></trkpt><trkpt lat="44.4828265285012" lon="8.732043028147135"><ele>456.0</ele><time>2026-04-05T09:57:20Z</time></trkpt><trkpt lat="44.48291990733738" lon="8.732055484601608"><ele>461.5</ele><time>2026-04-05T09:57:20.999Z</time></trkpt><trkpt lat="44.482988742447354" lon="8.732113209250302"><ele>467.0</ele><time>2026-04-05T09:57:21.999Z</time></trkpt><trkpt lat="44.48309535141474" lon="8.732226857663145"><ele>472.5</ele><time>2026-04-05T09:57:22.999Z</time></trkpt><trkpt lat="44.483233629179644" lon="8.732328915616568"><ele>478.0</ele><time>2026-04-05T09:57:23.999Z</time></trkpt><trkpt lat="44.483361994587" lon="8.732431185764852"><ele>478.0</ele><time>2026-04-05T09:57:24.999Z</time></trkpt><trkpt lat="44.48352068333239" lon="8.73246592250607"><ele>478.0</ele><time>2026-04-05T09:57:25.999Z</time></trkpt><trkpt lat="44.483651408898616" lon="8.732532322872176"><ele>478.0</ele><time>2026-04-05T09:57:26.999Z</time></trkpt><trkpt lat="44.48374751462354" lon="8.732568487468079"><ele>478.0</ele><time>2026-04-05T09:57:27.999Z</time></trkpt><trkpt lat="44.483823933047525" lon="8.732613863244717"><ele>476.5</ele><time>2026-04-05T09:57:28.999Z</time></trkpt><trkpt lat="44.48390742323404" lon="8.732747967473374"><ele>475.0</ele><time>2026-04-05T09:57:30.999Z</time></trkpt><trkpt lat="44.48385485620268" lon="8.732884816639121"><ele>473.5</ele><time>2026-04-05T09:57:32.999Z</time></trkpt><trkpt lat="44.483743987986585" lon="8.732949363505744"><ele>472.0</ele><time>2026-04-05T09:57:33.999Z</time></trkpt><trkpt lat="44.483622505905174" lon="8.733042343523584"><ele>472.0</ele><time>2026-04-05T09:57:34.999Z</time></trkpt><trkpt lat="44.48351017337031" lon="8.733149761340849"><ele>472.0</ele><time>2026-04-05T09:57:35.999Z</time></trkpt><trkpt lat="44.48343055625706" lon="8.733274708331578"><ele>472.0</ele><time>2026-04-05T09:57:36.999Z</time></trkpt><trkpt lat="44.48336450619512" lon="8.73337256438013"><ele>472.0</ele><time>2026-04-05T09:57:37.999Z</time></trkpt><trkpt lat="44.483323198009195" lon="8.73350465124824"><ele>471.75</ele><time>2026-04-05T09:57:38.999Z</time></trkpt><trkpt lat="44.48332342739909" lon="8.733671876762376"><ele>471.5</ele><time>2026-04-05T09:57:39.999Z</time></trkpt><trkpt lat="44.48336440455418" lon="8.733792988543653"><ele>471.25</ele><time>2026-04-05T09:57:40.999Z</time></trkpt><trkpt lat="44.483453213102685" lon="8.73391899011538"><ele>471.0</ele><time>2026-04-05T09:57:41.999Z</time></trkpt><trkpt lat="44.48359096357959" lon="8.734036336968513"><ele>471.0</ele><time>2026-04-05T09:57:42.999Z</time></trkpt><trkpt lat="44.483746475992476" lon="8.734186145065626"><ele>471.0</ele><time>2026-04-05T09:57:43.999Z</time></trkpt><trkpt lat="44.48390844517118" lon="8.734351565596105"><ele>471.0</ele><time>2026-04-05T09:57:44.999Z</time></trkpt><trkpt lat="44.48405971361389" lon="8.734484543436691"><ele>473.8</ele><time>2026-04-05T09:57:45.999Z</time></trkpt><trkpt lat="44.48418771415853" lon="8.734584915267899"><ele>476.6</ele><time>2026-04-05T09:57:46.999Z</time></trkpt><trkpt lat="44.48429052044888" lon="8.734665838218485"><ele>479.4</ele><time>2026-04-05T09:57:47.999Z</time></trkpt><trkpt lat="44.48436655897852" lon="8.734729355980996"><ele>482.2</ele><time>2026-04-05T09:57:48.999Z</time></trkpt><trkpt lat="44.48441848212039" lon="8.734785743661181"><ele>485.0</ele><time>2026-04-05T09:57:49.999Z</time></trkpt><trkpt lat="44.48446052441704" lon="8.734857370534533"><ele>485.0</ele><time>2026-04-05T09:57:50.999Z</time></trkpt><trkpt lat="44.48443429705397" lon="8.734952686403911"><ele>485.0</ele><time>2026-04-05T09:57:51.999Z</time></trkpt><trkpt lat="44.48440854019842" lon="8.735097622052262"><ele>485.0</ele><time>2026-04-05T09:57:52.999Z</time></trkpt><trkpt lat="44.48436733459767" lon="8.735222251490857"><ele>485.0</ele><time>2026-04-05T09:57:53.999Z</time></trkpt><trkpt lat="44.484277945408834" lon="8.73529965255372"><ele>485.0</ele><time>2026-04-05T09:57:54.999Z</time></trkpt><trkpt lat="44.48415534043845" lon="8.735387040423186"><ele>485.25</ele><time>2026-04-05T09:57:55.999Z</time></trkpt><trkpt lat="44.48398420487741" lon="8.735453451584165"><ele>485.5</ele><time>2026-04-05T09:57:56.999Z</time></trkpt><trkpt lat="44.48385743682805" lon="8.735522617570254"><ele>485.75</ele><time>2026-04-05T09:57:57.999Z</time></trkpt><trkpt lat="44.48374968305944" lon="8.735593271620436"><ele>486.0</ele><time>2026-04-05T09:57:58.999Z</time></trkpt><trkpt lat="44.48367335476647" lon="8.73569277639132"><ele>486.0</ele><time>2026-04-05T09:57:59.999Z</time></trkpt><trkpt lat="44.483615236564674" lon="8.735834526279486"><ele>486.0</ele><time>2026-04-05T09:58:00.999Z</time></trkpt><trkpt lat="44.48357786032918" lon="8.736014610997819"><ele>486.0</ele><time>2026-04-05T09:58:01.999Z</time></trkpt><trkpt lat="44.48352929480461" lon="8.73619603144784"><ele>486.0</ele><time>2026-04-05T09:58:02.999Z</time></trkpt><trkpt lat="44.48346263004284" lon="8.736357745982117"><ele>491.6</ele><time>2026-04-05T09:58:03.999Z</time></trkpt><trkpt lat="44.48333576290718" lon="8.736463989224847"><ele>497.20000000000005</ele><time>2026-04-05T09:58:04.999Z</time></trkpt><trkpt lat="44.48323875119676" lon="8.736572276366008"><ele>502.79999999999995</ele><time>2026-04-05T09:58:05.999Z</time></trkpt><trkpt lat="44.483160285840505" lon="8.736661301740872"><ele>508.4</ele><time>2026-04-05T09:58:06.999Z</time></trkpt><trkpt lat="44.483104946243955" lon="8.736719695812589"><ele>514.0</ele><time>2026-04-05T09:58:07.999Z</time></trkpt><trkpt lat="44.483037016736134" lon="8.736738686388458"><ele>514.0</ele><time>2026-04-05T09:58:08.999Z</time></trkpt><trkpt lat="44.482942933083514" lon="8.73666236547441"><ele>514.0</ele><time>2026-04-05T09:58:09.999Z</time></trkpt><trkpt lat="44.48283248958975" lon="8.736549298737415"><ele>514.0</ele><time>2026-04-05T09:58:10.999Z</time></trkpt><trkpt lat="44.482722421002926" lon="8.736456213573035"><ele>514.0</ele><time>2026-04-05T09:58:11.999Z</time></trkpt><trkpt lat="44.482604178869785" lon="8.736367164275855"><ele>514.1666666666667</ele><time>2026-04-05T09:58:12.999Z</time></trkpt><trkpt lat="44.482497584465094" lon="8.736274814026723"><ele>514.3333333333334</ele><time>2026-04-05T09:58:13.999Z</time></trkpt><trkpt lat="44.48242635943119" lon="8.736216743395037"><ele>514.5</ele><time>2026-04-05T09:58:14.999Z</time></trkpt><trkpt lat="44.48235665521248" lon="8.736211380892664"><ele>514.6666666666666</ele><time>2026-04-05T09:58:15.999Z</time></trkpt><trkpt lat="44.48229485947827" lon="8.736247846101321"><ele>514.8333333333333</ele><time>2026-04-05T09:58:16.999Z</time></trkpt><trkpt lat="44.48228312712879" lon="8.736363192132208"><ele>515.0</ele><time>2026-04-05T09:58:17.999Z</time></trkpt><trkpt lat="44.48230864418896" lon="8.736458540502927"><ele>515.0</ele><time>2026-04-05T09:58:18.999Z</time></trkpt><trkpt lat="44.482375336466305" lon="8.736523195187619"><ele>515.0</ele><time>2026-04-05T09:58:19.999Z</time></trkpt><trkpt lat="44.48247145787853" lon="8.736557523925342"><ele>515.0</ele><time>2026-04-05T09:58:20.999Z</time></trkpt><trkpt lat="44.48258570725446" lon="8.736611134606825"><ele>515.0</ele><time>2026-04-05T09:58:21.999Z</time></trkpt><trkpt lat="44.48269136819073" lon="8.736700617564056"><ele>515.0</ele><time>2026-04-05T09:58:23Z</time></trkpt><trkpt lat="44.48280451628446" lon="8.736854159143572"><ele>521.0</ele><time>2026-04-05T09:58:24Z</time></trkpt><trkpt lat="44.48290413118712" lon="8.736990565017274"><ele>527.0</ele><time>2026-04-05T09:58:25Z</time></trkpt><trkpt lat="44.48299494747477" lon="8.737086834250533"><ele>533.0</ele><time>2026-04-05T09:58:26Z</time></trkpt><trkpt lat="44.48307415667163" lon="8.737131363935907"><ele>539.0</ele><time>2026-04-05T09:58:27Z</time></trkpt><trkpt lat="44.48316023856958" lon="8.737126384201874"><ele>545.0</ele><time>2026-04-05T09:58:28Z</time></trkpt><trkpt lat="44.48326134734037" lon="8.737070166283896"><ele>545.0</ele><time>2026-04-05T09:58:29Z</time></trkpt><trkpt lat="44.483402261139624" lon="8.736956530106378"><ele>545.0</ele><time>2026-04-05T09:58:30Z</time></trkpt><trkpt lat="44.483561175361274" lon="8.7368601965383"><ele>545.0</ele><time>2026-04-05T09:58:31Z</time></trkpt><trkpt lat="44.48371341046022" lon="8.736768871489778"><ele>541.0</ele><time>2026-04-05T09:58:32Z</time></trkpt><trkpt lat="44.48383052922892" lon="8.736636651588944"><ele>537.0</ele><time>2026-04-05T09:58:33Z</time></trkpt><trkpt lat="44.4839233759427" lon="8.736480470478469"><ele>533.0</ele><time>2026-04-05T09:58:34Z</time></trkpt><trkpt lat="44.484005344834436" lon="8.736337966174009"><ele>529.0</ele><time>2026-04-05T09:58:35Z</time></trkpt><trkpt lat="44.484110585570434" lon="8.736197576164916"><ele>529.0</ele><time>2026-04-05T09:58:36Z</time></trkpt><trkpt lat="44.48425505283245" lon="8.73608615525314"><ele>529.0</ele><time>2026-04-05T09:58:37Z</time></trkpt><trkpt lat="44.484395329007356" lon="8.736010272973543"><ele>529.0</ele><time>2026-04-05T09:58:38Z</time></trkpt><trkpt lat="44.48451601388851" lon="8.735972925209651"><ele>529.0</ele><time>2026-04-05T09:58:39Z</time></trkpt><trkpt lat="44.48461745197926" lon="8.735988952723941"><ele>528.6666666666667</ele><time>2026-04-05T09:58:40Z</time></trkpt><trkpt lat="44.48470548323752" lon="8.735980140459013"><ele>528.3333333333334</ele><time>2026-04-05T09:58:41Z</time></trkpt><trkpt lat="44.48478608408851" lon="8.736020480735599"><ele>528.0</ele><time>2026-04-05T09:58:42Z</time></trkpt><trkpt lat="44.484846422152145" lon="8.73609423907397"><ele>527.6666666666666</ele><time>2026-04-05T09:58:43Z</time></trkpt><trkpt lat="44.48491901993953" lon="8.736039912818697"><ele>527.3333333333333</ele><time>2026-04-05T09:58:44Z</time></trkpt><trkpt lat="44.48497611788692" lon="8.73597561934307"><ele>527.0</ele><time>2026-04-05T09:58:45Z</time></trkpt><trkpt lat="44.485020684058966" lon="8.735840459771246"><ele>527.0</ele><time>2026-04-05T09:58:46Z</time></trkpt><trkpt lat="44.48506345447878" lon="8.735694018996366"><ele>527.0</ele><time>2026-04-05T09:58:47Z</time></trkpt><trkpt lat="44.485109691107205" lon="8.735588036774768"><ele>527.0</ele><time>2026-04-05T09:58:48Z</time></trkpt><trkpt lat="44.48517865695385" lon="8.735470375096838"><ele>527.0</ele><time>2026-04-05T09:58:49Z</time></trkpt><trkpt lat="44.485242607031836" lon="8.735399687494704"><ele>527.0</ele><time>2026-04-05T09:58:50Z</time></trkpt><trkpt lat="44.485306817480506" lon="8.735332710786583"><ele>527.0</ele><time>2026-04-05T09:58:51Z</time></trkpt><trkpt lat="44.48537052790686" lon="8.735293159003726"><ele>527.0</ele><time>2026-04-05T09:58:53Z</time></trkpt><trkpt lat="44.48536396040696" lon="8.735181442673891"><ele>527.0</ele><time>2026-04-05T10:01:08Z</time></trkpt><trkpt lat="44.48545958643548" lon="8.735092383848311"><ele>527.0</ele><time>2026-04-05T10:01:10Z</time></trkpt><trkpt lat="44.48552215354543" lon="8.73504614760557"><ele>527.0</ele><time>2026-04-05T10:01:11Z</time></trkpt><trkpt lat="44.48559074988267" lon="8.734924396891016"><ele>527.0</ele><time>2026-04-05T10:01:12Z</time></trkpt><trkpt lat="44.485656794889316" lon="8.734844824185133"><ele>529.25</ele><time>2026-04-05T10:01:13Z</time></trkpt><trkpt lat="44.48562380706899" lon="8.734704975888755"><ele>531.5</ele><time>2026-04-05T10:01:14Z</time></trkpt><trkpt lat="44.48555236888242" lon="8.734589285881379"><ele>533.75</ele><time>2026-04-05T10:01:15Z</time></trkpt><trkpt lat="44.485488591893755" lon="8.734447111848953"><ele>536.0</ele><time>2026-04-05T10:01:16Z</time></trkpt><trkpt lat="44.48540486417158" lon="8.734293848744748"><ele>536.0</ele><time>2026-04-05T10:01:17Z</time></trkpt><trkpt lat="44.485296965976495" lon="8.734205560660074"><ele>536.0</ele><time>2026-04-05T10:01:18Z</time></trkpt><trkpt lat="44.4851989683163" lon="8.73410878303599"><ele>536.0</ele><time>2026-04-05T10:01:19Z</time></trkpt><trkpt lat="44.485097118843036" lon="8.73402523515494"><ele>536.0</ele><time>2026-04-05T10:01:20Z</time></trkpt><trkpt lat="44.484983433139" lon="8.73390795555907"><ele>536.0</ele><time>2026-04-05T10:01:21Z</time></trkpt><trkpt lat="44.48490724998026" lon="8.73376087587319"><ele>536.0</ele><time>2026-04-05T10:01:22Z</time></trkpt><trkpt lat="44.48484133583557" lon="8.733634029015718"><ele>536.0</ele><time>2026-04-05T10:01:23Z</time></trkpt><trkpt lat="44.484791641740145" lon="8.733546819857612"><ele>536.0</ele><time>2026-04-05T10:01:24Z</time></trkpt><trkpt lat="44.48476701931343" lon="8.73346319910852"><ele>536.0</ele><time>2026-04-05T10:01:25Z</time></trkpt><trkpt lat="44.484768951006636" lon="8.733361881317975"><ele>538.5</ele><time>2026-04-05T10:01:26Z</time></trkpt><trkpt lat="44.48480855446539" lon="8.733222123831457"><ele>541.0</ele><time>2026-04-05T10:01:27Z</time></trkpt><trkpt lat="44.48486100893259" lon="8.733068504541277"><ele>543.5</ele><time>2026-04-05T10:01:28Z</time></trkpt><trkpt lat="44.4849448107616" lon="8.73294152708433"><ele>546.0</ele><time>2026-04-05T10:01:29Z</time></trkpt><trkpt lat="44.4850571433009" lon="8.732786438537714"><ele>542.25</ele><time>2026-04-05T10:01:30Z</time></trkpt><trkpt lat="44.4851540450474" lon="8.732653041461138"><ele>538.5</ele><time>2026-04-05T10:01:30.999Z</time></trkpt><trkpt lat="44.48528055492917" lon="8.732545805041688"><ele>534.75</ele><time>2026-04-05T10:01:32.999Z</time></trkpt><trkpt lat="44.48538790764101" lon="8.732513302496033"><ele>531.0</ele><time>2026-04-05T10:01:33.999Z</time></trkpt><trkpt lat="44.48545900875448" lon="8.73247111562187"><ele>541.0</ele><time>2026-04-05T10:01:34.999Z</time></trkpt><trkpt lat="44.485511851091246" lon="8.732395246637083"><ele>551.0</ele><time>2026-04-05T10:01:35.999Z</time></trkpt><trkpt lat="44.485528185876454" lon="8.732303874940207"><ele>561.0</ele><time>2026-04-05T10:01:36.999Z</time></trkpt><trkpt lat="44.48553948471565" lon="8.732080827756798"><ele>571.0</ele><time>2026-04-05T10:01:37.999Z</time></trkpt><trkpt lat="44.485589133819154" lon="8.731953431368638"><ele>581.0</ele><time>2026-04-05T10:01:38.999Z</time></trkpt><trkpt lat="44.485608781190656" lon="8.731846845156756"><ele>581.25</ele><time>2026-04-05T10:01:39.999Z</time></trkpt><trkpt lat="44.485576674858315" lon="8.731661333183593"><ele>581.5</ele><time>2026-04-05T10:01:41.999Z</time></trkpt><trkpt lat="44.48549050012222" lon="8.73157588300385"><ele>581.75</ele><time>2026-04-05T10:01:42.999Z</time></trkpt><trkpt lat="44.48536449440952" lon="8.731453374654278"><ele>582.0</ele><time>2026-04-05T10:01:43.999Z</time></trkpt><trkpt lat="44.48524880524453" lon="8.7313573057774"><ele>574.0</ele><time>2026-04-05T10:01:44.999Z</time></trkpt><trkpt lat="44.485135943410775" lon="8.731301619655278"><ele>566.0</ele><time>2026-04-05T10:01:45.999Z</time></trkpt><trkpt lat="44.48499926863011" lon="8.731295164920368"><ele>558.0</ele><time>2026-04-05T10:01:46.999Z</time></trkpt><trkpt lat="44.48484787074908" lon="8.731287088375817"><ele>550.0</ele><time>2026-04-05T10:01:47.999Z</time></trkpt><trkpt lat="44.48471737940888" lon="8.73127018194728"><ele>544.0</ele><time>2026-04-05T10:01:48.999Z</time></trkpt><trkpt lat="44.48457210715384" lon="8.73121960670789"><ele>538.0</ele><time>2026-04-05T10:01:49.999Z</time></trkpt><trkpt lat="44.484411691992" lon="8.731136812486671"><ele>532.0</ele><time>2026-04-05T10:01:50.999Z</time></trkpt><trkpt lat="44.484266982106504" lon="8.731068230674742"><ele>541.25</ele><time>2026-04-05T10:01:51.999Z</time></trkpt><trkpt lat="44.48414766090758" lon="8.731006995043108"><ele>550.5</ele><time>2026-04-05T10:01:52.999Z</time></trkpt><trkpt lat="44.484042890298355" lon="8.730949590961927"><ele>559.75</ele><time>2026-04-05T10:01:53.999Z</time></trkpt><trkpt lat="44.483950422322955" lon="8.730864444698552"><ele>569.0</ele><time>2026-04-05T10:01:54.999Z</time></trkpt><trkpt lat="44.48385681134773" lon="8.73072322475097"><ele>569.0</ele><time>2026-04-05T10:01:55.999Z</time></trkpt><trkpt lat="44.48377171385555" lon="8.730559426679191"><ele>569.0</ele><time>2026-04-05T10:01:56.999Z</time></trkpt><trkpt lat="44.48370144409911" lon="8.73041576229041"><ele>569.0</ele><time>2026-04-05T10:01:57.999Z</time></trkpt><trkpt lat="44.48359032476298" lon="8.73031241096055"><ele>569.0</ele><time>2026-04-05T10:01:58.999Z</time></trkpt><trkpt lat="44.48342995255144" lon="8.730223279069602"><ele>569.0</ele><time>2026-04-05T10:01:59.999Z</time></trkpt><trkpt lat="44.48328973244823" lon="8.730129658550034"><ele>569.0</ele><time>2026-04-05T10:02:00.999Z</time></trkpt><trkpt lat="44.48318705904317" lon="8.730077339320578"><ele>569.0</ele><time>2026-04-05T10:02:01.999Z</time></trkpt><trkpt lat="44.483125906941886" lon="8.730052435162772"><ele>569.0</ele><time>2026-04-05T10:02:02.999Z</time></trkpt><trkpt lat="44.48310665819252" lon="8.729900087722207"><ele>569.0</ele><time>2026-04-05T10:02:04.999Z</time></trkpt><trkpt lat="44.48316328982648" lon="8.729805576291579"><ele>569.0</ele><time>2026-04-05T10:02:05.999Z</time></trkpt><trkpt lat="44.48326490151745" lon="8.729730685686638"><ele>569.0</ele><time>2026-04-05T10:02:06.999Z</time></trkpt><trkpt lat="44.483398853043134" lon="8.729618522555343"><ele>569.0</ele><time>2026-04-05T10:02:07.999Z</time></trkpt><trkpt lat="44.48356093517776" lon="8.72946748062335"><ele>567.6666666666666</ele><time>2026-04-05T10:02:08.999Z</time></trkpt><trkpt lat="44.483695086388906" lon="8.729300731576501"><ele>566.3333333333334</ele><time>2026-04-05T10:02:09.999Z</time></trkpt><trkpt lat="44.48379211534606" lon="8.729132125372137"><ele>565.0</ele><time>2026-04-05T10:02:10.999Z</time></trkpt><trkpt lat="44.48388368189945" lon="8.729010301330252"><ele>570.2</ele><time>2026-04-05T10:02:11.999Z</time></trkpt><trkpt lat="44.483965387423275" lon="8.728921503886962"><ele>575.4</ele><time>2026-04-05T10:02:12.999Z</time></trkpt><trkpt lat="44.48406671786886" lon="8.728868193354048"><ele>580.6</ele><time>2026-04-05T10:02:13.999Z</time></trkpt><trkpt lat="44.484175742602034" lon="8.728886156788896"><ele>585.8</ele><time>2026-04-05T10:02:14.999Z</time></trkpt><trkpt lat="44.48430231155938" lon="8.728893433318515"><ele>591.0</ele><time>2026-04-05T10:02:15.999Z</time></trkpt><trkpt lat="44.48444787401801" lon="8.728885509842662"><ele>598.3333333333334</ele><time>2026-04-05T10:02:16.999Z</time></trkpt><trkpt lat="44.48459652600894" lon="8.728839020768113"><ele>605.6666666666667</ele><time>2026-04-05T10:02:17.999Z</time></trkpt><trkpt lat="44.484741224870874" lon="8.728778837781626"><ele>613.0</ele><time>2026-04-05T10:02:18.999Z</time></trkpt><trkpt lat="44.48488597474654" lon="8.72867750544813"><ele>604.3333333333334</ele><time>2026-04-05T10:02:19.999Z</time></trkpt><trkpt lat="44.48505323240697" lon="8.728529227523612"><ele>595.6666666666666</ele><time>2026-04-05T10:02:20.999Z</time></trkpt><trkpt lat="44.48520610403942" lon="8.728364105812863"><ele>587.0</ele><time>2026-04-05T10:02:21.999Z</time></trkpt><trkpt lat="44.48534308472909" lon="8.728263646926086"><ele>594.0</ele><time>2026-04-05T10:02:22.999Z</time></trkpt><trkpt lat="44.485451380017324" lon="8.728141763337133"><ele>601.0</ele><time>2026-04-05T10:02:23.999Z</time></trkpt><trkpt lat="44.48553815881126" lon="8.72804147197308"><ele>608.0</ele><time>2026-04-05T10:02:24.999Z</time></trkpt><trkpt lat="44.48559343971891" lon="8.727942558165912"><ele>615.0</ele><time>2026-04-05T10:02:25.999Z</time></trkpt><trkpt lat="44.48562131912125" lon="8.727834985755363"><ele>622.0</ele><time>2026-04-05T10:02:26.999Z</time></trkpt><trkpt lat="44.48561049566646" lon="8.727703277234033"><ele>622.0</ele><time>2026-04-05T10:02:27.999Z</time></trkpt><trkpt lat="44.48557173644691" lon="8.727557033343926"><ele>622.0</ele><time>2026-04-05T10:02:28.999Z</time></trkpt><trkpt lat="44.48551171842622" lon="8.72739278273255"><ele>622.0</ele><time>2026-04-05T10:02:29.999Z</time></trkpt><trkpt lat="44.485486122099374" lon="8.72724261583059"><ele>622.0</ele><time>2026-04-05T10:02:30.999Z</time></trkpt><trkpt lat="44.48551125765172" lon="8.727088395758729"><ele>622.0</ele><time>2026-04-05T10:02:31.999Z</time></trkpt><trkpt lat="44.485561561290424" lon="8.726919635299442"><ele>622.0</ele><time>2026-04-05T10:02:32.999Z</time></trkpt><trkpt lat="44.48559131871439" lon="8.726775732426871"><ele>622.0</ele><time>2026-04-05T10:02:33.999Z</time></trkpt><trkpt lat="44.48557434443126" lon="8.726617298375514"><ele>622.0</ele><time>2026-04-05T10:02:35Z</time></trkpt><trkpt lat="44.48553736192046" lon="8.72643972528901"><ele>621.8000000000001</ele><time>2026-04-05T10:02:36Z</time></trkpt><trkpt lat="44.4855162179869" lon="8.726304153128087"><ele>621.6</ele><time>2026-04-05T10:02:37Z</time></trkpt><trkpt lat="44.48554075560074" lon="8.726181059634614"><ele>621.4000000000001</ele><time>2026-04-05T10:02:38Z</time></trkpt><trkpt lat="44.48560530128587" lon="8.726047729962358"><ele>621.2</ele><time>2026-04-05T10:02:39Z</time></trkpt><trkpt lat="44.48571542482177" lon="8.725953470429683"><ele>621.0</ele><time>2026-04-05T10:02:40Z</time></trkpt><trkpt lat="44.48585112640496" lon="8.725844700970168"><ele>624.3333333333334</ele><time>2026-04-05T10:02:41Z</time></trkpt><trkpt lat="44.48601673433845" lon="8.725702834671933"><ele>627.6666666666667</ele><time>2026-04-05T10:02:42Z</time></trkpt><trkpt lat="44.486220185059466" lon="8.725621426533356"><ele>631.0</ele><time>2026-04-05T10:02:43Z</time></trkpt><trkpt lat="44.48637799647697" lon="8.72553923227692"><ele>631.0</ele><time>2026-04-05T10:02:44Z</time></trkpt><trkpt lat="44.48650583414512" lon="8.725440157729407"><ele>631.0</ele><time>2026-04-05T10:02:45Z</time></trkpt><trkpt lat="44.48661623348214" lon="8.72536224668694"><ele>631.0</ele><time>2026-04-05T10:02:46Z</time></trkpt><trkpt lat="44.48670703613346" lon="8.725258957892729"><ele>631.0</ele><time>2026-04-05T10:02:47Z</time></trkpt><trkpt lat="44.4867790672083" lon="8.72511644628046"><ele>626.5</ele><time>2026-04-05T10:02:48Z</time></trkpt><trkpt lat="44.48683160931458" lon="8.724928890368247"><ele>622.0</ele><time>2026-04-05T10:02:49Z</time></trkpt><trkpt lat="44.4868623079541" lon="8.724742779832898"><ele>617.5</ele><time>2026-04-05T10:02:50Z</time></trkpt><trkpt lat="44.486868921228805" lon="8.72455317633971"><ele>613.0</ele><time>2026-04-05T10:02:51Z</time></trkpt><trkpt lat="44.48684008685791" lon="8.724351497881317"><ele>612.75</ele><time>2026-04-05T10:02:52Z</time></trkpt><trkpt lat="44.486797796906394" lon="8.724180349341246"><ele>612.5</ele><time>2026-04-05T10:02:53Z</time></trkpt><trkpt lat="44.48677465621555" lon="8.724032411411148"><ele>612.25</ele><time>2026-04-05T10:02:54Z</time></trkpt><trkpt lat="44.48678105936974" lon="8.723884636193597"><ele>612.0</ele><time>2026-04-05T10:02:55Z</time></trkpt><trkpt lat="44.486825678043004" lon="8.723725765159426"><ele>607.6666666666666</ele><time>2026-04-05T10:02:56Z</time></trkpt><trkpt lat="44.48689568843854" lon="8.723554703518078"><ele>603.3333333333333</ele><time>2026-04-05T10:02:57Z</time></trkpt><trkpt lat="44.487026877486755" lon="8.723381246804115"><ele>599.0</ele><time>2026-04-05T10:02:58Z</time></trkpt><trkpt lat="44.48714297095267" lon="8.723205842288342"><ele>602.0</ele><time>2026-04-05T10:02:59Z</time></trkpt><trkpt lat="44.48724438672773" lon="8.723085923244867"><ele>605.0</ele><time>2026-04-05T10:03:00Z</time></trkpt><trkpt lat="44.487330493365675" lon="8.722977731678567"><ele>608.0</ele><time>2026-04-05T10:03:01Z</time></trkpt><trkpt lat="44.48737755244468" lon="8.722861870372284"><ele>611.0</ele><time>2026-04-05T10:03:02Z</time></trkpt><trkpt lat="44.48740411057316" lon="8.722718339866615"><ele>614.0</ele><time>2026-04-05T10:03:03Z</time></trkpt><trkpt lat="44.48741491329603" lon="8.72253432858999"><ele>614.0</ele><time>2026-04-05T10:03:04Z</time></trkpt><trkpt lat="44.48741848069051" lon="8.722371919656181"><ele>614.0</ele><time>2026-04-05T10:03:05Z</time></trkpt><trkpt lat="44.487430900829494" lon="8.722259296988776"><ele>614.0</ele><time>2026-04-05T10:03:06Z</time></trkpt><trkpt lat="44.48743904763302" lon="8.722155422093874"><ele>614.0</ele><time>2026-04-05T10:03:07Z</time></trkpt><trkpt lat="44.487408515684464" lon="8.722067133515779"><ele>614.0</ele><time>2026-04-05T10:03:08Z</time></trkpt><trkpt lat="44.487349378134084" lon="8.722002539242938"><ele>614.0</ele><time>2026-04-05T10:03:09Z</time></trkpt><trkpt lat="44.48725165880533" lon="8.72197016466467"><ele>614.0</ele><time>2026-04-05T10:03:10Z</time></trkpt><trkpt lat="44.48711711834629" lon="8.721926386476756"><ele>614.0</ele><time>2026-04-05T10:03:11Z</time></trkpt><trkpt lat="44.48696328913533" lon="8.721828039185807"><ele>614.0</ele><time>2026-04-05T10:03:12Z</time></trkpt><trkpt lat="44.48678946683611" lon="8.721684354734451"><ele>615.75</ele><time>2026-04-05T10:03:13Z</time></trkpt><trkpt lat="44.48664619509013" lon="8.721559783800323"><ele>617.5</ele><time>2026-04-05T10:03:14Z</time></trkpt><trkpt lat="44.486513273063345" lon="8.721480862254433"><ele>619.25</ele><time>2026-04-05T10:03:15Z</time></trkpt><trkpt lat="44.486424744347445" lon="8.721402606235953"><ele>621.0</ele><time>2026-04-05T10:03:16Z</time></trkpt><trkpt lat="44.48636098004745" lon="8.721314912688916"><ele>621.0</ele><time>2026-04-05T10:03:17Z</time></trkpt><trkpt lat="44.486323044277434" lon="8.721178984673154"><ele>621.0</ele><time>2026-04-05T10:03:18Z</time></trkpt><trkpt lat="44.48631110212247" lon="8.720987521655262"><ele>621.0</ele><time>2026-04-05T10:03:19Z</time></trkpt><trkpt lat="44.48629597448826" lon="8.720750772765872"><ele>621.0</ele><time>2026-04-05T10:03:20Z</time></trkpt><trkpt lat="44.486281367456385" lon="8.72058310407204"><ele>626.5</ele><time>2026-04-05T10:03:21Z</time></trkpt><trkpt lat="44.48628983837521" lon="8.720439929460932"><ele>632.0</ele><time>2026-04-05T10:03:22Z</time></trkpt><trkpt lat="44.48632900492364" lon="8.72030155730085"><ele>637.5</ele><time>2026-04-05T10:03:23Z</time></trkpt><trkpt lat="44.48640915495447" lon="8.720126060895875"><ele>643.0</ele><time>2026-04-05T10:03:24Z</time></trkpt><trkpt lat="44.48652602891053" lon="8.719909712948066"><ele>643.6666666666667</ele><time>2026-04-05T10:03:25Z</time></trkpt><trkpt lat="44.4865909627396" lon="8.719659948662828"><ele>644.3333333333334</ele><time>2026-04-05T10:03:26Z</time></trkpt><trkpt lat="44.486660603455206" lon="8.719451084399427"><ele>645.0</ele><time>2026-04-05T10:03:27Z</time></trkpt><trkpt lat="44.48674780003648" lon="8.719278828250516"><ele>642.2</ele><time>2026-04-05T10:03:28Z</time></trkpt><trkpt lat="44.48683582926922" lon="8.719110877361247"><ele>639.4</ele><time>2026-04-05T10:03:29Z</time></trkpt><trkpt lat="44.486899837895294" lon="8.718992363880702"><ele>636.6</ele><time>2026-04-05T10:03:30Z</time></trkpt><trkpt lat="44.486924296662615" lon="8.71886230761783"><ele>633.8</ele><time>2026-04-05T10:03:31Z</time></trkpt><trkpt lat="44.48689611526494" lon="8.718730124326632"><ele>631.0</ele><time>2026-04-05T10:03:32Z</time></trkpt><trkpt lat="44.48685673975026" lon="8.718594992251935"><ele>632.0</ele><time>2026-04-05T10:03:33Z</time></trkpt><trkpt lat="44.486796789230084" lon="8.71846053362532"><ele>633.0</ele><time>2026-04-05T10:03:34Z</time></trkpt><trkpt lat="44.48677050321959" lon="8.718296688051485"><ele>634.0</ele><time>2026-04-05T10:03:35Z</time></trkpt><trkpt lat="44.48675779792135" lon="8.718115284427185"><ele>635.0</ele><time>2026-04-05T10:03:36Z</time></trkpt><trkpt lat="44.48676988122438" lon="8.717916358291673"><ele>637.0</ele><time>2026-04-05T10:03:37Z</time></trkpt><trkpt lat="44.486783958734044" lon="8.71766969566261"><ele>639.0</ele><time>2026-04-05T10:03:37.999Z</time></trkpt><trkpt lat="44.48680707973641" lon="8.717490271090513"><ele>641.0</ele><time>2026-04-05T10:03:38.999Z</time></trkpt><trkpt lat="44.48682257143839" lon="8.71731909756698"><ele>643.0</ele><time>2026-04-05T10:03:39.999Z</time></trkpt><trkpt lat="44.48682324416042" lon="8.717161056357105"><ele>643.0</ele><time>2026-04-05T10:03:40.999Z</time></trkpt><trkpt lat="44.48679496189128" lon="8.717002540320456"><ele>643.0</ele><time>2026-04-05T10:03:41.999Z</time></trkpt><trkpt lat="44.48673543877899" lon="8.716875453757202"><ele>643.0</ele><time>2026-04-05T10:03:42.999Z</time></trkpt><trkpt lat="44.48662949252206" lon="8.71678693584729"><ele>643.0</ele><time>2026-04-05T10:03:43.999Z</time></trkpt><trkpt lat="44.48650312189528" lon="8.716743374325402"><ele>645.6666666666667</ele><time>2026-04-05T10:03:44.999Z</time></trkpt><trkpt lat="44.48634540239085" lon="8.71673161376633"><ele>648.3333333333334</ele><time>2026-04-05T10:03:45.999Z</time></trkpt><trkpt lat="44.486157062544855" lon="8.716720687196872"><ele>651.0</ele><time>2026-04-05T10:03:46.999Z</time></trkpt><trkpt lat="44.48597535738408" lon="8.716671408668926"><ele>651.0</ele><time>2026-04-05T10:03:47.999Z</time></trkpt><trkpt lat="44.485827237415485" lon="8.716674012234842"><ele>651.0</ele><time>2026-04-05T10:03:48.999Z</time></trkpt><trkpt lat="44.48569635115105" lon="8.716654887453805"><ele>651.0</ele><time>2026-04-05T10:03:49.999Z</time></trkpt><trkpt lat="44.485599041497856" lon="8.716636402629485"><ele>651.0</ele><time>2026-04-05T10:03:50.999Z</time></trkpt><trkpt lat="44.48552490332921" lon="8.716594914794067"><ele>651.0</ele><time>2026-04-05T10:03:51.999Z</time></trkpt><trkpt lat="44.48546626507483" lon="8.716522833277383"><ele>651.0</ele><time>2026-04-05T10:03:52.999Z</time></trkpt><trkpt lat="44.485454325825714" lon="8.71640308283204"><ele>651.0</ele><time>2026-04-05T10:03:53.999Z</time></trkpt><trkpt lat="44.485487366275116" lon="8.716283687619745"><ele>651.0</ele><time>2026-04-05T10:03:54.999Z</time></trkpt><trkpt lat="44.48558065105462" lon="8.7161809946291"><ele>651.0</ele><time>2026-04-05T10:03:55.999Z</time></trkpt><trkpt lat="44.48569750667682" lon="8.716039108046687"><ele>653.0</ele><time>2026-04-05T10:03:56.999Z</time></trkpt><trkpt lat="44.485819075657034" lon="8.715882155834535"><ele>655.0</ele><time>2026-04-05T10:03:57.999Z</time></trkpt><trkpt lat="44.48592446680201" lon="8.71577570289971"><ele>657.0</ele><time>2026-04-05T10:03:58.999Z</time></trkpt><trkpt lat="44.485986517635894" lon="8.715642056003908"><ele>659.0</ele><time>2026-04-05T10:03:59.999Z</time></trkpt><trkpt lat="44.486029867744755" lon="8.715504362886557"><ele>659.0</ele><time>2026-04-05T10:04:00.999Z</time></trkpt><trkpt lat="44.48604185783542" lon="8.715341548406517"><ele>659.0</ele><time>2026-04-05T10:04:01.999Z</time></trkpt><trkpt lat="44.48602236360152" lon="8.715177168184178"><ele>659.0</ele><time>2026-04-05T10:04:02.999Z</time></trkpt><trkpt lat="44.48596931421138" lon="8.715033637403588"><ele>659.0</ele><time>2026-04-05T10:04:03.999Z</time></trkpt><trkpt lat="44.48589640366367" lon="8.714931285112492"><ele>658.5</ele><time>2026-04-05T10:04:04.999Z</time></trkpt><trkpt lat="44.48579156787705" lon="8.714856580253644"><ele>658.0</ele><time>2026-04-05T10:04:05.999Z</time></trkpt><trkpt lat="44.48566267524229" lon="8.714815703681616"><ele>657.5</ele><time>2026-04-05T10:04:06.999Z</time></trkpt><trkpt lat="44.48550272200263" lon="8.714790252830024"><ele>657.0</ele><time>2026-04-05T10:04:07.999Z</time></trkpt><trkpt lat="44.48538779844047" lon="8.714763661821264"><ele>657.0</ele><time>2026-04-05T10:04:08.999Z</time></trkpt><trkpt lat="44.48528887257067" lon="8.714722607302152"><ele>657.0</ele><time>2026-04-05T10:04:09.999Z</time></trkpt><trkpt lat="44.48517457804521" lon="8.714639047983686"><ele>657.0</ele><time>2026-04-05T10:04:10.999Z</time></trkpt><trkpt lat="44.48508234782381" lon="8.714430327712563"><ele>657.0</ele><time>2026-04-05T10:04:11.999Z</time></trkpt><trkpt lat="44.48497518068253" lon="8.714306354325375"><ele>662.25</ele><time>2026-04-05T10:04:12.999Z</time></trkpt><trkpt lat="44.484857068264574" lon="8.714230408893643"><ele>667.5</ele><time>2026-04-05T10:04:13.999Z</time></trkpt><trkpt lat="44.48475926074067" lon="8.714165510614412"><ele>672.75</ele><time>2026-04-05T10:04:14.999Z</time></trkpt><trkpt lat="44.48468795466438" lon="8.71405416874056"><ele>678.0</ele><time>2026-04-05T10:04:15.999Z</time></trkpt><trkpt lat="44.48460772447068" lon="8.713891560241233"><ele>680.0</ele><time>2026-04-05T10:04:16.999Z</time></trkpt><trkpt lat="44.48456585379" lon="8.713710294401327"><ele>682.0</ele><time>2026-04-05T10:04:17.999Z</time></trkpt><trkpt lat="44.48454585993927" lon="8.713555146316324"><ele>684.0</ele><time>2026-04-05T10:04:18.999Z</time></trkpt><trkpt lat="44.484500680066695" lon="8.713442049551812"><ele>686.0</ele><time>2026-04-05T10:04:19.999Z</time></trkpt><trkpt lat="44.48442050168395" lon="8.713365745143681"><ele>688.0</ele><time>2026-04-05T10:04:20.999Z</time></trkpt><trkpt lat="44.484289219317475" lon="8.71330096076589"><ele>688.0</ele><time>2026-04-05T10:04:21.999Z</time></trkpt><trkpt lat="44.48413115928736" lon="8.713249057955993"><ele>688.0</ele><time>2026-04-05T10:04:22.999Z</time></trkpt><trkpt lat="44.483951456923826" lon="8.713177898933502"><ele>688.0</ele><time>2026-04-05T10:04:23.999Z</time></trkpt><trkpt lat="44.48375319572479" lon="8.713168392995579"><ele>687.0</ele><time>2026-04-05T10:04:24.999Z</time></trkpt><trkpt lat="44.48359290866881" lon="8.713165946930593"><ele>686.0</ele><time>2026-04-05T10:04:25.999Z</time></trkpt><trkpt lat="44.4834334592008" lon="8.713091829707142"><ele>685.0</ele><time>2026-04-05T10:04:26.999Z</time></trkpt><trkpt lat="44.48329732319323" lon="8.713035422747758"><ele>685.0</ele><time>2026-04-05T10:04:27.999Z</time></trkpt><trkpt lat="44.48315243672212" lon="8.713032754802754"><ele>685.0</ele><time>2026-04-05T10:04:28.999Z</time></trkpt><trkpt lat="44.48299438746684" lon="8.713072988838892"><ele>685.0</ele><time>2026-04-05T10:04:29.999Z</time></trkpt><trkpt lat="44.48278765522583" lon="8.713128467042207"><ele>689.6666666666667</ele><time>2026-04-05T10:04:30.999Z</time></trkpt><trkpt lat="44.48256980763726" lon="8.713199876879802"><ele>694.3333333333334</ele><time>2026-04-05T10:04:31.999Z</time></trkpt><trkpt lat="44.48240399618712" lon="8.713254591048036"><ele>699.0</ele><time>2026-04-05T10:04:32.999Z</time></trkpt><trkpt lat="44.482256665713244" lon="8.713302110640857"><ele>699.0</ele><time>2026-04-05T10:04:33.999Z</time></trkpt><trkpt lat="44.48213824431229" lon="8.713331960009475"><ele>699.0</ele><time>2026-04-05T10:04:34.999Z</time></trkpt><trkpt lat="44.482029349586014" lon="8.713344459391472"><ele>699.0</ele><time>2026-04-05T10:04:35.999Z</time></trkpt><trkpt lat="44.481916757736904" lon="8.713288319381917"><ele>699.0</ele><time>2026-04-05T10:04:36.999Z</time></trkpt><trkpt lat="44.48182323767163" lon="8.713174803540232"><ele>697.75</ele><time>2026-04-05T10:04:37.999Z</time></trkpt><trkpt lat="44.48174465700986" lon="8.712998605075025"><ele>696.5</ele><time>2026-04-05T10:04:38.999Z</time></trkpt><trkpt lat="44.481674908110016" lon="8.712834554433496"><ele>695.25</ele><time>2026-04-05T10:04:39.999Z</time></trkpt><trkpt lat="44.4816073307725" lon="8.712718775542447"><ele>694.0</ele><time>2026-04-05T10:04:41Z</time></trkpt><trkpt lat="44.48151312083304" lon="8.712652819265985"><ele>696.5</ele><time>2026-04-05T10:04:42Z</time></trkpt><trkpt lat="44.48140575735008" lon="8.712623121418371"><ele>699.0</ele><time>2026-04-05T10:04:43Z</time></trkpt><trkpt lat="44.48130088811121" lon="8.71258287944625"><ele>701.5</ele><time>2026-04-05T10:04:44Z</time></trkpt><trkpt lat="44.48119086273022" lon="8.712482095429117"><ele>704.0</ele><time>2026-04-05T10:04:45Z</time></trkpt><trkpt lat="44.48109053679031" lon="8.712364550445958"><ele>704.0</ele><time>2026-04-05T10:04:46Z</time></trkpt><trkpt lat="44.481007502574585" lon="8.712281807813824"><ele>704.0</ele><time>2026-04-05T10:04:47Z</time></trkpt><trkpt lat="44.48093415708866" lon="8.712228738702"><ele>704.0</ele><time>2026-04-05T10:04:48Z</time></trkpt><trkpt lat="44.480848157929984" lon="8.712193502117705"><ele>704.0</ele><time>2026-04-05T10:04:49Z</time></trkpt><trkpt lat="44.48077199130743" lon="8.712135082194502"><ele>704.0</ele><time>2026-04-05T10:04:50Z</time></trkpt><trkpt lat="44.48068591080988" lon="8.71209099816149"><ele>704.0</ele><time>2026-04-05T10:04:51Z</time></trkpt><trkpt lat="44.48060052361046" lon="8.7120479856107"><ele>704.0</ele><time>2026-04-05T10:04:52Z</time></trkpt><trkpt lat="44.4805176353598" lon="8.711977416149011"><ele>704.0</ele><time>2026-04-05T10:04:53Z</time></trkpt><trkpt lat="44.4804569813857" lon="8.7118721044839"><ele>704.0</ele><time>2026-04-05T10:04:54Z</time></trkpt><trkpt lat="44.48041100400233" lon="8.71173777070705"><ele>704.0</ele><time>2026-04-05T10:04:55Z</time></trkpt><trkpt lat="44.480359013161234" lon="8.711644056784762"><ele>708.75</ele><time>2026-04-05T10:04:56Z</time></trkpt><trkpt lat="44.48028291592136" lon="8.711588147290081"><ele>713.5</ele><time>2026-04-05T10:04:57Z</time></trkpt><trkpt lat="44.48015319877804" lon="8.71151314249635"><ele>718.25</ele><time>2026-04-05T10:04:58Z</time></trkpt><trkpt lat="44.47999703368982" lon="8.711422784210006"><ele>723.0</ele><time>2026-04-05T10:04:59Z</time></trkpt><trkpt lat="44.47989862421037" lon="8.711375378949795"><ele>723.0</ele><time>2026-04-05T10:05:00Z</time></trkpt><trkpt lat="44.479820248051" lon="8.711343334679837"><ele>723.0</ele><time>2026-04-05T10:05:01Z</time></trkpt><trkpt lat="44.47975134417156" lon="8.711333804861898"><ele>723.0</ele><time>2026-04-05T10:05:02Z</time></trkpt><trkpt lat="44.47967490845391" lon="8.711325740164641"><ele>723.0</ele><time>2026-04-05T10:05:03Z</time></trkpt><trkpt lat="44.47958907715882" lon="8.711379984731698"><ele>723.0</ele><time>2026-04-05T10:05:04Z</time></trkpt><trkpt lat="44.479520924877015" lon="8.711463977786863"><ele>723.0</ele><time>2026-04-05T10:05:05Z</time></trkpt><trkpt lat="44.47942659890203" lon="8.711591463860492"><ele>719.75</ele><time>2026-04-05T10:05:06Z</time></trkpt><trkpt lat="44.47932253855596" lon="8.711728135721248"><ele>716.5</ele><time>2026-04-05T10:05:07Z</time></trkpt><trkpt lat="44.479245100347" lon="8.711852517017007"><ele>713.25</ele><time>2026-04-05T10:05:08Z</time></trkpt><trkpt lat="44.47916799730221" lon="8.711952899624565"><ele>710.0</ele><time>2026-04-05T10:05:09Z</time></trkpt><trkpt lat="44.479091924609705" lon="8.712020441822355"><ele>710.0</ele><time>2026-04-05T10:05:10Z</time></trkpt><trkpt lat="44.479043724056986" lon="8.712101902418027"><ele>710.0</ele><time>2026-04-05T10:05:11Z</time></trkpt><trkpt lat="44.4789716818544" lon="8.712151814199323"><ele>710.0</ele><time>2026-04-05T10:05:12Z</time></trkpt><trkpt lat="44.47887818654741" lon="8.71219753968041"><ele>710.0</ele><time>2026-04-05T10:05:13Z</time></trkpt><trkpt lat="44.47876247179983" lon="8.712196949486803"><ele>710.0</ele><time>2026-04-05T10:05:14Z</time></trkpt><trkpt lat="44.47864640227556" lon="8.712203450390568"><ele>711.6666666666666</ele><time>2026-04-05T10:05:15Z</time></trkpt><trkpt lat="44.47857351717834" lon="8.712216854900824"><ele>713.3333333333333</ele><time>2026-04-05T10:05:16Z</time></trkpt><trkpt lat="44.4784999861038" lon="8.712221614098324"><ele>715.0</ele><time>2026-04-05T10:05:17Z</time></trkpt><trkpt lat="44.47843434375479" lon="8.712222084407115"><ele>716.6666666666666</ele><time>2026-04-05T10:05:18Z</time></trkpt><trkpt lat="44.478360116413924" lon="8.712222134438504"><ele>718.3333333333334</ele><time>2026-04-05T10:05:19Z</time></trkpt><trkpt lat="44.47827919003517" lon="8.712218746171933"><ele>720.0</ele><time>2026-04-05T10:05:20Z</time></trkpt><trkpt lat="44.47819958980495" lon="8.712191843139182"><ele>720.0</ele><time>2026-04-05T10:05:21Z</time></trkpt><trkpt lat="44.47812698808934" lon="8.712124456721396"><ele>720.0</ele><time>2026-04-05T10:05:22Z</time></trkpt><trkpt lat="44.47806949548536" lon="8.712023885754492"><ele>720.0</ele><time>2026-04-05T10:05:23Z</time></trkpt><trkpt lat="44.47803285035651" lon="8.71192377091529"><ele>720.0</ele><time>2026-04-05T10:05:24Z</time></trkpt><trkpt lat="44.47798206115823" lon="8.71185451015384"><ele>720.0</ele><time>2026-04-05T10:05:25Z</time></trkpt><trkpt lat="44.47791209192984" lon="8.711827598578898"><ele>720.0</ele><time>2026-04-05T10:05:26Z</time></trkpt><trkpt lat="44.47783697589901" lon="8.71184108239303"><ele>720.6666666666666</ele><time>2026-04-05T10:05:27Z</time></trkpt><trkpt lat="44.477763260577184" lon="8.71187928739031"><ele>721.3333333333334</ele><time>2026-04-05T10:05:28Z</time></trkpt><trkpt lat="44.47769058598606" lon="8.711913392300405"><ele>722.0</ele><time>2026-04-05T10:05:29Z</time></trkpt><trkpt lat="44.47762916462508" lon="8.711938577761405"><ele>722.6666666666667</ele><time>2026-04-05T10:05:30Z</time></trkpt><trkpt lat="44.477522047910625" lon="8.711945260787413"><ele>723.3333333333334</ele><time>2026-04-05T10:05:32Z</time></trkpt><trkpt lat="44.47746161687954" lon="8.711894924167101"><ele>724.0</ele><time>2026-04-05T10:05:33Z</time></trkpt><trkpt lat="44.47736817984353" lon="8.711777511287393"><ele>727.3333333333334</ele><time>2026-04-05T10:05:35Z</time></trkpt><trkpt lat="44.477320156989414" lon="8.711639290987637"><ele>730.6666666666667</ele><time>2026-04-05T10:05:37Z</time></trkpt><trkpt lat="44.477347514919785" lon="8.711531676042242"><ele>734.0</ele><time>2026-04-05T10:05:38Z</time></trkpt><trkpt lat="44.477394903902244" lon="8.7114250867801"><ele>737.3333333333334</ele><time>2026-04-05T10:05:39Z</time></trkpt><trkpt lat="44.47745179241635" lon="8.711334657259263"><ele>740.6666666666666</ele><time>2026-04-05T10:05:40Z</time></trkpt><trkpt lat="44.477504770042515" lon="8.711245826228671"><ele>744.0</ele><time>2026-04-05T10:05:41Z</time></trkpt><trkpt lat="44.4775722888212" lon="8.711165089056221"><ele>744.0</ele><time>2026-04-05T10:05:42Z</time></trkpt><trkpt lat="44.47764255532684" lon="8.711109050885739"><ele>744.0</ele><time>2026-04-05T10:05:43Z</time></trkpt><trkpt lat="44.477703275690374" lon="8.711052933955125"><ele>744.0</ele><time>2026-04-05T10:05:43.999Z</time></trkpt><trkpt lat="44.477773524095774" lon="8.711002824453901"><ele>744.0</ele><time>2026-04-05T10:05:44.999Z</time></trkpt><trkpt lat="44.47782705227978" lon="8.710911756126949"><ele>744.0</ele><time>2026-04-05T10:05:45.999Z</time></trkpt><trkpt lat="44.47786547048144" lon="8.71076579034247"><ele>744.0</ele><time>2026-04-05T10:05:46.999Z</time></trkpt><trkpt lat="44.477917362528665" lon="8.710540597463512"><ele>747.3333333333334</ele><time>2026-04-05T10:05:47.999Z</time></trkpt><trkpt lat="44.47800625946288" lon="8.710317245503292"><ele>750.6666666666667</ele><time>2026-04-05T10:05:48.999Z</time></trkpt><trkpt lat="44.47809985783672" lon="8.71008828974251"><ele>754.0</ele><time>2026-04-05T10:05:49.999Z</time></trkpt><trkpt lat="44.478169964135894" lon="8.709916033452133"><ele>754.0</ele><time>2026-04-05T10:05:50.999Z</time></trkpt><trkpt lat="44.47824511760475" lon="8.709786671309038"><ele>754.0</ele><time>2026-04-05T10:05:51.999Z</time></trkpt><trkpt lat="44.47839069493769" lon="8.709658404591842"><ele>754.0</ele><time>2026-04-05T10:05:52.999Z</time></trkpt><trkpt lat="44.478533396904446" lon="8.709495172803958"><ele>750.5</ele><time>2026-04-05T10:05:53.999Z</time></trkpt><trkpt lat="44.47864563405983" lon="8.709360992635157"><ele>747.0</ele><time>2026-04-05T10:05:54.999Z</time></trkpt><trkpt lat="44.47873625514759" lon="8.709252654559284"><ele>743.5</ele><time>2026-04-05T10:05:55.999Z</time></trkpt><trkpt lat="44.47881404600627" lon="8.709155046824504"><ele>740.0</ele><time>2026-04-05T10:05:56.999Z</time></trkpt><trkpt lat="44.47886753356886" lon="8.709060116482538"><ele>746.2</ele><time>2026-04-05T10:05:57.999Z</time></trkpt><trkpt lat="44.47891342434203" lon="8.708940412282836"><ele>752.4</ele><time>2026-04-05T10:05:58.999Z</time></trkpt><trkpt lat="44.47891973739829" lon="8.708784716966731"><ele>758.5999999999999</ele><time>2026-04-05T10:05:59.999Z</time></trkpt><trkpt lat="44.47888332308577" lon="8.708634916730986"><ele>764.8</ele><time>2026-04-05T10:06:00.999Z</time></trkpt><trkpt lat="44.478831215156795" lon="8.708474344658551"><ele>771.0</ele><time>2026-04-05T10:06:01.999Z</time></trkpt><trkpt lat="44.478808706640685" lon="8.708354196540645"><ele>771.0</ele><time>2026-04-05T10:06:02.999Z</time></trkpt><trkpt lat="44.47882906004532" lon="8.708228650388639"><ele>771.0</ele><time>2026-04-05T10:06:03.999Z</time></trkpt><trkpt lat="44.47891952698286" lon="8.708118832933652"><ele>771.0</ele><time>2026-04-05T10:06:04.999Z</time></trkpt><trkpt lat="44.47898356913883" lon="8.707953946650465"><ele>771.0</ele><time>2026-04-05T10:06:05.999Z</time></trkpt><trkpt lat="44.47902307228432" lon="8.707844854851952"><ele>771.0</ele><time>2026-04-05T10:06:06.999Z</time></trkpt><trkpt lat="44.47902855172241" lon="8.707714983576041"><ele>771.5999999999999</ele><time>2026-04-05T10:06:07.999Z</time></trkpt><trkpt lat="44.478999778628925" lon="8.707564690644244"><ele>772.2</ele><time>2026-04-05T10:06:08.999Z</time></trkpt><trkpt lat="44.478946767157986" lon="8.70742758234966"><ele>772.8</ele><time>2026-04-05T10:06:09.999Z</time></trkpt><trkpt lat="44.47893678871009" lon="8.707300680165067"><ele>773.4000000000001</ele><time>2026-04-05T10:06:10.999Z</time></trkpt><trkpt lat="44.47898882159153" lon="8.707144165598406"><ele>774.0</ele><time>2026-04-05T10:06:11.999Z</time></trkpt><trkpt lat="44.479049483797276" lon="8.706916790827435"><ele>773.75</ele><time>2026-04-05T10:06:12.999Z</time></trkpt><trkpt lat="44.4791039662853" lon="8.706762024112658"><ele>773.5</ele><time>2026-04-05T10:06:13.999Z</time></trkpt><trkpt lat="44.479122661551955" lon="8.706590666419583"><ele>773.25</ele><time>2026-04-05T10:06:14.999Z</time></trkpt><trkpt lat="44.47911576389649" lon="8.70641394155115"><ele>773.0</ele><time>2026-04-05T10:06:15.999Z</time></trkpt><trkpt lat="44.47908966792764" lon="8.706260594133207"><ele>773.0</ele><time>2026-04-05T10:06:16.999Z</time></trkpt><trkpt lat="44.479040571997736" lon="8.706125602024425"><ele>773.0</ele><time>2026-04-05T10:06:17.999Z</time></trkpt><trkpt lat="44.47895538961256" lon="8.705998021021967"><ele>773.0</ele><time>2026-04-05T10:06:18.999Z</time></trkpt><trkpt lat="44.4788220575514" lon="8.705855729410924"><ele>773.0</ele><time>2026-04-05T10:06:19.999Z</time></trkpt><trkpt lat="44.478713048698324" lon="8.705741945252756"><ele>771.6666666666667</ele><time>2026-04-05T10:06:20.999Z</time></trkpt><trkpt lat="44.47862877752385" lon="8.705649152085783"><ele>770.3333333333334</ele><time>2026-04-05T10:06:21.999Z</time></trkpt><trkpt lat="44.478575391004966" lon="8.705563860815143"><ele>769.0</ele><time>2026-04-05T10:06:22.999Z</time></trkpt><trkpt lat="44.47856577554587" lon="8.705464227843361"><ele>767.6666666666667</ele><time>2026-04-05T10:06:23.999Z</time></trkpt><trkpt lat="44.47859719321457" lon="8.70535511492908"><ele>766.3333333333334</ele><time>2026-04-05T10:06:24.999Z</time></trkpt><trkpt lat="44.478671192636945" lon="8.705252151501316"><ele>765.0</ele><time>2026-04-05T10:06:25.999Z</time></trkpt><trkpt lat="44.47879701090178" lon="8.705216222624887"><ele>765.0</ele><time>2026-04-05T10:06:26.999Z</time></trkpt><trkpt lat="44.47895901724217" lon="8.70512457093835"><ele>765.0</ele><time>2026-04-05T10:06:27.999Z</time></trkpt><trkpt lat="44.47914301021879" lon="8.705018817058006"><ele>765.0</ele><time>2026-04-05T10:06:28.999Z</time></trkpt><trkpt lat="44.479319614229375" lon="8.704899572625369"><ele>765.0</ele><time>2026-04-05T10:06:29.999Z</time></trkpt><trkpt lat="44.47947679714349" lon="8.704771732521294"><ele>765.0</ele><time>2026-04-05T10:06:30.999Z</time></trkpt><trkpt lat="44.47964142762299" lon="8.704618142767897"><ele>765.0</ele><time>2026-04-05T10:06:31.999Z</time></trkpt><trkpt lat="44.47981683368082" lon="8.704403764310197"><ele>767.3333333333333</ele><time>2026-04-05T10:06:32.999Z</time></trkpt><trkpt lat="44.479991937618315" lon="8.704179326423006"><ele>769.6666666666666</ele><time>2026-04-05T10:06:33.999Z</time></trkpt><trkpt lat="44.480135852250314" lon="8.70398332240967"><ele>772.0</ele><time>2026-04-05T10:06:34.999Z</time></trkpt><trkpt lat="44.48025531324024" lon="8.703792852643646"><ele>772.0</ele><time>2026-04-05T10:06:35.999Z</time></trkpt><trkpt lat="44.480354025795755" lon="8.703627553634195"><ele>772.0</ele><time>2026-04-05T10:06:36.999Z</time></trkpt><trkpt lat="44.4804464358961" lon="8.703474386811854"><ele>772.0</ele><time>2026-04-05T10:06:37.999Z</time></trkpt><trkpt lat="44.48050882156603" lon="8.703349349401577"><ele>772.0</ele><time>2026-04-05T10:06:38.999Z</time></trkpt><trkpt lat="44.48052098504818" lon="8.703195865480307"><ele>774.25</ele><time>2026-04-05T10:06:39.999Z</time></trkpt><trkpt lat="44.48052118124368" lon="8.703041345267502"><ele>776.5</ele><time>2026-04-05T10:06:40.999Z</time></trkpt><trkpt lat="44.48055878558802" lon="8.702907161617286"><ele>778.75</ele><time>2026-04-05T10:06:41.999Z</time></trkpt><trkpt lat="44.480638256251474" lon="8.702773214424715"><ele>781.0</ele><time>2026-04-05T10:06:42.999Z</time></trkpt><trkpt lat="44.48075020780371" lon="8.702617255215586"><ele>776.25</ele><time>2026-04-05T10:06:43.999Z</time></trkpt><trkpt lat="44.48084517644921" lon="8.702497629194067"><ele>771.5</ele><time>2026-04-05T10:06:44.999Z</time></trkpt><trkpt lat="44.48092778711828" lon="8.702379673222337"><ele>766.75</ele><time>2026-04-05T10:06:45.999Z</time></trkpt><trkpt lat="44.480991560640625" lon="8.702230566528536"><ele>762.0</ele><time>2026-04-05T10:06:47Z</time></trkpt><trkpt lat="44.48102242706552" lon="8.702050623011768"><ele>760.0</ele><time>2026-04-05T10:06:48Z</time></trkpt><trkpt lat="44.48102968386912" lon="8.701805011715077"><ele>758.0</ele><time>2026-04-05T10:06:49Z</time></trkpt><trkpt lat="44.481038028203315" lon="8.701485822906708"><ele>756.0</ele><time>2026-04-05T10:06:50Z</time></trkpt><trkpt lat="44.48104289527254" lon="8.70120469500648"><ele>759.3333333333334</ele><time>2026-04-05T10:06:51Z</time></trkpt><trkpt lat="44.48102087669096" lon="8.70093759733454"><ele>762.6666666666667</ele><time>2026-04-05T10:06:52Z</time></trkpt><trkpt lat="44.48098547991297" lon="8.700668600533856"><ele>766.0</ele><time>2026-04-05T10:06:53Z</time></trkpt><trkpt lat="44.48093129287624" lon="8.700441494033031"><ele>766.0</ele><time>2026-04-05T10:06:54Z</time></trkpt><trkpt lat="44.48088072235037" lon="8.70025645064881"><ele>766.0</ele><time>2026-04-05T10:06:55Z</time></trkpt><trkpt lat="44.48084806451934" lon="8.700083654026741"><ele>766.0</ele><time>2026-04-05T10:06:56Z</time></trkpt><trkpt lat="44.480847188688884" lon="8.699907042334239"><ele>766.0</ele><time>2026-04-05T10:06:57Z</time></trkpt><trkpt lat="44.48092406587999" lon="8.699725184173861"><ele>767.0</ele><time>2026-04-05T10:06:58Z</time></trkpt><trkpt lat="44.48096976304153" lon="8.699540019343905"><ele>768.0</ele><time>2026-04-05T10:06:59Z</time></trkpt><trkpt lat="44.48096415297006" lon="8.69936836737288"><ele>769.0</ele><time>2026-04-05T10:07:00Z</time></trkpt><trkpt lat="44.480936134031765" lon="8.699194793753216"><ele>770.0</ele><time>2026-04-05T10:07:01Z</time></trkpt><trkpt lat="44.48087456958403" lon="8.699033948893005"><ele>772.75</ele><time>2026-04-05T10:07:02Z</time></trkpt><trkpt lat="44.48077503275097" lon="8.698900533927981"><ele>775.5</ele><time>2026-04-05T10:07:03Z</time></trkpt><trkpt lat="44.48065873771505" lon="8.698786280586498"><ele>778.25</ele><time>2026-04-05T10:07:04Z</time></trkpt><trkpt lat="44.48057201265513" lon="8.69870121477062"><ele>781.0</ele><time>2026-04-05T10:07:05Z</time></trkpt><trkpt lat="44.480501021514605" lon="8.698574592155103"><ele>784.75</ele><time>2026-04-05T10:07:06Z</time></trkpt><trkpt lat="44.48046583819513" lon="8.698412861826762"><ele>788.5</ele><time>2026-04-05T10:07:07Z</time></trkpt><trkpt lat="44.4804685438364" lon="8.698251125425577"><ele>792.25</ele><time>2026-04-05T10:07:08Z</time></trkpt><trkpt lat="44.48051594644594" lon="8.698081307929607"><ele>796.0</ele><time>2026-04-05T10:07:09Z</time></trkpt><trkpt lat="44.48062568770583" lon="8.697911930707898"><ele>796.75</ele><time>2026-04-05T10:07:10Z</time></trkpt><trkpt lat="44.48072181101318" lon="8.697696132561049"><ele>797.5</ele><time>2026-04-05T10:07:11Z</time></trkpt><trkpt lat="44.4808083108168" lon="8.697540692761901"><ele>798.25</ele><time>2026-04-05T10:07:12Z</time></trkpt><trkpt lat="44.48085857958634" lon="8.697388632893082"><ele>799.0</ele><time>2026-04-05T10:07:13Z</time></trkpt><trkpt lat="44.48088308979094" lon="8.697216899746541"><ele>799.0</ele><time>2026-04-05T10:07:14Z</time></trkpt><trkpt lat="44.48086930857489" lon="8.697020499585083"><ele>799.0</ele><time>2026-04-05T10:07:15Z</time></trkpt><trkpt lat="44.480842874563415" lon="8.696820694850338"><ele>799.0</ele><time>2026-04-05T10:07:16Z</time></trkpt><trkpt lat="44.48083617781806" lon="8.69663929471782"><ele>799.0</ele><time>2026-04-05T10:07:17Z</time></trkpt><trkpt lat="44.480882535956816" lon="8.696436214353376"><ele>799.3333333333333</ele><time>2026-04-05T10:07:18Z</time></trkpt><trkpt lat="44.4809371496091" lon="8.696201973659726"><ele>799.6666666666667</ele><time>2026-04-05T10:07:19Z</time></trkpt><trkpt lat="44.481041569487765" lon="8.696004316030946"><ele>800.0</ele><time>2026-04-05T10:07:20Z</time></trkpt><trkpt lat="44.48115340112207" lon="8.695820138953968"><ele>800.6666666666667</ele><time>2026-04-05T10:07:21Z</time></trkpt><trkpt lat="44.48130501263206" lon="8.69562076496556"><ele>801.3333333333333</ele><time>2026-04-05T10:07:22Z</time></trkpt><trkpt lat="44.481483582348496" lon="8.695416851958356"><ele>802.0</ele><time>2026-04-05T10:07:23Z</time></trkpt><trkpt lat="44.48167036970774" lon="8.695240648979208"><ele>802.0</ele><time>2026-04-05T10:07:24Z</time></trkpt><trkpt lat="44.481858974098" lon="8.695073889376069"><ele>802.0</ele><time>2026-04-05T10:07:25Z</time></trkpt><trkpt lat="44.482049315421705" lon="8.694893484509231"><ele>810.6666666666666</ele><time>2026-04-05T10:07:26Z</time></trkpt><trkpt lat="44.48221394600181" lon="8.6947264500285"><ele>819.3333333333333</ele><time>2026-04-05T10:07:27Z</time></trkpt><trkpt lat="44.482355509636484" lon="8.694579253026571"><ele>828.0</ele><time>2026-04-05T10:07:28Z</time></trkpt><trkpt lat="44.48249184107874" lon="8.694436942393624"><ele>826.25</ele><time>2026-04-05T10:07:29Z</time></trkpt><trkpt lat="44.482594561424" lon="8.694302972623909"><ele>824.5</ele><time>2026-04-05T10:07:30Z</time></trkpt><trkpt lat="44.48268761612649" lon="8.694196532557484"><ele>822.75</ele><time>2026-04-05T10:07:31Z</time></trkpt><trkpt lat="44.48275511037249" lon="8.694104267756746"><ele>821.0</ele><time>2026-04-05T10:07:32Z</time></trkpt><trkpt lat="44.482789683904805" lon="8.693969890259693"><ele>821.0</ele><time>2026-04-05T10:07:33Z</time></trkpt><trkpt lat="44.48279137750431" lon="8.693809176797853"><ele>821.0</ele><time>2026-04-05T10:07:34Z</time></trkpt><trkpt lat="44.48275554773703" lon="8.693658457691447"><ele>821.0</ele><time>2026-04-05T10:07:35Z</time></trkpt><trkpt lat="44.48266707232198" lon="8.693515268295407"><ele>821.0</ele><time>2026-04-05T10:07:36Z</time></trkpt><trkpt lat="44.48253800258127" lon="8.693336101943734"><ele>824.6666666666667</ele><time>2026-04-05T10:07:37Z</time></trkpt><trkpt lat="44.48238565980214" lon="8.693148003322358"><ele>828.3333333333333</ele><time>2026-04-05T10:07:38Z</time></trkpt><trkpt lat="44.482266448325795" lon="8.693005197271633"><ele>832.0</ele><time>2026-04-05T10:07:39Z</time></trkpt><trkpt lat="44.48216100241426" lon="8.692846770732926"><ele>825.3333333333333</ele><time>2026-04-05T10:07:40Z</time></trkpt><trkpt lat="44.482057597790856" lon="8.692624615374116"><ele>818.6666666666667</ele><time>2026-04-05T10:07:41Z</time></trkpt><trkpt lat="44.4819737323991" lon="8.692347793560842"><ele>812.0</ele><time>2026-04-05T10:07:42Z</time></trkpt><trkpt lat="44.48189974388685" lon="8.69201496719639"><ele>818.0</ele><time>2026-04-05T10:07:43Z</time></trkpt><trkpt lat="44.481824271385506" lon="8.691741191309145"><ele>824.0</ele><time>2026-04-05T10:07:44Z</time></trkpt><trkpt lat="44.481743416909346" lon="8.691528443137635"><ele>830.0</ele><time>2026-04-05T10:07:45Z</time></trkpt><trkpt lat="44.48167657211843" lon="8.691372944920648"><ele>830.0</ele><time>2026-04-05T10:07:46Z</time></trkpt><trkpt lat="44.48162692697455" lon="8.691212301990582"><ele>830.0</ele><time>2026-04-05T10:07:47Z</time></trkpt><trkpt lat="44.481602459956854" lon="8.691006060467009"><ele>830.0</ele><time>2026-04-05T10:07:48Z</time></trkpt><trkpt lat="44.4816224803367" lon="8.690788752171457"><ele>830.0</ele><time>2026-04-05T10:07:48.999Z</time></trkpt><trkpt lat="44.48166610518548" lon="8.69057603566023"><ele>829.6666666666667</ele><time>2026-04-05T10:07:49.999Z</time></trkpt><trkpt lat="44.48174564536273" lon="8.690390593291573"><ele>829.3333333333333</ele><time>2026-04-05T10:07:50.999Z</time></trkpt><trkpt lat="44.481858245322755" lon="8.690242045437103"><ele>829.0</ele><time>2026-04-05T10:07:51.999Z</time></trkpt><trkpt lat="44.48201533334967" lon="8.690075447680517"><ele>840.25</ele><time>2026-04-05T10:07:52.999Z</time></trkpt><trkpt lat="44.4821658050688" lon="8.689937244686472"><ele>851.5</ele><time>2026-04-05T10:07:53.999Z</time></trkpt><trkpt lat="44.48227575135501" lon="8.68981669888051"><ele>862.75</ele><time>2026-04-05T10:07:54.999Z</time></trkpt><trkpt lat="44.482350145437636" lon="8.689688829749896"><ele>874.0</ele><time>2026-04-05T10:07:55.999Z</time></trkpt><trkpt lat="44.48242109394218" lon="8.689507429942964"><ele>869.6666666666666</ele><time>2026-04-05T10:07:56.999Z</time></trkpt><trkpt lat="44.482463722534234" lon="8.689251566501841"><ele>865.3333333333333</ele><time>2026-04-05T10:07:57.999Z</time></trkpt><trkpt lat="44.48252768684946" lon="8.689010753063036"><ele>861.0</ele><time>2026-04-05T10:07:58.999Z</time></trkpt><trkpt lat="44.48256928358812" lon="8.688833146308326"><ele>861.0</ele><time>2026-04-05T10:07:59.999Z</time></trkpt><trkpt lat="44.48263191148143" lon="8.688680139769904"><ele>861.0</ele><time>2026-04-05T10:08:00.999Z</time></trkpt><trkpt lat="44.48271508075" lon="8.68854465061142"><ele>861.0</ele><time>2026-04-05T10:08:01.999Z</time></trkpt><trkpt lat="44.48277248499821" lon="8.688414281796243"><ele>861.0</ele><time>2026-04-05T10:08:02.999Z</time></trkpt><trkpt lat="44.48277953899724" lon="8.688230786568939"><ele>861.75</ele><time>2026-04-05T10:08:03.999Z</time></trkpt><trkpt lat="44.48276309762479" lon="8.688053232133218"><ele>862.5</ele><time>2026-04-05T10:08:04.999Z</time></trkpt><trkpt lat="44.48271632851822" lon="8.687894183069305"><ele>863.25</ele><time>2026-04-05T10:08:05.999Z</time></trkpt><trkpt lat="44.482630600381306" lon="8.687699438486229"><ele>864.0</ele><time>2026-04-05T10:08:06.999Z</time></trkpt><trkpt lat="44.482543130214694" lon="8.687523471450733"><ele>864.0</ele><time>2026-04-05T10:08:07.999Z</time></trkpt><trkpt lat="44.482492141724045" lon="8.687372859958968"><ele>864.0</ele><time>2026-04-05T10:08:08.999Z</time></trkpt><trkpt lat="44.48246930734898" lon="8.687198073965424"><ele>864.0</ele><time>2026-04-05T10:08:09.999Z</time></trkpt><trkpt lat="44.48248556124998" lon="8.687024403914993"><ele>864.0</ele><time>2026-04-05T10:08:10.999Z</time></trkpt><trkpt lat="44.482528322793485" lon="8.686840796409955"><ele>860.6666666666667</ele><time>2026-04-05T10:08:11.999Z</time></trkpt><trkpt lat="44.48261158081885" lon="8.686647478915082"><ele>857.3333333333334</ele><time>2026-04-05T10:08:12.999Z</time></trkpt><trkpt lat="44.48273434083658" lon="8.686433974912097"><ele>854.0</ele><time>2026-04-05T10:08:13.999Z</time></trkpt><trkpt lat="44.48283108418018" lon="8.686271686039357"><ele>854.0</ele><time>2026-04-05T10:08:14.999Z</time></trkpt><trkpt lat="44.48289759977067" lon="8.686131188543765"><ele>854.0</ele><time>2026-04-05T10:08:15.999Z</time></trkpt><trkpt lat="44.48293399703712" lon="8.685980075872235"><ele>854.0</ele><time>2026-04-05T10:08:16.999Z</time></trkpt><trkpt lat="44.48293558624165" lon="8.685800874908773"><ele>854.0</ele><time>2026-04-05T10:08:17.999Z</time></trkpt><trkpt lat="44.482908038216806" lon="8.685624684539354"><ele>852.0</ele><time>2026-04-05T10:08:18.999Z</time></trkpt><trkpt lat="44.48284320920171" lon="8.68545749441107"><ele>850.0</ele><time>2026-04-05T10:08:19.999Z</time></trkpt><trkpt lat="44.48273728710315" lon="8.685301030495348"><ele>848.0</ele><time>2026-04-05T10:08:20.999Z</time></trkpt><trkpt lat="44.48258791392154" lon="8.685134191173898"><ele>857.0</ele><time>2026-04-05T10:08:21.999Z</time></trkpt><trkpt lat="44.48245327262378" lon="8.684918424716608"><ele>866.0</ele><time>2026-04-05T10:08:22.999Z</time></trkpt><trkpt lat="44.48230830494244" lon="8.684715367414382"><ele>875.0</ele><time>2026-04-05T10:08:23.999Z</time></trkpt><trkpt lat="44.48218357224595" lon="8.684553948519719"><ele>870.6666666666667</ele><time>2026-04-05T10:08:24.999Z</time></trkpt><trkpt lat="44.48207247887013" lon="8.68440008179463"><ele>866.3333333333333</ele><time>2026-04-05T10:08:25.999Z</time></trkpt><trkpt lat="44.481967222675436" lon="8.684216732283396"><ele>862.0</ele><time>2026-04-05T10:08:26.999Z</time></trkpt><trkpt lat="44.48185873055362" lon="8.683961823136016"><ele>862.0</ele><time>2026-04-05T10:08:27.999Z</time></trkpt><trkpt lat="44.481771108809234" lon="8.683722033177016"><ele>862.0</ele><time>2026-04-05T10:08:28.999Z</time></trkpt><trkpt lat="44.48170568987202" lon="8.683517688319357"><ele>862.0</ele><time>2026-04-05T10:08:29.999Z</time></trkpt><trkpt lat="44.48166857275267" lon="8.68332871485994"><ele>866.6666666666666</ele><time>2026-04-05T10:08:30.999Z</time></trkpt><trkpt lat="44.4816600810409" lon="8.683116360104677"><ele>871.3333333333333</ele><time>2026-04-05T10:08:31.999Z</time></trkpt><trkpt lat="44.4816832750539" lon="8.682891792941211"><ele>876.0</ele><time>2026-04-05T10:08:32.999Z</time></trkpt><trkpt lat="44.481701319790304" lon="8.682655474460365"><ele>877.6666666666667</ele><time>2026-04-05T10:08:33.999Z</time></trkpt><trkpt lat="44.48168436002139" lon="8.682411682028853"><ele>879.3333333333334</ele><time>2026-04-05T10:08:34.999Z</time></trkpt><trkpt lat="44.48164278289981" lon="8.682132750675084"><ele>881.0</ele><time>2026-04-05T10:08:35.999Z</time></trkpt><trkpt lat="44.48157931708915" lon="8.681837191633761"><ele>886.0</ele><time>2026-04-05T10:08:36.999Z</time></trkpt><trkpt lat="44.48151596927253" lon="8.681542675744575"><ele>891.0</ele><time>2026-04-05T10:08:37.999Z</time></trkpt><trkpt lat="44.48147821667433" lon="8.681310698588716"><ele>896.0</ele><time>2026-04-05T10:08:38.999Z</time></trkpt><trkpt lat="44.48144332036415" lon="8.681106543264152"><ele>894.75</ele><time>2026-04-05T10:08:39.999Z</time></trkpt><trkpt lat="44.481393595056495" lon="8.680939294337984"><ele>893.5</ele><time>2026-04-05T10:08:40.999Z</time></trkpt><trkpt lat="44.48135811366776" lon="8.680759724198598"><ele>892.25</ele><time>2026-04-05T10:08:41.999Z</time></trkpt><trkpt lat="44.48125258390562" lon="8.680629807990643"><ele>891.0</ele><time>2026-04-05T10:08:42.999Z</time></trkpt><trkpt lat="44.48111907054199" lon="8.6805321585171"><ele>891.0</ele><time>2026-04-05T10:08:43.999Z</time></trkpt><trkpt lat="44.4809863462957" lon="8.680464788488816"><ele>891.0</ele><time>2026-04-05T10:08:44.999Z</time></trkpt><trkpt lat="44.48087820119966" lon="8.680427394264838"><ele>891.0</ele><time>2026-04-05T10:08:45.999Z</time></trkpt><trkpt lat="44.48077861093465" lon="8.68033265106388"><ele>891.0</ele><time>2026-04-05T10:08:46.999Z</time></trkpt><trkpt lat="44.48070679703261" lon="8.680182193857984"><ele>900.6666666666667</ele><time>2026-04-05T10:08:47.999Z</time></trkpt><trkpt lat="44.480654008181915" lon="8.680001221836868"><ele>910.3333333333334</ele><time>2026-04-05T10:08:48.999Z</time></trkpt><trkpt lat="44.480635313614926" lon="8.679791477272703"><ele>920.0</ele><time>2026-04-05T10:08:49.999Z</time></trkpt><trkpt lat="44.480640427394285" lon="8.679549457111637"><ele>924.5</ele><time>2026-04-05T10:08:50.999Z</time></trkpt><trkpt lat="44.4806400542132" lon="8.679347858594017"><ele>929.0</ele><time>2026-04-05T10:08:51.999Z</time></trkpt><trkpt lat="44.48060364763234" lon="8.679154097638863"><ele>933.5</ele><time>2026-04-05T10:08:53Z</time></trkpt><trkpt lat="44.48052018042127" lon="8.678971290054426"><ele>938.0</ele><time>2026-04-05T10:08:54Z</time></trkpt><trkpt lat="44.48039803888342" lon="8.678752967051402"><ele>933.3333333333334</ele><time>2026-04-05T10:08:55Z</time></trkpt><trkpt lat="44.480257705073704" lon="8.678542319067473"><ele>928.6666666666667</ele><time>2026-04-05T10:08:56Z</time></trkpt><trkpt lat="44.48011303169729" lon="8.67838034265614"><ele>924.0</ele><time>2026-04-05T10:08:57Z</time></trkpt><trkpt lat="44.47994888470398" lon="8.678235717346045"><ele>924.0</ele><time>2026-04-05T10:08:58Z</time></trkpt><trkpt lat="44.479781590982824" lon="8.678120680343708"><ele>924.0</ele><time>2026-04-05T10:08:59Z</time></trkpt><trkpt lat="44.479647523433506" lon="8.678030012450975"><ele>924.0</ele><time>2026-04-05T10:09:00Z</time></trkpt><trkpt lat="44.479542710372485" lon="8.677931376251628"><ele>921.75</ele><time>2026-04-05T10:09:01Z</time></trkpt><trkpt lat="44.479460825614716" lon="8.677797211654841"><ele>919.5</ele><time>2026-04-05T10:09:02Z</time></trkpt><trkpt lat="44.47941110230551" lon="8.677599070925991"><ele>917.25</ele><time>2026-04-05T10:09:03Z</time></trkpt><trkpt lat="44.479396200782304" lon="8.677407801609037"><ele>915.0</ele><time>2026-04-05T10:09:04Z</time></trkpt><trkpt lat="44.47940664637555" lon="8.677167023758757"><ele>917.0</ele><time>2026-04-05T10:09:05Z</time></trkpt><trkpt lat="44.479441493015" lon="8.676877669594061"><ele>919.0</ele><time>2026-04-05T10:09:06Z</time></trkpt><trkpt lat="44.479473911697234" lon="8.676584934016022"><ele>921.0</ele><time>2026-04-05T10:09:07Z</time></trkpt><trkpt lat="44.47948631195473" lon="8.676345018391702"><ele>921.0</ele><time>2026-04-05T10:09:08Z</time></trkpt><trkpt lat="44.479498536691274" lon="8.676151632706818"><ele>921.0</ele><time>2026-04-05T10:09:09Z</time></trkpt><trkpt lat="44.47947867303614" lon="8.675959610670452"><ele>921.0</ele><time>2026-04-05T10:09:10Z</time></trkpt><trkpt lat="44.479409386408236" lon="8.675760748826725"><ele>921.0</ele><time>2026-04-05T10:09:11Z</time></trkpt><trkpt lat="44.479306615949895" lon="8.675549485322065"><ele>924.5</ele><time>2026-04-05T10:09:12Z</time></trkpt><trkpt lat="44.47924123011539" lon="8.675405204682773"><ele>928.0</ele><time>2026-04-05T10:09:13Z</time></trkpt><trkpt lat="44.47922380976032" lon="8.675250092270307"><ele>931.5</ele><time>2026-04-05T10:09:14Z</time></trkpt><trkpt lat="44.47927319518188" lon="8.675084638754814"><ele>935.0</ele><time>2026-04-05T10:09:15Z</time></trkpt><trkpt lat="44.479352012166814" lon="8.674923285915614"><ele>936.25</ele><time>2026-04-05T10:09:16Z</time></trkpt><trkpt lat="44.479446973174035" lon="8.674781439864013"><ele>937.5</ele><time>2026-04-05T10:09:17Z</time></trkpt><trkpt lat="44.47949286786335" lon="8.674650200969667"><ele>938.75</ele><time>2026-04-05T10:09:18Z</time></trkpt><trkpt lat="44.479497156443614" lon="8.674480919678283"><ele>940.0</ele><time>2026-04-05T10:09:19Z</time></trkpt><trkpt lat="44.479461183060984" lon="8.67430828136862"><ele>943.5</ele><time>2026-04-05T10:09:20Z</time></trkpt><trkpt lat="44.47938601700648" lon="8.674155923547483"><ele>947.0</ele><time>2026-04-05T10:09:21Z</time></trkpt><trkpt lat="44.47927290994846" lon="8.674015481830503"><ele>950.5</ele><time>2026-04-05T10:09:22Z</time></trkpt><trkpt lat="44.47915461147515" lon="8.673901304711517"><ele>954.0</ele><time>2026-04-05T10:09:23Z</time></trkpt><trkpt lat="44.47907934914255" lon="8.67375522840738"><ele>959.25</ele><time>2026-04-05T10:09:24Z</time></trkpt><trkpt lat="44.479014474037584" lon="8.673566785738338"><ele>964.5</ele><time>2026-04-05T10:09:25Z</time></trkpt><trkpt lat="44.478986388224286" lon="8.673395530227365"><ele>969.75</ele><time>2026-04-05T10:09:26Z</time></trkpt><trkpt lat="44.47898152433279" lon="8.673204474856332"><ele>975.0</ele><time>2026-04-05T10:09:27Z</time></trkpt><trkpt lat="44.478968216133595" lon="8.673039007724018"><ele>975.0</ele><time>2026-04-05T10:09:28Z</time></trkpt><trkpt lat="44.478906044063734" lon="8.672897274687847"><ele>975.0</ele><time>2026-04-05T10:09:29Z</time></trkpt><trkpt lat="44.478810363850464" lon="8.67275508380884"><ele>975.0</ele><time>2026-04-05T10:09:30Z</time></trkpt><trkpt lat="44.478682312683844" lon="8.67260127119028"><ele>975.0</ele><time>2026-04-05T10:09:31Z</time></trkpt><trkpt lat="44.478521964774465" lon="8.672431102656835"><ele>971.3333333333333</ele><time>2026-04-05T10:09:32Z</time></trkpt><trkpt lat="44.47834778373169" lon="8.672275686573254"><ele>967.6666666666666</ele><time>2026-04-05T10:09:33Z</time></trkpt><trkpt lat="44.47817297845238" lon="8.672149318012915"><ele>964.0</ele><time>2026-04-05T10:09:34Z</time></trkpt><trkpt lat="44.477963489910294" lon="8.67204861379248"><ele>972.3333333333333</ele><time>2026-04-05T10:09:35Z</time></trkpt><trkpt lat="44.47777364352427" lon="8.671988620167063"><ele>980.6666666666667</ele><time>2026-04-05T10:09:36Z</time></trkpt><trkpt lat="44.47762429138991" lon="8.67195301164057"><ele>989.0</ele><time>2026-04-05T10:09:37Z</time></trkpt><trkpt lat="44.47750504400963" lon="8.671899289540255"><ele>989.0</ele><time>2026-04-05T10:09:38Z</time></trkpt><trkpt lat="44.47737191938404" lon="8.67177123616115"><ele>989.0</ele><time>2026-04-05T10:09:39Z</time></trkpt><trkpt lat="44.47726424141608" lon="8.671632982284363"><ele>989.0</ele><time>2026-04-05T10:09:40Z</time></trkpt><trkpt lat="44.47715536827658" lon="8.671563844703861"><ele>989.0</ele><time>2026-04-05T10:09:41Z</time></trkpt><trkpt lat="44.477021489577915" lon="8.671553267365487"><ele>985.3333333333334</ele><time>2026-04-05T10:09:42Z</time></trkpt><trkpt lat="44.476865593772864" lon="8.671592225303945"><ele>981.6666666666667</ele><time>2026-04-05T10:09:43Z</time></trkpt><trkpt lat="44.4767004663211" lon="8.671639443849438"><ele>978.0</ele><time>2026-04-05T10:09:44Z</time></trkpt><trkpt lat="44.47654598946976" lon="8.671640935881776"><ele>978.0</ele><time>2026-04-05T10:09:45Z</time></trkpt><trkpt lat="44.476371629935635" lon="8.671589338893423"><ele>978.0</ele><time>2026-04-05T10:09:46Z</time></trkpt><trkpt lat="44.476184983599296" lon="8.671517429724524"><ele>978.0</ele><time>2026-04-05T10:09:47Z</time></trkpt><trkpt lat="44.47605459378642" lon="8.671454832690216"><ele>981.5</ele><time>2026-04-05T10:09:48Z</time></trkpt><trkpt lat="44.47593938054519" lon="8.671385462672426"><ele>985.0</ele><time>2026-04-05T10:09:49Z</time></trkpt><trkpt lat="44.47584130995291" lon="8.671285228787648"><ele>988.5</ele><time>2026-04-05T10:09:50Z</time></trkpt><trkpt lat="44.47574994021587" lon="8.671131849533673"><ele>992.0</ele><time>2026-04-05T10:09:51Z</time></trkpt><trkpt lat="44.47565501530223" lon="8.670945382007936"><ele>992.0</ele><time>2026-04-05T10:09:52Z</time></trkpt><trkpt lat="44.475572117509664" lon="8.67075573376158"><ele>992.0</ele><time>2026-04-05T10:09:53Z</time></trkpt><trkpt lat="44.47549296781002" lon="8.67057052150177"><ele>992.0</ele><time>2026-04-05T10:09:54Z</time></trkpt><trkpt lat="44.47542204891209" lon="8.670402382309337"><ele>985.25</ele><time>2026-04-05T10:09:54.999Z</time></trkpt><trkpt lat="44.47535111858681" lon="8.670240561253179"><ele>978.5</ele><time>2026-04-05T10:09:55.999Z</time></trkpt><trkpt lat="44.4752847535765" lon="8.670085423421682"><ele>971.75</ele><time>2026-04-05T10:09:56.999Z</time></trkpt><trkpt lat="44.47522358801708" lon="8.669947245056123"><ele>965.0</ele><time>2026-04-05T10:09:57.999Z</time></trkpt><trkpt lat="44.47517618096763" lon="8.66981539905885"><ele>965.0</ele><time>2026-04-05T10:09:58.999Z</time></trkpt><trkpt lat="44.47515081417585" lon="8.669682097350067"><ele>965.0</ele><time>2026-04-05T10:09:59.999Z</time></trkpt><trkpt lat="44.47514742552844" lon="8.669521528402843"><ele>965.0</ele><time>2026-04-05T10:10:00.999Z</time></trkpt><trkpt lat="44.47517728518571" lon="8.669345775000714"><ele>965.0</ele><time>2026-04-05T10:10:01.999Z</time></trkpt><trkpt lat="44.47524666027431" lon="8.669178831114396"><ele>965.3333333333334</ele><time>2026-04-05T10:10:02.999Z</time></trkpt><trkpt lat="44.475339038055814" lon="8.669026694998683"><ele>965.6666666666667</ele><time>2026-04-05T10:10:03.999Z</time></trkpt><trkpt lat="44.47545576453772" lon="8.66888946443724"><ele>966.0</ele><time>2026-04-05T10:10:04.999Z</time></trkpt><trkpt lat="44.475613049018044" lon="8.668718481756812"><ele>965.6666666666667</ele><time>2026-04-05T10:10:05.999Z</time></trkpt><trkpt lat="44.475749358384476" lon="8.668565352785214"><ele>965.3333333333334</ele><time>2026-04-05T10:10:06.999Z</time></trkpt><trkpt lat="44.475880951452346" lon="8.668432545068523"><ele>965.0</ele><time>2026-04-05T10:10:07.999Z</time></trkpt><trkpt lat="44.47599474697368" lon="8.668283889391606"><ele>965.0</ele><time>2026-04-05T10:10:08.999Z</time></trkpt><trkpt lat="44.47611566432788" lon="8.66815767423214"><ele>965.0</ele><time>2026-04-05T10:10:09.999Z</time></trkpt><trkpt lat="44.47622174808994" lon="8.66805890085797"><ele>965.0</ele><time>2026-04-05T10:10:10.999Z</time></trkpt><trkpt lat="44.47630702243238" lon="8.66796131625093"><ele>965.0</ele><time>2026-04-05T10:10:11.999Z</time></trkpt><trkpt lat="44.4763816954404" lon="8.667874976347314"><ele>964.1666666666667</ele><time>2026-04-05T10:10:12.999Z</time></trkpt><trkpt lat="44.476432055300975" lon="8.66779151096096"><ele>963.3333333333334</ele><time>2026-04-05T10:10:13.999Z</time></trkpt><trkpt lat="44.47645831870512" lon="8.667693017214667"><ele>962.5</ele><time>2026-04-05T10:10:14.999Z</time></trkpt><trkpt lat="44.47643677911177" lon="8.667570385152274"><ele>961.6666666666667</ele><time>2026-04-05T10:10:15.999Z</time></trkpt><trkpt lat="44.476385269677294" lon="8.667471460383805"><ele>960.8333333333334</ele><time>2026-04-05T10:10:16.999Z</time></trkpt><trkpt lat="44.476303115288296" lon="8.667416706630497"><ele>960.0</ele><time>2026-04-05T10:10:17.999Z</time></trkpt><trkpt lat="44.4762161798285" lon="8.667430161528898"><ele>961.25</ele><time>2026-04-05T10:10:18.999Z</time></trkpt><trkpt lat="44.476127053280706" lon="8.667496554184861"><ele>962.5</ele><time>2026-04-05T10:10:19.999Z</time></trkpt><trkpt lat="44.47602688156283" lon="8.667610006302912"><ele>963.75</ele><time>2026-04-05T10:10:20.999Z</time></trkpt><trkpt lat="44.47589095244942" lon="8.667774104363554"><ele>965.0</ele><time>2026-04-05T10:10:21.999Z</time></trkpt><trkpt lat="44.47578054165598" lon="8.667904253328928"><ele>965.0</ele><time>2026-04-05T10:10:22.999Z</time></trkpt><trkpt lat="44.47566952816974" lon="8.668001652795379"><ele>965.0</ele><time>2026-04-05T10:10:23.999Z</time></trkpt><trkpt lat="44.47554569256161" lon="8.668094207450418"><ele>965.0</ele><time>2026-04-05T10:10:24.999Z</time></trkpt><trkpt lat="44.475419904944516" lon="8.668166909630429"><ele>965.0</ele><time>2026-04-05T10:10:25.999Z</time></trkpt><trkpt lat="44.47527244937403" lon="8.66821571277628"><ele>960.6666666666667</ele><time>2026-04-05T10:10:26.999Z</time></trkpt><trkpt lat="44.47512422398696" lon="8.668239572913643"><ele>956.3333333333333</ele><time>2026-04-05T10:10:27.999Z</time></trkpt><trkpt lat="44.474968098942696" lon="8.668243188204531"><ele>952.0</ele><time>2026-04-05T10:10:28.999Z</time></trkpt><trkpt lat="44.47480245369522" lon="8.668207163196477"><ele>952.0</ele><time>2026-04-05T10:10:29.999Z</time></trkpt><trkpt lat="44.474642792521905" lon="8.668150379414786"><ele>952.0</ele><time>2026-04-05T10:10:30.999Z</time></trkpt><trkpt lat="44.47451650002763" lon="8.668072413184435"><ele>952.0</ele><time>2026-04-05T10:10:31.999Z</time></trkpt><trkpt lat="44.47440775062396" lon="8.668023018057983"><ele>952.0</ele><time>2026-04-05T10:10:32.999Z</time></trkpt><trkpt lat="44.47430271015341" lon="8.66800033664126"><ele>950.5</ele><time>2026-04-05T10:10:33.999Z</time></trkpt><trkpt lat="44.47417445480366" lon="8.668046893606228"><ele>949.0</ele><time>2026-04-05T10:10:34.999Z</time></trkpt><trkpt lat="44.47406619345842" lon="8.668146053019342"><ele>947.5</ele><time>2026-04-05T10:10:35.999Z</time></trkpt><trkpt lat="44.47396286930378" lon="8.668305219264456"><ele>946.0</ele><time>2026-04-05T10:10:36.999Z</time></trkpt><trkpt lat="44.47386571597214" lon="8.668535460763167"><ele>942.0</ele><time>2026-04-05T10:10:37.999Z</time></trkpt><trkpt lat="44.47376092932528" lon="8.6687587325484"><ele>938.0</ele><time>2026-04-05T10:10:38.999Z</time></trkpt><trkpt lat="44.473668332952386" lon="8.668921185651406"><ele>934.0</ele><time>2026-04-05T10:10:39.999Z</time></trkpt><trkpt lat="44.47355470032824" lon="8.669069505869029"><ele>934.0</ele><time>2026-04-05T10:10:40.999Z</time></trkpt><trkpt lat="44.473420215820525" lon="8.66918989862828"><ele>934.0</ele><time>2026-04-05T10:10:41.999Z</time></trkpt><trkpt lat="44.47328352058606" lon="8.669294819260397"><ele>934.0</ele><time>2026-04-05T10:10:42.999Z</time></trkpt><trkpt lat="44.47313009513944" lon="8.669367722783631"><ele>934.0</ele><time>2026-04-05T10:10:43.999Z</time></trkpt><trkpt lat="44.47297347785986" lon="8.669402543126429"><ele>934.0</ele><time>2026-04-05T10:10:44.999Z</time></trkpt><trkpt lat="44.472814107229404" lon="8.66942658685969"><ele>934.0</ele><time>2026-04-05T10:10:45.999Z</time></trkpt><trkpt lat="44.47260847998324" lon="8.66943138483543"><ele>934.5</ele><time>2026-04-05T10:10:46.999Z</time></trkpt><trkpt lat="44.47237306364654" lon="8.669411313442575"><ele>935.0</ele><time>2026-04-05T10:10:47.999Z</time></trkpt><trkpt lat="44.47209547866175" lon="8.669384870716192"><ele>937.0</ele><time>2026-04-05T10:10:48.999Z</time></trkpt><trkpt lat="44.47181809324608" lon="8.669363538936986"><ele>939.0</ele><time>2026-04-05T10:10:49.999Z</time></trkpt><trkpt lat="44.47155904599007" lon="8.669346211784864"><ele>939.0</ele><time>2026-04-05T10:10:50.999Z</time></trkpt><trkpt lat="44.471320828560835" lon="8.66933130018372"><ele>939.0</ele><time>2026-04-05T10:10:51.999Z</time></trkpt><trkpt lat="44.471085191584535" lon="8.66930543306093"><ele>937.3333333333333</ele><time>2026-04-05T10:10:52.999Z</time></trkpt><trkpt lat="44.4708643539698" lon="8.669294244272175"><ele>935.6666666666666</ele><time>2026-04-05T10:10:53.999Z</time></trkpt><trkpt lat="44.47066114495313" lon="8.669283183746309"><ele>934.0</ele><time>2026-04-05T10:10:54.999Z</time></trkpt><trkpt lat="44.47047034788745" lon="8.669272291814373"><ele>935.6666666666666</ele><time>2026-04-05T10:10:55.999Z</time></trkpt><trkpt lat="44.47029466464848" lon="8.669266758516292"><ele>937.3333333333333</ele><time>2026-04-05T10:10:56.999Z</time></trkpt><trkpt lat="44.47013451386058" lon="8.669270672508114"><ele>939.0</ele><time>2026-04-05T10:10:57.999Z</time></trkpt><trkpt lat="44.469982913593675" lon="8.669313707286344"><ele>939.0</ele><time>2026-04-05T10:10:59Z</time></trkpt><trkpt lat="44.469838700189015" lon="8.66940283272901"><ele>939.0</ele><time>2026-04-05T10:11:00Z</time></trkpt><trkpt lat="44.46967498666049" lon="8.669545476644249"><ele>939.0</ele><time>2026-04-05T10:11:01Z</time></trkpt><trkpt lat="44.469520397395286" lon="8.669709425602463"><ele>943.0</ele><time>2026-04-05T10:11:02Z</time></trkpt><trkpt lat="44.469372085243464" lon="8.669853790692756"><ele>947.0</ele><time>2026-04-05T10:11:03Z</time></trkpt><trkpt lat="44.469186236940395" lon="8.669986325024253"><ele>951.0</ele><time>2026-04-05T10:11:04Z</time></trkpt><trkpt lat="44.46895055611966" lon="8.670111964842153"><ele>946.5</ele><time>2026-04-05T10:11:05Z</time></trkpt><trkpt lat="44.468697712810624" lon="8.670234466781537"><ele>942.0</ele><time>2026-04-05T10:11:06Z</time></trkpt><trkpt lat="44.46843208812052" lon="8.670355906060367"><ele>942.0</ele><time>2026-04-05T10:11:07Z</time></trkpt><trkpt lat="44.46821158276694" lon="8.670469004746751"><ele>942.0</ele><time>2026-04-05T10:11:08Z</time></trkpt><trkpt lat="44.468005276411795" lon="8.670574018948464"><ele>948.6666666666667</ele><time>2026-04-05T10:11:09Z</time></trkpt><trkpt lat="44.46780381036493" lon="8.670687116159662"><ele>955.3333333333334</ele><time>2026-04-05T10:11:10Z</time></trkpt><trkpt lat="44.46763629086143" lon="8.670767793253576"><ele>962.0</ele><time>2026-04-05T10:11:11Z</time></trkpt><trkpt lat="44.46748088994205" lon="8.670838625788848"><ele>962.0</ele><time>2026-04-05T10:11:12Z</time></trkpt><trkpt lat="44.46733387286536" lon="8.67091426030688"><ele>962.0</ele><time>2026-04-05T10:11:13Z</time></trkpt><trkpt lat="44.46719514996479" lon="8.670982326660527"><ele>962.0</ele><time>2026-04-05T10:11:14Z</time></trkpt><trkpt lat="44.467040647983865" lon="8.67100495520302"><ele>962.25</ele><time>2026-04-05T10:11:15Z</time></trkpt><trkpt lat="44.46689608262306" lon="8.670972526347267"><ele>962.5</ele><time>2026-04-05T10:11:16Z</time></trkpt><trkpt lat="44.46677429135662" lon="8.670902948073756"><ele>962.75</ele><time>2026-04-05T10:11:17Z</time></trkpt><trkpt lat="44.466689784973056" lon="8.670814801215435"><ele>963.0</ele><time>2026-04-05T10:11:18Z</time></trkpt><trkpt lat="44.46664956811683" lon="8.670685400019504"><ele>963.0</ele><time>2026-04-05T10:11:19Z</time></trkpt><trkpt lat="44.46662701942422" lon="8.67051379416174"><ele>963.0</ele><time>2026-04-05T10:11:20Z</time></trkpt><trkpt lat="44.46665180299572" lon="8.67034967443951"><ele>963.0</ele><time>2026-04-05T10:11:21Z</time></trkpt><trkpt lat="44.46671475992468" lon="8.67016676180156"><ele>963.0</ele><time>2026-04-05T10:11:22Z</time></trkpt><trkpt lat="44.466838562934356" lon="8.669935167391738"><ele>969.5</ele><time>2026-04-05T10:11:23Z</time></trkpt><trkpt lat="44.466958175006404" lon="8.669642664341364"><ele>976.0</ele><time>2026-04-05T10:11:24Z</time></trkpt><trkpt lat="44.46710521654771" lon="8.669349968080697"><ele>978.3333333333333</ele><time>2026-04-05T10:11:25Z</time></trkpt><trkpt lat="44.467237577242344" lon="8.669082382932613"><ele>980.6666666666667</ele><time>2026-04-05T10:11:26Z</time></trkpt><trkpt lat="44.46735859382491" lon="8.668831030287272"><ele>983.0</ele><time>2026-04-05T10:11:27Z</time></trkpt><trkpt lat="44.467465487518986" lon="8.668561908927702"><ele>987.0</ele><time>2026-04-05T10:11:28Z</time></trkpt><trkpt lat="44.467575219536194" lon="8.668230395804049"><ele>991.0</ele><time>2026-04-05T10:11:29Z</time></trkpt><trkpt lat="44.46764903726968" lon="8.667941907160841"><ele>995.3333333333333</ele><time>2026-04-05T10:11:30Z</time></trkpt><trkpt lat="44.46770316119677" lon="8.667704275445512"><ele>999.6666666666667</ele><time>2026-04-05T10:11:31Z</time></trkpt><trkpt lat="44.467765866037205" lon="8.667495093843591"><ele>1004.0</ele><time>2026-04-05T10:11:32Z</time></trkpt><trkpt lat="44.4678713928524" lon="8.667266963706941"><ele>1003.5</ele><time>2026-04-05T10:11:33Z</time></trkpt><trkpt lat="44.46802471709667" lon="8.666995932957398"><ele>1003.0</ele><time>2026-04-05T10:11:34Z</time></trkpt><trkpt lat="44.4682033246858" lon="8.666712280006049"><ele>1003.0</ele><time>2026-04-05T10:11:35Z</time></trkpt><trkpt lat="44.46835426264098" lon="8.666463282299972"><ele>1003.0</ele><time>2026-04-05T10:11:36Z</time></trkpt><trkpt lat="44.46848966810183" lon="8.66625714975946"><ele>1003.0</ele><time>2026-04-05T10:11:37Z</time></trkpt><trkpt lat="44.4686207129138" lon="8.666067226882564"><ele>1003.0</ele><time>2026-04-05T10:11:38Z</time></trkpt><trkpt lat="44.46877851859465" lon="8.665921979761256"><ele>1003.0</ele><time>2026-04-05T10:11:39Z</time></trkpt><trkpt lat="44.46891295038859" lon="8.665800587806087"><ele>1003.0</ele><time>2026-04-05T10:11:40Z</time></trkpt><trkpt lat="44.469035694342786" lon="8.665708900096394"><ele>1003.0</ele><time>2026-04-05T10:11:41Z</time></trkpt><trkpt lat="44.469152930075865" lon="8.665628649017162"><ele>1003.0</ele><time>2026-04-05T10:11:42Z</time></trkpt><trkpt lat="44.46922870426156" lon="8.665527504946699"><ele>1003.0</ele><time>2026-04-05T10:11:43Z</time></trkpt><trkpt lat="44.46927749452266" lon="8.665427582347109"><ele>1003.0</ele><time>2026-04-05T10:11:44Z</time></trkpt><trkpt lat="44.46929528048017" lon="8.66528336128346"><ele>1003.0</ele><time>2026-04-05T10:11:45Z</time></trkpt><trkpt lat="44.46927299088255" lon="8.665155802205337"><ele>1004.0</ele><time>2026-04-05T10:11:46Z</time></trkpt><trkpt lat="44.46919551131891" lon="8.665042008484471"><ele>1005.0</ele><time>2026-04-05T10:11:47Z</time></trkpt><trkpt lat="44.46908739833766" lon="8.66498338658713"><ele>1006.0</ele><time>2026-04-05T10:11:48Z</time></trkpt><trkpt lat="44.468975748689466" lon="8.66499559808219"><ele>1007.0</ele><time>2026-04-05T10:11:49Z</time></trkpt><trkpt lat="44.46887023716244" lon="8.665078389853528"><ele>1009.0</ele><time>2026-04-05T10:11:50Z</time></trkpt><trkpt lat="44.468741289908756" lon="8.665212997799784"><ele>1011.0</ele><time>2026-04-05T10:11:51Z</time></trkpt><trkpt lat="44.468578981278874" lon="8.66539322735216"><ele>1013.0</ele><time>2026-04-05T10:11:52Z</time></trkpt><trkpt lat="44.46838363679707" lon="8.665570733062074"><ele>1015.0</ele><time>2026-04-05T10:11:53Z</time></trkpt><trkpt lat="44.468171887683305" lon="8.665755952579529"><ele>1017.0</ele><time>2026-04-05T10:11:54Z</time></trkpt><trkpt lat="44.46799781363625" lon="8.665913866492474"><ele>1019.3333333333333</ele><time>2026-04-05T10:11:55Z</time></trkpt><trkpt lat="44.467817461721765" lon="8.666049012405933"><ele>1021.6666666666666</ele><time>2026-04-05T10:11:56Z</time></trkpt><trkpt lat="44.467620762396955" lon="8.666167658111654"><ele>1024.0</ele><time>2026-04-05T10:11:57Z</time></trkpt><trkpt lat="44.46738325241803" lon="8.666276838064267"><ele>1024.0</ele><time>2026-04-05T10:11:58Z</time></trkpt><trkpt lat="44.46712580042122" lon="8.666366080613289"><ele>1024.0</ele><time>2026-04-05T10:11:58.999Z</time></trkpt><trkpt lat="44.46689705129954" lon="8.666406335513448"><ele>1030.0</ele><time>2026-04-05T10:11:59.999Z</time></trkpt><trkpt lat="44.46670304423064" lon="8.666516237726299"><ele>1036.0</ele><time>2026-04-05T10:12:00.999Z</time></trkpt><trkpt lat="44.46649127773374" lon="8.666633019238981"><ele>1042.0</ele><time>2026-04-05T10:12:01.999Z</time></trkpt><trkpt lat="44.46632200860571" lon="8.666784763486598"><ele>1040.75</ele><time>2026-04-05T10:12:02.999Z</time></trkpt><trkpt lat="44.46618760732465" lon="8.6669163030925"><ele>1039.5</ele><time>2026-04-05T10:12:03.999Z</time></trkpt><trkpt lat="44.466080312949764" lon="8.667014134578219"><ele>1038.25</ele><time>2026-04-05T10:12:04.999Z</time></trkpt><trkpt lat="44.465961698732336" lon="8.66706711147656"><ele>1037.0</ele><time>2026-04-05T10:12:05.999Z</time></trkpt><trkpt lat="44.46582572287041" lon="8.667081754799758"><ele>1037.0</ele><time>2026-04-05T10:12:06.999Z</time></trkpt><trkpt lat="44.46566184805984" lon="8.66705755956693"><ele>1037.0</ele><time>2026-04-05T10:12:07.999Z</time></trkpt><trkpt lat="44.4654597330353" lon="8.666975274572293"><ele>1037.0</ele><time>2026-04-05T10:12:08.999Z</time></trkpt><trkpt lat="44.46529680728817" lon="8.666910542811602"><ele>1035.6666666666667</ele><time>2026-04-05T10:12:09.999Z</time></trkpt><trkpt lat="44.46511507628586" lon="8.666890655183833"><ele>1034.3333333333333</ele><time>2026-04-05T10:12:10.999Z</time></trkpt><trkpt lat="44.464907471378304" lon="8.666910053837173"><ele>1033.0</ele><time>2026-04-05T10:12:11.999Z</time></trkpt><trkpt lat="44.464670021358906" lon="8.666986829194677"><ele>1040.0</ele><time>2026-04-05T10:12:12.999Z</time></trkpt><trkpt lat="44.46442327013975" lon="8.667041452282342"><ele>1047.0</ele><time>2026-04-05T10:12:13.999Z</time></trkpt><trkpt lat="44.46421688731744" lon="8.667096633917856"><ele>1047.0</ele><time>2026-04-05T10:12:14.999Z</time></trkpt><trkpt lat="44.464019383067374" lon="8.667161902738814"><ele>1047.0</ele><time>2026-04-05T10:12:15.999Z</time></trkpt><trkpt lat="44.46383549474728" lon="8.667227762301312"><ele>1047.0</ele><time>2026-04-05T10:12:16.999Z</time></trkpt><trkpt lat="44.46366819334052" lon="8.667288053650173"><ele>1050.0</ele><time>2026-04-05T10:12:17.999Z</time></trkpt><trkpt lat="44.46350838370857" lon="8.66734564516714"><ele>1053.0</ele><time>2026-04-05T10:12:18.999Z</time></trkpt><trkpt lat="44.463360853005945" lon="8.66742025692151"><ele>1056.0</ele><time>2026-04-05T10:12:19.999Z</time></trkpt><trkpt lat="44.463208487033135" lon="8.667465473580485"><ele>1056.0</ele><time>2026-04-05T10:12:20.999Z</time></trkpt><trkpt lat="44.4630608664419" lon="8.6675145867981"><ele>1056.0</ele><time>2026-04-05T10:12:21.999Z</time></trkpt><trkpt lat="44.46292143222562" lon="8.667530727761594"><ele>1056.0</ele><time>2026-04-05T10:12:22.999Z</time></trkpt><trkpt lat="44.462788086090654" lon="8.667570721201923"><ele>1056.0</ele><time>2026-04-05T10:12:23.999Z</time></trkpt><trkpt lat="44.46265253525383" lon="8.667612971704628"><ele>1056.5</ele><time>2026-04-05T10:12:24.999Z</time></trkpt><trkpt lat="44.46252666110107" lon="8.667627264360597"><ele>1057.0</ele><time>2026-04-05T10:12:25.999Z</time></trkpt><trkpt lat="44.46241152228975" lon="8.667648165261305"><ele>1057.5</ele><time>2026-04-05T10:12:26.999Z</time></trkpt><trkpt lat="44.462295701126315" lon="8.667664857213989"><ele>1058.0</ele><time>2026-04-05T10:12:27.999Z</time></trkpt><trkpt lat="44.462186857229774" lon="8.667676822662447"><ele>1056.8333333333335</ele><time>2026-04-05T10:12:28.999Z</time></trkpt><trkpt lat="44.46208428566722" lon="8.667695513451653"><ele>1055.6666666666667</ele><time>2026-04-05T10:12:29.999Z</time></trkpt><trkpt lat="44.46199652075814" lon="8.667701769935237"><ele>1054.5</ele><time>2026-04-05T10:12:30.999Z</time></trkpt><trkpt lat="44.46191901311894" lon="8.6676850452182"><ele>1053.3333333333333</ele><time>2026-04-05T10:12:31.999Z</time></trkpt><trkpt lat="44.46185486970677" lon="8.667655613629789"><ele>1052.1666666666665</ele><time>2026-04-05T10:12:32.999Z</time></trkpt><trkpt lat="44.46178201251438" lon="8.667631944495021"><ele>1051.0</ele><time>2026-04-05T10:12:33.999Z</time></trkpt><trkpt lat="44.46170175647296" lon="8.667557642000327"><ele>1051.0</ele><time>2026-04-05T10:12:35.999Z</time></trkpt><trkpt lat="44.46165630056053" lon="8.667447751413492"><ele>1051.0</ele><time>2026-04-05T10:12:37.999Z</time></trkpt><trkpt lat="44.461627337507366" lon="8.667297083178326"><ele>1051.0</ele><time>2026-04-05T10:12:39.999Z</time></trkpt><trkpt lat="44.46159482989625" lon="8.667217883507186"><ele>1051.0</ele><time>2026-04-05T10:12:41.999Z</time></trkpt><trkpt lat="44.461602259094" lon="8.66733704894248"><ele>1051.0</ele><time>2026-04-05T10:13:16Z</time></trkpt><trkpt lat="44.46153540326723" lon="8.66731407081523"><ele>1051.0</ele><time>2026-04-05T10:13:48Z</time></trkpt></trkseg><trkseg><trkpt lat="44.481596272163856" lon="8.683393991261973"><ele>876.0</ele><time>2026-04-05T10:40:04Z</time></trkpt><trkpt lat="44.4816405974861" lon="8.683479171362801"><ele>875.9999999999999</ele><time>2026-04-05T10:40:06Z</time></trkpt><trkpt lat="44.4816795940044" lon="8.683564544798948"><ele>875.9999999999999</ele><time>2026-04-05T10:40:07Z</time></trkpt><trkpt lat="44.48172588684567" lon="8.683682082727742"><ele>876.0</ele><time>2026-04-05T10:40:08Z</time></trkpt><trkpt lat="44.48176604646999" lon="8.6838011374791"><ele>876.0</ele><time>2026-04-05T10:40:09Z</time></trkpt><trkpt lat="44.48182108354109" lon="8.683940006911884"><ele>871.3333333333333</ele><time>2026-04-05T10:40:10Z</time></trkpt><trkpt lat="44.48188768111155" lon="8.684102023366773"><ele>866.6666666666666</ele><time>2026-04-05T10:40:11Z</time></trkpt><trkpt lat="44.48196956665803" lon="8.684282577026506"><ele>862.0</ele><time>2026-04-05T10:40:12Z</time></trkpt><trkpt lat="44.482097121537905" lon="8.684470651410004"><ele>866.3333333333333</ele><time>2026-04-05T10:40:13Z</time></trkpt><trkpt lat="44.482267783106565" lon="8.684726784727252"><ele>870.6666666666667</ele><time>2026-04-05T10:40:14Z</time></trkpt><trkpt lat="44.4824134983305" lon="8.684914090502756"><ele>875.0</ele><time>2026-04-05T10:40:15Z</time></trkpt><trkpt lat="44.482533706245356" lon="8.685086293491462"><ele>875.0</ele><time>2026-04-05T10:40:16Z</time></trkpt><trkpt lat="44.482646127304456" lon="8.685234187963657"><ele>875.0</ele><time>2026-04-05T10:40:17Z</time></trkpt><trkpt lat="44.48274081617618" lon="8.685368652949133"><ele>875.0</ele><time>2026-04-05T10:40:18Z</time></trkpt><trkpt lat="44.482828074333455" lon="8.68549104122774"><ele>875.0</ele><time>2026-04-05T10:40:19Z</time></trkpt><trkpt lat="44.48288079932888" lon="8.685630700312036"><ele>870.8</ele><time>2026-04-05T10:40:20Z</time></trkpt><trkpt lat="44.482911338770634" lon="8.685766051351742"><ele>866.6</ele><time>2026-04-05T10:40:21Z</time></trkpt><trkpt lat="44.48291577780507" lon="8.685921927661688"><ele>862.4000000000001</ele><time>2026-04-05T10:40:22Z</time></trkpt><trkpt lat="44.48288904649346" lon="8.686056471898882"><ele>858.2</ele><time>2026-04-05T10:40:23Z</time></trkpt><trkpt lat="44.482830553883595" lon="8.686199296813545"><ele>854.0</ele><time>2026-04-05T10:40:24Z</time></trkpt><trkpt lat="44.48273839597011" lon="8.68636850500897"><ele>854.0</ele><time>2026-04-05T10:40:25Z</time></trkpt><trkpt lat="44.4826496039358" lon="8.686528895473112"><ele>854.0</ele><time>2026-04-05T10:40:26Z</time></trkpt><trkpt lat="44.482571110643306" lon="8.686677560533381"><ele>854.0</ele><time>2026-04-05T10:40:27Z</time></trkpt><trkpt lat="44.48250965545205" lon="8.686813730617107"><ele>854.0</ele><time>2026-04-05T10:40:28Z</time></trkpt><trkpt lat="44.48247144626927" lon="8.686966046084637"><ele>856.5</ele><time>2026-04-05T10:40:29Z</time></trkpt><trkpt lat="44.482451993861666" lon="8.687137082779996"><ele>859.0</ele><time>2026-04-05T10:40:30Z</time></trkpt><trkpt lat="44.48245511729721" lon="8.687320108380097"><ele>861.5</ele><time>2026-04-05T10:40:31Z</time></trkpt><trkpt lat="44.48249236955594" lon="8.687472872206998"><ele>864.0</ele><time>2026-04-05T10:40:32Z</time></trkpt><trkpt lat="44.48256544477779" lon="8.68765544110631"><ele>860.75</ele><time>2026-04-05T10:40:33Z</time></trkpt><trkpt lat="44.48264430247573" lon="8.68784758636088"><ele>857.5</ele><time>2026-04-05T10:40:34Z</time></trkpt><trkpt lat="44.482703098341304" lon="8.687999289372877"><ele>854.25</ele><time>2026-04-05T10:40:35Z</time></trkpt><trkpt lat="44.48275386030251" lon="8.688139738669213"><ele>851.0</ele><time>2026-04-05T10:40:36Z</time></trkpt><trkpt lat="44.48275285427958" lon="8.688293675254824"><ele>851.0</ele><time>2026-04-05T10:40:37Z</time></trkpt><trkpt lat="44.4827408497102" lon="8.688404247144359"><ele>851.0</ele><time>2026-04-05T10:40:38Z</time></trkpt><trkpt lat="44.48270021302635" lon="8.688519419872671"><ele>851.0</ele><time>2026-04-05T10:40:39Z</time></trkpt><trkpt lat="44.48259889108638" lon="8.688665731602827"><ele>851.0</ele><time>2026-04-05T10:40:40Z</time></trkpt><trkpt lat="44.48253288192518" lon="8.68882647097702"><ele>851.0</ele><time>2026-04-05T10:40:41Z</time></trkpt><trkpt lat="44.482486450316955" lon="8.68903985317397"><ele>854.3333333333334</ele><time>2026-04-05T10:40:42Z</time></trkpt><trkpt lat="44.482453279714754" lon="8.689284174120674"><ele>857.6666666666667</ele><time>2026-04-05T10:40:43Z</time></trkpt><trkpt lat="44.48240676468568" lon="8.68948460492453"><ele>861.0</ele><time>2026-04-05T10:40:44Z</time></trkpt><trkpt lat="44.48234827719065" lon="8.689660434591561"><ele>865.3333333333333</ele><time>2026-04-05T10:40:45Z</time></trkpt><trkpt lat="44.4822653224556" lon="8.689801328150498"><ele>869.6666666666666</ele><time>2026-04-05T10:40:46Z</time></trkpt><trkpt lat="44.4821219720911" lon="8.689934033897071"><ele>874.0</ele><time>2026-04-05T10:40:47Z</time></trkpt><trkpt lat="44.481973641222005" lon="8.690092387901633"><ele>866.0</ele><time>2026-04-05T10:40:48Z</time></trkpt><trkpt lat="44.48184407442417" lon="8.690207058394533"><ele>858.0</ele><time>2026-04-05T10:40:49Z</time></trkpt><trkpt lat="44.48173142313178" lon="8.690322018704807"><ele>850.0</ele><time>2026-04-05T10:40:50Z</time></trkpt><trkpt lat="44.481648363449146" lon="8.690484430515484"><ele>842.0</ele><time>2026-04-05T10:40:51Z</time></trkpt><trkpt lat="44.48158554461573" lon="8.690668308771215"><ele>842.0</ele><time>2026-04-05T10:40:52Z</time></trkpt><trkpt lat="44.48155385131206" lon="8.690857463774762"><ele>842.0</ele><time>2026-04-05T10:40:52.999Z</time></trkpt><trkpt lat="44.4815606695123" lon="8.69108829686177"><ele>842.0</ele><time>2026-04-05T10:40:53.999Z</time></trkpt><trkpt lat="44.481594051127914" lon="8.691314890614912"><ele>838.0</ele><time>2026-04-05T10:40:54.999Z</time></trkpt><trkpt lat="44.481671319991825" lon="8.69150691882099"><ele>834.0</ele><time>2026-04-05T10:40:55.999Z</time></trkpt><trkpt lat="44.48177594780618" lon="8.69177655643497"><ele>830.0</ele><time>2026-04-05T10:40:56.999Z</time></trkpt><trkpt lat="44.48186500615438" lon="8.692085727147129"><ele>824.0</ele><time>2026-04-05T10:40:57.999Z</time></trkpt><trkpt lat="44.481941826742194" lon="8.692352364263593"><ele>818.0</ele><time>2026-04-05T10:40:58.999Z</time></trkpt><trkpt lat="44.482007009656066" lon="8.692574970950151"><ele>812.0</ele><time>2026-04-05T10:40:59.999Z</time></trkpt><trkpt lat="44.482083598540704" lon="8.692795561804411"><ele>818.6666666666667</ele><time>2026-04-05T10:41:00.999Z</time></trkpt><trkpt lat="44.48218489302083" lon="8.69300197356004"><ele>825.3333333333333</ele><time>2026-04-05T10:41:01.999Z</time></trkpt><trkpt lat="44.48233273119057" lon="8.693177055746377"><ele>832.0</ele><time>2026-04-05T10:41:02.999Z</time></trkpt><trkpt lat="44.48245639015309" lon="8.693353344636545"><ele>832.0</ele><time>2026-04-05T10:41:03.999Z</time></trkpt><trkpt lat="44.48258222717731" lon="8.693491351647848"><ele>832.0</ele><time>2026-04-05T10:41:04.999Z</time></trkpt><trkpt lat="44.48268045622942" lon="8.69361320271193"><ele>832.0</ele><time>2026-04-05T10:41:05.999Z</time></trkpt><trkpt lat="44.48276359022636" lon="8.693730288674502"><ele>832.0</ele><time>2026-04-05T10:41:06.999Z</time></trkpt><trkpt lat="44.482789024387415" lon="8.693873798272461"><ele>831.2</ele><time>2026-04-05T10:41:07.999Z</time></trkpt><trkpt lat="44.48276865375024" lon="8.693995848406372"><ele>830.4000000000001</ele><time>2026-04-05T10:41:08.999Z</time></trkpt><trkpt lat="44.48272527728622" lon="8.694102720950726"><ele>829.5999999999999</ele><time>2026-04-05T10:41:09.999Z</time></trkpt><trkpt lat="44.48265312510285" lon="8.694218612931456"><ele>828.8</ele><time>2026-04-05T10:41:10.999Z</time></trkpt><trkpt lat="44.48253772186747" lon="8.694328904694736"><ele>828.0</ele><time>2026-04-05T10:41:11.999Z</time></trkpt><trkpt lat="44.48236451134281" lon="8.694511820674899"><ele>828.0</ele><time>2026-04-05T10:41:12.999Z</time></trkpt><trkpt lat="44.48217517629765" lon="8.69470840508868"><ele>828.0</ele><time>2026-04-05T10:41:13.999Z</time></trkpt><trkpt lat="44.48199890324809" lon="8.69488576385909"><ele>825.6666666666667</ele><time>2026-04-05T10:41:14.999Z</time></trkpt><trkpt lat="44.48182819968078" lon="8.69504664896301"><ele>823.3333333333334</ele><time>2026-04-05T10:41:15.999Z</time></trkpt><trkpt lat="44.48165440052845" lon="8.69519975954998"><ele>821.0</ele><time>2026-04-05T10:41:16.999Z</time></trkpt><trkpt lat="44.48150187358502" lon="8.695361320761597"><ele>821.0</ele><time>2026-04-05T10:41:17.999Z</time></trkpt><trkpt lat="44.48134722503842" lon="8.695510326013123"><ele>821.0</ele><time>2026-04-05T10:41:18.999Z</time></trkpt><trkpt lat="44.4812157911337" lon="8.695671250982837"><ele>821.0</ele><time>2026-04-05T10:41:19.999Z</time></trkpt><trkpt lat="44.48109478067586" lon="8.69583518446591"><ele>814.0</ele><time>2026-04-05T10:41:20.999Z</time></trkpt><trkpt lat="44.48098499740835" lon="8.695997289346689"><ele>807.0</ele><time>2026-04-05T10:41:21.999Z</time></trkpt><trkpt lat="44.48089984179686" lon="8.696162690909354"><ele>800.0</ele><time>2026-04-05T10:41:22.999Z</time></trkpt><trkpt lat="44.48083463901982" lon="8.696359628433905"><ele>800.0</ele><time>2026-04-05T10:41:23.999Z</time></trkpt><trkpt lat="44.48079202382095" lon="8.696566398315216"><ele>800.0</ele><time>2026-04-05T10:41:24.999Z</time></trkpt><trkpt lat="44.48079259632526" lon="8.696777298410986"><ele>800.0</ele><time>2026-04-05T10:41:25.999Z</time></trkpt><trkpt lat="44.48084164437277" lon="8.697021967744643"><ele>799.75</ele><time>2026-04-05T10:41:26.999Z</time></trkpt><trkpt lat="44.48087342049402" lon="8.697221443475772"><ele>799.5</ele><time>2026-04-05T10:41:27.999Z</time></trkpt><trkpt lat="44.48084166151902" lon="8.69737643478894"><ele>799.25</ele><time>2026-04-05T10:41:28.999Z</time></trkpt><trkpt lat="44.48078976337246" lon="8.697533424891203"><ele>799.0</ele><time>2026-04-05T10:41:29.999Z</time></trkpt><trkpt lat="44.48069119117139" lon="8.69770842679352"><ele>798.25</ele><time>2026-04-05T10:41:30.999Z</time></trkpt><trkpt lat="44.48060444368772" lon="8.697902377761999"><ele>797.5</ele><time>2026-04-05T10:41:31.999Z</time></trkpt><trkpt lat="44.4805191290412" lon="8.698062978540984"><ele>796.75</ele><time>2026-04-05T10:41:32.999Z</time></trkpt><trkpt lat="44.480464166641205" lon="8.6981774637243"><ele>796.0</ele><time>2026-04-05T10:41:33.999Z</time></trkpt><trkpt lat="44.48043573683974" lon="8.698311257193508"><ele>796.0</ele><time>2026-04-05T10:41:34.999Z</time></trkpt><trkpt lat="44.48043908761307" lon="8.698457684820946"><ele>796.0</ele><time>2026-04-05T10:41:35.999Z</time></trkpt><trkpt lat="44.48048685863433" lon="8.698618723198615"><ele>796.0</ele><time>2026-04-05T10:41:36.999Z</time></trkpt><trkpt lat="44.480568113344944" lon="8.698751071154412"><ele>796.0</ele><time>2026-04-05T10:41:37.999Z</time></trkpt><trkpt lat="44.48067850727685" lon="8.698865185694839"><ele>792.25</ele><time>2026-04-05T10:41:38.999Z</time></trkpt><trkpt lat="44.48077388526594" lon="8.698987117177229"><ele>788.5</ele><time>2026-04-05T10:41:39.999Z</time></trkpt><trkpt lat="44.48086025880214" lon="8.699093459940025"><ele>784.75</ele><time>2026-04-05T10:41:40.999Z</time></trkpt><trkpt lat="44.480919964665475" lon="8.69922172822279"><ele>781.0</ele><time>2026-04-05T10:41:41.999Z</time></trkpt><trkpt lat="44.48095003654684" lon="8.699364180589365"><ele>778.25</ele><time>2026-04-05T10:41:42.999Z</time></trkpt><trkpt lat="44.48094229748236" lon="8.69951733704933"><ele>775.5</ele><time>2026-04-05T10:41:43.999Z</time></trkpt><trkpt lat="44.480903045904505" lon="8.699669966156542"><ele>772.75</ele><time>2026-04-05T10:41:44.999Z</time></trkpt><trkpt lat="44.48085306744636" lon="8.699829061325064"><ele>770.0</ele><time>2026-04-05T10:41:45.999Z</time></trkpt><trkpt lat="44.48083765391507" lon="8.699985639347585"><ele>770.0</ele><time>2026-04-05T10:41:46.999Z</time></trkpt><trkpt lat="44.48084348674078" lon="8.70018098180894"><ele>770.0</ele><time>2026-04-05T10:41:47.999Z</time></trkpt><trkpt lat="44.480902780059594" lon="8.700360156298368"><ele>770.0</ele><time>2026-04-05T10:41:48.999Z</time></trkpt><trkpt lat="44.48095153861643" lon="8.700601801427759"><ele>768.6666666666667</ele><time>2026-04-05T10:41:49.999Z</time></trkpt><trkpt lat="44.480996728111975" lon="8.700859297496002"><ele>767.3333333333334</ele><time>2026-04-05T10:41:50.999Z</time></trkpt><trkpt lat="44.48100926790752" lon="8.70113081594925"><ele>766.0</ele><time>2026-04-05T10:41:51.999Z</time></trkpt><trkpt lat="44.48100620897783" lon="8.701426409472141"><ele>764.6666666666667</ele><time>2026-04-05T10:41:52.999Z</time></trkpt><trkpt lat="44.48099918960472" lon="8.701697113536605"><ele>763.3333333333334</ele><time>2026-04-05T10:41:53.999Z</time></trkpt><trkpt lat="44.480992122970044" lon="8.701933909133977"><ele>762.0</ele><time>2026-04-05T10:41:54.999Z</time></trkpt><trkpt lat="44.48097844124518" lon="8.702127620423688"><ele>762.0</ele><time>2026-04-05T10:41:55.999Z</time></trkpt><trkpt lat="44.48094776704234" lon="8.702303748353755"><ele>762.0</ele><time>2026-04-05T10:41:56.999Z</time></trkpt><trkpt lat="44.48083984515611" lon="8.702446423431383"><ele>762.0</ele><time>2026-04-05T10:41:57.999Z</time></trkpt><trkpt lat="44.48070723113965" lon="8.702608162643278"><ele>766.75</ele><time>2026-04-05T10:41:58.999Z</time></trkpt><trkpt lat="44.48060564305379" lon="8.702775078971111"><ele>771.5</ele><time>2026-04-05T10:41:59.999Z</time></trkpt><trkpt lat="44.48053007265185" lon="8.702919710230871"><ele>776.25</ele><time>2026-04-05T10:42:00.999Z</time></trkpt><trkpt lat="44.48048982963419" lon="8.703062699991218"><ele>781.0</ele><time>2026-04-05T10:42:01.999Z</time></trkpt><trkpt lat="44.48049014196944" lon="8.703196565172213"><ele>781.0</ele><time>2026-04-05T10:42:02.999Z</time></trkpt><trkpt lat="44.48046888830434" lon="8.703364533722903"><ele>781.0</ele><time>2026-04-05T10:42:03.999Z</time></trkpt><trkpt lat="44.480401501381884" lon="8.703479795063659"><ele>781.0</ele><time>2026-04-05T10:42:04.999Z</time></trkpt><trkpt lat="44.480298712735326" lon="8.703647894548102"><ele>781.0</ele><time>2026-04-05T10:42:05.999Z</time></trkpt><trkpt lat="44.48017965326759" lon="8.703846429856153"><ele>778.0</ele><time>2026-04-05T10:42:07Z</time></trkpt><trkpt lat="44.480033108115144" lon="8.704061703517413"><ele>775.0</ele><time>2026-04-05T10:42:08Z</time></trkpt><trkpt lat="44.4798770477567" lon="8.704263470238715"><ele>772.0</ele><time>2026-04-05T10:42:09Z</time></trkpt><trkpt lat="44.47972540652785" lon="8.704456704990212"><ele>769.6666666666666</ele><time>2026-04-05T10:42:10Z</time></trkpt><trkpt lat="44.47957655615078" lon="8.704628266332588"><ele>767.3333333333333</ele><time>2026-04-05T10:42:11Z</time></trkpt><trkpt lat="44.479407571676" lon="8.704800317337186"><ele>765.0</ele><time>2026-04-05T10:42:12Z</time></trkpt><trkpt lat="44.47920966707118" lon="8.704942914206969"><ele>765.0</ele><time>2026-04-05T10:42:13Z</time></trkpt><trkpt lat="44.479016337635095" lon="8.705057220961654"><ele>765.0</ele><time>2026-04-05T10:42:14Z</time></trkpt><trkpt lat="44.478856388852755" lon="8.705137005247593"><ele>765.0</ele><time>2026-04-05T10:42:15Z</time></trkpt><trkpt lat="44.4787368215152" lon="8.7051948306756"><ele>763.6</ele><time>2026-04-05T10:42:16Z</time></trkpt><trkpt lat="44.47864399197694" lon="8.705249717881934"><ele>762.2</ele><time>2026-04-05T10:42:17Z</time></trkpt><trkpt lat="44.478576035045755" lon="8.70531811083744"><ele>760.8</ele><time>2026-04-05T10:42:18Z</time></trkpt><trkpt lat="44.47852506385275" lon="8.705417962805862"><ele>759.4</ele><time>2026-04-05T10:42:19Z</time></trkpt><trkpt lat="44.478536055646224" lon="8.705542269938764"><ele>758.0</ele><time>2026-04-05T10:42:20Z</time></trkpt><trkpt lat="44.47856109341411" lon="8.705680452508295"><ele>758.0</ele><time>2026-04-05T10:42:21Z</time></trkpt><trkpt lat="44.47867958953555" lon="8.705771128042201"><ele>758.0</ele><time>2026-04-05T10:42:22Z</time></trkpt><trkpt lat="44.47879195799033" lon="8.705907125599753"><ele>758.0</ele><time>2026-04-05T10:42:23Z</time></trkpt><trkpt lat="44.478909679889405" lon="8.706044828789198"><ele>758.0</ele><time>2026-04-05T10:42:24Z</time></trkpt><trkpt lat="44.479003748474305" lon="8.706156804627419"><ele>761.75</ele><time>2026-04-05T10:42:25Z</time></trkpt><trkpt lat="44.47906749471703" lon="8.70626440554784"><ele>765.5</ele><time>2026-04-05T10:42:26Z</time></trkpt><trkpt lat="44.479079074371846" lon="8.706405939564176"><ele>769.25</ele><time>2026-04-05T10:42:27Z</time></trkpt><trkpt lat="44.4790921617155" lon="8.706596591292348"><ele>773.0</ele><time>2026-04-05T10:42:28Z</time></trkpt><trkpt lat="44.47907136617349" lon="8.706778200457629"><ele>773.25</ele><time>2026-04-05T10:42:29Z</time></trkpt><trkpt lat="44.47901815444646" lon="8.70694480723787"><ele>773.5</ele><time>2026-04-05T10:42:30Z</time></trkpt><trkpt lat="44.47896146371803" lon="8.707116008707034"><ele>773.75</ele><time>2026-04-05T10:42:31Z</time></trkpt><trkpt lat="44.47893094269104" lon="8.707279714197709"><ele>774.0</ele><time>2026-04-05T10:42:32Z</time></trkpt><trkpt lat="44.47890421507746" lon="8.70743423485937"><ele>774.0</ele><time>2026-04-05T10:42:33Z</time></trkpt><trkpt lat="44.47892859391891" lon="8.707568864424845"><ele>774.0</ele><time>2026-04-05T10:42:34Z</time></trkpt><trkpt lat="44.47897902320066" lon="8.70769142652777"><ele>774.0</ele><time>2026-04-05T10:42:35Z</time></trkpt><trkpt lat="44.47900144644412" lon="8.707797397884484"><ele>774.0</ele><time>2026-04-05T10:42:36Z</time></trkpt><trkpt lat="44.478997184758995" lon="8.707907471281866"><ele>774.0</ele><time>2026-04-05T10:42:37Z</time></trkpt><trkpt lat="44.4789410467464" lon="8.708005573307908"><ele>774.0</ele><time>2026-04-05T10:42:38Z</time></trkpt><trkpt lat="44.47886591125013" lon="8.708141149480399"><ele>774.2</ele><time>2026-04-05T10:42:39Z</time></trkpt><trkpt lat="44.47880417755522" lon="8.708277828655238"><ele>774.4000000000001</ele><time>2026-04-05T10:42:40Z</time></trkpt><trkpt lat="44.47877635912926" lon="8.708398298502592"><ele>774.6</ele><time>2026-04-05T10:42:41Z</time></trkpt><trkpt lat="44.4787717708655" lon="8.708528851512302"><ele>774.8</ele><time>2026-04-05T10:42:42Z</time></trkpt><trkpt lat="44.478840271487734" lon="8.708679056627426"><ele>775.0</ele><time>2026-04-05T10:42:43Z</time></trkpt><trkpt lat="44.47887793364895" lon="8.708823516631096"><ele>775.0</ele><time>2026-04-05T10:42:44Z</time></trkpt><trkpt lat="44.47889288742992" lon="8.708940191844164"><ele>775.0</ele><time>2026-04-05T10:42:45Z</time></trkpt><trkpt lat="44.478865262299" lon="8.70903976111825"><ele>775.0</ele><time>2026-04-05T10:42:46Z</time></trkpt><trkpt lat="44.47878013107353" lon="8.709136566313314"><ele>775.0</ele><time>2026-04-05T10:42:47Z</time></trkpt><trkpt lat="44.47866204370011" lon="8.70930514990838"><ele>775.0</ele><time>2026-04-05T10:42:48Z</time></trkpt><trkpt lat="44.47850743285535" lon="8.709477076739542"><ele>769.75</ele><time>2026-04-05T10:42:49Z</time></trkpt><trkpt lat="44.47838236751203" lon="8.709624617972592"><ele>764.5</ele><time>2026-04-05T10:42:50Z</time></trkpt><trkpt lat="44.478267855237085" lon="8.709745701877681"><ele>759.25</ele><time>2026-04-05T10:42:51Z</time></trkpt><trkpt lat="44.478172339857075" lon="8.709868370628392"><ele>754.0</ele><time>2026-04-05T10:42:52Z</time></trkpt><trkpt lat="44.478092580092586" lon="8.710025515241112"><ele>754.0</ele><time>2026-04-05T10:42:53Z</time></trkpt><trkpt lat="44.47801416915768" lon="8.7102236363427"><ele>754.0</ele><time>2026-04-05T10:42:54Z</time></trkpt><trkpt lat="44.477944659895385" lon="8.710427860606227"><ele>754.0</ele><time>2026-04-05T10:42:55Z</time></trkpt><trkpt lat="44.47788982152898" lon="8.710602256233226"><ele>752.3333333333334</ele><time>2026-04-05T10:42:56Z</time></trkpt><trkpt lat="44.47785963916015" lon="8.71075531641242"><ele>750.6666666666667</ele><time>2026-04-05T10:42:57Z</time></trkpt><trkpt lat="44.477808205360596" lon="8.710875755872555"><ele>749.0</ele><time>2026-04-05T10:42:58Z</time></trkpt><trkpt lat="44.47778387050074" lon="8.710978445882553"><ele>747.3333333333334</ele><time>2026-04-05T10:42:59Z</time></trkpt><trkpt lat="44.47773298035571" lon="8.711035032777636"><ele>745.6666666666666</ele><time>2026-04-05T10:43:00Z</time></trkpt><trkpt lat="44.4776709058134" lon="8.711056444867788"><ele>744.0</ele><time>2026-04-05T10:43:01Z</time></trkpt><trkpt lat="44.47756234328904" lon="8.711098873005286"><ele>744.0</ele><time>2026-04-05T10:43:03Z</time></trkpt><trkpt lat="44.47750156166716" lon="8.711142365065532"><ele>744.0</ele><time>2026-04-05T10:43:05Z</time></trkpt><trkpt lat="44.47745361179209" lon="8.711248132029736"><ele>744.0</ele><time>2026-04-05T10:43:18Z</time></trkpt><trkpt lat="44.47756461149694" lon="8.711166949134107"><ele>744.0</ele><time>2026-04-05T10:43:24.999Z</time></trkpt><trkpt lat="44.47787558777013" lon="8.710734866118946"><ele>742.3333333333334</ele><time>2026-04-05T10:43:29.999Z</time></trkpt><trkpt lat="44.47793264054719" lon="8.71051932557639"><ele>740.6666666666667</ele><time>2026-04-05T10:43:30.999Z</time></trkpt><trkpt lat="44.47800135446912" lon="8.710302926154322"><ele>739.0</ele><time>2026-04-05T10:43:31.999Z</time></trkpt><trkpt lat="44.47808037480273" lon="8.71010233262464"><ele>742.75</ele><time>2026-04-05T10:43:32.999Z</time></trkpt><trkpt lat="44.47815766226661" lon="8.709947296606925"><ele>746.5</ele><time>2026-04-05T10:43:33.999Z</time></trkpt><trkpt lat="44.47822670351592" lon="8.7098023268058"><ele>750.25</ele><time>2026-04-05T10:43:34.999Z</time></trkpt><trkpt lat="44.47832755511124" lon="8.709674478529578"><ele>754.0</ele><time>2026-04-05T10:43:35.999Z</time></trkpt><trkpt lat="44.478450237405085" lon="8.709527571362226"><ele>750.5</ele><time>2026-04-05T10:43:36.999Z</time></trkpt><trkpt lat="44.478611125481386" lon="8.709402247753482"><ele>747.0</ele><time>2026-04-05T10:43:37.999Z</time></trkpt><trkpt lat="44.47872097055984" lon="8.709270927336348"><ele>743.5</ele><time>2026-04-05T10:43:38.999Z</time></trkpt><trkpt lat="44.478797127338396" lon="8.709176459052493"><ele>740.0</ele><time>2026-04-05T10:43:39.999Z</time></trkpt><trkpt lat="44.47885595232872" lon="8.709098481225661"><ele>745.1666666666666</ele><time>2026-04-05T10:43:40.999Z</time></trkpt><trkpt lat="44.47890021353396" lon="8.709020089564412"><ele>750.3333333333333</ele><time>2026-04-05T10:43:41.999Z</time></trkpt><trkpt lat="44.478928573356924" lon="8.708917990379412"><ele>755.5</ele><time>2026-04-05T10:43:42.999Z</time></trkpt><trkpt lat="44.478923151787356" lon="8.708790333589425"><ele>760.6666666666666</ele><time>2026-04-05T10:43:43.999Z</time></trkpt><trkpt lat="44.47887591641151" lon="8.708680689725536"><ele>765.8333333333334</ele><time>2026-04-05T10:43:44.999Z</time></trkpt><trkpt lat="44.478831627889036" lon="8.70856849133143"><ele>771.0</ele><time>2026-04-05T10:43:45.999Z</time></trkpt><trkpt lat="44.4788058884364" lon="8.708473592162516"><ele>771.0</ele><time>2026-04-05T10:43:46.999Z</time></trkpt><trkpt lat="44.47879418330741" lon="8.708378519170122"><ele>771.0</ele><time>2026-04-05T10:43:47.999Z</time></trkpt><trkpt lat="44.47880257363801" lon="8.708275910325483"><ele>771.0</ele><time>2026-04-05T10:43:48.999Z</time></trkpt><trkpt lat="44.47887842293643" lon="8.708194123421608"><ele>771.0</ele><time>2026-04-05T10:43:49.999Z</time></trkpt><trkpt lat="44.47894863308174" lon="8.708064014985506"><ele>771.0</ele><time>2026-04-05T10:43:50.999Z</time></trkpt><trkpt lat="44.47901766182733" lon="8.707916508951142"><ele>771.0</ele><time>2026-04-05T10:43:51.999Z</time></trkpt><trkpt lat="44.479054165325955" lon="8.707772872806736"><ele>771.0</ele><time>2026-04-05T10:43:52.999Z</time></trkpt><trkpt lat="44.47900665785428" lon="8.707630986159915"><ele>771.0</ele><time>2026-04-05T10:43:53.999Z</time></trkpt><trkpt lat="44.47895807882653" lon="8.707484706874688"><ele>771.0</ele><time>2026-04-05T10:43:54.999Z</time></trkpt><trkpt lat="44.4789154830549" lon="8.70733041050647"><ele>771.5</ele><time>2026-04-05T10:43:55.999Z</time></trkpt><trkpt lat="44.478966716791376" lon="8.707182733126942"><ele>772.0</ele><time>2026-04-05T10:43:56.999Z</time></trkpt><trkpt lat="44.47903524840096" lon="8.707003960249939"><ele>772.5</ele><time>2026-04-05T10:43:57.999Z</time></trkpt><trkpt lat="44.479098486956104" lon="8.706800948369697"><ele>773.0</ele><time>2026-04-05T10:43:58.999Z</time></trkpt><trkpt lat="44.479126330862734" lon="8.706631829410231"><ele>773.0</ele><time>2026-04-05T10:43:59.999Z</time></trkpt><trkpt lat="44.47911204185919" lon="8.706443279652722"><ele>773.0</ele><time>2026-04-05T10:44:00.999Z</time></trkpt><trkpt lat="44.47909712615924" lon="8.706277631294366"><ele>773.0</ele><time>2026-04-05T10:44:01.999Z</time></trkpt><trkpt lat="44.47905293023049" lon="8.706140067526006"><ele>773.0</ele><time>2026-04-05T10:44:02.999Z</time></trkpt><trkpt lat="44.47898305740659" lon="8.706019920320742"><ele>775.3333333333334</ele><time>2026-04-05T10:44:03.999Z</time></trkpt><trkpt lat="44.478853079294275" lon="8.705890248710045"><ele>777.6666666666667</ele><time>2026-04-05T10:44:04.999Z</time></trkpt><trkpt lat="44.478727361422315" lon="8.705754399913474"><ele>780.0</ele><time>2026-04-05T10:44:05.999Z</time></trkpt><trkpt lat="44.478619583842644" lon="8.705644447508966"><ele>775.6</ele><time>2026-04-05T10:44:06.999Z</time></trkpt><trkpt lat="44.47855872502096" lon="8.705564942027864"><ele>771.2</ele><time>2026-04-05T10:44:07.999Z</time></trkpt><trkpt lat="44.47853588352778" lon="8.705479137227112"><ele>766.8</ele><time>2026-04-05T10:44:08.999Z</time></trkpt><trkpt lat="44.478560697610334" lon="8.705363839267438"><ele>762.4</ele><time>2026-04-05T10:44:09.999Z</time></trkpt><trkpt lat="44.478634530702955" lon="8.705258313553989"><ele>758.0</ele><time>2026-04-05T10:44:10.999Z</time></trkpt><trkpt lat="44.47875003034927" lon="8.70523630276807"><ele>760.3333333333333</ele><time>2026-04-05T10:44:11.999Z</time></trkpt><trkpt lat="44.47889751317089" lon="8.7051595220942"><ele>762.6666666666666</ele><time>2026-04-05T10:44:13Z</time></trkpt><trkpt lat="44.47907977195143" lon="8.705055948910092"><ele>765.0</ele><time>2026-04-05T10:44:14Z</time></trkpt><trkpt lat="44.4792665327677" lon="8.704914345649629"><ele>765.0</ele><time>2026-04-05T10:44:15Z</time></trkpt><trkpt lat="44.47943880197057" lon="8.704781838943013"><ele>765.0</ele><time>2026-04-05T10:44:16Z</time></trkpt><trkpt lat="44.4796100010332" lon="8.704645456708375"><ele>765.0</ele><time>2026-04-05T10:44:17Z</time></trkpt><trkpt lat="44.47974650420797" lon="8.70450614131079"><ele>767.3333333333333</ele><time>2026-04-05T10:44:18Z</time></trkpt><trkpt lat="44.47987675344027" lon="8.704321751938206"><ele>769.6666666666666</ele><time>2026-04-05T10:44:19Z</time></trkpt><trkpt lat="44.48001623797803" lon="8.70413183295301"><ele>772.0</ele><time>2026-04-05T10:44:20Z</time></trkpt><trkpt lat="44.48015135407821" lon="8.703934037792886"><ele>772.0</ele><time>2026-04-05T10:44:21Z</time></trkpt><trkpt lat="44.48027312888404" lon="8.703748968725044"><ele>772.0</ele><time>2026-04-05T10:44:22Z</time></trkpt><trkpt lat="44.48038570134145" lon="8.703574711238671"><ele>772.0</ele><time>2026-04-05T10:44:23Z</time></trkpt><trkpt lat="44.48047332934247" lon="8.703425428337718"><ele>773.8</ele><time>2026-04-05T10:44:24Z</time></trkpt><trkpt lat="44.48050823226432" lon="8.703288486264817"><ele>775.6</ele><time>2026-04-05T10:44:25Z</time></trkpt><trkpt lat="44.48054562925057" lon="8.70313959424015"><ele>777.4</ele><time>2026-04-05T10:44:26Z</time></trkpt><trkpt lat="44.4805415112163" lon="8.702992227868046"><ele>779.1999999999999</ele><time>2026-04-05T10:44:27Z</time></trkpt><trkpt lat="44.48057257888144" lon="8.702848942644962"><ele>781.0</ele><time>2026-04-05T10:44:28Z</time></trkpt><trkpt lat="44.480654738678794" lon="8.702744866261419"><ele>774.6666666666666</ele><time>2026-04-05T10:44:29Z</time></trkpt><trkpt lat="44.48076916753077" lon="8.702593925701152"><ele>768.3333333333333</ele><time>2026-04-05T10:44:30Z</time></trkpt><trkpt lat="44.480895685962984" lon="8.702430677642656"><ele>762.0</ele><time>2026-04-05T10:44:31Z</time></trkpt><trkpt lat="44.480972031748955" lon="8.70228533013963"><ele>762.0</ele><time>2026-04-05T10:44:32Z</time></trkpt><trkpt lat="44.48102564568758" lon="8.702109030351135"><ele>762.0</ele><time>2026-04-05T10:44:33Z</time></trkpt><trkpt lat="44.48104337066899" lon="8.701904562084309"><ele>762.0</ele><time>2026-04-05T10:44:34Z</time></trkpt><trkpt lat="44.481038529406284" lon="8.70156380682695"><ele>763.3333333333334</ele><time>2026-04-05T10:44:35Z</time></trkpt><trkpt lat="44.48104470985104" lon="8.701260054361164"><ele>764.6666666666667</ele><time>2026-04-05T10:44:36Z</time></trkpt><trkpt lat="44.4810271523571" lon="8.700962876779066"><ele>766.0</ele><time>2026-04-05T10:44:37Z</time></trkpt><trkpt lat="44.481006457764565" lon="8.700659924582347"><ele>766.0</ele><time>2026-04-05T10:44:38Z</time></trkpt><trkpt lat="44.48094263854748" lon="8.700413322960951"><ele>766.0</ele><time>2026-04-05T10:44:39Z</time></trkpt><trkpt lat="44.48087471315726" lon="8.700208870177844"><ele>766.0</ele><time>2026-04-05T10:44:40Z</time></trkpt><trkpt lat="44.480840390088346" lon="8.700037569075079"><ele>767.0</ele><time>2026-04-05T10:44:41Z</time></trkpt><trkpt lat="44.48087048822104" lon="8.699860275241136"><ele>768.0</ele><time>2026-04-05T10:44:42Z</time></trkpt><trkpt lat="44.480946351473946" lon="8.699645988268953"><ele>769.0</ele><time>2026-04-05T10:44:43Z</time></trkpt><trkpt lat="44.480962805341385" lon="8.699479160841044"><ele>770.0</ele><time>2026-04-05T10:44:44Z</time></trkpt><trkpt lat="44.4809770272465" lon="8.699311745730283"><ele>772.75</ele><time>2026-04-05T10:44:45Z</time></trkpt><trkpt lat="44.48093243313635" lon="8.699126488769355"><ele>775.5</ele><time>2026-04-05T10:44:46Z</time></trkpt><trkpt lat="44.4808449619079" lon="8.698965257562337"><ele>778.25</ele><time>2026-04-05T10:44:47Z</time></trkpt><trkpt lat="44.48073073622985" lon="8.69882694134169"><ele>781.0</ele><time>2026-04-05T10:44:48Z</time></trkpt><trkpt lat="44.48060726539409" lon="8.69871727071114"><ele>781.0</ele><time>2026-04-05T10:44:49Z</time></trkpt><trkpt lat="44.480506090697986" lon="8.698609825518762"><ele>781.0</ele><time>2026-04-05T10:44:50Z</time></trkpt><trkpt lat="44.480453812760246" lon="8.698477634441454"><ele>781.0</ele><time>2026-04-05T10:44:51Z</time></trkpt><trkpt lat="44.48044678044249" lon="8.698324800820325"><ele>781.0</ele><time>2026-04-05T10:44:52Z</time></trkpt><trkpt lat="44.48048363549504" lon="8.698138852000564"><ele>786.0</ele><time>2026-04-05T10:44:53Z</time></trkpt><trkpt lat="44.48058291187983" lon="8.697993453840878"><ele>791.0</ele><time>2026-04-05T10:44:54Z</time></trkpt><trkpt lat="44.48068535976489" lon="8.697798206892173"><ele>796.0</ele><time>2026-04-05T10:44:55Z</time></trkpt><trkpt lat="44.480775014143006" lon="8.69760392677648"><ele>796.75</ele><time>2026-04-05T10:44:56Z</time></trkpt><trkpt lat="44.4808445149237" lon="8.697472233181573"><ele>797.5</ele><time>2026-04-05T10:44:57Z</time></trkpt><trkpt lat="44.48089043731655" lon="8.697328741943371"><ele>798.25</ele><time>2026-04-05T10:44:58Z</time></trkpt><trkpt lat="44.4808976078476" lon="8.697150227846151"><ele>799.0</ele><time>2026-04-05T10:44:59Z</time></trkpt><trkpt lat="44.480872811082506" lon="8.696932141154802"><ele>799.25</ele><time>2026-04-05T10:45:00Z</time></trkpt><trkpt lat="44.48084412444115" lon="8.696744833350888"><ele>799.5</ele><time>2026-04-05T10:45:01Z</time></trkpt><trkpt lat="44.48084031272792" lon="8.696552303279825"><ele>799.75</ele><time>2026-04-05T10:45:02Z</time></trkpt><trkpt lat="44.48088919281997" lon="8.696351818640942"><ele>800.0</ele><time>2026-04-05T10:45:03Z</time></trkpt><trkpt lat="44.480974062367814" lon="8.696149505832619"><ele>796.6666666666667</ele><time>2026-04-05T10:45:04Z</time></trkpt><trkpt lat="44.48106556843992" lon="8.695956045164005"><ele>793.3333333333333</ele><time>2026-04-05T10:45:05Z</time></trkpt><trkpt lat="44.481180594819996" lon="8.695780161273692"><ele>790.0</ele><time>2026-04-05T10:45:06Z</time></trkpt><trkpt lat="44.481330140283035" lon="8.695589816666342"><ele>796.0</ele><time>2026-04-05T10:45:07Z</time></trkpt><trkpt lat="44.48151603574826" lon="8.69538178498933"><ele>802.0</ele><time>2026-04-05T10:45:08Z</time></trkpt><trkpt lat="44.48171222471275" lon="8.695180762735395"><ele>802.0</ele><time>2026-04-05T10:45:09Z</time></trkpt><trkpt lat="44.48192093685386" lon="8.694996210986242"><ele>802.0</ele><time>2026-04-05T10:45:10Z</time></trkpt><trkpt lat="44.48213065112483" lon="8.694804257987853"><ele>808.3333333333333</ele><time>2026-04-05T10:45:11Z</time></trkpt><trkpt lat="44.4823055224006" lon="8.694628889337947"><ele>814.6666666666667</ele><time>2026-04-05T10:45:12Z</time></trkpt><trkpt lat="44.48244888916794" lon="8.694473706373172"><ele>821.0</ele><time>2026-04-05T10:45:13Z</time></trkpt><trkpt lat="44.48257734581483" lon="8.694341381838811"><ele>821.0</ele><time>2026-04-05T10:45:14Z</time></trkpt><trkpt lat="44.48268024466181" lon="8.694239564833019"><ele>821.0</ele><time>2026-04-05T10:45:15Z</time></trkpt><trkpt lat="44.482753962974066" lon="8.694153709117938"><ele>821.0</ele><time>2026-04-05T10:45:16Z</time></trkpt><trkpt lat="44.48280057743979" lon="8.694058206318024"><ele>821.0</ele><time>2026-04-05T10:45:17Z</time></trkpt><trkpt lat="44.48282442920574" lon="8.693922583169481"><ele>821.0</ele><time>2026-04-05T10:45:18Z</time></trkpt><trkpt lat="44.48280485707994" lon="8.693771832677902"><ele>821.0</ele><time>2026-04-05T10:45:19Z</time></trkpt><trkpt lat="44.48275168419594" lon="8.69361585316599"><ele>821.0</ele><time>2026-04-05T10:45:20Z</time></trkpt><trkpt lat="44.48266134512394" lon="8.693479952258865"><ele>821.0</ele><time>2026-04-05T10:45:21Z</time></trkpt><trkpt lat="44.48253862952085" lon="8.693319044235535"><ele>821.0</ele><time>2026-04-05T10:45:22Z</time></trkpt><trkpt lat="44.48238497715248" lon="8.693119408769313"><ele>818.0</ele><time>2026-04-05T10:45:23Z</time></trkpt><trkpt lat="44.482248677456845" lon="8.692954179790005"><ele>815.0</ele><time>2026-04-05T10:45:24Z</time></trkpt><trkpt lat="44.4821468262068" lon="8.6928035089103"><ele>812.0</ele><time>2026-04-05T10:45:25Z</time></trkpt><trkpt lat="44.48205520405653" lon="8.692610014565096"><ele>812.0</ele><time>2026-04-05T10:45:26Z</time></trkpt><trkpt lat="44.48198048103434" lon="8.692330137431469"><ele>812.0</ele><time>2026-04-05T10:45:27Z</time></trkpt><trkpt lat="44.48188269933828" lon="8.69201637498647"><ele>818.0</ele><time>2026-04-05T10:45:28Z</time></trkpt><trkpt lat="44.48180902974482" lon="8.691716773696976"><ele>824.0</ele><time>2026-04-05T10:45:29Z</time></trkpt><trkpt lat="44.48173365899" lon="8.69149199648531"><ele>830.0</ele><time>2026-04-05T10:45:30Z</time></trkpt><trkpt lat="44.481657609114116" lon="8.691324981006183"><ele>830.0</ele><time>2026-04-05T10:45:30.999Z</time></trkpt><trkpt lat="44.48161637254802" lon="8.69117016952824"><ele>830.0</ele><time>2026-04-05T10:45:31.999Z</time></trkpt><trkpt lat="44.48160399565578" lon="8.6909929215643"><ele>830.0</ele><time>2026-04-05T10:45:32.999Z</time></trkpt><trkpt lat="44.48161142312675" lon="8.690782864391478"><ele>830.0</ele><time>2026-04-05T10:45:33.999Z</time></trkpt><trkpt lat="44.48166888849318" lon="8.69057440510487"><ele>829.6666666666667</ele><time>2026-04-05T10:45:34.999Z</time></trkpt><trkpt lat="44.48175375421644" lon="8.690396594772626"><ele>829.3333333333333</ele><time>2026-04-05T10:45:35.999Z</time></trkpt><trkpt lat="44.48186911916177" lon="8.690244428059335"><ele>829.0</ele><time>2026-04-05T10:45:36.999Z</time></trkpt><trkpt lat="44.48202127980811" lon="8.690092344699146"><ele>844.0</ele><time>2026-04-05T10:45:37.999Z</time></trkpt><trkpt lat="44.482183858385596" lon="8.689929236854805"><ele>859.0</ele><time>2026-04-05T10:45:38.999Z</time></trkpt><trkpt lat="44.4823073738864" lon="8.689795367569351"><ele>874.0</ele><time>2026-04-05T10:45:39.999Z</time></trkpt><trkpt lat="44.4823778038953" lon="8.689664080948551"><ele>874.0</ele><time>2026-04-05T10:45:40.999Z</time></trkpt><trkpt lat="44.482443325248084" lon="8.689507857346344"><ele>874.0</ele><time>2026-04-05T10:45:41.999Z</time></trkpt><trkpt lat="44.4824888807081" lon="8.689261440491617"><ele>874.0</ele><time>2026-04-05T10:45:42.999Z</time></trkpt><trkpt lat="44.482526139731306" lon="8.689016452064607"><ele>870.75</ele><time>2026-04-05T10:45:43.999Z</time></trkpt><trkpt lat="44.48257176271936" lon="8.68882418323028"><ele>867.5</ele><time>2026-04-05T10:45:44.999Z</time></trkpt><trkpt lat="44.482623492474616" lon="8.688676793677535"><ele>864.25</ele><time>2026-04-05T10:45:45.999Z</time></trkpt><trkpt lat="44.482715573633186" lon="8.688550375443757"><ele>861.0</ele><time>2026-04-05T10:45:46.999Z</time></trkpt><trkpt lat="44.482770915217266" lon="8.688418036785382"><ele>861.75</ele><time>2026-04-05T10:45:47.999Z</time></trkpt><trkpt lat="44.48279407306755" lon="8.688259430325306"><ele>862.5</ele><time>2026-04-05T10:45:48.999Z</time></trkpt><trkpt lat="44.48278068799241" lon="8.688088461396756"><ele>863.25</ele><time>2026-04-05T10:45:49.999Z</time></trkpt><trkpt lat="44.48272811041369" lon="8.68791171991082"><ele>864.0</ele><time>2026-04-05T10:45:50.999Z</time></trkpt><trkpt lat="44.48264708892787" lon="8.687725281071172"><ele>864.0</ele><time>2026-04-05T10:45:51.999Z</time></trkpt><trkpt lat="44.48255541785453" lon="8.687524922706093"><ele>864.0</ele><time>2026-04-05T10:45:52.999Z</time></trkpt><trkpt lat="44.48248615117243" lon="8.687359847140744"><ele>864.0</ele><time>2026-04-05T10:45:53.999Z</time></trkpt><trkpt lat="44.48247513837018" lon="8.687181613697716"><ele>864.0</ele><time>2026-04-05T10:45:54.999Z</time></trkpt><trkpt lat="44.48249234882898" lon="8.686993347582904"><ele>860.6666666666667</ele><time>2026-04-05T10:45:55.999Z</time></trkpt><trkpt lat="44.48254493409799" lon="8.686805016047686"><ele>857.3333333333334</ele><time>2026-04-05T10:45:56.999Z</time></trkpt><trkpt lat="44.48263822610399" lon="8.686627656861045"><ele>854.0</ele><time>2026-04-05T10:45:57.999Z</time></trkpt><trkpt lat="44.48276512379056" lon="8.686396261250314"><ele>854.0</ele><time>2026-04-05T10:45:58.999Z</time></trkpt><trkpt lat="44.482862796731816" lon="8.68621397355063"><ele>854.0</ele><time>2026-04-05T10:45:59.999Z</time></trkpt><trkpt lat="44.48291022598079" lon="8.686045741072581"><ele>854.0</ele><time>2026-04-05T10:46:00.999Z</time></trkpt><trkpt lat="44.48295035194608" lon="8.685919581087022"><ele>854.0</ele><time>2026-04-05T10:46:01.999Z</time></trkpt><trkpt lat="44.48294703248893" lon="8.68573687911548"><ele>852.5</ele><time>2026-04-05T10:46:02.999Z</time></trkpt><trkpt lat="44.48291724049814" lon="8.685559880651576"><ele>851.0</ele><time>2026-04-05T10:46:03.999Z</time></trkpt><trkpt lat="44.48282951891163" lon="8.685410080547006"><ele>849.5</ele><time>2026-04-05T10:46:04.999Z</time></trkpt><trkpt lat="44.48273156025972" lon="8.685240019469905"><ele>848.0</ele><time>2026-04-05T10:46:05.999Z</time></trkpt><trkpt lat="44.48258724878664" lon="8.68505327307942"><ele>861.5</ele><time>2026-04-05T10:46:06.999Z</time></trkpt><trkpt lat="44.48241334885591" lon="8.684829773745419"><ele>875.0</ele><time>2026-04-05T10:46:07.999Z</time></trkpt><trkpt lat="44.48224193031123" lon="8.684586905468604"><ele>875.3333333333334</ele><time>2026-04-05T10:46:08.999Z</time></trkpt><trkpt lat="44.48210254400685" lon="8.684400483880642"><ele>875.6666666666667</ele><time>2026-04-05T10:46:09.999Z</time></trkpt><trkpt lat="44.481996933712416" lon="8.684234433208516"><ele>876.0</ele><time>2026-04-05T10:46:10.999Z</time></trkpt><trkpt lat="44.481886344880685" lon="8.68401635155752"><ele>876.0</ele><time>2026-04-05T10:46:11.999Z</time></trkpt><trkpt lat="44.4817930719372" lon="8.68374798826585"><ele>876.0</ele><time>2026-04-05T10:46:12.999Z</time></trkpt><trkpt lat="44.481703350568786" lon="8.683491512712319"><ele>876.0</ele><time>2026-04-05T10:46:13.999Z</time></trkpt><trkpt lat="44.481652790119966" lon="8.683271002671836"><ele>876.0</ele><time>2026-04-05T10:46:14.999Z</time></trkpt><trkpt lat="44.481648250085016" lon="8.683049981602315"><ele>876.0</ele><time>2026-04-05T10:46:15.999Z</time></trkpt><trkpt lat="44.48170143023608" lon="8.682823657042993"><ele>876.0</ele><time>2026-04-05T10:46:16.999Z</time></trkpt><trkpt lat="44.48171860596592" lon="8.682589578258368"><ele>877.6666666666667</ele><time>2026-04-05T10:46:17.999Z</time></trkpt><trkpt lat="44.48170384017936" lon="8.682353446245761"><ele>879.3333333333334</ele><time>2026-04-05T10:46:19Z</time></trkpt><trkpt lat="44.48164691310137" lon="8.682107016014143"><ele>881.0</ele><time>2026-04-05T10:46:20Z</time></trkpt><trkpt lat="44.48159561481426" lon="8.68181035104471"><ele>886.0</ele><time>2026-04-05T10:46:21Z</time></trkpt><trkpt lat="44.48153320678045" lon="8.68153696565299"><ele>891.0</ele><time>2026-04-05T10:46:22Z</time></trkpt><trkpt lat="44.48148525428866" lon="8.681284353225216"><ele>896.0</ele><time>2026-04-05T10:46:23Z</time></trkpt><trkpt lat="44.481443424596264" lon="8.68106511560923"><ele>894.75</ele><time>2026-04-05T10:46:24Z</time></trkpt><trkpt lat="44.481381645639736" lon="8.680872758423844"><ele>893.5</ele><time>2026-04-05T10:46:25Z</time></trkpt><trkpt lat="44.481299974477125" lon="8.680720700966198"><ele>892.25</ele><time>2026-04-05T10:46:26Z</time></trkpt><trkpt lat="44.48119830941998" lon="8.68059548667299"><ele>891.0</ele><time>2026-04-05T10:46:27Z</time></trkpt><trkpt lat="44.48105816066519" lon="8.680500598575579"><ele>891.0</ele><time>2026-04-05T10:46:28Z</time></trkpt><trkpt lat="44.480926511502425" lon="8.680425462314666"><ele>891.0</ele><time>2026-04-05T10:46:29Z</time></trkpt><trkpt lat="44.480802179042236" lon="8.680385696252497"><ele>891.0</ele><time>2026-04-05T10:46:30Z</time></trkpt><trkpt lat="44.48070203014352" lon="8.680282310778031"><ele>891.0</ele><time>2026-04-05T10:46:31Z</time></trkpt><trkpt lat="44.480622537358194" lon="8.680131183135712"><ele>900.6666666666667</ele><time>2026-04-05T10:46:32Z</time></trkpt><trkpt lat="44.48058184947539" lon="8.679922998213712"><ele>910.3333333333334</ele><time>2026-04-05T10:46:33Z</time></trkpt><trkpt lat="44.48059490949086" lon="8.679681270494987"><ele>920.0</ele><time>2026-04-05T10:46:34Z</time></trkpt><trkpt lat="44.48059234335907" lon="8.679417976124428"><ele>926.0</ele><time>2026-04-05T10:46:35Z</time></trkpt><trkpt lat="44.48059333414488" lon="8.679203841063822"><ele>932.0</ele><time>2026-04-05T10:46:36Z</time></trkpt><trkpt lat="44.480542808072364" lon="8.67901874088052"><ele>938.0</ele><time>2026-04-05T10:46:37Z</time></trkpt><trkpt lat="44.48043002624199" lon="8.67884395010337"><ele>933.3333333333334</ele><time>2026-04-05T10:46:38Z</time></trkpt><trkpt lat="44.48031087467108" lon="8.678624531952034"><ele>928.6666666666667</ele><time>2026-04-05T10:46:39Z</time></trkpt><trkpt lat="44.48015791522316" lon="8.678404958469754"><ele>924.0</ele><time>2026-04-05T10:46:40Z</time></trkpt><trkpt lat="44.47996337993668" lon="8.678243080178806"><ele>924.0</ele><time>2026-04-05T10:46:41Z</time></trkpt><trkpt lat="44.47980187942233" lon="8.678099035718258"><ele>924.0</ele><time>2026-04-05T10:46:42Z</time></trkpt><trkpt lat="44.47964609479655" lon="8.678018249566563"><ele>924.0</ele><time>2026-04-05T10:46:43Z</time></trkpt><trkpt lat="44.479519713801366" lon="8.677939491935234"><ele>921.75</ele><time>2026-04-05T10:46:44Z</time></trkpt><trkpt lat="44.479441590055615" lon="8.677851227983165"><ele>919.5</ele><time>2026-04-05T10:46:45Z</time></trkpt><trkpt lat="44.47942374525573" lon="8.677702451625109"><ele>917.25</ele><time>2026-04-05T10:46:46Z</time></trkpt><trkpt lat="44.47938246267036" lon="8.67750925517575"><ele>915.0</ele><time>2026-04-05T10:46:47Z</time></trkpt><trkpt lat="44.47937636818709" lon="8.677304871244413"><ele>915.0</ele><time>2026-04-05T10:46:48Z</time></trkpt><trkpt lat="44.479405968236286" lon="8.677062544342007"><ele>915.0</ele><time>2026-04-05T10:46:49Z</time></trkpt><trkpt lat="44.4794583978706" lon="8.676774484955084"><ele>915.0</ele><time>2026-04-05T10:46:50Z</time></trkpt><trkpt lat="44.479476072876516" lon="8.676476951915642"><ele>916.5</ele><time>2026-04-05T10:46:51Z</time></trkpt><trkpt lat="44.47950492875231" lon="8.676242779636334"><ele>918.0</ele><time>2026-04-05T10:46:52Z</time></trkpt><trkpt lat="44.47950931720383" lon="8.676052528844057"><ele>919.5</ele><time>2026-04-05T10:46:53Z</time></trkpt><trkpt lat="44.479467950334175" lon="8.67589033887498"><ele>921.0</ele><time>2026-04-05T10:46:54Z</time></trkpt><trkpt lat="44.47939769795448" lon="8.675718949453884"><ele>924.5</ele><time>2026-04-05T10:46:55Z</time></trkpt><trkpt lat="44.47932934168129" lon="8.675540730302814"><ele>928.0</ele><time>2026-04-05T10:46:56Z</time></trkpt><trkpt lat="44.479245698713584" lon="8.675387485892475"><ele>931.5</ele><time>2026-04-05T10:46:57Z</time></trkpt><trkpt lat="44.479222601246136" lon="8.675218456486045"><ele>935.0</ele><time>2026-04-05T10:46:58Z</time></trkpt><trkpt lat="44.47927336190842" lon="8.675062294741744"><ele>936.25</ele><time>2026-04-05T10:46:59Z</time></trkpt><trkpt lat="44.47935049172602" lon="8.674945360208905"><ele>937.5</ele><time>2026-04-05T10:47:00Z</time></trkpt><trkpt lat="44.47942310800536" lon="8.67478312025058"><ele>938.75</ele><time>2026-04-05T10:47:01Z</time></trkpt><trkpt lat="44.4794915552224" lon="8.674646528349847"><ele>940.0</ele><time>2026-04-05T10:47:02Z</time></trkpt><trkpt lat="44.479511262773194" lon="8.674499387298317"><ele>943.5</ele><time>2026-04-05T10:47:03Z</time></trkpt><trkpt lat="44.47947663766389" lon="8.674325664333917"><ele>947.0</ele><time>2026-04-05T10:47:04Z</time></trkpt><trkpt lat="44.47940230264059" lon="8.674165481787824"><ele>950.5</ele><time>2026-04-05T10:47:05Z</time></trkpt><trkpt lat="44.47929596975885" lon="8.67402902375451"><ele>954.0</ele><time>2026-04-05T10:47:06Z</time></trkpt><trkpt lat="44.47915569330536" lon="8.673891166220981"><ele>954.0</ele><time>2026-04-05T10:47:07Z</time></trkpt><trkpt lat="44.479047177554904" lon="8.67375076563397"><ele>954.0</ele><time>2026-04-05T10:47:08Z</time></trkpt><trkpt lat="44.47900065218858" lon="8.673554647292507"><ele>954.0</ele><time>2026-04-05T10:47:09Z</time></trkpt><trkpt lat="44.47898342342532" lon="8.673356420226202"><ele>954.0</ele><time>2026-04-05T10:47:10Z</time></trkpt><trkpt lat="44.47897450857129" lon="8.673145509941333"><ele>956.5</ele><time>2026-04-05T10:47:11Z</time></trkpt><trkpt lat="44.47894470906559" lon="8.672978070045616"><ele>959.0</ele><time>2026-04-05T10:47:12Z</time></trkpt><trkpt lat="44.47887410176834" lon="8.67281504117693"><ele>961.5</ele><time>2026-04-05T10:47:13Z</time></trkpt><trkpt lat="44.47875124033405" lon="8.67266422355485"><ele>964.0</ele><time>2026-04-05T10:47:14Z</time></trkpt><trkpt lat="44.47859062141428" lon="8.672482683782816"><ele>964.0</ele><time>2026-04-05T10:47:15Z</time></trkpt><trkpt lat="44.47839596373672" lon="8.672293961283923"><ele>964.0</ele><time>2026-04-05T10:47:16Z</time></trkpt><trkpt lat="44.47820695398061" lon="8.672152238014675"><ele>964.0</ele><time>2026-04-05T10:47:17Z</time></trkpt><trkpt lat="44.478018569595214" lon="8.672054477486919"><ele>964.0</ele><time>2026-04-05T10:47:18Z</time></trkpt><trkpt lat="44.47781620744689" lon="8.671986116123188"><ele>964.0</ele><time>2026-04-05T10:47:19Z</time></trkpt><trkpt lat="44.477633720170324" lon="8.671925873460527"><ele>970.25</ele><time>2026-04-05T10:47:20Z</time></trkpt><trkpt lat="44.47745783770404" lon="8.671857584043106"><ele>976.5</ele><time>2026-04-05T10:47:21Z</time></trkpt><trkpt lat="44.47738792556088" lon="8.671815966367136"><ele>982.75</ele><time>2026-04-05T10:47:22Z</time></trkpt><trkpt lat="44.4772972387933" lon="8.671699363712206"><ele>989.0</ele><time>2026-04-05T10:47:23Z</time></trkpt><trkpt lat="44.47720335787851" lon="8.67158506824952"><ele>986.25</ele><time>2026-04-05T10:47:24Z</time></trkpt><trkpt lat="44.47708858337203" lon="8.67153065251593"><ele>983.5</ele><time>2026-04-05T10:47:25Z</time></trkpt><trkpt lat="44.476947155545815" lon="8.671546341074448"><ele>980.75</ele><time>2026-04-05T10:47:26Z</time></trkpt><trkpt lat="44.47677978696559" lon="8.671579723532364"><ele>978.0</ele><time>2026-04-05T10:47:27Z</time></trkpt><trkpt lat="44.47661928710817" lon="8.671648507849158"><ele>978.0</ele><time>2026-04-05T10:47:28Z</time></trkpt><trkpt lat="44.476475181999135" lon="8.671621929323912"><ele>978.0</ele><time>2026-04-05T10:47:29Z</time></trkpt><trkpt lat="44.47630619531354" lon="8.67156413193082"><ele>978.0</ele><time>2026-04-05T10:47:30Z</time></trkpt><trkpt lat="44.47612119189511" lon="8.67150640342621"><ele>981.5</ele><time>2026-04-05T10:47:31Z</time></trkpt><trkpt lat="44.47598024034449" lon="8.671437056044516"><ele>985.0</ele><time>2026-04-05T10:47:32Z</time></trkpt><trkpt lat="44.475869082246504" lon="8.67136657647028"><ele>988.5</ele><time>2026-04-05T10:47:33Z</time></trkpt><trkpt lat="44.47577943862275" lon="8.67125245806006"><ele>992.0</ele><time>2026-04-05T10:47:34Z</time></trkpt><trkpt lat="44.47568626989188" lon="8.671088482999293"><ele>992.0</ele><time>2026-04-05T10:47:35Z</time></trkpt><trkpt lat="44.475601862360804" lon="8.67087541383108"><ele>992.0</ele><time>2026-04-05T10:47:35.999Z</time></trkpt><trkpt lat="44.47551888870163" lon="8.670667995382127"><ele>992.0</ele><time>2026-04-05T10:47:36.999Z</time></trkpt><trkpt lat="44.475449826378814" lon="8.670480613936974"><ele>985.25</ele><time>2026-04-05T10:47:37.999Z</time></trkpt><trkpt lat="44.47537522972994" lon="8.670299124905627"><ele>978.5</ele><time>2026-04-05T10:47:38.999Z</time></trkpt><trkpt lat="44.47529095776401" lon="8.670109143906824"><ele>971.75</ele><time>2026-04-05T10:47:39.999Z</time></trkpt><trkpt lat="44.475225740257855" lon="8.66995782818329"><ele>965.0</ele><time>2026-04-05T10:47:40.999Z</time></trkpt><trkpt lat="44.475176055540736" lon="8.669834329298777"><ele>965.0</ele><time>2026-04-05T10:47:41.999Z</time></trkpt><trkpt lat="44.47514399772973" lon="8.669719495131654"><ele>965.0</ele><time>2026-04-05T10:47:42.999Z</time></trkpt><trkpt lat="44.4751373051538" lon="8.669591512578867"><ele>965.0</ele><time>2026-04-05T10:47:43.999Z</time></trkpt><trkpt lat="44.47515126574597" lon="8.669431389059682"><ele>965.0</ele><time>2026-04-05T10:47:44.999Z</time></trkpt><trkpt lat="44.4751977002411" lon="8.66925817799722"><ele>965.0</ele><time>2026-04-05T10:47:45.999Z</time></trkpt><trkpt lat="44.475282580081284" lon="8.669086709881423"><ele>965.3333333333334</ele><time>2026-04-05T10:47:46.999Z</time></trkpt><trkpt lat="44.475399812151565" lon="8.668974721793768"><ele>965.6666666666667</ele><time>2026-04-05T10:47:47.999Z</time></trkpt><trkpt lat="44.47552078000771" lon="8.668838144611371"><ele>966.0</ele><time>2026-04-05T10:47:48.999Z</time></trkpt><trkpt lat="44.47564632295002" lon="8.668679640189046"><ele>965.6666666666667</ele><time>2026-04-05T10:47:49.999Z</time></trkpt><trkpt lat="44.47578193967595" lon="8.668535588102074"><ele>965.3333333333334</ele><time>2026-04-05T10:47:50.999Z</time></trkpt><trkpt lat="44.47589520130435" lon="8.668398865089257"><ele>965.0</ele><time>2026-04-05T10:47:51.999Z</time></trkpt><trkpt lat="44.47600836820716" lon="8.668264365211593"><ele>965.0</ele><time>2026-04-05T10:47:52.999Z</time></trkpt><trkpt lat="44.47611617412288" lon="8.66814456580185"><ele>965.0</ele><time>2026-04-05T10:47:53.999Z</time></trkpt><trkpt lat="44.47621580704875" lon="8.668029967473787"><ele>965.0</ele><time>2026-04-05T10:47:54.999Z</time></trkpt><trkpt lat="44.476301338553306" lon="8.667942363160405"><ele>965.0</ele><time>2026-04-05T10:47:55.999Z</time></trkpt><trkpt lat="44.47638486101897" lon="8.667831854098997"><ele>964.1666666666667</ele><time>2026-04-05T10:47:56.999Z</time></trkpt><trkpt lat="44.47643926318761" lon="8.667738831476289"><ele>963.3333333333334</ele><time>2026-04-05T10:47:57.999Z</time></trkpt><trkpt lat="44.47648089805123" lon="8.667666879713996"><ele>962.5</ele><time>2026-04-05T10:47:58.999Z</time></trkpt><trkpt lat="44.47645646816996" lon="8.6675662186013"><ele>961.6666666666667</ele><time>2026-04-05T10:47:59.999Z</time></trkpt><trkpt lat="44.47639804482152" lon="8.667463223695007"><ele>960.8333333333334</ele><time>2026-04-05T10:48:00.999Z</time></trkpt><trkpt lat="44.47633119965495" lon="8.667412700530791"><ele>960.0</ele><time>2026-04-05T10:48:01.999Z</time></trkpt><trkpt lat="44.47624501103364" lon="8.66741749261714"><ele>961.25</ele><time>2026-04-05T10:48:02.999Z</time></trkpt><trkpt lat="44.476149933088394" lon="8.667471242758735"><ele>962.5</ele><time>2026-04-05T10:48:03.999Z</time></trkpt><trkpt lat="44.476050846547224" lon="8.667595953010593"><ele>963.75</ele><time>2026-04-05T10:48:04.999Z</time></trkpt><trkpt lat="44.47592302590039" lon="8.667743655053563"><ele>965.0</ele><time>2026-04-05T10:48:05.999Z</time></trkpt><trkpt lat="44.47580416496119" lon="8.667907403357315"><ele>965.0</ele><time>2026-04-05T10:48:06.999Z</time></trkpt><trkpt lat="44.4756822824841" lon="8.668020202884223"><ele>965.0</ele><time>2026-04-05T10:48:07.999Z</time></trkpt><trkpt lat="44.47555549156387" lon="8.668126053106358"><ele>965.0</ele><time>2026-04-05T10:48:08.999Z</time></trkpt><trkpt lat="44.4754199857637" lon="8.668203250549972"><ele>965.0</ele><time>2026-04-05T10:48:09.999Z</time></trkpt><trkpt lat="44.47527564636755" lon="8.66825343374354"><ele>961.75</ele><time>2026-04-05T10:48:10.999Z</time></trkpt><trkpt lat="44.47512554057724" lon="8.66827263240257"><ele>958.5</ele><time>2026-04-05T10:48:11.999Z</time></trkpt><trkpt lat="44.474978116420964" lon="8.668258492131628"><ele>955.25</ele><time>2026-04-05T10:48:12.999Z</time></trkpt><trkpt lat="44.47483765163783" lon="8.66823593857098"><ele>952.0</ele><time>2026-04-05T10:48:13.999Z</time></trkpt><trkpt lat="44.474713497117165" lon="8.668189491193017"><ele>950.5</ele><time>2026-04-05T10:48:14.999Z</time></trkpt><trkpt lat="44.474584966664686" lon="8.668117369666556"><ele>949.0</ele><time>2026-04-05T10:48:15.999Z</time></trkpt><trkpt lat="44.47447378229356" lon="8.66804859740858"><ele>947.5</ele><time>2026-04-05T10:48:16.999Z</time></trkpt><trkpt lat="44.47436411927751" lon="8.668003299250152"><ele>946.0</ele><time>2026-04-05T10:48:17.999Z</time></trkpt><trkpt lat="44.47424674724044" lon="8.66799533313349"><ele>946.0</ele><time>2026-04-05T10:48:18.999Z</time></trkpt><trkpt lat="44.474138527694514" lon="8.668062895764248"><ele>946.0</ele><time>2026-04-05T10:48:19.999Z</time></trkpt><trkpt lat="44.47405432062829" lon="8.668159254992538"><ele>946.0</ele><time>2026-04-05T10:48:20.999Z</time></trkpt><trkpt lat="44.47395737628862" lon="8.668294196440721"><ele>946.0</ele><time>2026-04-05T10:48:21.999Z</time></trkpt><trkpt lat="44.473851110665834" lon="8.668523906269776"><ele>942.0</ele><time>2026-04-05T10:48:22.999Z</time></trkpt><trkpt lat="44.47376200010314" lon="8.668754825191378"><ele>938.0</ele><time>2026-04-05T10:48:23.999Z</time></trkpt><trkpt lat="44.47366240552963" lon="8.668926930994113"><ele>934.0</ele><time>2026-04-05T10:48:25Z</time></trkpt><trkpt lat="44.47351575524236" lon="8.66909262713059"><ele>934.0</ele><time>2026-04-05T10:48:26Z</time></trkpt><trkpt lat="44.47334848653142" lon="8.669221072841266"><ele>934.0</ele><time>2026-04-05T10:48:27Z</time></trkpt><trkpt lat="44.47318142823477" lon="8.66931705697566"><ele>934.0</ele><time>2026-04-05T10:48:28Z</time></trkpt><trkpt lat="44.4730152169606" lon="8.669378177427268"><ele>934.3333333333333</ele><time>2026-04-05T10:48:29Z</time></trkpt><trkpt lat="44.472827178980054" lon="8.669408767972817"><ele>934.6666666666667</ele><time>2026-04-05T10:48:30Z</time></trkpt><trkpt lat="44.47258025301115" lon="8.669414365334267"><ele>935.0</ele><time>2026-04-05T10:48:31Z</time></trkpt><trkpt lat="44.4723149430204" lon="8.669393854402685"><ele>937.0</ele><time>2026-04-05T10:48:32Z</time></trkpt><trkpt lat="44.47204414911328" lon="8.669365335313955"><ele>939.0</ele><time>2026-04-05T10:48:33Z</time></trkpt><trkpt lat="44.47174564435442" lon="8.66934667698847"><ele>939.0</ele><time>2026-04-05T10:48:34Z</time></trkpt><trkpt lat="44.471456416927104" lon="8.66933115729898"><ele>939.0</ele><time>2026-04-05T10:48:35Z</time></trkpt><trkpt lat="44.471206046382484" lon="8.66931748128541"><ele>936.5</ele><time>2026-04-05T10:48:36Z</time></trkpt><trkpt lat="44.47096335970178" lon="8.669316200332664"><ele>934.0</ele><time>2026-04-05T10:48:37Z</time></trkpt><trkpt lat="44.47075325135116" lon="8.669302380952088"><ele>934.0</ele><time>2026-04-05T10:48:38Z</time></trkpt><trkpt lat="44.470521900005814" lon="8.669288019571361"><ele>934.0</ele><time>2026-04-05T10:48:39Z</time></trkpt><trkpt lat="44.47035536502707" lon="8.669294754293052"><ele>934.0</ele><time>2026-04-05T10:48:40Z</time></trkpt><trkpt lat="44.470192527287615" lon="8.669292085585502"><ele>935.6666666666666</ele><time>2026-04-05T10:48:41Z</time></trkpt><trkpt lat="44.470036015671134" lon="8.669292037776332"><ele>937.3333333333333</ele><time>2026-04-05T10:48:42Z</time></trkpt><trkpt lat="44.469883961878836" lon="8.669354717329282"><ele>939.0</ele><time>2026-04-05T10:48:43Z</time></trkpt><trkpt lat="44.46974437723265" lon="8.66949579374479"><ele>943.0</ele><time>2026-04-05T10:48:44Z</time></trkpt><trkpt lat="44.46958849460042" lon="8.669640319559571"><ele>947.0</ele><time>2026-04-05T10:48:45Z</time></trkpt><trkpt lat="44.469456066804156" lon="8.66977117245631"><ele>951.0</ele><time>2026-04-05T10:48:46Z</time></trkpt><trkpt lat="44.46930459758227" lon="8.669904759108325"><ele>951.0</ele><time>2026-04-05T10:48:47Z</time></trkpt><trkpt lat="44.46911812523209" lon="8.670035350978337"><ele>951.0</ele><time>2026-04-05T10:48:48Z</time></trkpt><trkpt lat="44.46887764693476" lon="8.670153964263216"><ele>946.5</ele><time>2026-04-05T10:48:49Z</time></trkpt><trkpt lat="44.46861045244609" lon="8.67028043301334"><ele>942.0</ele><time>2026-04-05T10:48:50Z</time></trkpt><trkpt lat="44.46832657543655" lon="8.670416414152347"><ele>942.0</ele><time>2026-04-05T10:48:51Z</time></trkpt><trkpt lat="44.46808772454067" lon="8.670530827064024"><ele>942.0</ele><time>2026-04-05T10:48:52Z</time></trkpt><trkpt lat="44.46787483870347" lon="8.670633187689578"><ele>948.6666666666667</ele><time>2026-04-05T10:48:53Z</time></trkpt><trkpt lat="44.467697529532025" lon="8.670738507212684"><ele>955.3333333333334</ele><time>2026-04-05T10:48:54Z</time></trkpt><trkpt lat="44.46753091772138" lon="8.670820798549082"><ele>962.0</ele><time>2026-04-05T10:48:55Z</time></trkpt><trkpt lat="44.46737961563622" lon="8.67089105512246"><ele>962.0</ele><time>2026-04-05T10:48:56Z</time></trkpt><trkpt lat="44.46724152971386" lon="8.670959385046812"><ele>962.0</ele><time>2026-04-05T10:48:57Z</time></trkpt><trkpt lat="44.46711712343507" lon="8.671000221332669"><ele>962.0</ele><time>2026-04-05T10:48:58Z</time></trkpt><trkpt lat="44.46697826241847" lon="8.671019651074012"><ele>962.0</ele><time>2026-04-05T10:48:59Z</time></trkpt><trkpt lat="44.46684154471561" lon="8.670942010765241"><ele>962.25</ele><time>2026-04-05T10:49:00Z</time></trkpt><trkpt lat="44.466733402757264" lon="8.6708697811653"><ele>962.5</ele><time>2026-04-05T10:49:01Z</time></trkpt><trkpt lat="44.4666876927927" lon="8.670740875822865"><ele>962.75</ele><time>2026-04-05T10:49:02Z</time></trkpt><trkpt lat="44.46664274405301" lon="8.670580936487667"><ele>963.0</ele><time>2026-04-05T10:49:03Z</time></trkpt><trkpt lat="44.466649567004254" lon="8.67041564183607"><ele>967.3333333333333</ele><time>2026-04-05T10:49:04Z</time></trkpt><trkpt lat="44.46672687571759" lon="8.670259888392454"><ele>971.6666666666666</ele><time>2026-04-05T10:49:05Z</time></trkpt><trkpt lat="44.466804995226425" lon="8.67004976037954"><ele>976.0</ele><time>2026-04-05T10:49:06Z</time></trkpt><trkpt lat="44.46692352795678" lon="8.669795545742298"><ele>976.0</ele><time>2026-04-05T10:49:07Z</time></trkpt><trkpt lat="44.467064351412446" lon="8.669494109050959"><ele>976.0</ele><time>2026-04-05T10:49:08Z</time></trkpt><trkpt lat="44.46721362339113" lon="8.669175334796114"><ele>979.5</ele><time>2026-04-05T10:49:09Z</time></trkpt><trkpt lat="44.467343325929626" lon="8.668898351022387"><ele>983.0</ele><time>2026-04-05T10:49:10Z</time></trkpt><trkpt lat="44.46749149808069" lon="8.668603807131017"><ele>987.0</ele><time>2026-04-05T10:49:11Z</time></trkpt><trkpt lat="44.46760073286598" lon="8.66827597754917"><ele>991.0</ele><time>2026-04-05T10:49:12Z</time></trkpt><trkpt lat="44.46768716393216" lon="8.667948421406459"><ele>995.3333333333333</ele><time>2026-04-05T10:49:13Z</time></trkpt><trkpt lat="44.46775216608498" lon="8.66768822555861"><ele>999.6666666666667</ele><time>2026-04-05T10:49:14Z</time></trkpt><trkpt lat="44.46781746051012" lon="8.667467293144988"><ele>1004.0</ele><time>2026-04-05T10:49:15Z</time></trkpt><trkpt lat="44.467922602304654" lon="8.66719645239359"><ele>1003.5</ele><time>2026-04-05T10:49:16Z</time></trkpt><trkpt lat="44.468064085648265" lon="8.666935089952364"><ele>1003.0</ele><time>2026-04-05T10:49:17Z</time></trkpt><trkpt lat="44.468233858593884" lon="8.666662959975413"><ele>1003.0</ele><time>2026-04-05T10:49:18Z</time></trkpt><trkpt lat="44.46838302419533" lon="8.66640591585509"><ele>1003.0</ele><time>2026-04-05T10:49:19Z</time></trkpt><trkpt lat="44.4685302720165" lon="8.666211929308332"><ele>1003.0</ele><time>2026-04-05T10:49:20Z</time></trkpt><trkpt lat="44.46866962838404" lon="8.666036108223002"><ele>1003.0</ele><time>2026-04-05T10:49:21Z</time></trkpt><trkpt lat="44.46881375103854" lon="8.665886037096444"><ele>1003.0</ele><time>2026-04-05T10:49:22Z</time></trkpt><trkpt lat="44.46894636384155" lon="8.6657741610813"><ele>1003.0</ele><time>2026-04-05T10:49:23Z</time></trkpt><trkpt lat="44.469066825374924" lon="8.665687905055945"><ele>1003.0</ele><time>2026-04-05T10:49:24Z</time></trkpt><trkpt lat="44.46917830283281" lon="8.665607906268304"><ele>1003.0</ele><time>2026-04-05T10:49:25Z</time></trkpt><trkpt lat="44.46925838823745" lon="8.665498216383043"><ele>1003.0</ele><time>2026-04-05T10:49:26Z</time></trkpt><trkpt lat="44.46931123334327" lon="8.665376525628123"><ele>1003.0</ele><time>2026-04-05T10:49:27Z</time></trkpt><trkpt lat="44.46930801987059" lon="8.665218366732722"><ele>1003.8</ele><time>2026-04-05T10:49:28Z</time></trkpt><trkpt lat="44.469269152880294" lon="8.66507888363123"><ele>1004.5999999999999</ele><time>2026-04-05T10:49:29Z</time></trkpt><trkpt lat="44.46917171652279" lon="8.664980471810686"><ele>1005.4000000000001</ele><time>2026-04-05T10:49:30Z</time></trkpt><trkpt lat="44.46906531948123" lon="8.664966499359085"><ele>1006.2</ele><time>2026-04-05T10:49:31Z</time></trkpt><trkpt lat="44.46895954498585" lon="8.664986087170691"><ele>1007.0</ele><time>2026-04-05T10:49:32Z</time></trkpt><trkpt lat="44.46885058731625" lon="8.665102032731605"><ele>1009.0</ele><time>2026-04-05T10:49:33Z</time></trkpt><trkpt lat="44.46868768343643" lon="8.66523873634023"><ele>1011.0</ele><time>2026-04-05T10:49:34Z</time></trkpt><trkpt lat="44.46851682401566" lon="8.66542918844563"><ele>1013.0</ele><time>2026-04-05T10:49:35Z</time></trkpt><trkpt lat="44.468299409163" lon="8.665623406312434"><ele>1015.0</ele><time>2026-04-05T10:49:36Z</time></trkpt><trkpt lat="44.46811271133831" lon="8.665801097032892"><ele>1017.0</ele><time>2026-04-05T10:49:37Z</time></trkpt><trkpt lat="44.46792050513323" lon="8.665964795603557"><ele>1020.5</ele><time>2026-04-05T10:49:38Z</time></trkpt><trkpt lat="44.46772667342944" lon="8.666102086991224"><ele>1024.0</ele><time>2026-04-05T10:49:38.999Z</time></trkpt><trkpt lat="44.46750362607618" lon="8.666210358463838"><ele>1024.0</ele><time>2026-04-05T10:49:39.999Z</time></trkpt><trkpt lat="44.467236114516275" lon="8.66630875455737"><ele>1024.0</ele><time>2026-04-05T10:49:40.999Z</time></trkpt><trkpt lat="44.46700929085602" lon="8.6663756571609"><ele>1030.0</ele><time>2026-04-05T10:49:41.999Z</time></trkpt><trkpt lat="44.466812981439084" lon="8.66644954129445"><ele>1036.0</ele><time>2026-04-05T10:49:42.999Z</time></trkpt><trkpt lat="44.46663568671026" lon="8.666539511090418"><ele>1042.0</ele><time>2026-04-05T10:49:43.999Z</time></trkpt><trkpt lat="44.466446442567005" lon="8.666679276041524"><ele>1042.0</ele><time>2026-04-05T10:49:44.999Z</time></trkpt><trkpt lat="44.46628961448242" lon="8.666832214685138"><ele>1042.0</ele><time>2026-04-05T10:49:45.999Z</time></trkpt><trkpt lat="44.46615670031576" lon="8.666930743915197"><ele>1042.0</ele><time>2026-04-05T10:49:46.999Z</time></trkpt><trkpt lat="44.46605985970142" lon="8.66701454059718"><ele>1040.3333333333333</ele><time>2026-04-05T10:49:47.999Z</time></trkpt><trkpt lat="44.46594154022331" lon="8.667092479417487"><ele>1038.6666666666667</ele><time>2026-04-05T10:49:48.999Z</time></trkpt><trkpt lat="44.46578396391891" lon="8.667089118398959"><ele>1037.0</ele><time>2026-04-05T10:49:49.999Z</time></trkpt><trkpt lat="44.465602573635124" lon="8.66703150568767"><ele>1035.6666666666667</ele><time>2026-04-05T10:49:50.999Z</time></trkpt><trkpt lat="44.46542329623493" lon="8.666947700757841"><ele>1034.3333333333333</ele><time>2026-04-05T10:49:51.999Z</time></trkpt><trkpt lat="44.46527032645902" lon="8.666898648933469"><ele>1033.0</ele><time>2026-04-05T10:49:52.999Z</time></trkpt><trkpt lat="44.46510337094264" lon="8.666872818401364"><ele>1037.6666666666665</ele><time>2026-04-05T10:49:53.999Z</time></trkpt><trkpt lat="44.46489401586321" lon="8.666893111022798"><ele>1042.3333333333333</ele><time>2026-04-05T10:49:54.999Z</time></trkpt><trkpt lat="44.46467848369714" lon="8.666940723555086"><ele>1047.0</ele><time>2026-04-05T10:49:55.999Z</time></trkpt><trkpt lat="44.46446951851032" lon="8.667034945573839"><ele>1047.0</ele><time>2026-04-05T10:49:56.999Z</time></trkpt><trkpt lat="44.46427651762894" lon="8.66708499767847"><ele>1047.0</ele><time>2026-04-05T10:49:57.999Z</time></trkpt><trkpt lat="44.464087950685446" lon="8.66714056152619"><ele>1047.0</ele><time>2026-04-05T10:49:58.999Z</time></trkpt><trkpt lat="44.463899372625065" lon="8.667208437611"><ele>1050.0</ele><time>2026-04-05T10:49:59.999Z</time></trkpt><trkpt lat="44.46371411500073" lon="8.667271871832709"><ele>1053.0</ele><time>2026-04-05T10:50:00.999Z</time></trkpt><trkpt lat="44.46354106334854" lon="8.667348088780958"><ele>1056.0</ele><time>2026-04-05T10:50:01.999Z</time></trkpt><trkpt lat="44.46337732294411" lon="8.667404360045792"><ele>1056.0</ele><time>2026-04-05T10:50:02.999Z</time></trkpt><trkpt lat="44.46322190320802" lon="8.667458399508197"><ele>1056.0</ele><time>2026-04-05T10:50:03.999Z</time></trkpt><trkpt lat="44.46308018358892" lon="8.667490410399921"><ele>1056.0</ele><time>2026-04-05T10:50:04.999Z</time></trkpt><trkpt lat="44.46294142545398" lon="8.667530910744832"><ele>1056.0</ele><time>2026-04-05T10:50:05.999Z</time></trkpt><trkpt lat="44.462810247463175" lon="8.66756559305135"><ele>1056.5</ele><time>2026-04-05T10:50:06.999Z</time></trkpt><trkpt lat="44.462682177245874" lon="8.667601729076901"><ele>1057.0</ele><time>2026-04-05T10:50:07.999Z</time></trkpt><trkpt lat="44.462561614707035" lon="8.667636785002555"><ele>1057.5</ele><time>2026-04-05T10:50:08.999Z</time></trkpt><trkpt lat="44.46244664611662" lon="8.667665993814717"><ele>1058.0</ele><time>2026-04-05T10:50:09.999Z</time></trkpt><trkpt lat="44.4623386712101" lon="8.667674204654991"><ele>1058.0</ele><time>2026-04-05T10:50:10.999Z</time></trkpt><trkpt lat="44.46225089625535" lon="8.667685345574954"><ele>1058.0</ele><time>2026-04-05T10:50:11.999Z</time></trkpt><trkpt lat="44.46217431898924" lon="8.667690750253527"><ele>1058.0</ele><time>2026-04-05T10:50:12.999Z</time></trkpt><trkpt lat="44.46207439656392" lon="8.667706656233399"><ele>1058.0</ele><time>2026-04-05T10:50:14.999Z</time></trkpt><trkpt lat="44.46198712682954" lon="8.667718621075531"><ele>1058.0</ele><time>2026-04-05T10:50:16.999Z</time></trkpt><trkpt lat="44.46189891122378" lon="8.667691432542544"><ele>1058.0</ele><time>2026-04-05T10:50:18.999Z</time></trkpt><trkpt lat="44.46182679239529" lon="8.667637530505358"><ele>1056.8333333333335</ele><time>2026-04-05T10:50:20.999Z</time></trkpt><trkpt lat="44.461756382783456" lon="8.667582981905433"><ele>1055.6666666666667</ele><time>2026-04-05T10:50:22.999Z</time></trkpt><trkpt lat="44.461723940217546" lon="8.66750731598175"><ele>1054.5</ele><time>2026-04-05T10:50:23.999Z</time></trkpt><trkpt lat="44.461670817805114" lon="8.667438673304055"><ele>1053.3333333333333</ele><time>2026-04-05T10:50:24.999Z</time></trkpt><trkpt lat="44.46173903941831" lon="8.667554766851104"><ele>1052.1666666666665</ele><time>2026-04-05T10:52:17.999Z</time></trkpt><trkpt lat="44.46179198291603" lon="8.667623513052016"><ele>1051.0</ele><time>2026-04-05T10:52:18.999Z</time></trkpt><trkpt lat="44.461865169856665" lon="8.66770664094853"><ele>1051.0</ele><time>2026-04-05T10:52:19.999Z</time></trkpt><trkpt lat="44.461950262772596" lon="8.667763383153892"><ele>1051.0</ele><time>2026-04-05T10:52:20.999Z</time></trkpt><trkpt lat="44.46203396910668" lon="8.667797414978223"><ele>1051.0</ele><time>2026-04-05T10:52:21.999Z</time></trkpt><trkpt lat="44.462120133468" lon="8.667795718324406"><ele>1051.0</ele><time>2026-04-05T10:52:22.999Z</time></trkpt><trkpt lat="44.462204357440775" lon="8.667780337310996"><ele>1051.0</ele><time>2026-04-05T10:52:23.999Z</time></trkpt><trkpt lat="44.462376088866186" lon="8.667713766151993"><ele>1053.3333333333333</ele><time>2026-04-05T10:52:24.999Z</time></trkpt><trkpt lat="44.46257057625732" lon="8.667675347128775"><ele>1055.6666666666667</ele><time>2026-04-05T10:52:25.999Z</time></trkpt><trkpt lat="44.46271531068562" lon="8.667640769922691"><ele>1058.0</ele><time>2026-04-05T10:52:26.999Z</time></trkpt><trkpt lat="44.462856483111274" lon="8.667601297722408"><ele>1057.3333333333335</ele><time>2026-04-05T10:52:27.999Z</time></trkpt><trkpt lat="44.463019153456194" lon="8.667560948628408"><ele>1056.6666666666667</ele><time>2026-04-05T10:52:28.999Z</time></trkpt><trkpt lat="44.463177162974524" lon="8.667510253140977"><ele>1056.0</ele><time>2026-04-05T10:52:29.999Z</time></trkpt><trkpt lat="44.463358809489186" lon="8.667466894005107"><ele>1056.0</ele><time>2026-04-05T10:52:30.999Z</time></trkpt><trkpt lat="44.463511737552544" lon="8.667406722213498"><ele>1056.0</ele><time>2026-04-05T10:52:31.999Z</time></trkpt><trkpt lat="44.463661010941365" lon="8.667354240389033"><ele>1056.0</ele><time>2026-04-05T10:52:32.999Z</time></trkpt><trkpt lat="44.463806902366294" lon="8.66732401610796"><ele>1053.75</ele><time>2026-04-05T10:52:33.999Z</time></trkpt><trkpt lat="44.46394022152127" lon="8.667261276822257"><ele>1051.5</ele><time>2026-04-05T10:52:34.999Z</time></trkpt><trkpt lat="44.46410685031706" lon="8.667203664882988"><ele>1049.25</ele><time>2026-04-05T10:52:35.999Z</time></trkpt><trkpt lat="44.464237116732996" lon="8.667173421920022"><ele>1047.0</ele><time>2026-04-05T10:52:37Z</time></trkpt><trkpt lat="44.464409673084276" lon="8.6670734355701"><ele>1042.3333333333333</ele><time>2026-04-05T10:52:38Z</time></trkpt><trkpt lat="44.46461754850454" lon="8.667017732476834"><ele>1037.6666666666665</ele><time>2026-04-05T10:52:40Z</time></trkpt><trkpt lat="44.46477486708014" lon="8.6669980110025"><ele>1033.0</ele><time>2026-04-05T10:52:41Z</time></trkpt><trkpt lat="44.46493407460299" lon="8.666959302951456"><ele>1033.0</ele><time>2026-04-05T10:52:42Z</time></trkpt><trkpt lat="44.46509257347034" lon="8.666913082214291"><ele>1033.0</ele><time>2026-04-05T10:52:43Z</time></trkpt><trkpt lat="44.46521944244712" lon="8.666926719649927"><ele>1033.0</ele><time>2026-04-05T10:52:44Z</time></trkpt><trkpt lat="44.46540505845369" lon="8.666983607005527"><ele>1034.3333333333333</ele><time>2026-04-05T10:52:45Z</time></trkpt><trkpt lat="44.465570565510504" lon="8.667033569796446"><ele>1035.6666666666667</ele><time>2026-04-05T10:52:46Z</time></trkpt><trkpt lat="44.46571589761223" lon="8.667086518822309"><ele>1037.0</ele><time>2026-04-05T10:52:47Z</time></trkpt><trkpt lat="44.46586054863686" lon="8.667114948159997"><ele>1037.0</ele><time>2026-04-05T10:52:48Z</time></trkpt><trkpt lat="44.46600997462933" lon="8.66709880170864"><ele>1037.0</ele><time>2026-04-05T10:52:49Z</time></trkpt><trkpt lat="44.46614428947835" lon="8.66704066409241"><ele>1037.0</ele><time>2026-04-05T10:52:50Z</time></trkpt><trkpt lat="44.46625912104862" lon="8.666937863851903"><ele>1037.0</ele><time>2026-04-05T10:52:51Z</time></trkpt><trkpt lat="44.466411894796266" lon="8.666791449120664"><ele>1038.6666666666667</ele><time>2026-04-05T10:52:52Z</time></trkpt><trkpt lat="44.46656436701392" lon="8.666662434991045"><ele>1040.3333333333333</ele><time>2026-04-05T10:52:53Z</time></trkpt><trkpt lat="44.466698333804864" lon="8.666558976547257"><ele>1042.0</ele><time>2026-04-05T10:52:54Z</time></trkpt><trkpt lat="44.46685007996154" lon="8.66647703157048"><ele>1042.0</ele><time>2026-04-05T10:52:55Z</time></trkpt><trkpt lat="44.46702527680905" lon="8.666417731252096"><ele>1042.0</ele><time>2026-04-05T10:52:56Z</time></trkpt><trkpt lat="44.46724952121738" lon="8.666355978865226"><ele>1042.0</ele><time>2026-04-05T10:52:57Z</time></trkpt><trkpt lat="44.46742652860747" lon="8.666308325667123"><ele>1036.0</ele><time>2026-04-05T10:52:58Z</time></trkpt><trkpt lat="44.46758783449548" lon="8.666246665085879"><ele>1030.0</ele><time>2026-04-05T10:52:59Z</time></trkpt><trkpt lat="44.467764179555395" lon="8.666149842080754"><ele>1024.0</ele><time>2026-04-05T10:53:00Z</time></trkpt><trkpt lat="44.46795683848944" lon="8.666003646971788"><ele>1020.5</ele><time>2026-04-05T10:53:01Z</time></trkpt><trkpt lat="44.46818479763077" lon="8.66579390687105"><ele>1017.0</ele><time>2026-04-05T10:53:02Z</time></trkpt><trkpt lat="44.46840429237076" lon="8.665600692153001"><ele>1017.0</ele><time>2026-04-05T10:53:03Z</time></trkpt><trkpt lat="44.46858005557943" lon="8.665440848469485"><ele>1017.0</ele><time>2026-04-05T10:53:04Z</time></trkpt><trkpt lat="44.46871538448946" lon="8.665314801140754"><ele>1017.0</ele><time>2026-04-05T10:53:05Z</time></trkpt><trkpt lat="44.46883893400758" lon="8.665199827799146"><ele>1015.0</ele><time>2026-04-05T10:53:06Z</time></trkpt><trkpt lat="44.468950782659164" lon="8.665103856041373"><ele>1013.0</ele><time>2026-04-05T10:53:07Z</time></trkpt><trkpt lat="44.46904969201781" lon="8.665027121626851"><ele>1011.0</ele><time>2026-04-05T10:53:08Z</time></trkpt><trkpt lat="44.469117268749585" lon="8.665032467869418"><ele>1009.0</ele><time>2026-04-05T10:53:09Z</time></trkpt><trkpt lat="44.46917991774581" lon="8.66508530787797"><ele>1007.0</ele><time>2026-04-05T10:53:10Z</time></trkpt><trkpt lat="44.469245495265014" lon="8.665177787713331"><ele>1006.2</ele><time>2026-04-05T10:53:11Z</time></trkpt><trkpt lat="44.46928909520611" lon="8.665300990623992"><ele>1005.4000000000001</ele><time>2026-04-05T10:53:12Z</time></trkpt><trkpt lat="44.46925968570151" lon="8.66545212040425"><ele>1004.5999999999999</ele><time>2026-04-05T10:53:13Z</time></trkpt><trkpt lat="44.46918720368656" lon="8.665571331839379"><ele>1003.8</ele><time>2026-04-05T10:53:14Z</time></trkpt><trkpt lat="44.469069646378024" lon="8.665634374625501"><ele>1003.0</ele><time>2026-04-05T10:53:15Z</time></trkpt><trkpt lat="44.46891573692584" lon="8.665764588913671"><ele>1003.0</ele><time>2026-04-05T10:53:16Z</time></trkpt><trkpt lat="44.46874843746674" lon="8.665900977704311"><ele>1003.0</ele><time>2026-04-05T10:53:17Z</time></trkpt><trkpt lat="44.46859242529491" lon="8.66608510375078"><ele>1003.0</ele><time>2026-04-05T10:53:18Z</time></trkpt><trkpt lat="44.468428856445" lon="8.666312082544092"><ele>1003.0</ele><time>2026-04-05T10:53:19Z</time></trkpt><trkpt lat="44.468282302770575" lon="8.66655379010514"><ele>1003.0</ele><time>2026-04-05T10:53:20Z</time></trkpt><trkpt lat="44.46813712063028" lon="8.666769365650872"><ele>1003.0</ele><time>2026-04-05T10:53:21Z</time></trkpt><trkpt lat="44.468017327260746" lon="8.6669879984214"><ele>1003.3333333333333</ele><time>2026-04-05T10:53:22Z</time></trkpt><trkpt lat="44.467904826898206" lon="8.667192297950116"><ele>1003.6666666666667</ele><time>2026-04-05T10:53:23Z</time></trkpt><trkpt lat="44.467786584082695" lon="8.667380017592238"><ele>1004.0</ele><time>2026-04-05T10:53:24Z</time></trkpt><trkpt lat="44.46769924030061" lon="8.667627060002646"><ele>999.6666666666667</ele><time>2026-04-05T10:53:25Z</time></trkpt><trkpt lat="44.46764177501358" lon="8.667905287908534"><ele>995.3333333333333</ele><time>2026-04-05T10:53:26Z</time></trkpt><trkpt lat="44.467573125856404" lon="8.668123200868138"><ele>991.0</ele><time>2026-04-05T10:53:27Z</time></trkpt><trkpt lat="44.46752943968438" lon="8.668337580527837"><ele>991.0</ele><time>2026-04-05T10:53:28Z</time></trkpt><trkpt lat="44.46745036658183" lon="8.668529766653446"><ele>991.0</ele><time>2026-04-05T10:53:29Z</time></trkpt><trkpt lat="44.46735596513952" lon="8.668743940041297"><ele>991.0</ele><time>2026-04-05T10:53:30Z</time></trkpt><trkpt lat="44.46722647431374" lon="8.669020471093644"><ele>988.3333333333333</ele><time>2026-04-05T10:53:31Z</time></trkpt><trkpt lat="44.46711910348997" lon="8.669280808271596"><ele>985.6666666666667</ele><time>2026-04-05T10:53:32Z</time></trkpt><trkpt lat="44.46701052479928" lon="8.66950674090287"><ele>983.0</ele><time>2026-04-05T10:53:33Z</time></trkpt><trkpt lat="44.46690972596489" lon="8.669724173407019"><ele>981.25</ele><time>2026-04-05T10:53:34Z</time></trkpt><trkpt lat="44.46681869297288" lon="8.669911246346548"><ele>979.5</ele><time>2026-04-05T10:53:35Z</time></trkpt><trkpt lat="44.46673302432173" lon="8.670075203984974"><ele>977.75</ele><time>2026-04-05T10:53:36Z</time></trkpt><trkpt lat="44.46665850609421" lon="8.670235056527357"><ele>976.0</ele><time>2026-04-05T10:53:37Z</time></trkpt><trkpt lat="44.466605936431925" lon="8.670392758418274"><ele>972.75</ele><time>2026-04-05T10:53:38Z</time></trkpt><trkpt lat="44.46659253003937" lon="8.670558444994658"><ele>969.5</ele><time>2026-04-05T10:53:39Z</time></trkpt><trkpt lat="44.46662018590842" lon="8.670709076843426"><ele>966.25</ele><time>2026-04-05T10:53:39.999Z</time></trkpt><trkpt lat="44.46668559982333" lon="8.670850605859428"><ele>963.0</ele><time>2026-04-05T10:53:40.999Z</time></trkpt><trkpt lat="44.46676602085527" lon="8.670975510969715"><ele>963.0</ele><time>2026-04-05T10:53:41.999Z</time></trkpt><trkpt lat="44.466890226588745" lon="8.671005617507605"><ele>963.0</ele><time>2026-04-05T10:53:42.999Z</time></trkpt><trkpt lat="44.46702910143119" lon="8.671049774256376"><ele>963.0</ele><time>2026-04-05T10:53:43.999Z</time></trkpt><trkpt lat="44.46717854556065" lon="8.670994524520257"><ele>963.0</ele><time>2026-04-05T10:53:44.999Z</time></trkpt><trkpt lat="44.46734609153458" lon="8.67092170750958"><ele>962.5</ele><time>2026-04-05T10:53:45.999Z</time></trkpt><trkpt lat="44.4675669405098" lon="8.670830083700423"><ele>962.0</ele><time>2026-04-05T10:53:46.999Z</time></trkpt><trkpt lat="44.467825468342824" lon="8.670706146016533"><ele>952.0</ele><time>2026-04-05T10:53:47.999Z</time></trkpt><trkpt lat="44.46809829714059" lon="8.67057491422454"><ele>942.0</ele><time>2026-04-05T10:53:48.999Z</time></trkpt><trkpt lat="44.46836371881925" lon="8.670447773553276"><ele>942.0</ele><time>2026-04-05T10:53:49.999Z</time></trkpt><trkpt lat="44.468595704925775" lon="8.670336648948867"><ele>942.0</ele><time>2026-04-05T10:53:50.999Z</time></trkpt><trkpt lat="44.468784692994596" lon="8.670234352431045"><ele>942.0</ele><time>2026-04-05T10:53:51.999Z</time></trkpt><trkpt lat="44.46897368218335" lon="8.670160050691791"><ele>945.0</ele><time>2026-04-05T10:53:52.999Z</time></trkpt><trkpt lat="44.46916552437384" lon="8.670057811808444"><ele>948.0</ele><time>2026-04-05T10:53:53.999Z</time></trkpt><trkpt lat="44.46935659945898" lon="8.669913069846972"><ele>951.0</ele><time>2026-04-05T10:53:54.999Z</time></trkpt><trkpt lat="44.46953475221836" lon="8.669751320673374"><ele>947.0</ele><time>2026-04-05T10:53:55.999Z</time></trkpt><trkpt lat="44.46968367817604" lon="8.66960830931494"><ele>943.0</ele><time>2026-04-05T10:53:56.999Z</time></trkpt><trkpt lat="44.46982523654677" lon="8.669480379051608"><ele>939.0</ele><time>2026-04-05T10:53:57.999Z</time></trkpt><trkpt lat="44.469950583104776" lon="8.669361228367984"><ele>939.0</ele><time>2026-04-05T10:53:58.999Z</time></trkpt><trkpt lat="44.47011435948848" lon="8.669324378813888"><ele>939.0</ele><time>2026-04-05T10:53:59.999Z</time></trkpt><trkpt lat="44.470337126772634" lon="8.669325624559553"><ele>939.0</ele><time>2026-04-05T10:54:00.999Z</time></trkpt><trkpt lat="44.47059177349772" lon="8.669315986607186"><ele>936.5</ele><time>2026-04-05T10:54:01.999Z</time></trkpt><trkpt lat="44.470878706929874" lon="8.66934650854362"><ele>934.0</ele><time>2026-04-05T10:54:02.999Z</time></trkpt><trkpt lat="44.471189063319585" lon="8.669373838373117"><ele>936.5</ele><time>2026-04-05T10:54:03.999Z</time></trkpt><trkpt lat="44.47151553419737" lon="8.66939615180398"><ele>939.0</ele><time>2026-04-05T10:54:04.999Z</time></trkpt><trkpt lat="44.47183477746635" lon="8.669411746107308"><ele>937.0</ele><time>2026-04-05T10:54:05.999Z</time></trkpt><trkpt lat="44.47211954680869" lon="8.669430150787035"><ele>935.0</ele><time>2026-04-05T10:54:06.999Z</time></trkpt><trkpt lat="44.47237154874153" lon="8.66944948191975"><ele>934.0</ele><time>2026-04-05T10:54:07.999Z</time></trkpt><trkpt lat="44.472585609637754" lon="8.66946534972531"><ele>933.0</ele><time>2026-04-05T10:54:08.999Z</time></trkpt><trkpt lat="44.47276040993397" lon="8.66948405503321"><ele>932.0</ele><time>2026-04-05T10:54:09.999Z</time></trkpt><trkpt lat="44.47295667955614" lon="8.669464559921014"><ele>932.6666666666667</ele><time>2026-04-05T10:54:10.999Z</time></trkpt><trkpt lat="44.47314805992179" lon="8.669395872636626"><ele>933.3333333333333</ele><time>2026-04-05T10:54:11.999Z</time></trkpt><trkpt lat="44.47332740551943" lon="8.669290178055258"><ele>934.0</ele><time>2026-04-05T10:54:12.999Z</time></trkpt><trkpt lat="44.4734943793177" lon="8.669162825811272"><ele>934.0</ele><time>2026-04-05T10:54:13.999Z</time></trkpt><trkpt lat="44.473641831002496" lon="8.668991532710509"><ele>934.0</ele><time>2026-04-05T10:54:14.999Z</time></trkpt><trkpt lat="44.47376325498629" lon="8.668797244048376"><ele>934.0</ele><time>2026-04-05T10:54:15.999Z</time></trkpt><trkpt lat="44.47387409931571" lon="8.668564296596415"><ele>937.0</ele><time>2026-04-05T10:54:16.999Z</time></trkpt><trkpt lat="44.47395568718265" lon="8.668383874021103"><ele>940.0</ele><time>2026-04-05T10:54:17.999Z</time></trkpt><trkpt lat="44.47403036988248" lon="8.668234505727845"><ele>943.0</ele><time>2026-04-05T10:54:18.999Z</time></trkpt><trkpt lat="44.47412220525129" lon="8.668129972318852"><ele>946.0</ele><time>2026-04-05T10:54:19.999Z</time></trkpt><trkpt lat="44.474250759189175" lon="8.668067751433544"><ele>946.0</ele><time>2026-04-05T10:54:20.999Z</time></trkpt><trkpt lat="44.474376530819" lon="8.668059576771391"><ele>946.0</ele><time>2026-04-05T10:54:21.999Z</time></trkpt><trkpt lat="44.47450688485668" lon="8.668138052552552"><ele>946.0</ele><time>2026-04-05T10:54:22.999Z</time></trkpt><trkpt lat="44.474666023720665" lon="8.668197857071352"><ele>946.0</ele><time>2026-04-05T10:54:23.999Z</time></trkpt><trkpt lat="44.4748504305562" lon="8.668274458534373"><ele>948.0</ele><time>2026-04-05T10:54:24.999Z</time></trkpt><trkpt lat="44.475028840683095" lon="8.668309800806899"><ele>950.0</ele><time>2026-04-05T10:54:25.999Z</time></trkpt><trkpt lat="44.47518583302921" lon="8.668302769285598"><ele>952.0</ele><time>2026-04-05T10:54:26.999Z</time></trkpt><trkpt lat="44.4753402105471" lon="8.668271244739053"><ele>956.3333333333333</ele><time>2026-04-05T10:54:27.999Z</time></trkpt><trkpt lat="44.47550886300512" lon="8.668187604270102"><ele>960.6666666666667</ele><time>2026-04-05T10:54:28.999Z</time></trkpt><trkpt lat="44.47567751165373" lon="8.668067378962878"><ele>965.0</ele><time>2026-04-05T10:54:29.999Z</time></trkpt><trkpt lat="44.47582274112262" lon="8.66791249290098"><ele>958.3333333333334</ele><time>2026-04-05T10:54:30.999Z</time></trkpt><trkpt lat="44.47596533113539" lon="8.667747730507553"><ele>951.6666666666667</ele><time>2026-04-05T10:54:31.999Z</time></trkpt><trkpt lat="44.47607736918947" lon="8.667610322984542"><ele>945.0</ele><time>2026-04-05T10:54:32.999Z</time></trkpt><trkpt lat="44.47616879136449" lon="8.667500671945799"><ele>945.0</ele><time>2026-04-05T10:54:33.999Z</time></trkpt><trkpt lat="44.47626662075632" lon="8.66746517979276"><ele>945.0</ele><time>2026-04-05T10:54:34.999Z</time></trkpt><trkpt lat="44.47633387665903" lon="8.667447536046602"><ele>945.0</ele><time>2026-04-05T10:54:35.999Z</time></trkpt><trkpt lat="44.47639037488454" lon="8.667518993256344"><ele>945.0</ele><time>2026-04-05T10:54:36.999Z</time></trkpt><trkpt lat="44.476417140085175" lon="8.6676373237699"><ele>945.0</ele><time>2026-04-05T10:54:37.999Z</time></trkpt><trkpt lat="44.47640082624513" lon="8.667770623860015"><ele>945.0</ele><time>2026-04-05T10:54:38.999Z</time></trkpt><trkpt lat="44.47631871162702" lon="8.667883417692007"><ele>951.6666666666667</ele><time>2026-04-05T10:54:39.999Z</time></trkpt><trkpt lat="44.47620946132534" lon="8.66800314669418"><ele>958.3333333333334</ele><time>2026-04-05T10:54:40.999Z</time></trkpt><trkpt lat="44.4760697777549" lon="8.668154995449392"><ele>965.0</ele><time>2026-04-05T10:54:41.999Z</time></trkpt><trkpt lat="44.47590583973009" lon="8.668337669513795"><ele>965.0</ele><time>2026-04-05T10:54:43Z</time></trkpt><trkpt lat="44.47573264073316" lon="8.668535866355798"><ele>965.0</ele><time>2026-04-05T10:54:44Z</time></trkpt><trkpt lat="44.47559619303681" lon="8.66870437359007"><ele>965.0</ele><time>2026-04-05T10:54:45Z</time></trkpt><trkpt lat="44.47546414841108" lon="8.668844443253406"><ele>965.25</ele><time>2026-04-05T10:54:46Z</time></trkpt><trkpt lat="44.47534964616938" lon="8.668969442766583"><ele>965.5</ele><time>2026-04-05T10:54:47Z</time></trkpt><trkpt lat="44.4752509854087" lon="8.669096650598723"><ele>965.75</ele><time>2026-04-05T10:54:48Z</time></trkpt><trkpt lat="44.4751690364147" lon="8.669240339797938"><ele>966.0</ele><time>2026-04-05T10:54:49Z</time></trkpt><trkpt lat="44.475117555448705" lon="8.66940878740791"><ele>965.75</ele><time>2026-04-05T10:54:50Z</time></trkpt><trkpt lat="44.47510074167874" lon="8.669580465843152"><ele>965.5</ele><time>2026-04-05T10:54:51Z</time></trkpt><trkpt lat="44.475120836754975" lon="8.669772490624503"><ele>965.25</ele><time>2026-04-05T10:54:52Z</time></trkpt><trkpt lat="44.47517130587429" lon="8.669971575003823"><ele>965.0</ele><time>2026-04-05T10:54:53Z</time></trkpt><trkpt lat="44.47525715445019" lon="8.67018645655451"><ele>959.0</ele><time>2026-04-05T10:54:54Z</time></trkpt><trkpt lat="44.475376138483995" lon="8.670453403898355"><ele>953.0</ele><time>2026-04-05T10:54:55Z</time></trkpt><trkpt lat="44.475486065773055" lon="8.670705890522626"><ele>947.0</ele><time>2026-04-05T10:54:56Z</time></trkpt><trkpt lat="44.47557502273328" lon="8.670917828876057"><ele>950.0</ele><time>2026-04-05T10:54:57Z</time></trkpt><trkpt lat="44.475648228453004" lon="8.671090983192919"><ele>953.0</ele><time>2026-04-05T10:54:58Z</time></trkpt><trkpt lat="44.47571966329017" lon="8.671228030460606"><ele>956.0</ele><time>2026-04-05T10:54:59Z</time></trkpt><trkpt lat="44.475820922969056" lon="8.671368201855337"><ele>959.0</ele><time>2026-04-05T10:55:00Z</time></trkpt><trkpt lat="44.475933929665885" lon="8.671456404607419"><ele>959.0</ele><time>2026-04-05T10:55:01Z</time></trkpt><trkpt lat="44.47607520080762" lon="8.671526255713646"><ele>959.0</ele><time>2026-04-05T10:55:02Z</time></trkpt><trkpt lat="44.47623771962168" lon="8.671589159325471"><ele>959.0</ele><time>2026-04-05T10:55:03Z</time></trkpt><trkpt lat="44.476391401306955" lon="8.67164622012194"><ele>965.3333333333334</ele><time>2026-04-05T10:55:04Z</time></trkpt><trkpt lat="44.476540676516365" lon="8.671683379853564"><ele>971.6666666666667</ele><time>2026-04-05T10:55:05Z</time></trkpt><trkpt lat="44.476698529893646" lon="8.671676196420863"><ele>978.0</ele><time>2026-04-05T10:55:06Z</time></trkpt><trkpt lat="44.47684292948679" lon="8.67164454053522"><ele>978.0</ele><time>2026-04-05T10:55:07Z</time></trkpt><trkpt lat="44.476964374691846" lon="8.671610197558048"><ele>978.0</ele><time>2026-04-05T10:55:08Z</time></trkpt><trkpt lat="44.477079790142604" lon="8.671624216311146"><ele>978.0</ele><time>2026-04-05T10:55:09Z</time></trkpt><trkpt lat="44.47719048668266" lon="8.671679340902449"><ele>978.0</ele><time>2026-04-05T10:55:10Z</time></trkpt><trkpt lat="44.47730236230154" lon="8.671796910592743"><ele>981.6666666666667</ele><time>2026-04-05T10:55:11Z</time></trkpt><trkpt lat="44.47740241939932" lon="8.67192582220381"><ele>985.3333333333334</ele><time>2026-04-05T10:55:12Z</time></trkpt><trkpt lat="44.47754276795408" lon="8.672007614741768"><ele>989.0</ele><time>2026-04-05T10:55:13Z</time></trkpt><trkpt lat="44.477724169362325" lon="8.672055399478555"><ele>980.6666666666667</ele><time>2026-04-05T10:55:14Z</time></trkpt><trkpt lat="44.47789369851397" lon="8.6720986287584"><ele>972.3333333333333</ele><time>2026-04-05T10:55:15Z</time></trkpt><trkpt lat="44.47806237681972" lon="8.672162746759136"><ele>964.0</ele><time>2026-04-05T10:55:16Z</time></trkpt><trkpt lat="44.47823095441306" lon="8.672262997121116"><ele>964.0</ele><time>2026-04-05T10:55:17Z</time></trkpt><trkpt lat="44.47838813965135" lon="8.67237923794017"><ele>964.0</ele><time>2026-04-05T10:55:18Z</time></trkpt><trkpt lat="44.47854256522545" lon="8.67250760498971"><ele>964.0</ele><time>2026-04-05T10:55:19Z</time></trkpt><trkpt lat="44.47867267750172" lon="8.672639565023136"><ele>966.75</ele><time>2026-04-05T10:55:20Z</time></trkpt><trkpt lat="44.4787799961608" lon="8.672775207242926"><ele>969.5</ele><time>2026-04-05T10:55:21Z</time></trkpt><trkpt lat="44.47886148288757" lon="8.672896208759658"><ele>972.25</ele><time>2026-04-05T10:55:22Z</time></trkpt><trkpt lat="44.478921396604164" lon="8.673049770486056"><ele>975.0</ele><time>2026-04-05T10:55:23Z</time></trkpt><trkpt lat="44.478955865843844" lon="8.673251351730137"><ele>975.0</ele><time>2026-04-05T10:55:24Z</time></trkpt><trkpt lat="44.47896168041685" lon="8.673457647122866"><ele>975.0</ele><time>2026-04-05T10:55:25Z</time></trkpt><trkpt lat="44.47897857430234" lon="8.673634904980052"><ele>975.0</ele><time>2026-04-05T10:55:26Z</time></trkpt><trkpt lat="44.4790448914064" lon="8.673821372861468"><ele>975.0</ele><time>2026-04-05T10:55:27Z</time></trkpt><trkpt lat="44.47914705874278" lon="8.673975742115232"><ele>969.75</ele><time>2026-04-05T10:55:28Z</time></trkpt><trkpt lat="44.47925797174453" lon="8.674107384938585"><ele>964.5</ele><time>2026-04-05T10:55:29Z</time></trkpt><trkpt lat="44.47935419464676" lon="8.674217191134924"><ele>959.25</ele><time>2026-04-05T10:55:30Z</time></trkpt><trkpt lat="44.479425506701126" lon="8.674338924533346"><ele>954.0</ele><time>2026-04-05T10:55:31Z</time></trkpt><trkpt lat="44.47945746026256" lon="8.674502327588067"><ele>950.5</ele><time>2026-04-05T10:55:32Z</time></trkpt><trkpt lat="44.47945038091462" lon="8.674672967105302"><ele>947.0</ele><time>2026-04-05T10:55:33Z</time></trkpt><trkpt lat="44.479383120675216" lon="8.674834624952151"><ele>943.5</ele><time>2026-04-05T10:55:34Z</time></trkpt><trkpt lat="44.47928783471676" lon="8.67497313765203"><ele>940.0</ele><time>2026-04-05T10:55:35Z</time></trkpt><trkpt lat="44.47921820381635" lon="8.675108267408113"><ele>940.0</ele><time>2026-04-05T10:55:36Z</time></trkpt><trkpt lat="44.47919755487703" lon="8.675268580987497"><ele>940.0</ele><time>2026-04-05T10:55:37Z</time></trkpt><trkpt lat="44.479221999130615" lon="8.675437627229652"><ele>940.0</ele><time>2026-04-05T10:55:38Z</time></trkpt><trkpt lat="44.47927895251311" lon="8.675609009497485"><ele>940.0</ele><time>2026-04-05T10:55:39Z</time></trkpt><trkpt lat="44.47936207907226" lon="8.675772212600418"><ele>938.75</ele><time>2026-04-05T10:55:40Z</time></trkpt><trkpt lat="44.479425730107806" lon="8.675924407650406"><ele>937.5</ele><time>2026-04-05T10:55:41Z</time></trkpt><trkpt lat="44.47945151224419" lon="8.676120812822305"><ele>936.25</ele><time>2026-04-05T10:55:42Z</time></trkpt><trkpt lat="44.4794490032198" lon="8.676355204360963"><ele>935.0</ele><time>2026-04-05T10:55:43Z</time></trkpt><trkpt lat="44.47941010210853" lon="8.67665419385896"><ele>928.3333333333334</ele><time>2026-04-05T10:55:43.999Z</time></trkpt><trkpt lat="44.47938971312146" lon="8.676942975103012"><ele>921.6666666666667</ele><time>2026-04-05T10:55:44.999Z</time></trkpt><trkpt lat="44.479369524246074" lon="8.677168071929591"><ele>915.0</ele><time>2026-04-05T10:55:45.999Z</time></trkpt><trkpt lat="44.479354601274665" lon="8.677371751830913"><ele>915.0</ele><time>2026-04-05T10:55:46.999Z</time></trkpt><trkpt lat="44.47934213715256" lon="8.677551041081939"><ele>915.0</ele><time>2026-04-05T10:55:47.999Z</time></trkpt><trkpt lat="44.47936826553082" lon="8.67771100287144"><ele>915.0</ele><time>2026-04-05T10:55:48.999Z</time></trkpt><trkpt lat="44.47943680752759" lon="8.677871642792198"><ele>915.0</ele><time>2026-04-05T10:55:49.999Z</time></trkpt><trkpt lat="44.479552582811095" lon="8.678023066606318"><ele>918.0</ele><time>2026-04-05T10:55:50.999Z</time></trkpt><trkpt lat="44.47971845309776" lon="8.67815890705522"><ele>921.0</ele><time>2026-04-05T10:55:51.999Z</time></trkpt><trkpt lat="44.479907933718025" lon="8.678283668916436"><ele>924.0</ele><time>2026-04-05T10:55:52.999Z</time></trkpt><trkpt lat="44.48006274498726" lon="8.678387924120207"><ele>924.0</ele><time>2026-04-05T10:55:53.999Z</time></trkpt><trkpt lat="44.48019941156104" lon="8.678537935570988"><ele>924.0</ele><time>2026-04-05T10:55:54.999Z</time></trkpt><trkpt lat="44.48030734226353" lon="8.678743760010848"><ele>924.0</ele><time>2026-04-05T10:55:55.999Z</time></trkpt><trkpt lat="44.48041208243832" lon="8.678925812162737"><ele>923.0</ele><time>2026-04-05T10:55:56.999Z</time></trkpt><trkpt lat="44.48048990409138" lon="8.679071306308565"><ele>922.0</ele><time>2026-04-05T10:55:57.999Z</time></trkpt><trkpt lat="44.48054913116774" lon="8.679219329854769"><ele>921.0</ele><time>2026-04-05T10:55:58.999Z</time></trkpt><trkpt lat="44.480566188605756" lon="8.679430955027918"><ele>920.0</ele><time>2026-04-05T10:55:59.999Z</time></trkpt><trkpt lat="44.48057421530938" lon="8.67967220451331"><ele>920.0</ele><time>2026-04-05T10:56:00.999Z</time></trkpt><trkpt lat="44.48056648200047" lon="8.67986854607976"><ele>920.0</ele><time>2026-04-05T10:56:01.999Z</time></trkpt><trkpt lat="44.480581920619244" lon="8.680067547833225"><ele>920.0</ele><time>2026-04-05T10:56:02.999Z</time></trkpt><trkpt lat="44.480637574316454" lon="8.680242353402342"><ele>920.0</ele><time>2026-04-05T10:56:03.999Z</time></trkpt><trkpt lat="44.48072658500263" lon="8.680386237629909"><ele>912.75</ele><time>2026-04-05T10:56:04.999Z</time></trkpt><trkpt lat="44.480840139662085" lon="8.68049187745637"><ele>905.5</ele><time>2026-04-05T10:56:05.999Z</time></trkpt><trkpt lat="44.480967840237106" lon="8.680553851788023"><ele>898.25</ele><time>2026-04-05T10:56:06.999Z</time></trkpt><trkpt lat="44.48110062849353" lon="8.680599791672039"><ele>891.0</ele><time>2026-04-05T10:56:07.999Z</time></trkpt><trkpt lat="44.481212585847764" lon="8.680692640956533"><ele>892.25</ele><time>2026-04-05T10:56:08.999Z</time></trkpt><trkpt lat="44.48130936607528" lon="8.680835220217075"><ele>893.5</ele><time>2026-04-05T10:56:09.999Z</time></trkpt><trkpt lat="44.48138047250156" lon="8.681007114206967"><ele>894.75</ele><time>2026-04-05T10:56:10.999Z</time></trkpt><trkpt lat="44.481420944407915" lon="8.68123325072084"><ele>896.0</ele><time>2026-04-05T10:56:11.999Z</time></trkpt><trkpt lat="44.48147548781036" lon="8.681505377340441"><ele>896.0</ele><time>2026-04-05T10:56:12.999Z</time></trkpt><trkpt lat="44.481529399691134" lon="8.68178119952552"><ele>896.0</ele><time>2026-04-05T10:56:13.999Z</time></trkpt><trkpt lat="44.481579099147766" lon="8.68202973994686"><ele>896.0</ele><time>2026-04-05T10:56:14.999Z</time></trkpt><trkpt lat="44.48162665084806" lon="8.68226036950772"><ele>891.0</ele><time>2026-04-05T10:56:15.999Z</time></trkpt><trkpt lat="44.48166470939736" lon="8.682479432010314"><ele>886.0</ele><time>2026-04-05T10:56:16.999Z</time></trkpt><trkpt lat="44.48169078993219" lon="8.682717791736158"><ele>881.0</ele><time>2026-04-05T10:56:17.999Z</time></trkpt><trkpt lat="44.48164370013144" lon="8.68293296800372"><ele>879.75</ele><time>2026-04-05T10:56:18.999Z</time></trkpt><trkpt lat="44.481616224664585" lon="8.683142682050615"><ele>878.5</ele><time>2026-04-05T10:56:19.999Z</time></trkpt><trkpt lat="44.48162006883371" lon="8.683339016964755"><ele>877.25</ele><time>2026-04-05T10:56:20.999Z</time></trkpt><trkpt lat="44.481668605651656" lon="8.683523225723599"><ele>876.0</ele><time>2026-04-05T10:56:21.999Z</time></trkpt><trkpt lat="44.481732903965494" lon="8.683733501182266"><ele>871.3333333333333</ele><time>2026-04-05T10:56:22.999Z</time></trkpt><trkpt lat="44.48182118921538" lon="8.683956116738882"><ele>866.6666666666666</ele><time>2026-04-05T10:56:23.999Z</time></trkpt><trkpt lat="44.48192482506934" lon="8.684183946760559"><ele>862.0</ele><time>2026-04-05T10:56:24.999Z</time></trkpt><trkpt lat="44.48205366329289" lon="8.684415000630086"><ele>866.3333333333333</ele><time>2026-04-05T10:56:25.999Z</time></trkpt><trkpt lat="44.48220571989681" lon="8.684628541549285"><ele>870.6666666666667</ele><time>2026-04-05T10:56:26.999Z</time></trkpt><trkpt lat="44.48235061071889" lon="8.684840772919651"><ele>875.0</ele><time>2026-04-05T10:56:27.999Z</time></trkpt><trkpt lat="44.48248390285417" lon="8.685026986533533"><ele>875.0</ele><time>2026-04-05T10:56:28.999Z</time></trkpt><trkpt lat="44.48260182810035" lon="8.685191732119627"><ele>875.0</ele><time>2026-04-05T10:56:29.999Z</time></trkpt><trkpt lat="44.48270195227646" lon="8.685327870939751"><ele>875.0</ele><time>2026-04-05T10:56:30.999Z</time></trkpt><trkpt lat="44.48278976974732" lon="8.685453953973838"><ele>875.0</ele><time>2026-04-05T10:56:31.999Z</time></trkpt><trkpt lat="44.48287597555454" lon="8.685572554706036"><ele>869.75</ele><time>2026-04-05T10:56:32.999Z</time></trkpt><trkpt lat="44.48291322350755" lon="8.685739064779037"><ele>864.5</ele><time>2026-04-05T10:56:33.999Z</time></trkpt><trkpt lat="44.482918010714286" lon="8.68591085725046"><ele>859.25</ele><time>2026-04-05T10:56:34.999Z</time></trkpt><trkpt lat="44.48289053016507" lon="8.686074687734505"><ele>854.0</ele><time>2026-04-05T10:56:35.999Z</time></trkpt><trkpt lat="44.48277721136624" lon="8.6862553820571"><ele>854.0</ele><time>2026-04-05T10:56:36.999Z</time></trkpt><trkpt lat="44.48267006531642" lon="8.686454337953963"><ele>854.0</ele><time>2026-04-05T10:56:37.999Z</time></trkpt><trkpt lat="44.48257957949423" lon="8.6866279755343"><ele>854.0</ele><time>2026-04-05T10:56:38.999Z</time></trkpt><trkpt lat="44.482504753196174" lon="8.68677883311076"><ele>856.5</ele><time>2026-04-05T10:56:39.999Z</time></trkpt><trkpt lat="44.482443577472544" lon="8.686932121176751"><ele>859.0</ele><time>2026-04-05T10:56:40.999Z</time></trkpt><trkpt lat="44.48242375787473" lon="8.687114635222107"><ele>861.5</ele><time>2026-04-05T10:56:41.999Z</time></trkpt><trkpt lat="44.482450228390356" lon="8.687317423878705"><ele>864.0</ele><time>2026-04-05T10:56:42.999Z</time></trkpt><trkpt lat="44.48250293916797" lon="8.687519522504012"><ele>864.0</ele><time>2026-04-05T10:56:43.999Z</time></trkpt><trkpt lat="44.4825880749874" lon="8.687716669961143"><ele>864.0</ele><time>2026-04-05T10:56:44.999Z</time></trkpt><trkpt lat="44.482666793569926" lon="8.68787294249526"><ele>864.0</ele><time>2026-04-05T10:56:45.999Z</time></trkpt><trkpt lat="44.48272130655526" lon="8.688010683251944"><ele>864.0</ele><time>2026-04-05T10:56:46.999Z</time></trkpt><trkpt lat="44.48274979056559" lon="8.688174367541954"><ele>863.25</ele><time>2026-04-05T10:56:47.999Z</time></trkpt><trkpt lat="44.482748663665404" lon="8.688326731949669"><ele>862.5</ele><time>2026-04-05T10:56:49Z</time></trkpt><trkpt lat="44.48271279038729" lon="8.688482452080105"><ele>861.75</ele><time>2026-04-05T10:56:50Z</time></trkpt><trkpt lat="44.4826346855747" lon="8.688636801313056"><ele>861.0</ele><time>2026-04-05T10:56:51Z</time></trkpt><trkpt lat="44.48254261916769" lon="8.688816931214955"><ele>861.0</ele><time>2026-04-05T10:56:52Z</time></trkpt><trkpt lat="44.48248918072857" lon="8.689021383555398"><ele>861.0</ele><time>2026-04-05T10:56:53Z</time></trkpt><trkpt lat="44.482451448854384" lon="8.689261887308257"><ele>861.0</ele><time>2026-04-05T10:56:54Z</time></trkpt><trkpt lat="44.48241549999128" lon="8.689455179864837"><ele>865.3333333333333</ele><time>2026-04-05T10:56:55Z</time></trkpt><trkpt lat="44.48236112932393" lon="8.689626699924442"><ele>869.6666666666666</ele><time>2026-04-05T10:56:56Z</time></trkpt><trkpt lat="44.48227353278502" lon="8.689781815475802"><ele>874.0</ele><time>2026-04-05T10:56:57Z</time></trkpt><trkpt lat="44.482134969094524" lon="8.68993361210541"><ele>863.3333333333333</ele><time>2026-04-05T10:56:58Z</time></trkpt><trkpt lat="44.481987491364265" lon="8.690052069645356"><ele>852.6666666666667</ele><time>2026-04-05T10:56:59Z</time></trkpt><trkpt lat="44.48186885868147" lon="8.690172725507418"><ele>842.0</ele><time>2026-04-05T10:57:00Z</time></trkpt><trkpt lat="44.48176208735976" lon="8.690285156738252"><ele>842.0</ele><time>2026-04-05T10:57:01Z</time></trkpt><trkpt lat="44.48168969220473" lon="8.690439971298437"><ele>842.0</ele><time>2026-04-05T10:57:02Z</time></trkpt><trkpt lat="44.48161955983368" lon="8.690617940891286"><ele>842.0</ele><time>2026-04-05T10:57:03Z</time></trkpt><trkpt lat="44.481569901934655" lon="8.690813432591131"><ele>842.0</ele><time>2026-04-05T10:57:04Z</time></trkpt><trkpt lat="44.48156151316098" lon="8.691028263759385"><ele>838.0</ele><time>2026-04-05T10:57:05Z</time></trkpt><trkpt lat="44.48159427693551" lon="8.691239031778245"><ele>834.0</ele><time>2026-04-05T10:57:06Z</time></trkpt><trkpt lat="44.48165882500745" lon="8.691435184451624"><ele>830.0</ele><time>2026-04-05T10:57:07Z</time></trkpt><trkpt lat="44.481759069477235" lon="8.691668089218673"><ele>824.0</ele><time>2026-04-05T10:57:08Z</time></trkpt><trkpt lat="44.48184725709281" lon="8.691947016394156"><ele>818.0</ele><time>2026-04-05T10:57:09Z</time></trkpt><trkpt lat="44.48191328699651" lon="8.692190545193476"><ele>812.0</ele><time>2026-04-05T10:57:10Z</time></trkpt><trkpt lat="44.48197347148091" lon="8.692415629194088"><ele>812.0</ele><time>2026-04-05T10:57:11Z</time></trkpt><trkpt lat="44.48204129216377" lon="8.692625389154166"><ele>812.0</ele><time>2026-04-05T10:57:12Z</time></trkpt><trkpt lat="44.4821251553953" lon="8.69282301700653"><ele>812.0</ele><time>2026-04-05T10:57:13Z</time></trkpt><trkpt lat="44.48224442290718" lon="8.693020659301919"><ele>818.6666666666667</ele><time>2026-04-05T10:57:14Z</time></trkpt><trkpt lat="44.4823815044022" lon="8.693195421530186"><ele>825.3333333333333</ele><time>2026-04-05T10:57:15Z</time></trkpt><trkpt lat="44.48250523687338" lon="8.693345900304381"><ele>832.0</ele><time>2026-04-05T10:57:16Z</time></trkpt><trkpt lat="44.48259999471983" lon="8.693483013717499"><ele>829.8</ele><time>2026-04-05T10:57:17Z</time></trkpt><trkpt lat="44.482683643055786" lon="8.693604440500371"><ele>827.6</ele><time>2026-04-05T10:57:18Z</time></trkpt><trkpt lat="44.48274606011282" lon="8.693717790887824"><ele>825.4</ele><time>2026-04-05T10:57:19Z</time></trkpt><trkpt lat="44.482776415092566" lon="8.693855154896022"><ele>823.1999999999999</ele><time>2026-04-05T10:57:20Z</time></trkpt><trkpt lat="44.48277130815935" lon="8.694003639015595"><ele>821.0</ele><time>2026-04-05T10:57:21Z</time></trkpt><trkpt lat="44.48271547171544" lon="8.694133680703153"><ele>821.0</ele><time>2026-04-05T10:57:22Z</time></trkpt><trkpt lat="44.482616992641915" lon="8.694261846374623"><ele>821.0</ele><time>2026-04-05T10:57:23Z</time></trkpt><trkpt lat="44.48246535287903" lon="8.694423982122316"><ele>821.0</ele><time>2026-04-05T10:57:24Z</time></trkpt><trkpt lat="44.48228467896434" lon="8.694601974726563"><ele>811.5</ele><time>2026-04-05T10:57:25Z</time></trkpt><trkpt lat="44.48208360088714" lon="8.694817491426344"><ele>802.0</ele><time>2026-04-05T10:57:26Z</time></trkpt><trkpt lat="44.481894056618295" lon="8.695005109871966"><ele>802.0</ele><time>2026-04-05T10:57:27Z</time></trkpt><trkpt lat="44.48171237802977" lon="8.695166007354523"><ele>802.0</ele><time>2026-04-05T10:57:28Z</time></trkpt><trkpt lat="44.4815349854467" lon="8.695317098970978"><ele>802.0</ele><time>2026-04-05T10:57:29Z</time></trkpt><trkpt lat="44.481376566843295" lon="8.69548323737533"><ele>798.0</ele><time>2026-04-05T10:57:30Z</time></trkpt><trkpt lat="44.48123646912785" lon="8.695652610635282"><ele>794.0</ele><time>2026-04-05T10:57:31Z</time></trkpt><trkpt lat="44.48111818582773" lon="8.695817733018488"><ele>790.0</ele><time>2026-04-05T10:57:32Z</time></trkpt><trkpt lat="44.48101422158874" lon="8.695987449226005"><ele>793.3333333333333</ele><time>2026-04-05T10:57:33Z</time></trkpt><trkpt lat="44.48092752833432" lon="8.69617190755702"><ele>796.6666666666667</ele><time>2026-04-05T10:57:34Z</time></trkpt><trkpt lat="44.480878139231045" lon="8.696363228741658"><ele>800.0</ele><time>2026-04-05T10:57:35Z</time></trkpt><trkpt lat="44.48083668582024" lon="8.696565563094461"><ele>800.0</ele><time>2026-04-05T10:57:36Z</time></trkpt><trkpt lat="44.48080946658685" lon="8.696769333313124"><ele>800.0</ele><time>2026-04-05T10:57:37Z</time></trkpt><trkpt lat="44.48085183564413" lon="8.696982122327908"><ele>800.0</ele><time>2026-04-05T10:57:38Z</time></trkpt><trkpt lat="44.480854245450885" lon="8.697161471562234"><ele>800.0</ele><time>2026-04-05T10:57:39Z</time></trkpt><trkpt lat="44.480850900857305" lon="8.697321175339722"><ele>799.75</ele><time>2026-04-05T10:57:40Z</time></trkpt><trkpt lat="44.480819168911275" lon="8.697486022077651"><ele>799.5</ele><time>2026-04-05T10:57:41Z</time></trkpt><trkpt lat="44.48072188457244" lon="8.697670457829316"><ele>799.25</ele><time>2026-04-05T10:57:42Z</time></trkpt><trkpt lat="44.48062461445406" lon="8.697851684613177"><ele>799.0</ele><time>2026-04-05T10:57:43Z</time></trkpt><trkpt lat="44.48054626459672" lon="8.697999416333099"><ele>798.25</ele><time>2026-04-05T10:57:44Z</time></trkpt><trkpt lat="44.48048540267628" lon="8.698127958507316"><ele>797.5</ele><time>2026-04-05T10:57:45Z</time></trkpt><trkpt lat="44.48044350039923" lon="8.69827069530229"><ele>796.75</ele><time>2026-04-05T10:57:46Z</time></trkpt><trkpt lat="44.480430177551696" lon="8.698428116214016"><ele>796.0</ele><time>2026-04-05T10:57:47Z</time></trkpt><trkpt lat="44.480470482275365" lon="8.698603086760142"><ele>792.25</ele><time>2026-04-05T10:57:48Z</time></trkpt><trkpt lat="44.48056240492218" lon="8.698755044572936"><ele>788.5</ele><time>2026-04-05T10:57:49Z</time></trkpt><trkpt lat="44.4806834651403" lon="8.698887154848082"><ele>784.75</ele><time>2026-04-05T10:57:49.999Z</time></trkpt><trkpt lat="44.480787040846344" lon="8.69900218777362"><ele>781.0</ele><time>2026-04-05T10:57:50.999Z</time></trkpt><trkpt lat="44.48086544289592" lon="8.69911794836766"><ele>781.0</ele><time>2026-04-05T10:57:51.999Z</time></trkpt><trkpt lat="44.48092137269158" lon="8.6992517499171"><ele>781.0</ele><time>2026-04-05T10:57:52.999Z</time></trkpt><trkpt lat="44.480944621356045" lon="8.69939649315519"><ele>781.0</ele><time>2026-04-05T10:57:53.999Z</time></trkpt><trkpt lat="44.48094554269769" lon="8.699566297814092"><ele>781.0</ele><time>2026-04-05T10:57:54.999Z</time></trkpt><trkpt lat="44.48089849762828" lon="8.699731175034943"><ele>778.25</ele><time>2026-04-05T10:57:55.999Z</time></trkpt><trkpt lat="44.48085124971374" lon="8.699869394711081"><ele>775.5</ele><time>2026-04-05T10:57:56.999Z</time></trkpt><trkpt lat="44.48082304857784" lon="8.700020150977732"><ele>772.75</ele><time>2026-04-05T10:57:57.999Z</time></trkpt><trkpt lat="44.48084814466844" lon="8.70020958824714"><ele>770.0</ele><time>2026-04-05T10:57:58.999Z</time></trkpt><trkpt lat="44.48090497434421" lon="8.700419532097495"><ele>768.6666666666667</ele><time>2026-04-05T10:57:59.999Z</time></trkpt><trkpt lat="44.48096372326251" lon="8.700655426525447"><ele>767.3333333333334</ele><time>2026-04-05T10:58:00.999Z</time></trkpt><trkpt lat="44.481001499197625" lon="8.700903235835908"><ele>766.0</ele><time>2026-04-05T10:58:01.999Z</time></trkpt><trkpt lat="44.48101026476772" lon="8.701194365499036"><ele>762.6666666666667</ele><time>2026-04-05T10:58:02.999Z</time></trkpt><trkpt lat="44.48100535513112" lon="8.701461268922165"><ele>759.3333333333334</ele><time>2026-04-05T10:58:03.999Z</time></trkpt><trkpt lat="44.480998814497866" lon="8.70171146238803"><ele>756.0</ele><time>2026-04-05T10:58:04.999Z</time></trkpt><trkpt lat="44.48099318762193" lon="8.701908380207312"><ele>757.5</ele><time>2026-04-05T10:58:05.999Z</time></trkpt><trkpt lat="44.48098470100305" lon="8.702070644150576"><ele>759.0</ele><time>2026-04-05T10:58:06.999Z</time></trkpt><trkpt lat="44.48096803022024" lon="8.70223320102626"><ele>760.5</ele><time>2026-04-05T10:58:07.999Z</time></trkpt><trkpt lat="44.48089178163813" lon="8.702381175824714"><ele>762.0</ele><time>2026-04-05T10:58:08.999Z</time></trkpt><trkpt lat="44.48077319624282" lon="8.70254884948034"><ele>762.0</ele><time>2026-04-05T10:58:09.999Z</time></trkpt><trkpt lat="44.48064906681607" lon="8.702711517701433"><ele>762.0</ele><time>2026-04-05T10:58:10.999Z</time></trkpt><trkpt lat="44.48056899839742" lon="8.702844831769777"><ele>762.0</ele><time>2026-04-05T10:58:11.999Z</time></trkpt><trkpt lat="44.480513448058225" lon="8.702986565820801"><ele>762.0</ele><time>2026-04-05T10:58:12.999Z</time></trkpt><trkpt lat="44.48050179730853" lon="8.703143318978102"><ele>764.5</ele><time>2026-04-05T10:58:13.999Z</time></trkpt><trkpt lat="44.48049563629368" lon="8.703317075611457"><ele>767.0</ele><time>2026-04-05T10:58:14.999Z</time></trkpt><trkpt lat="44.48041914006807" lon="8.703447684517327"><ele>769.5</ele><time>2026-04-05T10:58:15.999Z</time></trkpt><trkpt lat="44.48032816969849" lon="8.703633175623812"><ele>772.0</ele><time>2026-04-05T10:58:16.999Z</time></trkpt><trkpt lat="44.48019481639523" lon="8.703821195670868"><ele>772.0</ele><time>2026-04-05T10:58:17.999Z</time></trkpt><trkpt lat="44.4800654251327" lon="8.704017931607147"><ele>772.0</ele><time>2026-04-05T10:58:18.999Z</time></trkpt><trkpt lat="44.479909883928556" lon="8.704221382720483"><ele>772.0</ele><time>2026-04-05T10:58:19.999Z</time></trkpt><trkpt lat="44.47975313195558" lon="8.704422055231468"><ele>769.6666666666666</ele><time>2026-04-05T10:58:20.999Z</time></trkpt><trkpt lat="44.47960138262119" lon="8.704603267931505"><ele>767.3333333333333</ele><time>2026-04-05T10:58:21.999Z</time></trkpt><trkpt lat="44.47943132276181" lon="8.70475493480583"><ele>765.0</ele><time>2026-04-05T10:58:22.999Z</time></trkpt><trkpt lat="44.479247718866105" lon="8.70492406091673"><ele>765.0</ele><time>2026-04-05T10:58:23.999Z</time></trkpt><trkpt lat="44.479056925130706" lon="8.705043775091838"><ele>765.0</ele><time>2026-04-05T10:58:24.999Z</time></trkpt><trkpt lat="44.478898902838615" lon="8.705125774110327"><ele>765.0</ele><time>2026-04-05T10:58:25.999Z</time></trkpt><trkpt lat="44.47876789079822" lon="8.70519630640747"><ele>763.6</ele><time>2026-04-05T10:58:26.999Z</time></trkpt><trkpt lat="44.47866926439496" lon="8.705258991202415"><ele>762.2</ele><time>2026-04-05T10:58:27.999Z</time></trkpt><trkpt lat="44.47859200332805" lon="8.705335567933263"><ele>760.8</ele><time>2026-04-05T10:58:28.999Z</time></trkpt><trkpt lat="44.47854272136693" lon="8.705454013953998"><ele>759.4</ele><time>2026-04-05T10:58:29.999Z</time></trkpt><trkpt lat="44.4785485557472" lon="8.705599742358102"><ele>758.0</ele><time>2026-04-05T10:58:30.999Z</time></trkpt><trkpt lat="44.478602678037646" lon="8.705710019717362"><ele>758.0</ele><time>2026-04-05T10:58:31.999Z</time></trkpt><trkpt lat="44.47870165368357" lon="8.705794943927462"><ele>758.0</ele><time>2026-04-05T10:58:32.999Z</time></trkpt><trkpt lat="44.47881509451606" lon="8.705933133270186"><ele>758.0</ele><time>2026-04-05T10:58:33.999Z</time></trkpt><trkpt lat="44.4789175668461" lon="8.706054123984787"><ele>758.0</ele><time>2026-04-05T10:58:34.999Z</time></trkpt><trkpt lat="44.47900198178127" lon="8.70616100692584"><ele>761.75</ele><time>2026-04-05T10:58:35.999Z</time></trkpt><trkpt lat="44.479055404008704" lon="8.706277203437846"><ele>765.5</ele><time>2026-04-05T10:58:36.999Z</time></trkpt><trkpt lat="44.4790801932572" lon="8.706431349521816"><ele>769.25</ele><time>2026-04-05T10:58:37.999Z</time></trkpt><trkpt lat="44.479086253604706" lon="8.706610196160511"><ele>773.0</ele><time>2026-04-05T10:58:38.999Z</time></trkpt><trkpt lat="44.47906799924673" lon="8.70678772362616"><ele>773.25</ele><time>2026-04-05T10:58:39.999Z</time></trkpt><trkpt lat="44.47901278429922" lon="8.70696102461571"><ele>773.5</ele><time>2026-04-05T10:58:40.999Z</time></trkpt><trkpt lat="44.47895655985033" lon="8.707130817971807"><ele>773.75</ele><time>2026-04-05T10:58:41.999Z</time></trkpt><trkpt lat="44.47892887695342" lon="8.707282193587634"><ele>774.0</ele><time>2026-04-05T10:58:42.999Z</time></trkpt><trkpt lat="44.478904329212085" lon="8.707422664801337"><ele>774.0</ele><time>2026-04-05T10:58:43.999Z</time></trkpt><trkpt lat="44.47895390131618" lon="8.707558751946001"><ele>774.0</ele><time>2026-04-05T10:58:44.999Z</time></trkpt><trkpt lat="44.478985166812436" lon="8.707703003631416"><ele>774.0</ele><time>2026-04-05T10:58:45.999Z</time></trkpt><trkpt lat="44.47900521450628" lon="8.707820915591725"><ele>774.0</ele><time>2026-04-05T10:58:46.999Z</time></trkpt><trkpt lat="44.47900077766999" lon="8.707935998259224"><ele>774.0</ele><time>2026-04-05T10:58:47.999Z</time></trkpt><trkpt lat="44.478910625791585" lon="8.708058880883815"><ele>774.2</ele><time>2026-04-05T10:58:48.999Z</time></trkpt><trkpt lat="44.4788498217268" lon="8.708202575117955"><ele>774.4000000000001</ele><time>2026-04-05T10:58:49.999Z</time></trkpt><trkpt lat="44.478804059798556" lon="8.708307723538034"><ele>774.6</ele><time>2026-04-05T10:58:50.999Z</time></trkpt><trkpt lat="44.478772730982044" lon="8.708415850966427"><ele>774.8</ele><time>2026-04-05T10:58:51.999Z</time></trkpt><trkpt lat="44.4788025091587" lon="8.708562032493521"><ele>775.0</ele><time>2026-04-05T10:58:52.999Z</time></trkpt><trkpt lat="44.47885123351169" lon="8.708713297358539"><ele>775.0</ele><time>2026-04-05T10:58:53.999Z</time></trkpt><trkpt lat="44.47888135579988" lon="8.70884015822292"><ele>775.0</ele><time>2026-04-05T10:58:55Z</time></trkpt><trkpt lat="44.47888514734363" lon="8.708959996975342"><ele>775.0</ele><time>2026-04-05T10:58:56Z</time></trkpt><trkpt lat="44.4788390421956" lon="8.709056093822067"><ele>775.0</ele><time>2026-04-05T10:58:57Z</time></trkpt><trkpt lat="44.47875086357726" lon="8.709172257179432"><ele>775.0</ele><time>2026-04-05T10:58:58Z</time></trkpt><trkpt lat="44.4786369651729" lon="8.709331775481235"><ele>769.75</ele><time>2026-04-05T10:58:59Z</time></trkpt><trkpt lat="44.478516429184694" lon="8.709478504532074"><ele>764.5</ele><time>2026-04-05T10:59:00Z</time></trkpt><trkpt lat="44.47840526763781" lon="8.709602362547594"><ele>759.25</ele><time>2026-04-05T10:59:01Z</time></trkpt><trkpt lat="44.47829696465052" lon="8.709704565762108"><ele>754.0</ele><time>2026-04-05T10:59:02Z</time></trkpt><trkpt lat="44.47820925925674" lon="8.709825623752076"><ele>754.0</ele><time>2026-04-05T10:59:03Z</time></trkpt><trkpt lat="44.478129697078835" lon="8.709990994816213"><ele>754.0</ele><time>2026-04-05T10:59:04Z</time></trkpt><trkpt lat="44.478049490325866" lon="8.71017870223244"><ele>754.0</ele><time>2026-04-05T10:59:05Z</time></trkpt><trkpt lat="44.4779774301617" lon="8.71034654918704"><ele>754.0</ele><time>2026-04-05T10:59:06Z</time></trkpt><trkpt lat="44.47792062577771" lon="8.710505410750148"><ele>752.3333333333334</ele><time>2026-04-05T10:59:07Z</time></trkpt><trkpt lat="44.4778675857107" lon="8.71065540530276"><ele>750.6666666666667</ele><time>2026-04-05T10:59:08Z</time></trkpt><trkpt lat="44.47783483613182" lon="8.710786317921082"><ele>749.0</ele><time>2026-04-05T10:59:09Z</time></trkpt><trkpt lat="44.47780549264053" lon="8.710884586362784"><ele>747.3333333333334</ele><time>2026-04-05T10:59:10Z</time></trkpt><trkpt lat="44.47777718649951" lon="8.71097682944462"><ele>745.6666666666666</ele><time>2026-04-05T10:59:11Z</time></trkpt><trkpt lat="44.47772135878157" lon="8.71102912204239"><ele>744.0</ele><time>2026-04-05T10:59:12Z</time></trkpt><trkpt lat="44.47762180297722" lon="8.711074296990105"><ele>744.0</ele><time>2026-04-05T10:59:14Z</time></trkpt><trkpt lat="44.47753154596484" lon="8.71113349267521"><ele>744.0</ele><time>2026-04-05T10:59:19Z</time></trkpt><trkpt lat="44.47759893614174" lon="8.71113458641666"><ele>744.0</ele><time>2026-04-05T10:59:42Z</time></trkpt><trkpt lat="44.47766691168472" lon="8.711090405984555"><ele>744.0</ele><time>2026-04-05T10:59:43Z</time></trkpt><trkpt lat="44.47775271028308" lon="8.711046939487252"><ele>744.0</ele><time>2026-04-05T10:59:44Z</time></trkpt><trkpt lat="44.47782601177077" lon="8.710978388700644"><ele>744.0</ele><time>2026-04-05T10:59:45Z</time></trkpt><trkpt lat="44.477878814287216" lon="8.71086153828261"><ele>742.75</ele><time>2026-04-05T10:59:46Z</time></trkpt><trkpt lat="44.47790041252408" lon="8.710713042702627"><ele>741.5</ele><time>2026-04-05T10:59:47Z</time></trkpt><trkpt lat="44.477943799578945" lon="8.710536455854106"><ele>740.25</ele><time>2026-04-05T10:59:48Z</time></trkpt><trkpt lat="44.478000195209" lon="8.710313999255952"><ele>739.0</ele><time>2026-04-05T10:59:49Z</time></trkpt><trkpt lat="44.478078696750934" lon="8.710110130099274"><ele>742.75</ele><time>2026-04-05T10:59:50Z</time></trkpt><trkpt lat="44.478155542804004" lon="8.709931511998635"><ele>746.5</ele><time>2026-04-05T10:59:51Z</time></trkpt><trkpt lat="44.478215697310304" lon="8.709788166158086"><ele>750.25</ele><time>2026-04-05T10:59:52Z</time></trkpt><trkpt lat="44.47833468883841" lon="8.70972078494038"><ele>754.0</ele><time>2026-04-05T10:59:53Z</time></trkpt><trkpt lat="44.478449577444415" lon="8.709592820286806"><ele>754.0</ele><time>2026-04-05T10:59:54Z</time></trkpt><trkpt lat="44.47856898548908" lon="8.70945262641272"><ele>754.0</ele><time>2026-04-05T10:59:55Z</time></trkpt><trkpt lat="44.47867157299936" lon="8.709329982474227"><ele>754.0</ele><time>2026-04-05T10:59:55.999Z</time></trkpt><trkpt lat="44.478736506073815" lon="8.70925235455543"><ele>754.0</ele><time>2026-04-05T10:59:56.999Z</time></trkpt><trkpt lat="44.47878896855751" lon="8.709186784869784"><ele>754.0</ele><time>2026-04-05T10:59:58.999Z</time></trkpt><trkpt lat="44.478721047895455" lon="8.709210498753363"><ele>757.5</ele><time>2026-04-05T11:01:04Z</time></trkpt><trkpt lat="44.47878530453094" lon="8.709199083947318"><ele>761.0</ele><time>2026-04-05T11:02:32.999Z</time></trkpt><trkpt lat="44.478851312354045" lon="8.709178128866661"><ele>764.5</ele><time>2026-04-05T11:02:51.999Z</time></trkpt><trkpt lat="44.478891555484616" lon="8.709022370473454"><ele>768.0</ele><time>2026-04-05T11:02:57.999Z</time></trkpt><trkpt lat="44.478931126343696" lon="8.708918197806831"><ele>771.4999999999999</ele><time>2026-04-05T11:02:58.999Z</time></trkpt><trkpt lat="44.47894394907433" lon="8.708813870567958"><ele>775.0</ele><time>2026-04-05T11:02:59.999Z</time></trkpt><trkpt lat="44.47891724581627" lon="8.708707884291078"><ele>775.0</ele><time>2026-04-05T11:03:00.999Z</time></trkpt><trkpt lat="44.478882185293344" lon="8.70860705742591"><ele>775.0</ele><time>2026-04-05T11:03:01.999Z</time></trkpt><trkpt lat="44.47884727090283" lon="8.708496584692378"><ele>775.0</ele><time>2026-04-05T11:03:02.999Z</time></trkpt><trkpt lat="44.478818858763404" lon="8.708347768397338"><ele>775.0</ele><time>2026-04-05T11:03:03.999Z</time></trkpt><trkpt lat="44.47883029002099" lon="8.708227143228344"><ele>775.0</ele><time>2026-04-05T11:03:04.999Z</time></trkpt><trkpt lat="44.47891213113303" lon="8.708132598299615"><ele>774.8</ele><time>2026-04-05T11:03:05.999Z</time></trkpt><trkpt lat="44.47896887899672" lon="8.707985342548826"><ele>774.6</ele><time>2026-04-05T11:03:07Z</time></trkpt><trkpt lat="44.4790244778028" lon="8.707884883559204"><ele>774.4000000000001</ele><time>2026-04-05T11:03:08Z</time></trkpt><trkpt lat="44.479044782252345" lon="8.707787993870294"><ele>774.2</ele><time>2026-04-05T11:03:09Z</time></trkpt><trkpt lat="44.479030689427276" lon="8.707635801637467"><ele>774.0</ele><time>2026-04-05T11:03:11Z</time></trkpt><trkpt lat="44.47898114817281" lon="8.707504713518754"><ele>774.0</ele><time>2026-04-05T11:03:12Z</time></trkpt><trkpt lat="44.478950308858124" lon="8.707389242292495"><ele>774.0</ele><time>2026-04-05T11:03:13Z</time></trkpt><trkpt lat="44.47894646077531" lon="8.70727164195373"><ele>774.0</ele><time>2026-04-05T11:03:14Z</time></trkpt><trkpt lat="44.478979826521915" lon="8.707124039294479"><ele>774.0</ele><time>2026-04-05T11:03:15Z</time></trkpt><trkpt lat="44.47905054828388" lon="8.706957755877058"><ele>774.0</ele><time>2026-04-05T11:03:16Z</time></trkpt><trkpt lat="44.4790926249832" lon="8.706762003324204"><ele>773.8000000000001</ele><time>2026-04-05T11:03:17Z</time></trkpt><trkpt lat="44.479125994837965" lon="8.70661689777921"><ele>773.6</ele><time>2026-04-05T11:03:18Z</time></trkpt><trkpt lat="44.47913100520217" lon="8.706483537002255"><ele>773.4</ele><time>2026-04-05T11:03:19Z</time></trkpt><trkpt lat="44.47911312680037" lon="8.70636614991383"><ele>773.2</ele><time>2026-04-05T11:03:20Z</time></trkpt><trkpt lat="44.47908079323449" lon="8.706237712059774"><ele>773.0</ele><time>2026-04-05T11:03:21Z</time></trkpt><trkpt lat="44.479049257114156" lon="8.706128628354598"><ele>774.4</ele><time>2026-04-05T11:03:22Z</time></trkpt><trkpt lat="44.47898469894834" lon="8.706028380929094"><ele>775.8</ele><time>2026-04-05T11:03:23Z</time></trkpt><trkpt lat="44.47889817474153" lon="8.705919472057339"><ele>777.2</ele><time>2026-04-05T11:03:24Z</time></trkpt><trkpt lat="44.47882470872894" lon="8.705849122166368"><ele>778.6</ele><time>2026-04-05T11:03:25Z</time></trkpt><trkpt lat="44.478745971551135" lon="8.705762880663503"><ele>780.0</ele><time>2026-04-05T11:03:26Z</time></trkpt><trkpt lat="44.47868353816203" lon="8.705683188471502"><ele>777.5</ele><time>2026-04-05T11:03:27Z</time></trkpt><trkpt lat="44.478626226235555" lon="8.705611601501644"><ele>775.0</ele><time>2026-04-05T11:03:28Z</time></trkpt><trkpt lat="44.47858152114216" lon="8.705538947803538"><ele>772.5</ele><time>2026-04-05T11:03:29Z</time></trkpt><trkpt lat="44.47858283581097" lon="8.705376428004662"><ele>770.0</ele><time>2026-04-05T11:03:31Z</time></trkpt><trkpt lat="44.4786387733651" lon="8.705324796642854"><ele>767.5</ele><time>2026-04-05T11:03:32Z</time></trkpt><trkpt lat="44.478702024413884" lon="8.705273822113979"><ele>765.0</ele><time>2026-04-05T11:03:33Z</time></trkpt><trkpt lat="44.47879653846295" lon="8.705216504350622"><ele>765.0</ele><time>2026-04-05T11:03:34Z</time></trkpt><trkpt lat="44.47891684533681" lon="8.705148536173713"><ele>765.0</ele><time>2026-04-05T11:03:35Z</time></trkpt><trkpt lat="44.47902194337707" lon="8.705067189430974"><ele>765.0</ele><time>2026-04-05T11:03:36Z</time></trkpt><trkpt lat="44.479127586980205" lon="8.705034852387326"><ele>765.0</ele><time>2026-04-05T11:03:37Z</time></trkpt><trkpt lat="44.47923687510585" lon="8.704981591997146"><ele>765.0</ele><time>2026-04-05T11:03:38Z</time></trkpt><trkpt lat="44.47932926285438" lon="8.70491233034255"><ele>765.0</ele><time>2026-04-05T11:03:39Z</time></trkpt><trkpt lat="44.47941267563153" lon="8.704831886696319"><ele>765.0</ele><time>2026-04-05T11:03:40Z</time></trkpt><trkpt lat="44.47949029220721" lon="8.704760906209511"><ele>765.0</ele><time>2026-04-05T11:03:41Z</time></trkpt><trkpt lat="44.479581036353814" lon="8.704667547680511"><ele>765.0</ele><time>2026-04-05T11:03:42Z</time></trkpt><trkpt lat="44.47968340635543" lon="8.7045578748025"><ele>767.3333333333333</ele><time>2026-04-05T11:03:43Z</time></trkpt><trkpt lat="44.479803506178115" lon="8.704432642103493"><ele>769.6666666666666</ele><time>2026-04-05T11:03:44Z</time></trkpt><trkpt lat="44.47995005353558" lon="8.704261465535517"><ele>772.0</ele><time>2026-04-05T11:03:45Z</time></trkpt><trkpt lat="44.480110049674906" lon="8.704038600070461"><ele>772.0</ele><time>2026-04-05T11:03:46Z</time></trkpt><trkpt lat="44.48024255034061" lon="8.703827281972663"><ele>772.0</ele><time>2026-04-05T11:03:47Z</time></trkpt><trkpt lat="44.48034929947306" lon="8.703650997282816"><ele>772.0</ele><time>2026-04-05T11:03:48Z</time></trkpt><trkpt lat="44.480433631761926" lon="8.703503114992609"><ele>773.8</ele><time>2026-04-05T11:03:49Z</time></trkpt><trkpt lat="44.48049419355861" lon="8.703389977574913"><ele>775.6</ele><time>2026-04-05T11:03:50Z</time></trkpt><trkpt lat="44.48053733412444" lon="8.703258085158815"><ele>777.4</ele><time>2026-04-05T11:03:51Z</time></trkpt><trkpt lat="44.48054641844911" lon="8.703101689221539"><ele>779.1999999999999</ele><time>2026-04-05T11:03:52Z</time></trkpt><trkpt lat="44.48055463500001" lon="8.702944663064672"><ele>781.0</ele><time>2026-04-05T11:03:53Z</time></trkpt><trkpt lat="44.48062481290695" lon="8.702810223741249"><ele>776.25</ele><time>2026-04-05T11:03:54Z</time></trkpt><trkpt lat="44.48073055825963" lon="8.702662907113655"><ele>771.5</ele><time>2026-04-05T11:03:55Z</time></trkpt><trkpt lat="44.48085176895163" lon="8.702511089337792"><ele>766.75</ele><time>2026-04-05T11:03:56Z</time></trkpt><trkpt lat="44.48094730842709" lon="8.702386158313056"><ele>762.0</ele><time>2026-04-05T11:03:57Z</time></trkpt><trkpt lat="44.48100888537174" lon="8.702208817552268"><ele>762.0</ele><time>2026-04-05T11:03:58Z</time></trkpt><trkpt lat="44.48104331532846" lon="8.701996392645814"><ele>762.0</ele><time>2026-04-05T11:03:59Z</time></trkpt><trkpt lat="44.48105413612054" lon="8.701713130849026"><ele>762.0</ele><time>2026-04-05T11:04:00Z</time></trkpt><trkpt lat="44.481058683933384" lon="8.701364907720583"><ele>763.3333333333334</ele><time>2026-04-05T11:04:01Z</time></trkpt><trkpt lat="44.48105790258116" lon="8.701030586665336"><ele>764.6666666666667</ele><time>2026-04-05T11:04:02Z</time></trkpt><trkpt lat="44.48102836868585" lon="8.700753151201212"><ele>766.0</ele><time>2026-04-05T11:04:03Z</time></trkpt><trkpt lat="44.48098061840298" lon="8.700511449792716"><ele>766.0</ele><time>2026-04-05T11:04:04Z</time></trkpt><trkpt lat="44.48091838767907" lon="8.70029105964413"><ele>766.0</ele><time>2026-04-05T11:04:05Z</time></trkpt><trkpt lat="44.480880286389045" lon="8.700104646828684"><ele>766.0</ele><time>2026-04-05T11:04:06Z</time></trkpt><trkpt lat="44.480882437865475" lon="8.69992992497402"><ele>766.0</ele><time>2026-04-05T11:04:07Z</time></trkpt><trkpt lat="44.48091602920931" lon="8.699735489991154"><ele>767.0</ele><time>2026-04-05T11:04:08Z</time></trkpt><trkpt lat="44.48096461151674" lon="8.69955202208893"><ele>768.0</ele><time>2026-04-05T11:04:08.999Z</time></trkpt><trkpt lat="44.48098874924203" lon="8.699378978278384"><ele>769.0</ele><time>2026-04-05T11:04:09.999Z</time></trkpt><trkpt lat="44.480956895808134" lon="8.699193605839538"><ele>770.0</ele><time>2026-04-05T11:04:10.999Z</time></trkpt><trkpt lat="44.48088112583076" lon="8.699028956627634"><ele>772.75</ele><time>2026-04-05T11:04:11.999Z</time></trkpt><trkpt lat="44.48077081772577" lon="8.69887741226142"><ele>775.5</ele><time>2026-04-05T11:04:12.999Z</time></trkpt><trkpt lat="44.480634838727184" lon="8.698733359975039"><ele>778.25</ele><time>2026-04-05T11:04:13.999Z</time></trkpt><trkpt lat="44.48055060882193" lon="8.698637512318838"><ele>781.0</ele><time>2026-04-05T11:04:14.999Z</time></trkpt><trkpt lat="44.480492447452846" lon="8.698487156415165"><ele>784.75</ele><time>2026-04-05T11:04:15.999Z</time></trkpt><trkpt lat="44.480482670437404" lon="8.698309128533479"><ele>788.5</ele><time>2026-04-05T11:04:16.999Z</time></trkpt><trkpt lat="44.48051362191072" lon="8.698143952967543"><ele>792.25</ele><time>2026-04-05T11:04:17.999Z</time></trkpt><trkpt lat="44.480590286974554" lon="8.697956529594876"><ele>796.0</ele><time>2026-04-05T11:04:18.999Z</time></trkpt><trkpt lat="44.480705654009235" lon="8.697754083479902"><ele>796.75</ele><time>2026-04-05T11:04:19.999Z</time></trkpt><trkpt lat="44.48079881708288" lon="8.697596111775866"><ele>797.5</ele><time>2026-04-05T11:04:20.999Z</time></trkpt><trkpt lat="44.48086061668406" lon="8.697451520623696"><ele>798.25</ele><time>2026-04-05T11:04:21.999Z</time></trkpt><trkpt lat="44.48089036050498" lon="8.697283661846669"><ele>799.0</ele><time>2026-04-05T11:04:22.999Z</time></trkpt><trkpt lat="44.48089522661547" lon="8.697087340281309"><ele>799.3333333333333</ele><time>2026-04-05T11:04:23.999Z</time></trkpt><trkpt lat="44.480868130716864" lon="8.696879884782717"><ele>799.6666666666667</ele><time>2026-04-05T11:04:24.999Z</time></trkpt><trkpt lat="44.480852846063875" lon="8.696668880270009"><ele>800.0</ele><time>2026-04-05T11:04:25.999Z</time></trkpt><trkpt lat="44.480877404275226" lon="8.69643896506069"><ele>800.0</ele><time>2026-04-05T11:04:26.999Z</time></trkpt><trkpt lat="44.480941375834156" lon="8.696191986630067"><ele>800.0</ele><time>2026-04-05T11:04:27.999Z</time></trkpt><trkpt lat="44.48105344443374" lon="8.695980431010572"><ele>800.0</ele><time>2026-04-05T11:04:28.999Z</time></trkpt><trkpt lat="44.481177234490445" lon="8.695785101374776"><ele>810.5</ele><time>2026-04-05T11:04:29.999Z</time></trkpt><trkpt lat="44.481333285995476" lon="8.69558594236953"><ele>821.0</ele><time>2026-04-05T11:04:30.999Z</time></trkpt><trkpt lat="44.48152313117589" lon="8.695376031652154"><ele>811.5</ele><time>2026-04-05T11:04:31.999Z</time></trkpt><trkpt lat="44.481743609127676" lon="8.695177080850979"><ele>802.0</ele><time>2026-04-05T11:04:32.999Z</time></trkpt><trkpt lat="44.481939437950764" lon="8.694999010149639"><ele>810.6666666666666</ele><time>2026-04-05T11:04:33.999Z</time></trkpt><trkpt lat="44.48210943377331" lon="8.694833010233241"><ele>819.3333333333333</ele><time>2026-04-05T11:04:34.999Z</time></trkpt><trkpt lat="44.48228166274617" lon="8.69465629168163"><ele>828.0</ele><time>2026-04-05T11:04:35.999Z</time></trkpt><trkpt lat="44.482434317636" lon="8.694497038719225"><ele>826.25</ele><time>2026-04-05T11:04:36.999Z</time></trkpt><trkpt lat="44.48256519849115" lon="8.69435804419521"><ele>824.5</ele><time>2026-04-05T11:04:37.999Z</time></trkpt><trkpt lat="44.48266646535313" lon="8.69424912865929"><ele>822.75</ele><time>2026-04-05T11:04:38.999Z</time></trkpt><trkpt lat="44.48274502016975" lon="8.694157339242816"><ele>821.0</ele><time>2026-04-05T11:04:39.999Z</time></trkpt><trkpt lat="44.482783012850874" lon="8.694027830110423"><ele>821.0</ele><time>2026-04-05T11:04:40.999Z</time></trkpt><trkpt lat="44.48280986787754" lon="8.693889288911915"><ele>821.0</ele><time>2026-04-05T11:04:41.999Z</time></trkpt><trkpt lat="44.48279388135241" lon="8.69373315556522"><ele>821.0</ele><time>2026-04-05T11:04:42.999Z</time></trkpt><trkpt lat="44.48274042915276" lon="8.693586490747654"><ele>821.0</ele><time>2026-04-05T11:04:43.999Z</time></trkpt><trkpt lat="44.4826474980377" lon="8.693442384311648"><ele>824.6666666666667</ele><time>2026-04-05T11:04:44.999Z</time></trkpt><trkpt lat="44.482507207408965" lon="8.693269980277163"><ele>828.3333333333333</ele><time>2026-04-05T11:04:45.999Z</time></trkpt><trkpt lat="44.48236248027554" lon="8.693090728277038"><ele>832.0</ele><time>2026-04-05T11:04:46.999Z</time></trkpt><trkpt lat="44.4822469276315" lon="8.692935914047595"><ele>832.0</ele><time>2026-04-05T11:04:47.999Z</time></trkpt><trkpt lat="44.48214111621153" lon="8.692767142929892"><ele>832.0</ele><time>2026-04-05T11:04:48.999Z</time></trkpt><trkpt lat="44.4820461516269" lon="8.692538091025783"><ele>832.0</ele><time>2026-04-05T11:04:49.999Z</time></trkpt><trkpt lat="44.48196424494382" lon="8.692257201215163"><ele>831.3333333333333</ele><time>2026-04-05T11:04:50.999Z</time></trkpt><trkpt lat="44.481892007014245" lon="8.691953114606704"><ele>830.6666666666667</ele><time>2026-04-05T11:04:51.999Z</time></trkpt><trkpt lat="44.48181788675266" lon="8.691692262921789"><ele>830.0</ele><time>2026-04-05T11:04:52.999Z</time></trkpt><trkpt lat="44.481734746926975" lon="8.69147651674016"><ele>830.0</ele><time>2026-04-05T11:04:53.999Z</time></trkpt><trkpt lat="44.48166394411885" lon="8.691310600250361"><ele>830.0</ele><time>2026-04-05T11:04:54.999Z</time></trkpt><trkpt lat="44.4816207548885" lon="8.691145520865366"><ele>830.0</ele><time>2026-04-05T11:04:55.999Z</time></trkpt><trkpt lat="44.48160442482528" lon="8.690937386885878"><ele>830.0</ele><time>2026-04-05T11:04:56.999Z</time></trkpt><trkpt lat="44.481628343143655" lon="8.69072577200484"><ele>829.6666666666667</ele><time>2026-04-05T11:04:57.999Z</time></trkpt><trkpt lat="44.48168020241661" lon="8.690536630263917"><ele>829.3333333333333</ele><time>2026-04-05T11:04:58.999Z</time></trkpt><trkpt lat="44.48177021979968" lon="8.690359331145633"><ele>829.0</ele><time>2026-04-05T11:04:59.999Z</time></trkpt><trkpt lat="44.48190526241019" lon="8.690209311877501"><ele>829.0</ele><time>2026-04-05T11:05:00.999Z</time></trkpt><trkpt lat="44.48205645783503" lon="8.69003526968106"><ele>829.0</ele><time>2026-04-05T11:05:01.999Z</time></trkpt><trkpt lat="44.48219145470523" lon="8.689912510080902"><ele>829.0</ele><time>2026-04-05T11:05:02.999Z</time></trkpt><trkpt lat="44.482303318170466" lon="8.689794586311237"><ele>839.6666666666666</ele><time>2026-04-05T11:05:03.999Z</time></trkpt><trkpt lat="44.4823859428529" lon="8.689638278433936"><ele>850.3333333333333</ele><time>2026-04-05T11:05:04.999Z</time></trkpt><trkpt lat="44.48243259219549" lon="8.689427167777733"><ele>861.0</ele><time>2026-04-05T11:05:05.999Z</time></trkpt><trkpt lat="44.48248403984236" lon="8.689178297375957"><ele>861.0</ele><time>2026-04-05T11:05:06.999Z</time></trkpt><trkpt lat="44.482538600549304" lon="8.68896117527165"><ele>861.0</ele><time>2026-04-05T11:05:07.999Z</time></trkpt><trkpt lat="44.482572156716486" lon="8.688772256153566"><ele>861.0</ele><time>2026-04-05T11:05:08.999Z</time></trkpt><trkpt lat="44.48266469197141" lon="8.688642397936324"><ele>861.0</ele><time>2026-04-05T11:05:09.999Z</time></trkpt><trkpt lat="44.4827232361619" lon="8.688494176298867"><ele>858.5</ele><time>2026-04-05T11:05:10.999Z</time></trkpt><trkpt lat="44.48277845483662" lon="8.688343663021255"><ele>856.0</ele><time>2026-04-05T11:05:11.999Z</time></trkpt><trkpt lat="44.48279252923992" lon="8.688170793031572"><ele>853.5</ele><time>2026-04-05T11:05:13Z</time></trkpt><trkpt lat="44.48275789041772" lon="8.687989055531235"><ele>851.0</ele><time>2026-04-05T11:05:14Z</time></trkpt><trkpt lat="44.482679852218986" lon="8.687804010141946"><ele>855.3333333333334</ele><time>2026-04-05T11:05:15Z</time></trkpt><trkpt lat="44.482586730640335" lon="8.68760241597379"><ele>859.6666666666667</ele><time>2026-04-05T11:05:16Z</time></trkpt><trkpt lat="44.482512629963914" lon="8.687419703319772"><ele>864.0</ele><time>2026-04-05T11:05:17Z</time></trkpt><trkpt lat="44.48248032266716" lon="8.687241381176557"><ele>864.0</ele><time>2026-04-05T11:05:18Z</time></trkpt><trkpt lat="44.48247748090121" lon="8.687047501602034"><ele>864.0</ele><time>2026-04-05T11:05:19Z</time></trkpt><trkpt lat="44.48253017392802" lon="8.686855567335762"><ele>864.0</ele><time>2026-04-05T11:05:20Z</time></trkpt><trkpt lat="44.48261383342212" lon="8.686673032096799"><ele>864.0</ele><time>2026-04-05T11:05:21Z</time></trkpt><trkpt lat="44.48272232535222" lon="8.686435876741772"><ele>861.5</ele><time>2026-04-05T11:05:22Z</time></trkpt><trkpt lat="44.48282847566639" lon="8.686280520851232"><ele>859.0</ele><time>2026-04-05T11:05:23Z</time></trkpt><trkpt lat="44.482895652458154" lon="8.686108286807713"><ele>856.5</ele><time>2026-04-05T11:05:24Z</time></trkpt><trkpt lat="44.482945768193225" lon="8.685957437746682"><ele>854.0</ele><time>2026-04-05T11:05:25Z</time></trkpt><trkpt lat="44.4829456652881" lon="8.685787947741323"><ele>852.5</ele><time>2026-04-05T11:05:26Z</time></trkpt><trkpt lat="44.482916688726924" lon="8.685625570498813"><ele>851.0</ele><time>2026-04-05T11:05:27Z</time></trkpt><trkpt lat="44.48284221706397" lon="8.685463617757538"><ele>849.5</ele><time>2026-04-05T11:05:28Z</time></trkpt><trkpt lat="44.482756204505485" lon="8.68531687572689"><ele>848.0</ele><time>2026-04-05T11:05:29Z</time></trkpt><trkpt lat="44.48261987462404" lon="8.685137002717575"><ele>861.5</ele><time>2026-04-05T11:05:30Z</time></trkpt><trkpt lat="44.48244309812956" lon="8.684927572318971"><ele>875.0</ele><time>2026-04-05T11:05:31Z</time></trkpt><trkpt lat="44.48229185556257" lon="8.684692032480179"><ele>875.0</ele><time>2026-04-05T11:05:32Z</time></trkpt><trkpt lat="44.48217112780937" lon="8.68452100644669"><ele>875.0</ele><time>2026-04-05T11:05:33Z</time></trkpt><trkpt lat="44.48202784299536" lon="8.684338896398906"><ele>875.0</ele><time>2026-04-05T11:05:34Z</time></trkpt><trkpt lat="44.48191451420168" lon="8.684108728426224"><ele>875.3333333333334</ele><time>2026-04-05T11:05:35Z</time></trkpt><trkpt lat="44.48180913526099" lon="8.683847700981254"><ele>875.6666666666667</ele><time>2026-04-05T11:05:36Z</time></trkpt><trkpt lat="44.48171897448901" lon="8.683601644989198"><ele>876.0</ele><time>2026-04-05T11:05:37Z</time></trkpt><trkpt lat="44.481663734874566" lon="8.683392495011711"><ele>876.0</ele><time>2026-04-05T11:05:38Z</time></trkpt><trkpt lat="44.481650793172705" lon="8.683175334535424"><ele>876.0</ele><time>2026-04-05T11:05:39Z</time></trkpt><trkpt lat="44.481682329201995" lon="8.682913477936877"><ele>876.0</ele><time>2026-04-05T11:05:40Z</time></trkpt><trkpt lat="44.481713175680284" lon="8.682677676600969"><ele>877.6666666666667</ele><time>2026-04-05T11:05:41Z</time></trkpt><trkpt lat="44.48167023969536" lon="8.682402431120051"><ele>879.3333333333334</ele><time>2026-04-05T11:05:42Z</time></trkpt><trkpt lat="44.48161608978057" lon="8.682090221240475"><ele>881.0</ele><time>2026-04-05T11:05:43Z</time></trkpt><trkpt lat="44.48154670194778" lon="8.681740987197118"><ele>886.0</ele><time>2026-04-05T11:05:44Z</time></trkpt><trkpt lat="44.4814925915565" lon="8.681449433623701"><ele>891.0</ele><time>2026-04-05T11:05:45Z</time></trkpt><trkpt lat="44.48143856458019" lon="8.6812027019749"><ele>896.0</ele><time>2026-04-05T11:05:46Z</time></trkpt><trkpt lat="44.481395046223554" lon="8.680979406830172"><ele>894.3333333333334</ele><time>2026-04-05T11:05:47Z</time></trkpt><trkpt lat="44.48131658297165" lon="8.680784310566228"><ele>892.6666666666667</ele><time>2026-04-05T11:05:48Z</time></trkpt><trkpt lat="44.48118501294443" lon="8.680638902801672"><ele>891.0</ele><time>2026-04-05T11:05:49Z</time></trkpt><trkpt lat="44.48103527484863" lon="8.680508178431863"><ele>891.0</ele><time>2026-04-05T11:05:50Z</time></trkpt><trkpt lat="44.48089524524182" lon="8.680428396566352"><ele>891.0</ele><time>2026-04-05T11:05:51Z</time></trkpt><trkpt lat="44.480773807512556" lon="8.680360430284821"><ele>891.0</ele><time>2026-04-05T11:05:52Z</time></trkpt><trkpt lat="44.480679894385446" lon="8.680236693966084"><ele>891.0</ele><time>2026-04-05T11:05:53Z</time></trkpt><trkpt lat="44.48061495272465" lon="8.68005612312924"><ele>900.6666666666667</ele><time>2026-04-05T11:05:54Z</time></trkpt><trkpt lat="44.48058885668859" lon="8.679838957880767"><ele>910.3333333333334</ele><time>2026-04-05T11:05:55Z</time></trkpt><trkpt lat="44.4805889363875" lon="8.679571589239146"><ele>920.0</ele><time>2026-04-05T11:05:56Z</time></trkpt><trkpt lat="44.48059171061316" lon="8.679343999487493"><ele>926.0</ele><time>2026-04-05T11:05:57Z</time></trkpt><trkpt lat="44.48056152653083" lon="8.679151404733656"><ele>932.0</ele><time>2026-04-05T11:05:58Z</time></trkpt><trkpt lat="44.480480300979146" lon="8.67894969142094"><ele>938.0</ele><time>2026-04-05T11:05:59Z</time></trkpt><trkpt lat="44.480360028391274" lon="8.678725775292667"><ele>933.3333333333334</ele><time>2026-04-05T11:06:00Z</time></trkpt><trkpt lat="44.4802226115267" lon="8.678510294447088"><ele>928.6666666666667</ele><time>2026-04-05T11:06:01Z</time></trkpt><trkpt lat="44.48006986117408" lon="8.678327796904304"><ele>924.0</ele><time>2026-04-05T11:06:02Z</time></trkpt><trkpt lat="44.479896109998926" lon="8.678192525021299"><ele>924.0</ele><time>2026-04-05T11:06:03Z</time></trkpt><trkpt lat="44.47972620457493" lon="8.678075408686066"><ele>924.0</ele><time>2026-04-05T11:06:04Z</time></trkpt><trkpt lat="44.479600425090844" lon="8.677984563335265"><ele>924.0</ele><time>2026-04-05T11:06:05Z</time></trkpt><trkpt lat="44.479496708689155" lon="8.677888314593648"><ele>921.75</ele><time>2026-04-05T11:06:06Z</time></trkpt><trkpt lat="44.47942637972019" lon="8.677743779720164"><ele>919.5</ele><time>2026-04-05T11:06:07Z</time></trkpt><trkpt lat="44.47938689398608" lon="8.67755014349412"><ele>917.25</ele><time>2026-04-05T11:06:08Z</time></trkpt><trkpt lat="44.47937794787821" lon="8.677339211790112"><ele>915.0</ele><time>2026-04-05T11:06:09Z</time></trkpt><trkpt lat="44.47939672060476" lon="8.677071813193917"><ele>917.0</ele><time>2026-04-05T11:06:10Z</time></trkpt><trkpt lat="44.479440501223436" lon="8.676741842766694"><ele>919.0</ele><time>2026-04-05T11:06:11Z</time></trkpt><trkpt lat="44.479468770759674" lon="8.67646577298575"><ele>921.0</ele><time>2026-04-05T11:06:12Z</time></trkpt><trkpt lat="44.47948447696318" lon="8.676232248017946"><ele>925.6666666666667</ele><time>2026-04-05T11:06:13Z</time></trkpt><trkpt lat="44.47948775091448" lon="8.676023930686348"><ele>930.3333333333334</ele><time>2026-04-05T11:06:13.999Z</time></trkpt><trkpt lat="44.479440755490735" lon="8.675823631639203"><ele>935.0</ele><time>2026-04-05T11:06:14.999Z</time></trkpt><trkpt lat="44.47935771973873" lon="8.675620133653041"><ele>935.0</ele><time>2026-04-05T11:06:15.999Z</time></trkpt><trkpt lat="44.479278194333446" lon="8.675450542949468"><ele>935.0</ele><time>2026-04-05T11:06:16.999Z</time></trkpt><trkpt lat="44.479242461874755" lon="8.6752901513713"><ele>935.0</ele><time>2026-04-05T11:06:17.999Z</time></trkpt><trkpt lat="44.47925625376686" lon="8.67512531201377"><ele>935.0</ele><time>2026-04-05T11:06:18.999Z</time></trkpt><trkpt lat="44.47932976053202" lon="8.67497385437816"><ele>936.25</ele><time>2026-04-05T11:06:19.999Z</time></trkpt><trkpt lat="44.4794193514538" lon="8.67482650711677"><ele>937.5</ele><time>2026-04-05T11:06:20.999Z</time></trkpt><trkpt lat="44.47946658334862" lon="8.674661259857672"><ele>938.75</ele><time>2026-04-05T11:06:21.999Z</time></trkpt><trkpt lat="44.479480808142604" lon="8.674493682851654"><ele>940.0</ele><time>2026-04-05T11:06:22.999Z</time></trkpt><trkpt lat="44.47945184319708" lon="8.674319670957408"><ele>944.6666666666666</ele><time>2026-04-05T11:06:23.999Z</time></trkpt><trkpt lat="44.47937134654991" lon="8.674155851997106"><ele>949.3333333333333</ele><time>2026-04-05T11:06:24.999Z</time></trkpt><trkpt lat="44.47925518962985" lon="8.674004220696995"><ele>954.0</ele><time>2026-04-05T11:06:25.999Z</time></trkpt><trkpt lat="44.47913374897973" lon="8.673865155431152"><ele>954.0</ele><time>2026-04-05T11:06:26.999Z</time></trkpt><trkpt lat="44.47904644942429" lon="8.673715993576508"><ele>954.0</ele><time>2026-04-05T11:06:27.999Z</time></trkpt><trkpt lat="44.47898519490373" lon="8.673513698088092"><ele>954.0</ele><time>2026-04-05T11:06:28.999Z</time></trkpt><trkpt lat="44.478983100665204" lon="8.673297633152787"><ele>954.0</ele><time>2026-04-05T11:06:29.999Z</time></trkpt><trkpt lat="44.478969258570935" lon="8.673093855950528"><ele>957.3333333333333</ele><time>2026-04-05T11:06:30.999Z</time></trkpt><trkpt lat="44.47892515545616" lon="8.672912604104582"><ele>960.6666666666666</ele><time>2026-04-05T11:06:31.999Z</time></trkpt><trkpt lat="44.47882143262083" lon="8.672740477837735"><ele>964.0</ele><time>2026-04-05T11:06:32.999Z</time></trkpt><trkpt lat="44.47866958571852" lon="8.672559702798514"><ele>964.0</ele><time>2026-04-05T11:06:33.999Z</time></trkpt><trkpt lat="44.47848143632507" lon="8.672365276922594"><ele>964.0</ele><time>2026-04-05T11:06:34.999Z</time></trkpt><trkpt lat="44.47829658196499" lon="8.67220927388044"><ele>964.0</ele><time>2026-04-05T11:06:35.999Z</time></trkpt><trkpt lat="44.47810294580423" lon="8.672105325958972"><ele>964.0</ele><time>2026-04-05T11:06:36.999Z</time></trkpt><trkpt lat="44.47790385791407" lon="8.672029202701275"><ele>964.0</ele><time>2026-04-05T11:06:37.999Z</time></trkpt><trkpt lat="44.47773213830218" lon="8.671983525851806"><ele>970.25</ele><time>2026-04-05T11:06:38.999Z</time></trkpt><trkpt lat="44.477589417129494" lon="8.671948516160741"><ele>976.5</ele><time>2026-04-05T11:06:39.999Z</time></trkpt><trkpt lat="44.47746268948159" lon="8.67188323566269"><ele>982.75</ele><time>2026-04-05T11:06:40.999Z</time></trkpt><trkpt lat="44.47734927728179" lon="8.671752589182265"><ele>989.0</ele><time>2026-04-05T11:06:41.999Z</time></trkpt><trkpt lat="44.477239620236396" lon="8.671612459711891"><ele>989.0</ele><time>2026-04-05T11:06:42.999Z</time></trkpt><trkpt lat="44.47712639851852" lon="8.67155358740985"><ele>989.0</ele><time>2026-04-05T11:06:43.999Z</time></trkpt><trkpt lat="44.47698033475914" lon="8.671557789484178"><ele>989.0</ele><time>2026-04-05T11:06:44.999Z</time></trkpt><trkpt lat="44.4768004679889" lon="8.671607788319841"><ele>985.3333333333334</ele><time>2026-04-05T11:06:45.999Z</time></trkpt><trkpt lat="44.47664906875533" lon="8.671643558633713"><ele>981.6666666666667</ele><time>2026-04-05T11:06:46.999Z</time></trkpt><trkpt lat="44.47648875771456" lon="8.671630190906958"><ele>978.0</ele><time>2026-04-05T11:06:47.999Z</time></trkpt><trkpt lat="44.47630583208729" lon="8.671568402638254"><ele>971.6666666666667</ele><time>2026-04-05T11:06:48.999Z</time></trkpt><trkpt lat="44.47613591731921" lon="8.671492052479051"><ele>965.3333333333334</ele><time>2026-04-05T11:06:49.999Z</time></trkpt><trkpt lat="44.476002604753205" lon="8.671430582562403"><ele>959.0</ele><time>2026-04-05T11:06:50.999Z</time></trkpt><trkpt lat="44.475874612298306" lon="8.671350905200125"><ele>959.0</ele><time>2026-04-05T11:06:51.999Z</time></trkpt><trkpt lat="44.47578268213435" lon="8.671211409680124"><ele>959.0</ele><time>2026-04-05T11:06:52.999Z</time></trkpt><trkpt lat="44.475683682904936" lon="8.671023703623243"><ele>959.0</ele><time>2026-04-05T11:06:53.999Z</time></trkpt><trkpt lat="44.47558059908613" lon="8.670787356330122"><ele>961.0</ele><time>2026-04-05T11:06:54.999Z</time></trkpt><trkpt lat="44.475481351526035" lon="8.670545275506798"><ele>963.0</ele><time>2026-04-05T11:06:55.999Z</time></trkpt><trkpt lat="44.4753939352653" lon="8.670329640626505"><ele>965.0</ele><time>2026-04-05T11:06:56.999Z</time></trkpt><trkpt lat="44.475314784623585" lon="8.670145840515426"><ele>965.0</ele><time>2026-04-05T11:06:57.999Z</time></trkpt><trkpt lat="44.4752542459336" lon="8.669991233909917"><ele>965.0</ele><time>2026-04-05T11:06:58.999Z</time></trkpt><trkpt lat="44.47519675151081" lon="8.669860955230487"><ele>965.0</ele><time>2026-04-05T11:06:59.999Z</time></trkpt><trkpt lat="44.47515579984948" lon="8.669735987448739"><ele>965.0</ele><time>2026-04-05T11:07:00.999Z</time></trkpt><trkpt lat="44.47514270143258" lon="8.669587903631902"><ele>965.0</ele><time>2026-04-05T11:07:01.999Z</time></trkpt><trkpt lat="44.475170047997544" lon="8.66942551602063"><ele>965.3333333333334</ele><time>2026-04-05T11:07:02.999Z</time></trkpt><trkpt lat="44.47522066675441" lon="8.669249529253745"><ele>965.6666666666667</ele><time>2026-04-05T11:07:03.999Z</time></trkpt><trkpt lat="44.47530749342188" lon="8.669072758379782"><ele>966.0</ele><time>2026-04-05T11:07:04.999Z</time></trkpt><trkpt lat="44.475445995301804" lon="8.668922361962075"><ele>965.6666666666667</ele><time>2026-04-05T11:07:05.999Z</time></trkpt><trkpt lat="44.475606793793176" lon="8.668711417380496"><ele>965.3333333333334</ele><time>2026-04-05T11:07:06.999Z</time></trkpt><trkpt lat="44.47577389055226" lon="8.668536444484547"><ele>965.0</ele><time>2026-04-05T11:07:07.999Z</time></trkpt><trkpt lat="44.475913379411864" lon="8.668372509485463"><ele>965.0</ele><time>2026-04-05T11:07:08.999Z</time></trkpt><trkpt lat="44.47605166761456" lon="8.668239794735044"><ele>965.0</ele><time>2026-04-05T11:07:09.999Z</time></trkpt><trkpt lat="44.47617118269874" lon="8.668105701382224"><ele>965.0</ele><time>2026-04-05T11:07:10.999Z</time></trkpt><trkpt lat="44.47626239253587" lon="8.667976137596245"><ele>964.0</ele><time>2026-04-05T11:07:11.999Z</time></trkpt><trkpt lat="44.47635176908698" lon="8.6678817540066"><ele>963.0</ele><time>2026-04-05T11:07:12.999Z</time></trkpt><trkpt lat="44.47641809857494" lon="8.66780468880568"><ele>962.0</ele><time>2026-04-05T11:07:13.999Z</time></trkpt><trkpt lat="44.47647805542365" lon="8.667707994958842"><ele>961.0</ele><time>2026-04-05T11:07:14.999Z</time></trkpt><trkpt lat="44.47646161013912" lon="8.667585208721803"><ele>960.0</ele><time>2026-04-05T11:07:15.999Z</time></trkpt><trkpt lat="44.47643649397744" lon="8.667479457992178"><ele>960.0</ele><time>2026-04-05T11:07:16.999Z</time></trkpt><trkpt lat="44.476357131399816" lon="8.667402702120608"><ele>960.0</ele><time>2026-04-05T11:07:17.999Z</time></trkpt><trkpt lat="44.47626994607874" lon="8.66739700868179"><ele>960.0</ele><time>2026-04-05T11:07:19Z</time></trkpt><trkpt lat="44.476177498163494" lon="8.667446105504323"><ele>960.0</ele><time>2026-04-05T11:07:20Z</time></trkpt><trkpt lat="44.47608255041818" lon="8.667547564545774"><ele>960.0</ele><time>2026-04-05T11:07:21Z</time></trkpt><trkpt lat="44.475971904144174" lon="8.667704806583378"><ele>961.6666666666667</ele><time>2026-04-05T11:07:22Z</time></trkpt><trkpt lat="44.475840232304094" lon="8.667857837322048"><ele>963.3333333333334</ele><time>2026-04-05T11:07:23Z</time></trkpt><trkpt lat="44.47572659646011" lon="8.667989930379843"><ele>965.0</ele><time>2026-04-05T11:07:24Z</time></trkpt><trkpt lat="44.47559745428861" lon="8.668083443522393"><ele>965.0</ele><time>2026-04-05T11:07:25Z</time></trkpt><trkpt lat="44.475457710895284" lon="8.668162948597908"><ele>965.0</ele><time>2026-04-05T11:07:26Z</time></trkpt><trkpt lat="44.47530980249024" lon="8.668223371481181"><ele>965.0</ele><time>2026-04-05T11:07:27Z</time></trkpt><trkpt lat="44.47515527451988" lon="8.668247418398455"><ele>960.6666666666667</ele><time>2026-04-05T11:07:28Z</time></trkpt><trkpt lat="44.47498978599219" lon="8.668261841641295"><ele>956.3333333333333</ele><time>2026-04-05T11:07:29Z</time></trkpt><trkpt lat="44.47483469631389" lon="8.668213890075437"><ele>952.0</ele><time>2026-04-05T11:07:30Z</time></trkpt><trkpt lat="44.474670822254375" lon="8.668149235484064"><ele>950.5</ele><time>2026-04-05T11:07:31Z</time></trkpt><trkpt lat="44.47452756788095" lon="8.66807447746443"><ele>949.0</ele><time>2026-04-05T11:07:32Z</time></trkpt><trkpt lat="44.47441998506935" lon="8.668021956772899"><ele>947.5</ele><time>2026-04-05T11:07:33Z</time></trkpt><trkpt lat="44.474318083794266" lon="8.667993982479114"><ele>946.0</ele><time>2026-04-05T11:07:34Z</time></trkpt><trkpt lat="44.47418064430454" lon="8.668028794645226"><ele>946.0</ele><time>2026-04-05T11:07:35Z</time></trkpt><trkpt lat="44.474059363313195" lon="8.66810193"><ele>946.0</ele><time>2026-04-05T11:07:36Z</time></trkpt><trkpt lat="44.47395789096736" lon="8.668267221721955"><ele>946.0</ele><time>2026-04-05T11:07:37Z</time></trkpt><trkpt lat="44.47386069103203" lon="8.668495684622476"><ele>947.3333333333333</ele><time>2026-04-05T11:07:38Z</time></trkpt><trkpt lat="44.473778267522796" lon="8.668720869600554"><ele>948.6666666666667</ele><time>2026-04-05T11:07:39Z</time></trkpt><trkpt lat="44.473679556640235" lon="8.668899269509975"><ele>950.0</ele><time>2026-04-05T11:07:40Z</time></trkpt><trkpt lat="44.47355856441865" lon="8.669044677980535"><ele>944.6666666666667</ele><time>2026-04-05T11:07:41Z</time></trkpt><trkpt lat="44.47341244662121" lon="8.669176151638855"><ele>939.3333333333333</ele><time>2026-04-05T11:07:42Z</time></trkpt><trkpt lat="44.47325564969163" lon="8.669268071389137"><ele>934.0</ele><time>2026-04-05T11:07:43Z</time></trkpt><trkpt lat="44.473102928280575" lon="8.669340565824548"><ele>934.0</ele><time>2026-04-05T11:07:44Z</time></trkpt><trkpt lat="44.4729608710785" lon="8.669393240860902"><ele>934.0</ele><time>2026-04-05T11:07:45Z</time></trkpt><trkpt lat="44.472778118091796" lon="8.669387202561394"><ele>934.0</ele><time>2026-04-05T11:07:46Z</time></trkpt><trkpt lat="44.47255716012091" lon="8.669380760861827"><ele>934.3333333333333</ele><time>2026-04-05T11:07:47Z</time></trkpt><trkpt lat="44.47232749035369" lon="8.66936044083722"><ele>934.6666666666667</ele><time>2026-04-05T11:07:48Z</time></trkpt><trkpt lat="44.47212486559508" lon="8.669369974677023"><ele>935.0</ele><time>2026-04-05T11:07:49Z</time></trkpt><trkpt lat="44.47193942977782" lon="8.669341674969287"><ele>936.3333333333334</ele><time>2026-04-05T11:07:50Z</time></trkpt><trkpt lat="44.471767746842055" lon="8.669334506061464"><ele>937.6666666666667</ele><time>2026-04-05T11:07:51Z</time></trkpt><trkpt lat="44.47160502438763" lon="8.66932222431285"><ele>939.0</ele><time>2026-04-05T11:07:52Z</time></trkpt><trkpt lat="44.47145109724818" lon="8.669312943254042"><ele>939.0</ele><time>2026-04-05T11:07:53Z</time></trkpt><trkpt lat="44.47129411975375" lon="8.669307702633748"><ele>939.0</ele><time>2026-04-05T11:07:54Z</time></trkpt><trkpt lat="44.471142956118435" lon="8.669303945986886"><ele>939.0</ele><time>2026-04-05T11:07:55Z</time></trkpt><trkpt lat="44.47101303594447" lon="8.669289662189383"><ele>939.0</ele><time>2026-04-05T11:07:56Z</time></trkpt><trkpt lat="44.47088649350741" lon="8.669280890844973"><ele>939.0</ele><time>2026-04-05T11:07:57Z</time></trkpt><trkpt lat="44.4707849974256" lon="8.66927108702727"><ele>939.0000000000001</ele><time>2026-04-05T11:07:58Z</time></trkpt><trkpt lat="44.47066760040002" lon="8.669265688953486"><ele>939.0000000000001</ele><time>2026-04-05T11:07:59Z</time></trkpt><trkpt lat="44.47055403346064" lon="8.669259957928215"><ele>939.0</ele><time>2026-04-05T11:08:00Z</time></trkpt><trkpt lat="44.47044941076758" lon="8.669261016438863"><ele>939.0</ele><time>2026-04-05T11:08:01Z</time></trkpt><trkpt lat="44.470342555019776" lon="8.669256716866862"><ele>939.0</ele><time>2026-04-05T11:08:02Z</time></trkpt><trkpt lat="44.470242555420555" lon="8.669251876344859"><ele>939.0000000000001</ele><time>2026-04-05T11:08:03Z</time></trkpt><trkpt lat="44.4701523121021" lon="8.669254966160963"><ele>939.0000000000001</ele><time>2026-04-05T11:08:04Z</time></trkpt><trkpt lat="44.47006887938458" lon="8.669266783241985"><ele>939.0</ele><time>2026-04-05T11:08:05Z</time></trkpt><trkpt lat="44.46996532180954" lon="8.669311744534832"><ele>939.0</ele><time>2026-04-05T11:08:06Z</time></trkpt><trkpt lat="44.4698243708461" lon="8.66941970492603"><ele>935.6666666666667</ele><time>2026-04-05T11:08:07Z</time></trkpt><trkpt lat="44.469678374669726" lon="8.669561931289797"><ele>932.3333333333334</ele><time>2026-04-05T11:08:08Z</time></trkpt><trkpt lat="44.4695541176087" lon="8.669701639668258"><ele>929.0</ele><time>2026-04-05T11:08:09Z</time></trkpt><trkpt lat="44.469435170930026" lon="8.669813275327764"><ele>936.3333333333334</ele><time>2026-04-05T11:08:10Z</time></trkpt><trkpt lat="44.4693154485071" lon="8.669914298376412"><ele>943.6666666666667</ele><time>2026-04-05T11:08:11Z</time></trkpt><trkpt lat="44.469182969517824" lon="8.670008974150857"><ele>951.0</ele><time>2026-04-05T11:08:12Z</time></trkpt><trkpt lat="44.469004686000105" lon="8.670113894952648"><ele>946.5</ele><time>2026-04-05T11:08:13Z</time></trkpt><trkpt lat="44.46877542875911" lon="8.670201448339178"><ele>942.0</ele><time>2026-04-05T11:08:14Z</time></trkpt><trkpt lat="44.46853139198738" lon="8.67032972897668"><ele>942.0</ele><time>2026-04-05T11:08:15Z</time></trkpt><trkpt lat="44.468265321523006" lon="8.670442598540554"><ele>942.0</ele><time>2026-04-05T11:08:16Z</time></trkpt><trkpt lat="44.46802685930784" lon="8.67056499136834"><ele>948.6666666666667</ele><time>2026-04-05T11:08:17Z</time></trkpt><trkpt lat="44.467816557888064" lon="8.670679097408954"><ele>955.3333333333334</ele><time>2026-04-05T11:08:18Z</time></trkpt><trkpt lat="44.467635057451744" lon="8.670769877046226"><ele>962.0</ele><time>2026-04-05T11:08:19Z</time></trkpt><trkpt lat="44.46747504973212" lon="8.670835490810516"><ele>962.0</ele><time>2026-04-05T11:08:19.999Z</time></trkpt><trkpt lat="44.467323132923305" lon="8.670903586955202"><ele>962.0</ele><time>2026-04-05T11:08:20.999Z</time></trkpt><trkpt lat="44.46718714117254" lon="8.67096232056925"><ele>962.0</ele><time>2026-04-05T11:08:21.999Z</time></trkpt><trkpt lat="44.46704849743507" lon="8.671002540571376"><ele>962.0</ele><time>2026-04-05T11:08:22.999Z</time></trkpt><trkpt lat="44.466904722981326" lon="8.6709797215156"><ele>962.25</ele><time>2026-04-05T11:08:23.999Z</time></trkpt><trkpt lat="44.46678342204843" lon="8.670912538178698"><ele>962.5</ele><time>2026-04-05T11:08:24.999Z</time></trkpt><trkpt lat="44.466706690355636" lon="8.670801462527029"><ele>962.75</ele><time>2026-04-05T11:08:25.999Z</time></trkpt><trkpt lat="44.46666498925496" lon="8.670654196595018"><ele>963.0</ele><time>2026-04-05T11:08:26.999Z</time></trkpt><trkpt lat="44.466653998893236" lon="8.670482444819818"><ele>963.0</ele><time>2026-04-05T11:08:27.999Z</time></trkpt><trkpt lat="44.46667930965478" lon="8.670325440429494"><ele>963.0</ele><time>2026-04-05T11:08:28.999Z</time></trkpt><trkpt lat="44.46676612702036" lon="8.670132886911764"><ele>963.0</ele><time>2026-04-05T11:08:29.999Z</time></trkpt><trkpt lat="44.46688721441505" lon="8.669894580389817"><ele>969.5</ele><time>2026-04-05T11:08:30.999Z</time></trkpt><trkpt lat="44.46702469606849" lon="8.669620553998806"><ele>976.0</ele><time>2026-04-05T11:08:31.999Z</time></trkpt><trkpt lat="44.4671607857247" lon="8.669320553586036"><ele>979.5</ele><time>2026-04-05T11:08:32.999Z</time></trkpt><trkpt lat="44.467281339338605" lon="8.66903931802389"><ele>983.0</ele><time>2026-04-05T11:08:33.999Z</time></trkpt><trkpt lat="44.46740771538442" lon="8.668751475469032"><ele>987.0</ele><time>2026-04-05T11:08:34.999Z</time></trkpt><trkpt lat="44.46753038137408" lon="8.668430476971558"><ele>991.0</ele><time>2026-04-05T11:08:35.999Z</time></trkpt><trkpt lat="44.46762364207611" lon="8.668085055738409"><ele>991.0</ele><time>2026-04-05T11:08:36.999Z</time></trkpt><trkpt lat="44.4676948470648" lon="8.66780208182141"><ele>991.0</ele><time>2026-04-05T11:08:37.999Z</time></trkpt><trkpt lat="44.4677493974979" lon="8.667583183415113"><ele>991.0</ele><time>2026-04-05T11:08:38.999Z</time></trkpt><trkpt lat="44.46783558840424" lon="8.667359493436692"><ele>990.0</ele><time>2026-04-05T11:08:39.999Z</time></trkpt><trkpt lat="44.46797920627565" lon="8.667105260234013"><ele>989.0</ele><time>2026-04-05T11:08:40.999Z</time></trkpt><trkpt lat="44.46815186021992" lon="8.666817206614656"><ele>996.0</ele><time>2026-04-05T11:08:41.999Z</time></trkpt><trkpt lat="44.46831488089066" lon="8.666545224938933"><ele>1003.0</ele><time>2026-04-05T11:08:42.999Z</time></trkpt><trkpt lat="44.46844457000974" lon="8.6663369825801"><ele>1003.0</ele><time>2026-04-05T11:08:43.999Z</time></trkpt><trkpt lat="44.468568129910985" lon="8.666160249893755"><ele>1003.0</ele><time>2026-04-05T11:08:44.999Z</time></trkpt><trkpt lat="44.46869000680106" lon="8.666013454510136"><ele>1003.0</ele><time>2026-04-05T11:08:45.999Z</time></trkpt><trkpt lat="44.46881280564144" lon="8.6658870012665"><ele>1003.0</ele><time>2026-04-05T11:08:46.999Z</time></trkpt><trkpt lat="44.46893264690042" lon="8.665785010005123"><ele>1003.0</ele><time>2026-04-05T11:08:47.999Z</time></trkpt><trkpt lat="44.469029897742956" lon="8.665712809304035"><ele>1003.0</ele><time>2026-04-05T11:08:48.999Z</time></trkpt><trkpt lat="44.46911101065159" lon="8.665658106443374"><ele>1003.0</ele><time>2026-04-05T11:08:49.999Z</time></trkpt><trkpt lat="44.46918982807783" lon="8.665598484123137"><ele>1003.0</ele><time>2026-04-05T11:08:50.999Z</time></trkpt><trkpt lat="44.46923727091374" lon="8.665521732700453"><ele>1002.9999999999999</ele><time>2026-04-05T11:08:51.999Z</time></trkpt><trkpt lat="44.46928476440816" lon="8.665424066389111"><ele>1003.0</ele><time>2026-04-05T11:08:52.999Z</time></trkpt><trkpt lat="44.46930516944818" lon="8.665294379278466"><ele>1003.0</ele><time>2026-04-05T11:08:53.999Z</time></trkpt><trkpt lat="44.46928733049309" lon="8.665174475940551"><ele>1003.0</ele><time>2026-04-05T11:08:54.999Z</time></trkpt><trkpt lat="44.46925678012333" lon="8.665081778018969"><ele>1002.9999999999999</ele><time>2026-04-05T11:08:55.999Z</time></trkpt><trkpt lat="44.46919011175078" lon="8.665003970524841"><ele>1003.0</ele><time>2026-04-05T11:08:56.999Z</time></trkpt><trkpt lat="44.46911057846717" lon="8.664956303334968"><ele>1004.0</ele><time>2026-04-05T11:08:57.999Z</time></trkpt><trkpt lat="44.46901935338216" lon="8.664963997492363"><ele>1005.0</ele><time>2026-04-05T11:08:58.999Z</time></trkpt><trkpt lat="44.46893222999742" lon="8.665032306097675"><ele>1006.0</ele><time>2026-04-05T11:08:59.999Z</time></trkpt><trkpt lat="44.468818177569595" lon="8.665172321387933"><ele>1007.0</ele><time>2026-04-05T11:09:00.999Z</time></trkpt><trkpt lat="44.46864877518191" lon="8.66531324092057"><ele>1012.0</ele><time>2026-04-05T11:09:01.999Z</time></trkpt><trkpt lat="44.4684576141137" lon="8.665487532930834"><ele>1017.0</ele><time>2026-04-05T11:09:02.999Z</time></trkpt><trkpt lat="44.46824642058638" lon="8.665690459085836"><ele>1017.0</ele><time>2026-04-05T11:09:03.999Z</time></trkpt><trkpt lat="44.46805102346486" lon="8.665839887228216"><ele>1017.0</ele><time>2026-04-05T11:09:04.999Z</time></trkpt><trkpt lat="44.467864235045525" lon="8.665998069713238"><ele>1017.0</ele><time>2026-04-05T11:09:05.999Z</time></trkpt><trkpt lat="44.467658679622375" lon="8.666131695612794"><ele>1020.5</ele><time>2026-04-05T11:09:06.999Z</time></trkpt><trkpt lat="44.467430405221464" lon="8.666240813767208"><ele>1024.0</ele><time>2026-04-05T11:09:07.999Z</time></trkpt><trkpt lat="44.46717905771788" lon="8.66633075027358"><ele>1030.0</ele><time>2026-04-05T11:09:08.999Z</time></trkpt><trkpt lat="44.466957984820645" lon="8.666385586909021"><ele>1036.0</ele><time>2026-04-05T11:09:09.999Z</time></trkpt><trkpt lat="44.4667679064753" lon="8.666455875721018"><ele>1042.0</ele><time>2026-04-05T11:09:10.999Z</time></trkpt><trkpt lat="44.466575330329285" lon="8.666586138001813"><ele>1042.0</ele><time>2026-04-05T11:09:11.999Z</time></trkpt><trkpt lat="44.46637110719489" lon="8.666751850143298"><ele>1042.0</ele><time>2026-04-05T11:09:12.999Z</time></trkpt><trkpt lat="44.46620964638704" lon="8.66690872380347"><ele>1042.0</ele><time>2026-04-05T11:09:13.999Z</time></trkpt><trkpt lat="44.46608228628419" lon="8.666996248098702"><ele>1040.3333333333333</ele><time>2026-04-05T11:09:14.999Z</time></trkpt><trkpt lat="44.46596634790256" lon="8.667082896947239"><ele>1038.6666666666667</ele><time>2026-04-05T11:09:15.999Z</time></trkpt><trkpt lat="44.465822803297996" lon="8.667099654691448"><ele>1037.0</ele><time>2026-04-05T11:09:16.999Z</time></trkpt><trkpt lat="44.46564881651733" lon="8.667030431597702"><ele>1037.0</ele><time>2026-04-05T11:09:17.999Z</time></trkpt><trkpt lat="44.46544704389456" lon="8.666951621398118"><ele>1037.0</ele><time>2026-04-05T11:09:18.999Z</time></trkpt><trkpt lat="44.46528105072879" lon="8.666893736820025"><ele>1037.0</ele><time>2026-04-05T11:09:19.999Z</time></trkpt><trkpt lat="44.465108944163646" lon="8.666873854908733"><ele>1035.0</ele><time>2026-04-05T11:09:20.999Z</time></trkpt><trkpt lat="44.46490157150438" lon="8.666917475319364"><ele>1033.0</ele><time>2026-04-05T11:09:21.999Z</time></trkpt><trkpt lat="44.464661596569485" lon="8.666979620752313"><ele>1037.6666666666665</ele><time>2026-04-05T11:09:22.999Z</time></trkpt><trkpt lat="44.464423235530894" lon="8.667041461600153"><ele>1042.3333333333333</ele><time>2026-04-05T11:09:23.999Z</time></trkpt><trkpt lat="44.46422165884226" lon="8.66709535819042"><ele>1047.0</ele><time>2026-04-05T11:09:25Z</time></trkpt><trkpt lat="44.463997017055775" lon="8.66716974124015"><ele>1050.0</ele><time>2026-04-05T11:09:26Z</time></trkpt><trkpt lat="44.46377644165053" lon="8.667249043640876"><ele>1053.0</ele><time>2026-04-05T11:09:27Z</time></trkpt><trkpt lat="44.46359186504265" lon="8.667315560592334"><ele>1056.0</ele><time>2026-04-05T11:09:28Z</time></trkpt><trkpt lat="44.46342706197745" lon="8.667374953242666"><ele>1056.0</ele><time>2026-04-05T11:09:29Z</time></trkpt><trkpt lat="44.463282071996794" lon="8.667427204193167"><ele>1056.0</ele><time>2026-04-05T11:09:30Z</time></trkpt><trkpt lat="44.46314122235594" lon="8.667491924447136"><ele>1056.0</ele><time>2026-04-05T11:09:31Z</time></trkpt><trkpt lat="44.463002389860975" lon="8.667530568461805"><ele>1056.0</ele><time>2026-04-05T11:09:32Z</time></trkpt><trkpt lat="44.46288007458801" lon="8.667558309561336"><ele>1056.5</ele><time>2026-04-05T11:09:33Z</time></trkpt><trkpt lat="44.46273878854005" lon="8.667603387425677"><ele>1057.0</ele><time>2026-04-05T11:09:34Z</time></trkpt><trkpt lat="44.462618634828175" lon="8.667627054675748"><ele>1057.5</ele><time>2026-04-05T11:09:35Z</time></trkpt><trkpt lat="44.46251000471394" lon="8.667656543022602"><ele>1058.0</ele><time>2026-04-05T11:09:36Z</time></trkpt><trkpt lat="44.462401340040365" lon="8.667668673763703"><ele>1058.0</ele><time>2026-04-05T11:09:37Z</time></trkpt><trkpt lat="44.46229406196869" lon="8.66769511872128"><ele>1058.0</ele><time>2026-04-05T11:09:38Z</time></trkpt><trkpt lat="44.46220106899125" lon="8.667707974473466"><ele>1058.0</ele><time>2026-04-05T11:09:39Z</time></trkpt><trkpt lat="44.46209961476055" lon="8.667713344444353"><ele>1058.0</ele><time>2026-04-05T11:09:41Z</time></trkpt><trkpt lat="44.4620358267604" lon="8.667726179311604"><ele>1058.0</ele><time>2026-04-05T11:09:43Z</time></trkpt><trkpt lat="44.462176641138015" lon="8.66774821133585"><ele>1058.0</ele><time>2026-04-05T11:10:26.999Z</time></trkpt><trkpt lat="44.46235505048999" lon="8.667685573194753"><ele>1058.0</ele><time>2026-04-05T11:10:28.999Z</time></trkpt><trkpt lat="44.46243558790908" lon="8.667678396545044"><ele>1058.0</ele><time>2026-04-05T11:10:29.999Z</time></trkpt><trkpt lat="44.46251275069425" lon="8.667671033577413"><ele>1058.0</ele><time>2026-04-05T11:10:30.999Z</time></trkpt><trkpt lat="44.462589819728166" lon="8.667659436586055"><ele>1058.0</ele><time>2026-04-05T11:10:31.999Z</time></trkpt><trkpt lat="44.46265611368227" lon="8.667629710740435"><ele>1058.0</ele><time>2026-04-05T11:10:32.999Z</time></trkpt><trkpt lat="44.46276322526464" lon="8.667570803023528"><ele>1058.0</ele><time>2026-04-05T11:10:33.999Z</time></trkpt><trkpt lat="44.462839333986196" lon="8.667547222046824"><ele>1058.0</ele><time>2026-04-05T11:10:34.999Z</time></trkpt><trkpt lat="44.46293051385793" lon="8.667512435384612"><ele>1058.0</ele><time>2026-04-05T11:10:35.999Z</time></trkpt><trkpt lat="44.46302784998478" lon="8.66756243289114"><ele>1058.0</ele><time>2026-04-05T11:10:36.999Z</time></trkpt><trkpt lat="44.46313186099897" lon="8.66752733539901"><ele>1057.5</ele><time>2026-04-05T11:10:37.999Z</time></trkpt><trkpt lat="44.46325087810998" lon="8.66746291614456"><ele>1057.0</ele><time>2026-04-05T11:10:38.999Z</time></trkpt><trkpt lat="44.4633513191221" lon="8.667434709714843"><ele>1056.5</ele><time>2026-04-05T11:10:39.999Z</time></trkpt><trkpt lat="44.463467669106194" lon="8.667395760659668"><ele>1056.0</ele><time>2026-04-05T11:10:40.999Z</time></trkpt><trkpt lat="44.46357481760769" lon="8.66735568139534"><ele>1056.0</ele><time>2026-04-05T11:10:41.999Z</time></trkpt><trkpt lat="44.46371104930325" lon="8.667329612264746"><ele>1056.0</ele><time>2026-04-05T11:10:42.999Z</time></trkpt><trkpt lat="44.46385839137504" lon="8.66726469436007"><ele>1056.0</ele><time>2026-04-05T11:10:43.999Z</time></trkpt><trkpt lat="44.464019659475895" lon="8.667188720898894"><ele>1053.0</ele><time>2026-04-05T11:10:44.999Z</time></trkpt><trkpt lat="44.46417404317322" lon="8.667170384122205"><ele>1050.0</ele><time>2026-04-05T11:10:45.999Z</time></trkpt><trkpt lat="44.46432791429105" lon="8.667116416203235"><ele>1047.0</ele><time>2026-04-05T11:10:46.999Z</time></trkpt><trkpt lat="44.464491418121426" lon="8.667054333943783"><ele>1042.3333333333333</ele><time>2026-04-05T11:10:47.999Z</time></trkpt><trkpt lat="44.46466635231471" lon="8.667025670162612"><ele>1037.6666666666665</ele><time>2026-04-05T11:10:48.999Z</time></trkpt><trkpt lat="44.464805155224305" lon="8.666989724873657"><ele>1033.0</ele><time>2026-04-05T11:10:49.999Z</time></trkpt><trkpt lat="44.46496171461449" lon="8.666949181261545"><ele>1033.0</ele><time>2026-04-05T11:10:50.999Z</time></trkpt><trkpt lat="44.46509714345424" lon="8.666905020502991"><ele>1033.0</ele><time>2026-04-05T11:10:51.999Z</time></trkpt><trkpt lat="44.46527396750173" lon="8.666935719056102"><ele>1033.0</ele><time>2026-04-05T11:10:52.999Z</time></trkpt><trkpt lat="44.46537565711466" lon="8.666971472603267"><ele>1033.0</ele><time>2026-04-05T11:10:53.999Z</time></trkpt><trkpt lat="44.46551004639108" lon="8.667026676673393"><ele>1034.0</ele><time>2026-04-05T11:10:54.999Z</time></trkpt><trkpt lat="44.46564279066837" lon="8.667074554858685"><ele>1035.0</ele><time>2026-04-05T11:10:55.999Z</time></trkpt><trkpt lat="44.465764269672476" lon="8.66711977238983"><ele>1036.0</ele><time>2026-04-05T11:10:56.999Z</time></trkpt><trkpt lat="44.46588431989705" lon="8.667133606444864"><ele>1037.0</ele><time>2026-04-05T11:10:57.999Z</time></trkpt><trkpt lat="44.46602116720997" lon="8.667085147727033"><ele>1037.0</ele><time>2026-04-05T11:10:58.999Z</time></trkpt><trkpt lat="44.46615517934416" lon="8.666989405551815"><ele>1037.0</ele><time>2026-04-05T11:10:59.999Z</time></trkpt><trkpt lat="44.46629785348232" lon="8.666856148924522"><ele>1037.0</ele><time>2026-04-05T11:11:00.999Z</time></trkpt><trkpt lat="44.46641672800523" lon="8.666746021698899"><ele>1038.6666666666667</ele><time>2026-04-05T11:11:01.999Z</time></trkpt><trkpt lat="44.466564184859116" lon="8.666634229311807"><ele>1040.3333333333333</ele><time>2026-04-05T11:11:02.999Z</time></trkpt><trkpt lat="44.46675480356313" lon="8.666517511059991"><ele>1042.0</ele><time>2026-04-05T11:11:03.999Z</time></trkpt><trkpt lat="44.46690955338265" lon="8.666449773269969"><ele>1042.0</ele><time>2026-04-05T11:11:04.999Z</time></trkpt><trkpt lat="44.467094082314745" lon="8.666402760555203"><ele>1042.0</ele><time>2026-04-05T11:11:05.999Z</time></trkpt><trkpt lat="44.467257523421516" lon="8.666365545264505"><ele>1042.0</ele><time>2026-04-05T11:11:06.999Z</time></trkpt><trkpt lat="44.4674464906613" lon="8.666297574006926"><ele>1040.3333333333333</ele><time>2026-04-05T11:11:07.999Z</time></trkpt><trkpt lat="44.46760543477925" lon="8.66620511080264"><ele>1038.6666666666667</ele><time>2026-04-05T11:11:08.999Z</time></trkpt><trkpt lat="44.46775126597959" lon="8.666115594231387"><ele>1037.0</ele><time>2026-04-05T11:11:09.999Z</time></trkpt><trkpt lat="44.4679037005262" lon="8.666032605840282"><ele>1027.0</ele><time>2026-04-05T11:11:10.999Z</time></trkpt><trkpt lat="44.46810323529752" lon="8.665861288185244"><ele>1017.0</ele><time>2026-04-05T11:11:11.999Z</time></trkpt><trkpt lat="44.4683012811168" lon="8.665683551757972"><ele>1017.0</ele><time>2026-04-05T11:11:12.999Z</time></trkpt><trkpt lat="44.46848498602852" lon="8.665518143346436"><ele>1017.0</ele><time>2026-04-05T11:11:13.999Z</time></trkpt><trkpt lat="44.46865063712438" lon="8.665342492088653"><ele>1017.0</ele><time>2026-04-05T11:11:14.999Z</time></trkpt><trkpt lat="44.46877475329764" lon="8.665227379535235"><ele>1015.0</ele><time>2026-04-05T11:11:15.999Z</time></trkpt><trkpt lat="44.46890496060008" lon="8.665135817228864"><ele>1013.0</ele><time>2026-04-05T11:11:16.999Z</time></trkpt><trkpt lat="44.4689824761846" lon="8.665071564505489"><ele>1011.0</ele><time>2026-04-05T11:11:17.999Z</time></trkpt><trkpt lat="44.469063577967894" lon="8.665034918723903"><ele>1009.0</ele><time>2026-04-05T11:11:18.999Z</time></trkpt><trkpt lat="44.46914611069086" lon="8.665055352699223"><ele>1007.0</ele><time>2026-04-05T11:11:19.999Z</time></trkpt><trkpt lat="44.469214910749805" lon="8.665123634354817"><ele>1007.0</ele><time>2026-04-05T11:11:20.999Z</time></trkpt><trkpt lat="44.46927352201337" lon="8.665215066319703"><ele>1007.0</ele><time>2026-04-05T11:11:21.999Z</time></trkpt><trkpt lat="44.46927133372306" lon="8.665367974615188"><ele>1007.0</ele><time>2026-04-05T11:11:22.999Z</time></trkpt><trkpt lat="44.46922140486797" lon="8.66549976307279"><ele>1007.0</ele><time>2026-04-05T11:11:23.999Z</time></trkpt><trkpt lat="44.469137594511814" lon="8.665602082191649"><ele>1007.0</ele><time>2026-04-05T11:11:24.999Z</time></trkpt><trkpt lat="44.469001527902954" lon="8.66569596883261"><ele>1005.6666666666667</ele><time>2026-04-05T11:11:25.999Z</time></trkpt><trkpt lat="44.46883473354978" lon="8.66581368095514"><ele>1004.3333333333333</ele><time>2026-04-05T11:11:26.999Z</time></trkpt><trkpt lat="44.468682680488065" lon="8.665973215450004"><ele>1003.0</ele><time>2026-04-05T11:11:27.999Z</time></trkpt><trkpt lat="44.468529891339166" lon="8.66617558217982"><ele>1003.0</ele><time>2026-04-05T11:11:28.999Z</time></trkpt><trkpt lat="44.4683758515849" lon="8.666406998007863"><ele>1003.0</ele><time>2026-04-05T11:11:29.999Z</time></trkpt><trkpt lat="44.468234682894796" lon="8.66663517630841"><ele>1003.0</ele><time>2026-04-05T11:11:31Z</time></trkpt><trkpt lat="44.46809799068516" lon="8.666834649471093"><ele>1003.3333333333333</ele><time>2026-04-05T11:11:32Z</time></trkpt><trkpt lat="44.46798202713275" lon="8.6670281215849"><ele>1003.6666666666667</ele><time>2026-04-05T11:11:33Z</time></trkpt><trkpt lat="44.46787417326679" lon="8.667211279401277"><ele>1004.0</ele><time>2026-04-05T11:11:34Z</time></trkpt><trkpt lat="44.46778690291429" lon="8.667403654764692"><ele>1004.0</ele><time>2026-04-05T11:11:35Z</time></trkpt><trkpt lat="44.46769999597823" lon="8.667660329272392"><ele>1004.0</ele><time>2026-04-05T11:11:36Z</time></trkpt><trkpt lat="44.46763161904703" lon="8.667918029121491"><ele>1004.0</ele><time>2026-04-05T11:11:37Z</time></trkpt><trkpt lat="44.467550316136744" lon="8.668203763531732"><ele>999.6666666666667</ele><time>2026-04-05T11:11:38Z</time></trkpt><trkpt lat="44.46746397899657" lon="8.668467192211278"><ele>995.3333333333333</ele><time>2026-04-05T11:11:39Z</time></trkpt><trkpt lat="44.467357667399234" lon="8.668742426444712"><ele>991.0</ele><time>2026-04-05T11:11:40Z</time></trkpt><trkpt lat="44.46724314133539" lon="8.66899266304723"><ele>988.3333333333333</ele><time>2026-04-05T11:11:41Z</time></trkpt><trkpt lat="44.46713132485752" lon="8.669227989931139"><ele>985.6666666666667</ele><time>2026-04-05T11:11:42Z</time></trkpt><trkpt lat="44.46703426199445" lon="8.669443207096842"><ele>983.0</ele><time>2026-04-05T11:11:43Z</time></trkpt><trkpt lat="44.4669360389319" lon="8.669653616626807"><ele>981.25</ele><time>2026-04-05T11:11:44Z</time></trkpt><trkpt lat="44.46685427353204" lon="8.66984615441203"><ele>979.5</ele><time>2026-04-05T11:11:45Z</time></trkpt><trkpt lat="44.46676916033672" lon="8.670000894491384"><ele>977.75</ele><time>2026-04-05T11:11:46Z</time></trkpt><trkpt lat="44.4667014178619" lon="8.670133105764256"><ele>976.0</ele><time>2026-04-05T11:11:47Z</time></trkpt><trkpt lat="44.466641608679744" lon="8.67026841465869"><ele>973.4</ele><time>2026-04-05T11:11:48Z</time></trkpt><trkpt lat="44.46660499188911" lon="8.670412708349627"><ele>970.8</ele><time>2026-04-05T11:11:49Z</time></trkpt><trkpt lat="44.46660094695765" lon="8.670565094451431"><ele>968.1999999999999</ele><time>2026-04-05T11:11:50Z</time></trkpt><trkpt lat="44.46661021626975" lon="8.670710560508855"><ele>965.5999999999999</ele><time>2026-04-05T11:11:51Z</time></trkpt><trkpt lat="44.46666150233142" lon="8.670841827973788"><ele>963.0</ele><time>2026-04-05T11:11:52Z</time></trkpt><trkpt lat="44.4667340197934" lon="8.670938732534193"><ele>963.0</ele><time>2026-04-05T11:11:53Z</time></trkpt><trkpt lat="44.46682963035416" lon="8.670986779198756"><ele>963.0</ele><time>2026-04-05T11:11:54Z</time></trkpt><trkpt lat="44.4669382965236" lon="8.671018411772181"><ele>963.0</ele><time>2026-04-05T11:11:55Z</time></trkpt><trkpt lat="44.4670606000508" lon="8.671025966935707"><ele>963.0</ele><time>2026-04-05T11:11:56Z</time></trkpt><trkpt lat="44.46718941053056" lon="8.670991748046164"><ele>962.6666666666667</ele><time>2026-04-05T11:11:57Z</time></trkpt><trkpt lat="44.4673482340317" lon="8.670935113253206"><ele>962.3333333333334</ele><time>2026-04-05T11:11:58Z</time></trkpt><trkpt lat="44.467548383281844" lon="8.670838912583212"><ele>962.0</ele><time>2026-04-05T11:11:59Z</time></trkpt><trkpt lat="44.46773326119932" lon="8.670750556101428"><ele>962.0</ele><time>2026-04-05T11:12:00Z</time></trkpt><trkpt lat="44.46791009467137" lon="8.67064813982568"><ele>962.0</ele><time>2026-04-05T11:12:01Z</time></trkpt><trkpt lat="44.46808347798154" lon="8.67056319817044"><ele>962.0</ele><time>2026-04-05T11:12:02Z</time></trkpt><trkpt lat="44.468244893253505" lon="8.670486667245035"><ele>955.3333333333334</ele><time>2026-04-05T11:12:03Z</time></trkpt><trkpt lat="44.46839527728775" lon="8.670414024175264"><ele>948.6666666666667</ele><time>2026-04-05T11:12:04Z</time></trkpt><trkpt lat="44.46853720253266" lon="8.67035081380678"><ele>942.0</ele><time>2026-04-05T11:12:05Z</time></trkpt><trkpt lat="44.46867579373501" lon="8.670301363684198"><ele>944.25</ele><time>2026-04-05T11:12:06Z</time></trkpt><trkpt lat="44.46879952547165" lon="8.670248863369546"><ele>946.5</ele><time>2026-04-05T11:12:07Z</time></trkpt><trkpt lat="44.46891696921087" lon="8.670191988846401"><ele>948.75</ele><time>2026-04-05T11:12:08Z</time></trkpt><trkpt lat="44.469028605341265" lon="8.670138224567415"><ele>951.0</ele><time>2026-04-05T11:12:09Z</time></trkpt><trkpt lat="44.469153961720835" lon="8.67007834171963"><ele>951.0</ele><time>2026-04-05T11:12:10Z</time></trkpt><trkpt lat="44.46925120318078" lon="8.670015616838134"><ele>950.9999999999999</ele><time>2026-04-05T11:12:11Z</time></trkpt><trkpt lat="44.46933575612677" lon="8.669951516748295"><ele>950.9999999999999</ele><time>2026-04-05T11:12:12Z</time></trkpt><trkpt lat="44.469414025705504" lon="8.669863548595137"><ele>951.0</ele><time>2026-04-05T11:12:13Z</time></trkpt><trkpt lat="44.469494051801526" lon="8.669792911387558"><ele>951.0</ele><time>2026-04-05T11:12:14Z</time></trkpt><trkpt lat="44.46957125794354" lon="8.66971925178648"><ele>949.0</ele><time>2026-04-05T11:12:15Z</time></trkpt><trkpt lat="44.46962802955065" lon="8.669656963518388"><ele>947.0</ele><time>2026-04-05T11:12:16Z</time></trkpt><trkpt lat="44.469678849646705" lon="8.669598785542066"><ele>945.0</ele><time>2026-04-05T11:12:17Z</time></trkpt><trkpt lat="44.46977512972883" lon="8.669529087125937"><ele>943.0</ele><time>2026-04-05T11:12:19Z</time></trkpt><trkpt lat="44.469840608286745" lon="8.669465192393117"><ele>941.0</ele><time>2026-04-05T11:12:21Z</time></trkpt><trkpt lat="44.46991126413438" lon="8.669429580454567"><ele>939.0</ele><time>2026-04-05T11:12:23Z</time></trkpt><trkpt lat="44.47003348302933" lon="8.66934395082246"><ele>939.0</ele><time>2026-04-05T11:12:43.999Z</time></trkpt><trkpt lat="44.470107923741914" lon="8.669314161883342"><ele>939.0</ele><time>2026-04-05T11:12:44.999Z</time></trkpt><trkpt lat="44.47018131603379" lon="8.66931030557087"><ele>939.0</ele><time>2026-04-05T11:12:45.999Z</time></trkpt><trkpt lat="44.470262657394244" lon="8.6693096768145"><ele>939.0</ele><time>2026-04-05T11:12:46.999Z</time></trkpt><trkpt lat="44.47034297282271" lon="8.669315769636851"><ele>939.0</ele><time>2026-04-05T11:12:47.999Z</time></trkpt><trkpt lat="44.47042077613399" lon="8.669322257310645"><ele>939.0</ele><time>2026-04-05T11:12:48.999Z</time></trkpt><trkpt lat="44.470505713898376" lon="8.669335945297124"><ele>938.1666666666666</ele><time>2026-04-05T11:12:49.999Z</time></trkpt><trkpt lat="44.47059460070383" lon="8.66933764914333"><ele>937.3333333333333</ele><time>2026-04-05T11:12:50.999Z</time></trkpt><trkpt lat="44.47066803357934" lon="8.66933730189475"><ele>936.5</ele><time>2026-04-05T11:12:51.999Z</time></trkpt><trkpt lat="44.47075460634689" lon="8.669338233097598"><ele>935.6666666666666</ele><time>2026-04-05T11:12:52.999Z</time></trkpt><trkpt lat="44.470836341768454" lon="8.66934650099148"><ele>934.8333333333333</ele><time>2026-04-05T11:12:53.999Z</time></trkpt><trkpt lat="44.470924013899776" lon="8.669352773258845"><ele>934.0</ele><time>2026-04-05T11:12:54.999Z</time></trkpt><trkpt lat="44.47101702172668" lon="8.66935595237616"><ele>934.0</ele><time>2026-04-05T11:12:55.999Z</time></trkpt><trkpt lat="44.47116839283297" lon="8.669357038294494"><ele>934.0</ele><time>2026-04-05T11:12:56.999Z</time></trkpt><trkpt lat="44.47135038194887" lon="8.669376273338276"><ele>934.0</ele><time>2026-04-05T11:12:57.999Z</time></trkpt><trkpt lat="44.47156390353451" lon="8.669383129413191"><ele>936.5</ele><time>2026-04-05T11:12:58.999Z</time></trkpt><trkpt lat="44.47182937213564" lon="8.669403720008761"><ele>939.0</ele><time>2026-04-05T11:12:59.999Z</time></trkpt><trkpt lat="44.47208038584637" lon="8.669421834117072"><ele>937.0</ele><time>2026-04-05T11:13:00.999Z</time></trkpt><trkpt lat="44.472298995400976" lon="8.669433813850258"><ele>935.0</ele><time>2026-04-05T11:13:01.999Z</time></trkpt><trkpt lat="44.47253192356172" lon="8.669448625286822"><ele>934.6666666666667</ele><time>2026-04-05T11:13:02.999Z</time></trkpt><trkpt lat="44.47272017045603" lon="8.669464965073377"><ele>934.3333333333333</ele><time>2026-04-05T11:13:03.999Z</time></trkpt><trkpt lat="44.47291009195465" lon="8.669472528862618"><ele>934.0</ele><time>2026-04-05T11:13:04.999Z</time></trkpt><trkpt lat="44.473099444414004" lon="8.669405352270644"><ele>934.0</ele><time>2026-04-05T11:13:05.999Z</time></trkpt><trkpt lat="44.47329912223407" lon="8.669302492440583"><ele>934.0</ele><time>2026-04-05T11:13:06.999Z</time></trkpt><trkpt lat="44.47345846607043" lon="8.669194037268161"><ele>934.0</ele><time>2026-04-05T11:13:07.999Z</time></trkpt><trkpt lat="44.47360288104902" lon="8.669047423566777"><ele>934.0</ele><time>2026-04-05T11:13:08.999Z</time></trkpt><trkpt lat="44.47373109931589" lon="8.66886209111854"><ele>934.0</ele><time>2026-04-05T11:13:09.999Z</time></trkpt><trkpt lat="44.47385599258344" lon="8.668621974479318"><ele>934.0</ele><time>2026-04-05T11:13:10.999Z</time></trkpt><trkpt lat="44.47394920935193" lon="8.668406603159834"><ele>937.0</ele><time>2026-04-05T11:13:11.999Z</time></trkpt><trkpt lat="44.474017073953895" lon="8.66826330871942"><ele>940.0</ele><time>2026-04-05T11:13:12.999Z</time></trkpt><trkpt lat="44.47409677734963" lon="8.66815281411744"><ele>943.0</ele><time>2026-04-05T11:13:13.999Z</time></trkpt><trkpt lat="44.47420897447864" lon="8.668086533083654"><ele>946.0</ele><time>2026-04-05T11:13:14.999Z</time></trkpt><trkpt lat="44.47434551352161" lon="8.668050061975343"><ele>946.0</ele><time>2026-04-05T11:13:15.999Z</time></trkpt><trkpt lat="44.47447262085111" lon="8.668121395485931"><ele>946.0</ele><time>2026-04-05T11:13:16.999Z</time></trkpt><trkpt lat="44.47462347896561" lon="8.668198984792108"><ele>946.0</ele><time>2026-04-05T11:13:17.999Z</time></trkpt><trkpt lat="44.47480406457346" lon="8.66826706543087"><ele>948.0</ele><time>2026-04-05T11:13:18.999Z</time></trkpt><trkpt lat="44.474979371807166" lon="8.668317234551147"><ele>950.0</ele><time>2026-04-05T11:13:19.999Z</time></trkpt><trkpt lat="44.47515989900859" lon="8.668321772631495"><ele>952.0</ele><time>2026-04-05T11:13:20.999Z</time></trkpt><trkpt lat="44.475338888353534" lon="8.668270037444437"><ele>956.3333333333333</ele><time>2026-04-05T11:13:21.999Z</time></trkpt><trkpt lat="44.47551598176086" lon="8.668181695341097"><ele>960.6666666666667</ele><time>2026-04-05T11:13:22.999Z</time></trkpt><trkpt lat="44.475683989609756" lon="8.668057565396957"><ele>965.0</ele><time>2026-04-05T11:13:23.999Z</time></trkpt><trkpt lat="44.475844645752524" lon="8.667897445436306"><ele>960.0</ele><time>2026-04-05T11:13:24.999Z</time></trkpt><trkpt lat="44.47596299651135" lon="8.667743937596477"><ele>955.0</ele><time>2026-04-05T11:13:25.999Z</time></trkpt><trkpt lat="44.47606220050524" lon="8.667619934140111"><ele>950.0</ele><time>2026-04-05T11:13:26.999Z</time></trkpt><trkpt lat="44.47615161866211" lon="8.667522903464093"><ele>945.0</ele><time>2026-04-05T11:13:27.999Z</time></trkpt><trkpt lat="44.47624058542069" lon="8.667475075739407"><ele>947.5</ele><time>2026-04-05T11:13:28.999Z</time></trkpt><trkpt lat="44.47630594008732" lon="8.66746784035901"><ele>950.0</ele><time>2026-04-05T11:13:29.999Z</time></trkpt><trkpt lat="44.47636756690309" lon="8.667491310733878"><ele>952.5</ele><time>2026-04-05T11:13:30.999Z</time></trkpt><trkpt lat="44.47641692202498" lon="8.667594776086494"><ele>955.0</ele><time>2026-04-05T11:13:31.999Z</time></trkpt><trkpt lat="44.47642877794968" lon="8.667711151365918"><ele>957.5</ele><time>2026-04-05T11:13:32.999Z</time></trkpt><trkpt lat="44.476389124813586" lon="8.667819972940318"><ele>960.0</ele><time>2026-04-05T11:13:33.999Z</time></trkpt><trkpt lat="44.47629321343881" lon="8.667935779359977"><ele>961.6666666666667</ele><time>2026-04-05T11:13:34.999Z</time></trkpt><trkpt lat="44.4761504350799" lon="8.668084114175603"><ele>963.3333333333334</ele><time>2026-04-05T11:13:35.999Z</time></trkpt><trkpt lat="44.47598580439796" lon="8.668261902399506"><ele>965.0</ele><time>2026-04-05T11:13:37Z</time></trkpt><trkpt lat="44.47580099564188" lon="8.668470457927121"><ele>965.3333333333334</ele><time>2026-04-05T11:13:38Z</time></trkpt><trkpt lat="44.475638404601916" lon="8.668667182267814"><ele>965.6666666666667</ele><time>2026-04-05T11:13:39Z</time></trkpt><trkpt lat="44.47550530074704" lon="8.668825652688122"><ele>966.0</ele><time>2026-04-05T11:13:40Z</time></trkpt><trkpt lat="44.47537651606917" lon="8.66894136446973"><ele>966.0</ele><time>2026-04-05T11:13:41Z</time></trkpt><trkpt lat="44.475271640289314" lon="8.669099904484227"><ele>966.0</ele><time>2026-04-05T11:13:42Z</time></trkpt><trkpt lat="44.47518888436126" lon="8.669237053633791"><ele>966.0</ele><time>2026-04-05T11:13:43Z</time></trkpt><trkpt lat="44.47513965109062" lon="8.669399236434225"><ele>966.0</ele><time>2026-04-05T11:13:44Z</time></trkpt><trkpt lat="44.4751188356961" lon="8.669572431518699"><ele>965.6666666666667</ele><time>2026-04-05T11:13:45Z</time></trkpt><trkpt lat="44.475115615164526" lon="8.669765234728558"><ele>965.3333333333334</ele><time>2026-04-05T11:13:46Z</time></trkpt><trkpt lat="44.47519361337004" lon="8.669961858899697"><ele>965.0</ele><time>2026-04-05T11:13:47Z</time></trkpt><trkpt lat="44.47528836991397" lon="8.670192881806045"><ele>959.0</ele><time>2026-04-05T11:13:48Z</time></trkpt><trkpt lat="44.475395365014606" lon="8.670481705871394"><ele>953.0</ele><time>2026-04-05T11:13:49Z</time></trkpt><trkpt lat="44.47550315535431" lon="8.670733558967447"><ele>947.0</ele><time>2026-04-05T11:13:50Z</time></trkpt><trkpt lat="44.4755934857618" lon="8.670925759796221"><ele>950.0</ele><time>2026-04-05T11:13:51Z</time></trkpt><trkpt lat="44.475662548296185" lon="8.671102090828473"><ele>953.0</ele><time>2026-04-05T11:13:52Z</time></trkpt><trkpt lat="44.475742629489545" lon="8.67125154710074"><ele>956.0</ele><time>2026-04-05T11:13:53Z</time></trkpt><trkpt lat="44.4758457461992" lon="8.671383104215069"><ele>959.0</ele><time>2026-04-05T11:13:54Z</time></trkpt><trkpt lat="44.4759743280798" lon="8.671478287106241"><ele>959.0</ele><time>2026-04-05T11:13:55Z</time></trkpt><trkpt lat="44.47614423054036" lon="8.671563883417695"><ele>959.0</ele><time>2026-04-05T11:13:56Z</time></trkpt><trkpt lat="44.47634301750025" lon="8.671641349882874"><ele>959.0</ele><time>2026-04-05T11:13:57Z</time></trkpt><trkpt lat="44.476504007320735" lon="8.671684287690631"><ele>965.3333333333334</ele><time>2026-04-05T11:13:58Z</time></trkpt><trkpt lat="44.47666773730405" lon="8.671685476991707"><ele>971.6666666666667</ele><time>2026-04-05T11:13:59Z</time></trkpt><trkpt lat="44.47682326369908" lon="8.671653982746331"><ele>978.0</ele><time>2026-04-05T11:14:00Z</time></trkpt><trkpt lat="44.476960818440276" lon="8.671599414545764"><ele>978.0</ele><time>2026-04-05T11:14:01Z</time></trkpt><trkpt lat="44.4770850910759" lon="8.671605205409046"><ele>978.0</ele><time>2026-04-05T11:14:02Z</time></trkpt><trkpt lat="44.477199522303046" lon="8.671668015241812"><ele>978.0</ele><time>2026-04-05T11:14:03Z</time></trkpt><trkpt lat="44.47730747540866" lon="8.671783468118152"><ele>978.0</ele><time>2026-04-05T11:14:04Z</time></trkpt><trkpt lat="44.47741590971282" lon="8.671910181811665"><ele>974.5</ele><time>2026-04-05T11:14:05Z</time></trkpt><trkpt lat="44.477529105996084" lon="8.672004730450743"><ele>971.0</ele><time>2026-04-05T11:14:06Z</time></trkpt><trkpt lat="44.47765326292905" lon="8.672046953208177"><ele>967.5</ele><time>2026-04-05T11:14:07Z</time></trkpt><trkpt lat="44.47780798929047" lon="8.6720783352419"><ele>964.0</ele><time>2026-04-05T11:14:08Z</time></trkpt><trkpt lat="44.4779722927522" lon="8.672118402177487"><ele>964.0</ele><time>2026-04-05T11:14:09Z</time></trkpt><trkpt lat="44.478120419461824" lon="8.672170261936648"><ele>964.0</ele><time>2026-04-05T11:14:10Z</time></trkpt><trkpt lat="44.47825954069067" lon="8.672252965702477"><ele>964.0</ele><time>2026-04-05T11:14:11Z</time></trkpt><trkpt lat="44.47841076786464" lon="8.672371665194861"><ele>964.0</ele><time>2026-04-05T11:14:12Z</time></trkpt><trkpt lat="44.47855286392479" lon="8.672513351573315"><ele>964.0</ele><time>2026-04-05T11:14:13Z</time></trkpt><trkpt lat="44.47867495965127" lon="8.672655111021486"><ele>964.0</ele><time>2026-04-05T11:14:14Z</time></trkpt><trkpt lat="44.47878895550654" lon="8.67279725796285"><ele>966.75</ele><time>2026-04-05T11:14:15Z</time></trkpt><trkpt lat="44.47888819888162" lon="8.672935941515972"><ele>969.5</ele><time>2026-04-05T11:14:16Z</time></trkpt><trkpt lat="44.478934746358306" lon="8.673092265179733"><ele>972.25</ele><time>2026-04-05T11:14:17Z</time></trkpt><trkpt lat="44.478961766410876" lon="8.673294619567073"><ele>975.0</ele><time>2026-04-05T11:14:18Z</time></trkpt><trkpt lat="44.478960097608486" lon="8.673494051243804"><ele>969.75</ele><time>2026-04-05T11:14:19Z</time></trkpt><trkpt lat="44.47899840760928" lon="8.67368418668387"><ele>964.5</ele><time>2026-04-05T11:14:20Z</time></trkpt><trkpt lat="44.47907096597409" lon="8.673855678070954"><ele>959.25</ele><time>2026-04-05T11:14:21Z</time></trkpt><trkpt lat="44.47918886511634" lon="8.67400841098152"><ele>954.0</ele><time>2026-04-05T11:14:22Z</time></trkpt><trkpt lat="44.479309399123785" lon="8.674131039412677"><ele>954.0</ele><time>2026-04-05T11:14:23Z</time></trkpt><trkpt lat="44.47938477723079" lon="8.674269870274928"><ele>954.0</ele><time>2026-04-05T11:14:24Z</time></trkpt><trkpt lat="44.479435515440336" lon="8.674396657418503"><ele>954.0</ele><time>2026-04-05T11:14:25Z</time></trkpt><trkpt lat="44.47945597436361" lon="8.674554771403283"><ele>954.0</ele><time>2026-04-05T11:14:26Z</time></trkpt><trkpt lat="44.47942858731667" lon="8.674715787716396"><ele>950.5</ele><time>2026-04-05T11:14:27Z</time></trkpt><trkpt lat="44.47936331769756" lon="8.674864206657949"><ele>947.0</ele><time>2026-04-05T11:14:28Z</time></trkpt><trkpt lat="44.47928890989598" lon="8.675000912488306"><ele>943.5</ele><time>2026-04-05T11:14:29Z</time></trkpt><trkpt lat="44.479221126610454" lon="8.675115766668156"><ele>940.0</ele><time>2026-04-05T11:14:30Z</time></trkpt><trkpt lat="44.479202809040224" lon="8.675259346150789"><ele>939.0</ele><time>2026-04-05T11:14:31Z</time></trkpt><trkpt lat="44.47921033653751" lon="8.675403001872526"><ele>938.0</ele><time>2026-04-05T11:14:32Z</time></trkpt><trkpt lat="44.47924330615195" lon="8.675524731632752"><ele>937.0</ele><time>2026-04-05T11:14:33Z</time></trkpt><trkpt lat="44.47930208356203" lon="8.675624759202883"><ele>936.0</ele><time>2026-04-05T11:14:34Z</time></trkpt><trkpt lat="44.47934784266938" lon="8.675739372329101"><ele>935.0</ele><time>2026-04-05T11:14:34.999Z</time></trkpt><trkpt lat="44.47941024137159" lon="8.675888298413756"><ele>935.0</ele><time>2026-04-05T11:14:35.999Z</time></trkpt><trkpt lat="44.479445466784114" lon="8.676033871443554"><ele>935.0</ele><time>2026-04-05T11:14:36.999Z</time></trkpt><trkpt lat="44.47945098164416" lon="8.676199674667247"><ele>935.0</ele><time>2026-04-05T11:14:37.999Z</time></trkpt><trkpt lat="44.479430319026214" lon="8.67642487870254"><ele>935.0</ele><time>2026-04-05T11:14:38.999Z</time></trkpt><trkpt lat="44.47940496676037" lon="8.676710898731448"><ele>930.0</ele><time>2026-04-05T11:14:39.999Z</time></trkpt><trkpt lat="44.47938363610834" lon="8.67694643362937"><ele>925.0</ele><time>2026-04-05T11:14:40.999Z</time></trkpt><trkpt lat="44.479366037207456" lon="8.677140762207799"><ele>920.0</ele><time>2026-04-05T11:14:41.999Z</time></trkpt><trkpt lat="44.479351736925416" lon="8.67729925899075"><ele>915.0</ele><time>2026-04-05T11:14:42.999Z</time></trkpt><trkpt lat="44.47934031655343" lon="8.677448503377242"><ele>915.0</ele><time>2026-04-05T11:14:43.999Z</time></trkpt><trkpt lat="44.47934456001927" lon="8.67759600793375"><ele>915.0</ele><time>2026-04-05T11:14:44.999Z</time></trkpt><trkpt lat="44.47937900217643" lon="8.677745532752754"><ele>915.0</ele><time>2026-04-05T11:14:45.999Z</time></trkpt><trkpt lat="44.47944533401593" lon="8.677894808124345"><ele>915.0</ele><time>2026-04-05T11:14:46.999Z</time></trkpt><trkpt lat="44.47953988567145" lon="8.678016179884896"><ele>917.25</ele><time>2026-04-05T11:14:47.999Z</time></trkpt><trkpt lat="44.47966127750472" lon="8.678100405031133"><ele>919.5</ele><time>2026-04-05T11:14:48.999Z</time></trkpt><trkpt lat="44.4797922448719" lon="8.678196159026104"><ele>921.75</ele><time>2026-04-05T11:14:49.999Z</time></trkpt><trkpt lat="44.47992582514107" lon="8.678294062431178"><ele>924.0</ele><time>2026-04-05T11:14:50.999Z</time></trkpt><trkpt lat="44.480059413333095" lon="8.678401143699872"><ele>924.0</ele><time>2026-04-05T11:14:51.999Z</time></trkpt><trkpt lat="44.48018963577967" lon="8.678550744825179"><ele>924.0</ele><time>2026-04-05T11:14:52.999Z</time></trkpt><trkpt lat="44.480291306873816" lon="8.678715958849592"><ele>924.0</ele><time>2026-04-05T11:14:53.999Z</time></trkpt><trkpt lat="44.48038491651474" lon="8.67887825421986"><ele>923.0</ele><time>2026-04-05T11:14:54.999Z</time></trkpt><trkpt lat="44.48046973934978" lon="8.679032541976932"><ele>922.0</ele><time>2026-04-05T11:14:55.999Z</time></trkpt><trkpt lat="44.480529842270585" lon="8.679170786597254"><ele>921.0</ele><time>2026-04-05T11:14:56.999Z</time></trkpt><trkpt lat="44.48055339618542" lon="8.679324044049439"><ele>920.0</ele><time>2026-04-05T11:14:57.999Z</time></trkpt><trkpt lat="44.48055924233815" lon="8.679534544975816"><ele>920.0</ele><time>2026-04-05T11:14:58.999Z</time></trkpt><trkpt lat="44.48056283396014" lon="8.679740094238383"><ele>920.0</ele><time>2026-04-05T11:14:59.999Z</time></trkpt><trkpt lat="44.48056931151342" lon="8.679926168090168"><ele>920.0</ele><time>2026-04-05T11:15:00.999Z</time></trkpt><trkpt lat="44.48059404900317" lon="8.680104400538415"><ele>920.0</ele><time>2026-04-05T11:15:01.999Z</time></trkpt><trkpt lat="44.4806541472051" lon="8.680267136505647"><ele>912.75</ele><time>2026-04-05T11:15:02.999Z</time></trkpt><trkpt lat="44.480740695684005" lon="8.680393864669105"><ele>905.5</ele><time>2026-04-05T11:15:03.999Z</time></trkpt><trkpt lat="44.48085796422194" lon="8.68048717339692"><ele>898.25</ele><time>2026-04-05T11:15:04.999Z</time></trkpt><trkpt lat="44.48099022315817" lon="8.680547748198727"><ele>891.0</ele><time>2026-04-05T11:15:05.999Z</time></trkpt><trkpt lat="44.4811102386604" lon="8.680613699924567"><ele>891.0</ele><time>2026-04-05T11:15:06.999Z</time></trkpt><trkpt lat="44.481209596141724" lon="8.680706824375962"><ele>891.0</ele><time>2026-04-05T11:15:07.999Z</time></trkpt><trkpt lat="44.48129392301974" lon="8.680821964746023"><ele>891.0</ele><time>2026-04-05T11:15:08.999Z</time></trkpt><trkpt lat="44.481359980256016" lon="8.680978320230471"><ele>891.0</ele><time>2026-04-05T11:15:09.999Z</time></trkpt><trkpt lat="44.48140919331493" lon="8.681177036721504"><ele>892.6666666666667</ele><time>2026-04-05T11:15:10.999Z</time></trkpt><trkpt lat="44.48145589078193" lon="8.681405115765642"><ele>894.3333333333334</ele><time>2026-04-05T11:15:11.999Z</time></trkpt><trkpt lat="44.481503158578136" lon="8.681646945712107"><ele>896.0</ele><time>2026-04-05T11:15:12.999Z</time></trkpt><trkpt lat="44.48155329469134" lon="8.681902994607714"><ele>891.0</ele><time>2026-04-05T11:15:13.999Z</time></trkpt><trkpt lat="44.481601586836625" lon="8.682139188015867"><ele>886.0</ele><time>2026-04-05T11:15:14.999Z</time></trkpt><trkpt lat="44.48164514870334" lon="8.682356812580403"><ele>881.0</ele><time>2026-04-05T11:15:15.999Z</time></trkpt><trkpt lat="44.48167446130585" lon="8.682560170059116"><ele>881.0</ele><time>2026-04-05T11:15:16.999Z</time></trkpt><trkpt lat="44.48167543982476" lon="8.68276063808992"><ele>881.0</ele><time>2026-04-05T11:15:17.999Z</time></trkpt><trkpt lat="44.4816404531037" lon="8.682943211603535"><ele>881.0</ele><time>2026-04-05T11:15:18.999Z</time></trkpt><trkpt lat="44.48161722813007" lon="8.683116638311738"><ele>881.0</ele><time>2026-04-05T11:15:19.999Z</time></trkpt><trkpt lat="44.481617875582316" lon="8.683291804356974"><ele>879.3333333333334</ele><time>2026-04-05T11:15:20.999Z</time></trkpt><trkpt lat="44.48164339387955" lon="8.683479375858424"><ele>877.6666666666667</ele><time>2026-04-05T11:15:21.999Z</time></trkpt><trkpt lat="44.48171651858903" lon="8.683688158098027"><ele>876.0</ele><time>2026-04-05T11:15:22.999Z</time></trkpt><trkpt lat="44.48179998253752" lon="8.683897799591694"><ele>875.6666666666667</ele><time>2026-04-05T11:15:23.999Z</time></trkpt><trkpt lat="44.4818893652332" lon="8.6841154270353"><ele>875.3333333333334</ele><time>2026-04-05T11:15:24.999Z</time></trkpt><trkpt lat="44.48200445673041" lon="8.68435451829245"><ele>875.0</ele><time>2026-04-05T11:15:25.999Z</time></trkpt><trkpt lat="44.482194131602085" lon="8.684619680702054"><ele>875.0</ele><time>2026-04-05T11:15:26.999Z</time></trkpt><trkpt lat="44.482362949347454" lon="8.684858010450151"><ele>875.0</ele><time>2026-04-05T11:15:27.999Z</time></trkpt><trkpt lat="44.48250563159325" lon="8.685057342491914"><ele>875.0</ele><time>2026-04-05T11:15:28.999Z</time></trkpt><trkpt lat="44.48262827663754" lon="8.685227746034961"><ele>868.25</ele><time>2026-04-05T11:15:29.999Z</time></trkpt><trkpt lat="44.482735746515985" lon="8.685374222051138"><ele>861.5</ele><time>2026-04-05T11:15:30.999Z</time></trkpt><trkpt lat="44.48282377741328" lon="8.685511717923013"><ele>854.75</ele><time>2026-04-05T11:15:31.999Z</time></trkpt><trkpt lat="44.48288843733219" lon="8.685662862397773"><ele>848.0</ele><time>2026-04-05T11:15:32.999Z</time></trkpt><trkpt lat="44.48291269043707" lon="8.685819378425766"><ele>848.0</ele><time>2026-04-05T11:15:33.999Z</time></trkpt><trkpt lat="44.48291642281013" lon="8.68599783925152"><ele>848.0</ele><time>2026-04-05T11:15:34.999Z</time></trkpt><trkpt lat="44.48286472109984" lon="8.686181961610863"><ele>848.0</ele><time>2026-04-05T11:15:35.999Z</time></trkpt><trkpt lat="44.482755496487705" lon="8.686370414644436"><ele>848.0</ele><time>2026-04-05T11:15:36.999Z</time></trkpt><trkpt lat="44.482636547281594" lon="8.68658348383012"><ele>849.5</ele><time>2026-04-05T11:15:37.999Z</time></trkpt><trkpt lat="44.48254670241616" lon="8.686740384824656"><ele>851.0</ele><time>2026-04-05T11:15:38.999Z</time></trkpt><trkpt lat="44.482484565043606" lon="8.686889815397635"><ele>852.5</ele><time>2026-04-05T11:15:39.999Z</time></trkpt><trkpt lat="44.48245265081962" lon="8.687069746195556"><ele>854.0</ele><time>2026-04-05T11:15:40.999Z</time></trkpt><trkpt lat="44.48246311252241" lon="8.687268507923202"><ele>853.0</ele><time>2026-04-05T11:15:41.999Z</time></trkpt><trkpt lat="44.48251053527829" lon="8.687475189252122"><ele>852.0</ele><time>2026-04-05T11:15:43Z</time></trkpt><trkpt lat="44.48259445379502" lon="8.687699145671768"><ele>851.0</ele><time>2026-04-05T11:15:44Z</time></trkpt><trkpt lat="44.48266330697172" lon="8.68790217225444"><ele>851.0</ele><time>2026-04-05T11:15:45Z</time></trkpt><trkpt lat="44.48272228075608" lon="8.688049819870853"><ele>851.0</ele><time>2026-04-05T11:15:46Z</time></trkpt><trkpt lat="44.48275028380429" lon="8.68819355428822"><ele>851.0</ele><time>2026-04-05T11:15:47Z</time></trkpt><trkpt lat="44.482757580269734" lon="8.688367895546946"><ele>851.0</ele><time>2026-04-05T11:15:48Z</time></trkpt><trkpt lat="44.4826986373947" lon="8.688533531667586"><ele>854.3333333333334</ele><time>2026-04-05T11:15:49Z</time></trkpt><trkpt lat="44.482586231210426" lon="8.68869283769985"><ele>857.6666666666667</ele><time>2026-04-05T11:15:50Z</time></trkpt><trkpt lat="44.48251070933754" lon="8.688915878916035"><ele>861.0</ele><time>2026-04-05T11:15:51Z</time></trkpt><trkpt lat="44.48245708168355" lon="8.68919040379877"><ele>865.3333333333333</ele><time>2026-04-05T11:15:52Z</time></trkpt><trkpt lat="44.48240154574612" lon="8.689440667899879"><ele>869.6666666666666</ele><time>2026-04-05T11:15:53Z</time></trkpt><trkpt lat="44.48235779177366" lon="8.689605366291621"><ele>874.0</ele><time>2026-04-05T11:15:54Z</time></trkpt><trkpt lat="44.48228069255448" lon="8.68976751996858"><ele>874.0</ele><time>2026-04-05T11:15:55Z</time></trkpt><trkpt lat="44.48215462133071" lon="8.689916032080827"><ele>874.0</ele><time>2026-04-05T11:15:56Z</time></trkpt><trkpt lat="44.48200588666583" lon="8.690061042135952"><ele>874.0</ele><time>2026-04-05T11:15:57Z</time></trkpt><trkpt lat="44.48188275256823" lon="8.690184893756115"><ele>866.0</ele><time>2026-04-05T11:15:58Z</time></trkpt><trkpt lat="44.48177109428137" lon="8.690298037545114"><ele>858.0</ele><time>2026-04-05T11:15:59Z</time></trkpt><trkpt lat="44.48167732448859" lon="8.690449127393967"><ele>850.0</ele><time>2026-04-05T11:16:00Z</time></trkpt><trkpt lat="44.48161382811809" lon="8.690666124112216"><ele>842.0</ele><time>2026-04-05T11:16:01Z</time></trkpt><trkpt lat="44.481580125630536" lon="8.690878154032362"><ele>838.0</ele><time>2026-04-05T11:16:02Z</time></trkpt><trkpt lat="44.48158717605984" lon="8.69109904647992"><ele>834.0</ele><time>2026-04-05T11:16:03Z</time></trkpt><trkpt lat="44.481632700056586" lon="8.691331301389136"><ele>830.0</ele><time>2026-04-05T11:16:04Z</time></trkpt><trkpt lat="44.48171729517728" lon="8.691570294069479"><ele>830.0</ele><time>2026-04-05T11:16:05Z</time></trkpt><trkpt lat="44.48181801907" lon="8.691860694460273"><ele>830.0</ele><time>2026-04-05T11:16:06Z</time></trkpt><trkpt lat="44.481890022910584" lon="8.692123779242406"><ele>830.0</ele><time>2026-04-05T11:16:07Z</time></trkpt><trkpt lat="44.48195281213958" lon="8.692359198476177"><ele>830.6666666666667</ele><time>2026-04-05T11:16:08Z</time></trkpt><trkpt lat="44.482018600745505" lon="8.692579674527758"><ele>831.3333333333333</ele><time>2026-04-05T11:16:09Z</time></trkpt><trkpt lat="44.482095637478764" lon="8.69278547220826"><ele>832.0</ele><time>2026-04-05T11:16:10Z</time></trkpt><trkpt lat="44.48223029670913" lon="8.692974356459603"><ele>832.0</ele><time>2026-04-05T11:16:11Z</time></trkpt><trkpt lat="44.48236462238426" lon="8.693187377706456"><ele>832.0</ele><time>2026-04-05T11:16:12Z</time></trkpt><trkpt lat="44.48248446416459" lon="8.693346840150612"><ele>832.0</ele><time>2026-04-05T11:16:13Z</time></trkpt><trkpt lat="44.48259175105145" lon="8.693491137179743"><ele>829.8</ele><time>2026-04-05T11:16:14Z</time></trkpt><trkpt lat="44.482675827002346" lon="8.693611810045372"><ele>827.6</ele><time>2026-04-05T11:16:15Z</time></trkpt><trkpt lat="44.48274443154989" lon="8.693729310135245"><ele>825.4</ele><time>2026-04-05T11:16:16Z</time></trkpt><trkpt lat="44.48277432014021" lon="8.693853103561471"><ele>823.1999999999999</ele><time>2026-04-05T11:16:17Z</time></trkpt><trkpt lat="44.48275962032952" lon="8.693996284953263"><ele>821.0</ele><time>2026-04-05T11:16:18Z</time></trkpt><trkpt lat="44.48270781299278" lon="8.694141149666962"><ele>821.0</ele><time>2026-04-05T11:16:19Z</time></trkpt><trkpt lat="44.48259786021717" lon="8.694264223860491"><ele>821.0</ele><time>2026-04-05T11:16:20Z</time></trkpt><trkpt lat="44.48243542595191" lon="8.694437840765248"><ele>821.0</ele><time>2026-04-05T11:16:21Z</time></trkpt><trkpt lat="44.48223951407176" lon="8.694664757205606"><ele>811.5</ele><time>2026-04-05T11:16:22Z</time></trkpt><trkpt lat="44.48203335236069" lon="8.694872174236524"><ele>802.0</ele><time>2026-04-05T11:16:23Z</time></trkpt><trkpt lat="44.48184593095605" lon="8.695040476693556"><ele>802.0</ele><time>2026-04-05T11:16:24Z</time></trkpt><trkpt lat="44.481662622364766" lon="8.69520012029632"><ele>802.0</ele><time>2026-04-05T11:16:25Z</time></trkpt><trkpt lat="44.48149144036356" lon="8.695359787216406"><ele>802.0</ele><time>2026-04-05T11:16:26Z</time></trkpt><trkpt lat="44.48133309790789" lon="8.695530802493893"><ele>798.0</ele><time>2026-04-05T11:16:27Z</time></trkpt><trkpt lat="44.48119168770771" lon="8.69570422930374"><ele>794.0</ele><time>2026-04-05T11:16:28Z</time></trkpt><trkpt lat="44.48107339276134" lon="8.69586739093151"><ele>790.0</ele><time>2026-04-05T11:16:29Z</time></trkpt><trkpt lat="44.48097311910696" lon="8.696047123209821"><ele>793.3333333333333</ele><time>2026-04-05T11:16:30Z</time></trkpt><trkpt lat="44.48089899500894" lon="8.696248682088836"><ele>796.6666666666667</ele><time>2026-04-05T11:16:31Z</time></trkpt><trkpt lat="44.48084371898923" lon="8.696459577637304"><ele>800.0</ele><time>2026-04-05T11:16:32Z</time></trkpt><trkpt lat="44.48082179464045" lon="8.696677057390032"><ele>800.0</ele><time>2026-04-05T11:16:33Z</time></trkpt><trkpt lat="44.480838388953124" lon="8.6969030711982"><ele>800.0</ele><time>2026-04-05T11:16:34Z</time></trkpt><trkpt lat="44.48085027204692" lon="8.697118331754202"><ele>800.0</ele><time>2026-04-05T11:16:35Z</time></trkpt><trkpt lat="44.48085951250033" lon="8.697274027737647"><ele>800.0</ele><time>2026-04-05T11:16:36Z</time></trkpt><trkpt lat="44.480826408753536" lon="8.697437204933394"><ele>799.6666666666667</ele><time>2026-04-05T11:16:37Z</time></trkpt><trkpt lat="44.4807358365697" lon="8.69762334065562"><ele>799.3333333333333</ele><time>2026-04-05T11:16:38Z</time></trkpt><trkpt lat="44.48063569384274" lon="8.697839639606922"><ele>799.0</ele><time>2026-04-05T11:16:39Z</time></trkpt><trkpt lat="44.48054389355625" lon="8.698008459331678"><ele>798.25</ele><time>2026-04-05T11:16:40Z</time></trkpt><trkpt lat="44.48048014090803" lon="8.698137888882679"><ele>797.5</ele><time>2026-04-05T11:16:41Z</time></trkpt><trkpt lat="44.4804431381128" lon="8.698277466650932"><ele>796.75</ele><time>2026-04-05T11:16:41.999Z</time></trkpt><trkpt lat="44.48045032662469" lon="8.698449703482673"><ele>796.0</ele><time>2026-04-05T11:16:42.999Z</time></trkpt><trkpt lat="44.48048018918822" lon="8.698636959738053"><ele>792.25</ele><time>2026-04-05T11:16:43.999Z</time></trkpt><trkpt lat="44.48059819190015" lon="8.69877247003192"><ele>788.5</ele><time>2026-04-05T11:16:44.999Z</time></trkpt><trkpt lat="44.48071422657749" lon="8.69892043919123"><ele>784.75</ele><time>2026-04-05T11:16:45.999Z</time></trkpt><trkpt lat="44.48081364015169" lon="8.699036165367533"><ele>781.0</ele><time>2026-04-05T11:16:46.999Z</time></trkpt><trkpt lat="44.48088663716094" lon="8.699150908277046"><ele>781.0</ele><time>2026-04-05T11:16:47.999Z</time></trkpt><trkpt lat="44.48092755920478" lon="8.699282326689472"><ele>781.0</ele><time>2026-04-05T11:16:48.999Z</time></trkpt><trkpt lat="44.480946891158275" lon="8.69944481574257"><ele>781.0</ele><time>2026-04-05T11:16:49.999Z</time></trkpt><trkpt lat="44.48091861005039" lon="8.699613848831858"><ele>781.0</ele><time>2026-04-05T11:16:50.999Z</time></trkpt><trkpt lat="44.48087722443789" lon="8.699785860705408"><ele>778.25</ele><time>2026-04-05T11:16:51.999Z</time></trkpt><trkpt lat="44.48083059425572" lon="8.699934949063534"><ele>775.5</ele><time>2026-04-05T11:16:52.999Z</time></trkpt><trkpt lat="44.48083691247792" lon="8.7001303508514"><ele>772.75</ele><time>2026-04-05T11:16:53.999Z</time></trkpt><trkpt lat="44.480898170427686" lon="8.700350798133423"><ele>770.0</ele><time>2026-04-05T11:16:54.999Z</time></trkpt><trkpt lat="44.480947433168204" lon="8.70058337667058"><ele>768.6666666666667</ele><time>2026-04-05T11:16:55.999Z</time></trkpt><trkpt lat="44.48099425855721" lon="8.700833164105033"><ele>767.3333333333334</ele><time>2026-04-05T11:16:56.999Z</time></trkpt><trkpt lat="44.48102404802277" lon="8.70115202243681"><ele>766.0</ele><time>2026-04-05T11:16:57.999Z</time></trkpt><trkpt lat="44.48100459164309" lon="8.701490473722787"><ele>764.6666666666667</ele><time>2026-04-05T11:16:58.999Z</time></trkpt><trkpt lat="44.48101275694069" lon="8.701762230036586"><ele>763.3333333333334</ele><time>2026-04-05T11:16:59.999Z</time></trkpt><trkpt lat="44.48100596274855" lon="8.701981026231527"><ele>762.0</ele><time>2026-04-05T11:17:00.999Z</time></trkpt><trkpt lat="44.480984782096066" lon="8.702160316700072"><ele>762.0</ele><time>2026-04-05T11:17:01.999Z</time></trkpt><trkpt lat="44.48092122561054" lon="8.702317867044835"><ele>762.0</ele><time>2026-04-05T11:17:02.999Z</time></trkpt><trkpt lat="44.480809403027386" lon="8.702485666354779"><ele>762.0</ele><time>2026-04-05T11:17:03.999Z</time></trkpt><trkpt lat="44.48066942480104" lon="8.702670765630975"><ele>766.75</ele><time>2026-04-05T11:17:04.999Z</time></trkpt><trkpt lat="44.480573343721666" lon="8.70282915765929"><ele>771.5</ele><time>2026-04-05T11:17:05.999Z</time></trkpt><trkpt lat="44.48051289363258" lon="8.702977778393336"><ele>776.25</ele><time>2026-04-05T11:17:06.999Z</time></trkpt><trkpt lat="44.48049581975568" lon="8.70313778440367"><ele>781.0</ele><time>2026-04-05T11:17:07.999Z</time></trkpt><trkpt lat="44.48049239713108" lon="8.703309074975584"><ele>781.0</ele><time>2026-04-05T11:17:08.999Z</time></trkpt><trkpt lat="44.48044152399177" lon="8.70345951457105"><ele>781.0</ele><time>2026-04-05T11:17:09.999Z</time></trkpt><trkpt lat="44.48030747893906" lon="8.703633121696612"><ele>781.0</ele><time>2026-04-05T11:17:10.999Z</time></trkpt><trkpt lat="44.48016994937991" lon="8.703880831690716"><ele>776.5</ele><time>2026-04-05T11:17:11.999Z</time></trkpt><trkpt lat="44.4799496713921" lon="8.70417038534597"><ele>772.0</ele><time>2026-04-05T11:17:12.999Z</time></trkpt><trkpt lat="44.47977199756451" lon="8.704398117114643"><ele>769.6666666666666</ele><time>2026-04-05T11:17:13.999Z</time></trkpt><trkpt lat="44.479637091358086" lon="8.704563493716778"><ele>767.3333333333333</ele><time>2026-04-05T11:17:14.999Z</time></trkpt><trkpt lat="44.47945834261118" lon="8.704732930702589"><ele>765.0</ele><time>2026-04-05T11:17:15.999Z</time></trkpt><trkpt lat="44.47926927106985" lon="8.704883856996297"><ele>765.0</ele><time>2026-04-05T11:17:16.999Z</time></trkpt><trkpt lat="44.47907956882734" lon="8.705005859338447"><ele>765.0</ele><time>2026-04-05T11:17:17.999Z</time></trkpt><trkpt lat="44.47891728914214" lon="8.705098078905635"><ele>765.0</ele><time>2026-04-05T11:17:18.999Z</time></trkpt><trkpt lat="44.478791516470935" lon="8.70518720136798"><ele>763.6</ele><time>2026-04-05T11:17:19.999Z</time></trkpt><trkpt lat="44.478682025303016" lon="8.70525158962668"><ele>762.2</ele><time>2026-04-05T11:17:20.999Z</time></trkpt><trkpt lat="44.47860452137928" lon="8.705322766207253"><ele>760.8</ele><time>2026-04-05T11:17:21.999Z</time></trkpt><trkpt lat="44.47854278933097" lon="8.705430419802797"><ele>759.4</ele><time>2026-04-05T11:17:22.999Z</time></trkpt><trkpt lat="44.47853722205358" lon="8.705562801771283"><ele>758.0</ele><time>2026-04-05T11:17:23.999Z</time></trkpt><trkpt lat="44.47858147830567" lon="8.705675540197873"><ele>758.0</ele><time>2026-04-05T11:17:24.999Z</time></trkpt><trkpt lat="44.47868510441168" lon="8.705785849295564"><ele>758.0</ele><time>2026-04-05T11:17:25.999Z</time></trkpt><trkpt lat="44.47883555531076" lon="8.705928598191468"><ele>758.0</ele><time>2026-04-05T11:17:26.999Z</time></trkpt><trkpt lat="44.47894670158367" lon="8.706088460804775"><ele>761.75</ele><time>2026-04-05T11:17:27.999Z</time></trkpt><trkpt lat="44.47902586886996" lon="8.706198498021392"><ele>765.5</ele><time>2026-04-05T11:17:28.999Z</time></trkpt><trkpt lat="44.47906946435902" lon="8.706335266608026"><ele>769.25</ele><time>2026-04-05T11:17:29.999Z</time></trkpt><trkpt lat="44.47908602930543" lon="8.706512189795985"><ele>773.0</ele><time>2026-04-05T11:17:30.999Z</time></trkpt><trkpt lat="44.47908189616787" lon="8.706706896365207"><ele>773.0</ele><time>2026-04-05T11:17:31.999Z</time></trkpt><trkpt lat="44.479051729883935" lon="8.706886948360266"><ele>773.0</ele><time>2026-04-05T11:17:32.999Z</time></trkpt><trkpt lat="44.47898799806484" lon="8.707035876971034"><ele>773.0</ele><time>2026-04-05T11:17:33.999Z</time></trkpt><trkpt lat="44.47894957353744" lon="8.707202736598832"><ele>773.0</ele><time>2026-04-05T11:17:34.999Z</time></trkpt><trkpt lat="44.47890362861609" lon="8.707350510276406"><ele>773.2</ele><time>2026-04-05T11:17:35.999Z</time></trkpt><trkpt lat="44.47893757762373" lon="8.707507519707047"><ele>773.4</ele><time>2026-04-05T11:17:36.999Z</time></trkpt><trkpt lat="44.47897064734908" lon="8.707655966000528"><ele>773.6</ele><time>2026-04-05T11:17:37.999Z</time></trkpt><trkpt lat="44.478999706753804" lon="8.707786539832682"><ele>773.8000000000001</ele><time>2026-04-05T11:17:38.999Z</time></trkpt><trkpt lat="44.478999622802554" lon="8.707912266322"><ele>774.0</ele><time>2026-04-05T11:17:39.999Z</time></trkpt><trkpt lat="44.478928901770544" lon="8.708053473823641"><ele>774.25</ele><time>2026-04-05T11:17:40.999Z</time></trkpt><trkpt lat="44.478845958450265" lon="8.708189062444653"><ele>774.5</ele><time>2026-04-05T11:17:41.999Z</time></trkpt><trkpt lat="44.478796639065195" lon="8.70831274181747"><ele>774.75</ele><time>2026-04-05T11:17:42.999Z</time></trkpt><trkpt lat="44.47877002711411" lon="8.708435916339143"><ele>775.0</ele><time>2026-04-05T11:17:43.999Z</time></trkpt><trkpt lat="44.47881583019019" lon="8.708607079012115"><ele>775.0</ele><time>2026-04-05T11:17:44.999Z</time></trkpt><trkpt lat="44.47886569035013" lon="8.70876140973428"><ele>775.0</ele><time>2026-04-05T11:17:45.999Z</time></trkpt><trkpt lat="44.47889135205375" lon="8.708888768926064"><ele>775.0</ele><time>2026-04-05T11:17:46.999Z</time></trkpt><trkpt lat="44.47888569894922" lon="8.709002640437612"><ele>775.0</ele><time>2026-04-05T11:17:47.999Z</time></trkpt><trkpt lat="44.47880474873673" lon="8.709124556409419"><ele>775.0</ele><time>2026-04-05T11:17:49Z</time></trkpt><trkpt lat="44.47868882891545" lon="8.709259825940252"><ele>769.75</ele><time>2026-04-05T11:17:50Z</time></trkpt><trkpt lat="44.47855415278321" lon="8.709408369069855"><ele>764.5</ele><time>2026-04-05T11:17:51Z</time></trkpt><trkpt lat="44.47844287803938" lon="8.709540683674708"><ele>759.25</ele><time>2026-04-05T11:17:52Z</time></trkpt><trkpt lat="44.47834016156708" lon="8.709653289467138"><ele>754.0</ele><time>2026-04-05T11:17:53Z</time></trkpt><trkpt lat="44.478244519553435" lon="8.709757541577021"><ele>754.0</ele><time>2026-04-05T11:17:54Z</time></trkpt><trkpt lat="44.478155298605806" lon="8.709916278845036"><ele>754.0</ele><time>2026-04-05T11:17:55Z</time></trkpt><trkpt lat="44.47806877238172" lon="8.710132058786268"><ele>754.0</ele><time>2026-04-05T11:17:56Z</time></trkpt><trkpt lat="44.477969490474045" lon="8.710328065225962"><ele>750.25</ele><time>2026-04-05T11:17:57Z</time></trkpt><trkpt lat="44.47790480398819" lon="8.710519889694215"><ele>746.5</ele><time>2026-04-05T11:17:58Z</time></trkpt><trkpt lat="44.477857319358854" lon="8.71069740146372"><ele>742.75</ele><time>2026-04-05T11:17:59Z</time></trkpt><trkpt lat="44.47782097555643" lon="8.71083418581261"><ele>739.0</ele><time>2026-04-05T11:18:00Z</time></trkpt><trkpt lat="44.477795094912956" lon="8.710955315302764"><ele>739.0</ele><time>2026-04-05T11:18:01Z</time></trkpt><trkpt lat="44.47771830146434" lon="8.711030956684372"><ele>739.0</ele><time>2026-04-05T11:18:02Z</time></trkpt><trkpt lat="44.47761756127316" lon="8.711087463878956"><ele>739.0</ele><time>2026-04-05T11:18:03Z</time></trkpt><trkpt lat="44.47752599652566" lon="8.711151960292872"><ele>739.0</ele><time>2026-04-05T11:18:04Z</time></trkpt><trkpt lat="44.47745035086512" lon="8.711264314644758"><ele>739.0</ele><time>2026-04-05T11:18:05Z</time></trkpt><trkpt lat="44.47736959108632" lon="8.711379285358799"><ele>740.0</ele><time>2026-04-05T11:18:06Z</time></trkpt><trkpt lat="44.47730463754194" lon="8.711504009420015"><ele>741.0</ele><time>2026-04-05T11:18:07Z</time></trkpt><trkpt lat="44.4772753691734" lon="8.71161652457132"><ele>742.0</ele><time>2026-04-05T11:18:08Z</time></trkpt><trkpt lat="44.47727275351148" lon="8.711723567872868"><ele>743.0</ele><time>2026-04-05T11:18:09Z</time></trkpt><trkpt lat="44.47731079297705" lon="8.711831266526389"><ele>744.0</ele><time>2026-04-05T11:18:10Z</time></trkpt><trkpt lat="44.477401803280586" lon="8.711908328941593"><ele>744.0</ele><time>2026-04-05T11:18:11Z</time></trkpt><trkpt lat="44.477474387149805" lon="8.711967775893457"><ele>744.0</ele><time>2026-04-05T11:18:12Z</time></trkpt><trkpt lat="44.47754540602062" lon="8.712006532020933"><ele>744.0</ele><time>2026-04-05T11:18:13Z</time></trkpt><trkpt lat="44.47764529274662" lon="8.711949178603339"><ele>744.0</ele><time>2026-04-05T11:18:14Z</time></trkpt><trkpt lat="44.47773826734603" lon="8.71190198244796"><ele>744.0</ele><time>2026-04-05T11:18:15Z</time></trkpt><trkpt lat="44.477833363229536" lon="8.711891014883424"><ele>744.0</ele><time>2026-04-05T11:18:16Z</time></trkpt><trkpt lat="44.47790425570788" lon="8.7118813798946"><ele>744.0</ele><time>2026-04-05T11:18:17Z</time></trkpt><trkpt lat="44.47797392300325" lon="8.71191293781913"><ele>744.0</ele><time>2026-04-05T11:18:18Z</time></trkpt><trkpt lat="44.478050857295386" lon="8.712085787795152"><ele>744.0</ele><time>2026-04-05T11:18:20Z</time></trkpt><trkpt lat="44.47811095092441" lon="8.712170830126263"><ele>744.0</ele><time>2026-04-05T11:18:21Z</time></trkpt><trkpt lat="44.4781810395845" lon="8.712247007201984"><ele>739.2</ele><time>2026-04-05T11:18:22Z</time></trkpt><trkpt lat="44.478284015067516" lon="8.712248647775638"><ele>734.4000000000001</ele><time>2026-04-05T11:18:23Z</time></trkpt><trkpt lat="44.478377774546196" lon="8.712252714603725"><ele>729.6</ele><time>2026-04-05T11:18:24Z</time></trkpt><trkpt lat="44.4784733986781" lon="8.712244516640965"><ele>724.8</ele><time>2026-04-05T11:18:25Z</time></trkpt><trkpt lat="44.47856260518729" lon="8.71223961110148"><ele>720.0</ele><time>2026-04-05T11:18:26Z</time></trkpt><trkpt lat="44.478655797515806" lon="8.712234296847907"><ele>720.0</ele><time>2026-04-05T11:18:27Z</time></trkpt><trkpt lat="44.47874383837673" lon="8.712231035065477"><ele>720.0</ele><time>2026-04-05T11:18:28Z</time></trkpt><trkpt lat="44.47884064201131" lon="8.712223915356981"><ele>720.0</ele><time>2026-04-05T11:18:29Z</time></trkpt><trkpt lat="44.47892172006574" lon="8.712222595417684"><ele>720.0</ele><time>2026-04-05T11:18:30Z</time></trkpt><trkpt lat="44.47901930306587" lon="8.712158502305291"><ele>720.0</ele><time>2026-04-05T11:18:31Z</time></trkpt><trkpt lat="44.47913517011067" lon="8.7120309779653"><ele>727.0</ele><time>2026-04-05T11:18:32Z</time></trkpt><trkpt lat="44.47925590811307" lon="8.711866779781598"><ele>734.0</ele><time>2026-04-05T11:18:33Z</time></trkpt><trkpt lat="44.4793653344329" lon="8.711717557151117"><ele>741.0</ele><time>2026-04-05T11:18:34Z</time></trkpt><trkpt lat="44.479458335979096" lon="8.711581748182663"><ele>741.0</ele><time>2026-04-05T11:18:35Z</time></trkpt><trkpt lat="44.47954448281856" lon="8.711496899057247"><ele>741.0</ele><time>2026-04-05T11:18:36Z</time></trkpt><trkpt lat="44.479603834342385" lon="8.711401093122552"><ele>741.0</ele><time>2026-04-05T11:18:37Z</time></trkpt><trkpt lat="44.47969205535299" lon="8.711368104877616"><ele>741.0</ele><time>2026-04-05T11:18:38Z</time></trkpt><trkpt lat="44.47979244626827" lon="8.711398063074174"><ele>741.0</ele><time>2026-04-05T11:18:39Z</time></trkpt><trkpt lat="44.479905196584866" lon="8.711435769841806"><ele>736.5</ele><time>2026-04-05T11:18:40Z</time></trkpt><trkpt lat="44.48003754600737" lon="8.711501223961632"><ele>732.0</ele><time>2026-04-05T11:18:41Z</time></trkpt><trkpt lat="44.480149695742206" lon="8.711592639748922"><ele>727.5</ele><time>2026-04-05T11:18:42Z</time></trkpt><trkpt lat="44.48026738545253" lon="8.711667002971266"><ele>723.0</ele><time>2026-04-05T11:18:43Z</time></trkpt><trkpt lat="44.48035782764142" lon="8.711743990416574"><ele>723.0</ele><time>2026-04-05T11:18:44Z</time></trkpt><trkpt lat="44.48040676023881" lon="8.711867356421436"><ele>723.0</ele><time>2026-04-05T11:18:45Z</time></trkpt><trkpt lat="44.48043084636894" lon="8.71201300702143"><ele>723.0</ele><time>2026-04-05T11:18:46Z</time></trkpt><trkpt lat="44.480515046788696" lon="8.712087204100051"><ele>723.0</ele><time>2026-04-05T11:18:47Z</time></trkpt><trkpt lat="44.480632996923816" lon="8.712149876560343"><ele>723.0</ele><time>2026-04-05T11:18:48Z</time></trkpt><trkpt lat="44.48076247265318" lon="8.712231218408755"><ele>716.6666666666666</ele><time>2026-04-05T11:18:49Z</time></trkpt><trkpt lat="44.48090430355917" lon="8.712313191047594"><ele>710.3333333333333</ele><time>2026-04-05T11:18:50Z</time></trkpt><trkpt lat="44.48103935105318" lon="8.71243121413448"><ele>704.0</ele><time>2026-04-05T11:18:50.999Z</time></trkpt><trkpt lat="44.48114563299532" lon="8.712556705969002"><ele>704.0</ele><time>2026-04-05T11:18:51.999Z</time></trkpt><trkpt lat="44.48124634575705" lon="8.712653149852182"><ele>704.0</ele><time>2026-04-05T11:18:52.999Z</time></trkpt><trkpt lat="44.48135955151005" lon="8.712714795039084"><ele>704.0</ele><time>2026-04-05T11:18:53.999Z</time></trkpt><trkpt lat="44.481478811055176" lon="8.712741728084714"><ele>704.0</ele><time>2026-04-05T11:18:54.999Z</time></trkpt><trkpt lat="44.48157076878665" lon="8.712779830854968"><ele>701.5</ele><time>2026-04-05T11:18:55.999Z</time></trkpt><trkpt lat="44.48166148472584" lon="8.712951410350493"><ele>699.0</ele><time>2026-04-05T11:18:57.999Z</time></trkpt><trkpt lat="44.48172374232716" lon="8.713080351273698"><ele>696.5</ele><time>2026-04-05T11:18:58.999Z</time></trkpt><trkpt lat="44.48177981208317" lon="8.713197557723863"><ele>694.0</ele><time>2026-04-05T11:18:59.999Z</time></trkpt><trkpt lat="44.4818541054485" lon="8.71329244664192"><ele>694.0</ele><time>2026-04-05T11:19:00.999Z</time></trkpt><trkpt lat="44.481951978160744" lon="8.713370977747555"><ele>694.0</ele><time>2026-04-05T11:19:01.999Z</time></trkpt><trkpt lat="44.482056495122166" lon="8.71340015588246"><ele>694.0</ele><time>2026-04-05T11:19:02.999Z</time></trkpt><trkpt lat="44.48217592491864" lon="8.713385395809233"><ele>694.0</ele><time>2026-04-05T11:19:03.999Z</time></trkpt><trkpt lat="44.48234068080768" lon="8.713329028266621"><ele>695.6666666666667</ele><time>2026-04-05T11:19:04.999Z</time></trkpt><trkpt lat="44.48252305395263" lon="8.713260591561756"><ele>697.3333333333334</ele><time>2026-04-05T11:19:05.999Z</time></trkpt><trkpt lat="44.482699093175725" lon="8.713196953789028"><ele>699.0</ele><time>2026-04-05T11:19:06.999Z</time></trkpt><trkpt lat="44.482854203841335" lon="8.713143888562414"><ele>695.5</ele><time>2026-04-05T11:19:07.999Z</time></trkpt><trkpt lat="44.483006165771776" lon="8.713094816786985"><ele>692.0</ele><time>2026-04-05T11:19:08.999Z</time></trkpt><trkpt lat="44.483136502162274" lon="8.713060967889438"><ele>688.5</ele><time>2026-04-05T11:19:09.999Z</time></trkpt><trkpt lat="44.48326711984765" lon="8.713051719690354"><ele>685.0</ele><time>2026-04-05T11:19:10.999Z</time></trkpt><trkpt lat="44.48339876704394" lon="8.713099652063011"><ele>685.0</ele><time>2026-04-05T11:19:11.999Z</time></trkpt><trkpt lat="44.483546097178355" lon="8.71318434287009"><ele>685.0</ele><time>2026-04-05T11:19:12.999Z</time></trkpt><trkpt lat="44.48371120014858" lon="8.713223130974388"><ele>685.0</ele><time>2026-04-05T11:19:13.999Z</time></trkpt><trkpt lat="44.48388791848651" lon="8.713223134921018"><ele>685.75</ele><time>2026-04-05T11:19:14.999Z</time></trkpt><trkpt lat="44.48406745335644" lon="8.71323791842919"><ele>686.5</ele><time>2026-04-05T11:19:15.999Z</time></trkpt><trkpt lat="44.4842089024652" lon="8.713295892633727"><ele>687.25</ele><time>2026-04-05T11:19:16.999Z</time></trkpt><trkpt lat="44.48432273780981" lon="8.71334771801532"><ele>688.0</ele><time>2026-04-05T11:19:17.999Z</time></trkpt><trkpt lat="44.48441136360245" lon="8.713416829220202"><ele>688.0</ele><time>2026-04-05T11:19:18.999Z</time></trkpt><trkpt lat="44.48448458949388" lon="8.71351447818162"><ele>688.0</ele><time>2026-04-05T11:19:19.999Z</time></trkpt><trkpt lat="44.484527997483774" lon="8.71364959096661"><ele>688.0</ele><time>2026-04-05T11:19:20.999Z</time></trkpt><trkpt lat="44.48455020821786" lon="8.71382077470202"><ele>688.0</ele><time>2026-04-05T11:19:21.999Z</time></trkpt><trkpt lat="44.48458058210003" lon="8.71396297512457"><ele>688.0</ele><time>2026-04-05T11:19:22.999Z</time></trkpt><trkpt lat="44.48463802312908" lon="8.714093197291914"><ele>685.5</ele><time>2026-04-05T11:19:23.999Z</time></trkpt><trkpt lat="44.48474793687358" lon="8.714197288590654"><ele>683.0</ele><time>2026-04-05T11:19:24.999Z</time></trkpt><trkpt lat="44.48486863292519" lon="8.71429166899588"><ele>680.5</ele><time>2026-04-05T11:19:25.999Z</time></trkpt><trkpt lat="44.4849828824514" lon="8.714386107650105"><ele>678.0</ele><time>2026-04-05T11:19:26.999Z</time></trkpt><trkpt lat="44.48507633681335" lon="8.714481902105174"><ele>675.0</ele><time>2026-04-05T11:19:27.999Z</time></trkpt><trkpt lat="44.48515465946228" lon="8.714609192032603"><ele>672.0</ele><time>2026-04-05T11:19:28.999Z</time></trkpt><trkpt lat="44.48522806012588" lon="8.714707269695184"><ele>669.0</ele><time>2026-04-05T11:19:29.999Z</time></trkpt><trkpt lat="44.48534167164317" lon="8.71478139218962"><ele>666.0</ele><time>2026-04-05T11:19:30.999Z</time></trkpt><trkpt lat="44.48548487227565" lon="8.71483059373608"><ele>666.0</ele><time>2026-04-05T11:19:31.999Z</time></trkpt><trkpt lat="44.485633719990645" lon="8.714868779370978"><ele>666.0</ele><time>2026-04-05T11:19:32.999Z</time></trkpt><trkpt lat="44.48574730217167" lon="8.714904741100966"><ele>666.0</ele><time>2026-04-05T11:19:33.999Z</time></trkpt><trkpt lat="44.485845484540235" lon="8.714927117884715"><ele>666.0</ele><time>2026-04-05T11:19:34.999Z</time></trkpt><trkpt lat="44.48591845478175" lon="8.715021041684864"><ele>666.0</ele><time>2026-04-05T11:19:35.999Z</time></trkpt><trkpt lat="44.485971948270716" lon="8.715141418383709"><ele>666.0</ele><time>2026-04-05T11:19:36.999Z</time></trkpt><trkpt lat="44.48601065222656" lon="8.715282518697592"><ele>666.0</ele><time>2026-04-05T11:19:37.999Z</time></trkpt><trkpt lat="44.48601909726627" lon="8.715432497438783"><ele>666.0</ele><time>2026-04-05T11:19:38.999Z</time></trkpt><trkpt lat="44.48598972006084" lon="8.715556866603306"><ele>666.0</ele><time>2026-04-05T11:19:39.999Z</time></trkpt><trkpt lat="44.48593766598644" lon="8.715683550092463"><ele>664.25</ele><time>2026-04-05T11:19:40.999Z</time></trkpt><trkpt lat="44.48586018600794" lon="8.715819477487816"><ele>662.5</ele><time>2026-04-05T11:19:41.999Z</time></trkpt><trkpt lat="44.4857533807704" lon="8.715955879151148"><ele>660.75</ele><time>2026-04-05T11:19:42.999Z</time></trkpt><trkpt lat="44.48564483614496" lon="8.716079727587276"><ele>659.0</ele><time>2026-04-05T11:19:43.999Z</time></trkpt><trkpt lat="44.4855585785904" lon="8.716176859901973"><ele>657.6666666666666</ele><time>2026-04-05T11:19:44.999Z</time></trkpt><trkpt lat="44.485487422727736" lon="8.716278208387775"><ele>656.3333333333333</ele><time>2026-04-05T11:19:45.999Z</time></trkpt><trkpt lat="44.48544529370684" lon="8.716370115899394"><ele>655.0</ele><time>2026-04-05T11:19:46.999Z</time></trkpt><trkpt lat="44.48544196586241" lon="8.716494352917117"><ele>653.6666666666666</ele><time>2026-04-05T11:19:47.999Z</time></trkpt><trkpt lat="44.485488659588746" lon="8.716595068970452"><ele>652.3333333333334</ele><time>2026-04-05T11:19:48.999Z</time></trkpt><trkpt lat="44.48556358915925" lon="8.716667270061498"><ele>651.0</ele><time>2026-04-05T11:19:49.999Z</time></trkpt><trkpt lat="44.48568722277716" lon="8.716675361303158"><ele>651.0</ele><time>2026-04-05T11:19:50.999Z</time></trkpt><trkpt lat="44.48584316336536" lon="8.716684492101823"><ele>651.0</ele><time>2026-04-05T11:19:51.999Z</time></trkpt><trkpt lat="44.486005612268656" lon="8.716704079251178"><ele>651.0</ele><time>2026-04-05T11:19:52.999Z</time></trkpt><trkpt lat="44.486164967724626" lon="8.716727358650383"><ele>652.75</ele><time>2026-04-05T11:19:53.999Z</time></trkpt><trkpt lat="44.48629873222484" lon="8.716756731909182"><ele>654.5</ele><time>2026-04-05T11:19:55Z</time></trkpt><trkpt lat="44.486424762028925" lon="8.716777423529253"><ele>656.25</ele><time>2026-04-05T11:19:56Z</time></trkpt><trkpt lat="44.48654565549765" lon="8.716782582687053"><ele>658.0</ele><time>2026-04-05T11:19:57Z</time></trkpt><trkpt lat="44.486637125996786" lon="8.716846110082932"><ele>655.0</ele><time>2026-04-05T11:19:58Z</time></trkpt><trkpt lat="44.48671460968553" lon="8.716926073640234"><ele>652.0</ele><time>2026-04-05T11:19:59Z</time></trkpt><trkpt lat="44.48677158659899" lon="8.717034347253001"><ele>649.0</ele><time>2026-04-05T11:20:00Z</time></trkpt><trkpt lat="44.486795506050264" lon="8.71716455251003"><ele>646.0</ele><time>2026-04-05T11:20:01Z</time></trkpt><trkpt lat="44.48679136481708" lon="8.717319456967033"><ele>643.0</ele><time>2026-04-05T11:20:02Z</time></trkpt><trkpt lat="44.48677304087436" lon="8.717527024780777"><ele>641.0</ele><time>2026-04-05T11:20:03Z</time></trkpt><trkpt lat="44.486753127362356" lon="8.717745412164982"><ele>639.0</ele><time>2026-04-05T11:20:04Z</time></trkpt><trkpt lat="44.48673418898158" lon="8.717937501470317"><ele>637.0</ele><time>2026-04-05T11:20:05Z</time></trkpt><trkpt lat="44.48674220507495" lon="8.718116709390012"><ele>635.0</ele><time>2026-04-05T11:20:06Z</time></trkpt><trkpt lat="44.48673769405782" lon="8.718298612544578"><ele>635.0</ele><time>2026-04-05T11:20:07Z</time></trkpt><trkpt lat="44.486777270918424" lon="8.718484843084918"><ele>635.0</ele><time>2026-04-05T11:20:08Z</time></trkpt><trkpt lat="44.486843596003915" lon="8.718633540270691"><ele>635.0</ele><time>2026-04-05T11:20:09Z</time></trkpt><trkpt lat="44.48688113121164" lon="8.718754054559863"><ele>635.0</ele><time>2026-04-05T11:20:10Z</time></trkpt><trkpt lat="44.486887672130116" lon="8.718878326292826"><ele>635.0</ele><time>2026-04-05T11:20:11Z</time></trkpt><trkpt lat="44.48685500013569" lon="8.719006353816708"><ele>633.6666666666666</ele><time>2026-04-05T11:20:12Z</time></trkpt><trkpt lat="44.48678839511762" lon="8.719142227130849"><ele>632.3333333333334</ele><time>2026-04-05T11:20:13Z</time></trkpt><trkpt lat="44.486692360889684" lon="8.719361481449022"><ele>631.0</ele><time>2026-04-05T11:20:14Z</time></trkpt><trkpt lat="44.48659771735962" lon="8.719595911527744"><ele>635.6666666666667</ele><time>2026-04-05T11:20:15Z</time></trkpt><trkpt lat="44.48652783497547" lon="8.719810136434816"><ele>640.3333333333334</ele><time>2026-04-05T11:20:16Z</time></trkpt><trkpt lat="44.486454915208405" lon="8.719992556658635"><ele>645.0</ele><time>2026-04-05T11:20:17Z</time></trkpt><trkpt lat="44.486375858322" lon="8.72015346663238"><ele>644.5</ele><time>2026-04-05T11:20:18Z</time></trkpt><trkpt lat="44.486302513146654" lon="8.720290043778165"><ele>644.0</ele><time>2026-04-05T11:20:19Z</time></trkpt><trkpt lat="44.4862607228356" lon="8.720427754315018"><ele>643.5</ele><time>2026-04-05T11:20:20Z</time></trkpt><trkpt lat="44.48626286420849" lon="8.720598376876909"><ele>643.0</ele><time>2026-04-05T11:20:21Z</time></trkpt><trkpt lat="44.48627551982425" lon="8.720804361304502"><ele>643.0</ele><time>2026-04-05T11:20:22Z</time></trkpt><trkpt lat="44.4862848902276" lon="8.720953447606616"><ele>643.0</ele><time>2026-04-05T11:20:23Z</time></trkpt><trkpt lat="44.48629225343003" lon="8.7210942449364"><ele>643.0</ele><time>2026-04-05T11:20:24Z</time></trkpt><trkpt lat="44.48630292607218" lon="8.72121737579856"><ele>643.0</ele><time>2026-04-05T11:20:25Z</time></trkpt><trkpt lat="44.486347476343944" lon="8.721352697828474"><ele>643.0</ele><time>2026-04-05T11:20:26Z</time></trkpt><trkpt lat="44.486458605495194" lon="8.721473463332538"><ele>635.6666666666667</ele><time>2026-04-05T11:20:27Z</time></trkpt><trkpt lat="44.48658523602966" lon="8.721579582830621"><ele>628.3333333333334</ele><time>2026-04-05T11:20:28Z</time></trkpt><trkpt lat="44.48673406738636" lon="8.721695604462367"><ele>621.0</ele><time>2026-04-05T11:20:29Z</time></trkpt><trkpt lat="44.4868799942125" lon="8.721811694756418"><ele>619.25</ele><time>2026-04-05T11:20:30Z</time></trkpt><trkpt lat="44.48700952076173" lon="8.721912290375677"><ele>617.5</ele><time>2026-04-05T11:20:31Z</time></trkpt><trkpt lat="44.487132732543806" lon="8.72197600268131"><ele>615.75</ele><time>2026-04-05T11:20:32Z</time></trkpt><trkpt lat="44.48724181008509" lon="8.722018851194338"><ele>614.0</ele><time>2026-04-05T11:20:33Z</time></trkpt><trkpt lat="44.48731782833686" lon="8.722046403223082"><ele>614.0</ele><time>2026-04-05T11:20:34Z</time></trkpt><trkpt lat="44.487381741959176" lon="8.722083655517649"><ele>614.0</ele><time>2026-04-05T11:20:35Z</time></trkpt><trkpt lat="44.48741219930909" lon="8.722270125667901"><ele>614.0</ele><time>2026-04-05T11:20:37Z</time></trkpt><trkpt lat="44.487396047900745" lon="8.72243548654077"><ele>614.0</ele><time>2026-04-05T11:20:38Z</time></trkpt><trkpt lat="44.487383031131856" lon="8.722613153022587"><ele>617.0</ele><time>2026-04-05T11:20:39Z</time></trkpt><trkpt lat="44.48736905926162" lon="8.722784385851908"><ele>620.0</ele><time>2026-04-05T11:20:40Z</time></trkpt><trkpt lat="44.4873318471561" lon="8.722918239604146"><ele>623.0</ele><time>2026-04-05T11:20:41Z</time></trkpt><trkpt lat="44.48725845539843" lon="8.723036169755748"><ele>626.0</ele><time>2026-04-05T11:20:42Z</time></trkpt><trkpt lat="44.48714390173" lon="8.723162153848333"><ele>622.5</ele><time>2026-04-05T11:20:43Z</time></trkpt><trkpt lat="44.48702437869124" lon="8.723326055939259"><ele>619.0</ele><time>2026-04-05T11:20:44Z</time></trkpt><trkpt lat="44.486927840718124" lon="8.72347567832576"><ele>615.5</ele><time>2026-04-05T11:20:45Z</time></trkpt><trkpt lat="44.48684625819141" lon="8.723604404128697"><ele>612.0</ele><time>2026-04-05T11:20:46Z</time></trkpt><trkpt lat="44.48678584446282" lon="8.723736545481076"><ele>612.0</ele><time>2026-04-05T11:20:47Z</time></trkpt><trkpt lat="44.48674883386051" lon="8.72390726663747"><ele>612.0</ele><time>2026-04-05T11:20:48Z</time></trkpt><trkpt lat="44.48674183053689" lon="8.724105810489538"><ele>612.0</ele><time>2026-04-05T11:20:49Z</time></trkpt><trkpt lat="44.48678051906538" lon="8.724305252444342"><ele>612.0</ele><time>2026-04-05T11:20:50Z</time></trkpt><trkpt lat="44.48681899685129" lon="8.724502941049607"><ele>612.25</ele><time>2026-04-05T11:20:51Z</time></trkpt><trkpt lat="44.486831116316445" lon="8.72471316806524"><ele>612.5</ele><time>2026-04-05T11:20:52Z</time></trkpt><trkpt lat="44.48680490540696" lon="8.724906492237103"><ele>612.75</ele><time>2026-04-05T11:20:53Z</time></trkpt><trkpt lat="44.486763576449306" lon="8.72509180554433"><ele>613.0</ele><time>2026-04-05T11:20:54Z</time></trkpt><trkpt lat="44.4866876178449" lon="8.725226128739784"><ele>609.75</ele><time>2026-04-05T11:20:55Z</time></trkpt><trkpt lat="44.48660460815677" lon="8.725332812805846"><ele>606.5</ele><time>2026-04-05T11:20:56Z</time></trkpt><trkpt lat="44.48648685809661" lon="8.72541946946278"><ele>603.25</ele><time>2026-04-05T11:20:56.999Z</time></trkpt><trkpt lat="44.48632478634768" lon="8.725518204116247"><ele>600.0</ele><time>2026-04-05T11:20:57.999Z</time></trkpt><trkpt lat="44.48613323220755" lon="8.725614846321902"><ele>600.0</ele><time>2026-04-05T11:20:58.999Z</time></trkpt><trkpt lat="44.48598285443205" lon="8.72572237928521"><ele>600.0</ele><time>2026-04-05T11:20:59.999Z</time></trkpt><trkpt lat="44.4858478440353" lon="8.725812457554085"><ele>600.0</ele><time>2026-04-05T11:21:00.999Z</time></trkpt><trkpt lat="44.48572994408005" lon="8.72590338411228"><ele>600.0</ele><time>2026-04-05T11:21:01.999Z</time></trkpt><trkpt lat="44.4856308133846" lon="8.7259914010103"><ele>600.0</ele><time>2026-04-05T11:21:02.999Z</time></trkpt><trkpt lat="44.48555009276891" lon="8.726102883906929"><ele>600.0</ele><time>2026-04-05T11:21:03.999Z</time></trkpt><trkpt lat="44.48549652047673" lon="8.726239892008627"><ele>600.0</ele><time>2026-04-05T11:21:04.999Z</time></trkpt><trkpt lat="44.48547490283091" lon="8.726390273135"><ele>604.2</ele><time>2026-04-05T11:21:05.999Z</time></trkpt><trkpt lat="44.485495385021" lon="8.726525546235752"><ele>608.4</ele><time>2026-04-05T11:21:06.999Z</time></trkpt><trkpt lat="44.485537387727604" lon="8.726685613071368"><ele>612.6</ele><time>2026-04-05T11:21:07.999Z</time></trkpt><trkpt lat="44.485561020816775" lon="8.726823549186173"><ele>616.8</ele><time>2026-04-05T11:21:08.999Z</time></trkpt><trkpt lat="44.48553944497659" lon="8.726958511101726"><ele>621.0</ele><time>2026-04-05T11:21:09.999Z</time></trkpt><trkpt lat="44.48549403056227" lon="8.727111540127456"><ele>621.2</ele><time>2026-04-05T11:21:10.999Z</time></trkpt><trkpt lat="44.48547336689619" lon="8.72727020584057"><ele>621.4000000000001</ele><time>2026-04-05T11:21:11.999Z</time></trkpt><trkpt lat="44.4854907209629" lon="8.727418494528674"><ele>621.6</ele><time>2026-04-05T11:21:12.999Z</time></trkpt><trkpt lat="44.485531016832205" lon="8.727551777663782"><ele>621.8000000000001</ele><time>2026-04-05T11:21:13.999Z</time></trkpt><trkpt lat="44.48556212024958" lon="8.72768398584309"><ele>622.0</ele><time>2026-04-05T11:21:14.999Z</time></trkpt><trkpt lat="44.485587326143886" lon="8.727770086890803"><ele>622.6</ele><time>2026-04-05T11:21:15.999Z</time></trkpt><trkpt lat="44.48559708831815" lon="8.727868857600864"><ele>623.2</ele><time>2026-04-05T11:21:16.999Z</time></trkpt><trkpt lat="44.48557695146977" lon="8.727965847126855"><ele>623.8</ele><time>2026-04-05T11:21:17.999Z</time></trkpt><trkpt lat="44.48549620692097" lon="8.728066754141443"><ele>624.4</ele><time>2026-04-05T11:21:18.999Z</time></trkpt><trkpt lat="44.48538225186012" lon="8.72818980618564"><ele>625.0</ele><time>2026-04-05T11:21:19.999Z</time></trkpt><trkpt lat="44.485231884304135" lon="8.728337314192943"><ele>621.0</ele><time>2026-04-05T11:21:20.999Z</time></trkpt><trkpt lat="44.48507301810229" lon="8.728474698515083"><ele>617.0</ele><time>2026-04-05T11:21:21.999Z</time></trkpt><trkpt lat="44.48493531024722" lon="8.728588879554454"><ele>613.0</ele><time>2026-04-05T11:21:22.999Z</time></trkpt><trkpt lat="44.48480177867021" lon="8.728689878358411"><ele>613.0</ele><time>2026-04-05T11:21:23.999Z</time></trkpt><trkpt lat="44.484657141166615" lon="8.728774656443894"><ele>613.0</ele><time>2026-04-05T11:21:24.999Z</time></trkpt><trkpt lat="44.48450807905512" lon="8.728830069108154"><ele>613.0</ele><time>2026-04-05T11:21:25.999Z</time></trkpt><trkpt lat="44.48436778889549" lon="8.728854206391407"><ele>607.5</ele><time>2026-04-05T11:21:26.999Z</time></trkpt><trkpt lat="44.48422859433213" lon="8.728864115347138"><ele>602.0</ele><time>2026-04-05T11:21:27.999Z</time></trkpt><trkpt lat="44.48411198976828" lon="8.7288493957554"><ele>596.5</ele><time>2026-04-05T11:21:28.999Z</time></trkpt><trkpt lat="44.48400524897921" lon="8.728848146456137"><ele>591.0</ele><time>2026-04-05T11:21:29.999Z</time></trkpt><trkpt lat="44.4839054851961" lon="8.728917910006711"><ele>591.0</ele><time>2026-04-05T11:21:30.999Z</time></trkpt><trkpt lat="44.48379701462644" lon="8.729070836810664"><ele>591.0</ele><time>2026-04-05T11:21:31.999Z</time></trkpt><trkpt lat="44.4836651012066" lon="8.729273551249705"><ele>591.0</ele><time>2026-04-05T11:21:32.999Z</time></trkpt><trkpt lat="44.48351871952746" lon="8.729468172480008"><ele>585.5</ele><time>2026-04-05T11:21:33.999Z</time></trkpt><trkpt lat="44.483386619093444" lon="8.729572014923319"><ele>580.0</ele><time>2026-04-05T11:21:34.999Z</time></trkpt><trkpt lat="44.483274925551456" lon="8.729687880867363"><ele>574.5</ele><time>2026-04-05T11:21:35.999Z</time></trkpt><trkpt lat="44.48317465574599" lon="8.72976340100291"><ele>569.0</ele><time>2026-04-05T11:21:36.999Z</time></trkpt><trkpt lat="44.48309983805714" lon="8.729825818943771"><ele>569.0</ele><time>2026-04-05T11:21:37.999Z</time></trkpt><trkpt lat="44.48306783494745" lon="8.72990896104782"><ele>569.0</ele><time>2026-04-05T11:21:38.999Z</time></trkpt><trkpt lat="44.48306717410259" lon="8.730003168967073"><ele>569.0</ele><time>2026-04-05T11:21:39.999Z</time></trkpt><trkpt lat="44.48309764355467" lon="8.730090985861763"><ele>569.0</ele><time>2026-04-05T11:21:40.999Z</time></trkpt><trkpt lat="44.48322551634036" lon="8.73012377404486"><ele>569.0</ele><time>2026-04-05T11:21:41.999Z</time></trkpt><trkpt lat="44.48334964120376" lon="8.73021075829926"><ele>562.75</ele><time>2026-04-05T11:21:42.999Z</time></trkpt><trkpt lat="44.48348776437061" lon="8.730291804866765"><ele>556.5</ele><time>2026-04-05T11:21:43.999Z</time></trkpt><trkpt lat="44.48360689701626" lon="8.730372057848351"><ele>550.25</ele><time>2026-04-05T11:21:44.999Z</time></trkpt><trkpt lat="44.48369151223327" lon="8.730462137210312"><ele>544.0</ele><time>2026-04-05T11:21:45.999Z</time></trkpt><trkpt lat="44.483748255011925" lon="8.730574248841073"><ele>550.25</ele><time>2026-04-05T11:21:46.999Z</time></trkpt><trkpt lat="44.483802582467035" lon="8.73071102905704"><ele>556.5</ele><time>2026-04-05T11:21:47.999Z</time></trkpt><trkpt lat="44.48387742231368" lon="8.730828127751217"><ele>562.75</ele><time>2026-04-05T11:21:48.999Z</time></trkpt><trkpt lat="44.48397886758357" lon="8.730940687334014"><ele>569.0</ele><time>2026-04-05T11:21:49.999Z</time></trkpt><trkpt lat="44.48409363970148" lon="8.731014321861586"><ele>564.25</ele><time>2026-04-05T11:21:50.999Z</time></trkpt><trkpt lat="44.48421635649768" lon="8.731080052390132"><ele>559.5</ele><time>2026-04-05T11:21:51.999Z</time></trkpt><trkpt lat="44.48434664449559" lon="8.731151639236735"><ele>554.75</ele><time>2026-04-05T11:21:52.999Z</time></trkpt><trkpt lat="44.48447045142884" lon="8.731217188528463"><ele>550.0</ele><time>2026-04-05T11:21:53.999Z</time></trkpt><trkpt lat="44.48460186253764" lon="8.731262822923664"><ele>550.0</ele><time>2026-04-05T11:21:54.999Z</time></trkpt><trkpt lat="44.48472807945882" lon="8.731302463606799"><ele>550.0</ele><time>2026-04-05T11:21:55.999Z</time></trkpt><trkpt lat="44.484850131105816" lon="8.731314074590829"><ele>550.0</ele><time>2026-04-05T11:21:56.999Z</time></trkpt><trkpt lat="44.48497119797288" lon="8.731312812046987"><ele>550.0</ele><time>2026-04-05T11:21:57.999Z</time></trkpt><trkpt lat="44.485069644490004" lon="8.731330203022168"><ele>550.0</ele><time>2026-04-05T11:21:58.999Z</time></trkpt><trkpt lat="44.4851523262562" lon="8.731320397258015"><ele>550.0</ele><time>2026-04-05T11:21:59.999Z</time></trkpt><trkpt lat="44.485250117711665" lon="8.731402209109005"><ele>550.0</ele><time>2026-04-05T11:22:01Z</time></trkpt><trkpt lat="44.48536150356596" lon="8.731494983830512"><ele>550.0</ele><time>2026-04-05T11:22:02Z</time></trkpt><trkpt lat="44.48544783219183" lon="8.731578996790937"><ele>550.0</ele><time>2026-04-05T11:22:03Z</time></trkpt><trkpt lat="44.48551972481991" lon="8.731643858137964"><ele>556.2</ele><time>2026-04-05T11:22:04Z</time></trkpt><trkpt lat="44.4855742757523" lon="8.731728784433665"><ele>562.4</ele><time>2026-04-05T11:22:05Z</time></trkpt><trkpt lat="44.485595126752486" lon="8.731833616422644"><ele>568.6</ele><time>2026-04-05T11:22:06Z</time></trkpt><trkpt lat="44.48553219367317" lon="8.731957393940524"><ele>574.8</ele><time>2026-04-05T11:22:07Z</time></trkpt><trkpt lat="44.485503795837396" lon="8.732120249914125"><ele>581.0</ele><time>2026-04-05T11:22:08Z</time></trkpt><trkpt lat="44.485491455997355" lon="8.73227917315507"><ele>581.0</ele><time>2026-04-05T11:22:09Z</time></trkpt><trkpt lat="44.48547208885511" lon="8.732372727968981"><ele>581.0</ele><time>2026-04-05T11:22:10Z</time></trkpt><trkpt lat="44.485406143811765" lon="8.732458801848985"><ele>581.0</ele><time>2026-04-05T11:22:11Z</time></trkpt><trkpt lat="44.485303988076105" lon="8.732472467149078"><ele>581.0</ele><time>2026-04-05T11:22:12Z</time></trkpt><trkpt lat="44.48518903653611" lon="8.732527585624554"><ele>581.0</ele><time>2026-04-05T11:22:13Z</time></trkpt><trkpt lat="44.48507458920633" lon="8.732655063105566"><ele>572.25</ele><time>2026-04-05T11:22:14Z</time></trkpt><trkpt lat="44.48494843087456" lon="8.73281909304176"><ele>563.5</ele><time>2026-04-05T11:22:15Z</time></trkpt><trkpt lat="44.48485350618977" lon="8.732964798859754"><ele>554.75</ele><time>2026-04-05T11:22:16Z</time></trkpt><trkpt lat="44.48477850500005" lon="8.733101843683603"><ele>546.0</ele><time>2026-04-05T11:22:17Z</time></trkpt><trkpt lat="44.484745676120006" lon="8.733227727829194"><ele>546.0</ele><time>2026-04-05T11:22:18Z</time></trkpt><trkpt lat="44.48473511424198" lon="8.73336117997454"><ele>546.0</ele><time>2026-04-05T11:22:19Z</time></trkpt><trkpt lat="44.48472388807916" lon="8.73349955930535"><ele>546.0</ele><time>2026-04-05T11:22:20Z</time></trkpt><trkpt lat="44.48477878771894" lon="8.733650248418602"><ele>546.0</ele><time>2026-04-05T11:22:21Z</time></trkpt><trkpt lat="44.484868044883456" lon="8.733805160045119"><ele>542.6666666666666</ele><time>2026-04-05T11:22:22Z</time></trkpt><trkpt lat="44.4849761884417" lon="8.733980397044304"><ele>539.3333333333333</ele><time>2026-04-05T11:22:23Z</time></trkpt><trkpt lat="44.48511408325892" lon="8.734125263457438"><ele>536.0</ele><time>2026-04-05T11:22:24Z</time></trkpt><trkpt lat="44.48523985108766" lon="8.734243373794303"><ele>536.0</ele><time>2026-04-05T11:22:25Z</time></trkpt><trkpt lat="44.485351048992015" lon="8.734348506142736"><ele>536.0</ele><time>2026-04-05T11:22:26Z</time></trkpt><trkpt lat="44.48541937636134" lon="8.73444028871621"><ele>536.0</ele><time>2026-04-05T11:22:27Z</time></trkpt><trkpt lat="44.485464957670885" lon="8.734527813019646"><ele>536.0</ele><time>2026-04-05T11:22:28Z</time></trkpt><trkpt lat="44.485516881321935" lon="8.734599106479513"><ele>536.0</ele><time>2026-04-05T11:22:29Z</time></trkpt><trkpt lat="44.48552160016446" lon="8.73468828224433"><ele>536.0</ele><time>2026-04-05T11:22:30Z</time></trkpt><trkpt lat="44.48556602959197" lon="8.7348500693249"><ele>537.5714285714286</ele><time>2026-04-05T11:22:32Z</time></trkpt><trkpt lat="44.48557435594751" lon="8.734951425587099"><ele>539.1428571428571</ele><time>2026-04-05T11:22:35Z</time></trkpt><trkpt lat="44.48555425312524" lon="8.735051480566485"><ele>540.7142857142857</ele><time>2026-04-05T11:22:37Z</time></trkpt><trkpt lat="44.48555886976571" lon="8.734950832810366"><ele>542.2857142857142</ele><time>2026-04-05T11:28:31Z</time></trkpt><trkpt lat="44.48548750568949" lon="8.734997146267288"><ele>543.8571428571428</ele><time>2026-04-05T11:29:12Z</time></trkpt><trkpt lat="44.48544408620957" lon="8.734927733446497"><ele>545.4285714285714</ele><time>2026-04-05T11:29:19Z</time></trkpt><trkpt lat="44.4855033585865" lon="8.734978714052074"><ele>547.0</ele><time>2026-04-05T11:29:28.999Z</time></trkpt><trkpt lat="44.4855433741688" lon="8.735067703276147"><ele>547.0</ele><time>2026-04-05T11:30:17.999Z</time></trkpt><trkpt lat="44.485545092793764" lon="8.735161363427265"><ele>547.0</ele><time>2026-04-05T11:32:51Z</time></trkpt><trkpt lat="44.485486935808495" lon="8.735207970446554"><ele>547.0</ele><time>2026-04-05T11:32:55Z</time></trkpt><trkpt lat="44.485399562730734" lon="8.735252884356642"><ele>547.0</ele><time>2026-04-05T11:33:01Z</time></trkpt><trkpt lat="44.48533333095292" lon="8.735321907801309"><ele>547.0</ele><time>2026-04-05T11:33:03Z</time></trkpt><trkpt lat="44.48526192081568" lon="8.735394591085944"><ele>547.0</ele><time>2026-04-05T11:33:05Z</time></trkpt><trkpt lat="44.48520320290277" lon="8.735463189006403"><ele>543.0</ele><time>2026-04-05T11:33:08Z</time></trkpt><trkpt lat="44.48518258076565" lon="8.73555904840987"><ele>539.0</ele><time>2026-04-05T11:33:26Z</time></trkpt><trkpt lat="44.485141237945065" lon="8.735656975724305"><ele>535.0</ele><time>2026-04-05T11:33:29Z</time></trkpt><trkpt lat="44.48509104379839" lon="8.735772430596624"><ele>531.0</ele><time>2026-04-05T11:33:31Z</time></trkpt><trkpt lat="44.485032164360874" lon="8.735907024805062"><ele>527.0</ele><time>2026-04-05T11:33:32.999Z</time></trkpt><trkpt lat="44.48497177872767" lon="8.736048674049004"><ele>527.0</ele><time>2026-04-05T11:33:34.999Z</time></trkpt><trkpt lat="44.484905527118606" lon="8.736126719084194"><ele>527.0</ele><time>2026-04-05T11:33:36.999Z</time></trkpt><trkpt lat="44.484839486181194" lon="8.736096398849066"><ele>527.0</ele><time>2026-04-05T11:33:38.999Z</time></trkpt><trkpt lat="44.484795490623505" lon="8.735995217139777"><ele>527.0</ele><time>2026-04-05T11:33:49.999Z</time></trkpt><trkpt lat="44.4847362206637" lon="8.735920982781145"><ele>527.0</ele><time>2026-04-05T11:33:51.999Z</time></trkpt><trkpt lat="44.484628320104974" lon="8.735957442549735"><ele>527.0</ele><time>2026-04-05T11:33:52.999Z</time></trkpt><trkpt lat="44.484533041641605" lon="8.735958927682693"><ele>527.4</ele><time>2026-04-05T11:33:53.999Z</time></trkpt><trkpt lat="44.48443542327032" lon="8.73597312541781"><ele>527.8000000000001</ele><time>2026-04-05T11:33:54.999Z</time></trkpt><trkpt lat="44.48432436962735" lon="8.736012111265069"><ele>528.2</ele><time>2026-04-05T11:33:55.999Z</time></trkpt><trkpt lat="44.48421205766553" lon="8.736066195132437"><ele>528.6</ele><time>2026-04-05T11:33:56.999Z</time></trkpt><trkpt lat="44.484113674650224" lon="8.736147525591266"><ele>529.0</ele><time>2026-04-05T11:33:57.999Z</time></trkpt><trkpt lat="44.484018264012484" lon="8.736251246184946"><ele>529.0</ele><time>2026-04-05T11:33:58.999Z</time></trkpt><trkpt lat="44.483933944586916" lon="8.73639553531139"><ele>529.0</ele><time>2026-04-05T11:33:59.999Z</time></trkpt><trkpt lat="44.48385392335207" lon="8.73655669830864"><ele>529.0</ele><time>2026-04-05T11:34:00.999Z</time></trkpt><trkpt lat="44.483757690601514" lon="8.736687607328399"><ele>529.0</ele><time>2026-04-05T11:34:01.999Z</time></trkpt><trkpt lat="44.483611311985804" lon="8.736788327086124"><ele>525.25</ele><time>2026-04-05T11:34:02.999Z</time></trkpt><trkpt lat="44.48345927643827" lon="8.736847289255472"><ele>521.5</ele><time>2026-04-05T11:34:03.999Z</time></trkpt><trkpt lat="44.483361227326995" lon="8.736941965771821"><ele>517.75</ele><time>2026-04-05T11:34:04.999Z</time></trkpt><trkpt lat="44.48327003230656" lon="8.737015171741813"><ele>514.0</ele><time>2026-04-05T11:34:05.999Z</time></trkpt><trkpt lat="44.48318469190324" lon="8.737060196012402"><ele>514.25</ele><time>2026-04-05T11:34:06.999Z</time></trkpt><trkpt lat="44.48310050060955" lon="8.737096112222309"><ele>514.5</ele><time>2026-04-05T11:34:07.999Z</time></trkpt><trkpt lat="44.48300549002568" lon="8.737046113512607"><ele>514.75</ele><time>2026-04-05T11:34:08.999Z</time></trkpt><trkpt lat="44.48290186455196" lon="8.736928895240371"><ele>515.0</ele><time>2026-04-05T11:34:09.999Z</time></trkpt><trkpt lat="44.48278900057771" lon="8.736775239797517"><ele>515.0</ele><time>2026-04-05T11:34:10.999Z</time></trkpt><trkpt lat="44.48271061775401" lon="8.73665205024057"><ele>515.0</ele><time>2026-04-05T11:34:11.999Z</time></trkpt><trkpt lat="44.48263964341562" lon="8.736575765466451"><ele>515.0</ele><time>2026-04-05T11:34:12.999Z</time></trkpt><trkpt lat="44.482542092270876" lon="8.73652046867179"><ele>515.0</ele><time>2026-04-05T11:34:13.999Z</time></trkpt><trkpt lat="44.482449535689426" lon="8.736505645859571"><ele>515.0</ele><time>2026-04-05T11:34:14.999Z</time></trkpt><trkpt lat="44.482381851834" lon="8.73648634014824"><ele>515.0</ele><time>2026-04-05T11:34:15.999Z</time></trkpt><trkpt lat="44.48233365406179" lon="8.736426224311383"><ele>515.0</ele><time>2026-04-05T11:34:16.999Z</time></trkpt><trkpt lat="44.482315847142225" lon="8.736332394324052"><ele>515.0</ele><time>2026-04-05T11:34:17.999Z</time></trkpt><trkpt lat="44.48235788724159" lon="8.736254291681801"><ele>515.0</ele><time>2026-04-05T11:34:18.999Z</time></trkpt><trkpt lat="44.48242570469908" lon="8.736223217142461"><ele>515.0</ele><time>2026-04-05T11:34:19.999Z</time></trkpt><trkpt lat="44.482501036926934" lon="8.736290942728015"><ele>515.0</ele><time>2026-04-05T11:34:20.999Z</time></trkpt><trkpt lat="44.48259469453419" lon="8.736398109964533"><ele>515.0</ele><time>2026-04-05T11:34:21.999Z</time></trkpt><trkpt lat="44.4827124919498" lon="8.73650963919625"><ele>515.0</ele><time>2026-04-05T11:34:22.999Z</time></trkpt><trkpt lat="44.48283032376246" lon="8.736620362635328"><ele>515.0</ele><time>2026-04-05T11:34:23.999Z</time></trkpt><trkpt lat="44.48292591486725" lon="8.736706142481795"><ele>515.0</ele><time>2026-04-05T11:34:24.999Z</time></trkpt><trkpt lat="44.48299933628916" lon="8.736764762509797"><ele>514.8</ele><time>2026-04-05T11:34:25.999Z</time></trkpt><trkpt lat="44.4830779923937" lon="8.736791057216298"><ele>514.6</ele><time>2026-04-05T11:34:26.999Z</time></trkpt><trkpt lat="44.48316201160001" lon="8.73675688794371"><ele>514.4</ele><time>2026-04-05T11:34:27.999Z</time></trkpt><trkpt lat="44.48324060289894" lon="8.736614282062483"><ele>514.2</ele><time>2026-04-05T11:34:28.999Z</time></trkpt><trkpt lat="44.483341040398216" lon="8.736489080415485"><ele>514.0</ele><time>2026-04-05T11:34:29.999Z</time></trkpt><trkpt lat="44.483449976748176" lon="8.736391895590485"><ele>514.0</ele><time>2026-04-05T11:34:30.999Z</time></trkpt><trkpt lat="44.483530929948195" lon="8.736287889461307"><ele>514.0</ele><time>2026-04-05T11:34:31.999Z</time></trkpt><trkpt lat="44.48359448570511" lon="8.736136407110884"><ele>514.0</ele><time>2026-04-05T11:34:32.999Z</time></trkpt><trkpt lat="44.48363689750036" lon="8.735955273704842"><ele>514.0</ele><time>2026-04-05T11:34:33.999Z</time></trkpt><trkpt lat="44.4836630815246" lon="8.735786634604544"><ele>512.25</ele><time>2026-04-05T11:34:34.999Z</time></trkpt><trkpt lat="44.48372270791499" lon="8.735665128378947"><ele>510.5</ele><time>2026-04-05T11:34:35.999Z</time></trkpt><trkpt lat="44.483835430276514" lon="8.73560458820678"><ele>508.75</ele><time>2026-04-05T11:34:37Z</time></trkpt><trkpt lat="44.483982938008104" lon="8.735518093378264"><ele>507.0</ele><time>2026-04-05T11:34:38Z</time></trkpt><trkpt lat="44.484129361289796" lon="8.735430636295996"><ele>507.0</ele><time>2026-04-05T11:34:39Z</time></trkpt><trkpt lat="44.48424997799737" lon="8.735375347099193"><ele>507.00000000000006</ele><time>2026-04-05T11:34:40Z</time></trkpt><trkpt lat="44.484349245424426" lon="8.73530629137814"><ele>507.00000000000006</ele><time>2026-04-05T11:34:41Z</time></trkpt><trkpt lat="44.48441199270841" lon="8.73521441426766"><ele>507.0</ele><time>2026-04-05T11:34:42Z</time></trkpt><trkpt lat="44.48447462664063" lon="8.735077131234856"><ele>507.0</ele><time>2026-04-05T11:34:43Z</time></trkpt><trkpt lat="44.48448941129964" lon="8.734933600656072"><ele>501.5</ele><time>2026-04-05T11:34:44Z</time></trkpt><trkpt lat="44.48447892492545" lon="8.73481686082129"><ele>496.0</ele><time>2026-04-05T11:34:45Z</time></trkpt><trkpt lat="44.48442259934816" lon="8.734696342717049"><ele>490.5</ele><time>2026-04-05T11:34:46Z</time></trkpt><trkpt lat="44.484328092196215" lon="8.734610256042416"><ele>485.0</ele><time>2026-04-05T11:34:47Z</time></trkpt><trkpt lat="44.484178296708855" lon="8.734506502673998"><ele>489.66666666666663</ele><time>2026-04-05T11:34:48Z</time></trkpt><trkpt lat="44.48401194239706" lon="8.734375478379462"><ele>494.33333333333337</ele><time>2026-04-05T11:34:49Z</time></trkpt><trkpt lat="44.483845271801975" lon="8.734220427716537"><ele>499.0</ele><time>2026-04-05T11:34:50Z</time></trkpt><trkpt lat="44.48369706129378" lon="8.73406928707625"><ele>492.0</ele><time>2026-04-05T11:34:51Z</time></trkpt><trkpt lat="44.48357135062439" lon="8.733960190693347"><ele>485.0</ele><time>2026-04-05T11:34:52Z</time></trkpt><trkpt lat="44.48347186918177" lon="8.733877255196205"><ele>478.0</ele><time>2026-04-05T11:34:53Z</time></trkpt><trkpt lat="44.48340387969423" lon="8.733783373214902"><ele>471.0</ele><time>2026-04-05T11:34:54Z</time></trkpt><trkpt lat="44.48337803752332" lon="8.733642569906953"><ele>471.25</ele><time>2026-04-05T11:34:55Z</time></trkpt><trkpt lat="44.48338158684981" lon="8.733515090355322"><ele>471.5</ele><time>2026-04-05T11:34:56Z</time></trkpt><trkpt lat="44.483426277121964" lon="8.733373520464276"><ele>471.75</ele><time>2026-04-05T11:34:57Z</time></trkpt><trkpt lat="44.483497488992754" lon="8.733222210860534"><ele>472.0</ele><time>2026-04-05T11:34:58Z</time></trkpt><trkpt lat="44.483612529808845" lon="8.733115565658897"><ele>472.0</ele><time>2026-04-05T11:34:59Z</time></trkpt><trkpt lat="44.48373335065154" lon="8.733022052703543"><ele>472.00000000000006</ele><time>2026-04-05T11:35:00Z</time></trkpt><trkpt lat="44.48382463123694" lon="8.732923878372272"><ele>472.00000000000006</ele><time>2026-04-05T11:35:01Z</time></trkpt><trkpt lat="44.48389511707484" lon="8.732867404317284"><ele>472.0</ele><time>2026-04-05T11:35:02Z</time></trkpt><trkpt lat="44.4839364215656" lon="8.732785098762928"><ele>472.0</ele><time>2026-04-05T11:35:03Z</time></trkpt><trkpt lat="44.48394449030489" lon="8.732696568294362"><ele>473.5</ele><time>2026-04-05T11:35:04Z</time></trkpt><trkpt lat="44.48390167150507" lon="8.732596776794104"><ele>475.0</ele><time>2026-04-05T11:35:05Z</time></trkpt><trkpt lat="44.48382604723886" lon="8.73252914971312"><ele>476.5</ele><time>2026-04-05T11:35:06Z</time></trkpt><trkpt lat="44.483703071296404" lon="8.732467318380738"><ele>478.0</ele><time>2026-04-05T11:35:07Z</time></trkpt><trkpt lat="44.48354039797636" lon="8.732406135222657"><ele>478.0</ele><time>2026-04-05T11:35:08Z</time></trkpt><trkpt lat="44.48336554736968" lon="8.73233232582048"><ele>478.0</ele><time>2026-04-05T11:35:09Z</time></trkpt><trkpt lat="44.48320292556427" lon="8.7322342947039"><ele>478.0</ele><time>2026-04-05T11:35:10Z</time></trkpt><trkpt lat="44.48305758873374" lon="8.732111189961177"><ele>478.0</ele><time>2026-04-05T11:35:11Z</time></trkpt><trkpt lat="44.48293961041057" lon="8.732027693085906"><ele>478.0</ele><time>2026-04-05T11:35:12Z</time></trkpt><trkpt lat="44.482820898476675" lon="8.731991284141351"><ele>478.0</ele><time>2026-04-05T11:35:13Z</time></trkpt><trkpt lat="44.482662894496976" lon="8.731996998212693"><ele>478.0</ele><time>2026-04-05T11:35:14Z</time></trkpt><trkpt lat="44.4824927287373" lon="8.732044704070486"><ele>472.5</ele><time>2026-04-05T11:35:15Z</time></trkpt><trkpt lat="44.48233981673598" lon="8.732079174014908"><ele>467.0</ele><time>2026-04-05T11:35:16Z</time></trkpt><trkpt lat="44.4822022934813" lon="8.732083947169546"><ele>461.5</ele><time>2026-04-05T11:35:17Z</time></trkpt><trkpt lat="44.482073606865484" lon="8.73206730108939"><ele>456.0</ele><time>2026-04-05T11:35:18Z</time></trkpt><trkpt lat="44.48195537336832" lon="8.73198773179122"><ele>459.25</ele><time>2026-04-05T11:35:19Z</time></trkpt><trkpt lat="44.48185498123455" lon="8.731932066253073"><ele>462.5</ele><time>2026-04-05T11:35:20Z</time></trkpt><trkpt lat="44.481775759356836" lon="8.731865805118113"><ele>465.75</ele><time>2026-04-05T11:35:21Z</time></trkpt><trkpt lat="44.48171800223857" lon="8.731719131595511"><ele>469.0</ele><time>2026-04-05T11:35:22Z</time></trkpt><trkpt lat="44.481683595989736" lon="8.73153480522299"><ele>469.0</ele><time>2026-04-05T11:35:23Z</time></trkpt><trkpt lat="44.481673978645546" lon="8.731369633097236"><ele>469.0</ele><time>2026-04-05T11:35:24Z</time></trkpt><trkpt lat="44.481616267312795" lon="8.731231679692462"><ele>469.0</ele><time>2026-04-05T11:35:25Z</time></trkpt><trkpt lat="44.48151526304088" lon="8.731132430601086"><ele>469.0</ele><time>2026-04-05T11:35:26Z</time></trkpt><trkpt lat="44.48137050506417" lon="8.731102984726919"><ele>460.6666666666667</ele><time>2026-04-05T11:35:27Z</time></trkpt><trkpt lat="44.481176373867235" lon="8.731127999932676"><ele>452.33333333333337</ele><time>2026-04-05T11:35:28Z</time></trkpt><trkpt lat="44.480943717201924" lon="8.731175370837091"><ele>444.0</ele><time>2026-04-05T11:35:29Z</time></trkpt><trkpt lat="44.48072585749072" lon="8.731226591644461"><ele>444.0</ele><time>2026-04-05T11:35:30Z</time></trkpt><trkpt lat="44.48051963607144" lon="8.73126211887167"><ele>444.0</ele><time>2026-04-05T11:35:31Z</time></trkpt><trkpt lat="44.48032471482306" lon="8.73124687220788"><ele>444.0</ele><time>2026-04-05T11:35:32Z</time></trkpt><trkpt lat="44.4801587834291" lon="8.731245314621173"><ele>443.25</ele><time>2026-04-05T11:35:33Z</time></trkpt><trkpt lat="44.480023687762106" lon="8.731236507463855"><ele>442.5</ele><time>2026-04-05T11:35:34Z</time></trkpt><trkpt lat="44.479905987499215" lon="8.731218336315488"><ele>441.75</ele><time>2026-04-05T11:35:35Z</time></trkpt><trkpt lat="44.479803358914886" lon="8.731185231611349"><ele>441.0</ele><time>2026-04-05T11:35:36Z</time></trkpt><trkpt lat="44.47967591627504" lon="8.731098620029034"><ele>442.33333333333337</ele><time>2026-04-05T11:35:37Z</time></trkpt><trkpt lat="44.47953134009691" lon="8.730962464803051"><ele>443.6666666666667</ele><time>2026-04-05T11:35:38Z</time></trkpt><trkpt lat="44.4794274258067" lon="8.730836296178209"><ele>445.0</ele><time>2026-04-05T11:35:38.999Z</time></trkpt><trkpt lat="44.47930544577249" lon="8.730741623421"><ele>445.0</ele><time>2026-04-05T11:35:39.999Z</time></trkpt><trkpt lat="44.47919768138909" lon="8.730644404909146"><ele>445.0</ele><time>2026-04-05T11:35:40.999Z</time></trkpt><trkpt lat="44.47912428468148" lon="8.730586460555845"><ele>445.0</ele><time>2026-04-05T11:35:41.999Z</time></trkpt><trkpt lat="44.47907677078694" lon="8.730485773787642"><ele>445.0</ele><time>2026-04-05T11:35:42.999Z</time></trkpt><trkpt lat="44.479060088445586" lon="8.730353260920074"><ele>445.0</ele><time>2026-04-05T11:35:43.999Z</time></trkpt><trkpt lat="44.479080672947795" lon="8.730215330386383"><ele>446.33333333333337</ele><time>2026-04-05T11:35:44.999Z</time></trkpt><trkpt lat="44.47914612352498" lon="8.730072256421389"><ele>447.66666666666663</ele><time>2026-04-05T11:35:45.999Z</time></trkpt><trkpt lat="44.47925029490887" lon="8.729891016488342"><ele>449.0</ele><time>2026-04-05T11:35:46.999Z</time></trkpt><trkpt lat="44.47934868063667" lon="8.729695628716788"><ele>449.0</ele><time>2026-04-05T11:35:47.999Z</time></trkpt><trkpt lat="44.4794311689416" lon="8.729526366528846"><ele>449.0</ele><time>2026-04-05T11:35:48.999Z</time></trkpt><trkpt lat="44.479517893849746" lon="8.729384664283916"><ele>449.0</ele><time>2026-04-05T11:35:49.999Z</time></trkpt><trkpt lat="44.47961354622094" lon="8.72926708667564"><ele>449.0</ele><time>2026-04-05T11:35:50.999Z</time></trkpt><trkpt lat="44.47971217496152" lon="8.729188551896083"><ele>447.0</ele><time>2026-04-05T11:35:51.999Z</time></trkpt><trkpt lat="44.47981902586454" lon="8.729158678187924"><ele>445.0</ele><time>2026-04-05T11:35:52.999Z</time></trkpt><trkpt lat="44.47994971763969" lon="8.72917556075795"><ele>443.0</ele><time>2026-04-05T11:35:53.999Z</time></trkpt><trkpt lat="44.48011071173775" lon="8.72924221152316"><ele>441.0</ele><time>2026-04-05T11:35:54.999Z</time></trkpt><trkpt lat="44.48024951092896" lon="8.729299940007603"><ele>441.0</ele><time>2026-04-05T11:35:55.999Z</time></trkpt><trkpt lat="44.48035294698834" lon="8.729348772027583"><ele>441.0</ele><time>2026-04-05T11:35:56.999Z</time></trkpt><trkpt lat="44.48043991750619" lon="8.729373558868108"><ele>441.0</ele><time>2026-04-05T11:35:57.999Z</time></trkpt><trkpt lat="44.48051707258961" lon="8.729359492532625"><ele>441.0</ele><time>2026-04-05T11:35:58.999Z</time></trkpt><trkpt lat="44.48058362960847" lon="8.72927872652074"><ele>441.0</ele><time>2026-04-05T11:35:59.999Z</time></trkpt><trkpt lat="44.48063197747962" lon="8.72913712273922"><ele>439.0</ele><time>2026-04-05T11:36:00.999Z</time></trkpt><trkpt lat="44.4806463157144" lon="8.728946632016882"><ele>437.0</ele><time>2026-04-05T11:36:01.999Z</time></trkpt><trkpt lat="44.48068074459746" lon="8.728713924065666"><ele>435.0</ele><time>2026-04-05T11:36:02.999Z</time></trkpt><trkpt lat="44.48076685056167" lon="8.728529398045305"><ele>435.0</ele><time>2026-04-05T11:36:03.999Z</time></trkpt><trkpt lat="44.48078667411293" lon="8.728362599954194"><ele>435.0</ele><time>2026-04-05T11:36:04.999Z</time></trkpt><trkpt lat="44.48082774222789" lon="8.728200996162114"><ele>435.0</ele><time>2026-04-05T11:36:05.999Z</time></trkpt><trkpt lat="44.48089024914079" lon="8.728052987056321"><ele>435.0</ele><time>2026-04-05T11:36:06.999Z</time></trkpt><trkpt lat="44.480982772209536" lon="8.727896209993716"><ele>435.0</ele><time>2026-04-05T11:36:07.999Z</time></trkpt><trkpt lat="44.481048946984934" lon="8.727751989783632"><ele>435.0</ele><time>2026-04-05T11:36:08.999Z</time></trkpt><trkpt lat="44.4810909234663" lon="8.727608616918868"><ele>435.0</ele><time>2026-04-05T11:36:09.999Z</time></trkpt><trkpt lat="44.481169331752184" lon="8.727461213113623"><ele>435.0</ele><time>2026-04-05T11:36:10.999Z</time></trkpt><trkpt lat="44.481274050279836" lon="8.7273530923571"><ele>437.5</ele><time>2026-04-05T11:36:11.999Z</time></trkpt><trkpt lat="44.48137965322004" lon="8.727237081704143"><ele>440.0</ele><time>2026-04-05T11:36:12.999Z</time></trkpt><trkpt lat="44.48149075678755" lon="8.727155203915393"><ele>442.5</ele><time>2026-04-05T11:36:13.999Z</time></trkpt><trkpt lat="44.48158837644648" lon="8.727104569547471"><ele>445.0</ele><time>2026-04-05T11:36:14.999Z</time></trkpt><trkpt lat="44.481676089897796" lon="8.72704826476537"><ele>445.0</ele><time>2026-04-05T11:36:15.999Z</time></trkpt><trkpt lat="44.48175246864986" lon="8.726946079691286"><ele>445.0</ele><time>2026-04-05T11:36:16.999Z</time></trkpt><trkpt lat="44.48180945695445" lon="8.72679001373334"><ele>445.0</ele><time>2026-04-05T11:36:17.999Z</time></trkpt><trkpt lat="44.48185756264426" lon="8.72660910385514"><ele>445.0</ele><time>2026-04-05T11:36:18.999Z</time></trkpt><trkpt lat="44.481925356289835" lon="8.726428077782291"><ele>442.6666666666667</ele><time>2026-04-05T11:36:19.999Z</time></trkpt><trkpt lat="44.48202239396504" lon="8.726263430376152"><ele>440.33333333333337</ele><time>2026-04-05T11:36:20.999Z</time></trkpt><trkpt lat="44.48210669661897" lon="8.726107721898059"><ele>438.0</ele><time>2026-04-05T11:36:21.999Z</time></trkpt><trkpt lat="44.48217441149737" lon="8.725904522044434"><ele>438.0</ele><time>2026-04-05T11:36:22.999Z</time></trkpt><trkpt lat="44.48221901728886" lon="8.725673364444217"><ele>438.0</ele><time>2026-04-05T11:36:23.999Z</time></trkpt><trkpt lat="44.48224936251127" lon="8.725468740797668"><ele>438.0</ele><time>2026-04-05T11:36:24.999Z</time></trkpt><trkpt lat="44.48230117739728" lon="8.725293631882888"><ele>436.0</ele><time>2026-04-05T11:36:25.999Z</time></trkpt><trkpt lat="44.48236397640987" lon="8.725142905346248"><ele>433.99999999999994</ele><time>2026-04-05T11:36:26.999Z</time></trkpt><trkpt lat="44.482426748761576" lon="8.725038405324998"><ele>431.99999999999994</ele><time>2026-04-05T11:36:27.999Z</time></trkpt><trkpt lat="44.48247854509339" lon="8.724950007096979"><ele>430.0</ele><time>2026-04-05T11:36:28.999Z</time></trkpt><trkpt lat="44.4824813147454" lon="8.724851634895325"><ele>428.0</ele><time>2026-04-05T11:36:29.999Z</time></trkpt><trkpt lat="44.48245159229171" lon="8.724747076288534"><ele>428.0</ele><time>2026-04-05T11:36:30.999Z</time></trkpt><trkpt lat="44.482378822149656" lon="8.72468502386143"><ele>427.99999999999994</ele><time>2026-04-05T11:36:31.999Z</time></trkpt><trkpt lat="44.48230506612286" lon="8.724707985936066"><ele>427.99999999999994</ele><time>2026-04-05T11:36:32.999Z</time></trkpt><trkpt lat="44.48223599189058" lon="8.724766523980495"><ele>428.0</ele><time>2026-04-05T11:36:33.999Z</time></trkpt><trkpt lat="44.482203690712" lon="8.724898317673462"><ele>428.0</ele><time>2026-04-05T11:36:34.999Z</time></trkpt><trkpt lat="44.48217924062986" lon="8.725077427406237"><ele>430.5</ele><time>2026-04-05T11:36:35.999Z</time></trkpt><trkpt lat="44.48215107070727" lon="8.725278148342584"><ele>433.0</ele><time>2026-04-05T11:36:36.999Z</time></trkpt><trkpt lat="44.48212460134262" lon="8.725454592097034"><ele>435.5</ele><time>2026-04-05T11:36:37.999Z</time></trkpt><trkpt lat="44.48209877793703" lon="8.72561409273191"><ele>438.0</ele><time>2026-04-05T11:36:38.999Z</time></trkpt><trkpt lat="44.48206335895142" lon="8.725777149199198"><ele>433.5</ele><time>2026-04-05T11:36:39.999Z</time></trkpt><trkpt lat="44.48200738851377" lon="8.725939796067706"><ele>429.0</ele><time>2026-04-05T11:36:40.999Z</time></trkpt><trkpt lat="44.481917795216766" lon="8.7261136050517"><ele>424.5</ele><time>2026-04-05T11:36:41.999Z</time></trkpt><trkpt lat="44.48179637432906" lon="8.726270518157992"><ele>420.0</ele><time>2026-04-05T11:36:43Z</time></trkpt><trkpt lat="44.48168753020292" lon="8.726413256143346"><ele>420.0</ele><time>2026-04-05T11:36:44Z</time></trkpt><trkpt lat="44.48160054776743" lon="8.72652705645295"><ele>420.0</ele><time>2026-04-05T11:36:45Z</time></trkpt><trkpt lat="44.48151167804322" lon="8.726628866336897"><ele>420.0</ele><time>2026-04-05T11:36:46Z</time></trkpt><trkpt lat="44.48141605765012" lon="8.726715942385997"><ele>420.0</ele><time>2026-04-05T11:36:47Z</time></trkpt><trkpt lat="44.481279831085054" lon="8.726763315547977"><ele>417.0</ele><time>2026-04-05T11:36:48Z</time></trkpt><trkpt lat="44.48115052176068" lon="8.726833967456711"><ele>414.0</ele><time>2026-04-05T11:36:49Z</time></trkpt><trkpt lat="44.48102881858362" lon="8.727013465546735"><ele>411.0</ele><time>2026-04-05T11:36:50Z</time></trkpt><trkpt lat="44.48090150874178" lon="8.727220070680273"><ele>411.0</ele><time>2026-04-05T11:36:51Z</time></trkpt><trkpt lat="44.48079927440006" lon="8.72738014715108"><ele>411.0</ele><time>2026-04-05T11:36:52Z</time></trkpt><trkpt lat="44.480703570041335" lon="8.727506188082717"><ele>411.0</ele><time>2026-04-05T11:36:53Z</time></trkpt><trkpt lat="44.48059409598907" lon="8.72758547705119"><ele>411.0</ele><time>2026-04-05T11:36:54Z</time></trkpt><trkpt lat="44.48051977233784" lon="8.727690822938074"><ele>412.6</ele><time>2026-04-05T11:36:55Z</time></trkpt><trkpt lat="44.480432534326624" lon="8.727811884522605"><ele>414.20000000000005</ele><time>2026-04-05T11:36:56Z</time></trkpt><trkpt lat="44.480393580642556" lon="8.72800423566339"><ele>415.79999999999995</ele><time>2026-04-05T11:36:57Z</time></trkpt><trkpt lat="44.48036725042936" lon="8.728131265541316"><ele>417.4</ele><time>2026-04-05T11:36:58Z</time></trkpt><trkpt lat="44.480335754687296" lon="8.728221412337918"><ele>419.0</ele><time>2026-04-05T11:36:59Z</time></trkpt><trkpt lat="44.48028860183465" lon="8.728281767720539"><ele>419.0</ele><time>2026-04-05T11:37:00Z</time></trkpt><trkpt lat="44.48022413977657" lon="8.728275357847023"><ele>419.0</ele><time>2026-04-05T11:37:01Z</time></trkpt><trkpt lat="44.48013938433249" lon="8.728231328519993"><ele>419.0</ele><time>2026-04-05T11:37:02Z</time></trkpt><trkpt lat="44.480061543909805" lon="8.728078153820299"><ele>419.0</ele><time>2026-04-05T11:37:03Z</time></trkpt><trkpt lat="44.4799549868527" lon="8.72795152682496"><ele>419.0</ele><time>2026-04-05T11:37:04Z</time></trkpt><trkpt lat="44.47985161106954" lon="8.727854903608318"><ele>419.0</ele><time>2026-04-05T11:37:05Z</time></trkpt><trkpt lat="44.47972922426581" lon="8.72781471845387"><ele>419.0</ele><time>2026-04-05T11:37:06Z</time></trkpt><trkpt lat="44.479577058133195" lon="8.727781457311565"><ele>419.0</ele><time>2026-04-05T11:37:07Z</time></trkpt><trkpt lat="44.479390993379255" lon="8.7278119441755"><ele>416.3333333333333</ele><time>2026-04-05T11:37:08Z</time></trkpt><trkpt lat="44.47917676171209" lon="8.727886708824082"><ele>413.66666666666663</ele><time>2026-04-05T11:37:09Z</time></trkpt><trkpt lat="44.47898399019892" lon="8.727952333178129"><ele>411.0</ele><time>2026-04-05T11:37:10Z</time></trkpt><trkpt lat="44.47881345374373" lon="8.728003176532908"><ele>403.25</ele><time>2026-04-05T11:37:11Z</time></trkpt><trkpt lat="44.478666607062706" lon="8.728036646600577"><ele>395.5</ele><time>2026-04-05T11:37:12Z</time></trkpt><trkpt lat="44.47854582880721" lon="8.728097776757181"><ele>387.75</ele><time>2026-04-05T11:37:13Z</time></trkpt><trkpt lat="44.478432733024306" lon="8.728195066301527"><ele>380.0</ele><time>2026-04-05T11:37:14Z</time></trkpt><trkpt lat="44.47832383932371" lon="8.728303404804334"><ele>380.0</ele><time>2026-04-05T11:37:15Z</time></trkpt><trkpt lat="44.47825302804054" lon="8.728431733926413"><ele>380.0</ele><time>2026-04-05T11:37:16Z</time></trkpt><trkpt lat="44.478213543531254" lon="8.72859889388976"><ele>380.0</ele><time>2026-04-05T11:37:17Z</time></trkpt><trkpt lat="44.47822004844925" lon="8.728795522108507"><ele>380.0</ele><time>2026-04-05T11:37:18Z</time></trkpt><trkpt lat="44.478241252599894" lon="8.728987599385572"><ele>382.75</ele><time>2026-04-05T11:37:19Z</time></trkpt><trkpt lat="44.47822976767319" lon="8.72914885578872"><ele>385.5</ele><time>2026-04-05T11:37:20Z</time></trkpt><trkpt lat="44.47816142455587" lon="8.729307539963411"><ele>388.25</ele><time>2026-04-05T11:37:21Z</time></trkpt><trkpt lat="44.47806736154156" lon="8.729497338663672"><ele>391.0</ele><time>2026-04-05T11:37:22Z</time></trkpt><trkpt lat="44.47801076683891" lon="8.729762088270629"><ele>395.0</ele><time>2026-04-05T11:37:23Z</time></trkpt><trkpt lat="44.477951379285656" lon="8.730030069598198"><ele>399.0</ele><time>2026-04-05T11:37:24Z</time></trkpt><trkpt lat="44.47790608409251" lon="8.730236725236256"><ele>403.0</ele><time>2026-04-05T11:37:25Z</time></trkpt><trkpt lat="44.47787686756172" lon="8.730386356893728"><ele>396.25</ele><time>2026-04-05T11:37:26Z</time></trkpt><trkpt lat="44.47786103161634" lon="8.730518048836846"><ele>389.5</ele><time>2026-04-05T11:37:27Z</time></trkpt><trkpt lat="44.47781781793648" lon="8.73062538548013"><ele>382.75</ele><time>2026-04-05T11:37:28Z</time></trkpt><trkpt lat="44.477729545186875" lon="8.730730970056742"><ele>376.0</ele><time>2026-04-05T11:37:29Z</time></trkpt><trkpt lat="44.47758678334575" lon="8.730835329957504"><ele>376.0</ele><time>2026-04-05T11:37:30Z</time></trkpt><trkpt lat="44.477418636190414" lon="8.73090586165717"><ele>376.0</ele><time>2026-04-05T11:37:31Z</time></trkpt><trkpt lat="44.47726950081754" lon="8.730951194961627"><ele>376.0</ele><time>2026-04-05T11:37:32Z</time></trkpt><trkpt lat="44.47714797028511" lon="8.730966495414652"><ele>373.0</ele><time>2026-04-05T11:37:33Z</time></trkpt><trkpt lat="44.477060563698345" lon="8.730956878211618"><ele>370.0</ele><time>2026-04-05T11:37:34Z</time></trkpt><trkpt lat="44.47697387420644" lon="8.731001832293217"><ele>367.0</ele><time>2026-04-05T11:37:35Z</time></trkpt><trkpt lat="44.4768671405791" lon="8.731099197228348"><ele>364.0</ele><time>2026-04-05T11:37:36Z</time></trkpt><trkpt lat="44.47677960186278" lon="8.731295192484561"><ele>364.0</ele><time>2026-04-05T11:37:37Z</time></trkpt><trkpt lat="44.47670418788631" lon="8.731424976330654"><ele>364.0</ele><time>2026-04-05T11:37:38Z</time></trkpt><trkpt lat="44.47665212494181" lon="8.731533963543164"><ele>364.0</ele><time>2026-04-05T11:37:39Z</time></trkpt><trkpt lat="44.47663375406948" lon="8.731637224256195"><ele>364.0</ele><time>2026-04-05T11:37:40Z</time></trkpt><trkpt lat="44.47665514311849" lon="8.731757734496545"><ele>364.0</ele><time>2026-04-05T11:37:40.999Z</time></trkpt><trkpt lat="44.476728051844745" lon="8.731868012762462"><ele>360.0</ele><time>2026-04-05T11:37:41.999Z</time></trkpt><trkpt lat="44.476840152960364" lon="8.731936687656246"><ele>356.0</ele><time>2026-04-05T11:37:42.999Z</time></trkpt><trkpt lat="44.476957089811826" lon="8.731976033339244"><ele>352.0</ele><time>2026-04-05T11:37:43.999Z</time></trkpt><trkpt lat="44.47707834547536" lon="8.73197609243027"><ele>348.0</ele><time>2026-04-05T11:37:44.999Z</time></trkpt><trkpt lat="44.47719850156335" lon="8.731913658159943"><ele>348.0</ele><time>2026-04-05T11:37:45.999Z</time></trkpt><trkpt lat="44.477295249276885" lon="8.73192532342354"><ele>348.0</ele><time>2026-04-05T11:37:46.999Z</time></trkpt><trkpt lat="44.477395264826356" lon="8.731965475904383"><ele>348.0</ele><time>2026-04-05T11:37:47.999Z</time></trkpt><trkpt lat="44.47751286067622" lon="8.732019834604529"><ele>348.0</ele><time>2026-04-05T11:37:48.999Z</time></trkpt><trkpt lat="44.47762972933601" lon="8.732073721316599"><ele>348.0</ele><time>2026-04-05T11:37:49.999Z</time></trkpt><trkpt lat="44.47772963658363" lon="8.732130812222914"><ele>348.0</ele><time>2026-04-05T11:37:50.999Z</time></trkpt><trkpt lat="44.47780885685424" lon="8.732155618107013"><ele>348.0</ele><time>2026-04-05T11:37:51.999Z</time></trkpt><trkpt lat="44.477877037377034" lon="8.732236388133225"><ele>348.0</ele><time>2026-04-05T11:37:52.999Z</time></trkpt><trkpt lat="44.477903454508414" lon="8.732368239972265"><ele>348.0</ele><time>2026-04-05T11:37:53.999Z</time></trkpt><trkpt lat="44.477896344594505" lon="8.732514375034413"><ele>348.0</ele><time>2026-04-05T11:37:54.999Z</time></trkpt><trkpt lat="44.47790010945544" lon="8.732672416700751"><ele>349.3333333333333</ele><time>2026-04-05T11:37:55.999Z</time></trkpt><trkpt lat="44.477973681806546" lon="8.732822744111253"><ele>350.66666666666663</ele><time>2026-04-05T11:37:56.999Z</time></trkpt><trkpt lat="44.478103649085334" lon="8.732957908052636"><ele>352.0</ele><time>2026-04-05T11:37:57.999Z</time></trkpt><trkpt lat="44.47823336617026" lon="8.733098213138298"><ele>352.0</ele><time>2026-04-05T11:37:58.999Z</time></trkpt><trkpt lat="44.478329418032125" lon="8.73321319406268"><ele>352.0</ele><time>2026-04-05T11:37:59.999Z</time></trkpt><trkpt lat="44.47841592478031" lon="8.733317954345837"><ele>352.0</ele><time>2026-04-05T11:38:00.999Z</time></trkpt><trkpt lat="44.47852111693448" lon="8.733369221648505"><ele>352.0</ele><time>2026-04-05T11:38:01.999Z</time></trkpt><trkpt lat="44.47863362382751" lon="8.733396316245138"><ele>352.0</ele><time>2026-04-05T11:38:02.999Z</time></trkpt><trkpt lat="44.47875661197375" lon="8.73342623978269"><ele>352.0</ele><time>2026-04-05T11:38:03.999Z</time></trkpt><trkpt lat="44.478857565430204" lon="8.733484099399709"><ele>352.0</ele><time>2026-04-05T11:38:04.999Z</time></trkpt><trkpt lat="44.47895305265049" lon="8.733552079833416"><ele>352.0</ele><time>2026-04-05T11:38:05.999Z</time></trkpt><trkpt lat="44.47900690179241" lon="8.73362062093992"><ele>352.0</ele><time>2026-04-05T11:38:06.999Z</time></trkpt><trkpt lat="44.47904128284275" lon="8.733701660265066"><ele>351.8</ele><time>2026-04-05T11:38:07.999Z</time></trkpt><trkpt lat="44.47907452835849" lon="8.733814473764577"><ele>351.6</ele><time>2026-04-05T11:38:08.999Z</time></trkpt><trkpt lat="44.479058822490515" lon="8.733929693870637"><ele>351.40000000000003</ele><time>2026-04-05T11:38:09.999Z</time></trkpt><trkpt lat="44.478987707134145" lon="8.734043491488062"><ele>351.20000000000005</ele><time>2026-04-05T11:38:10.999Z</time></trkpt><trkpt lat="44.478893083045385" lon="8.734119126548812"><ele>351.0</ele><time>2026-04-05T11:38:11.999Z</time></trkpt><trkpt lat="44.47874814484995" lon="8.734149254195403"><ele>351.0</ele><time>2026-04-05T11:38:12.999Z</time></trkpt><trkpt lat="44.47857011708754" lon="8.734169908205924"><ele>351.0</ele><time>2026-04-05T11:38:13.999Z</time></trkpt><trkpt lat="44.478377257671816" lon="8.734178192863313"><ele>351.0</ele><time>2026-04-05T11:38:14.999Z</time></trkpt><trkpt lat="44.47819563659171" lon="8.734157674002171"><ele>351.0</ele><time>2026-04-05T11:38:15.999Z</time></trkpt><trkpt lat="44.47800818963679" lon="8.734093023240092"><ele>351.0</ele><time>2026-04-05T11:38:16.999Z</time></trkpt><trkpt lat="44.477860669913326" lon="8.734026500010394"><ele>351.0</ele><time>2026-04-05T11:38:17.999Z</time></trkpt><trkpt lat="44.477729551422605" lon="8.734003855793691"><ele>350.20000000000005</ele><time>2026-04-05T11:38:18.999Z</time></trkpt><trkpt lat="44.47761531786933" lon="8.733989124854732"><ele>349.40000000000003</ele><time>2026-04-05T11:38:19.999Z</time></trkpt><trkpt lat="44.47751356361119" lon="8.734014459645005"><ele>348.6</ele><time>2026-04-05T11:38:20.999Z</time></trkpt><trkpt lat="44.477426437289026" lon="8.73409536622272"><ele>347.8</ele><time>2026-04-05T11:38:21.999Z</time></trkpt><trkpt lat="44.47735447374621" lon="8.734226340353267"><ele>347.0</ele><time>2026-04-05T11:38:22.999Z</time></trkpt><trkpt lat="44.47730113964817" lon="8.734306102440126"><ele>347.0</ele><time>2026-04-05T11:38:23.999Z</time></trkpt><trkpt lat="44.47719913815227" lon="8.734351119290586"><ele>347.0</ele><time>2026-04-05T11:38:24.999Z</time></trkpt><trkpt lat="44.47709432949008" lon="8.734277001540928"><ele>347.0</ele><time>2026-04-05T11:38:25.999Z</time></trkpt><trkpt lat="44.476960999165584" lon="8.734218139479983"><ele>347.0</ele><time>2026-04-05T11:38:26.999Z</time></trkpt><trkpt lat="44.476846204683916" lon="8.734140318606938"><ele>344.6666666666667</ele><time>2026-04-05T11:38:27.999Z</time></trkpt><trkpt lat="44.476675750708246" lon="8.734127986704548"><ele>342.3333333333333</ele><time>2026-04-05T11:38:28.999Z</time></trkpt><trkpt lat="44.47646458693536" lon="8.734194709936729"><ele>340.0</ele><time>2026-04-05T11:38:29.999Z</time></trkpt><trkpt lat="44.47628540249093" lon="8.734240039323838"><ele>338.66666666666663</ele><time>2026-04-05T11:38:30.999Z</time></trkpt><trkpt lat="44.47612567167797" lon="8.734275877914484"><ele>337.3333333333333</ele><time>2026-04-05T11:38:31.999Z</time></trkpt><trkpt lat="44.47596859665688" lon="8.734287448869354"><ele>336.0</ele><time>2026-04-05T11:38:32.999Z</time></trkpt><trkpt lat="44.47580766450475" lon="8.734279070034654"><ele>336.0</ele><time>2026-04-05T11:38:33.999Z</time></trkpt><trkpt lat="44.47563072963035" lon="8.734193427603499"><ele>336.0</ele><time>2026-04-05T11:38:34.999Z</time></trkpt><trkpt lat="44.47546716252194" lon="8.734075169077562"><ele>336.0</ele><time>2026-04-05T11:38:35.999Z</time></trkpt><trkpt lat="44.47534446921761" lon="8.733983778589629"><ele>337.6666666666667</ele><time>2026-04-05T11:38:36.999Z</time></trkpt><trkpt lat="44.47521333039338" lon="8.733900197374613"><ele>339.33333333333337</ele><time>2026-04-05T11:38:37.999Z</time></trkpt><trkpt lat="44.47504080966613" lon="8.733831951462523"><ele>341.0</ele><time>2026-04-05T11:38:38.999Z</time></trkpt><trkpt lat="44.47486442657522" lon="8.733827204572787"><ele>341.0</ele><time>2026-04-05T11:38:39.999Z</time></trkpt><trkpt lat="44.474705391063274" lon="8.733845855220206"><ele>341.0</ele><time>2026-04-05T11:38:40.999Z</time></trkpt><trkpt lat="44.47454128027287" lon="8.733885195282422"><ele>341.0</ele><time>2026-04-05T11:38:41.999Z</time></trkpt><trkpt lat="44.474375872247386" lon="8.733944690758152"><ele>334.33333333333337</ele><time>2026-04-05T11:38:42.999Z</time></trkpt><trkpt lat="44.47420137618403" lon="8.73403723645721"><ele>327.6666666666667</ele><time>2026-04-05T11:38:43.999Z</time></trkpt><trkpt lat="44.474023213728906" lon="8.734165633795476"><ele>321.0</ele><time>2026-04-05T11:38:44.999Z</time></trkpt><trkpt lat="44.473849106192915" lon="8.734317145181132"><ele>321.3333333333333</ele><time>2026-04-05T11:38:45.999Z</time></trkpt><trkpt lat="44.473705743009916" lon="8.734459483541606"><ele>321.66666666666663</ele><time>2026-04-05T11:38:46.999Z</time></trkpt><trkpt lat="44.473575479654215" lon="8.734590423127875"><ele>322.0</ele><time>2026-04-05T11:38:47.999Z</time></trkpt><trkpt lat="44.47344635469708" lon="8.734694702912691"><ele>322.0</ele><time>2026-04-05T11:38:49Z</time></trkpt><trkpt lat="44.47331237500815" lon="8.734744209868381"><ele>322.0</ele><time>2026-04-05T11:38:50Z</time></trkpt><trkpt lat="44.47318384563296" lon="8.734793213891843"><ele>322.0</ele><time>2026-04-05T11:38:51Z</time></trkpt><trkpt lat="44.47306308771109" lon="8.73486316054282"><ele>322.0</ele><time>2026-04-05T11:38:52Z</time></trkpt><trkpt lat="44.47296244696931" lon="8.734939928393052"><ele>319.0</ele><time>2026-04-05T11:38:53Z</time></trkpt><trkpt lat="44.47287885918299" lon="8.735036366586103"><ele>316.0</ele><time>2026-04-05T11:38:54Z</time></trkpt><trkpt lat="44.47282502238824" lon="8.735164164068918"><ele>313.0</ele><time>2026-04-05T11:38:55Z</time></trkpt><trkpt lat="44.47280463793042" lon="8.73536267310867"><ele>310.0</ele><time>2026-04-05T11:38:56Z</time></trkpt><trkpt lat="44.47280553206562" lon="8.735585012017216"><ele>310.0</ele><time>2026-04-05T11:38:57Z</time></trkpt><trkpt lat="44.47281310358194" lon="8.735787654056734"><ele>310.0</ele><time>2026-04-05T11:38:58Z</time></trkpt><trkpt lat="44.47281565237166" lon="8.735940724375487"><ele>310.0</ele><time>2026-04-05T11:38:59Z</time></trkpt><trkpt lat="44.47281129442826" lon="8.736068755024483"><ele>310.0</ele><time>2026-04-05T11:39:00Z</time></trkpt><trkpt lat="44.472790282016035" lon="8.736171319518242"><ele>310.0</ele><time>2026-04-05T11:39:01Z</time></trkpt><trkpt lat="44.472734138497884" lon="8.73624994640861"><ele>310.0</ele><time>2026-04-05T11:39:02Z</time></trkpt><trkpt lat="44.472632274830694" lon="8.736263456644444"><ele>310.0</ele><time>2026-04-05T11:39:03Z</time></trkpt><trkpt lat="44.4725536573156" lon="8.736221966542962"><ele>310.0</ele><time>2026-04-05T11:39:04Z</time></trkpt><trkpt lat="44.47246497880756" lon="8.736108687243627"><ele>310.0</ele><time>2026-04-05T11:39:05Z</time></trkpt><trkpt lat="44.47234772660132" lon="8.735959435675877"><ele>310.0</ele><time>2026-04-05T11:39:06Z</time></trkpt><trkpt lat="44.47223635714679" lon="8.735837986273976"><ele>310.0</ele><time>2026-04-05T11:39:07Z</time></trkpt><trkpt lat="44.472155411869544" lon="8.73576085927257"><ele>310.0</ele><time>2026-04-05T11:39:08Z</time></trkpt><trkpt lat="44.472075658235276" lon="8.735740946323338"><ele>310.0</ele><time>2026-04-05T11:39:09Z</time></trkpt><trkpt lat="44.471976066504546" lon="8.735769537822938"><ele>310.0</ele><time>2026-04-05T11:39:10Z</time></trkpt><trkpt lat="44.47188397660033" lon="8.735881225048287"><ele>308.0</ele><time>2026-04-05T11:39:11Z</time></trkpt><trkpt lat="44.47178926606478" lon="8.736053683718774"><ele>306.0</ele><time>2026-04-05T11:39:12Z</time></trkpt><trkpt lat="44.47169793166101" lon="8.736285798992746"><ele>304.0</ele><time>2026-04-05T11:39:13Z</time></trkpt><trkpt lat="44.47158709131148" lon="8.736513971132114"><ele>304.0</ele><time>2026-04-05T11:39:14Z</time></trkpt><trkpt lat="44.47149708157455" lon="8.736698270599769"><ele>304.0</ele><time>2026-04-05T11:39:15Z</time></trkpt><trkpt lat="44.471398935655145" lon="8.73684832520575"><ele>304.0</ele><time>2026-04-05T11:39:16Z</time></trkpt><trkpt lat="44.47126119091616" lon="8.736972843000641"><ele>300.3333333333333</ele><time>2026-04-05T11:39:17Z</time></trkpt><trkpt lat="44.471083305458016" lon="8.737101515148172"><ele>296.6666666666667</ele><time>2026-04-05T11:39:18Z</time></trkpt><trkpt lat="44.47093620763043" lon="8.737216530651134"><ele>293.0</ele><time>2026-04-05T11:39:19Z</time></trkpt><trkpt lat="44.47080694785316" lon="8.737321229399344"><ele>293.0</ele><time>2026-04-05T11:39:20Z</time></trkpt><trkpt lat="44.470692538269546" lon="8.737425412542738"><ele>293.0</ele><time>2026-04-05T11:39:21Z</time></trkpt><trkpt lat="44.47059942628867" lon="8.737526543986219"><ele>293.0</ele><time>2026-04-05T11:39:22Z</time></trkpt><trkpt lat="44.470538362790336" lon="8.73767336110298"><ele>293.0</ele><time>2026-04-05T11:39:23Z</time></trkpt><trkpt lat="44.470513736456944" lon="8.737856875385068"><ele>297.75</ele><time>2026-04-05T11:39:24Z</time></trkpt><trkpt lat="44.470509954687614" lon="8.738059376765205"><ele>302.5</ele><time>2026-04-05T11:39:25Z</time></trkpt><trkpt lat="44.47053857524403" lon="8.738228149853278"><ele>307.25</ele><time>2026-04-05T11:39:26Z</time></trkpt><trkpt lat="44.470544352303804" lon="8.738364113312784"><ele>312.0</ele><time>2026-04-05T11:39:27Z</time></trkpt><trkpt lat="44.470508568647865" lon="8.7385084654519"><ele>309.5</ele><time>2026-04-05T11:39:28Z</time></trkpt><trkpt lat="44.470406302649785" lon="8.738636304636"><ele>307.0</ele><time>2026-04-05T11:39:29Z</time></trkpt><trkpt lat="44.470268126502276" lon="8.738743807006262"><ele>304.5</ele><time>2026-04-05T11:39:30Z</time></trkpt><trkpt lat="44.47017179313046" lon="8.738845001511892"><ele>302.0</ele><time>2026-04-05T11:39:31Z</time></trkpt><trkpt lat="44.470094810875835" lon="8.738933655765443"><ele>302.0</ele><time>2026-04-05T11:39:32Z</time></trkpt><trkpt lat="44.4700099775584" lon="8.73898662879442"><ele>302.0</ele><time>2026-04-05T11:39:33Z</time></trkpt><trkpt lat="44.46991707235657" lon="8.738984708517805"><ele>302.0</ele><time>2026-04-05T11:39:34Z</time></trkpt><trkpt lat="44.46983468729262" lon="8.738915366780155"><ele>302.0</ele><time>2026-04-05T11:39:35Z</time></trkpt><trkpt lat="44.46977985705856" lon="8.73877414876011"><ele>302.0</ele><time>2026-04-05T11:39:36Z</time></trkpt><trkpt lat="44.4697416647947" lon="8.738594177893287"><ele>296.25</ele><time>2026-04-05T11:39:37Z</time></trkpt><trkpt lat="44.46971289253878" lon="8.738462368476432"><ele>290.5</ele><time>2026-04-05T11:39:38Z</time></trkpt><trkpt lat="44.46964471625295" lon="8.738355882918944"><ele>284.75</ele><time>2026-04-05T11:39:39Z</time></trkpt><trkpt lat="44.4695274255849" lon="8.738281920134064"><ele>279.0</ele><time>2026-04-05T11:39:40Z</time></trkpt><trkpt lat="44.469403765494135" lon="8.738270068663061"><ele>276.0</ele><time>2026-04-05T11:39:41Z</time></trkpt><trkpt lat="44.4692713115853" lon="8.73832856317765"><ele>273.0</ele><time>2026-04-05T11:39:42Z</time></trkpt><trkpt lat="44.469125521214515" lon="8.73843327107182"><ele>270.0</ele><time>2026-04-05T11:39:43Z</time></trkpt><trkpt lat="44.468960644514766" lon="8.73857400959256"><ele>273.6666666666667</ele><time>2026-04-05T11:39:44Z</time></trkpt><trkpt lat="44.46878739649999" lon="8.738757691689678"><ele>277.33333333333337</ele><time>2026-04-05T11:39:45Z</time></trkpt><trkpt lat="44.46860254313609" lon="8.738945145753783"><ele>281.0</ele><time>2026-04-05T11:39:46Z</time></trkpt><trkpt lat="44.46841113644212" lon="8.739110219356016"><ele>281.0</ele><time>2026-04-05T11:39:47Z</time></trkpt><trkpt lat="44.46821210538324" lon="8.739263562401897"><ele>281.0</ele><time>2026-04-05T11:39:48Z</time></trkpt><trkpt lat="44.468040049360624" lon="8.739390880347258"><ele>281.0</ele><time>2026-04-05T11:39:49.015Z</time></trkpt><trkpt lat="44.467891259529864" lon="8.739500214447109"><ele>279.25</ele><time>2026-04-05T11:39:50.016Z</time></trkpt><trkpt lat="44.46776953873948" lon="8.739590999235414"><ele>277.5</ele><time>2026-04-05T11:39:51.013Z</time></trkpt><trkpt lat="44.467666433588406" lon="8.739671266533005"><ele>275.75</ele><time>2026-04-05T11:39:52.018Z</time></trkpt><trkpt lat="44.46756878271679" lon="8.739732424417216"><ele>274.0</ele><time>2026-04-05T11:39:53.019Z</time></trkpt><trkpt lat="44.46747334571702" lon="8.73975756162799"><ele>274.0</ele><time>2026-04-05T11:39:53.999Z</time></trkpt><trkpt lat="44.46737730555547" lon="8.739739833582686"><ele>274.0</ele><time>2026-04-05T11:39:54.999Z</time></trkpt><trkpt lat="44.46730504495598" lon="8.739650711221127"><ele>274.0</ele><time>2026-04-05T11:39:55.999Z</time></trkpt><trkpt lat="44.467282791677526" lon="8.739479807041565"><ele>274.0</ele><time>2026-04-05T11:39:56.999Z</time></trkpt><trkpt lat="44.467246592601086" lon="8.739292315277602"><ele>272.0</ele><time>2026-04-05T11:39:57.999Z</time></trkpt><trkpt lat="44.467218719640876" lon="8.739146614969476"><ele>270.0</ele><time>2026-04-05T11:39:58.999Z</time></trkpt><trkpt lat="44.46716810153886" lon="8.739032652468639"><ele>268.0</ele><time>2026-04-05T11:39:59.999Z</time></trkpt><trkpt lat="44.46707366301112" lon="8.738961067794065"><ele>266.0</ele><time>2026-04-05T11:40:00.999Z</time></trkpt><trkpt lat="44.46694217837922" lon="8.738989810604378"><ele>264.0</ele><time>2026-04-05T11:40:01.999Z</time></trkpt><trkpt lat="44.46680087878784" lon="8.739057334268525"><ele>259.3333333333333</ele><time>2026-04-05T11:40:02.999Z</time></trkpt><trkpt lat="44.466626823658146" lon="8.739165210154567"><ele>254.66666666666666</ele><time>2026-04-05T11:40:03.999Z</time></trkpt><trkpt lat="44.46648840955393" lon="8.739248180086188"><ele>250.0</ele><time>2026-04-05T11:40:04.999Z</time></trkpt><trkpt lat="44.466373529097744" lon="8.739315582941792"><ele>252.4</ele><time>2026-04-05T11:40:05.999Z</time></trkpt><trkpt lat="44.46628032069916" lon="8.739384451545963"><ele>254.8</ele><time>2026-04-05T11:40:06.999Z</time></trkpt><trkpt lat="44.46619892393283" lon="8.73946598275165"><ele>257.2</ele><time>2026-04-05T11:40:07.999Z</time></trkpt><trkpt lat="44.46614162658512" lon="8.739611481184367"><ele>259.6</ele><time>2026-04-05T11:40:08.999Z</time></trkpt><trkpt lat="44.46608835759366" lon="8.739718697254755"><ele>262.0</ele><time>2026-04-05T11:40:09.999Z</time></trkpt><trkpt lat="44.46597932497965" lon="8.739757169650934"><ele>262.0</ele><time>2026-04-05T11:40:10.999Z</time></trkpt><trkpt lat="44.46585184951204" lon="8.739794389005004"><ele>262.0</ele><time>2026-04-05T11:40:11.999Z</time></trkpt><trkpt lat="44.46575684919933" lon="8.73981844913359"><ele>262.0</ele><time>2026-04-05T11:40:12.999Z</time></trkpt><trkpt lat="44.46566872666755" lon="8.739772721070556"><ele>262.0</ele><time>2026-04-05T11:40:13.999Z</time></trkpt><trkpt lat="44.46560326738471" lon="8.739659599575006"><ele>262.0</ele><time>2026-04-05T11:40:14.999Z</time></trkpt><trkpt lat="44.46550344518762" lon="8.73952683198363"><ele>254.75</ele><time>2026-04-05T11:40:15.999Z</time></trkpt><trkpt lat="44.4654058157022" lon="8.739358220644949"><ele>247.5</ele><time>2026-04-05T11:40:16.999Z</time></trkpt><trkpt lat="44.465298857255355" lon="8.7392387569766"><ele>240.25</ele><time>2026-04-05T11:40:17.999Z</time></trkpt><trkpt lat="44.465212556089064" lon="8.739141659357031"><ele>233.0</ele><time>2026-04-05T11:40:18.999Z</time></trkpt><trkpt lat="44.46513287616374" lon="8.739057231777869"><ele>233.0</ele><time>2026-04-05T11:40:19.999Z</time></trkpt><trkpt lat="44.46503124997935" lon="8.73904190540149"><ele>233.0</ele><time>2026-04-05T11:40:20.999Z</time></trkpt><trkpt lat="44.46492147926985" lon="8.739080068943348"><ele>233.0</ele><time>2026-04-05T11:40:21.999Z</time></trkpt><trkpt lat="44.46481508188878" lon="8.739191229617557"><ele>233.0</ele><time>2026-04-05T11:40:22.999Z</time></trkpt><trkpt lat="44.464714852327226" lon="8.739350646140942"><ele>238.0</ele><time>2026-04-05T11:40:23.999Z</time></trkpt><trkpt lat="44.464641170509815" lon="8.739493842419469"><ele>243.0</ele><time>2026-04-05T11:40:24.999Z</time></trkpt><trkpt lat="44.4645595300685" lon="8.739589692625103"><ele>248.0</ele><time>2026-04-05T11:40:25.999Z</time></trkpt><trkpt lat="44.464458681680256" lon="8.739634927947511"><ele>253.0</ele><time>2026-04-05T11:40:26.999Z</time></trkpt><trkpt lat="44.4643280945" lon="8.739631960010218"><ele>253.0</ele><time>2026-04-05T11:40:27.999Z</time></trkpt><trkpt lat="44.464187941337805" lon="8.739589623056292"><ele>253.0</ele><time>2026-04-05T11:40:28.999Z</time></trkpt><trkpt lat="44.46407396343648" lon="8.739547790135877"><ele>253.0</ele><time>2026-04-05T11:40:29.999Z</time></trkpt><trkpt lat="44.46396191344022" lon="8.73948901497612"><ele>253.0</ele><time>2026-04-05T11:40:30.999Z</time></trkpt><trkpt lat="44.46389023307687" lon="8.739357440329526"><ele>246.5</ele><time>2026-04-05T11:40:31.999Z</time></trkpt><trkpt lat="44.46379796332104" lon="8.739251818826588"><ele>240.0</ele><time>2026-04-05T11:40:32.999Z</time></trkpt><trkpt lat="44.46371308816489" lon="8.739196965554015"><ele>233.5</ele><time>2026-04-05T11:40:33.999Z</time></trkpt><trkpt lat="44.46360596303961" lon="8.73922116661343"><ele>227.0</ele><time>2026-04-05T11:40:34.999Z</time></trkpt><trkpt lat="44.46349274182641" lon="8.73930717816217"><ele>234.5</ele><time>2026-04-05T11:40:35.999Z</time></trkpt><trkpt lat="44.463381938554036" lon="8.739396836030648"><ele>242.0</ele><time>2026-04-05T11:40:36.999Z</time></trkpt><trkpt lat="44.463290451514126" lon="8.739465791677782"><ele>249.5</ele><time>2026-04-05T11:40:37.999Z</time></trkpt><trkpt lat="44.46317060992042" lon="8.739507539624977"><ele>257.0</ele><time>2026-04-05T11:40:38.999Z</time></trkpt><trkpt lat="44.46302949432463" lon="8.739487525626775"><ele>259.25</ele><time>2026-04-05T11:40:39.999Z</time></trkpt><trkpt lat="44.46291384186529" lon="8.739453699307527"><ele>261.5</ele><time>2026-04-05T11:40:40.999Z</time></trkpt><trkpt lat="44.462802776426074" lon="8.739393406022831"><ele>263.75</ele><time>2026-04-05T11:40:41.999Z</time></trkpt><trkpt lat="44.46265720268856" lon="8.739275842732825"><ele>266.0</ele><time>2026-04-05T11:40:42.999Z</time></trkpt><trkpt lat="44.46256728685415" lon="8.739157469565347"><ele>254.75</ele><time>2026-04-05T11:40:43.999Z</time></trkpt><trkpt lat="44.46248077065461" lon="8.73905918871627"><ele>243.5</ele><time>2026-04-05T11:40:44.999Z</time></trkpt><trkpt lat="44.46237111093" lon="8.738999492072992"><ele>232.25</ele><time>2026-04-05T11:40:45.999Z</time></trkpt><trkpt lat="44.46225470346515" lon="8.738963059938792"><ele>221.0</ele><time>2026-04-05T11:40:46.999Z</time></trkpt><trkpt lat="44.46211802567839" lon="8.738977651852448"><ele>218.5</ele><time>2026-04-05T11:40:47.999Z</time></trkpt><trkpt lat="44.46196642672085" lon="8.739019112421966"><ele>216.0</ele><time>2026-04-05T11:40:48.999Z</time></trkpt><trkpt lat="44.46183225936765" lon="8.739039077487094"><ele>213.5</ele><time>2026-04-05T11:40:49.999Z</time></trkpt><trkpt lat="44.46171156627036" lon="8.739065987243936"><ele>211.0</ele><time>2026-04-05T11:40:50.999Z</time></trkpt><trkpt lat="44.461594745123364" lon="8.739151098436775"><ele>211.0</ele><time>2026-04-05T11:40:51.999Z</time></trkpt><trkpt lat="44.46148673440835" lon="8.73926049653706"><ele>211.0</ele><time>2026-04-05T11:40:52.999Z</time></trkpt><trkpt lat="44.461397652252636" lon="8.739399172172503"><ele>211.0</ele><time>2026-04-05T11:40:53.999Z</time></trkpt><trkpt lat="44.46131366264526" lon="8.739550277726432"><ele>211.0</ele><time>2026-04-05T11:40:55Z</time></trkpt><trkpt lat="44.46125914268276" lon="8.739704831919484"><ele>208.60000000000002</ele><time>2026-04-05T11:40:56Z</time></trkpt><trkpt lat="44.46122703331886" lon="8.73986343097692"><ele>206.2</ele><time>2026-04-05T11:40:57Z</time></trkpt><trkpt lat="44.46122690141648" lon="8.740016187052865"><ele>203.8</ele><time>2026-04-05T11:40:58Z</time></trkpt><trkpt lat="44.46122736175907" lon="8.740156690086211"><ele>201.39999999999998</ele><time>2026-04-05T11:40:59Z</time></trkpt><trkpt lat="44.461200648416046" lon="8.740273639556216"><ele>199.0</ele><time>2026-04-05T11:41:00Z</time></trkpt><trkpt lat="44.461110551143825" lon="8.74036356643439"><ele>206.75</ele><time>2026-04-05T11:41:01Z</time></trkpt><trkpt lat="44.46098451868658" lon="8.740396293878344"><ele>214.5</ele><time>2026-04-05T11:41:02Z</time></trkpt><trkpt lat="44.46083385650922" lon="8.740420484170315"><ele>222.25</ele><time>2026-04-05T11:41:03Z</time></trkpt><trkpt lat="44.46070773946685" lon="8.740469733536669"><ele>230.0</ele><time>2026-04-05T11:41:04Z</time></trkpt><trkpt lat="44.460599050463905" lon="8.740544550135287"><ele>230.0</ele><time>2026-04-05T11:41:05Z</time></trkpt><trkpt lat="44.46050633343715" lon="8.740632032885348"><ele>230.0</ele><time>2026-04-05T11:41:06Z</time></trkpt><trkpt lat="44.46042311889711" lon="8.740727926290072"><ele>230.0</ele><time>2026-04-05T11:41:07Z</time></trkpt><trkpt lat="44.4603419960517" lon="8.740807547469888"><ele>230.0</ele><time>2026-04-05T11:41:08Z</time></trkpt><trkpt lat="44.4602402087193" lon="8.74083987137822"><ele>230.0</ele><time>2026-04-05T11:41:09Z</time></trkpt><trkpt lat="44.46011478198144" lon="8.74086231428805"><ele>223.33333333333334</ele><time>2026-04-05T11:41:10Z</time></trkpt><trkpt lat="44.45996123865287" lon="8.74089510130938"><ele>216.66666666666669</ele><time>2026-04-05T11:41:11Z</time></trkpt><trkpt lat="44.459788916120736" lon="8.740925131241715"><ele>210.0</ele><time>2026-04-05T11:41:12Z</time></trkpt><trkpt lat="44.45961304796262" lon="8.740959510966665"><ele>208.5</ele><time>2026-04-05T11:41:13Z</time></trkpt><trkpt lat="44.459439292356564" lon="8.740955396903953"><ele>207.0</ele><time>2026-04-05T11:41:14Z</time></trkpt><trkpt lat="44.45930178749372" lon="8.74095138736789"><ele>205.5</ele><time>2026-04-05T11:41:15Z</time></trkpt><trkpt lat="44.459190446323326" lon="8.740967061154475"><ele>204.0</ele><time>2026-04-05T11:41:16Z</time></trkpt><trkpt lat="44.459092178937375" lon="8.740948053609586"><ele>204.0</ele><time>2026-04-05T11:41:17Z</time></trkpt><trkpt lat="44.459000935051925" lon="8.740909279780112"><ele>204.0</ele><time>2026-04-05T11:41:18Z</time></trkpt><trkpt lat="44.458890979739245" lon="8.740773289071571"><ele>204.0</ele><time>2026-04-05T11:41:19Z</time></trkpt><trkpt lat="44.45877214241743" lon="8.740619724804175"><ele>204.0</ele><time>2026-04-05T11:41:20Z</time></trkpt><trkpt lat="44.45868138719372" lon="8.74052631654904"><ele>204.25</ele><time>2026-04-05T11:41:21Z</time></trkpt><trkpt lat="44.45859285512767" lon="8.740449618759873"><ele>204.5</ele><time>2026-04-05T11:41:22Z</time></trkpt><trkpt lat="44.45849882173314" lon="8.740411275354496"><ele>204.75</ele><time>2026-04-05T11:41:23Z</time></trkpt><trkpt lat="44.45834975035974" lon="8.74043542703802"><ele>205.0</ele><time>2026-04-05T11:41:24Z</time></trkpt><trkpt lat="44.458194358560746" lon="8.740469990956148"><ele>205.0</ele><time>2026-04-05T11:41:25Z</time></trkpt><trkpt lat="44.458066533975405" lon="8.740506652256471"><ele>205.0</ele><time>2026-04-05T11:41:26Z</time></trkpt><trkpt lat="44.45794370497045" lon="8.740550767537659"><ele>205.0</ele><time>2026-04-05T11:41:27Z</time></trkpt><trkpt lat="44.457821994138534" lon="8.740620789894793"><ele>205.0</ele><time>2026-04-05T11:41:28Z</time></trkpt><trkpt lat="44.457705738580394" lon="8.740736740652725"><ele>207.75</ele><time>2026-04-05T11:41:29Z</time></trkpt><trkpt lat="44.45760641945347" lon="8.74087252311942"><ele>210.5</ele><time>2026-04-05T11:41:30Z</time></trkpt><trkpt lat="44.457489225920426" lon="8.74097539463794"><ele>213.25</ele><time>2026-04-05T11:41:31Z</time></trkpt><trkpt lat="44.457341028890646" lon="8.741017529176915"><ele>216.0</ele><time>2026-04-05T11:41:32Z</time></trkpt><trkpt lat="44.45716259881643" lon="8.741061448058916"><ele>210.25</ele><time>2026-04-05T11:41:33Z</time></trkpt><trkpt lat="44.4570044723679" lon="8.741123885329786"><ele>204.5</ele><time>2026-04-05T11:41:34Z</time></trkpt><trkpt lat="44.45686822100821" lon="8.741209683726352"><ele>198.75</ele><time>2026-04-05T11:41:35Z</time></trkpt><trkpt lat="44.456756263351394" lon="8.74125481459563"><ele>193.0</ele><time>2026-04-05T11:41:36Z</time></trkpt><trkpt lat="44.45664267065107" lon="8.741286529482968"><ele>193.0</ele><time>2026-04-05T11:41:37Z</time></trkpt><trkpt lat="44.45653534208987" lon="8.741385816312382"><ele>193.0</ele><time>2026-04-05T11:41:38Z</time></trkpt><trkpt lat="44.4564486327651" lon="8.741512394217509"><ele>193.0</ele><time>2026-04-05T11:41:39Z</time></trkpt><trkpt lat="44.456384361486045" lon="8.741639211767742"><ele>193.0</ele><time>2026-04-05T11:41:40Z</time></trkpt><trkpt lat="44.45627011133969" lon="8.741678270734248"><ele>188.0</ele><time>2026-04-05T11:41:41Z</time></trkpt><trkpt lat="44.456135146950224" lon="8.741759291268462"><ele>183.0</ele><time>2026-04-05T11:41:42Z</time></trkpt><trkpt lat="44.456019745395615" lon="8.741804752669278"><ele>178.0</ele><time>2026-04-05T11:41:43Z</time></trkpt><trkpt lat="44.45592225084666" lon="8.741864075470632"><ele>173.0</ele><time>2026-04-05T11:41:44Z</time></trkpt><trkpt lat="44.45578132711652" lon="8.7418307915089"><ele>173.0</ele><time>2026-04-05T11:41:45Z</time></trkpt><trkpt lat="44.45562757150302" lon="8.741767571338903"><ele>173.0</ele><time>2026-04-05T11:41:46Z</time></trkpt><trkpt lat="44.455495507054074" lon="8.74174300486892"><ele>173.0</ele><time>2026-04-05T11:41:47Z</time></trkpt><trkpt lat="44.45537706367886" lon="8.741765657424228"><ele>173.0</ele><time>2026-04-05T11:41:48Z</time></trkpt><trkpt lat="44.45526116933986" lon="8.741831931544601"><ele>171.75</ele><time>2026-04-05T11:41:49Z</time></trkpt><trkpt lat="44.45515670565232" lon="8.741907104822353"><ele>170.5</ele><time>2026-04-05T11:41:50Z</time></trkpt><trkpt lat="44.45503254022314" lon="8.741905716307572"><ele>169.25</ele><time>2026-04-05T11:41:51Z</time></trkpt><trkpt lat="44.454907039897584" lon="8.741831349424928"><ele>168.0</ele><time>2026-04-05T11:41:52Z</time></trkpt><trkpt lat="44.45479750669762" lon="8.741789907919435"><ele>168.0</ele><time>2026-04-05T11:41:53Z</time></trkpt><trkpt lat="44.454669561238966" lon="8.741747687746418"><ele>168.0</ele><time>2026-04-05T11:41:54Z</time></trkpt><trkpt lat="44.454529285311295" lon="8.741810238568238"><ele>168.0</ele><time>2026-04-05T11:41:55Z</time></trkpt><trkpt lat="44.454429103458786" lon="8.741853641679572"><ele>168.0</ele><time>2026-04-05T11:41:55.999Z</time></trkpt><trkpt lat="44.454365322274725" lon="8.741878581582544"><ele>174.2</ele><time>2026-04-05T11:41:56.999Z</time></trkpt><trkpt lat="44.45427419007679" lon="8.741942440659672"><ele>180.4</ele><time>2026-04-05T11:42:34.999Z</time></trkpt><trkpt lat="44.45421227771333" lon="8.742042895534826"><ele>186.6</ele><time>2026-04-05T11:42:57.999Z</time></trkpt><trkpt lat="44.454088131287584" lon="8.742108027583328"><ele>192.79999999999998</ele><time>2026-04-05T11:42:59.999Z</time></trkpt><trkpt lat="44.45401157584557" lon="8.742113530019573"><ele>199.0</ele><time>2026-04-05T11:43:01Z</time></trkpt><trkpt lat="44.45390664529986" lon="8.74209248059422"><ele>199.0</ele><time>2026-04-05T11:43:02Z</time></trkpt><trkpt lat="44.45381789405615" lon="8.742075493664137"><ele>199.0</ele><time>2026-04-05T11:43:03Z</time></trkpt><trkpt lat="44.4537134815694" lon="8.74207279035309"><ele>199.0</ele><time>2026-04-05T11:43:04Z</time></trkpt><trkpt lat="44.453601425590854" lon="8.742046791531518"><ele>199.0</ele><time>2026-04-05T11:43:05Z</time></trkpt><trkpt lat="44.453519134732105" lon="8.742142144619523"><ele>199.0</ele><time>2026-04-05T11:43:06Z</time></trkpt><trkpt lat="44.4534329630985" lon="8.742218253448074"><ele>201.0</ele><time>2026-04-05T11:43:07Z</time></trkpt><trkpt lat="44.4533575026617" lon="8.742299875230685"><ele>203.0</ele><time>2026-04-05T11:43:08Z</time></trkpt><trkpt lat="44.4533379362139" lon="8.742461643071163"><ele>205.0</ele><time>2026-04-05T11:43:09Z</time></trkpt><trkpt lat="44.45331556211285" lon="8.742637170057789"><ele>207.0</ele><time>2026-04-05T11:43:10Z</time></trkpt><trkpt lat="44.453282605017954" lon="8.742751431386747"><ele>209.0</ele><time>2026-04-05T11:43:11Z</time></trkpt><trkpt lat="44.45323994525646" lon="8.742873023298994"><ele>209.0</ele><time>2026-04-05T11:43:12Z</time></trkpt><trkpt lat="44.45313987177066" lon="8.742934060626418"><ele>209.0</ele><time>2026-04-05T11:43:13Z</time></trkpt><trkpt lat="44.45303755124693" lon="8.74291122494244"><ele>209.0</ele><time>2026-04-05T11:43:14Z</time></trkpt><trkpt lat="44.45287092026999" lon="8.742938202244474"><ele>209.0</ele><time>2026-04-05T11:43:15Z</time></trkpt><trkpt lat="44.45274672404265" lon="8.742963653533069"><ele>200.66666666666669</ele><time>2026-04-05T11:43:16Z</time></trkpt><trkpt lat="44.45263287339178" lon="8.743027622340101"><ele>192.33333333333334</ele><time>2026-04-05T11:43:17Z</time></trkpt><trkpt lat="44.45249229721875" lon="8.743168107184573"><ele>184.0</ele><time>2026-04-05T11:43:18Z</time></trkpt><trkpt lat="44.4523508080258" lon="8.74332015332143"><ele>184.0</ele><time>2026-04-05T11:43:19Z</time></trkpt><trkpt lat="44.452237617091455" lon="8.743426508578501"><ele>184.0</ele><time>2026-04-05T11:43:20Z</time></trkpt><trkpt lat="44.452065836319896" lon="8.74352282936238"><ele>184.0</ele><time>2026-04-05T11:43:21Z</time></trkpt><trkpt lat="44.45190021151681" lon="8.74356365097573"><ele>183.5</ele><time>2026-04-05T11:43:22Z</time></trkpt><trkpt lat="44.45172160590609" lon="8.743590871530312"><ele>183.0</ele><time>2026-04-05T11:43:23Z</time></trkpt><trkpt lat="44.451586994121044" lon="8.743607283388782"><ele>182.5</ele><time>2026-04-05T11:43:24Z</time></trkpt><trkpt lat="44.45150318375686" lon="8.743647506879086"><ele>182.0</ele><time>2026-04-05T11:43:25Z</time></trkpt><trkpt lat="44.45132642965467" lon="8.74375066802132"><ele>167.0</ele><time>2026-04-05T11:43:26Z</time></trkpt><trkpt lat="44.45110772090586" lon="8.74388931582262"><ele>152.0</ele><time>2026-04-05T11:43:27Z</time></trkpt><trkpt lat="44.450975517324494" lon="8.744052528656054"><ele>137.0</ele><time>2026-04-05T11:43:28Z</time></trkpt><trkpt lat="44.450813814869555" lon="8.744125740558529"><ele>137.0</ele><time>2026-04-05T11:43:29Z</time></trkpt><trkpt lat="44.45065497348949" lon="8.744198664963962"><ele>137.0</ele><time>2026-04-05T11:43:30Z</time></trkpt><trkpt lat="44.450509234841796" lon="8.744279217724818"><ele>137.0</ele><time>2026-04-05T11:43:31Z</time></trkpt><trkpt lat="44.45038495898744" lon="8.744413181424868"><ele>140.0</ele><time>2026-04-05T11:43:32Z</time></trkpt><trkpt lat="44.450240248171816" lon="8.744555926232348"><ele>143.0</ele><time>2026-04-05T11:43:33Z</time></trkpt><trkpt lat="44.450080055837375" lon="8.744707421390423"><ele>146.0</ele><time>2026-04-05T11:43:34Z</time></trkpt><trkpt lat="44.44993624651418" lon="8.744873197191824"><ele>146.0</ele><time>2026-04-05T11:43:35Z</time></trkpt><trkpt lat="44.44981347512453" lon="8.745018381641781"><ele>146.0</ele><time>2026-04-05T11:43:36Z</time></trkpt><trkpt lat="44.449691510728506" lon="8.745168153798984"><ele>146.0</ele><time>2026-04-05T11:43:37Z</time></trkpt><trkpt lat="44.44958281146713" lon="8.745307017065784"><ele>146.33333333333331</ele><time>2026-04-05T11:43:38Z</time></trkpt><trkpt lat="44.44945557504412" lon="8.745442628168465"><ele>146.66666666666666</ele><time>2026-04-05T11:43:39Z</time></trkpt><trkpt lat="44.449290779843736" lon="8.745545579389901"><ele>147.0</ele><time>2026-04-05T11:43:40Z</time></trkpt><trkpt lat="44.449091558445716" lon="8.745617916964967"><ele>147.0</ele><time>2026-04-05T11:43:41Z</time></trkpt><trkpt lat="44.44892315667042" lon="8.74568630195571"><ele>147.0</ele><time>2026-04-05T11:43:42Z</time></trkpt><trkpt lat="44.448770872875045" lon="8.74578020438048"><ele>147.0</ele><time>2026-04-05T11:43:43Z</time></trkpt><trkpt lat="44.448623369402846" lon="8.745851163490114"><ele>142.5</ele><time>2026-04-05T11:43:44Z</time></trkpt><trkpt lat="44.44847618034172" lon="8.745882995528401"><ele>138.0</ele><time>2026-04-05T11:43:45Z</time></trkpt><trkpt lat="44.44834588065206" lon="8.745898709586225"><ele>133.5</ele><time>2026-04-05T11:43:46Z</time></trkpt><trkpt lat="44.448238136594995" lon="8.74591107214986"><ele>129.0</ele><time>2026-04-05T11:43:47Z</time></trkpt><trkpt lat="44.44813740102821" lon="8.745930059789734"><ele>129.0</ele><time>2026-04-05T11:43:48Z</time></trkpt><trkpt lat="44.44803842643719" lon="8.745963694728044"><ele>129.0</ele><time>2026-04-05T11:43:49Z</time></trkpt><trkpt lat="44.447946370102095" lon="8.74602446211855"><ele>129.0</ele><time>2026-04-05T11:43:50Z</time></trkpt><trkpt lat="44.447864095817394" lon="8.746165233971128"><ele>129.0</ele><time>2026-04-05T11:43:51Z</time></trkpt><trkpt lat="44.4478402653194" lon="8.746357479615389"><ele>127.0</ele><time>2026-04-05T11:43:52Z</time></trkpt><trkpt lat="44.44787831584366" lon="8.746539960512662"><ele>125.0</ele><time>2026-04-05T11:43:53Z</time></trkpt><trkpt lat="44.44793189708298" lon="8.746731856616126"><ele>123.0</ele><time>2026-04-05T11:43:54Z</time></trkpt><trkpt lat="44.447974989027294" lon="8.746920963108279"><ele>121.0</ele><time>2026-04-05T11:43:55Z</time></trkpt><trkpt lat="44.4480378677022" lon="8.747063432229407"><ele>121.0</ele><time>2026-04-05T11:43:56Z</time></trkpt><trkpt lat="44.4480898719472" lon="8.747203516297574"><ele>121.0</ele><time>2026-04-05T11:43:57Z</time></trkpt><trkpt lat="44.44819245899586" lon="8.74727411364676"><ele>121.0</ele><time>2026-04-05T11:43:58Z</time></trkpt><trkpt lat="44.44828774303082" lon="8.7473319945019"><ele>121.0</ele><time>2026-04-05T11:43:59Z</time></trkpt><trkpt lat="44.44838609545752" lon="8.747417533532257"><ele>121.0</ele><time>2026-04-05T11:44:00Z</time></trkpt><trkpt lat="44.4485078511792" lon="8.747404607206716"><ele>121.0</ele><time>2026-04-05T11:44:01Z</time></trkpt><trkpt lat="44.448640250287" lon="8.747359369843728"><ele>121.0</ele><time>2026-04-05T11:44:01.999Z</time></trkpt><trkpt lat="44.44878723830733" lon="8.747334994953556"><ele>121.0</ele><time>2026-04-05T11:44:02.999Z</time></trkpt><trkpt lat="44.44894951737306" lon="8.747360276111545"><ele>121.0</ele><time>2026-04-05T11:44:03.999Z</time></trkpt><trkpt lat="44.44909730103643" lon="8.747397585518495"><ele>120.75</ele><time>2026-04-05T11:44:04.999Z</time></trkpt><trkpt lat="44.44922503842332" lon="8.747448100098481"><ele>120.5</ele><time>2026-04-05T11:44:05.999Z</time></trkpt><trkpt lat="44.44934958182944" lon="8.747483400644525"><ele>120.25</ele><time>2026-04-05T11:44:06.999Z</time></trkpt><trkpt lat="44.44946490662182" lon="8.747516848079076"><ele>120.0</ele><time>2026-04-05T11:44:07.999Z</time></trkpt><trkpt lat="44.44955916571902" lon="8.747610564733309"><ele>116.66666666666666</ele><time>2026-04-05T11:44:08.999Z</time></trkpt><trkpt lat="44.44965641733841" lon="8.747739577220333"><ele>113.33333333333333</ele><time>2026-04-05T11:44:09.999Z</time></trkpt><trkpt lat="44.44977557377347" lon="8.747890083227364"><ele>110.0</ele><time>2026-04-05T11:44:10.999Z</time></trkpt><trkpt lat="44.449909493035214" lon="8.74803498710714"><ele>110.0</ele><time>2026-04-05T11:44:11.999Z</time></trkpt><trkpt lat="44.45005117187692" lon="8.748110731446026"><ele>110.0</ele><time>2026-04-05T11:44:12.999Z</time></trkpt><trkpt lat="44.450171892489394" lon="8.748182180114078"><ele>110.0</ele><time>2026-04-05T11:44:13.999Z</time></trkpt><trkpt lat="44.45028325662339" lon="8.748264450097453"><ele>110.0</ele><time>2026-04-05T11:44:14.999Z</time></trkpt><trkpt lat="44.45037103376386" lon="8.748317021229154"><ele>110.0</ele><time>2026-04-05T11:44:15.999Z</time></trkpt><trkpt lat="44.45043009819313" lon="8.748367417003394"><ele>110.0</ele><time>2026-04-05T11:44:16.999Z</time></trkpt><trkpt lat="44.450462333713716" lon="8.74852946118092"><ele>110.0</ele><time>2026-04-05T11:44:18.999Z</time></trkpt><trkpt lat="44.45033767340826" lon="8.748578494337044"><ele>110.0</ele><time>2026-04-05T11:44:20.999Z</time></trkpt><trkpt lat="44.45026575618487" lon="8.748521112977095"><ele>110.0</ele><time>2026-04-05T11:44:21.999Z</time></trkpt><trkpt lat="44.450181766058684" lon="8.748474113043324"><ele>110.0</ele><time>2026-04-05T11:44:22.999Z</time></trkpt><trkpt lat="44.45010327691705" lon="8.748381450570742"><ele>110.0</ele><time>2026-04-05T11:44:23.999Z</time></trkpt><trkpt lat="44.45003293296412" lon="8.748292718454978"><ele>110.0</ele><time>2026-04-05T11:44:24.999Z</time></trkpt><trkpt lat="44.449956868867815" lon="8.748203063374998"><ele>110.0</ele><time>2026-04-05T11:44:25.999Z</time></trkpt><trkpt lat="44.449874496177536" lon="8.74811191607546"><ele>110.0</ele><time>2026-04-05T11:44:26.999Z</time></trkpt><trkpt lat="44.44979325536854" lon="8.748022403942981"><ele>110.0</ele><time>2026-04-05T11:44:27.999Z</time></trkpt><trkpt lat="44.44971437851939" lon="8.74793713255933"><ele>110.0</ele><time>2026-04-05T11:44:28.999Z</time></trkpt><trkpt lat="44.44963231757828" lon="8.747859457836396"><ele>110.0</ele><time>2026-04-05T11:44:29.999Z</time></trkpt><trkpt lat="44.44954981205625" lon="8.747798193454008"><ele>110.0</ele><time>2026-04-05T11:44:30.999Z</time></trkpt><trkpt lat="44.44944868488048" lon="8.747765792726355"><ele>110.0</ele><time>2026-04-05T11:44:31.999Z</time></trkpt><trkpt lat="44.44934696523159" lon="8.747741985459419"><ele>112.5</ele><time>2026-04-05T11:44:32.999Z</time></trkpt><trkpt lat="44.44923689540593" lon="8.74772257239351"><ele>115.0</ele><time>2026-04-05T11:44:33.999Z</time></trkpt><trkpt lat="44.449123545592435" lon="8.747711563581797"><ele>117.5</ele><time>2026-04-05T11:44:34.999Z</time></trkpt><trkpt lat="44.44901405567212" lon="8.747700658495729"><ele>120.0</ele><time>2026-04-05T11:44:35.999Z</time></trkpt><trkpt lat="44.44889170859627" lon="8.747717282824967"><ele>112.5</ele><time>2026-04-05T11:44:36.999Z</time></trkpt><trkpt lat="44.448783161039806" lon="8.747745521695444"><ele>105.0</ele><time>2026-04-05T11:44:37.999Z</time></trkpt><trkpt lat="44.44866289068678" lon="8.747760042988386"><ele>97.5</ele><time>2026-04-05T11:44:38.999Z</time></trkpt><trkpt lat="44.448546759414" lon="8.747797898012251"><ele>90.0</ele><time>2026-04-05T11:44:39.999Z</time></trkpt><trkpt lat="44.448430886881695" lon="8.747821763792263"><ele>90.0</ele><time>2026-04-05T11:44:40.999Z</time></trkpt><trkpt lat="44.448320465640606" lon="8.747853454632002"><ele>90.0</ele><time>2026-04-05T11:44:41.999Z</time></trkpt><trkpt lat="44.448223477606966" lon="8.74790228762327"><ele>90.0</ele><time>2026-04-05T11:44:42.999Z</time></trkpt><trkpt lat="44.44813846201583" lon="8.74797229982372"><ele>90.0</ele><time>2026-04-05T11:44:43.999Z</time></trkpt><trkpt lat="44.44806699119929" lon="8.748064552754974"><ele>90.0</ele><time>2026-04-05T11:44:44.999Z</time></trkpt><trkpt lat="44.4479945828129" lon="8.748185350496046"><ele>89.0</ele><time>2026-04-05T11:44:45.999Z</time></trkpt><trkpt lat="44.44794272779272" lon="8.748318765279246"><ele>88.0</ele><time>2026-04-05T11:44:46.999Z</time></trkpt><trkpt lat="44.44787514291303" lon="8.748472209739134"><ele>87.0</ele><time>2026-04-05T11:44:47.999Z</time></trkpt><trkpt lat="44.44778462235315" lon="8.748580988709252"><ele>86.0</ele><time>2026-04-05T11:44:48.999Z</time></trkpt><trkpt lat="44.44766860726434" lon="8.748672185078428"><ele>86.0</ele><time>2026-04-05T11:44:49.999Z</time></trkpt><trkpt lat="44.44751897803161" lon="8.748822277727825"><ele>86.0</ele><time>2026-04-05T11:44:50.999Z</time></trkpt><trkpt lat="44.44739109615624" lon="8.748954982480306"><ele>86.0</ele><time>2026-04-05T11:44:51.999Z</time></trkpt><trkpt lat="44.44728876686958" lon="8.749097203003728"><ele>86.0</ele><time>2026-04-05T11:44:52.999Z</time></trkpt><trkpt lat="44.44718981400094" lon="8.749240550722252"><ele>86.0</ele><time>2026-04-05T11:44:53.999Z</time></trkpt><trkpt lat="44.447075947982285" lon="8.749347765329683"><ele>86.0</ele><time>2026-04-05T11:44:54.999Z</time></trkpt><trkpt lat="44.44692842090225" lon="8.749407978479704"><ele>86.0</ele><time>2026-04-05T11:44:55.999Z</time></trkpt><trkpt lat="44.44678653264017" lon="8.749449039886029"><ele>83.5</ele><time>2026-04-05T11:44:56.999Z</time></trkpt><trkpt lat="44.44666961141795" lon="8.749514782785722"><ele>81.0</ele><time>2026-04-05T11:44:57.999Z</time></trkpt><trkpt lat="44.44657506482579" lon="8.749632918587094"><ele>78.5</ele><time>2026-04-05T11:44:58.999Z</time></trkpt><trkpt lat="44.44648779296375" lon="8.749818248000024"><ele>76.0</ele><time>2026-04-05T11:44:59.999Z</time></trkpt><trkpt lat="44.446407356074666" lon="8.75000513266553"><ele>76.0</ele><time>2026-04-05T11:45:00.999Z</time></trkpt><trkpt lat="44.446311320602405" lon="8.750148723204797"><ele>76.0</ele><time>2026-04-05T11:45:01.999Z</time></trkpt><trkpt lat="44.446197015560735" lon="8.750278948403349"><ele>76.0</ele><time>2026-04-05T11:45:02.999Z</time></trkpt><trkpt lat="44.44607218951512" lon="8.75040361822859"><ele>76.0</ele><time>2026-04-05T11:45:03.999Z</time></trkpt><trkpt lat="44.44596319556423" lon="8.750499775563659"><ele>75.2</ele><time>2026-04-05T11:45:04.999Z</time></trkpt><trkpt lat="44.4458710002895" lon="8.750576627034729"><ele>74.39999999999999</ele><time>2026-04-05T11:45:05.999Z</time></trkpt><trkpt lat="44.44577840048807" lon="8.750658566499974"><ele>73.6</ele><time>2026-04-05T11:45:07Z</time></trkpt><trkpt lat="44.445695973916735" lon="8.750724637877019"><ele>72.8</ele><time>2026-04-05T11:45:08Z</time></trkpt><trkpt lat="44.44560461916126" lon="8.750742695613576"><ele>72.0</ele><time>2026-04-05T11:45:09Z</time></trkpt><trkpt lat="44.44549344903692" lon="8.750703521577158"><ele>71.83333333333333</ele><time>2026-04-05T11:45:10Z</time></trkpt><trkpt lat="44.4453948985965" lon="8.75064119862415"><ele>71.66666666666667</ele><time>2026-04-05T11:45:11Z</time></trkpt><trkpt lat="44.445318389310565" lon="8.750595525669079"><ele>71.5</ele><time>2026-04-05T11:45:12Z</time></trkpt><trkpt lat="44.44523976129191" lon="8.750555372798331"><ele>71.33333333333334</ele><time>2026-04-05T11:45:13Z</time></trkpt><trkpt lat="44.44516442423011" lon="8.75053360239598"><ele>71.16666666666667</ele><time>2026-04-05T11:45:14Z</time></trkpt><trkpt lat="44.445069684049486" lon="8.750541615223279"><ele>71.0</ele><time>2026-04-05T11:45:15Z</time></trkpt><trkpt lat="44.44497779510499" lon="8.750585253378567"><ele>71.0</ele><time>2026-04-05T11:45:16Z</time></trkpt><trkpt lat="44.44489190335245" lon="8.750640332379355"><ele>71.0</ele><time>2026-04-05T11:45:17Z</time></trkpt><trkpt lat="44.44479968102465" lon="8.750703278905043"><ele>71.0</ele><time>2026-04-05T11:45:18Z</time></trkpt><trkpt lat="44.44469984165707" lon="8.750763370481792"><ele>71.0</ele><time>2026-04-05T11:45:19Z</time></trkpt><trkpt lat="44.44460151937099" lon="8.750807412804242"><ele>71.0</ele><time>2026-04-05T11:45:20Z</time></trkpt><trkpt lat="44.44449413896575" lon="8.750847322304104"><ele>68.5</ele><time>2026-04-05T11:45:21Z</time></trkpt><trkpt lat="44.44437862535058" lon="8.7508672363138"><ele>66.0</ele><time>2026-04-05T11:45:22Z</time></trkpt><trkpt lat="44.44427112100677" lon="8.750866058522426"><ele>63.5</ele><time>2026-04-05T11:45:23Z</time></trkpt><trkpt lat="44.444164686249124" lon="8.750827768164646"><ele>61.0</ele><time>2026-04-05T11:45:24Z</time></trkpt><trkpt lat="44.44406097964221" lon="8.750744218806092"><ele>61.0</ele><time>2026-04-05T11:45:25Z</time></trkpt><trkpt lat="44.44396101075068" lon="8.750644061472414"><ele>60.99999999999999</ele><time>2026-04-05T11:45:26Z</time></trkpt><trkpt lat="44.443882495163436" lon="8.750554287795165"><ele>60.99999999999999</ele><time>2026-04-05T11:45:27Z</time></trkpt><trkpt lat="44.443806919365436" lon="8.750465300428036"><ele>61.0</ele><time>2026-04-05T11:45:28Z</time></trkpt><trkpt lat="44.44373635343524" lon="8.750363275183913"><ele>61.0</ele><time>2026-04-05T11:45:29Z</time></trkpt><trkpt lat="44.4436754446784" lon="8.750260575591033"><ele>58.0</ele><time>2026-04-05T11:45:30Z</time></trkpt><trkpt lat="44.443620351123585" lon="8.750158712147135"><ele>54.99999999999999</ele><time>2026-04-05T11:45:31Z</time></trkpt><trkpt lat="44.443568423208745" lon="8.750054898263935"><ele>52.0</ele><time>2026-04-05T11:45:32Z</time></trkpt><trkpt lat="44.443527749371405" lon="8.749934376175256"><ele>49.0</ele><time>2026-04-05T11:45:33Z</time></trkpt><trkpt lat="44.44350230660747" lon="8.749787771033743"><ele>46.0</ele><time>2026-04-05T11:45:34Z</time></trkpt><trkpt lat="44.44348602915396" lon="8.749612398202208"><ele>46.0</ele><time>2026-04-05T11:45:35Z</time></trkpt><trkpt lat="44.443493894382144" lon="8.749442731197508"><ele>46.0</ele><time>2026-04-05T11:45:36Z</time></trkpt><trkpt lat="44.443504022385724" lon="8.74929907864672"><ele>46.0</ele><time>2026-04-05T11:45:37Z</time></trkpt><trkpt lat="44.443505532886846" lon="8.749157196273082"><ele>46.0</ele><time>2026-04-05T11:45:38Z</time></trkpt><trkpt lat="44.44347661226643" lon="8.748996756538276"><ele>46.0</ele><time>2026-04-05T11:45:39Z</time></trkpt><trkpt lat="44.44339801646492" lon="8.748804937955738"><ele>48.0</ele><time>2026-04-05T11:45:40Z</time></trkpt><trkpt lat="44.44330816258755" lon="8.748575728761502"><ele>50.0</ele><time>2026-04-05T11:45:41Z</time></trkpt><trkpt lat="44.44324940406953" lon="8.748368385939852"><ele>52.0</ele><time>2026-04-05T11:45:42Z</time></trkpt><trkpt lat="44.44321061842247" lon="8.74816122197993"><ele>52.25</ele><time>2026-04-05T11:45:43Z</time></trkpt><trkpt lat="44.44318756130258" lon="8.747964379179557"><ele>52.5</ele><time>2026-04-05T11:45:44Z</time></trkpt><trkpt lat="44.443179886993704" lon="8.747771061051443"><ele>52.75</ele><time>2026-04-05T11:45:45Z</time></trkpt><trkpt lat="44.44319039498668" lon="8.747596804737706"><ele>53.0</ele><time>2026-04-05T11:45:46Z</time></trkpt><trkpt lat="44.443213917589446" lon="8.747447743111621"><ele>52.50000000000001</ele><time>2026-04-05T11:45:47Z</time></trkpt><trkpt lat="44.44322640354117" lon="8.747331977698797"><ele>52.0</ele><time>2026-04-05T11:45:48Z</time></trkpt><trkpt lat="44.44321731345931" lon="8.747241468362265"><ele>51.5</ele><time>2026-04-05T11:45:49Z</time></trkpt><trkpt lat="44.44315748755977" lon="8.747166920976586"><ele>51.0</ele><time>2026-04-05T11:45:50Z</time></trkpt><trkpt lat="44.44308990533474" lon="8.747161673155084"><ele>50.50000000000001</ele><time>2026-04-05T11:45:51Z</time></trkpt><trkpt lat="44.44302047654355" lon="8.747224570601581"><ele>50.0</ele><time>2026-04-05T11:45:52Z</time></trkpt><trkpt lat="44.442986013788435" lon="8.74733414889151"><ele>50.0</ele><time>2026-04-05T11:45:53Z</time></trkpt><trkpt lat="44.44297760553689" lon="8.747491072762747"><ele>50.0</ele><time>2026-04-05T11:45:54Z</time></trkpt><trkpt lat="44.44299620742013" lon="8.747719456961695"><ele>50.0</ele><time>2026-04-05T11:45:55Z</time></trkpt><trkpt lat="44.443017614658146" lon="8.747913269704688"><ele>50.0</ele><time>2026-04-05T11:45:56Z</time></trkpt><trkpt lat="44.44303476185564" lon="8.74806578014259"><ele>50.50000000000001</ele><time>2026-04-05T11:45:57Z</time></trkpt><trkpt lat="44.443047295022154" lon="8.748187977601894"><ele>51.0</ele><time>2026-04-05T11:45:58Z</time></trkpt><trkpt lat="44.44305265801683" lon="8.748289435685653"><ele>51.5</ele><time>2026-04-05T11:45:59Z</time></trkpt><trkpt lat="44.44305298840535" lon="8.748386065492411"><ele>52.0</ele><time>2026-04-05T11:46:00Z</time></trkpt><trkpt lat="44.44298900833685" lon="8.74847361519371"><ele>52.50000000000001</ele><time>2026-04-05T11:46:02Z</time></trkpt><trkpt lat="44.442933711116815" lon="8.748424403702556"><ele>53.0</ele><time>2026-04-05T11:46:03Z</time></trkpt><trkpt lat="44.442910143871345" lon="8.748320310874035"><ele>49.75</ele><time>2026-04-05T11:46:04Z</time></trkpt><trkpt lat="44.44291730329377" lon="8.748139459171934"><ele>46.5</ele><time>2026-04-05T11:46:05Z</time></trkpt><trkpt lat="44.44290997210341" lon="8.747923323974687"><ele>43.25</ele><time>2026-04-05T11:46:06Z</time></trkpt><trkpt lat="44.44289950064787" lon="8.747738817270633"><ele>40.0</ele><time>2026-04-05T11:46:07Z</time></trkpt><trkpt lat="44.44288421502983" lon="8.74759564362504"><ele>39.2</ele><time>2026-04-05T11:46:07.999Z</time></trkpt><trkpt lat="44.442857274395344" lon="8.747495505113916"><ele>38.4</ele><time>2026-04-05T11:46:08.999Z</time></trkpt><trkpt lat="44.442758172713404" lon="8.74738917712445"><ele>37.6</ele><time>2026-04-05T11:46:10.999Z</time></trkpt><trkpt lat="44.44266603433265" lon="8.74738531590461"><ele>36.8</ele><time>2026-04-05T11:46:11.999Z</time></trkpt><trkpt lat="44.44255607371174" lon="8.747361800698787"><ele>36.0</ele><time>2026-04-05T11:46:12.999Z</time></trkpt><trkpt lat="44.442462729998546" lon="8.747342308390419"><ele>36.0</ele><time>2026-04-05T11:46:13.999Z</time></trkpt><trkpt lat="44.44237712557655" lon="8.747318807795804"><ele>36.0</ele><time>2026-04-05T11:46:14.999Z</time></trkpt><trkpt lat="44.44228197693064" lon="8.747300823997268"><ele>36.0</ele><time>2026-04-05T11:46:15.999Z</time></trkpt><trkpt lat="44.44220753815549" lon="8.747284635625936"><ele>36.0</ele><time>2026-04-05T11:46:16.999Z</time></trkpt><trkpt lat="44.44212596690123" lon="8.747267452881513"><ele>36.0</ele><time>2026-04-05T11:46:17.999Z</time></trkpt><trkpt lat="44.442047328303" lon="8.747247466126867"><ele>36.0</ele><time>2026-04-05T11:46:18.999Z</time></trkpt><trkpt lat="44.441970070911836" lon="8.747230117086614"><ele>37.333333333333336</ele><time>2026-04-05T11:46:19.999Z</time></trkpt><trkpt lat="44.441892243172454" lon="8.747220327696906"><ele>38.666666666666664</ele><time>2026-04-05T11:46:20.999Z</time></trkpt><trkpt lat="44.44181418877113" lon="8.747203711110236"><ele>40.0</ele><time>2026-04-05T11:46:21.999Z</time></trkpt><trkpt lat="44.44173746091711" lon="8.747190046227633"><ele>41.33333333333333</ele><time>2026-04-05T11:46:22.999Z</time></trkpt><trkpt lat="44.441661933433174" lon="8.747167513036382"><ele>42.666666666666664</ele><time>2026-04-05T11:46:23.999Z</time></trkpt><trkpt lat="44.441587722049654" lon="8.747161792332898"><ele>44.0</ele><time>2026-04-05T11:46:24.999Z</time></trkpt><trkpt lat="44.441506281441285" lon="8.74717789974607"><ele>44.0</ele><time>2026-04-05T11:46:25.999Z</time></trkpt><trkpt lat="44.44142704696757" lon="8.74718462026787"><ele>44.0</ele><time>2026-04-05T11:46:26.999Z</time></trkpt><trkpt lat="44.44134921145001" lon="8.747192988250509"><ele>44.0</ele><time>2026-04-05T11:46:27.999Z</time></trkpt><trkpt lat="44.44127801364066" lon="8.747195352727898"><ele>44.0</ele><time>2026-04-05T11:46:28.999Z</time></trkpt><trkpt lat="44.441204232980894" lon="8.747202538070594"><ele>44.0</ele><time>2026-04-05T11:46:29.999Z</time></trkpt><trkpt lat="44.441123317114" lon="8.747219760027704"><ele>44.0</ele><time>2026-04-05T11:46:30.999Z</time></trkpt><trkpt lat="44.44104895627467" lon="8.747230813404304"><ele>43.83333333333333</ele><time>2026-04-05T11:46:31.999Z</time></trkpt><trkpt lat="44.44097389670562" lon="8.74723814222681"><ele>43.666666666666664</ele><time>2026-04-05T11:46:32.999Z</time></trkpt><trkpt lat="44.4408872141829" lon="8.747229105080844"><ele>43.5</ele><time>2026-04-05T11:46:33.999Z</time></trkpt><trkpt lat="44.44080949494049" lon="8.747195849424179"><ele>43.333333333333336</ele><time>2026-04-05T11:46:34.999Z</time></trkpt><trkpt lat="44.440751156182046" lon="8.747137606240196"><ele>43.16666666666667</ele><time>2026-04-05T11:46:35.999Z</time></trkpt><trkpt lat="44.44070276452591" lon="8.74706094674491"><ele>43.0</ele><time>2026-04-05T11:46:36.999Z</time></trkpt><trkpt lat="44.440662652642786" lon="8.746979651375408"><ele>43.0</ele><time>2026-04-05T11:46:37.999Z</time></trkpt><trkpt lat="44.44062717124704" lon="8.746899065487012"><ele>43.0</ele><time>2026-04-05T11:46:38.999Z</time></trkpt><trkpt lat="44.440588640136475" lon="8.746827263365715"><ele>43.0</ele><time>2026-04-05T11:46:39.999Z</time></trkpt><trkpt lat="44.440546415485095" lon="8.746758291697914"><ele>43.0</ele><time>2026-04-05T11:46:40.999Z</time></trkpt><trkpt lat="44.44050258567882" lon="8.746689112494055"><ele>43.0</ele><time>2026-04-05T11:46:41.999Z</time></trkpt><trkpt lat="44.440401493365904" lon="8.746558998067375"><ele>43.0</ele><time>2026-04-05T11:46:43.999Z</time></trkpt><trkpt lat="44.44033224532079" lon="8.74648731227826"><ele>40.8</ele><time>2026-04-05T11:46:44.999Z</time></trkpt><trkpt lat="44.440258918995305" lon="8.746413464929846"><ele>38.599999999999994</ele><time>2026-04-05T11:46:45.999Z</time></trkpt><trkpt lat="44.440183705322795" lon="8.746340498777544"><ele>36.400000000000006</ele><time>2026-04-05T11:46:46.999Z</time></trkpt><trkpt lat="44.4401087730809" lon="8.746266115319813"><ele>34.2</ele><time>2026-04-05T11:46:47.999Z</time></trkpt><trkpt lat="44.44003536873013" lon="8.746193244663399"><ele>32.0</ele><time>2026-04-05T11:46:48.999Z</time></trkpt><trkpt lat="44.43995330990583" lon="8.746139789195878"><ele>32.0</ele><time>2026-04-05T11:46:49.999Z</time></trkpt><trkpt lat="44.439863603014274" lon="8.746090735790881"><ele>32.0</ele><time>2026-04-05T11:46:50.999Z</time></trkpt><trkpt lat="44.43976317585472" lon="8.74604525902281"><ele>32.0</ele><time>2026-04-05T11:46:51.999Z</time></trkpt><trkpt lat="44.439652097477754" lon="8.746010468555474"><ele>32.0</ele><time>2026-04-05T11:46:52.999Z</time></trkpt><trkpt lat="44.439521543714854" lon="8.745994838269143"><ele>32.0</ele><time>2026-04-05T11:46:53.999Z</time></trkpt><trkpt lat="44.43940112365393" lon="8.745986312559594"><ele>31.333333333333332</ele><time>2026-04-05T11:46:54.999Z</time></trkpt><trkpt lat="44.43925794121882" lon="8.746010280923503"><ele>30.666666666666664</ele><time>2026-04-05T11:46:55.999Z</time></trkpt><trkpt lat="44.439086731685514" lon="8.746030356954636"><ele>30.0</ele><time>2026-04-05T11:46:56.999Z</time></trkpt><trkpt lat="44.438895029967355" lon="8.746049838973528"><ele>31.0</ele><time>2026-04-05T11:46:57.999Z</time></trkpt><trkpt lat="44.438664414132674" lon="8.746067108443583"><ele>32.0</ele><time>2026-04-05T11:46:58.999Z</time></trkpt><trkpt lat="44.438405952106734" lon="8.746086150558948"><ele>32.0</ele><time>2026-04-05T11:46:59.999Z</time></trkpt><trkpt lat="44.43812709189059" lon="8.746098823472458"><ele>32.0</ele><time>2026-04-05T11:47:00.999Z</time></trkpt><trkpt lat="44.437867671938044" lon="8.74611648226154"><ele>31.5</ele><time>2026-04-05T11:47:01.999Z</time></trkpt><trkpt lat="44.43763153275279" lon="8.746127235251342"><ele>31.0</ele><time>2026-04-05T11:47:02.999Z</time></trkpt><trkpt lat="44.43741044433809" lon="8.746132686653848"><ele>31.0</ele><time>2026-04-05T11:47:03.999Z</time></trkpt><trkpt lat="44.437203832653594" lon="8.746136028955897"><ele>31.0</ele><time>2026-04-05T11:47:04.999Z</time></trkpt><trkpt lat="44.437003822258376" lon="8.746138355824025"><ele>31.0</ele><time>2026-04-05T11:47:05.999Z</time></trkpt><trkpt lat="44.43681078719031" lon="8.7461438883225"><ele>33.333333333333336</ele><time>2026-04-05T11:47:06.999Z</time></trkpt><trkpt lat="44.43663830442187" lon="8.74615491222913"><ele>35.666666666666664</ele><time>2026-04-05T11:47:07.999Z</time></trkpt><trkpt lat="44.43647814773309" lon="8.74615900648551"><ele>38.0</ele><time>2026-04-05T11:47:08.999Z</time></trkpt><trkpt lat="44.43630741874895" lon="8.746134504730431"><ele>33.33333333333333</ele><time>2026-04-05T11:47:09.999Z</time></trkpt><trkpt lat="44.43613669115728" lon="8.746113908594063"><ele>28.666666666666664</ele><time>2026-04-05T11:47:10.999Z</time></trkpt><trkpt lat="44.43598769382227" lon="8.746087547135264"><ele>24.0</ele><time>2026-04-05T11:47:11.999Z</time></trkpt><trkpt lat="44.4358437699323" lon="8.746073162940663"><ele>22.25</ele><time>2026-04-05T11:47:13Z</time></trkpt><trkpt lat="44.43571112307761" lon="8.7460379500689"><ele>20.5</ele><time>2026-04-05T11:47:14Z</time></trkpt><trkpt lat="44.43558080845113" lon="8.746031365498522"><ele>18.75</ele><time>2026-04-05T11:47:15Z</time></trkpt><trkpt lat="44.43546679120389" lon="8.746075884713521"><ele>17.0</ele><time>2026-04-05T11:47:16Z</time></trkpt><trkpt lat="44.435349335833315" lon="8.746153522762409"><ele>16.666666666666668</ele><time>2026-04-05T11:47:17Z</time></trkpt><trkpt lat="44.435239190568986" lon="8.746281579383238"><ele>16.333333333333332</ele><time>2026-04-05T11:47:18Z</time></trkpt><trkpt lat="44.43514942177922" lon="8.746434634844704"><ele>16.0</ele><time>2026-04-05T11:47:19Z</time></trkpt><trkpt lat="44.43506959203069" lon="8.746637422973645"><ele>20.666666666666664</ele><time>2026-04-05T11:47:20Z</time></trkpt><trkpt lat="44.434994497666125" lon="8.746878828970141"><ele>25.333333333333332</ele><time>2026-04-05T11:47:21Z</time></trkpt><trkpt lat="44.434936224867194" lon="8.747090281010111"><ele>30.0</ele><time>2026-04-05T11:47:22Z</time></trkpt><trkpt lat="44.43486360778065" lon="8.747258190680922"><ele>30.0</ele><time>2026-04-05T11:47:23Z</time></trkpt><trkpt lat="44.434822511175526" lon="8.74739140061603"><ele>30.0</ele><time>2026-04-05T11:47:24Z</time></trkpt><trkpt lat="44.43474513873306" lon="8.747513435987264"><ele>30.0</ele><time>2026-04-05T11:47:25Z</time></trkpt><trkpt lat="44.43464274904767" lon="8.747607864147856"><ele>30.0</ele><time>2026-04-05T11:47:26Z</time></trkpt><trkpt lat="44.43452571448328" lon="8.747658891492485"><ele>27.25</ele><time>2026-04-05T11:47:27Z</time></trkpt><trkpt lat="44.434396313277865" lon="8.747663903951585"><ele>24.5</ele><time>2026-04-05T11:47:28Z</time></trkpt><trkpt lat="44.43424099744456" lon="8.747632837985863"><ele>21.75</ele><time>2026-04-05T11:47:29Z</time></trkpt><trkpt lat="44.43409225224394" lon="8.747587979536819"><ele>19.0</ele><time>2026-04-05T11:47:30Z</time></trkpt><trkpt lat="44.43398443356903" lon="8.747532573776239"><ele>19.0</ele><time>2026-04-05T11:47:31Z</time></trkpt><trkpt lat="44.43386306429729" lon="8.747504930764613"><ele>19.0</ele><time>2026-04-05T11:47:32Z</time></trkpt><trkpt lat="44.43375444309427" lon="8.7475195036378"><ele>19.0</ele><time>2026-04-05T11:47:33Z</time></trkpt><trkpt lat="44.43364832535949" lon="8.747563344715239"><ele>19.0</ele><time>2026-04-05T11:47:34Z</time></trkpt><trkpt lat="44.433535919432046" lon="8.747648414137503"><ele>20.666666666666664</ele><time>2026-04-05T11:47:35Z</time></trkpt><trkpt lat="44.433416406293425" lon="8.747783860708264"><ele>22.333333333333332</ele><time>2026-04-05T11:47:36Z</time></trkpt><trkpt lat="44.43327837986452" lon="8.747949686374989"><ele>24.0</ele><time>2026-04-05T11:47:37Z</time></trkpt><trkpt lat="44.43314555228019" lon="8.74812103181233"><ele>24.0</ele><time>2026-04-05T11:47:38Z</time></trkpt><trkpt lat="44.433000420912414" lon="8.748280876051624"><ele>24.0</ele><time>2026-04-05T11:47:39Z</time></trkpt><trkpt lat="44.43287863197617" lon="8.74848738107538"><ele>24.0</ele><time>2026-04-05T11:47:40Z</time></trkpt><trkpt lat="44.432747263573695" lon="8.748675389714059"><ele>20.666666666666668</ele><time>2026-04-05T11:47:41Z</time></trkpt><trkpt lat="44.432629205493726" lon="8.748884405736609"><ele>17.333333333333336</ele><time>2026-04-05T11:47:42Z</time></trkpt><trkpt lat="44.43249930099035" lon="8.749088102082192"><ele>14.0</ele><time>2026-04-05T11:47:43Z</time></trkpt><trkpt lat="44.43236219876173" lon="8.749275664465042"><ele>15.0</ele><time>2026-04-05T11:47:44Z</time></trkpt><trkpt lat="44.432255321661" lon="8.74945166786994"><ele>16.0</ele><time>2026-04-05T11:47:45Z</time></trkpt><trkpt lat="44.4321447584636" lon="8.749647951962025"><ele>17.0</ele><time>2026-04-05T11:47:46Z</time></trkpt><trkpt lat="44.43204399913978" lon="8.749841686774529"><ele>17.0</ele><time>2026-04-05T11:47:47Z</time></trkpt><trkpt lat="44.43195794281996" lon="8.750054576350518"><ele>17.0</ele><time>2026-04-05T11:47:48Z</time></trkpt><trkpt lat="44.43186029220028" lon="8.75026110090538"><ele>17.0</ele><time>2026-04-05T11:47:49Z</time></trkpt><trkpt lat="44.43176248435307" lon="8.750463194825151"><ele>15.666666666666668</ele><time>2026-04-05T11:47:50Z</time></trkpt><trkpt lat="44.43166233005383" lon="8.750654883991396"><ele>14.333333333333332</ele><time>2026-04-05T11:47:51Z</time></trkpt><trkpt lat="44.43156556952189" lon="8.750838994197279"><ele>13.0</ele><time>2026-04-05T11:47:52Z</time></trkpt><trkpt lat="44.431467458315225" lon="8.751030038095937"><ele>11.75</ele><time>2026-04-05T11:47:53Z</time></trkpt><trkpt lat="44.431408471169235" lon="8.751213278252832"><ele>10.5</ele><time>2026-04-05T11:47:54Z</time></trkpt><trkpt lat="44.43132948069852" lon="8.751383088874247"><ele>9.25</ele><time>2026-04-05T11:47:55Z</time></trkpt><trkpt lat="44.43123965050724" lon="8.75154824238672"><ele>8.0</ele><time>2026-04-05T11:47:56Z</time></trkpt><trkpt lat="44.431144637985035" lon="8.751715155458385"><ele>8.0</ele><time>2026-04-05T11:47:57Z</time></trkpt><trkpt lat="44.431050113054994" lon="8.751873170127809"><ele>8.0</ele><time>2026-04-05T11:47:58Z</time></trkpt><trkpt lat="44.43094840215591" lon="8.751990849498414"><ele>8.0</ele><time>2026-04-05T11:47:59Z</time></trkpt><trkpt lat="44.43087220958277" lon="8.752116417661563"><ele>8.0</ele><time>2026-04-05T11:48:00Z</time></trkpt><trkpt lat="44.43079805643959" lon="8.752214930961618"><ele>8.75</ele><time>2026-04-05T11:48:01Z</time></trkpt><trkpt lat="44.43070132008159" lon="8.752318496786165"><ele>9.5</ele><time>2026-04-05T11:48:02Z</time></trkpt><trkpt lat="44.430581351577544" lon="8.75243314689548"><ele>10.25</ele><time>2026-04-05T11:48:03Z</time></trkpt><trkpt lat="44.43045833310232" lon="8.752505776702229"><ele>11.0</ele><time>2026-04-05T11:48:04Z</time></trkpt><trkpt lat="44.43032545441691" lon="8.752545730811566"><ele>11.0</ele><time>2026-04-05T11:48:05Z</time></trkpt><trkpt lat="44.43021646398332" lon="8.752545831234059"><ele>11.0</ele><time>2026-04-05T11:48:06Z</time></trkpt><trkpt lat="44.43011365001293" lon="8.752493596594595"><ele>11.0</ele><time>2026-04-05T11:48:07Z</time></trkpt><trkpt lat="44.43002448403904" lon="8.752503347195722"><ele>11.0</ele><time>2026-04-05T11:48:08Z</time></trkpt><trkpt lat="44.429963332023576" lon="8.752532731533888"><ele>11.0</ele><time>2026-04-05T11:48:09Z</time></trkpt><trkpt lat="44.42990505798782" lon="8.752626568335165"><ele>12.5</ele><time>2026-04-05T11:48:10Z</time></trkpt><trkpt lat="44.42986295191877" lon="8.752754878931022"><ele>14.0</ele><time>2026-04-05T11:48:11Z</time></trkpt><trkpt lat="44.429829055189096" lon="8.752921994985856"><ele>15.5</ele><time>2026-04-05T11:48:12Z</time></trkpt><trkpt lat="44.429781493549314" lon="8.753154992147651"><ele>17.0</ele><time>2026-04-05T11:48:13Z</time></trkpt><trkpt lat="44.42971628795401" lon="8.753409092156991"><ele>18.0</ele><time>2026-04-05T11:48:14Z</time></trkpt><trkpt lat="44.429668176722096" lon="8.753603981073562"><ele>19.0</ele><time>2026-04-05T11:48:14.999Z</time></trkpt><trkpt lat="44.42962912703628" lon="8.75377550812005"><ele>20.0</ele><time>2026-04-05T11:48:15.999Z</time></trkpt><trkpt lat="44.42959019260319" lon="8.75393672613037"><ele>21.0</ele><time>2026-04-05T11:48:16.999Z</time></trkpt><trkpt lat="44.42953812941642" lon="8.75409847383426"><ele>19.75</ele><time>2026-04-05T11:48:17.999Z</time></trkpt><trkpt lat="44.42949923555505" lon="8.754264211652757"><ele>18.5</ele><time>2026-04-05T11:48:18.999Z</time></trkpt><trkpt lat="44.42947962592771" lon="8.754440546066448"><ele>17.25</ele><time>2026-04-05T11:48:19.999Z</time></trkpt><trkpt lat="44.42948739699994" lon="8.75463933828841"><ele>16.0</ele><time>2026-04-05T11:48:20.999Z</time></trkpt><trkpt lat="44.42947509602882" lon="8.754874448251794"><ele>16.0</ele><time>2026-04-05T11:48:21.999Z</time></trkpt><trkpt lat="44.42946363100387" lon="8.755136023676453"><ele>16.0</ele><time>2026-04-05T11:48:22.999Z</time></trkpt><trkpt lat="44.429469700562294" lon="8.755357774243434"><ele>16.0</ele><time>2026-04-05T11:48:23.999Z</time></trkpt><trkpt lat="44.42946647112497" lon="8.75555952084433"><ele>16.25</ele><time>2026-04-05T11:48:24.999Z</time></trkpt><trkpt lat="44.42946296970133" lon="8.755751716612439"><ele>16.5</ele><time>2026-04-05T11:48:25.999Z</time></trkpt><trkpt lat="44.429453904235544" lon="8.755942378692755"><ele>16.75</ele><time>2026-04-05T11:48:26.999Z</time></trkpt><trkpt lat="44.4294074856288" lon="8.756160980612238"><ele>17.0</ele><time>2026-04-05T11:48:27.999Z</time></trkpt><trkpt lat="44.42939808802755" lon="8.756374124282576"><ele>17.0</ele><time>2026-04-05T11:48:28.999Z</time></trkpt><trkpt lat="44.429389735247916" lon="8.756563568888406"><ele>17.0</ele><time>2026-04-05T11:48:29.999Z</time></trkpt><trkpt lat="44.42937866782089" lon="8.756769237120915"><ele>17.0</ele><time>2026-04-05T11:48:30.999Z</time></trkpt><trkpt lat="44.429368124491894" lon="8.75695647222036"><ele>17.0</ele><time>2026-04-05T11:48:31.999Z</time></trkpt><trkpt lat="44.429356020447464" lon="8.757158045931751"><ele>17.0</ele><time>2026-04-05T11:48:32.999Z</time></trkpt><trkpt lat="44.42934011753996" lon="8.757338080754566"><ele>17.0</ele><time>2026-04-05T11:48:33.999Z</time></trkpt><trkpt lat="44.429322587667606" lon="8.757509731827733"><ele>17.0</ele><time>2026-04-05T11:48:34.999Z</time></trkpt><trkpt lat="44.42930672846457" lon="8.757663905670375"><ele>17.0</ele><time>2026-04-05T11:48:35.999Z</time></trkpt><trkpt lat="44.429294390682365" lon="8.757794743644496"><ele>17.0</ele><time>2026-04-05T11:48:36.999Z</time></trkpt><trkpt lat="44.429282405695965" lon="8.757921839951234"><ele>17.0</ele><time>2026-04-05T11:48:37.999Z</time></trkpt><trkpt lat="44.42932038888535" lon="8.758053886497535"><ele>17.0</ele><time>2026-04-05T11:48:38.999Z</time></trkpt><trkpt lat="44.429299387811" lon="8.758147879161973"><ele>17.0</ele><time>2026-04-05T11:48:39.999Z</time></trkpt><trkpt lat="44.429262247160025" lon="8.758227997647335"><ele>17.0</ele><time>2026-04-05T11:48:40.999Z</time></trkpt><trkpt lat="44.4292090182038" lon="8.758291764598429"><ele>17.0</ele><time>2026-04-05T11:48:41.999Z</time></trkpt><trkpt lat="44.42909371867238" lon="8.758358617108469"><ele>17.0</ele><time>2026-04-05T11:48:43.999Z</time></trkpt><trkpt lat="44.42901963832691" lon="8.758389409285346"><ele>17.0</ele><time>2026-04-05T11:48:44.999Z</time></trkpt><trkpt lat="44.42895164698882" lon="8.758418511078773"><ele>17.0</ele><time>2026-04-05T11:48:45.999Z</time></trkpt><trkpt lat="44.42887960225707" lon="8.75843120783492"><ele>17.0</ele><time>2026-04-05T11:48:47.999Z</time></trkpt><trkpt lat="44.428773516749196" lon="8.758494829132028"><ele>17.0</ele><time>2026-04-05T11:48:49.999Z</time></trkpt><trkpt lat="44.428712786607" lon="8.758577537159045"><ele>17.0</ele><time>2026-04-05T11:48:51.999Z</time></trkpt><trkpt lat="44.42868510504321" lon="8.758660262148235"><ele>17.8</ele><time>2026-04-05T11:48:54.999Z</time></trkpt><trkpt lat="44.42864315337854" lon="8.758731055214731"><ele>18.6</ele><time>2026-04-05T11:49:53Z</time></trkpt><trkpt lat="44.42869197021361" lon="8.758810227350663"><ele>19.400000000000002</ele><time>2026-04-05T11:50:01Z</time></trkpt><trkpt lat="44.428730623677815" lon="8.75872246109321"><ele>20.2</ele><time>2026-04-05T11:50:40.999Z</time></trkpt><trkpt lat="44.42875234144188" lon="8.75882517438144"><ele>21.0</ele><time>2026-04-05T11:52:02Z</time></trkpt><trkpt lat="44.42891132463819" lon="8.758908152745086"><ele>21.0</ele><time>2026-04-05T11:53:08.999Z</time></trkpt><trkpt lat="44.42892834467619" lon="8.759061860114722"><ele>21.0</ele><time>2026-04-05T11:53:10.999Z</time></trkpt><trkpt lat="44.42892145310744" lon="8.759179986772887"><ele>21.0</ele><time>2026-04-05T11:53:11.999Z</time></trkpt><trkpt lat="44.42891781188456" lon="8.759297217701622"><ele>21.0</ele><time>2026-04-05T11:53:12.999Z</time></trkpt><trkpt lat="44.42891090910938" lon="8.759420663849554"><ele>21.0</ele><time>2026-04-05T11:53:13.999Z</time></trkpt><trkpt lat="44.42887701456101" lon="8.75960041063104"><ele>21.0</ele><time>2026-04-05T11:53:14.999Z</time></trkpt><trkpt lat="44.428839236650354" lon="8.759764917779732"><ele>21.0</ele><time>2026-04-05T11:53:15.999Z</time></trkpt><trkpt lat="44.42881345645926" lon="8.759900892806222"><ele>21.0</ele><time>2026-04-05T11:53:16.999Z</time></trkpt><trkpt lat="44.42878557316957" lon="8.760033029610428"><ele>21.0</ele><time>2026-04-05T11:53:17.999Z</time></trkpt><trkpt lat="44.42875562724824" lon="8.760169319051114"><ele>21.0</ele><time>2026-04-05T11:53:18.999Z</time></trkpt><trkpt lat="44.42872174686277" lon="8.760341162472882"><ele>18.0</ele><time>2026-04-05T11:53:19.999Z</time></trkpt><trkpt lat="44.42869763998743" lon="8.76049763658038"><ele>15.000000000000002</ele><time>2026-04-05T11:53:20.999Z</time></trkpt><trkpt lat="44.428690235547215" lon="8.760648169924577"><ele>12.0</ele><time>2026-04-05T11:53:21.999Z</time></trkpt><trkpt lat="44.428652218056165" lon="8.760758348264662"><ele>9.0</ele><time>2026-04-05T11:53:22.999Z</time></trkpt><trkpt lat="44.42863541537174" lon="8.760885142187528"><ele>6.0</ele><time>2026-04-05T11:53:23.999Z</time></trkpt><trkpt lat="44.428616209373025" lon="8.761005794960477"><ele>6.4</ele><time>2026-04-05T11:53:24.999Z</time></trkpt><trkpt lat="44.42859288278234" lon="8.761118415346631"><ele>6.8</ele><time>2026-04-05T11:53:25.999Z</time></trkpt><trkpt lat="44.42856582720815" lon="8.761247025794699"><ele>7.200000000000001</ele><time>2026-04-05T11:53:26.999Z</time></trkpt><trkpt lat="44.42855210300295" lon="8.761397714532697"><ele>7.6000000000000005</ele><time>2026-04-05T11:53:27.999Z</time></trkpt><trkpt lat="44.42852882765481" lon="8.76156585006562"><ele>8.0</ele><time>2026-04-05T11:53:28.999Z</time></trkpt><trkpt lat="44.42849967237997" lon="8.761716741601616"><ele>8.0</ele><time>2026-04-05T11:53:29.999Z</time></trkpt><trkpt lat="44.428464503002495" lon="8.761878714472157"><ele>8.0</ele><time>2026-04-05T11:53:31Z</time></trkpt><trkpt lat="44.42844199899269" lon="8.762045568329846"><ele>8.0</ele><time>2026-04-05T11:53:32Z</time></trkpt><trkpt lat="44.42839899425866" lon="8.762191175241004"><ele>8.0</ele><time>2026-04-05T11:53:33Z</time></trkpt><trkpt lat="44.42835584284516" lon="8.762363592700586"><ele>8.0</ele><time>2026-04-05T11:53:34Z</time></trkpt><trkpt lat="44.42831209274456" lon="8.762550641955654"><ele>8.0</ele><time>2026-04-05T11:53:35Z</time></trkpt><trkpt lat="44.42827682898799" lon="8.762760364047848"><ele>8.0</ele><time>2026-04-05T11:53:36Z</time></trkpt><trkpt lat="44.42824353316771" lon="8.762968811133536"><ele>8.0</ele><time>2026-04-05T11:53:37Z</time></trkpt><trkpt lat="44.42823595680487" lon="8.7631689398117"><ele>7.75</ele><time>2026-04-05T11:53:38Z</time></trkpt><trkpt lat="44.42823721192186" lon="8.763370345683215"><ele>7.5</ele><time>2026-04-05T11:53:39Z</time></trkpt><trkpt lat="44.42822880226873" lon="8.763554059407989"><ele>7.25</ele><time>2026-04-05T11:53:40Z</time></trkpt><trkpt lat="44.428222523623916" lon="8.763713416854578"><ele>7.0</ele><time>2026-04-05T11:53:41Z</time></trkpt><trkpt lat="44.42821431911064" lon="8.763873060414621"><ele>7.0</ele><time>2026-04-05T11:53:42Z</time></trkpt><trkpt lat="44.428205809788714" lon="8.764036847699044"><ele>7.0</ele><time>2026-04-05T11:53:43Z</time></trkpt><trkpt lat="44.428188791946155" lon="8.764203686902889"><ele>7.0</ele><time>2026-04-05T11:53:44Z</time></trkpt><trkpt lat="44.428186038481165" lon="8.764363345215578"><ele>7.0</ele><time>2026-04-05T11:53:45Z</time></trkpt><trkpt lat="44.42817310417541" lon="8.76452165415907"><ele>7.0</ele><time>2026-04-05T11:53:46Z</time></trkpt><trkpt lat="44.4281615975846" lon="8.76468682772674"><ele>6.999999999999999</ele><time>2026-04-05T11:53:47Z</time></trkpt><trkpt lat="44.42815331963332" lon="8.764846053077683"><ele>6.999999999999999</ele><time>2026-04-05T11:53:48Z</time></trkpt><trkpt lat="44.428150902231316" lon="8.76498820572995"><ele>7.0</ele><time>2026-04-05T11:53:49Z</time></trkpt><trkpt lat="44.42814530066191" lon="8.76512238780834"><ele>7.0</ele><time>2026-04-05T11:53:50Z</time></trkpt><trkpt lat="44.428142143215915" lon="8.765255693854481"><ele>7.0</ele><time>2026-04-05T11:53:51Z</time></trkpt><trkpt lat="44.428133792122246" lon="8.76539188124696"><ele>6.999999999999999</ele><time>2026-04-05T11:53:52Z</time></trkpt><trkpt lat="44.42812680103831" lon="8.765524026071688"><ele>6.999999999999999</ele><time>2026-04-05T11:53:53Z</time></trkpt><trkpt lat="44.428122009626776" lon="8.765653448686907"><ele>7.0</ele><time>2026-04-05T11:53:54Z</time></trkpt><trkpt lat="44.42811750184967" lon="8.765785462872095"><ele>7.0</ele><time>2026-04-05T11:53:55Z</time></trkpt><trkpt lat="44.42810869868618" lon="8.765924289120889"><ele>7.0</ele><time>2026-04-05T11:53:56Z</time></trkpt><trkpt lat="44.42810019603219" lon="8.766057150433248"><ele>6.999999999999999</ele><time>2026-04-05T11:53:57Z</time></trkpt><trkpt lat="44.42809308291031" lon="8.766194169670994"><ele>6.999999999999999</ele><time>2026-04-05T11:53:58Z</time></trkpt><trkpt lat="44.4280910486225" lon="8.766320774175579"><ele>7.0</ele><time>2026-04-05T11:53:59Z</time></trkpt><trkpt lat="44.42808585253931" lon="8.766459999636465"><ele>7.0</ele><time>2026-04-05T11:54:00Z</time></trkpt><trkpt lat="44.42808407100403" lon="8.766600082792248"><ele>7.0</ele><time>2026-04-05T11:54:01Z</time></trkpt><trkpt lat="44.4280740860075" lon="8.766741843003173"><ele>6.999999999999999</ele><time>2026-04-05T11:54:02Z</time></trkpt><trkpt lat="44.428069070828194" lon="8.766905325328226"><ele>6.999999999999999</ele><time>2026-04-05T11:54:03Z</time></trkpt><trkpt lat="44.428070033106074" lon="8.76705982011934"><ele>7.0</ele><time>2026-04-05T11:54:04Z</time></trkpt><trkpt lat="44.42805556503856" lon="8.767210600948424"><ele>7.0</ele><time>2026-04-05T11:54:05Z</time></trkpt><trkpt lat="44.42804967865747" lon="8.767356834554462"><ele>7.3999999999999995</ele><time>2026-04-05T11:54:06Z</time></trkpt><trkpt lat="44.42803851125956" lon="8.767520440960789"><ele>7.799999999999999</ele><time>2026-04-05T11:54:07Z</time></trkpt><trkpt lat="44.42803118744138" lon="8.767668758585282"><ele>8.2</ele><time>2026-04-05T11:54:08Z</time></trkpt><trkpt lat="44.428028405524465" lon="8.767808637538181"><ele>8.6</ele><time>2026-04-05T11:54:09Z</time></trkpt><trkpt lat="44.42799368431044" lon="8.767926631349422"><ele>9.0</ele><time>2026-04-05T11:54:10Z</time></trkpt><trkpt lat="44.42799940494502" lon="8.768043531068264"><ele>9.0</ele><time>2026-04-05T11:54:11Z</time></trkpt><trkpt lat="44.427999005473154" lon="8.768157048475409"><ele>9.0</ele><time>2026-04-05T11:54:12Z</time></trkpt><trkpt lat="44.42799172774264" lon="8.768251856840587"><ele>9.0</ele><time>2026-04-05T11:54:13Z</time></trkpt><trkpt lat="44.427988652148834" lon="8.768356009816259"><ele>9.0</ele><time>2026-04-05T11:54:15Z</time></trkpt><trkpt lat="44.42799606233279" lon="8.76845734049149"><ele>9.0</ele><time>2026-04-05T11:54:20Z</time></trkpt><trkpt lat="44.42798695368508" lon="8.7686409976172"><ele>9.0</ele><time>2026-04-05T11:54:22Z</time></trkpt><trkpt lat="44.42795914518555" lon="8.768736833963583"><ele>8.5</ele><time>2026-04-05T11:54:23Z</time></trkpt><trkpt lat="44.42795975830228" lon="8.76884594003941"><ele>8.0</ele><time>2026-04-05T11:54:24Z</time></trkpt><trkpt lat="44.42795794790524" lon="8.768951196923133"><ele>7.5</ele><time>2026-04-05T11:54:25Z</time></trkpt><trkpt lat="44.42795212052996" lon="8.769056769221168"><ele>7.0</ele><time>2026-04-05T11:54:26Z</time></trkpt><trkpt lat="44.42794961639601" lon="8.7691645014159"><ele>6.5</ele><time>2026-04-05T11:54:27Z</time></trkpt><trkpt lat="44.427946281686076" lon="8.769268273374673"><ele>6.0</ele><time>2026-04-05T11:54:28Z</time></trkpt><trkpt lat="44.42795620294819" lon="8.76941115319083"><ele>5.25</ele><time>2026-04-05T11:54:30Z</time></trkpt><trkpt lat="44.42795600640458" lon="8.769526057594287"><ele>4.5</ele><time>2026-04-05T11:54:31.999Z</time></trkpt><trkpt lat="44.42808909610443" lon="8.769451452143308"><ele>3.75</ele><time>2026-04-05T11:54:32.999Z</time></trkpt><trkpt lat="44.428217048020045" lon="8.76949825817392"><ele>3.0</ele><time>2026-04-05T11:54:34.999Z</time></trkpt><trkpt lat="44.428300570070746" lon="8.769442442242063"><ele>4.2</ele><time>2026-04-05T11:54:35.999Z</time></trkpt><trkpt lat="44.428401537446895" lon="8.769377281262095"><ele>5.4</ele><time>2026-04-05T11:54:36.999Z</time></trkpt><trkpt lat="44.42850628969511" lon="8.769341900217134"><ele>6.6000000000000005</ele><time>2026-04-05T11:54:37.999Z</time></trkpt><trkpt lat="44.42859477722843" lon="8.769293429966263"><ele>7.8</ele><time>2026-04-05T11:54:38.999Z</time></trkpt><trkpt lat="44.42871079257865" lon="8.769217844054555"><ele>9.0</ele><time>2026-04-05T11:54:39.999Z</time></trkpt><trkpt lat="44.42881392466733" lon="8.769087784764261"><ele>11.333333333333332</ele><time>2026-04-05T11:54:40.999Z</time></trkpt><trkpt lat="44.42891867824128" lon="8.7689303373735"><ele>13.666666666666666</ele><time>2026-04-05T11:54:41.999Z</time></trkpt><trkpt lat="44.42900179704141" lon="8.76874087255572"><ele>16.0</ele><time>2026-04-05T11:54:42.999Z</time></trkpt><trkpt lat="44.429063159465755" lon="8.76855579520553"><ele>15.25</ele><time>2026-04-05T11:54:43.999Z</time></trkpt><trkpt lat="44.4291055969959" lon="8.768340156054743"><ele>14.5</ele><time>2026-04-05T11:54:44.999Z</time></trkpt><trkpt lat="44.4291327031227" lon="8.768145608575644"><ele>13.75</ele><time>2026-04-05T11:54:45.999Z</time></trkpt><trkpt lat="44.42916485708594" lon="8.767945587672095"><ele>13.0</ele><time>2026-04-05T11:54:46.999Z</time></trkpt><trkpt lat="44.429169332546955" lon="8.767816284165228"><ele>13.0</ele><time>2026-04-05T11:54:47.999Z</time></trkpt><trkpt lat="44.42917388354379" lon="8.767686214768846"><ele>13.0</ele><time>2026-04-05T11:54:48.999Z</time></trkpt><trkpt lat="44.42917736958487" lon="8.767570047011986"><ele>13.0</ele><time>2026-04-05T11:54:49.999Z</time></trkpt><trkpt lat="44.429208914485486" lon="8.767472218860986"><ele>13.0</ele><time>2026-04-05T11:54:50.999Z</time></trkpt><trkpt lat="44.429226358984224" lon="8.76735591074795"><ele>13.0</ele><time>2026-04-05T11:54:51.999Z</time></trkpt><trkpt lat="44.42915448950027" lon="8.767207825044443"><ele>13.0</ele><time>2026-04-05T11:54:52.999Z</time></trkpt><trkpt lat="44.429136659918214" lon="8.767090596566508"><ele>13.0</ele><time>2026-04-05T11:54:53.999Z</time></trkpt><trkpt lat="44.42912663618051" lon="8.766994573483627"><ele>13.0</ele><time>2026-04-05T11:54:54.999Z</time></trkpt><trkpt lat="44.42911319645742" lon="8.766833837794884"><ele>13.0</ele><time>2026-04-05T11:54:56.999Z</time></trkpt><trkpt lat="44.4291021408236" lon="8.76673998263955"><ele>13.0</ele><time>2026-04-05T11:54:58.999Z</time></trkpt><trkpt lat="44.4291045239453" lon="8.766547005160735"><ele>13.0</ele><time>2026-04-05T11:55:11.999Z</time></trkpt><trkpt lat="44.42910074713462" lon="8.766423326371747"><ele>13.0</ele><time>2026-04-05T11:55:13.999Z</time></trkpt><trkpt lat="44.42913007006009" lon="8.766232992164728"><ele>13.0</ele><time>2026-04-05T11:55:15.999Z</time></trkpt><trkpt lat="44.4291112093855" lon="8.766128839671454"><ele>13.0</ele><time>2026-04-05T11:55:16.999Z</time></trkpt><trkpt lat="44.42911193931193" lon="8.766013310741831"><ele>13.0</ele><time>2026-04-05T11:55:17.999Z</time></trkpt><trkpt lat="44.42912277618512" lon="8.76589849533455"><ele>12.999999999999998</ele><time>2026-04-05T11:55:18.999Z</time></trkpt><trkpt lat="44.42910580968101" lon="8.765799698518638"><ele>13.0</ele><time>2026-04-05T11:55:19.999Z</time></trkpt><trkpt lat="44.42909631851777" lon="8.765697039241775"><ele>13.0</ele><time>2026-04-05T11:55:20.999Z</time></trkpt><trkpt lat="44.429115078415194" lon="8.765589456889762"><ele>13.0</ele><time>2026-04-05T11:55:21.999Z</time></trkpt><trkpt lat="44.42909248419728" lon="8.765442513322553"><ele>12.999999999999998</ele><time>2026-04-05T11:55:23.999Z</time></trkpt><trkpt lat="44.42908227729888" lon="8.765332454644211"><ele>13.0</ele><time>2026-04-05T11:55:25.999Z</time></trkpt><trkpt lat="44.42906582163632" lon="8.765191812366208"><ele>12.999999999999998</ele><time>2026-04-05T11:55:27.999Z</time></trkpt><trkpt lat="44.429059686615176" lon="8.765072313383778"><ele>13.0</ele><time>2026-04-05T11:55:28.999Z</time></trkpt><trkpt lat="44.42907380016262" lon="8.76494696863065"><ele>13.0</ele><time>2026-04-05T11:55:29.999Z</time></trkpt><trkpt lat="44.429112692166306" lon="8.764843124013206"><ele>13.0</ele><time>2026-04-05T11:55:30.999Z</time></trkpt><trkpt lat="44.42916747458182" lon="8.764743865203872"><ele>12.999999999999998</ele><time>2026-04-05T11:55:31.999Z</time></trkpt><trkpt lat="44.42924617239866" lon="8.764672033869424"><ele>13.0</ele><time>2026-04-05T11:55:32.999Z</time></trkpt><trkpt lat="44.429326987476564" lon="8.76462463546898"><ele>12.999999999999998</ele><time>2026-04-05T11:55:33.999Z</time></trkpt><trkpt lat="44.4294209365161" lon="8.764624054368719"><ele>13.0</ele><time>2026-04-05T11:55:34.999Z</time></trkpt><trkpt lat="44.4295051950328" lon="8.764675098838003"><ele>13.0</ele><time>2026-04-05T11:55:35.999Z</time></trkpt><trkpt lat="44.4295721615131" lon="8.764731210573347"><ele>13.0</ele><time>2026-04-05T11:55:37Z</time></trkpt><trkpt lat="44.4296455449693" lon="8.764799342480059"><ele>12.999999999999998</ele><time>2026-04-05T11:55:38.016Z</time></trkpt><trkpt lat="44.4296856068001" lon="8.764912929459554"><ele>13.0</ele><time>2026-04-05T11:55:39.015Z</time></trkpt><trkpt lat="44.42970099513712" lon="8.765038863020607"><ele>12.5</ele><time>2026-04-05T11:55:40.016Z</time></trkpt><trkpt lat="44.42969123452772" lon="8.765191205650074"><ele>12.0</ele><time>2026-04-05T11:55:41.017Z</time></trkpt><trkpt lat="44.429653583385694" lon="8.765347569131048"><ele>11.5</ele><time>2026-04-05T11:55:42.016Z</time></trkpt><trkpt lat="44.42960701619596" lon="8.765516891616937"><ele>11.0</ele><time>2026-04-05T11:55:43.017Z</time></trkpt><trkpt lat="44.429729640519135" lon="8.765119815949223"><ele>11.0</ele><time>2026-04-05T11:55:44Z</time></trkpt><trkpt lat="44.429528033843866" lon="8.765803218040224"><ele>12.0</ele><time>2026-04-05T11:55:46Z</time></trkpt><trkpt lat="44.42940326156295" lon="8.766350001131192"><ele>13.0</ele><time>2026-04-05T11:55:47Z</time></trkpt><trkpt lat="44.42934426671358" lon="8.766770357362283"><ele>13.0</ele><time>2026-04-05T11:55:48Z</time></trkpt><trkpt lat="44.429337531009224" lon="8.76706460350311"><ele>13.0</ele><time>2026-04-05T11:55:49Z</time></trkpt><trkpt lat="44.429328358359804" lon="8.76730019058657"><ele>13.0</ele><time>2026-04-05T11:55:50Z</time></trkpt><trkpt lat="44.42931718302142" lon="8.76751723994237"><ele>13.0</ele><time>2026-04-05T11:55:51Z</time></trkpt><trkpt lat="44.42927171383165" lon="8.76765572560927"><ele>13.0</ele><time>2026-04-05T11:55:52Z</time></trkpt><trkpt lat="44.42928519956681" lon="8.767799419171237"><ele>13.0</ele><time>2026-04-05T11:55:53Z</time></trkpt><trkpt lat="44.42929200609951" lon="8.767902531218974"><ele>13.0</ele><time>2026-04-05T11:55:54Z</time></trkpt><trkpt lat="44.4292987966114" lon="8.767999223091728"><ele>13.0</ele><time>2026-04-05T11:55:55Z</time></trkpt><trkpt lat="44.42931474553333" lon="8.768153215423325"><ele>13.0</ele><time>2026-04-05T11:55:57Z</time></trkpt><trkpt lat="44.429341058162365" lon="8.76827539997754"><ele>13.0</ele><time>2026-04-05T11:55:58Z</time></trkpt><trkpt lat="44.429379652626984" lon="8.768397757690973"><ele>13.0</ele><time>2026-04-05T11:55:59Z</time></trkpt><trkpt lat="44.42944001494774" lon="8.768521742814782"><ele>13.0</ele><time>2026-04-05T11:56:00Z</time></trkpt><trkpt lat="44.429531252311435" lon="8.768644804190714"><ele>13.0</ele><time>2026-04-05T11:56:01Z</time></trkpt><trkpt lat="44.429650935417484" lon="8.76877333704864"><ele>14.25</ele><time>2026-04-05T11:56:02Z</time></trkpt><trkpt lat="44.429754861476205" lon="8.768882933769197"><ele>15.5</ele><time>2026-04-05T11:56:03Z</time></trkpt><trkpt lat="44.42984952874062" lon="8.768991736641018"><ele>16.75</ele><time>2026-04-05T11:56:04Z</time></trkpt><trkpt lat="44.42990265580953" lon="8.769135917667935"><ele>18.0</ele><time>2026-04-05T11:56:05Z</time></trkpt><trkpt lat="44.42996491065672" lon="8.769315389791407"><ele>20.5</ele><time>2026-04-05T11:56:06Z</time></trkpt><trkpt lat="44.430015974554166" lon="8.769494396791728"><ele>23.0</ele><time>2026-04-05T11:56:07Z</time></trkpt><trkpt lat="44.43006079868185" lon="8.769698622884661"><ele>25.5</ele><time>2026-04-05T11:56:08Z</time></trkpt><trkpt lat="44.430126820998325" lon="8.769893012644099"><ele>28.0</ele><time>2026-04-05T11:56:09Z</time></trkpt><trkpt lat="44.430189395303906" lon="8.770099829122678"><ele>28.0</ele><time>2026-04-05T11:56:10Z</time></trkpt><trkpt lat="44.430235355019136" lon="8.770323035532492"><ele>28.0</ele><time>2026-04-05T11:56:11Z</time></trkpt><trkpt lat="44.4302545564795" lon="8.770541630663686"><ele>28.0</ele><time>2026-04-05T11:56:12Z</time></trkpt><trkpt lat="44.430261126621986" lon="8.770776719138501"><ele>29.333333333333336</ele><time>2026-04-05T11:56:13Z</time></trkpt><trkpt lat="44.4302495926737" lon="8.771031072144257"><ele>30.666666666666664</ele><time>2026-04-05T11:56:14.015Z</time></trkpt><trkpt lat="44.43022179832981" lon="8.771329967991669"><ele>32.0</ele><time>2026-04-05T11:56:15.016Z</time></trkpt><trkpt lat="44.43019850480467" lon="8.771638921087762"><ele>31.5</ele><time>2026-04-05T11:56:16.015Z</time></trkpt><trkpt lat="44.430188860167895" lon="8.77200062159605"><ele>31.0</ele><time>2026-04-05T11:56:17.015Z</time></trkpt><trkpt lat="44.430163127490175" lon="8.772404284809987"><ele>30.0</ele><time>2026-04-05T11:56:18.014Z</time></trkpt><trkpt lat="44.43014709471238" lon="8.772806066092619"><ele>29.0</ele><time>2026-04-05T11:56:19.019Z</time></trkpt><trkpt lat="44.43009960435286" lon="8.773532218013615"><ele>28.333333333333332</ele><time>2026-04-05T11:56:21Z</time></trkpt><trkpt lat="44.43011847241345" lon="8.773751854798043"><ele>27.666666666666664</ele><time>2026-04-05T11:56:22Z</time></trkpt><trkpt lat="44.43014110663874" lon="8.774045148590456"><ele>27.0</ele><time>2026-04-05T11:56:23Z</time></trkpt><trkpt lat="44.430124553368834" lon="8.77436423238501"><ele>25.0</ele><time>2026-04-05T11:56:24Z</time></trkpt><trkpt lat="44.43010429591677" lon="8.774699040638925"><ele>23.0</ele><time>2026-04-05T11:56:25Z</time></trkpt><trkpt lat="44.4300811953386" lon="8.775047457665847"><ele>18.5</ele><time>2026-04-05T11:56:26Z</time></trkpt><trkpt lat="44.430092378124016" lon="8.77539172963601"><ele>14.0</ele><time>2026-04-05T11:56:27Z</time></trkpt><trkpt lat="44.43010263781521" lon="8.775705200394217"><ele>14.0</ele><time>2026-04-05T11:56:28Z</time></trkpt><trkpt lat="44.43012596998458" lon="8.776010389643519"><ele>14.0</ele><time>2026-04-05T11:56:29Z</time></trkpt><trkpt lat="44.43013411830823" lon="8.776294360657348"><ele>14.0</ele><time>2026-04-05T11:56:30Z</time></trkpt><trkpt lat="44.43014763114536" lon="8.776556618431929"><ele>15.0</ele><time>2026-04-05T11:56:31Z</time></trkpt><trkpt lat="44.430148599245506" lon="8.776844516079441"><ele>16.0</ele><time>2026-04-05T11:56:32Z</time></trkpt><trkpt lat="44.430125417223735" lon="8.777122538612087"><ele>17.0</ele><time>2026-04-05T11:56:33Z</time></trkpt><trkpt lat="44.430064265357366" lon="8.777412766911029"><ele>24.0</ele><time>2026-04-05T11:56:34Z</time></trkpt><trkpt lat="44.42996702647548" lon="8.777720888715574"><ele>31.0</ele><time>2026-04-05T11:56:35Z</time></trkpt><trkpt lat="44.429856635348834" lon="8.778020480496574"><ele>31.0</ele><time>2026-04-05T11:56:36Z</time></trkpt><trkpt lat="44.42971746734222" lon="8.77830453455747"><ele>31.0</ele><time>2026-04-05T11:56:37Z</time></trkpt><trkpt lat="44.42958390703203" lon="8.778545295402717"><ele>29.333333333333336</ele><time>2026-04-05T11:56:38Z</time></trkpt><trkpt lat="44.42946540928246" lon="8.778778307445489"><ele>27.666666666666664</ele><time>2026-04-05T11:56:38.999Z</time></trkpt><trkpt lat="44.429348000271425" lon="8.779021744285403"><ele>26.0</ele><time>2026-04-05T11:56:39.999Z</time></trkpt><trkpt lat="44.42923299407028" lon="8.77925508692839"><ele>28.0</ele><time>2026-04-05T11:56:40.999Z</time></trkpt><trkpt lat="44.4291306987949" lon="8.77950893298559"><ele>30.0</ele><time>2026-04-05T11:56:41.999Z</time></trkpt><trkpt lat="44.42907033394716" lon="8.779741774064979"><ele>32.0</ele><time>2026-04-05T11:56:42.999Z</time></trkpt><trkpt lat="44.42900423439223" lon="8.780005945502545"><ele>33.0</ele><time>2026-04-05T11:56:43.999Z</time></trkpt><trkpt lat="44.42896195917316" lon="8.780269540506852"><ele>34.0</ele><time>2026-04-05T11:56:44.999Z</time></trkpt><trkpt lat="44.42893762403413" lon="8.780532652108144"><ele>35.0</ele><time>2026-04-05T11:56:45.999Z</time></trkpt><trkpt lat="44.42890261197224" lon="8.780827159696594"><ele>37.5</ele><time>2026-04-05T11:56:46.999Z</time></trkpt><trkpt lat="44.428850951650034" lon="8.781136577108462"><ele>40.0</ele><time>2026-04-05T11:56:47.999Z</time></trkpt><trkpt lat="44.42880766304037" lon="8.781444736480301"><ele>35.0</ele><time>2026-04-05T11:56:48.999Z</time></trkpt><trkpt lat="44.42876252309777" lon="8.781733504149772"><ele>30.0</ele><time>2026-04-05T11:56:49.999Z</time></trkpt><trkpt lat="44.428712237356244" lon="8.782059087967511"><ele>25.0</ele><time>2026-04-05T11:56:50.999Z</time></trkpt><trkpt lat="44.42867115177072" lon="8.782382981437397"><ele>26.0</ele><time>2026-04-05T11:56:51.999Z</time></trkpt><trkpt lat="44.428632455198986" lon="8.782716260568554"><ele>27.0</ele><time>2026-04-05T11:56:52.999Z</time></trkpt><trkpt lat="44.428590136749385" lon="8.783020711055936"><ele>27.0</ele><time>2026-04-05T11:56:53.999Z</time></trkpt><trkpt lat="44.42855904025962" lon="8.783309055934824"><ele>27.0</ele><time>2026-04-05T11:56:54.999Z</time></trkpt><trkpt lat="44.428545647896456" lon="8.783578893641186"><ele>27.0</ele><time>2026-04-05T11:56:56.014Z</time></trkpt><trkpt lat="44.42855041220235" lon="8.783839438652985"><ele>27.333333333333336</ele><time>2026-04-05T11:56:57.015Z</time></trkpt><trkpt lat="44.42857582362606" lon="8.784107158358658"><ele>27.666666666666668</ele><time>2026-04-05T11:56:58.012Z</time></trkpt><trkpt lat="44.42861524993792" lon="8.78439677939931"><ele>28.0</ele><time>2026-04-05T11:56:59.016Z</time></trkpt><trkpt lat="44.428658610885186" lon="8.784673581441595"><ele>13.0</ele><time>2026-04-05T11:57:00.015Z</time></trkpt><trkpt lat="44.42957849081313" lon="8.787191525886715"><ele>18.0</ele><time>2026-04-05T11:57:03.968Z</time></trkpt><trkpt lat="44.43007484082545" lon="8.788145435982186"><ele>18.0</ele><time>2026-04-05T11:57:12.999Z</time></trkpt><trkpt lat="44.43018750019777" lon="8.788393718719067"><ele>18.0</ele><time>2026-04-05T11:57:13.999Z</time></trkpt><trkpt lat="44.43030448366018" lon="8.788625643332477"><ele>18.0</ele><time>2026-04-05T11:57:14.999Z</time></trkpt><trkpt lat="44.43038452393639" lon="8.788849237942006"><ele>17.666666666666668</ele><time>2026-04-05T11:57:15.999Z</time></trkpt><trkpt lat="44.430447493659265" lon="8.789067018388206"><ele>17.333333333333336</ele><time>2026-04-05T11:57:16.999Z</time></trkpt><trkpt lat="44.4305047224445" lon="8.78929829690279"><ele>17.0</ele><time>2026-04-05T11:57:17.999Z</time></trkpt><trkpt lat="44.43053679749179" lon="8.789558073220059"><ele>18.333333333333336</ele><time>2026-04-05T11:57:18.999Z</time></trkpt><trkpt lat="44.43053612266758" lon="8.789828472967445"><ele>19.666666666666668</ele><time>2026-04-05T11:57:19.999Z</time></trkpt><trkpt lat="44.43050981843625" lon="8.790084756481468"><ele>21.0</ele><time>2026-04-05T11:57:20.999Z</time></trkpt><trkpt lat="44.43047675642247" lon="8.790364944752064"><ele>22.0</ele><time>2026-04-05T11:57:21.999Z</time></trkpt><trkpt lat="44.4304245025929" lon="8.79067145322615"><ele>23.0</ele><time>2026-04-05T11:57:22.999Z</time></trkpt><trkpt lat="44.43035696875047" lon="8.790975488981836"><ele>32.5</ele><time>2026-04-05T11:57:23.999Z</time></trkpt><trkpt lat="44.430300547558986" lon="8.791271522261411"><ele>42.0</ele><time>2026-04-05T11:57:24.999Z</time></trkpt><trkpt lat="44.43024047096478" lon="8.791583635595593"><ele>56.5</ele><time>2026-04-05T11:57:25.999Z</time></trkpt><trkpt lat="44.430183373225624" lon="8.791900958412455"><ele>71.0</ele><time>2026-04-05T11:57:26.999Z</time></trkpt><trkpt lat="44.430122043709666" lon="8.79225743566593"><ele>71.0</ele><time>2026-04-05T11:57:27.999Z</time></trkpt><trkpt lat="44.430053022029874" lon="8.792654042738835"><ele>71.0</ele><time>2026-04-05T11:57:29.018Z</time></trkpt><trkpt lat="44.42997899332784" lon="8.793066906604542"><ele>82.5</ele><time>2026-04-05T11:57:30.015Z</time></trkpt><trkpt lat="44.4299046813903" lon="8.793485838941148"><ele>94.0</ele><time>2026-04-05T11:57:31.015Z</time></trkpt><trkpt lat="44.42983038049699" lon="8.793894162937693"><ele>54.0</ele><time>2026-04-05T11:57:32.015Z</time></trkpt><trkpt lat="44.4294179242674" lon="8.796635464030071"><ele>72.0</ele><time>2026-04-05T11:57:35.963Z</time></trkpt><trkpt lat="44.42957330054873" lon="8.797746914028373"><ele>106.0</ele><time>2026-04-05T11:57:36.965Z</time></trkpt><trkpt lat="44.42972918459314" lon="8.798858570825248"><ele>98.0</ele><time>2026-04-05T11:57:37.967Z</time></trkpt><trkpt lat="44.42988722761255" lon="8.799967820968263"><ele>54.0</ele><time>2026-04-05T11:57:38.967Z</time></trkpt><trkpt lat="44.42946669333914" lon="8.796263816360439"><ele>54.0</ele><time>2026-04-05T11:57:39.999Z</time></trkpt><trkpt lat="44.42947880898937" lon="8.796578453519514"><ele>54.0</ele><time>2026-04-05T11:57:40.999Z</time></trkpt><trkpt lat="44.42951080837281" lon="8.79688439740864"><ele>54.0</ele><time>2026-04-05T11:57:41.999Z</time></trkpt><trkpt lat="44.42955927368315" lon="8.797196318378413"><ele>59.5</ele><time>2026-04-05T11:57:42.999Z</time></trkpt><trkpt lat="44.42961491608034" lon="8.797538465320839"><ele>65.0</ele><time>2026-04-05T11:57:44.013Z</time></trkpt><trkpt lat="44.429674920873744" lon="8.79790254215724"><ele>75.5</ele><time>2026-04-05T11:57:45.015Z</time></trkpt><trkpt lat="44.42972675949707" lon="8.798237657251953"><ele>86.0</ele><time>2026-04-05T11:57:46.014Z</time></trkpt><trkpt lat="44.429757490861896" lon="8.7985743992155"><ele>96.0</ele><time>2026-04-05T11:57:47.012Z</time></trkpt><trkpt lat="44.42980453298911" lon="8.798912566256783"><ele>106.0</ele><time>2026-04-05T11:57:48.014Z</time></trkpt><trkpt lat="44.43029017226064" lon="8.802812733215386"><ele>104.0</ele><time>2026-04-05T11:57:52.967Z</time></trkpt><trkpt lat="44.430442045926625" lon="8.803922965731465"><ele>91.0</ele><time>2026-04-05T11:57:53.967Z</time></trkpt><trkpt lat="44.43059227719554" lon="8.805033684821579"><ele>82.0</ele><time>2026-04-05T11:57:54.967Z</time></trkpt><trkpt lat="44.430908271796724" lon="8.80725014803002"><ele>65.0</ele><time>2026-04-05T11:57:56.967Z</time></trkpt><trkpt lat="44.431230318382596" lon="8.80946631094264"><ele>73.0</ele><time>2026-04-05T11:57:58.967Z</time></trkpt><trkpt lat="44.43138755244845" lon="8.810573787819987"><ele>76.0</ele><time>2026-04-05T11:57:59.966Z</time></trkpt><trkpt lat="44.43147868765376" lon="8.81169433028203"><ele>81.0</ele><time>2026-04-05T11:58:00.967Z</time></trkpt><trkpt lat="44.43137032426888" lon="8.812814063452658"><ele>64.0</ele><time>2026-04-05T11:58:01.967Z</time></trkpt><trkpt lat="44.431248596537024" lon="8.813931534819037"><ele>74.0</ele><time>2026-04-05T11:58:02.967Z</time></trkpt><trkpt lat="44.43112723487938" lon="8.815049083317657"><ele>62.0</ele><time>2026-04-05T11:58:03.967Z</time></trkpt><trkpt lat="44.43100507474469" lon="8.816166459699854"><ele>51.0</ele><time>2026-04-05T11:58:04.967Z</time></trkpt><trkpt lat="44.43087717096329" lon="8.817282421216737"><ele>50.0</ele><time>2026-04-05T11:58:05.967Z</time></trkpt><trkpt lat="44.43126092203374" lon="8.809080412619569"><ele>67.0</ele><time>2026-04-05T11:58:12.999Z</time></trkpt><trkpt lat="44.43132507735986" lon="8.809516535352833"><ele>84.0</ele><time>2026-04-05T11:58:13.999Z</time></trkpt><trkpt lat="44.43138903125302" lon="8.809952729883868"><ele>82.5</ele><time>2026-04-05T11:58:14.999Z</time></trkpt><trkpt lat="44.43143118643331" lon="8.810402527532668"><ele>81.0</ele><time>2026-04-05T11:58:16.015Z</time></trkpt><trkpt lat="44.431326362896094" lon="8.8132143061118"><ele>74.0</ele><time>2026-04-05T11:58:19.966Z</time></trkpt><trkpt lat="44.431205022326836" lon="8.814332954389682"><ele>73.0</ele><time>2026-04-05T11:58:20.967Z</time></trkpt><trkpt lat="44.431083382146284" lon="8.815445487605778"><ele>62.0</ele><time>2026-04-05T11:58:21.963Z</time></trkpt><trkpt lat="44.43096234649236" lon="8.816567284961446"><ele>18.0</ele><time>2026-04-05T11:58:22.966Z</time></trkpt><trkpt lat="44.4302067757366" lon="8.819887040601131"><ele>17.0</ele><time>2026-04-05T11:58:42.998Z</time></trkpt><trkpt lat="44.43010427696432" lon="8.820230299003617"><ele>16.0</ele><time>2026-04-05T11:58:43.998Z</time></trkpt><trkpt lat="44.4300114065873" lon="8.820569789209955"><ele>16.0</ele><time>2026-04-05T11:58:44.998Z</time></trkpt><trkpt lat="44.42990310992704" lon="8.820938605251229"><ele>16.0</ele><time>2026-04-05T11:58:45.998Z</time></trkpt><trkpt lat="44.42979531834346" lon="8.82130813528004"><ele>18.0</ele><time>2026-04-05T11:58:47Z</time></trkpt><trkpt lat="44.42969450335222" lon="8.821688962853628"><ele>20.0</ele><time>2026-04-05T11:58:48Z</time></trkpt><trkpt lat="44.42958560189587" lon="8.822041848178062"><ele>20.5</ele><time>2026-04-05T11:58:49Z</time></trkpt><trkpt lat="44.42948356092152" lon="8.822361251746086"><ele>21.0</ele><time>2026-04-05T11:58:50Z</time></trkpt><trkpt lat="44.42939399114754" lon="8.822656922842722"><ele>23.666666666666664</ele><time>2026-04-05T11:58:51Z</time></trkpt><trkpt lat="44.42930940697927" lon="8.822947826631076"><ele>26.333333333333332</ele><time>2026-04-05T11:58:52Z</time></trkpt><trkpt lat="44.42923650675906" lon="8.8232355654414"><ele>29.0</ele><time>2026-04-05T11:58:53Z</time></trkpt><trkpt lat="44.42917516975675" lon="8.82348776194019"><ele>31.0</ele><time>2026-04-05T11:58:54Z</time></trkpt><trkpt lat="44.429131615586186" lon="8.823749678766799"><ele>33.0</ele><time>2026-04-05T11:58:55Z</time></trkpt><trkpt lat="44.42911109452399" lon="8.824031309593773"><ele>35.0</ele><time>2026-04-05T11:58:56Z</time></trkpt><trkpt lat="44.429111294303986" lon="8.824321869846159"><ele>35.5</ele><time>2026-04-05T11:58:57Z</time></trkpt><trkpt lat="44.42913119818564" lon="8.824626522809318"><ele>36.0</ele><time>2026-04-05T11:58:58Z</time></trkpt><trkpt lat="44.42916815625624" lon="8.824954092989524"><ele>37.0</ele><time>2026-04-05T11:58:59Z</time></trkpt><trkpt lat="44.429230152484706" lon="8.825265590495635"><ele>38.0</ele><time>2026-04-05T11:59:00Z</time></trkpt><trkpt lat="44.42930702975559" lon="8.825547049137194"><ele>39.0</ele><time>2026-04-05T11:59:01Z</time></trkpt><trkpt lat="44.42939486370339" lon="8.825801261267639"><ele>44.66666666666667</ele><time>2026-04-05T11:59:02Z</time></trkpt><trkpt lat="44.429480643135484" lon="8.82606027877436"><ele>50.333333333333336</ele><time>2026-04-05T11:59:03Z</time></trkpt><trkpt lat="44.429550665685355" lon="8.826330808306183"><ele>56.0</ele><time>2026-04-05T11:59:04Z</time></trkpt><trkpt lat="44.42961337532209" lon="8.826596214894563"><ele>56.0</ele><time>2026-04-05T11:59:05Z</time></trkpt><trkpt lat="44.429655682344176" lon="8.826880670334525"><ele>56.0</ele><time>2026-04-05T11:59:06Z</time></trkpt><trkpt lat="44.42967764548439" lon="8.827173750202023"><ele>56.0</ele><time>2026-04-05T11:59:07Z</time></trkpt><trkpt lat="44.429674101764896" lon="8.827480512343813"><ele>61.0</ele><time>2026-04-05T11:59:08Z</time></trkpt><trkpt lat="44.429643564207176" lon="8.82784314904917"><ele>66.0</ele><time>2026-04-05T11:59:09Z</time></trkpt><trkpt lat="44.42960938879378" lon="8.828211272632412"><ele>74.5</ele><time>2026-04-05T11:59:10Z</time></trkpt><trkpt lat="44.42958110601872" lon="8.828602092482026"><ele>83.0</ele><time>2026-04-05T11:59:11.013Z</time></trkpt><trkpt lat="44.42954837462314" lon="8.829008428149418"><ele>84.5</ele><time>2026-04-05T11:59:12.014Z</time></trkpt><trkpt lat="44.429519668523604" lon="8.829370225908185"><ele>86.0</ele><time>2026-04-05T11:59:13.015Z</time></trkpt><trkpt lat="44.429490449823355" lon="8.829773783027916"><ele>83.0</ele><time>2026-04-05T11:59:14.015Z</time></trkpt><trkpt lat="44.4294569808854" lon="8.830176430863343"><ele>80.0</ele><time>2026-04-05T11:59:15.012Z</time></trkpt><trkpt lat="44.429454182199656" lon="8.83054676398344"><ele>42.0</ele><time>2026-04-05T11:59:16.014Z</time></trkpt><trkpt lat="44.429580643814454" lon="8.833005968489529"><ele>42.0</ele><time>2026-04-05T11:59:23Z</time></trkpt><trkpt lat="44.429601538692296" lon="8.833370764758381"><ele>42.0</ele><time>2026-04-05T11:59:24Z</time></trkpt><trkpt lat="44.42964736015908" lon="8.833741263194502"><ele>44.66666666666667</ele><time>2026-04-05T11:59:25Z</time></trkpt><trkpt lat="44.42967872565507" lon="8.834019406493315"><ele>47.333333333333336</ele><time>2026-04-05T11:59:26Z</time></trkpt><trkpt lat="44.42971399911382" lon="8.834331771566534"><ele>50.0</ele><time>2026-04-05T11:59:27Z</time></trkpt><trkpt lat="44.4298260797572" lon="8.834630083207903"><ele>50.0</ele><time>2026-04-05T11:59:28Z</time></trkpt><trkpt lat="44.42993390238052" lon="8.834965216442848"><ele>50.0</ele><time>2026-04-05T11:59:29Z</time></trkpt><trkpt lat="44.430005154395964" lon="8.835246581001744"><ele>50.0</ele><time>2026-04-05T11:59:30Z</time></trkpt><trkpt lat="44.4300812862959" lon="8.835498881100193"><ele>50.0</ele><time>2026-04-05T11:59:31Z</time></trkpt><trkpt lat="44.43014407929244" lon="8.835753766093463"><ele>50.0</ele><time>2026-04-05T11:59:32Z</time></trkpt><trkpt lat="44.43015597304611" lon="8.83597995482169"><ele>50.0</ele><time>2026-04-05T11:59:33Z</time></trkpt><trkpt lat="44.43018464185493" lon="8.83624661419052"><ele>50.0</ele><time>2026-04-05T11:59:34Z</time></trkpt><trkpt lat="44.4301897599753" lon="8.836517371845751"><ele>50.0</ele><time>2026-04-05T11:59:35Z</time></trkpt><trkpt lat="44.43018095401814" lon="8.836797903214952"><ele>49.0</ele><time>2026-04-05T11:59:36Z</time></trkpt><trkpt lat="44.430155693352646" lon="8.837081538089286"><ele>48.0</ele><time>2026-04-05T11:59:37Z</time></trkpt><trkpt lat="44.4301078777577" lon="8.83736443825348"><ele>47.0</ele><time>2026-04-05T11:59:38Z</time></trkpt><trkpt lat="44.43005707576107" lon="8.837665053368141"><ele>44.33333333333333</ele><time>2026-04-05T11:59:39Z</time></trkpt><trkpt lat="44.430010846990584" lon="8.837929431523401"><ele>41.666666666666664</ele><time>2026-04-05T11:59:40Z</time></trkpt><trkpt lat="44.42997486751276" lon="8.83820670776457"><ele>39.0</ele><time>2026-04-05T11:59:41Z</time></trkpt><trkpt lat="44.429964243679954" lon="8.838472456385533"><ele>39.0</ele><time>2026-04-05T11:59:42Z</time></trkpt><trkpt lat="44.42995612931868" lon="8.838796753885871"><ele>39.0</ele><time>2026-04-05T11:59:43Z</time></trkpt><trkpt lat="44.42998035107171" lon="8.839087230223443"><ele>39.0</ele><time>2026-04-05T11:59:44Z</time></trkpt><trkpt lat="44.43002293067693" lon="8.839382493326207"><ele>39.0</ele><time>2026-04-05T11:59:45Z</time></trkpt><trkpt lat="44.43008301407278" lon="8.839672208842197"><ele>39.0</ele><time>2026-04-05T11:59:46Z</time></trkpt><trkpt lat="44.43016502794099" lon="8.839944577031426"><ele>39.0</ele><time>2026-04-05T11:59:47Z</time></trkpt><trkpt lat="44.43026268496985" lon="8.84023137049249"><ele>44.0</ele><time>2026-04-05T11:59:48Z</time></trkpt><trkpt lat="44.43036672441275" lon="8.840497417542949"><ele>49.0</ele><time>2026-04-05T11:59:49Z</time></trkpt><trkpt lat="44.43047942428476" lon="8.840768775486637"><ele>54.0</ele><time>2026-04-05T11:59:49.999Z</time></trkpt><trkpt lat="44.430610223471916" lon="8.841074409543566"><ele>60.5</ele><time>2026-04-05T11:59:51.017Z</time></trkpt><trkpt lat="44.43068939497724" lon="8.841402390769407"><ele>67.0</ele><time>2026-04-05T11:59:52.016Z</time></trkpt><trkpt lat="44.43075237330677" lon="8.841697276184325"><ele>64.66666666666666</ele><time>2026-04-05T11:59:53.015Z</time></trkpt><trkpt lat="44.430796191457205" lon="8.841976423322231"><ele>62.33333333333333</ele><time>2026-04-05T11:59:54.017Z</time></trkpt><trkpt lat="44.43081364971504" lon="8.842253034250405"><ele>60.0</ele><time>2026-04-05T11:59:55.016Z</time></trkpt><trkpt lat="44.43035568525598" lon="8.844996753702874"><ele>34.0</ele><time>2026-04-05T11:59:58.966Z</time></trkpt><trkpt lat="44.43019773332018" lon="8.84610514598073"><ele>39.0</ele><time>2026-04-05T11:59:59.966Z</time></trkpt><trkpt lat="44.43016903165032" lon="8.847230938421843"><ele>43.0</ele><time>2026-04-05T12:00:00.966Z</time></trkpt><trkpt lat="44.43029108706001" lon="8.848347924512009"><ele>58.0</ele><time>2026-04-05T12:00:01.966Z</time></trkpt><trkpt lat="44.43047746348857" lon="8.849447707742796"><ele>59.0</ele><time>2026-04-05T12:00:02.966Z</time></trkpt><trkpt lat="44.43049235079961" lon="8.850573330434182"><ele>50.0</ele><time>2026-04-05T12:00:03.966Z</time></trkpt><trkpt lat="44.4303165870007" lon="8.851676219536158"><ele>28.0</ele><time>2026-04-05T12:00:04.966Z</time></trkpt><trkpt lat="44.43014813031289" lon="8.852781368040503"><ele>39.0</ele><time>2026-04-05T12:00:05.966Z</time></trkpt><trkpt lat="44.430351695087204" lon="8.846850944691194"><ele>39.0</ele><time>2026-04-05T12:00:08.999Z</time></trkpt><trkpt lat="44.43025432545148" lon="8.847382504189106"><ele>39.0</ele><time>2026-04-05T12:00:10.999Z</time></trkpt><trkpt lat="44.430288045820554" lon="8.847746930237452"><ele>41.0</ele><time>2026-04-05T12:00:11.999Z</time></trkpt><trkpt lat="44.43032171334191" lon="8.848080803272534"><ele>43.0</ele><time>2026-04-05T12:00:12.999Z</time></trkpt><trkpt lat="44.43037080723425" lon="8.848415448269886"><ele>44.5</ele><time>2026-04-05T12:00:14.017Z</time></trkpt><trkpt lat="44.4304279623405" lon="8.84875003695808"><ele>46.0</ele><time>2026-04-05T12:00:15.015Z</time></trkpt><trkpt lat="44.430483247875785" lon="8.849060416423539"><ele>43.0</ele><time>2026-04-05T12:00:16.012Z</time></trkpt><trkpt lat="44.43053248459851" lon="8.849351070013551"><ele>40.0</ele><time>2026-04-05T12:00:17.016Z</time></trkpt><trkpt lat="44.43023465760831" lon="8.852150030198642"><ele>21.0</ele><time>2026-04-05T12:00:20.966Z</time></trkpt><trkpt lat="44.429944041226456" lon="8.854295415812036"><ele>21.0</ele><time>2026-04-05T12:00:30.999Z</time></trkpt><trkpt lat="44.42988145094456" lon="8.854673522759478"><ele>21.0</ele><time>2026-04-05T12:00:31.999Z</time></trkpt><trkpt lat="44.42985272145983" lon="8.854981696384119"><ele>27.0</ele><time>2026-04-05T12:00:32.999Z</time></trkpt><trkpt lat="44.42977746676426" lon="8.855322833263875"><ele>33.0</ele><time>2026-04-05T12:00:33.999Z</time></trkpt><trkpt lat="44.42971903068029" lon="8.855643801899163"><ele>32.0</ele><time>2026-04-05T12:00:34.999Z</time></trkpt><trkpt lat="44.42966030951008" lon="8.855961689959468"><ele>31.0</ele><time>2026-04-05T12:00:35.999Z</time></trkpt><trkpt lat="44.42959879147729" lon="8.85627815669507"><ele>31.0</ele><time>2026-04-05T12:00:36.999Z</time></trkpt><trkpt lat="44.42954673779216" lon="8.856579661905968"><ele>31.0</ele><time>2026-04-05T12:00:37.999Z</time></trkpt><trkpt lat="44.42949064361378" lon="8.856878266942752"><ele>31.0</ele><time>2026-04-05T12:00:38.999Z</time></trkpt><trkpt lat="44.42942676450828" lon="8.857158526933336"><ele>29.0</ele><time>2026-04-05T12:00:39.999Z</time></trkpt><trkpt lat="44.429344936911775" lon="8.857404633048276"><ele>27.0</ele><time>2026-04-05T12:00:40.999Z</time></trkpt><trkpt lat="44.42922850510669" lon="8.857675916927915"><ele>25.0</ele><time>2026-04-05T12:00:41.999Z</time></trkpt><trkpt lat="44.42909228363963" lon="8.857937185484587"><ele>22.0</ele><time>2026-04-05T12:00:42.999Z</time></trkpt><trkpt lat="44.428935537423506" lon="8.858221936314424"><ele>19.0</ele><time>2026-04-05T12:00:43.999Z</time></trkpt><trkpt lat="44.42877583106346" lon="8.858533399337022"><ele>18.0</ele><time>2026-04-05T12:00:44.999Z</time></trkpt><trkpt lat="44.428611246477274" lon="8.858866481791823"><ele>17.0</ele><time>2026-04-05T12:00:45.999Z</time></trkpt><trkpt lat="44.42843036915422" lon="8.859220157752594"><ele>21.5</ele><time>2026-04-05T12:00:46.999Z</time></trkpt><trkpt lat="44.428242422062795" lon="8.85959636775214"><ele>26.0</ele><time>2026-04-05T12:00:47.999Z</time></trkpt><trkpt lat="44.428056765405174" lon="8.85994215524165"><ele>41.0</ele><time>2026-04-05T12:00:48.999Z</time></trkpt><trkpt lat="44.4278904382902" lon="8.860243567309572"><ele>56.0</ele><time>2026-04-05T12:00:49.999Z</time></trkpt><trkpt lat="44.42773615370542" lon="8.860523726559684"><ele>56.0</ele><time>2026-04-05T12:00:50.999Z</time></trkpt><trkpt lat="44.42758811122352" lon="8.860819819841526"><ele>56.0</ele><time>2026-04-05T12:00:51.999Z</time></trkpt><trkpt lat="44.42743450297164" lon="8.861141849099743"><ele>58.0</ele><time>2026-04-05T12:00:53Z</time></trkpt><trkpt lat="44.42727307076339" lon="8.861473478565586"><ele>60.0</ele><time>2026-04-05T12:00:54Z</time></trkpt><trkpt lat="44.427133726003696" lon="8.861736086663896"><ele>71.0</ele><time>2026-04-05T12:00:55Z</time></trkpt><trkpt lat="44.42700704032872" lon="8.861988193664601"><ele>82.0</ele><time>2026-04-05T12:00:56Z</time></trkpt><trkpt lat="44.426879280052056" lon="8.862210674644126"><ele>93.0</ele><time>2026-04-05T12:00:57Z</time></trkpt><trkpt lat="44.42674472985092" lon="8.862443761547022"><ele>101.5</ele><time>2026-04-05T12:00:58Z</time></trkpt><trkpt lat="44.42659358333128" lon="8.862739267634385"><ele>110.0</ele><time>2026-04-05T12:00:59Z</time></trkpt><trkpt lat="44.42643700477367" lon="8.863078737071568"><ele>114.5</ele><time>2026-04-05T12:01:00.014Z</time></trkpt><trkpt lat="44.42626993199921" lon="8.863453674858047"><ele>119.0</ele><time>2026-04-05T12:01:01.012Z</time></trkpt><trkpt lat="44.426085367535784" lon="8.863859861018382"><ele>119.0</ele><time>2026-04-05T12:01:02.014Z</time></trkpt><trkpt lat="44.42589799098009" lon="8.864274095712055"><ele>119.0</ele><time>2026-04-05T12:01:03.012Z</time></trkpt><trkpt lat="44.424445770774504" lon="8.867234198148049"><ele>93.5</ele><time>2026-04-05T12:01:07.965Z</time></trkpt><trkpt lat="44.42428298764343" lon="8.867774521940264"><ele>68.0</ele><time>2026-04-05T12:01:16Z</time></trkpt><trkpt lat="44.42419551077148" lon="8.868013365482895"><ele>68.0</ele><time>2026-04-05T12:01:17Z</time></trkpt><trkpt lat="44.42410252959006" lon="8.868409752077442"><ele>68.0</ele><time>2026-04-05T12:01:18Z</time></trkpt><trkpt lat="44.42403144701569" lon="8.868730614597464"><ele>70.0</ele><time>2026-04-05T12:01:19Z</time></trkpt><trkpt lat="44.4240137308373" lon="8.869052607547374"><ele>72.0</ele><time>2026-04-05T12:01:20Z</time></trkpt><trkpt lat="44.42400926744382" lon="8.869340346724535"><ele>74.0</ele><time>2026-04-05T12:01:21Z</time></trkpt><trkpt lat="44.42402534743367" lon="8.869621392639608"><ele>76.33333333333334</ele><time>2026-04-05T12:01:22Z</time></trkpt><trkpt lat="44.42405680717996" lon="8.869888659361193"><ele>78.66666666666667</ele><time>2026-04-05T12:01:23Z</time></trkpt><trkpt lat="44.424102545281926" lon="8.87014554872716"><ele>81.0</ele><time>2026-04-05T12:01:24Z</time></trkpt><trkpt lat="44.42417132085072" lon="8.870422256878149"><ele>86.0</ele><time>2026-04-05T12:01:25Z</time></trkpt><trkpt lat="44.42426504552275" lon="8.870755651315934"><ele>91.0</ele><time>2026-04-05T12:01:26Z</time></trkpt><trkpt lat="44.424383345250035" lon="8.871131482774608"><ele>97.0</ele><time>2026-04-05T12:01:27.016Z</time></trkpt><trkpt lat="44.42449159635583" lon="8.871539872610796"><ele>103.0</ele><time>2026-04-05T12:01:28.013Z</time></trkpt><trkpt lat="44.42462275466085" lon="8.87195360865871"><ele>104.5</ele><time>2026-04-05T12:01:29.015Z</time></trkpt><trkpt lat="44.424742373622536" lon="8.872317622913187"><ele>106.0</ele><time>2026-04-05T12:01:30.017Z</time></trkpt><trkpt lat="44.42483452722513" lon="8.872669160741781"><ele>107.0</ele><time>2026-04-05T12:01:31.018Z</time></trkpt><trkpt lat="44.425692628364594" lon="8.875227448442569"><ele>124.0</ele><time>2026-04-05T12:01:34.963Z</time></trkpt><trkpt lat="44.4259858581463" lon="8.876147396685463"><ele>128.0</ele><time>2026-04-05T12:01:35.965Z</time></trkpt><trkpt lat="44.4262785506186" lon="8.877065072275188"><ele>125.0</ele><time>2026-04-05T12:01:36.965Z</time></trkpt><trkpt lat="44.42657118162464" lon="8.877983175858004"><ele>104.0</ele><time>2026-04-05T12:01:37.965Z</time></trkpt><trkpt lat="44.42686342629424" lon="8.878901311992141"><ele>89.0</ele><time>2026-04-05T12:01:38.965Z</time></trkpt><trkpt lat="44.42715627477087" lon="8.87981911846393"><ele>61.0</ele><time>2026-04-05T12:01:39.965Z</time></trkpt><trkpt lat="44.42744871469945" lon="8.88073710608851"><ele>19.0</ele><time>2026-04-05T12:01:40.965Z</time></trkpt><trkpt lat="44.42773323570136" lon="8.881862427096879"><ele>19.0</ele><time>2026-04-05T12:01:58.999Z</time></trkpt><trkpt lat="44.42781370866774" lon="8.882139200217368"><ele>19.0</ele><time>2026-04-05T12:01:59.999Z</time></trkpt><trkpt lat="44.42782445451139" lon="8.882425407721003"><ele>19.0</ele><time>2026-04-05T12:02:00.999Z</time></trkpt><trkpt lat="44.427820830302544" lon="8.8827150801048"><ele>18.0</ele><time>2026-04-05T12:02:01.999Z</time></trkpt><trkpt lat="44.427810373787196" lon="8.883011475076087"><ele>17.0</ele><time>2026-04-05T12:02:02.999Z</time></trkpt><trkpt lat="44.42777059924562" lon="8.883302399980561"><ele>16.0</ele><time>2026-04-05T12:02:03.999Z</time></trkpt><trkpt lat="44.42771377743978" lon="8.883587782023332"><ele>16.0</ele><time>2026-04-05T12:02:04.999Z</time></trkpt><trkpt lat="44.4276426453435" lon="8.883892460792806"><ele>16.0</ele><time>2026-04-05T12:02:05.999Z</time></trkpt><trkpt lat="44.42754489754557" lon="8.884214466736717"><ele>16.5</ele><time>2026-04-05T12:02:06.999Z</time></trkpt><trkpt lat="44.42742296863585" lon="8.884547017564167"><ele>17.0</ele><time>2026-04-05T12:02:07.999Z</time></trkpt><trkpt lat="44.427301995257636" lon="8.884873368859852"><ele>19.0</ele><time>2026-04-05T12:02:08.999Z</time></trkpt><trkpt lat="44.42718186994858" lon="8.88517428878222"><ele>21.0</ele><time>2026-04-05T12:02:09.999Z</time></trkpt><trkpt lat="44.42706376656307" lon="8.885448622626203"><ele>18.0</ele><time>2026-04-05T12:02:10.999Z</time></trkpt><trkpt lat="44.42694255617042" lon="8.885732441140913"><ele>15.0</ele><time>2026-04-05T12:02:11.999Z</time></trkpt><trkpt lat="44.42682632988476" lon="8.886002576601246"><ele>15.0</ele><time>2026-04-05T12:02:12.999Z</time></trkpt><trkpt lat="44.42671223622654" lon="8.88626719374067"><ele>15.0</ele><time>2026-04-05T12:02:13.999Z</time></trkpt><trkpt lat="44.42660359762579" lon="8.886536464496007"><ele>15.0</ele><time>2026-04-05T12:02:14.999Z</time></trkpt><trkpt lat="44.42649331556077" lon="8.886811269682534"><ele>15.5</ele><time>2026-04-05T12:02:15.999Z</time></trkpt><trkpt lat="44.42637955184091" lon="8.887091528844998"><ele>16.0</ele><time>2026-04-05T12:02:16.999Z</time></trkpt><trkpt lat="44.42627158734977" lon="8.887366140962065"><ele>14.666666666666666</ele><time>2026-04-05T12:02:17.999Z</time></trkpt><trkpt lat="44.42616476523532" lon="8.887628928804961"><ele>13.333333333333332</ele><time>2026-04-05T12:02:18.999Z</time></trkpt><trkpt lat="44.426056809651406" lon="8.887893608087815"><ele>12.0</ele><time>2026-04-05T12:02:19.999Z</time></trkpt><trkpt lat="44.42595731587549" lon="8.888139896344809"><ele>12.0</ele><time>2026-04-05T12:02:20.999Z</time></trkpt><trkpt lat="44.425847159363705" lon="8.888401008102186"><ele>12.0</ele><time>2026-04-05T12:02:21.999Z</time></trkpt><trkpt lat="44.42574025793942" lon="8.888663629494308"><ele>12.0</ele><time>2026-04-05T12:02:22.999Z</time></trkpt><trkpt lat="44.425635533395244" lon="8.888928693920509"><ele>13.0</ele><time>2026-04-05T12:02:23.999Z</time></trkpt><trkpt lat="44.42552466548584" lon="8.889199605938035"><ele>14.0</ele><time>2026-04-05T12:02:24.999Z</time></trkpt><trkpt lat="44.42541404734509" lon="8.88947950023951"><ele>15.5</ele><time>2026-04-05T12:02:25.999Z</time></trkpt><trkpt lat="44.425300007814805" lon="8.889764594657963"><ele>17.0</ele><time>2026-04-05T12:02:26.999Z</time></trkpt><trkpt lat="44.42518177738036" lon="8.89005692328875"><ele>17.0</ele><time>2026-04-05T12:02:27.999Z</time></trkpt><trkpt lat="44.42506187690791" lon="8.890336078996727"><ele>17.0</ele><time>2026-04-05T12:02:28.999Z</time></trkpt><trkpt lat="44.424950751491544" lon="8.890596920842965"><ele>17.0</ele><time>2026-04-05T12:02:29.999Z</time></trkpt><trkpt lat="44.42484384440502" lon="8.890867571151515"><ele>17.0</ele><time>2026-04-05T12:02:30.999Z</time></trkpt><trkpt lat="44.42473563250372" lon="8.891132173184992"><ele>17.0</ele><time>2026-04-05T12:02:31.999Z</time></trkpt><trkpt lat="44.42463161698007" lon="8.891392144525582"><ele>17.0</ele><time>2026-04-05T12:02:32.999Z</time></trkpt><trkpt lat="44.42453036839354" lon="8.891635340587854"><ele>17.0</ele><time>2026-04-05T12:02:33.999Z</time></trkpt><trkpt lat="44.4244349263009" lon="8.891870619279024"><ele>17.0</ele><time>2026-04-05T12:02:34.999Z</time></trkpt><trkpt lat="44.4243385952289" lon="8.892102765729355"><ele>22.333333333333336</ele><time>2026-04-05T12:02:35.999Z</time></trkpt><trkpt lat="44.42423857590854" lon="8.892344197425883"><ele>27.666666666666668</ele><time>2026-04-05T12:02:36.999Z</time></trkpt><trkpt lat="44.42413781639532" lon="8.89260693353663"><ele>33.0</ele><time>2026-04-05T12:02:37.999Z</time></trkpt><trkpt lat="44.42404726337528" lon="8.892849222342756"><ele>38.33333333333333</ele><time>2026-04-05T12:02:38.999Z</time></trkpt><trkpt lat="44.423960178831955" lon="8.893058976579702"><ele>43.666666666666664</ele><time>2026-04-05T12:02:39.999Z</time></trkpt><trkpt lat="44.423884602119635" lon="8.893251990585208"><ele>49.0</ele><time>2026-04-05T12:02:40.999Z</time></trkpt><trkpt lat="44.423812437973446" lon="8.893421336450244"><ele>53.75</ele><time>2026-04-05T12:02:41.999Z</time></trkpt><trkpt lat="44.42374487024362" lon="8.893566455095957"><ele>58.5</ele><time>2026-04-05T12:02:42.999Z</time></trkpt><trkpt lat="44.42367337186177" lon="8.8936832425998"><ele>63.25</ele><time>2026-04-05T12:02:43.999Z</time></trkpt><trkpt lat="44.42357453031308" lon="8.89378026488751"><ele>68.0</ele><time>2026-04-05T12:02:44.999Z</time></trkpt><trkpt lat="44.423446819958144" lon="8.893838519770123"><ele>68.0</ele><time>2026-04-05T12:02:45.999Z</time></trkpt><trkpt lat="44.42330773989797" lon="8.893826032184894"><ele>68.0</ele><time>2026-04-05T12:02:46.999Z</time></trkpt><trkpt lat="44.42313062900206" lon="8.893851485955189"><ele>68.0</ele><time>2026-04-05T12:02:47.999Z</time></trkpt><trkpt lat="44.42297819570699" lon="8.893921965518611"><ele>64.33333333333334</ele><time>2026-04-05T12:02:48.999Z</time></trkpt><trkpt lat="44.42283874354432" lon="8.894015048361707"><ele>60.66666666666667</ele><time>2026-04-05T12:02:49.999Z</time></trkpt><trkpt lat="44.42269278368568" lon="8.894119765516672"><ele>57.0</ele><time>2026-04-05T12:02:50.999Z</time></trkpt><trkpt lat="44.422546204250075" lon="8.894241651195731"><ele>62.33333333333333</ele><time>2026-04-05T12:02:51.999Z</time></trkpt><trkpt lat="44.42240851318372" lon="8.894360110168957"><ele>67.66666666666666</ele><time>2026-04-05T12:02:52.999Z</time></trkpt><trkpt lat="44.4222893770111" lon="8.894486425252971"><ele>73.0</ele><time>2026-04-05T12:02:53.999Z</time></trkpt><trkpt lat="44.42218034644534" lon="8.894637441384159"><ele>74.66666666666666</ele><time>2026-04-05T12:02:54.999Z</time></trkpt><trkpt lat="44.422070887283915" lon="8.894806798510936"><ele>76.33333333333333</ele><time>2026-04-05T12:02:55.999Z</time></trkpt><trkpt lat="44.42194639621253" lon="8.894998465851017"><ele>78.0</ele><time>2026-04-05T12:02:56.999Z</time></trkpt><trkpt lat="44.421787430914065" lon="8.895208615152018"><ele>90.0</ele><time>2026-04-05T12:02:57.999Z</time></trkpt><trkpt lat="44.421610811460944" lon="8.895426581011373"><ele>102.0</ele><time>2026-04-05T12:02:59.013Z</time></trkpt><trkpt lat="44.42142439833797" lon="8.895661372220111"><ele>111.0</ele><time>2026-04-05T12:03:00.017Z</time></trkpt><trkpt lat="44.421216597317375" lon="8.895913515194357"><ele>120.0</ele><time>2026-04-05T12:03:01.016Z</time></trkpt><trkpt lat="44.42099717815482" lon="8.896160900826878"><ele>124.5</ele><time>2026-04-05T12:03:02.016Z</time></trkpt><trkpt lat="44.42075328146298" lon="8.896428396757175"><ele>129.0</ele><time>2026-04-05T12:03:03.018Z</time></trkpt><trkpt lat="44.42052641362159" lon="8.896675106270038"><ele>110.0</ele><time>2026-04-05T12:03:04.017Z</time></trkpt><trkpt lat="44.41944750052263" lon="8.899207775668808"><ele>104.0</ele><time>2026-04-05T12:03:08.964Z</time></trkpt><trkpt lat="44.419451717420515" lon="8.89983554885131"><ele>98.0</ele><time>2026-04-05T12:03:09.964Z</time></trkpt><trkpt lat="44.41944174232039" lon="8.900462842794369"><ele>87.5</ele><time>2026-04-05T12:03:10.964Z</time></trkpt><trkpt lat="44.41930552017355" lon="8.900914639242831"><ele>77.0</ele><time>2026-04-05T12:03:25Z</time></trkpt><trkpt lat="44.41922379811482" lon="8.901078673031018"><ele>75.66666666666667</ele><time>2026-04-05T12:03:26Z</time></trkpt><trkpt lat="44.41898201351728" lon="8.90129018316663"><ele>74.33333333333333</ele><time>2026-04-05T12:03:27Z</time></trkpt><trkpt lat="44.418853897339375" lon="8.901395477864234"><ele>73.0</ele><time>2026-04-05T12:03:28Z</time></trkpt><trkpt lat="44.41872138149428" lon="8.901535928468897"><ele>72.25</ele><time>2026-04-05T12:03:29Z</time></trkpt><trkpt lat="44.41858773733876" lon="8.901657178741115"><ele>71.5</ele><time>2026-04-05T12:03:30Z</time></trkpt><trkpt lat="44.41847800189235" lon="8.901718765498972"><ele>70.75</ele><time>2026-04-05T12:03:31Z</time></trkpt><trkpt lat="44.418363906589704" lon="8.90183579654892"><ele>70.0</ele><time>2026-04-05T12:03:32Z</time></trkpt><trkpt lat="44.41825217367381" lon="8.901906272629505"><ele>70.0</ele><time>2026-04-05T12:03:33Z</time></trkpt><trkpt lat="44.418146885859635" lon="8.901953077799638"><ele>70.0</ele><time>2026-04-05T12:03:34Z</time></trkpt><trkpt lat="44.41804579203387" lon="8.902020294404084"><ele>70.0</ele><time>2026-04-05T12:03:35Z</time></trkpt><trkpt lat="44.41796701457254" lon="8.902005796490007"><ele>70.0</ele><time>2026-04-05T12:03:36Z</time></trkpt><trkpt lat="44.41788549397613" lon="8.902045627214692"><ele>70.0</ele><time>2026-04-05T12:03:37Z</time></trkpt><trkpt lat="44.41783218125904" lon="8.902096004088763"><ele>67.4</ele><time>2026-04-05T12:03:38Z</time></trkpt><trkpt lat="44.41774049687729" lon="8.902114681218235"><ele>64.8</ele><time>2026-04-05T12:03:40Z</time></trkpt><trkpt lat="44.41766551225847" lon="8.90206308677022"><ele>62.2</ele><time>2026-04-05T12:03:47Z</time></trkpt><trkpt lat="44.417626296817105" lon="8.90197263555455"><ele>59.6</ele><time>2026-04-05T12:03:56Z</time></trkpt><trkpt lat="44.417506439269765" lon="8.902071117505294"><ele>57.0</ele><time>2026-04-05T12:04:40.999Z</time></trkpt><trkpt lat="44.41744048703458" lon="8.90217287928025"><ele>57.0</ele><time>2026-04-05T12:04:42.999Z</time></trkpt><trkpt lat="44.417352921129506" lon="8.902211589867116"><ele>57.0</ele><time>2026-04-05T12:04:44.999Z</time></trkpt><trkpt lat="44.41725123997728" lon="8.902202237438996"><ele>57.0</ele><time>2026-04-05T12:04:46.999Z</time></trkpt><trkpt lat="44.41714476230645" lon="8.902240841887899"><ele>57.0</ele><time>2026-04-05T12:04:48.999Z</time></trkpt><trkpt lat="44.4170920814456" lon="8.902307428296545"><ele>57.0</ele><time>2026-04-05T12:04:51.999Z</time></trkpt><trkpt lat="44.4170156042978" lon="8.902425380633787"><ele>56.75</ele><time>2026-04-05T12:04:54.999Z</time></trkpt><trkpt lat="44.41693708910013" lon="8.902440514790985"><ele>56.5</ele><time>2026-04-05T12:04:55.999Z</time></trkpt><trkpt lat="44.41682055482106" lon="8.902416607018553"><ele>56.25</ele><time>2026-04-05T12:04:56.999Z</time></trkpt><trkpt lat="44.41668877390863" lon="8.902432916455435"><ele>56.0</ele><time>2026-04-05T12:04:57.999Z</time></trkpt><trkpt lat="44.41654696885788" lon="8.902415643897555"><ele>56.0</ele><time>2026-04-05T12:04:58.999Z</time></trkpt><trkpt lat="44.41640538066218" lon="8.902401065742453"><ele>56.0</ele><time>2026-04-05T12:04:59.999Z</time></trkpt><trkpt lat="44.416238237038776" lon="8.902359274893412"><ele>56.0</ele><time>2026-04-05T12:05:00.999Z</time></trkpt><trkpt lat="44.41603582340046" lon="8.902272959865547"><ele>53.0</ele><time>2026-04-05T12:05:01.999Z</time></trkpt><trkpt lat="44.41582931888163" lon="8.902172715954837"><ele>50.0</ele><time>2026-04-05T12:05:02.999Z</time></trkpt><trkpt lat="44.41562405681533" lon="8.902089501257759"><ele>47.0</ele><time>2026-04-05T12:05:03.999Z</time></trkpt><trkpt lat="44.415400851645515" lon="8.901998627142117"><ele>44.0</ele><time>2026-04-05T12:05:05Z</time></trkpt><trkpt lat="44.41520832516495" lon="8.901917735122511"><ele>41.0</ele><time>2026-04-05T12:05:06Z</time></trkpt><trkpt lat="44.415010459818696" lon="8.90184296796527"><ele>38.0</ele><time>2026-04-05T12:05:07Z</time></trkpt><trkpt lat="44.41481554622389" lon="8.901801462157609"><ele>39.0</ele><time>2026-04-05T12:05:08Z</time></trkpt><trkpt lat="44.41462976326843" lon="8.901730741224926"><ele>40.0</ele><time>2026-04-05T12:05:09Z</time></trkpt><trkpt lat="44.41441593233316" lon="8.901622213014205"><ele>41.0</ele><time>2026-04-05T12:05:10Z</time></trkpt><trkpt lat="44.414194703802615" lon="8.90148455451493"><ele>41.0</ele><time>2026-04-05T12:05:11Z</time></trkpt><trkpt lat="44.413992963096526" lon="8.901333807827612"><ele>41.0</ele><time>2026-04-05T12:05:12Z</time></trkpt><trkpt lat="44.41398120645747" lon="8.900859949712887"><ele>40.5</ele><time>2026-04-05T12:05:13Z</time></trkpt><trkpt lat="44.41378880399762" lon="8.900631413563138"><ele>40.0</ele><time>2026-04-05T12:05:14Z</time></trkpt><trkpt lat="44.413591241059926" lon="8.900473926559968"><ele>40.0</ele><time>2026-04-05T12:05:15Z</time></trkpt><trkpt lat="44.41340244309035" lon="8.90032813587468"><ele>40.0</ele><time>2026-04-05T12:05:16Z</time></trkpt><trkpt lat="44.41324711164902" lon="8.900202976541884"><ele>40.0</ele><time>2026-04-05T12:05:17Z</time></trkpt><trkpt lat="44.413085691271746" lon="8.900113261539769"><ele>38.0</ele><time>2026-04-05T12:05:18Z</time></trkpt><trkpt lat="44.41292196841292" lon="8.900071122874413"><ele>36.0</ele><time>2026-04-05T12:05:19Z</time></trkpt><trkpt lat="44.412745737747834" lon="8.899993110622942"><ele>34.0</ele><time>2026-04-05T12:05:20Z</time></trkpt><trkpt lat="44.41256099721481" lon="8.900057960194696"><ele>34.333333333333336</ele><time>2026-04-05T12:05:21Z</time></trkpt><trkpt lat="44.412398997077226" lon="8.90009801832819"><ele>34.666666666666664</ele><time>2026-04-05T12:05:22Z</time></trkpt><trkpt lat="44.41221695986345" lon="8.900143848732805"><ele>35.0</ele><time>2026-04-05T12:05:23Z</time></trkpt><trkpt lat="44.41205072889729" lon="8.90015528521829"><ele>35.0</ele><time>2026-04-05T12:05:24Z</time></trkpt><trkpt lat="44.411926380488055" lon="8.900232813092119"><ele>35.0</ele><time>2026-04-05T12:05:25Z</time></trkpt><trkpt lat="44.411733718209554" lon="8.900303837847673"><ele>35.0</ele><time>2026-04-05T12:05:26Z</time></trkpt><trkpt lat="44.411582142172904" lon="8.900359804171908"><ele>35.0</ele><time>2026-04-05T12:05:27Z</time></trkpt><trkpt lat="44.411436358795356" lon="8.90039512318933"><ele>35.0</ele><time>2026-04-05T12:05:28Z</time></trkpt><trkpt lat="44.41129665879887" lon="8.900405283827396"><ele>35.0</ele><time>2026-04-05T12:05:29Z</time></trkpt><trkpt lat="44.411155703578856" lon="8.900366157115217"><ele>35.0</ele><time>2026-04-05T12:05:30Z</time></trkpt><trkpt lat="44.411006047664856" lon="8.900310083493162"><ele>32.8</ele><time>2026-04-05T12:05:31Z</time></trkpt><trkpt lat="44.4108818020524" lon="8.900253877047112"><ele>30.6</ele><time>2026-04-05T12:05:32Z</time></trkpt><trkpt lat="44.41076276594748" lon="8.90023787567734"><ele>28.4</ele><time>2026-04-05T12:05:33Z</time></trkpt><trkpt lat="44.41066545599874" lon="8.900246298524229"><ele>26.2</ele><time>2026-04-05T12:05:34Z</time></trkpt><trkpt lat="44.410568199440924" lon="8.900282268761815"><ele>24.0</ele><time>2026-04-05T12:05:35Z</time></trkpt><trkpt lat="44.410475077071354" lon="8.9003329641617"><ele>22.599999999999998</ele><time>2026-04-05T12:05:36Z</time></trkpt><trkpt lat="44.41039986847313" lon="8.900390023900348"><ele>21.2</ele><time>2026-04-05T12:05:37Z</time></trkpt><trkpt lat="44.41033383800868" lon="8.900469919959269"><ele>19.799999999999997</ele><time>2026-04-05T12:05:38Z</time></trkpt><trkpt lat="44.41028198322808" lon="8.900571571380537"><ele>18.4</ele><time>2026-04-05T12:05:39Z</time></trkpt><trkpt lat="44.41022906502983" lon="8.900688906049925"><ele>17.0</ele><time>2026-04-05T12:05:40Z</time></trkpt><trkpt lat="44.41017741716525" lon="8.900798151792928"><ele>18.0</ele><time>2026-04-05T12:05:41Z</time></trkpt><trkpt lat="44.410128558117144" lon="8.900927608896799"><ele>19.0</ele><time>2026-04-05T12:05:42Z</time></trkpt><trkpt lat="44.41006454092756" lon="8.901068395768917"><ele>20.0</ele><time>2026-04-05T12:05:43Z</time></trkpt><trkpt lat="44.410002443894015" lon="8.901207769998882"><ele>21.0</ele><time>2026-04-05T12:05:44Z</time></trkpt><trkpt lat="44.40991295928934" lon="8.901368704945655"><ele>21.0</ele><time>2026-04-05T12:05:45Z</time></trkpt><trkpt lat="44.409822788413734" lon="8.901536179207724"><ele>21.0</ele><time>2026-04-05T12:05:46Z</time></trkpt><trkpt lat="44.40974252590181" lon="8.901675999349708"><ele>21.0</ele><time>2026-04-05T12:05:47Z</time></trkpt><trkpt lat="44.40966822597858" lon="8.90181881101704"><ele>21.0</ele><time>2026-04-05T12:05:48Z</time></trkpt><trkpt lat="44.40961435503964" lon="8.901931027495857"><ele>20.333333333333332</ele><time>2026-04-05T12:05:49Z</time></trkpt><trkpt lat="44.4095642136959" lon="8.902034035599893"><ele>19.666666666666668</ele><time>2026-04-05T12:05:50Z</time></trkpt><trkpt lat="44.409541027929436" lon="8.902124807757012"><ele>19.0</ele><time>2026-04-05T12:05:51Z</time></trkpt><trkpt lat="44.40953138616855" lon="8.902234975203926"><ele>18.333333333333336</ele><time>2026-04-05T12:05:52Z</time></trkpt><trkpt lat="44.409544107732856" lon="8.902357314792138"><ele>17.666666666666668</ele><time>2026-04-05T12:05:53Z</time></trkpt><trkpt lat="44.40956535249522" lon="8.902498640907362"><ele>17.0</ele><time>2026-04-05T12:05:54Z</time></trkpt><trkpt lat="44.40960743562192" lon="8.902657693826121"><ele>19.75</ele><time>2026-04-05T12:05:55Z</time></trkpt><trkpt lat="44.40966473492892" lon="8.90283665764306"><ele>22.5</ele><time>2026-04-05T12:05:56Z</time></trkpt><trkpt lat="44.40971569853865" lon="8.903033427405438"><ele>25.25</ele><time>2026-04-05T12:05:57Z</time></trkpt><trkpt lat="44.409761171077854" lon="8.903211033233513"><ele>28.0</ele><time>2026-04-05T12:05:58Z</time></trkpt><trkpt lat="44.40980407463806" lon="8.903384118843773"><ele>25.25</ele><time>2026-04-05T12:05:59Z</time></trkpt><trkpt lat="44.409846071875755" lon="8.903555086986616"><ele>22.5</ele><time>2026-04-05T12:06:00Z</time></trkpt><trkpt lat="44.40987419425987" lon="8.903724943219371"><ele>19.75</ele><time>2026-04-05T12:06:01Z</time></trkpt><trkpt lat="44.409906004062286" lon="8.903888558472609"><ele>17.0</ele><time>2026-04-05T12:06:02Z</time></trkpt><trkpt lat="44.40993618915138" lon="8.90405035379371"><ele>17.0</ele><time>2026-04-05T12:06:03Z</time></trkpt><trkpt lat="44.409971650033775" lon="8.904232575720496"><ele>17.0</ele><time>2026-04-05T12:06:04Z</time></trkpt><trkpt lat="44.41001419535476" lon="8.904409395523613"><ele>17.0</ele><time>2026-04-05T12:06:05Z</time></trkpt><trkpt lat="44.41006423870519" lon="8.904592349658795"><ele>17.0</ele><time>2026-04-05T12:06:06Z</time></trkpt><trkpt lat="44.41010679498479" lon="8.904788550014306"><ele>16.0</ele><time>2026-04-05T12:06:07Z</time></trkpt><trkpt lat="44.41017718526406" lon="8.904992237109928"><ele>15.0</ele><time>2026-04-05T12:06:07.999Z</time></trkpt><trkpt lat="44.41023213305777" lon="8.905191189946331"><ele>14.0</ele><time>2026-04-05T12:06:08.999Z</time></trkpt><trkpt lat="44.410283732130026" lon="8.905372127996369"><ele>13.0</ele><time>2026-04-05T12:06:09.999Z</time></trkpt><trkpt lat="44.41033561017711" lon="8.90554277343165"><ele>12.0</ele><time>2026-04-05T12:06:10.999Z</time></trkpt><trkpt lat="44.41038351788852" lon="8.905697753579187"><ele>11.0</ele><time>2026-04-05T12:06:11.999Z</time></trkpt><trkpt lat="44.410420239477105" lon="8.905860673154328"><ele>10.0</ele><time>2026-04-05T12:06:12.999Z</time></trkpt><trkpt lat="44.41046197110917" lon="8.906020963684774"><ele>11.25</ele><time>2026-04-05T12:06:13.999Z</time></trkpt><trkpt lat="44.41049708553301" lon="8.906174218614865"><ele>12.5</ele><time>2026-04-05T12:06:14.999Z</time></trkpt><trkpt lat="44.410541731906456" lon="8.90632115228956"><ele>13.75</ele><time>2026-04-05T12:06:15.999Z</time></trkpt><trkpt lat="44.410585022547764" lon="8.906474227618762"><ele>15.0</ele><time>2026-04-05T12:06:16.999Z</time></trkpt><trkpt lat="44.41063606587054" lon="8.906624534112057"><ele>14.0</ele><time>2026-04-05T12:06:17.999Z</time></trkpt><trkpt lat="44.410691461777795" lon="8.906773523789836"><ele>13.0</ele><time>2026-04-05T12:06:18.999Z</time></trkpt><trkpt lat="44.410736315032416" lon="8.90693093221586"><ele>12.0</ele><time>2026-04-05T12:06:19.999Z</time></trkpt><trkpt lat="44.41079111913656" lon="8.90709085234692"><ele>11.0</ele><time>2026-04-05T12:06:20.999Z</time></trkpt><trkpt lat="44.41084386812213" lon="8.907235903332301"><ele>11.0</ele><time>2026-04-05T12:06:21.999Z</time></trkpt><trkpt lat="44.410883017841" lon="8.907383655139986"><ele>11.0</ele><time>2026-04-05T12:06:22.999Z</time></trkpt><trkpt lat="44.41092664709181" lon="8.907536891635095"><ele>11.0</ele><time>2026-04-05T12:06:23.999Z</time></trkpt><trkpt lat="44.41096315732133" lon="8.907682863682483"><ele>11.0</ele><time>2026-04-05T12:06:24.999Z</time></trkpt><trkpt lat="44.411013721117826" lon="8.907819093944473"><ele>10.8</ele><time>2026-04-05T12:06:25.999Z</time></trkpt><trkpt lat="44.411066657822246" lon="8.907958631336976"><ele>10.600000000000001</ele><time>2026-04-05T12:06:26.999Z</time></trkpt><trkpt lat="44.41112594915537" lon="8.908098748717315"><ele>10.4</ele><time>2026-04-05T12:06:27.999Z</time></trkpt><trkpt lat="44.411182945819384" lon="8.908230316119612"><ele>10.2</ele><time>2026-04-05T12:06:28.999Z</time></trkpt><trkpt lat="44.411238990440765" lon="8.908360176836611"><ele>10.0</ele><time>2026-04-05T12:06:29.999Z</time></trkpt><trkpt lat="44.41130143252426" lon="8.908491013007884"><ele>9.5</ele><time>2026-04-05T12:06:30.999Z</time></trkpt><trkpt lat="44.41136883375096" lon="8.908627663185747"><ele>9.0</ele><time>2026-04-05T12:06:31.999Z</time></trkpt><trkpt lat="44.411444860038266" lon="8.90877030372194"><ele>8.5</ele><time>2026-04-05T12:06:32.999Z</time></trkpt><trkpt lat="44.41153577116046" lon="8.90890056380739"><ele>8.0</ele><time>2026-04-05T12:06:33.999Z</time></trkpt><trkpt lat="44.41162900677515" lon="8.909031915008768"><ele>8.0</ele><time>2026-04-05T12:06:34.999Z</time></trkpt><trkpt lat="44.41172777442789" lon="8.909158494813926"><ele>8.0</ele><time>2026-04-05T12:06:35.999Z</time></trkpt><trkpt lat="44.4118298619741" lon="8.909276885305886"><ele>8.0</ele><time>2026-04-05T12:06:36.999Z</time></trkpt><trkpt lat="44.41193987749427" lon="8.909385943477185"><ele>8.0</ele><time>2026-04-05T12:06:37.999Z</time></trkpt><trkpt lat="44.412043054504416" lon="8.909497355139568"><ele>8.25</ele><time>2026-04-05T12:06:38.999Z</time></trkpt><trkpt lat="44.41215212086885" lon="8.909600012647191"><ele>8.5</ele><time>2026-04-05T12:06:39.999Z</time></trkpt><trkpt lat="44.41225709648632" lon="8.909694508656214"><ele>8.75</ele><time>2026-04-05T12:06:40.999Z</time></trkpt><trkpt lat="44.41235800085221" lon="8.909793699825663"><ele>9.0</ele><time>2026-04-05T12:06:41.999Z</time></trkpt><trkpt lat="44.412452596704625" lon="8.909901737853307"><ele>9.0</ele><time>2026-04-05T12:06:42.999Z</time></trkpt><trkpt lat="44.41254517869534" lon="8.910020371747677"><ele>9.0</ele><time>2026-04-05T12:06:43.999Z</time></trkpt><trkpt lat="44.41263054756045" lon="8.910146145873721"><ele>9.0</ele><time>2026-04-05T12:06:44.999Z</time></trkpt><trkpt lat="44.4127077291477" lon="8.910282825984027"><ele>9.0</ele><time>2026-04-05T12:06:45.999Z</time></trkpt><trkpt lat="44.41278238508355" lon="8.910429114826343"><ele>8.5</ele><time>2026-04-05T12:06:46.999Z</time></trkpt><trkpt lat="44.41285841082384" lon="8.910583529402377"><ele>8.0</ele><time>2026-04-05T12:06:47.999Z</time></trkpt><trkpt lat="44.41292731544406" lon="8.910741120681267"><ele>7.5</ele><time>2026-04-05T12:06:48.999Z</time></trkpt><trkpt lat="44.412999862488114" lon="8.910902969018949"><ele>7.0</ele><time>2026-04-05T12:06:49.999Z</time></trkpt><trkpt lat="44.41307226343991" lon="8.91105515826804"><ele>5.75</ele><time>2026-04-05T12:06:50.999Z</time></trkpt><trkpt lat="44.41313719298275" lon="8.911197025411939"><ele>4.5</ele><time>2026-04-05T12:06:51.999Z</time></trkpt><trkpt lat="44.41319815908579" lon="8.911333242608432"><ele>3.25</ele><time>2026-04-05T12:06:52.999Z</time></trkpt><trkpt lat="44.41326159562295" lon="8.91146957097312"><ele>2.0</ele><time>2026-04-05T12:06:53.999Z</time></trkpt><trkpt lat="44.413327575227065" lon="8.911611482848931"><ele>1.75</ele><time>2026-04-05T12:06:54.999Z</time></trkpt><trkpt lat="44.41339450103899" lon="8.911753967166653"><ele>1.5</ele><time>2026-04-05T12:06:55.999Z</time></trkpt><trkpt lat="44.41347172923828" lon="8.91190411322007"><ele>1.25</ele><time>2026-04-05T12:06:56.999Z</time></trkpt><trkpt lat="44.41354010272298" lon="8.91205565595385"><ele>1.0</ele><time>2026-04-05T12:06:57.999Z</time></trkpt><trkpt lat="44.41361117097628" lon="8.912204472299516"><ele>1.0</ele><time>2026-04-05T12:06:58.999Z</time></trkpt><trkpt lat="44.4136765367466" lon="8.912357215390847"><ele>1.0</ele><time>2026-04-05T12:06:59.999Z</time></trkpt><trkpt lat="44.413747841011215" lon="8.912510639117269"><ele>1.0</ele><time>2026-04-05T12:07:00.999Z</time></trkpt><trkpt lat="44.41381992613157" lon="8.912666725249007"><ele>1.0</ele><time>2026-04-05T12:07:01.999Z</time></trkpt><trkpt lat="44.41388714417406" lon="8.912826165653279"><ele>2.0</ele><time>2026-04-05T12:07:02.999Z</time></trkpt><trkpt lat="44.41396806283968" lon="8.912989512895784"><ele>3.0</ele><time>2026-04-05T12:07:03.999Z</time></trkpt><trkpt lat="44.414038784980676" lon="8.913159133400386"><ele>4.0</ele><time>2026-04-05T12:07:04.999Z</time></trkpt><trkpt lat="44.414103428090705" lon="8.913340011199145"><ele>5.0</ele><time>2026-04-05T12:07:05.999Z</time></trkpt><trkpt lat="44.41416128885736" lon="8.913528357678544"><ele>5.0</ele><time>2026-04-05T12:07:06.999Z</time></trkpt><trkpt lat="44.4142234529431" lon="8.913722504818697"><ele>5.0</ele><time>2026-04-05T12:07:07.999Z</time></trkpt><trkpt lat="44.4142869967102" lon="8.913920828598274"><ele>5.0</ele><time>2026-04-05T12:07:08.999Z</time></trkpt><trkpt lat="44.41434896736569" lon="8.914122272916469"><ele>3.666666666666667</ele><time>2026-04-05T12:07:09.999Z</time></trkpt><trkpt lat="44.414397754519435" lon="8.914319328955669"><ele>2.3333333333333335</ele><time>2026-04-05T12:07:11Z</time></trkpt><trkpt lat="44.414430496572194" lon="8.91452163394256"><ele>1.0</ele><time>2026-04-05T12:07:12Z</time></trkpt><trkpt lat="44.414453052152545" lon="8.914733634453391"><ele>1.0</ele><time>2026-04-05T12:07:13Z</time></trkpt><trkpt lat="44.414465844448046" lon="8.914947119606436"><ele>1.0</ele><time>2026-04-05T12:07:14Z</time></trkpt><trkpt lat="44.41448129276791" lon="8.915163514090922"><ele>1.0</ele><time>2026-04-05T12:07:15Z</time></trkpt><trkpt lat="44.414499889908264" lon="8.915375757421366"><ele>1.0</ele><time>2026-04-05T12:07:16Z</time></trkpt><trkpt lat="44.41452012009687" lon="8.915580293179312"><ele>1.0</ele><time>2026-04-05T12:07:17Z</time></trkpt><trkpt lat="44.41454314608939" lon="8.91577969652671"><ele>1.0</ele><time>2026-04-05T12:07:18Z</time></trkpt><trkpt lat="44.41457007502849" lon="8.91597677393075"><ele>1.0</ele><time>2026-04-05T12:07:19Z</time></trkpt><trkpt lat="44.414602647927246" lon="8.91616964210152"><ele>1.5</ele><time>2026-04-05T12:07:20Z</time></trkpt><trkpt lat="44.41463345413448" lon="8.916361548532356"><ele>2.0</ele><time>2026-04-05T12:07:21Z</time></trkpt><trkpt lat="44.414668808304775" lon="8.916550228888468"><ele>2.5</ele><time>2026-04-05T12:07:22Z</time></trkpt><trkpt lat="44.41470200623514" lon="8.916744686091368"><ele>3.0</ele><time>2026-04-05T12:07:23Z</time></trkpt><trkpt lat="44.41474115691174" lon="8.91693546095872"><ele>4.0</ele><time>2026-04-05T12:07:24Z</time></trkpt><trkpt lat="44.41478146454111" lon="8.91713350716769"><ele>5.0</ele><time>2026-04-05T12:07:25Z</time></trkpt><trkpt lat="44.414821568778585" lon="8.917332408560831"><ele>6.0</ele><time>2026-04-05T12:07:26Z</time></trkpt><trkpt lat="44.41485943613477" lon="8.917529041732283"><ele>7.0</ele><time>2026-04-05T12:07:27Z</time></trkpt><trkpt lat="44.41489761829964" lon="8.917729169672842"><ele>7.25</ele><time>2026-04-05T12:07:28Z</time></trkpt><trkpt lat="44.41493611096692" lon="8.917920567969606"><ele>7.5</ele><time>2026-04-05T12:07:29Z</time></trkpt><trkpt lat="44.4149592008353" lon="8.918106598133804"><ele>7.75</ele><time>2026-04-05T12:07:30Z</time></trkpt><trkpt lat="44.414977468862126" lon="8.918289173797966"><ele>8.0</ele><time>2026-04-05T12:07:31Z</time></trkpt><trkpt lat="44.41500274071932" lon="8.918477689217642"><ele>7.5</ele><time>2026-04-05T12:07:32Z</time></trkpt><trkpt lat="44.4150411348556" lon="8.918669717206198"><ele>7.0</ele><time>2026-04-05T12:07:33Z</time></trkpt><trkpt lat="44.4150778931969" lon="8.918858916553551"><ele>6.5</ele><time>2026-04-05T12:07:34Z</time></trkpt><trkpt lat="44.415118394965745" lon="8.91905523579018"><ele>6.0</ele><time>2026-04-05T12:07:35Z</time></trkpt><trkpt lat="44.41516179198714" lon="8.919252446356653"><ele>6.0</ele><time>2026-04-05T12:07:36Z</time></trkpt><trkpt lat="44.41519949684411" lon="8.919451684985322"><ele>6.0</ele><time>2026-04-05T12:07:37Z</time></trkpt><trkpt lat="44.4152461577383" lon="8.91964988298535"><ele>6.0</ele><time>2026-04-05T12:07:38Z</time></trkpt><trkpt lat="44.41528643872769" lon="8.919837543446013"><ele>6.0</ele><time>2026-04-05T12:07:39Z</time></trkpt><trkpt lat="44.415324536685844" lon="8.920025134556647"><ele>7.0</ele><time>2026-04-05T12:07:40Z</time></trkpt><trkpt lat="44.4153623785793" lon="8.920206430853744"><ele>8.0</ele><time>2026-04-05T12:07:41Z</time></trkpt><trkpt lat="44.41540090275973" lon="8.920383140920539"><ele>9.0</ele><time>2026-04-05T12:07:42Z</time></trkpt><trkpt lat="44.41542885706638" lon="8.920562626881164"><ele>10.0</ele><time>2026-04-05T12:07:43Z</time></trkpt><trkpt lat="44.41544308491294" lon="8.920736480526601"><ele>9.5</ele><time>2026-04-05T12:07:44Z</time></trkpt><trkpt lat="44.41543489322811" lon="8.92091158958896"><ele>9.0</ele><time>2026-04-05T12:07:45Z</time></trkpt><trkpt lat="44.41541729119382" lon="8.921095293391579"><ele>8.5</ele><time>2026-04-05T12:07:46Z</time></trkpt><trkpt lat="44.415378864500475" lon="8.921296955979226"><ele>8.0</ele><time>2026-04-05T12:07:47Z</time></trkpt><trkpt lat="44.41534943230631" lon="8.921493397133208"><ele>8.0</ele><time>2026-04-05T12:07:48Z</time></trkpt><trkpt lat="44.41531512438496" lon="8.921692518690849"><ele>8.0</ele><time>2026-04-05T12:07:49Z</time></trkpt><trkpt lat="44.415283420216646" lon="8.921893678006223"><ele>8.0</ele><time>2026-04-05T12:07:50Z</time></trkpt><trkpt lat="44.41524436220049" lon="8.922090750250348"><ele>8.0</ele><time>2026-04-05T12:07:51Z</time></trkpt><trkpt lat="44.415202739752054" lon="8.922278964243644"><ele>7.75</ele><time>2026-04-05T12:07:52Z</time></trkpt><trkpt lat="44.41515496490918" lon="8.92247535185859"><ele>7.5</ele><time>2026-04-05T12:07:53Z</time></trkpt><trkpt lat="44.415096064860755" lon="8.922665532164075"><ele>7.25</ele><time>2026-04-05T12:07:54Z</time></trkpt><trkpt lat="44.41503341959139" lon="8.922852555557979"><ele>7.0</ele><time>2026-04-05T12:07:55Z</time></trkpt><trkpt lat="44.41496582386432" lon="8.923042522053034"><ele>8.0</ele><time>2026-04-05T12:07:56Z</time></trkpt><trkpt lat="44.41489192382622" lon="8.923229329991804"><ele>9.0</ele><time>2026-04-05T12:07:57Z</time></trkpt><trkpt lat="44.41481215452828" lon="8.923403745298678"><ele>10.0</ele><time>2026-04-05T12:07:58Z</time></trkpt><trkpt lat="44.41472125820538" lon="8.92357839548565"><ele>9.5</ele><time>2026-04-05T12:07:59Z</time></trkpt><trkpt lat="44.41463240394401" lon="8.92375089161107"><ele>9.0</ele><time>2026-04-05T12:08:00Z</time></trkpt><trkpt lat="44.414541516376424" lon="8.923917209136372"><ele>8.5</ele><time>2026-04-05T12:08:01Z</time></trkpt><trkpt lat="44.41444767748895" lon="8.924072572602167"><ele>8.0</ele><time>2026-04-05T12:08:02Z</time></trkpt><trkpt lat="44.41435307896057" lon="8.924232550114477"><ele>8.0</ele><time>2026-04-05T12:08:03Z</time></trkpt><trkpt lat="44.414265942126626" lon="8.924365372058647"><ele>8.0</ele><time>2026-04-05T12:08:04Z</time></trkpt><trkpt lat="44.41418518078802" lon="8.92450967132868"><ele>8.0</ele><time>2026-04-05T12:08:05Z</time></trkpt><trkpt lat="44.41410126764718" lon="8.924645026864257"><ele>8.0</ele><time>2026-04-05T12:08:06Z</time></trkpt><trkpt lat="44.41401755832776" lon="8.924774757274347"><ele>8.0</ele><time>2026-04-05T12:08:07Z</time></trkpt><trkpt lat="44.413934243996195" lon="8.924923737696892"><ele>8.0</ele><time>2026-04-05T12:08:08Z</time></trkpt><trkpt lat="44.413847183616376" lon="8.925056915138569"><ele>8.0</ele><time>2026-04-05T12:08:09Z</time></trkpt><trkpt lat="44.41375895460816" lon="8.925195133099056"><ele>8.0</ele><time>2026-04-05T12:08:10Z</time></trkpt><trkpt lat="44.41367226709633" lon="8.925336180266456"><ele>7.5</ele><time>2026-04-05T12:08:11Z</time></trkpt><trkpt lat="44.41358569966699" lon="8.925470327181282"><ele>7.0</ele><time>2026-04-05T12:08:12Z</time></trkpt><trkpt lat="44.41350159110064" lon="8.925603546151475"><ele>6.5</ele><time>2026-04-05T12:08:13Z</time></trkpt><trkpt lat="44.413425342930964" lon="8.925731249184759"><ele>6.0</ele><time>2026-04-05T12:08:13.999Z</time></trkpt><trkpt lat="44.41335275284137" lon="8.92584160310285"><ele>7.75</ele><time>2026-04-05T12:08:14.999Z</time></trkpt><trkpt lat="44.41328058086252" lon="8.925959429116185"><ele>9.5</ele><time>2026-04-05T12:08:15.999Z</time></trkpt><trkpt lat="44.413204937995054" lon="8.926079526053948"><ele>11.25</ele><time>2026-04-05T12:08:16.999Z</time></trkpt><trkpt lat="44.41312252253123" lon="8.926200230997647"><ele>13.0</ele><time>2026-04-05T12:08:17.999Z</time></trkpt><trkpt lat="44.413041349137416" lon="8.926329902440292"><ele>13.75</ele><time>2026-04-05T12:08:18.999Z</time></trkpt><trkpt lat="44.41295437397114" lon="8.926462593256398"><ele>14.5</ele><time>2026-04-05T12:08:19.999Z</time></trkpt><trkpt lat="44.41286028104963" lon="8.926583446484749"><ele>15.25</ele><time>2026-04-05T12:08:20.999Z</time></trkpt><trkpt lat="44.41275803846189" lon="8.926701597017717"><ele>16.0</ele><time>2026-04-05T12:08:21.999Z</time></trkpt><trkpt lat="44.41265706820322" lon="8.926820556437914"><ele>16.0</ele><time>2026-04-05T12:08:22.999Z</time></trkpt><trkpt lat="44.41256350326359" lon="8.926928307771552"><ele>16.0</ele><time>2026-04-05T12:08:23.999Z</time></trkpt><trkpt lat="44.41245717288039" lon="8.927042931621262"><ele>16.0</ele><time>2026-04-05T12:08:24.999Z</time></trkpt><trkpt lat="44.412346961307605" lon="8.92713583565579"><ele>16.0</ele><time>2026-04-05T12:08:25.999Z</time></trkpt><trkpt lat="44.41223568709923" lon="8.92722712521373"><ele>17.0</ele><time>2026-04-05T12:08:26.999Z</time></trkpt><trkpt lat="44.41213058168653" lon="8.927308244432247"><ele>18.0</ele><time>2026-04-05T12:08:27.999Z</time></trkpt><trkpt lat="44.412021037961416" lon="8.927391917655903"><ele>19.0</ele><time>2026-04-05T12:08:28.999Z</time></trkpt><trkpt lat="44.41190468788962" lon="8.927485440062355"><ele>20.0</ele><time>2026-04-05T12:08:29.999Z</time></trkpt><trkpt lat="44.411788095388225" lon="8.927575681859194"><ele>20.0</ele><time>2026-04-05T12:08:30.999Z</time></trkpt><trkpt lat="44.41167379448624" lon="8.92765770613304"><ele>20.0</ele><time>2026-04-05T12:08:31.999Z</time></trkpt><trkpt lat="44.41155986059005" lon="8.927735819036016"><ele>20.0</ele><time>2026-04-05T12:08:32.999Z</time></trkpt><trkpt lat="44.411439840302876" lon="8.927824202770132"><ele>20.0</ele><time>2026-04-05T12:08:33.999Z</time></trkpt><trkpt lat="44.41132120290332" lon="8.9279005828044"><ele>17.25</ele><time>2026-04-05T12:08:34.999Z</time></trkpt><trkpt lat="44.41119785366599" lon="8.92796318737875"><ele>14.5</ele><time>2026-04-05T12:08:35.999Z</time></trkpt><trkpt lat="44.4110769469743" lon="8.928017218597978"><ele>11.75</ele><time>2026-04-05T12:08:36.999Z</time></trkpt><trkpt lat="44.41095319449063" lon="8.928069741787274"><ele>9.0</ele><time>2026-04-05T12:08:37.999Z</time></trkpt><trkpt lat="44.41081784901214" lon="8.92811591344524"><ele>9.0</ele><time>2026-04-05T12:08:38.999Z</time></trkpt><trkpt lat="44.41067963953609" lon="8.928170108302186"><ele>9.0</ele><time>2026-04-05T12:08:39.999Z</time></trkpt><trkpt lat="44.41054443848093" lon="8.928196599727082"><ele>9.0</ele><time>2026-04-05T12:08:40.999Z</time></trkpt><trkpt lat="44.41041605052595" lon="8.928204873489204"><ele>9.0</ele><time>2026-04-05T12:08:41.999Z</time></trkpt><trkpt lat="44.41029247498668" lon="8.928206862142003"><ele>7.75</ele><time>2026-04-05T12:08:42.999Z</time></trkpt><trkpt lat="44.410166339169365" lon="8.928199676406392"><ele>6.5</ele><time>2026-04-05T12:08:43.999Z</time></trkpt><trkpt lat="44.41003918250245" lon="8.928193699077205"><ele>5.25</ele><time>2026-04-05T12:08:44.999Z</time></trkpt><trkpt lat="44.40991049039767" lon="8.928186393741147"><ele>4.0</ele><time>2026-04-05T12:08:45.999Z</time></trkpt><trkpt lat="44.40978219385769" lon="8.928183218463186"><ele>4.75</ele><time>2026-04-05T12:08:46.999Z</time></trkpt><trkpt lat="44.409652509442566" lon="8.928178973874354"><ele>5.5</ele><time>2026-04-05T12:08:47.999Z</time></trkpt><trkpt lat="44.40952681525683" lon="8.928172272535678"><ele>6.25</ele><time>2026-04-05T12:08:48.999Z</time></trkpt><trkpt lat="44.40939339484301" lon="8.928166392020344"><ele>7.0</ele><time>2026-04-05T12:08:49.999Z</time></trkpt><trkpt lat="44.4092681265961" lon="8.928156625379422"><ele>7.0</ele><time>2026-04-05T12:08:50.999Z</time></trkpt><trkpt lat="44.40914135526545" lon="8.928152137439502"><ele>7.0</ele><time>2026-04-05T12:08:51.999Z</time></trkpt><trkpt lat="44.40901545692651" lon="8.928142910925457"><ele>7.0</ele><time>2026-04-05T12:08:52.999Z</time></trkpt><trkpt lat="44.40890538260803" lon="8.928133102098508"><ele>7.0</ele><time>2026-04-05T12:08:53.999Z</time></trkpt><trkpt lat="44.408800691625366" lon="8.928133487109696"><ele>7.25</ele><time>2026-04-05T12:08:54.999Z</time></trkpt><trkpt lat="44.408685130368035" lon="8.928130002191391"><ele>7.5</ele><time>2026-04-05T12:08:55.999Z</time></trkpt><trkpt lat="44.40856475669662" lon="8.928121564249674"><ele>7.75</ele><time>2026-04-05T12:08:56.999Z</time></trkpt><trkpt lat="44.40844896309873" lon="8.928096165156054"><ele>8.0</ele><time>2026-04-05T12:08:57.999Z</time></trkpt><trkpt lat="44.40833696901265" lon="8.928035431071432"><ele>8.0</ele><time>2026-04-05T12:08:58.999Z</time></trkpt><trkpt lat="44.40822642373676" lon="8.927990162017684"><ele>8.0</ele><time>2026-04-05T12:08:59.999Z</time></trkpt><trkpt lat="44.4081200089293" lon="8.927944340108892"><ele>8.0</ele><time>2026-04-05T12:09:00.999Z</time></trkpt><trkpt lat="44.4080222541535" lon="8.927885625009987"><ele>8.0</ele><time>2026-04-05T12:09:01.999Z</time></trkpt><trkpt lat="44.4079168233865" lon="8.927830187789802"><ele>8.0</ele><time>2026-04-05T12:09:02.999Z</time></trkpt><trkpt lat="44.40781380750942" lon="8.92778866048818"><ele>8.600000000000001</ele><time>2026-04-05T12:09:03.999Z</time></trkpt><trkpt lat="44.407717405811184" lon="8.927743160712176"><ele>9.200000000000001</ele><time>2026-04-05T12:09:04.999Z</time></trkpt><trkpt lat="44.4076239536909" lon="8.92770230968352"><ele>9.8</ele><time>2026-04-05T12:09:05.999Z</time></trkpt><trkpt lat="44.407535145955016" lon="8.927659887476965"><ele>10.4</ele><time>2026-04-05T12:09:06.999Z</time></trkpt><trkpt lat="44.40744827601847" lon="8.927618528635847"><ele>11.0</ele><time>2026-04-05T12:09:07.999Z</time></trkpt><trkpt lat="44.40736380655909" lon="8.927573093019761"><ele>10.714285714285715</ele><time>2026-04-05T12:09:08.999Z</time></trkpt><trkpt lat="44.40729280769522" lon="8.927538254238387"><ele>10.428571428571429</ele><time>2026-04-05T12:09:09.999Z</time></trkpt><trkpt lat="44.407214086345604" lon="8.927505874975948"><ele>10.142857142857142</ele><time>2026-04-05T12:09:10.999Z</time></trkpt><trkpt lat="44.407146174062376" lon="8.927471434132237"><ele>9.857142857142858</ele><time>2026-04-05T12:09:11.999Z</time></trkpt><trkpt lat="44.40708574527584" lon="8.927445446825201"><ele>9.571428571428571</ele><time>2026-04-05T12:09:12.999Z</time></trkpt><trkpt lat="44.40700356796835" lon="8.927410545697722"><ele>9.285714285714286</ele><time>2026-04-05T12:09:14.999Z</time></trkpt><trkpt lat="44.40694051088281" lon="8.927391549640923"><ele>9.0</ele><time>2026-04-05T12:09:19Z</time></trkpt><trkpt lat="44.40687552372062" lon="8.927341796043876"><ele>9.0</ele><time>2026-04-05T12:09:24Z</time></trkpt><trkpt lat="44.40679136377803" lon="8.927373781591173"><ele>9.0</ele><time>2026-04-05T12:09:55Z</time></trkpt><trkpt lat="44.40671739286477" lon="8.927370478742494"><ele>9.0</ele><time>2026-04-05T12:09:57Z</time></trkpt><trkpt lat="44.406616982710354" lon="8.92737423806456"><ele>9.0</ele><time>2026-04-05T12:09:59Z</time></trkpt><trkpt lat="44.4065603532502" lon="8.927433164700542"><ele>9.0</ele><time>2026-04-05T12:10:04Z</time></trkpt><trkpt lat="44.40652898846855" lon="8.927529400767513"><ele>9.0</ele><time>2026-04-05T12:10:11Z</time></trkpt><trkpt lat="44.40639264066458" lon="8.927615172334662"><ele>11.600000000000001</ele><time>2026-04-05T12:10:17Z</time></trkpt><trkpt lat="44.40629544931639" lon="8.92765253784388"><ele>14.200000000000001</ele><time>2026-04-05T12:10:18Z</time></trkpt><trkpt lat="44.406166912016786" lon="8.927656414065137"><ele>16.8</ele><time>2026-04-05T12:10:19Z</time></trkpt><trkpt lat="44.40609827901692" lon="8.927658608287942"><ele>19.400000000000002</ele><time>2026-04-05T12:10:20Z</time></trkpt><trkpt lat="44.406034857563334" lon="8.927637713779633"><ele>22.0</ele><time>2026-04-05T12:10:21.999Z</time></trkpt><trkpt lat="44.406065221409044" lon="8.927791336770197"><ele>22.0</ele><time>2026-04-05T12:10:22.999Z</time></trkpt><trkpt lat="44.40600815857878" lon="8.927925287907398"><ele>22.0</ele><time>2026-04-05T12:10:24.999Z</time></trkpt><trkpt lat="44.40595566181588" lon="8.928011707555775"><ele>22.0</ele><time>2026-04-05T12:10:26.999Z</time></trkpt><trkpt lat="44.40584583751618" lon="8.928034108877082"><ele>22.0</ele><time>2026-04-05T12:10:28.999Z</time></trkpt><trkpt lat="44.405793592052966" lon="8.927983656684566"><ele>22.0</ele><time>2026-04-05T12:10:50.999Z</time></trkpt><trkpt lat="44.405678904539855" lon="8.928097760001451"><ele>22.0</ele><time>2026-04-05T12:10:52.999Z</time></trkpt><trkpt lat="44.40561222754723" lon="8.928132210679424"><ele>22.0</ele><time>2026-04-05T12:10:53.999Z</time></trkpt><trkpt lat="44.40554827484035" lon="8.928180246928259"><ele>22.0</ele><time>2026-04-05T12:10:54.999Z</time></trkpt><trkpt lat="44.405503109190505" lon="8.92825234453829"><ele>22.0</ele><time>2026-04-05T12:10:55.999Z</time></trkpt><trkpt lat="44.4054294260038" lon="8.928377418441704"><ele>22.0</ele><time>2026-04-05T12:10:57.999Z</time></trkpt><trkpt lat="44.40538421820842" lon="8.928450952027582"><ele>22.0</ele><time>2026-04-05T12:10:58.999Z</time></trkpt><trkpt lat="44.405296832702476" lon="8.92853074903463"><ele>22.666666666666664</ele><time>2026-04-05T12:10:59.999Z</time></trkpt><trkpt lat="44.40521920892363" lon="8.928527561489597"><ele>23.333333333333332</ele><time>2026-04-05T12:11:00.999Z</time></trkpt><trkpt lat="44.40515393599036" lon="8.928582409688639"><ele>24.0</ele><time>2026-04-05T12:11:01.999Z</time></trkpt><trkpt lat="44.40508802217304" lon="8.928625700546222"><ele>24.666666666666664</ele><time>2026-04-05T12:11:02.999Z</time></trkpt><trkpt lat="44.40500421144559" lon="8.928686198275411"><ele>25.333333333333332</ele><time>2026-04-05T12:11:03.999Z</time></trkpt><trkpt lat="44.40492125566839" lon="8.928742961753805"><ele>26.0</ele><time>2026-04-05T12:11:04.999Z</time></trkpt><trkpt lat="44.40484462049785" lon="8.928816905183606"><ele>26.0</ele><time>2026-04-05T12:11:05.999Z</time></trkpt><trkpt lat="44.404775007227265" lon="8.928895009914568"><ele>26.0</ele><time>2026-04-05T12:11:06.999Z</time></trkpt><trkpt lat="44.40464859985269" lon="8.928871861807881"><ele>26.0</ele><time>2026-04-05T12:11:07.999Z</time></trkpt><trkpt lat="44.40456436722606" lon="8.928964850161535"><ele>26.0</ele><time>2026-04-05T12:11:08.999Z</time></trkpt><trkpt lat="44.40446445238096" lon="8.929075151094315"><ele>26.4</ele><time>2026-04-05T12:11:09.999Z</time></trkpt><trkpt lat="44.40439283818737" lon="8.929154539323653"><ele>26.8</ele><time>2026-04-05T12:11:10.999Z</time></trkpt><trkpt lat="44.404320210870274" lon="8.929235356674624"><ele>27.199999999999996</ele><time>2026-04-05T12:11:11.999Z</time></trkpt><trkpt lat="44.404261824554716" lon="8.929365632543067"><ele>27.599999999999998</ele><time>2026-04-05T12:11:12.999Z</time></trkpt><trkpt lat="44.40418771801762" lon="8.929444745337936"><ele>28.0</ele><time>2026-04-05T12:11:13.999Z</time></trkpt><trkpt lat="44.40412724502846" lon="8.929523665681481"><ele>28.000000000000004</ele><time>2026-04-05T12:11:14.999Z</time></trkpt><trkpt lat="44.404057965184045" lon="8.929611437206848"><ele>28.0</ele><time>2026-04-05T12:11:15.999Z</time></trkpt><trkpt lat="44.404001147143376" lon="8.929696879115752"><ele>28.0</ele><time>2026-04-05T12:11:16.999Z</time></trkpt><trkpt lat="44.403912924995076" lon="8.929708314115244"><ele>28.0</ele><time>2026-04-05T12:11:19.999Z</time></trkpt><trkpt lat="44.40385919083776" lon="8.929771209728717"><ele>28.000000000000004</ele><time>2026-04-05T12:11:24Z</time></trkpt><trkpt lat="44.40389993374077" lon="8.92991622349628"><ele>28.0</ele><time>2026-04-05T12:11:26Z</time></trkpt><trkpt lat="44.40402824975419" lon="8.92971446901025"><ele>28.0</ele><time>2026-04-05T12:11:32Z</time></trkpt><trkpt lat="44.404088079635684" lon="8.929632157061182"><ele>27.999999999999996</ele><time>2026-04-05T12:11:33Z</time></trkpt><trkpt lat="44.404166318903115" lon="8.929554166099981"><ele>27.999999999999996</ele><time>2026-04-05T12:11:34Z</time></trkpt><trkpt lat="44.40426242882858" lon="8.929466456692348"><ele>28.0</ele><time>2026-04-05T12:11:35Z</time></trkpt><trkpt lat="44.40435705542906" lon="8.929368812619641"><ele>28.0</ele><time>2026-04-05T12:11:36Z</time></trkpt><trkpt lat="44.404477819340364" lon="8.929216721811336"><ele>27.333333333333336</ele><time>2026-04-05T12:11:37Z</time></trkpt><trkpt lat="44.40461459484687" lon="8.929046200245383"><ele>26.666666666666664</ele><time>2026-04-05T12:11:38Z</time></trkpt><trkpt lat="44.40473167441694" lon="8.928916419944366"><ele>26.0</ele><time>2026-04-05T12:11:39Z</time></trkpt><trkpt lat="44.404834173934596" lon="8.928816328497582"><ele>26.0</ele><time>2026-04-05T12:11:40Z</time></trkpt><trkpt lat="44.40492468223325" lon="8.928705675623908"><ele>26.0</ele><time>2026-04-05T12:11:41Z</time></trkpt><trkpt lat="44.40499054526259" lon="8.928600951562228"><ele>26.0</ele><time>2026-04-05T12:11:42Z</time></trkpt><trkpt lat="44.40505736022174" lon="8.928528270702756"><ele>26.0</ele><time>2026-04-05T12:11:43Z</time></trkpt><trkpt lat="44.405107784189184" lon="8.92847118668552"><ele>26.0</ele><time>2026-04-05T12:11:44Z</time></trkpt><trkpt lat="44.40520611193184" lon="8.928380915411621"><ele>25.0</ele><time>2026-04-05T12:11:46Z</time></trkpt><trkpt lat="44.4052853243361" lon="8.928296628312422"><ele>24.0</ele><time>2026-04-05T12:11:48Z</time></trkpt><trkpt lat="44.405339007332344" lon="8.928222383166114"><ele>23.0</ele><time>2026-04-05T12:11:51Z</time></trkpt><trkpt lat="44.40544920099592" lon="8.92804501768783"><ele>22.0</ele><time>2026-04-05T12:12:35.999Z</time></trkpt><trkpt lat="44.40553561035507" lon="8.927951190505784"><ele>22.0</ele><time>2026-04-05T12:12:36.999Z</time></trkpt><trkpt lat="44.40564118455261" lon="8.927856747110434"><ele>22.0</ele><time>2026-04-05T12:12:37.999Z</time></trkpt><trkpt lat="44.40573520563264" lon="8.927775698906068"><ele>22.0</ele><time>2026-04-05T12:12:38.999Z</time></trkpt><trkpt lat="44.405837788732974" lon="8.927717764542543"><ele>22.0</ele><time>2026-04-05T12:12:39.999Z</time></trkpt><trkpt lat="44.40594436468024" lon="8.927680043333844"><ele>22.0</ele><time>2026-04-05T12:12:40.999Z</time></trkpt><trkpt lat="44.40604261072847" lon="8.927635249441831"><ele>22.0</ele><time>2026-04-05T12:12:41.999Z</time></trkpt><trkpt lat="44.40612799720461" lon="8.927508840039192"><ele>22.0</ele><time>2026-04-05T12:12:42.999Z</time></trkpt><trkpt lat="44.40622052367819" lon="8.927457381174525"><ele>22.0</ele><time>2026-04-05T12:12:43.999Z</time></trkpt><trkpt lat="44.406312989500876" lon="8.927394566190996"><ele>22.0</ele><time>2026-04-05T12:12:44.999Z</time></trkpt><trkpt lat="44.40639853313821" lon="8.92731657787755"><ele>21.25</ele><time>2026-04-05T12:12:45.999Z</time></trkpt><trkpt lat="44.40652145884091" lon="8.927479289724111"><ele>20.5</ele><time>2026-04-05T12:12:46.999Z</time></trkpt><trkpt lat="44.40662073901977" lon="8.927577083800013"><ele>19.75</ele><time>2026-04-05T12:12:47.999Z</time></trkpt><trkpt lat="44.406745798541564" lon="8.927621398497182"><ele>19.0</ele><time>2026-04-05T12:12:48.999Z</time></trkpt><trkpt lat="44.40687550404814" lon="8.927815329734948"><ele>19.0</ele><time>2026-04-05T12:12:49.999Z</time></trkpt><trkpt lat="44.4069376837751" lon="8.927887574345734"><ele>19.0</ele><time>2026-04-05T12:12:50.999Z</time></trkpt><trkpt lat="44.40698515161825" lon="8.927963077902442"><ele>19.0</ele><time>2026-04-05T12:12:51.999Z</time></trkpt><trkpt lat="44.407080324869" lon="8.928005333449793"><ele>19.0</ele><time>2026-04-05T12:12:57.999Z</time></trkpt><trkpt lat="44.40713165382645" lon="8.928063315633803"><ele>19.0</ele><time>2026-04-05T12:12:59.999Z</time></trkpt><trkpt lat="44.40721013921786" lon="8.928126936011777"><ele>19.0</ele><time>2026-04-05T12:13:02.999Z</time></trkpt><trkpt lat="44.40728496100124" lon="8.928153321168836"><ele>20.0</ele><time>2026-04-05T12:13:06.999Z</time></trkpt><trkpt lat="44.407347785256235" lon="8.928187696293438"><ele>21.0</ele><time>2026-04-05T12:13:08.999Z</time></trkpt><trkpt lat="44.4073934529911" lon="8.928249245579128"><ele>22.0</ele><time>2026-04-05T12:13:11.999Z</time></trkpt><trkpt lat="44.40745614783124" lon="8.928302455198962"><ele>23.0</ele><time>2026-04-05T12:13:14.999Z</time></trkpt><trkpt lat="44.40752208537907" lon="8.928343037832047"><ele>24.0</ele><time>2026-04-05T12:13:17.999Z</time></trkpt><trkpt lat="44.40758322388315" lon="8.928378183417605"><ele>25.0</ele><time>2026-04-05T12:13:21.999Z</time></trkpt><trkpt lat="44.40764381404204" lon="8.928436969668004"><ele>26.0</ele><time>2026-04-05T12:13:40Z</time></trkpt><trkpt lat="44.407700245041354" lon="8.928487503808151"><ele>25.999999999999996</ele><time>2026-04-05T12:13:42Z</time></trkpt><trkpt lat="44.40777461653511" lon="8.928537513085356"><ele>26.0</ele><time>2026-04-05T12:13:44Z</time></trkpt><trkpt lat="44.40783924896823" lon="8.928591834602688"><ele>26.0</ele><time>2026-04-05T12:13:47Z</time></trkpt><trkpt lat="44.40795067110946" lon="8.928636818621857"><ele>26.0</ele><time>2026-04-05T12:14:11Z</time></trkpt><trkpt lat="44.4080123664269" lon="8.92869717555775"><ele>25.999999999999996</ele><time>2026-04-05T12:14:18Z</time></trkpt><trkpt lat="44.40806357484117" lon="8.92874847851407"><ele>26.0</ele><time>2026-04-05T12:14:22Z</time></trkpt><trkpt lat="44.40811422332026" lon="8.928801579569232"><ele>24.8</ele><time>2026-04-05T12:14:27Z</time></trkpt><trkpt lat="44.40823049631649" lon="8.928816369907274"><ele>23.6</ele><time>2026-04-05T12:14:46.999Z</time></trkpt><trkpt lat="44.40826271274117" lon="8.92872368112615"><ele>22.4</ele><time>2026-04-05T12:14:49.999Z</time></trkpt><trkpt lat="44.408306972741876" lon="8.928637674304145"><ele>21.2</ele><time>2026-04-05T12:14:51.999Z</time></trkpt><trkpt lat="44.40832604677612" lon="8.928470833834423"><ele>20.0</ele><time>2026-04-05T12:14:58.999Z</time></trkpt><trkpt lat="44.40833936051312" lon="8.928377546396915"><ele>20.0</ele><time>2026-04-05T12:15:00.999Z</time></trkpt><trkpt lat="44.40832685405984" lon="8.928268904928611"><ele>20.0</ele><time>2026-04-05T12:15:03.999Z</time></trkpt><trkpt lat="44.408260150457195" lon="8.928276309706"><ele>20.0</ele><time>2026-04-05T12:15:10.999Z</time></trkpt><trkpt lat="44.408226039799445" lon="8.928405611159404"><ele>20.0</ele><time>2026-04-05T12:15:13.999Z</time></trkpt><trkpt lat="44.40829586185667" lon="8.928386410968944"><ele>20.0</ele><time>2026-04-05T12:17:28.999Z</time></trkpt><trkpt lat="44.40835646429842" lon="8.928347212380023"><ele>20.0</ele><time>2026-04-05T12:17:33.999Z</time></trkpt><trkpt lat="44.40846893504541" lon="8.928328528083423"><ele>17.0</ele><time>2026-04-05T12:17:44Z</time></trkpt><trkpt lat="44.40853278431908" lon="8.928321919907392"><ele>14.0</ele><time>2026-04-05T12:17:52Z</time></trkpt><trkpt lat="44.40869167196154" lon="8.928322474692099"><ele>11.0</ele><time>2026-04-05T12:18:09Z</time></trkpt><trkpt lat="44.40888764390857" lon="8.92831894063712"><ele>8.0</ele><time>2026-04-05T12:18:28Z</time></trkpt><trkpt lat="44.40900725492562" lon="8.928281291482477"><ele>7.833333333333333</ele><time>2026-04-05T12:18:46.999Z</time></trkpt><trkpt lat="44.40912904409212" lon="8.928259367697711"><ele>7.666666666666666</ele><time>2026-04-05T12:18:59.999Z</time></trkpt><trkpt lat="44.409192636599684" lon="8.928266158479785"><ele>7.5</ele><time>2026-04-05T12:19:04.999Z</time></trkpt><trkpt lat="44.40927855367055" lon="8.928289133046434"><ele>7.333333333333334</ele><time>2026-04-05T12:19:08.999Z</time></trkpt><trkpt lat="44.409355078492204" lon="8.928339375213946"><ele>7.166666666666667</ele><time>2026-04-05T12:19:20.999Z</time></trkpt><trkpt lat="44.409416072299976" lon="8.928386803696027"><ele>7.0</ele><time>2026-04-05T12:19:25.999Z</time></trkpt><trkpt lat="44.409505019382244" lon="8.928383097139744"><ele>7.000000000000001</ele><time>2026-04-05T12:19:31.999Z</time></trkpt><trkpt lat="44.40958733990455" lon="8.928338655061449"><ele>7.0</ele><time>2026-04-05T12:19:48Z</time></trkpt><trkpt lat="44.40968054685007" lon="8.928327419696174"><ele>7.0</ele><time>2026-04-05T12:19:57Z</time></trkpt><trkpt lat="44.40977136451334" lon="8.928324839835312"><ele>7.0</ele><time>2026-04-05T12:20:05Z</time></trkpt><trkpt lat="44.40986020022826" lon="8.928303217181755"><ele>7.000000000000001</ele><time>2026-04-05T12:20:12Z</time></trkpt><trkpt lat="44.409943193939355" lon="8.92832230990069"><ele>7.0</ele><time>2026-04-05T12:20:21Z</time></trkpt><trkpt lat="44.40999892462977" lon="8.928395245706312"><ele>6.500000000000001</ele><time>2026-04-05T12:20:30Z</time></trkpt><trkpt lat="44.410054951604096" lon="8.928441929522716"><ele>6.0</ele><time>2026-04-05T12:20:36Z</time></trkpt><trkpt lat="44.41013820422496" lon="8.928432543909052"><ele>5.5</ele><time>2026-04-05T12:20:44Z</time></trkpt><trkpt lat="44.41025133583153" lon="8.928387690362268"><ele>5.0</ele><time>2026-04-05T12:20:57.999Z</time></trkpt><trkpt lat="44.410259785721514" lon="8.928299813302008"><ele>4.5</ele><time>2026-04-05T12:21:01.999Z</time></trkpt><trkpt lat="44.41032180086103" lon="8.928345411823363"><ele>4.0</ele><time>2026-04-05T12:21:07.999Z</time></trkpt><trkpt lat="44.41040371677833" lon="8.928391114686058"><ele>6.5</ele><time>2026-04-05T12:21:15.999Z</time></trkpt><trkpt lat="44.41045190245125" lon="8.928462389402076"><ele>9.0</ele><time>2026-04-05T12:21:23.999Z</time></trkpt><trkpt lat="44.410483047486046" lon="8.928549043140187"><ele>11.5</ele><time>2026-04-05T12:21:31.999Z</time></trkpt><trkpt lat="44.41055186943518" lon="8.928621663512335"><ele>14.0</ele><time>2026-04-05T12:21:41.999Z</time></trkpt><trkpt lat="44.41060337849003" lon="8.928686271421105"><ele>16.5</ele><time>2026-04-05T12:21:53Z</time></trkpt><trkpt lat="44.4106644740376" lon="8.92873303252955"><ele>19.0</ele><time>2026-04-05T12:21:58Z</time></trkpt><trkpt lat="44.41074308706064" lon="8.928824059598947"><ele>20.5</ele><time>2026-04-05T12:22:11Z</time></trkpt><trkpt lat="44.410857697265904" lon="8.928752446330327"><ele>22.0</ele><time>2026-04-05T12:22:38Z</time></trkpt><trkpt lat="44.410942952524785" lon="8.92877144202453"><ele>23.5</ele><time>2026-04-05T12:22:48Z</time></trkpt><trkpt lat="44.411118038587816" lon="8.928690480274106"><ele>25.0</ele><time>2026-04-05T12:23:07.999Z</time></trkpt><trkpt lat="44.411178295254196" lon="8.928567165000043"><ele>25.0</ele><time>2026-04-05T12:23:17.999Z</time></trkpt><trkpt lat="44.41122531077648" lon="8.928507319042321"><ele>25.0</ele><time>2026-04-05T12:23:26.999Z</time></trkpt><trkpt lat="44.4113893423157" lon="8.9285216858259"><ele>25.0</ele><time>2026-04-05T12:23:53.999Z</time></trkpt><trkpt lat="44.41145432056454" lon="8.928424547438658"><ele>25.0</ele><time>2026-04-05T12:24:04Z</time></trkpt><trkpt lat="44.41152963772438" lon="8.928363850554877"><ele>25.0</ele><time>2026-04-05T12:24:14Z</time></trkpt><trkpt lat="44.411548418526145" lon="8.928270622793569"><ele>24.166666666666668</ele><time>2026-04-05T12:24:20Z</time></trkpt><trkpt lat="44.41163251914674" lon="8.928239798678442"><ele>23.333333333333336</ele><time>2026-04-05T12:24:24Z</time></trkpt><trkpt lat="44.41159240664884" lon="8.928097778511951"><ele>22.5</ele><time>2026-04-05T12:24:30Z</time></trkpt><trkpt lat="44.411644648724845" lon="8.928044355701338"><ele>21.666666666666668</ele><time>2026-04-05T12:24:35Z</time></trkpt><trkpt lat="44.411707279692905" lon="8.928030204280525"><ele>20.833333333333336</ele><time>2026-04-05T12:24:38Z</time></trkpt><trkpt lat="44.41172714627726" lon="8.927933033086978"><ele>20.0</ele><time>2026-04-05T12:24:46Z</time></trkpt><trkpt lat="44.41179761027392" lon="8.927903619553078"><ele>20.0</ele><time>2026-04-05T12:24:53Z</time></trkpt><trkpt lat="44.41186220172961" lon="8.92785231948134"><ele>20.0</ele><time>2026-04-05T12:24:59.999Z</time></trkpt><trkpt lat="44.4119271022964" lon="8.927832421525684"><ele>20.0</ele><time>2026-04-05T12:25:05.999Z</time></trkpt><trkpt lat="44.411961755878345" lon="8.927758030403195"><ele>20.0</ele><time>2026-04-05T12:25:09.999Z</time></trkpt><trkpt lat="44.41202200879616" lon="8.927726866943974"><ele>20.0</ele><time>2026-04-05T12:25:16.999Z</time></trkpt><trkpt lat="44.41208691405112" lon="8.927696842676063"><ele>20.0</ele><time>2026-04-05T12:25:23.999Z</time></trkpt><trkpt lat="44.4121548983884" lon="8.927666571846139"><ele>20.0</ele><time>2026-04-05T12:25:29.999Z</time></trkpt><trkpt lat="44.41221044508034" lon="8.927613841100374"><ele>19.428571428571427</ele><time>2026-04-05T12:25:35.999Z</time></trkpt><trkpt lat="44.41227257097749" lon="8.927567851993176"><ele>18.857142857142858</ele><time>2026-04-05T12:25:45.999Z</time></trkpt><trkpt lat="44.412334624604675" lon="8.927523036034996"><ele>18.285714285714285</ele><time>2026-04-05T12:25:50.999Z</time></trkpt><trkpt lat="44.41238312048075" lon="8.92745565798518"><ele>17.714285714285715</ele><time>2026-04-05T12:25:56.999Z</time></trkpt><trkpt lat="44.41244560455167" lon="8.927398507374281"><ele>17.142857142857142</ele><time>2026-04-05T12:26:04Z</time></trkpt><trkpt lat="44.412505200363185" lon="8.92736188711973"><ele>16.57142857142857</ele><time>2026-04-05T12:26:10Z</time></trkpt><trkpt lat="44.412573550604755" lon="8.927313157929222"><ele>16.0</ele><time>2026-04-05T12:26:16Z</time></trkpt><trkpt lat="44.41262392982003" lon="8.927259294221095"><ele>16.0</ele><time>2026-04-05T12:26:22Z</time></trkpt><trkpt lat="44.412671522243635" lon="8.927198736384586"><ele>15.999999999999998</ele><time>2026-04-05T12:26:27Z</time></trkpt><trkpt lat="44.41273293942065" lon="8.927148131080308"><ele>16.0</ele><time>2026-04-05T12:26:34Z</time></trkpt><trkpt lat="44.41278544894286" lon="8.927082143674165"><ele>16.0</ele><time>2026-04-05T12:26:40Z</time></trkpt><trkpt lat="44.41285179398101" lon="8.927059110086663"><ele>15.999999999999998</ele><time>2026-04-05T12:26:45Z</time></trkpt><trkpt lat="44.41288688226164" lon="8.926984662281203"><ele>16.0</ele><time>2026-04-05T12:27:15.999Z</time></trkpt><trkpt lat="44.4129324113619" lon="8.926913543383115"><ele>16.0</ele><time>2026-04-05T12:27:21.999Z</time></trkpt><trkpt lat="44.41296732179936" lon="8.926838690671014"><ele>16.428571428571427</ele><time>2026-04-05T12:27:25.999Z</time></trkpt><trkpt lat="44.41302745160158" lon="8.926804099698716"><ele>16.857142857142854</ele><time>2026-04-05T12:27:29.999Z</time></trkpt><trkpt lat="44.4130775240574" lon="8.926742830580567"><ele>17.285714285714285</ele><time>2026-04-05T12:27:34.999Z</time></trkpt><trkpt lat="44.41313482553334" lon="8.926690761823025"><ele>17.714285714285715</ele><time>2026-04-05T12:27:40.999Z</time></trkpt><trkpt lat="44.41319113248678" lon="8.926625502994998"><ele>18.142857142857146</ele><time>2026-04-05T12:27:45.999Z</time></trkpt><trkpt lat="44.413224851630154" lon="8.926536171662887"><ele>18.57142857142857</ele><time>2026-04-05T12:27:50.999Z</time></trkpt><trkpt lat="44.41326437436302" lon="8.926460046117766"><ele>19.0</ele><time>2026-04-05T12:27:55.999Z</time></trkpt><trkpt lat="44.41330080627602" lon="8.926379122949202"><ele>18.142857142857142</ele><time>2026-04-05T12:28:00.999Z</time></trkpt><trkpt lat="44.4133510736261" lon="8.926313786713532"><ele>17.28571428571429</ele><time>2026-04-05T12:28:06.999Z</time></trkpt><trkpt lat="44.413402779398396" lon="8.926249058288589"><ele>16.42857142857143</ele><time>2026-04-05T12:28:14Z</time></trkpt><trkpt lat="44.41344745222661" lon="8.92617801357193"><ele>15.571428571428571</ele><time>2026-04-05T12:28:21Z</time></trkpt><trkpt lat="44.41348520975354" lon="8.92610187574571"><ele>14.714285714285715</ele><time>2026-04-05T12:28:26Z</time></trkpt><trkpt lat="44.413534986305706" lon="8.926036865296027"><ele>13.857142857142858</ele><time>2026-04-05T12:28:32Z</time></trkpt><trkpt lat="44.413585926025235" lon="8.925977423230728"><ele>13.0</ele><time>2026-04-05T12:28:38Z</time></trkpt><trkpt lat="44.41363655058153" lon="8.925907808698236"><ele>13.285714285714285</ele><time>2026-04-05T12:28:44Z</time></trkpt><trkpt lat="44.41369043237533" lon="8.925840206837918"><ele>13.571428571428573</ele><time>2026-04-05T12:28:50Z</time></trkpt><trkpt lat="44.41374848027862" lon="8.925775862773293"><ele>13.857142857142858</ele><time>2026-04-05T12:28:57Z</time></trkpt><trkpt lat="44.41379661276343" lon="8.92570788177934"><ele>14.142857142857142</ele><time>2026-04-05T12:29:02Z</time></trkpt><trkpt lat="44.41383458716723" lon="8.925629256204775"><ele>14.428571428571427</ele><time>2026-04-05T12:29:07Z</time></trkpt><trkpt lat="44.41387588199509" lon="8.925549463915708"><ele>14.714285714285715</ele><time>2026-04-05T12:29:12Z</time></trkpt><trkpt lat="44.41392784144471" lon="8.9254769080116"><ele>15.0</ele><time>2026-04-05T12:29:17.999Z</time></trkpt><trkpt lat="44.41398033296936" lon="8.925405429409746"><ele>15.0</ele><time>2026-04-05T12:29:23.999Z</time></trkpt><trkpt lat="44.41399436256174" lon="8.925298870144093"><ele>15.0</ele><time>2026-04-05T12:29:27.999Z</time></trkpt><trkpt lat="44.41403233341651" lon="8.925211731296091"><ele>15.0</ele><time>2026-04-05T12:29:34.999Z</time></trkpt><trkpt lat="44.414079212021704" lon="8.925141166428883"><ele>15.0</ele><time>2026-04-05T12:29:41.999Z</time></trkpt><trkpt lat="44.41411856820783" lon="8.925062962627871"><ele>15.0</ele><time>2026-04-05T12:29:47.999Z</time></trkpt><trkpt lat="44.41415359079131" lon="8.924975099667828"><ele>15.0</ele><time>2026-04-05T12:29:52.999Z</time></trkpt><trkpt lat="44.414204715354316" lon="8.924917180650324"><ele>15.0</ele><time>2026-04-05T12:29:57.999Z</time></trkpt><trkpt lat="44.41425891309959" lon="8.924849644852484"><ele>14.0</ele><time>2026-04-05T12:30:03.999Z</time></trkpt><trkpt lat="44.41430009021395" lon="8.92477710744586"><ele>13.0</ele><time>2026-04-05T12:30:08.999Z</time></trkpt><trkpt lat="44.414319006249706" lon="8.924690985914136"><ele>12.0</ele><time>2026-04-05T12:30:13.999Z</time></trkpt><trkpt lat="44.41437119315314" lon="8.92462445524197"><ele>11.0</ele><time>2026-04-05T12:30:20Z</time></trkpt><trkpt lat="44.41442439095466" lon="8.924569511303133"><ele>10.0</ele><time>2026-04-05T12:30:26Z</time></trkpt><trkpt lat="44.41446211502818" lon="8.924496617151709"><ele>9.0</ele><time>2026-04-05T12:30:31Z</time></trkpt><trkpt lat="44.41450928046163" lon="8.924433055233429"><ele>8.0</ele><time>2026-04-05T12:30:36Z</time></trkpt><trkpt lat="44.414555845230666" lon="8.924370676289511"><ele>8.0</ele><time>2026-04-05T12:30:41Z</time></trkpt><trkpt lat="44.41460088349192" lon="8.924284615007107"><ele>8.0</ele><time>2026-04-05T12:30:47Z</time></trkpt><trkpt lat="44.41465299387314" lon="8.924234380500817"><ele>8.0</ele><time>2026-04-05T12:30:53Z</time></trkpt><trkpt lat="44.414829206694534" lon="8.924241894864407"><ele>8.0</ele><time>2026-04-05T12:31:29.017Z</time></trkpt><trkpt lat="44.41449939466955" lon="8.92444745670862"><ele>8.0</ele><time>2026-04-05T12:32:01.145Z</time></trkpt><trkpt lat="44.41412817583798" lon="8.924612161214084"><ele>8.0</ele><time>2026-04-05T12:32:11.541Z</time></trkpt><trkpt lat="44.41466405630012" lon="8.924187239631694"><ele>17.0</ele><time>2026-04-05T12:32:21.601Z</time></trkpt></trkseg><trkseg><trkpt lat="44.408088237773775" lon="8.928628181888294"><ele>20.0</ele><time>2026-04-05T13:43:32Z</time></trkpt><trkpt lat="44.40819311407326" lon="8.928664889409458"><ele>20.0</ele><time>2026-04-05T13:44:40Z</time></trkpt><trkpt lat="44.408308083427954" lon="8.928531316067044"><ele>20.0</ele><time>2026-04-05T13:44:50Z</time></trkpt><trkpt lat="44.4082559394718" lon="8.928643691757536"><ele>20.0</ele><time>2026-04-05T13:44:57Z</time></trkpt><trkpt lat="44.40814779319111" lon="8.928956293919791"><ele>20.0</ele><time>2026-04-05T13:44:59Z</time></trkpt><trkpt lat="44.408038644079866" lon="8.929045387840535"><ele>20.0</ele><time>2026-04-05T13:45:00Z</time></trkpt><trkpt lat="44.407969860753234" lon="8.929144973181481"><ele>20.0</ele><time>2026-04-05T13:45:01Z</time></trkpt><trkpt lat="44.407898876657505" lon="8.929335971810257"><ele>20.0</ele><time>2026-04-05T13:45:03Z</time></trkpt><trkpt lat="44.40785202138954" lon="8.929441986001079"><ele>21.2</ele><time>2026-04-05T13:45:06Z</time></trkpt><trkpt lat="44.40780061886519" lon="8.929583966437992"><ele>22.4</ele><time>2026-04-05T13:45:08Z</time></trkpt><trkpt lat="44.407766489990074" lon="8.929675457907335"><ele>23.6</ele><time>2026-04-05T13:45:10Z</time></trkpt><trkpt lat="44.40781979054662" lon="8.92953257362787"><ele>24.8</ele><time>2026-04-05T13:45:18Z</time></trkpt><trkpt lat="44.407859648319416" lon="8.9293887514021"><ele>26.0</ele><time>2026-04-05T13:45:20Z</time></trkpt><trkpt lat="44.40758287637744" lon="8.928824763039952"><ele>26.0</ele><time>2026-04-05T13:45:21Z</time></trkpt><trkpt lat="44.40766499796633" lon="8.928691828206095"><ele>26.0</ele><time>2026-04-05T13:45:22Z</time></trkpt><trkpt lat="44.40771460094268" lon="8.928575521474231"><ele>26.0</ele><time>2026-04-05T13:45:23Z</time></trkpt><trkpt lat="44.406965053681894" lon="8.927531288945048"><ele>22.5</ele><time>2026-04-05T13:45:24Z</time></trkpt><trkpt lat="44.40707166566346" lon="8.928113126382561"><ele>19.0</ele><time>2026-04-05T13:45:27Z</time></trkpt><trkpt lat="44.40704905323629" lon="8.928023511251686"><ele>19.0</ele><time>2026-04-05T13:45:28Z</time></trkpt><trkpt lat="44.40699636137567" lon="8.927891898459986"><ele>19.0</ele><time>2026-04-05T13:45:29Z</time></trkpt><trkpt lat="44.406956457037346" lon="8.927771321004485"><ele>19.0</ele><time>2026-04-05T13:45:30Z</time></trkpt><trkpt lat="44.40693056702724" lon="8.927675379419547"><ele>19.0</ele><time>2026-04-05T13:45:31Z</time></trkpt><trkpt lat="44.406925617465035" lon="8.927578686049584"><ele>19.0</ele><time>2026-04-05T13:45:32Z</time></trkpt><trkpt lat="44.40687935751818" lon="8.927497761611974"><ele>19.0</ele><time>2026-04-05T13:45:34Z</time></trkpt><trkpt lat="44.406994039152245" lon="8.927351087757481"><ele>17.0</ele><time>2026-04-05T13:45:44Z</time></trkpt><trkpt lat="44.40693915385693" lon="8.927252249533614"><ele>14.999999999999998</ele><time>2026-04-05T13:46:09.999Z</time></trkpt><trkpt lat="44.40685183706062" lon="8.927220186079147"><ele>13.0</ele><time>2026-04-05T13:46:22.999Z</time></trkpt><trkpt lat="44.40677775668379" lon="8.927341820011522"><ele>11.0</ele><time>2026-04-05T13:46:41Z</time></trkpt><trkpt lat="44.40670319803811" lon="8.927426033243615"><ele>9.0</ele><time>2026-04-05T13:46:48Z</time></trkpt><trkpt lat="44.40660838237941" lon="8.927522787219107"><ele>9.0</ele><time>2026-04-05T13:46:50Z</time></trkpt><trkpt lat="44.40654701527785" lon="8.9275619781048"><ele>9.0</ele><time>2026-04-05T13:46:51Z</time></trkpt><trkpt lat="44.406457444239464" lon="8.927525264226206"><ele>9.0</ele><time>2026-04-05T13:46:53Z</time></trkpt><trkpt lat="44.406384832730254" lon="8.927442967421388"><ele>9.0</ele><time>2026-04-05T13:46:54Z</time></trkpt><trkpt lat="44.40627511349935" lon="8.927461480281872"><ele>9.0</ele><time>2026-04-05T13:46:56Z</time></trkpt><trkpt lat="44.40619839425682" lon="8.927475258909526"><ele>9.0</ele><time>2026-04-05T13:46:58Z</time></trkpt><trkpt lat="44.40611263470882" lon="8.927490661145967"><ele>9.166666666666666</ele><time>2026-04-05T13:47:00Z</time></trkpt><trkpt lat="44.40604007461641" lon="8.927460392498306"><ele>9.333333333333334</ele><time>2026-04-05T13:47:06Z</time></trkpt><trkpt lat="44.40598905615702" lon="8.92740297234473"><ele>9.5</ele><time>2026-04-05T13:47:07Z</time></trkpt><trkpt lat="44.4059638483877" lon="8.927503681352919"><ele>9.666666666666668</ele><time>2026-04-05T13:47:10Z</time></trkpt><trkpt lat="44.40585017108955" lon="8.92741592439748"><ele>9.833333333333334</ele><time>2026-04-05T13:47:11Z</time></trkpt><trkpt lat="44.40579478694954" lon="8.927463981719622"><ele>10.0</ele><time>2026-04-05T13:47:12Z</time></trkpt><trkpt lat="44.40573322853055" lon="8.92754381886478"><ele>12.4</ele><time>2026-04-05T13:47:13Z</time></trkpt><trkpt lat="44.405687466889994" lon="8.92768544411167"><ele>14.8</ele><time>2026-04-05T13:47:14Z</time></trkpt><trkpt lat="44.40560748237243" lon="8.927646775007092"><ele>17.200000000000003</ele><time>2026-04-05T13:47:15Z</time></trkpt><trkpt lat="44.405585656868496" lon="8.92775905680183"><ele>19.6</ele><time>2026-04-05T13:47:16Z</time></trkpt><trkpt lat="44.405549431128435" lon="8.927907903664893"><ele>22.0</ele><time>2026-04-05T13:47:17Z</time></trkpt><trkpt lat="44.40556510284802" lon="8.92806099868588"><ele>18.666666666666664</ele><time>2026-04-05T13:47:20Z</time></trkpt><trkpt lat="44.40541297078704" lon="8.928026669448032"><ele>15.333333333333332</ele><time>2026-04-05T13:47:55Z</time></trkpt><trkpt lat="44.40544888281811" lon="8.928331391977373"><ele>12.0</ele><time>2026-04-05T13:47:57Z</time></trkpt><trkpt lat="44.4053728073951" lon="8.928336053003951"><ele>12.0</ele><time>2026-04-05T13:47:58Z</time></trkpt><trkpt lat="44.405236024581995" lon="8.928354345991668"><ele>12.0</ele><time>2026-04-05T13:47:58.999Z</time></trkpt><trkpt lat="44.40509588123371" lon="8.928452979225376"><ele>12.0</ele><time>2026-04-05T13:47:59.999Z</time></trkpt><trkpt lat="44.404854709752165" lon="8.928589315568315"><ele>12.0</ele><time>2026-04-05T13:48:00.999Z</time></trkpt><trkpt lat="44.40473392409908" lon="8.928715198504465"><ele>12.0</ele><time>2026-04-05T13:48:01.999Z</time></trkpt><trkpt lat="44.40462675209985" lon="8.928859637069626"><ele>12.0</ele><time>2026-04-05T13:48:02.999Z</time></trkpt><trkpt lat="44.40452149271607" lon="8.9290121816354"><ele>12.0</ele><time>2026-04-05T13:48:03.999Z</time></trkpt><trkpt lat="44.40440680462614" lon="8.929103374984463"><ele>12.0</ele><time>2026-04-05T13:48:04.999Z</time></trkpt><trkpt lat="44.404355942043296" lon="8.929178429460025"><ele>12.0</ele><time>2026-04-05T13:48:05.999Z</time></trkpt><trkpt lat="44.40426015836282" lon="8.929300104476738"><ele>12.0</ele><time>2026-04-05T13:48:07.999Z</time></trkpt><trkpt lat="44.4041828447545" lon="8.92941349120927"><ele>12.0</ele><time>2026-04-05T13:48:09.999Z</time></trkpt><trkpt lat="44.40412080898086" lon="8.929521388630713"><ele>11.6</ele><time>2026-04-05T13:48:11.999Z</time></trkpt><trkpt lat="44.404061117262685" lon="8.929620556160055"><ele>11.2</ele><time>2026-04-05T13:48:14.999Z</time></trkpt><trkpt lat="44.40401593021456" lon="8.929701047719332"><ele>10.8</ele><time>2026-04-05T13:48:19.999Z</time></trkpt><trkpt lat="44.40389420390837" lon="8.929730227125894"><ele>10.4</ele><time>2026-04-05T13:48:21.999Z</time></trkpt><trkpt lat="44.40381151905901" lon="8.92982700942681"><ele>10.0</ele><time>2026-04-05T13:48:23.999Z</time></trkpt><trkpt lat="44.403712982949116" lon="8.929931503985266"><ele>10.0</ele><time>2026-04-05T13:48:25.999Z</time></trkpt><trkpt lat="44.40365828657265" lon="8.929989809930653"><ele>10.0</ele><time>2026-04-05T13:48:26.999Z</time></trkpt><trkpt lat="44.40360145884679" lon="8.930050386071509"><ele>10.0</ele><time>2026-04-05T13:48:27.999Z</time></trkpt><trkpt lat="44.40353131952057" lon="8.930129091669059"><ele>10.0</ele><time>2026-04-05T13:48:28.999Z</time></trkpt><trkpt lat="44.40345979194838" lon="8.93020938235425"><ele>10.0</ele><time>2026-04-05T13:48:29.999Z</time></trkpt><trkpt lat="44.403383747932864" lon="8.93029504115852"><ele>10.0</ele><time>2026-04-05T13:48:30.999Z</time></trkpt><trkpt lat="44.4032902400053" lon="8.930397486165344"><ele>9.8</ele><time>2026-04-05T13:48:31.999Z</time></trkpt><trkpt lat="44.40321397506835" lon="8.930478208802777"><ele>9.6</ele><time>2026-04-05T13:48:32.999Z</time></trkpt><trkpt lat="44.40313546421295" lon="8.930560966227016"><ele>9.4</ele><time>2026-04-05T13:48:33.999Z</time></trkpt><trkpt lat="44.40306005143053" lon="8.930649305679323"><ele>9.2</ele><time>2026-04-05T13:48:34.999Z</time></trkpt><trkpt lat="44.40297946522944" lon="8.930738434206853"><ele>9.0</ele><time>2026-04-05T13:48:35.999Z</time></trkpt><trkpt lat="44.402900873749765" lon="8.930821113968847"><ele>10.0</ele><time>2026-04-05T13:48:36.999Z</time></trkpt><trkpt lat="44.402818254146574" lon="8.930910031194086"><ele>11.0</ele><time>2026-04-05T13:48:37.999Z</time></trkpt><trkpt lat="44.40273009417749" lon="8.930992224690652"><ele>11.999999999999998</ele><time>2026-04-05T13:48:38.999Z</time></trkpt><trkpt lat="44.40264931401831" lon="8.931053755362457"><ele>13.0</ele><time>2026-04-05T13:48:39.999Z</time></trkpt><trkpt lat="44.40255921743743" lon="8.931129781633253"><ele>14.0</ele><time>2026-04-05T13:48:40.999Z</time></trkpt><trkpt lat="44.40246541224153" lon="8.931197582221628"><ele>14.0</ele><time>2026-04-05T13:48:41.999Z</time></trkpt><trkpt lat="44.40237154144646" lon="8.93126440996693"><ele>14.0</ele><time>2026-04-05T13:48:42.999Z</time></trkpt><trkpt lat="44.40228223732205" lon="8.931323580961251"><ele>14.0</ele><time>2026-04-05T13:48:43.999Z</time></trkpt><trkpt lat="44.402170304122464" lon="8.931399752968032"><ele>14.0</ele><time>2026-04-05T13:48:44.999Z</time></trkpt><trkpt lat="44.40205474459366" lon="8.931468686097991"><ele>15.75</ele><time>2026-04-05T13:48:46Z</time></trkpt><trkpt lat="44.40193098258151" lon="8.931550047168644"><ele>17.5</ele><time>2026-04-05T13:48:47Z</time></trkpt><trkpt lat="44.40180290546226" lon="8.931643125150034"><ele>19.25</ele><time>2026-04-05T13:48:48Z</time></trkpt><trkpt lat="44.4016873235373" lon="8.931721013132826"><ele>21.0</ele><time>2026-04-05T13:48:49Z</time></trkpt><trkpt lat="44.40159623786711" lon="8.931786073671802"><ele>22.5</ele><time>2026-04-05T13:48:50Z</time></trkpt><trkpt lat="44.40152118221252" lon="8.931841730545651"><ele>24.0</ele><time>2026-04-05T13:48:51Z</time></trkpt><trkpt lat="44.40144873952385" lon="8.931880162082335"><ele>25.5</ele><time>2026-04-05T13:48:52Z</time></trkpt><trkpt lat="44.40137210534697" lon="8.931934951996356"><ele>27.0</ele><time>2026-04-05T13:48:53Z</time></trkpt><trkpt lat="44.40131048407211" lon="8.931976491993828"><ele>28.5</ele><time>2026-04-05T13:48:54Z</time></trkpt><trkpt lat="44.401246308883835" lon="8.932014929896418"><ele>30.0</ele><time>2026-04-05T13:48:55Z</time></trkpt><trkpt lat="44.40116049830897" lon="8.932079232122549"><ele>30.0</ele><time>2026-04-05T13:48:57Z</time></trkpt><trkpt lat="44.40103890752337" lon="8.932145678017147"><ele>30.0</ele><time>2026-04-05T13:49:26Z</time></trkpt><trkpt lat="44.40098104997283" lon="8.932186078230615"><ele>30.0</ele><time>2026-04-05T13:49:27Z</time></trkpt><trkpt lat="44.40091280041031" lon="8.93223150092783"><ele>30.0</ele><time>2026-04-05T13:49:28Z</time></trkpt><trkpt lat="44.4008428230654" lon="8.932279125058281"><ele>30.0</ele><time>2026-04-05T13:49:29Z</time></trkpt><trkpt lat="44.40076744192853" lon="8.932333197020203"><ele>30.0</ele><time>2026-04-05T13:49:30Z</time></trkpt><trkpt lat="44.400673912195955" lon="8.932410752682522"><ele>30.0</ele><time>2026-04-05T13:49:31Z</time></trkpt><trkpt lat="44.40058887511526" lon="8.932498598969971"><ele>30.0</ele><time>2026-04-05T13:49:32Z</time></trkpt><trkpt lat="44.40051646249984" lon="8.93261670423083"><ele>30.0</ele><time>2026-04-05T13:49:33Z</time></trkpt><trkpt lat="44.400432853592385" lon="8.932724846592766"><ele>30.0</ele><time>2026-04-05T13:49:34Z</time></trkpt><trkpt lat="44.40034504998755" lon="8.932812199457437"><ele>30.0</ele><time>2026-04-05T13:49:35Z</time></trkpt><trkpt lat="44.400272334207244" lon="8.932900003246859"><ele>28.8</ele><time>2026-04-05T13:49:36Z</time></trkpt><trkpt lat="44.40020048071215" lon="8.932977068100127"><ele>27.6</ele><time>2026-04-05T13:49:37Z</time></trkpt><trkpt lat="44.400119432197194" lon="8.933054110563688"><ele>26.4</ele><time>2026-04-05T13:49:38Z</time></trkpt><trkpt lat="44.40003645635476" lon="8.933120817863696"><ele>25.2</ele><time>2026-04-05T13:49:39Z</time></trkpt><trkpt lat="44.39994793688897" lon="8.933192090699691"><ele>24.0</ele><time>2026-04-05T13:49:40Z</time></trkpt><trkpt lat="44.3998472151325" lon="8.933261465246773"><ele>24.0</ele><time>2026-04-05T13:49:41Z</time></trkpt><trkpt lat="44.3997507447801" lon="8.933338846231376"><ele>24.0</ele><time>2026-04-05T13:49:42Z</time></trkpt><trkpt lat="44.3996471574788" lon="8.93341489757505"><ele>24.0</ele><time>2026-04-05T13:49:43Z</time></trkpt><trkpt lat="44.3995584998717" lon="8.933487954863198"><ele>24.0</ele><time>2026-04-05T13:49:44Z</time></trkpt><trkpt lat="44.39946511501441" lon="8.93355997036937"><ele>24.0</ele><time>2026-04-05T13:49:45Z</time></trkpt><trkpt lat="44.399358014764246" lon="8.933645705595676"><ele>23.6</ele><time>2026-04-05T13:49:46Z</time></trkpt><trkpt lat="44.39925294393622" lon="8.933735014563688"><ele>23.2</ele><time>2026-04-05T13:49:47Z</time></trkpt><trkpt lat="44.399157563330995" lon="8.9338269552267"><ele>22.8</ele><time>2026-04-05T13:49:48Z</time></trkpt><trkpt lat="44.39908459074167" lon="8.933899912494715"><ele>22.400000000000002</ele><time>2026-04-05T13:49:49Z</time></trkpt><trkpt lat="44.3990178285649" lon="8.933994622958506"><ele>22.0</ele><time>2026-04-05T13:49:50Z</time></trkpt><trkpt lat="44.39896979182758" lon="8.934101379406822"><ele>25.0</ele><time>2026-04-05T13:49:51Z</time></trkpt><trkpt lat="44.39891939462643" lon="8.934224588524225"><ele>28.0</ele><time>2026-04-05T13:49:52Z</time></trkpt><trkpt lat="44.39886557072148" lon="8.934370444590524"><ele>31.0</ele><time>2026-04-05T13:49:53Z</time></trkpt><trkpt lat="44.39881855559242" lon="8.934527659180192"><ele>34.0</ele><time>2026-04-05T13:49:54Z</time></trkpt><trkpt lat="44.398770431451666" lon="8.934676566416304"><ele>31.4</ele><time>2026-04-05T13:49:55Z</time></trkpt><trkpt lat="44.39871025711838" lon="8.934807742290477"><ele>28.799999999999997</ele><time>2026-04-05T13:49:56Z</time></trkpt><trkpt lat="44.39867113457255" lon="8.934919429598926"><ele>26.200000000000003</ele><time>2026-04-05T13:49:57Z</time></trkpt><trkpt lat="44.398629388138" lon="8.935038093810256"><ele>23.6</ele><time>2026-04-05T13:49:58Z</time></trkpt><trkpt lat="44.39858971340791" lon="8.935145723955765"><ele>21.0</ele><time>2026-04-05T13:49:59Z</time></trkpt><trkpt lat="44.398539323230764" lon="8.935267806526033"><ele>21.0</ele><time>2026-04-05T13:50:00Z</time></trkpt><trkpt lat="44.39849847085234" lon="8.935394487475682"><ele>21.0</ele><time>2026-04-05T13:50:01Z</time></trkpt><trkpt lat="44.398468839842295" lon="8.9354943101225"><ele>21.0</ele><time>2026-04-05T13:50:02Z</time></trkpt><trkpt lat="44.398440986451845" lon="8.935580629053566"><ele>21.0</ele><time>2026-04-05T13:50:03Z</time></trkpt><trkpt lat="44.39839907378962" lon="8.935690763279197"><ele>21.0</ele><time>2026-04-05T13:50:04.999Z</time></trkpt><trkpt lat="44.39834331277943" lon="8.93583511795455"><ele>24.75</ele><time>2026-04-05T13:50:06.999Z</time></trkpt><trkpt lat="44.398304609897465" lon="8.935954773391554"><ele>28.5</ele><time>2026-04-05T13:50:07.999Z</time></trkpt><trkpt lat="44.398262623156775" lon="8.936107329139498"><ele>32.25</ele><time>2026-04-05T13:50:08.999Z</time></trkpt><trkpt lat="44.39817898265046" lon="8.936301891883048"><ele>36.0</ele><time>2026-04-05T13:50:09.999Z</time></trkpt><trkpt lat="44.39809602441067" lon="8.936527058419795"><ele>37.25</ele><time>2026-04-05T13:50:10.999Z</time></trkpt><trkpt lat="44.39803043197756" lon="8.93673912172805"><ele>38.5</ele><time>2026-04-05T13:50:11.999Z</time></trkpt><trkpt lat="44.397987662475906" lon="8.936933793500787"><ele>39.75</ele><time>2026-04-05T13:50:12.999Z</time></trkpt><trkpt lat="44.397973068175084" lon="8.937124949505765"><ele>41.0</ele><time>2026-04-05T13:50:13.999Z</time></trkpt><trkpt lat="44.39793367835091" lon="8.93728700739697"><ele>35.0</ele><time>2026-04-05T13:50:14.999Z</time></trkpt><trkpt lat="44.39790989296314" lon="8.937455387117561"><ele>29.0</ele><time>2026-04-05T13:50:15.999Z</time></trkpt><trkpt lat="44.39788835370792" lon="8.937607980665847"><ele>23.0</ele><time>2026-04-05T13:50:16.999Z</time></trkpt><trkpt lat="44.397865206984854" lon="8.937771962400683"><ele>17.0</ele><time>2026-04-05T13:50:17.999Z</time></trkpt><trkpt lat="44.39785889450105" lon="8.937930208634837"><ele>16.6</ele><time>2026-04-05T13:50:18.999Z</time></trkpt><trkpt lat="44.39783268145568" lon="8.938060528820586"><ele>16.2</ele><time>2026-04-05T13:50:19.999Z</time></trkpt><trkpt lat="44.39781509608267" lon="8.93819177931434"><ele>15.8</ele><time>2026-04-05T13:50:20.999Z</time></trkpt><trkpt lat="44.39779498195563" lon="8.938346792753727"><ele>15.4</ele><time>2026-04-05T13:50:21.999Z</time></trkpt><trkpt lat="44.39777616503581" lon="8.938506396224478"><ele>15.0</ele><time>2026-04-05T13:50:22.999Z</time></trkpt><trkpt lat="44.39774127231187" lon="8.938678725784753"><ele>15.0</ele><time>2026-04-05T13:50:23.999Z</time></trkpt><trkpt lat="44.397714524977" lon="8.938856833543843"><ele>15.0</ele><time>2026-04-05T13:50:24.999Z</time></trkpt><trkpt lat="44.39769177559405" lon="8.939035674297543"><ele>15.0</ele><time>2026-04-05T13:50:25.999Z</time></trkpt><trkpt lat="44.397666425776244" lon="8.939209786021566"><ele>15.0</ele><time>2026-04-05T13:50:26.999Z</time></trkpt><trkpt lat="44.39764448296578" lon="8.939361995285758"><ele>16.0</ele><time>2026-04-05T13:50:27.999Z</time></trkpt><trkpt lat="44.39761641685911" lon="8.939515064489436"><ele>17.0</ele><time>2026-04-05T13:50:28.999Z</time></trkpt><trkpt lat="44.397570360529464" lon="8.939676467645358"><ele>18.0</ele><time>2026-04-05T13:50:29.999Z</time></trkpt><trkpt lat="44.39751665028954" lon="8.939825924161376"><ele>19.0</ele><time>2026-04-05T13:50:30.999Z</time></trkpt><trkpt lat="44.39742516718612" lon="8.9399825101041"><ele>17.75</ele><time>2026-04-05T13:50:31.999Z</time></trkpt><trkpt lat="44.3973411659474" lon="8.940132799138068"><ele>16.5</ele><time>2026-04-05T13:50:32.999Z</time></trkpt><trkpt lat="44.39725819237612" lon="8.94027625872691"><ele>15.25</ele><time>2026-04-05T13:50:33.999Z</time></trkpt><trkpt lat="44.397175379366146" lon="8.94044576985082"><ele>14.0</ele><time>2026-04-05T13:50:34.999Z</time></trkpt><trkpt lat="44.39711176703456" lon="8.940605029650587"><ele>14.0</ele><time>2026-04-05T13:50:35.999Z</time></trkpt><trkpt lat="44.397063160277604" lon="8.940739521319134"><ele>14.0</ele><time>2026-04-05T13:50:36.999Z</time></trkpt><trkpt lat="44.39701034102313" lon="8.940904177187045"><ele>14.0</ele><time>2026-04-05T13:50:37.999Z</time></trkpt><trkpt lat="44.39696665605001" lon="8.941080274991284"><ele>14.0</ele><time>2026-04-05T13:50:38.999Z</time></trkpt><trkpt lat="44.396942280523646" lon="8.941256916712993"><ele>14.399999999999999</ele><time>2026-04-05T13:50:39.999Z</time></trkpt><trkpt lat="44.3969034853257" lon="8.941427857034396"><ele>14.799999999999999</ele><time>2026-04-05T13:50:40.999Z</time></trkpt><trkpt lat="44.39685402171937" lon="8.941587388932048"><ele>15.200000000000001</ele><time>2026-04-05T13:50:41.999Z</time></trkpt><trkpt lat="44.39682379886711" lon="8.941724512690733"><ele>15.600000000000001</ele><time>2026-04-05T13:50:42.999Z</time></trkpt><trkpt lat="44.396799958715626" lon="8.94185250581247"><ele>16.0</ele><time>2026-04-05T13:50:43.999Z</time></trkpt><trkpt lat="44.39679127976282" lon="8.94196798037721"><ele>14.999999999999998</ele><time>2026-04-05T13:50:44.999Z</time></trkpt><trkpt lat="44.396800442030575" lon="8.942088500051883"><ele>14.0</ele><time>2026-04-05T13:50:45.999Z</time></trkpt><trkpt lat="44.39683333939254" lon="8.942209871646172"><ele>13.0</ele><time>2026-04-05T13:50:46.999Z</time></trkpt><trkpt lat="44.39687436056125" lon="8.942325342674875"><ele>12.0</ele><time>2026-04-05T13:50:47.999Z</time></trkpt><trkpt lat="44.39692735756195" lon="8.942415741011189"><ele>11.0</ele><time>2026-04-05T13:50:48.999Z</time></trkpt><trkpt lat="44.396977920101115" lon="8.942482038926412"><ele>10.0</ele><time>2026-04-05T13:50:49.999Z</time></trkpt><trkpt lat="44.397027690045824" lon="8.942590176882733"><ele>9.6</ele><time>2026-04-05T13:50:52Z</time></trkpt><trkpt lat="44.3970740184716" lon="8.942683959387226"><ele>9.2</ele><time>2026-04-05T13:50:55Z</time></trkpt><trkpt lat="44.39712681183039" lon="8.94278015962997"><ele>8.8</ele><time>2026-04-05T13:51:05Z</time></trkpt><trkpt lat="44.397212373835444" lon="8.942933896055182"><ele>8.4</ele><time>2026-04-05T13:51:07Z</time></trkpt><trkpt lat="44.3972684836214" lon="8.943031082223259"><ele>8.0</ele><time>2026-04-05T13:51:08Z</time></trkpt><trkpt lat="44.39733344722375" lon="8.943118649504292"><ele>9.0</ele><time>2026-04-05T13:51:09Z</time></trkpt><trkpt lat="44.397403960905756" lon="8.943194744256498"><ele>10.0</ele><time>2026-04-05T13:51:10Z</time></trkpt><trkpt lat="44.39749024473522" lon="8.943268000407741"><ele>11.0</ele><time>2026-04-05T13:51:11Z</time></trkpt><trkpt lat="44.3976095142676" lon="8.943337471908244"><ele>12.0</ele><time>2026-04-05T13:51:12Z</time></trkpt><trkpt lat="44.39775269775386" lon="8.943419769531111"><ele>12.0</ele><time>2026-04-05T13:51:13Z</time></trkpt><trkpt lat="44.39789623224986" lon="8.943502268816848"><ele>12.0</ele><time>2026-04-05T13:51:14Z</time></trkpt><trkpt lat="44.39805581045652" lon="8.943570120058249"><ele>12.0</ele><time>2026-04-05T13:51:15Z</time></trkpt><trkpt lat="44.39819411330738" lon="8.943667805206697"><ele>12.25</ele><time>2026-04-05T13:51:16Z</time></trkpt><trkpt lat="44.39832261973084" lon="8.943745684805565"><ele>12.5</ele><time>2026-04-05T13:51:17Z</time></trkpt><trkpt lat="44.39844588444326" lon="8.94382220018334"><ele>12.75</ele><time>2026-04-05T13:51:18Z</time></trkpt><trkpt lat="44.398568052649324" lon="8.943888714249852"><ele>13.0</ele><time>2026-04-05T13:51:19Z</time></trkpt><trkpt lat="44.398701252459084" lon="8.943958589496104"><ele>13.0</ele><time>2026-04-05T13:51:20Z</time></trkpt><trkpt lat="44.398820246370285" lon="8.94402606948683"><ele>13.0</ele><time>2026-04-05T13:51:21Z</time></trkpt><trkpt lat="44.39891714821721" lon="8.944100844801769"><ele>13.0</ele><time>2026-04-05T13:51:22Z</time></trkpt><trkpt lat="44.399030187582326" lon="8.944148960976495"><ele>13.0</ele><time>2026-04-05T13:51:23Z</time></trkpt><trkpt lat="44.39911607736627" lon="8.944214902247433"><ele>12.8</ele><time>2026-04-05T13:51:24Z</time></trkpt><trkpt lat="44.39920574862838" lon="8.944267165520962"><ele>12.600000000000001</ele><time>2026-04-05T13:51:25Z</time></trkpt><trkpt lat="44.39929643494362" lon="8.944322290860345"><ele>12.399999999999999</ele><time>2026-04-05T13:51:26Z</time></trkpt><trkpt lat="44.39939088053074" lon="8.944378030361873"><ele>12.2</ele><time>2026-04-05T13:51:27Z</time></trkpt><trkpt lat="44.399490088055245" lon="8.944432154819342"><ele>12.0</ele><time>2026-04-05T13:51:28Z</time></trkpt><trkpt lat="44.39957707812287" lon="8.94447371146292"><ele>12.0</ele><time>2026-04-05T13:51:29Z</time></trkpt><trkpt lat="44.39965331326295" lon="8.94451791676948"><ele>12.0</ele><time>2026-04-05T13:51:30Z</time></trkpt><trkpt lat="44.39970488492236" lon="8.944579673681543"><ele>12.0</ele><time>2026-04-05T13:51:31Z</time></trkpt><trkpt lat="44.39977855430246" lon="8.944622518427389"><ele>12.0</ele><time>2026-04-05T13:51:32Z</time></trkpt><trkpt lat="44.39984657103991" lon="8.944662325244591"><ele>12.0</ele><time>2026-04-05T13:51:33Z</time></trkpt><trkpt lat="44.399907265585504" lon="8.94469416489475"><ele>12.0</ele><time>2026-04-05T13:51:34Z</time></trkpt><trkpt lat="44.40000850820947" lon="8.944761066801735"><ele>11.833333333333334</ele><time>2026-04-05T13:51:36Z</time></trkpt><trkpt lat="44.40010007187086" lon="8.944806342010901"><ele>11.666666666666666</ele><time>2026-04-05T13:51:38Z</time></trkpt><trkpt lat="44.40016405433736" lon="8.944848338023338"><ele>11.5</ele><time>2026-04-05T13:51:41Z</time></trkpt><trkpt lat="44.40022783519812" lon="8.944923144249081"><ele>11.333333333333332</ele><time>2026-04-05T13:52:41.999Z</time></trkpt><trkpt lat="44.400281686866705" lon="8.94500417455625"><ele>11.166666666666666</ele><time>2026-04-05T13:52:42.999Z</time></trkpt><trkpt lat="44.40034306271693" lon="8.945093409100783"><ele>11.0</ele><time>2026-04-05T13:52:43.999Z</time></trkpt><trkpt lat="44.400376765537125" lon="8.945197629160678"><ele>11.0</ele><time>2026-04-05T13:52:44.999Z</time></trkpt><trkpt lat="44.40038713191325" lon="8.945312440887365"><ele>11.0</ele><time>2026-04-05T13:52:45.999Z</time></trkpt><trkpt lat="44.4003734641891" lon="8.94540841925855"><ele>11.0</ele><time>2026-04-05T13:52:46.999Z</time></trkpt><trkpt lat="44.40039858141947" lon="8.94554451408485"><ele>11.0</ele><time>2026-04-05T13:52:48.999Z</time></trkpt><trkpt lat="44.40049388073712" lon="8.945660738554452"><ele>11.0</ele><time>2026-04-05T13:52:50.999Z</time></trkpt><trkpt lat="44.40057005114621" lon="8.945667128837052"><ele>11.0</ele><time>2026-04-05T13:52:51.999Z</time></trkpt><trkpt lat="44.400647853240436" lon="8.945702361176513"><ele>11.0</ele><time>2026-04-05T13:52:52.999Z</time></trkpt><trkpt lat="44.40072162554516" lon="8.945724986129916"><ele>11.0</ele><time>2026-04-05T13:52:54.999Z</time></trkpt><trkpt lat="44.4008527155279" lon="8.945806012924564"><ele>11.0</ele><time>2026-04-05T13:53:15Z</time></trkpt><trkpt lat="44.40096357261806" lon="8.945853646138485"><ele>11.0</ele><time>2026-04-05T13:53:16Z</time></trkpt><trkpt lat="44.40104880145813" lon="8.945924767384769"><ele>11.0</ele><time>2026-04-05T13:53:17Z</time></trkpt><trkpt lat="44.401183903960444" lon="8.94598024033475"><ele>11.0</ele><time>2026-04-05T13:53:18Z</time></trkpt><trkpt lat="44.4012988315773" lon="8.946043784150415"><ele>11.0</ele><time>2026-04-05T13:53:19Z</time></trkpt><trkpt lat="44.40142888277791" lon="8.946120900843159"><ele>11.0</ele><time>2026-04-05T13:53:20Z</time></trkpt><trkpt lat="44.401611965470025" lon="8.9462160096644"><ele>11.666666666666666</ele><time>2026-04-05T13:53:21Z</time></trkpt><trkpt lat="44.40180227911291" lon="8.946273683370729"><ele>12.333333333333332</ele><time>2026-04-05T13:53:22Z</time></trkpt><trkpt lat="44.40201833271347" lon="8.946406219970168"><ele>13.0</ele><time>2026-04-05T13:53:23Z</time></trkpt><trkpt lat="44.40226584092766" lon="8.946519775970733"><ele>13.0</ele><time>2026-04-05T13:53:24Z</time></trkpt><trkpt lat="44.402525745066264" lon="8.946631227615304"><ele>13.0</ele><time>2026-04-05T13:53:25Z</time></trkpt><trkpt lat="44.402736183261894" lon="8.946726816172964"><ele>13.0</ele><time>2026-04-05T13:53:26Z</time></trkpt><trkpt lat="44.40293507376622" lon="8.946807638036537"><ele>13.0</ele><time>2026-04-05T13:53:27Z</time></trkpt><trkpt lat="44.403113817590715" lon="8.946875763581447"><ele>13.0</ele><time>2026-04-05T13:53:28Z</time></trkpt><trkpt lat="44.403296710184115" lon="8.946935344183283"><ele>12.666666666666666</ele><time>2026-04-05T13:53:29Z</time></trkpt><trkpt lat="44.40344224992957" lon="8.946997870219876"><ele>12.333333333333332</ele><time>2026-04-05T13:53:30Z</time></trkpt><trkpt lat="44.40362261377478" lon="8.947096862226928"><ele>12.0</ele><time>2026-04-05T13:53:31Z</time></trkpt><trkpt lat="44.40376583163892" lon="8.947168667081401"><ele>12.666666666666668</ele><time>2026-04-05T13:53:32Z</time></trkpt><trkpt lat="44.403903701685906" lon="8.947238126387637"><ele>13.333333333333334</ele><time>2026-04-05T13:53:33Z</time></trkpt><trkpt lat="44.404094706298714" lon="8.94733195087026"><ele>14.0</ele><time>2026-04-05T13:53:34Z</time></trkpt><trkpt lat="44.40427439559962" lon="8.947418200372189"><ele>14.0</ele><time>2026-04-05T13:53:35Z</time></trkpt><trkpt lat="44.40443728666554" lon="8.947497748191557"><ele>14.0</ele><time>2026-04-05T13:53:36Z</time></trkpt><trkpt lat="44.40457937600419" lon="8.947567137451863"><ele>14.0</ele><time>2026-04-05T13:53:37Z</time></trkpt><trkpt lat="44.40472875858944" lon="8.947601142055596"><ele>13.333333333333334</ele><time>2026-04-05T13:53:38Z</time></trkpt><trkpt lat="44.40483312342235" lon="8.947661506846924"><ele>12.666666666666668</ele><time>2026-04-05T13:53:39Z</time></trkpt><trkpt lat="44.404902763568856" lon="8.947707205859729"><ele>12.0</ele><time>2026-04-05T13:53:40Z</time></trkpt><trkpt lat="44.40497074215022" lon="8.947741080802576"><ele>11.333333333333334</ele><time>2026-04-05T13:53:41Z</time></trkpt><trkpt lat="44.40504853209485" lon="8.9477830452714"><ele>10.666666666666668</ele><time>2026-04-05T13:53:43Z</time></trkpt><trkpt lat="44.405116216621295" lon="8.947776614104251"><ele>10.0</ele><time>2026-04-05T13:53:52Z</time></trkpt><trkpt lat="44.405325877468144" lon="8.947924199935876"><ele>10.0</ele><time>2026-04-05T13:54:47.999Z</time></trkpt><trkpt lat="44.40546736339461" lon="8.947955843716812"><ele>10.0</ele><time>2026-04-05T13:54:48.999Z</time></trkpt><trkpt lat="44.40559076472112" lon="8.947982432501355"><ele>10.0</ele><time>2026-04-05T13:54:49.999Z</time></trkpt><trkpt lat="44.40569408289413" lon="8.947978519084225"><ele>10.0</ele><time>2026-04-05T13:54:50.999Z</time></trkpt><trkpt lat="44.40578846259176" lon="8.947970816551015"><ele>9.8</ele><time>2026-04-05T13:54:51.999Z</time></trkpt><trkpt lat="44.40587362075475" lon="8.947977484974272"><ele>9.6</ele><time>2026-04-05T13:54:52.999Z</time></trkpt><trkpt lat="44.40595987335547" lon="8.948004243574033"><ele>9.4</ele><time>2026-04-05T13:54:53.999Z</time></trkpt><trkpt lat="44.406057385013874" lon="8.94804777408786"><ele>9.2</ele><time>2026-04-05T13:54:54.999Z</time></trkpt><trkpt lat="44.4061201349991" lon="8.948147319367147"><ele>9.0</ele><time>2026-04-05T13:54:55.999Z</time></trkpt><trkpt lat="44.40621174889863" lon="8.94824442106674"><ele>9.0</ele><time>2026-04-05T13:54:56.999Z</time></trkpt><trkpt lat="44.40630094644866" lon="8.948351554934773"><ele>9.0</ele><time>2026-04-05T13:54:57.999Z</time></trkpt><trkpt lat="44.40638261738523" lon="8.948443082515148"><ele>9.0</ele><time>2026-04-05T13:54:59.015Z</time></trkpt><trkpt lat="44.40647409993822" lon="8.948537721455418"><ele>9.0</ele><time>2026-04-05T13:55:00.015Z</time></trkpt><trkpt lat="44.406541924263536" lon="8.94866852755842"><ele>10.0</ele><time>2026-04-05T13:55:01.012Z</time></trkpt><trkpt lat="44.40659204167093" lon="8.94872931217985"><ele>11.0</ele><time>2026-04-05T13:55:02.015Z</time></trkpt><trkpt lat="44.40664171964802" lon="8.948785751622118"><ele>12.0</ele><time>2026-04-05T13:55:03.016Z</time></trkpt><trkpt lat="44.407059894916046" lon="8.949211668231477"><ele>11.666666666666666</ele><time>2026-04-05T13:55:04.999Z</time></trkpt><trkpt lat="44.407178568710606" lon="8.94931793088364"><ele>11.333333333333332</ele><time>2026-04-05T13:55:05.999Z</time></trkpt><trkpt lat="44.40732338524989" lon="8.949536570800085"><ele>11.0</ele><time>2026-04-05T13:55:06.999Z</time></trkpt><trkpt lat="44.40762080440709" lon="8.949654546981952"><ele>11.0</ele><time>2026-04-05T13:55:07.999Z</time></trkpt><trkpt lat="44.407865392869944" lon="8.949850790629505"><ele>11.0</ele><time>2026-04-05T13:55:08.999Z</time></trkpt><trkpt lat="44.40800754642156" lon="8.949974562502502"><ele>11.0</ele><time>2026-04-05T13:55:10Z</time></trkpt><trkpt lat="44.408126373530756" lon="8.95008363495442"><ele>11.0</ele><time>2026-04-05T13:55:11Z</time></trkpt><trkpt lat="44.40815872090625" lon="8.95018416901442"><ele>11.0</ele><time>2026-04-05T13:55:12Z</time></trkpt><trkpt lat="44.40824495634386" lon="8.95026526060368"><ele>11.0</ele><time>2026-04-05T13:55:13Z</time></trkpt><trkpt lat="44.408320155982054" lon="8.950318365773553"><ele>11.0</ele><time>2026-04-05T13:55:14Z</time></trkpt><trkpt lat="44.40839222855607" lon="8.950368667104296"><ele>11.0</ele><time>2026-04-05T13:55:15Z</time></trkpt><trkpt lat="44.408445631393256" lon="8.950419595529306"><ele>11.0</ele><time>2026-04-05T13:55:16Z</time></trkpt><trkpt lat="44.408512936564726" lon="8.950511129464223"><ele>11.0</ele><time>2026-04-05T13:55:18Z</time></trkpt><trkpt lat="44.40855823939721" lon="8.950632332209477"><ele>11.0</ele><time>2026-04-05T13:55:45Z</time></trkpt><trkpt lat="44.408602605266935" lon="8.950726024507832"><ele>11.0</ele><time>2026-04-05T13:55:46Z</time></trkpt><trkpt lat="44.40865412935688" lon="8.950841704156595"><ele>11.0</ele><time>2026-04-05T13:55:47Z</time></trkpt><trkpt lat="44.408698693643075" lon="8.95098296244771"><ele>11.0</ele><time>2026-04-05T13:55:48Z</time></trkpt><trkpt lat="44.4087679725162" lon="8.951115825364226"><ele>11.666666666666666</ele><time>2026-04-05T13:55:49Z</time></trkpt><trkpt lat="44.40886795603728" lon="8.951263423149197"><ele>12.333333333333332</ele><time>2026-04-05T13:55:50Z</time></trkpt><trkpt lat="44.4090052524687" lon="8.951429506645544"><ele>13.0</ele><time>2026-04-05T13:55:51Z</time></trkpt><trkpt lat="44.40914684238946" lon="8.95157130641816"><ele>13.0</ele><time>2026-04-05T13:55:52Z</time></trkpt><trkpt lat="44.40927363517529" lon="8.951700905974665"><ele>13.0</ele><time>2026-04-05T13:55:53Z</time></trkpt><trkpt lat="44.409394576269065" lon="8.951815454028178"><ele>13.0</ele><time>2026-04-05T13:55:54Z</time></trkpt><trkpt lat="44.409504122828054" lon="8.951934642192507"><ele>13.0</ele><time>2026-04-05T13:55:55Z</time></trkpt><trkpt lat="44.40960380695437" lon="8.952036899571047"><ele>12.25</ele><time>2026-04-05T13:55:56Z</time></trkpt><trkpt lat="44.409702992787416" lon="8.952122620614036"><ele>11.5</ele><time>2026-04-05T13:55:57Z</time></trkpt><trkpt lat="44.409799114470175" lon="8.952195187667296"><ele>10.75</ele><time>2026-04-05T13:55:58Z</time></trkpt><trkpt lat="44.40991437470754" lon="8.952267926672349"><ele>10.0</ele><time>2026-04-05T13:55:59Z</time></trkpt><trkpt lat="44.4100132597732" lon="8.952351085081489"><ele>10.0</ele><time>2026-04-05T13:56:00Z</time></trkpt><trkpt lat="44.41012227884827" lon="8.952428627219335"><ele>10.0</ele><time>2026-04-05T13:56:01Z</time></trkpt><trkpt lat="44.410230251206556" lon="8.952502097043412"><ele>10.0</ele><time>2026-04-05T13:56:02Z</time></trkpt><trkpt lat="44.41032713989361" lon="8.952582545622732"><ele>10.0</ele><time>2026-04-05T13:56:03Z</time></trkpt><trkpt lat="44.41043192948722" lon="8.952655220204836"><ele>9.75</ele><time>2026-04-05T13:56:04Z</time></trkpt><trkpt lat="44.41055170519192" lon="8.95270472510745"><ele>9.5</ele><time>2026-04-05T13:56:05Z</time></trkpt><trkpt lat="44.41069678319751" lon="8.952723663838492"><ele>9.25</ele><time>2026-04-05T13:56:06Z</time></trkpt><trkpt lat="44.41081619621585" lon="8.952763681675988"><ele>9.0</ele><time>2026-04-05T13:56:07Z</time></trkpt><trkpt lat="44.41096188760398" lon="8.952816015909363"><ele>9.0</ele><time>2026-04-05T13:56:08Z</time></trkpt><trkpt lat="44.41109680942516" lon="8.952861963669326"><ele>9.0</ele><time>2026-04-05T13:56:09Z</time></trkpt><trkpt lat="44.4112264343461" lon="8.952917196129507"><ele>9.0</ele><time>2026-04-05T13:56:10Z</time></trkpt><trkpt lat="44.411383046204556" lon="8.95295127830119"><ele>9.0</ele><time>2026-04-05T13:56:11Z</time></trkpt><trkpt lat="44.41152352549766" lon="8.9529827876213"><ele>9.75</ele><time>2026-04-05T13:56:12Z</time></trkpt><trkpt lat="44.41166642881402" lon="8.953003419590091"><ele>10.5</ele><time>2026-04-05T13:56:13Z</time></trkpt><trkpt lat="44.41181306477622" lon="8.953028096165353"><ele>11.25</ele><time>2026-04-05T13:56:14Z</time></trkpt><trkpt lat="44.4119583241968" lon="8.953047661117134"><ele>12.0</ele><time>2026-04-05T13:56:15Z</time></trkpt><trkpt lat="44.41211658926029" lon="8.953069906001422"><ele>12.0</ele><time>2026-04-05T13:56:16Z</time></trkpt><trkpt lat="44.412316597115" lon="8.953086774528792"><ele>12.0</ele><time>2026-04-05T13:56:17Z</time></trkpt><trkpt lat="44.41248802657297" lon="8.953098081168362"><ele>12.0</ele><time>2026-04-05T13:56:18Z</time></trkpt><trkpt lat="44.41264047205874" lon="8.953122021134675"><ele>12.0</ele><time>2026-04-05T13:56:19Z</time></trkpt><trkpt lat="44.412778817502996" lon="8.953123500768736"><ele>12.0</ele><time>2026-04-05T13:56:20Z</time></trkpt><trkpt lat="44.41291891064009" lon="8.953115489845208"><ele>12.0</ele><time>2026-04-05T13:56:21Z</time></trkpt><trkpt lat="44.413065678885786" lon="8.953097384855674"><ele>12.0</ele><time>2026-04-05T13:56:22Z</time></trkpt><trkpt lat="44.41319661113527" lon="8.953070426875335"><ele>11.25</ele><time>2026-04-05T13:56:23Z</time></trkpt><trkpt lat="44.41331227118696" lon="8.953026075429904"><ele>10.5</ele><time>2026-04-05T13:56:23.999Z</time></trkpt><trkpt lat="44.4134218008834" lon="8.95297562673989"><ele>9.75</ele><time>2026-04-05T13:56:24.999Z</time></trkpt><trkpt lat="44.4135437417252" lon="8.95290578389685"><ele>9.0</ele><time>2026-04-05T13:56:25.999Z</time></trkpt><trkpt lat="44.41366869868269" lon="8.952823580710032"><ele>9.0</ele><time>2026-04-05T13:56:26.999Z</time></trkpt><trkpt lat="44.41379351929485" lon="8.95273641447811"><ele>9.0</ele><time>2026-04-05T13:56:27.999Z</time></trkpt><trkpt lat="44.413937448631366" lon="8.95262999524394"><ele>9.0</ele><time>2026-04-05T13:56:28.999Z</time></trkpt><trkpt lat="44.414064752357135" lon="8.952524158656994"><ele>10.0</ele><time>2026-04-05T13:56:29.999Z</time></trkpt><trkpt lat="44.414196467999275" lon="8.95241135816685"><ele>11.0</ele><time>2026-04-05T13:56:30.999Z</time></trkpt><trkpt lat="44.414332432321274" lon="8.952288133598122"><ele>12.0</ele><time>2026-04-05T13:56:31.999Z</time></trkpt><trkpt lat="44.4144714603916" lon="8.952181153721536"><ele>12.0</ele><time>2026-04-05T13:56:32.999Z</time></trkpt><trkpt lat="44.414598232251464" lon="8.952082275079201"><ele>12.0</ele><time>2026-04-05T13:56:33.999Z</time></trkpt><trkpt lat="44.41471333611548" lon="8.951980014408239"><ele>12.0</ele><time>2026-04-05T13:56:34.999Z</time></trkpt><trkpt lat="44.414817894867305" lon="8.951884840752411"><ele>12.0</ele><time>2026-04-05T13:56:35.999Z</time></trkpt><trkpt lat="44.41494395963448" lon="8.951777416403235"><ele>15.333333333333332</ele><time>2026-04-05T13:56:36.999Z</time></trkpt><trkpt lat="44.41507566087163" lon="8.95166643599061"><ele>18.666666666666664</ele><time>2026-04-05T13:56:37.999Z</time></trkpt><trkpt lat="44.41520868326244" lon="8.951560629943929"><ele>22.0</ele><time>2026-04-05T13:56:38.999Z</time></trkpt><trkpt lat="44.415340727305676" lon="8.951445654741388"><ele>22.0</ele><time>2026-04-05T13:56:39.999Z</time></trkpt><trkpt lat="44.41545599632635" lon="8.95132959851837"><ele>22.0</ele><time>2026-04-05T13:56:40.999Z</time></trkpt><trkpt lat="44.415562271180896" lon="8.95120497347218"><ele>22.0</ele><time>2026-04-05T13:56:41.999Z</time></trkpt><trkpt lat="44.41566583077147" lon="8.951074178145905"><ele>22.0</ele><time>2026-04-05T13:56:42.999Z</time></trkpt><trkpt lat="44.41576550329113" lon="8.95094233468892"><ele>23.0</ele><time>2026-04-05T13:56:43.999Z</time></trkpt><trkpt lat="44.415864164265365" lon="8.950810314801682"><ele>24.0</ele><time>2026-04-05T13:56:44.999Z</time></trkpt><trkpt lat="44.41593631156609" lon="8.950670886727849"><ele>25.0</ele><time>2026-04-05T13:56:45.999Z</time></trkpt><trkpt lat="44.41600903279085" lon="8.950500475922384"><ele>26.0</ele><time>2026-04-05T13:56:46.999Z</time></trkpt><trkpt lat="44.41610035774677" lon="8.95033333918928"><ele>26.0</ele><time>2026-04-05T13:56:47.999Z</time></trkpt><trkpt lat="44.41619615953043" lon="8.950148385340775"><ele>26.0</ele><time>2026-04-05T13:56:48.999Z</time></trkpt><trkpt lat="44.41629573589772" lon="8.94996363177393"><ele>26.0</ele><time>2026-04-05T13:56:49.999Z</time></trkpt><trkpt lat="44.41637874798623" lon="8.949776981341817"><ele>25.75</ele><time>2026-04-05T13:56:50.999Z</time></trkpt><trkpt lat="44.41645997496483" lon="8.949596060301637"><ele>25.5</ele><time>2026-04-05T13:56:51.999Z</time></trkpt><trkpt lat="44.41653551132595" lon="8.949425725011919"><ele>25.25</ele><time>2026-04-05T13:56:52.999Z</time></trkpt><trkpt lat="44.41664853984781" lon="8.949286034730527"><ele>25.0</ele><time>2026-04-05T13:56:53.999Z</time></trkpt><trkpt lat="44.41673290857253" lon="8.949129366413768"><ele>25.0</ele><time>2026-04-05T13:56:54.999Z</time></trkpt><trkpt lat="44.416818803998694" lon="8.948990039455671"><ele>25.0</ele><time>2026-04-05T13:56:55.999Z</time></trkpt><trkpt lat="44.416924251292436" lon="8.948833525763899"><ele>25.0</ele><time>2026-04-05T13:56:56.999Z</time></trkpt><trkpt lat="44.41704082095679" lon="8.94866882394084"><ele>23.0</ele><time>2026-04-05T13:56:57.999Z</time></trkpt><trkpt lat="44.41716141740257" lon="8.948525820363688"><ele>21.0</ele><time>2026-04-05T13:56:58.999Z</time></trkpt><trkpt lat="44.41729394082574" lon="8.948389316093172"><ele>19.0</ele><time>2026-04-05T13:56:59.999Z</time></trkpt><trkpt lat="44.41743932186316" lon="8.948254554758302"><ele>19.0</ele><time>2026-04-05T13:57:00.999Z</time></trkpt><trkpt lat="44.41759260858296" lon="8.94812753503039"><ele>19.0</ele><time>2026-04-05T13:57:01.999Z</time></trkpt><trkpt lat="44.41773724024493" lon="8.947967145197353"><ele>19.0</ele><time>2026-04-05T13:57:02.999Z</time></trkpt><trkpt lat="44.417904643994945" lon="8.947849396545438"><ele>16.666666666666664</ele><time>2026-04-05T13:57:03.999Z</time></trkpt><trkpt lat="44.41807225169059" lon="8.947740392913142"><ele>14.333333333333332</ele><time>2026-04-05T13:57:04.999Z</time></trkpt><trkpt lat="44.41824518549077" lon="8.947626678176277"><ele>12.0</ele><time>2026-04-05T13:57:05.999Z</time></trkpt><trkpt lat="44.4184192341477" lon="8.94754930445917"><ele>12.0</ele><time>2026-04-05T13:57:06.999Z</time></trkpt><trkpt lat="44.41863189373428" lon="8.947550096428552"><ele>12.0</ele><time>2026-04-05T13:57:07.999Z</time></trkpt><trkpt lat="44.418858398204996" lon="8.947478032585932"><ele>12.0</ele><time>2026-04-05T13:57:08.999Z</time></trkpt><trkpt lat="44.419069871490684" lon="8.947410698164163"><ele>14.0</ele><time>2026-04-05T13:57:09.999Z</time></trkpt><trkpt lat="44.419251483185356" lon="8.947352871838614"><ele>16.0</ele><time>2026-04-05T13:57:10.999Z</time></trkpt><trkpt lat="44.41944084144561" lon="8.947294242957607"><ele>18.0</ele><time>2026-04-05T13:57:11.999Z</time></trkpt><trkpt lat="44.41962363714001" lon="8.94723755293115"><ele>17.0</ele><time>2026-04-05T13:57:12.999Z</time></trkpt><trkpt lat="44.41981543878491" lon="8.947178284885648"><ele>16.0</ele><time>2026-04-05T13:57:13.999Z</time></trkpt><trkpt lat="44.42002877851885" lon="8.94711444753598"><ele>15.0</ele><time>2026-04-05T13:57:14.999Z</time></trkpt><trkpt lat="44.42019722615635" lon="8.947063929131936"><ele>15.0</ele><time>2026-04-05T13:57:16Z</time></trkpt><trkpt lat="44.42036057428878" lon="8.947014940155317"><ele>15.0</ele><time>2026-04-05T13:57:17Z</time></trkpt><trkpt lat="44.42047212289675" lon="8.946981486502247"><ele>15.0</ele><time>2026-04-05T13:57:18Z</time></trkpt><trkpt lat="44.4206091461312" lon="8.946939864127243"><ele>15.0</ele><time>2026-04-05T13:57:19Z</time></trkpt><trkpt lat="44.42075548249052" lon="8.946895533980628"><ele>14.75</ele><time>2026-04-05T13:57:20Z</time></trkpt><trkpt lat="44.42088428464041" lon="8.946862526434574"><ele>14.5</ele><time>2026-04-05T13:57:21Z</time></trkpt><trkpt lat="44.42100023147396" lon="8.946842465367599"><ele>14.25</ele><time>2026-04-05T13:57:22Z</time></trkpt><trkpt lat="44.421115468451475" lon="8.946828540409973"><ele>14.0</ele><time>2026-04-05T13:57:23Z</time></trkpt><trkpt lat="44.42123290083143" lon="8.946816358218488"><ele>14.0</ele><time>2026-04-05T13:57:24Z</time></trkpt><trkpt lat="44.421377961461424" lon="8.94680882702361"><ele>14.0</ele><time>2026-04-05T13:57:25Z</time></trkpt><trkpt lat="44.42154881876151" lon="8.946814209354581"><ele>14.0</ele><time>2026-04-05T13:57:26Z</time></trkpt><trkpt lat="44.42173349060188" lon="8.946835201444761"><ele>14.0</ele><time>2026-04-05T13:57:27Z</time></trkpt><trkpt lat="44.42190510020496" lon="8.946860419046413"><ele>14.0</ele><time>2026-04-05T13:57:28Z</time></trkpt><trkpt lat="44.42208709111417" lon="8.94688597700493"><ele>14.0</ele><time>2026-04-05T13:57:29Z</time></trkpt><trkpt lat="44.42223863449223" lon="8.946907015668469"><ele>14.2</ele><time>2026-04-05T13:57:30Z</time></trkpt><trkpt lat="44.422366252397076" lon="8.946924732809366"><ele>14.399999999999999</ele><time>2026-04-05T13:57:31Z</time></trkpt><trkpt lat="44.42249885670841" lon="8.946943142179261"><ele>14.6</ele><time>2026-04-05T13:57:32Z</time></trkpt><trkpt lat="44.42258085541325" lon="8.946953768076208"><ele>14.8</ele><time>2026-04-05T13:57:33Z</time></trkpt><trkpt lat="44.42266673086207" lon="8.946964868803866"><ele>15.0</ele><time>2026-04-05T13:57:34Z</time></trkpt><trkpt lat="44.42274795999324" lon="8.946975368895977"><ele>15.0</ele><time>2026-04-05T13:57:35Z</time></trkpt><trkpt lat="44.42286088437685" lon="8.946990845137684"><ele>15.0</ele><time>2026-04-05T13:57:37Z</time></trkpt><trkpt lat="44.42294811490891" lon="8.94700359691998"><ele>15.0</ele><time>2026-04-05T13:57:39Z</time></trkpt><trkpt lat="44.422941029490886" lon="8.947162070427023"><ele>15.0</ele><time>2026-04-05T13:57:41Z</time></trkpt><trkpt lat="44.42293602924538" lon="8.947271180311102"><ele>15.0</ele><time>2026-04-05T13:57:42Z</time></trkpt><trkpt lat="44.42294228790582" lon="8.947388469636904"><ele>15.0</ele><time>2026-04-05T13:57:43Z</time></trkpt><trkpt lat="44.42293062465775" lon="8.947514869918267"><ele>15.0</ele><time>2026-04-05T13:57:44Z</time></trkpt><trkpt lat="44.42292062672421" lon="8.947650819557355"><ele>15.0</ele><time>2026-04-05T13:57:45Z</time></trkpt><trkpt lat="44.422911301895255" lon="8.947772708950154"><ele>15.0</ele><time>2026-04-05T13:57:46Z</time></trkpt><trkpt lat="44.42290364610428" lon="8.947874524663026"><ele>15.0</ele><time>2026-04-05T13:57:47Z</time></trkpt><trkpt lat="44.422894539689196" lon="8.947965508976829"><ele>15.0</ele><time>2026-04-05T13:57:48Z</time></trkpt><trkpt lat="44.42288862043005" lon="8.94809405844054"><ele>16.333333333333332</ele><time>2026-04-05T13:57:50Z</time></trkpt><trkpt lat="44.422997517827135" lon="8.948188068200484"><ele>17.666666666666668</ele><time>2026-04-05T13:57:52Z</time></trkpt><trkpt lat="44.423065303110114" lon="8.948205949222114"><ele>19.0</ele><time>2026-04-05T13:57:53Z</time></trkpt><trkpt lat="44.42314124159855" lon="8.948217347934612"><ele>20.333333333333336</ele><time>2026-04-05T13:57:54Z</time></trkpt><trkpt lat="44.42322428315353" lon="8.948236295613805"><ele>21.666666666666668</ele><time>2026-04-05T13:57:55Z</time></trkpt><trkpt lat="44.42331366284118" lon="8.948255949064263"><ele>23.0</ele><time>2026-04-05T13:57:56Z</time></trkpt><trkpt lat="44.42342287189721" lon="8.948273656738131"><ele>23.0</ele><time>2026-04-05T13:57:57Z</time></trkpt><trkpt lat="44.423515943539726" lon="8.948299474412057"><ele>23.0</ele><time>2026-04-05T13:57:58Z</time></trkpt><trkpt lat="44.423628573087456" lon="8.948315259306"><ele>23.0</ele><time>2026-04-05T13:57:59Z</time></trkpt><trkpt lat="44.42375540262756" lon="8.948334267330607"><ele>23.0</ele><time>2026-04-05T13:58:00Z</time></trkpt><trkpt lat="44.42389284769162" lon="8.948339370091677"><ele>23.0</ele><time>2026-04-05T13:58:01Z</time></trkpt><trkpt lat="44.42402325111009" lon="8.948369508705465"><ele>23.0</ele><time>2026-04-05T13:58:02Z</time></trkpt><trkpt lat="44.424164579299834" lon="8.94839091624926"><ele>23.0</ele><time>2026-04-05T13:58:03Z</time></trkpt><trkpt lat="44.42430797672563" lon="8.948408445350665"><ele>23.0</ele><time>2026-04-05T13:58:04Z</time></trkpt><trkpt lat="44.42443237575182" lon="8.94842780392257"><ele>24.2</ele><time>2026-04-05T13:58:05Z</time></trkpt><trkpt lat="44.42455144425654" lon="8.948449017376896"><ele>25.4</ele><time>2026-04-05T13:58:06Z</time></trkpt><trkpt lat="44.42466762394282" lon="8.94846499998979"><ele>26.599999999999998</ele><time>2026-04-05T13:58:07Z</time></trkpt><trkpt lat="44.42476472099308" lon="8.94847818885029"><ele>27.799999999999997</ele><time>2026-04-05T13:58:08Z</time></trkpt><trkpt lat="44.424840867799155" lon="8.948503563600816"><ele>29.0</ele><time>2026-04-05T13:58:09Z</time></trkpt><trkpt lat="44.424906006554345" lon="8.948507779279218"><ele>29.0</ele><time>2026-04-05T13:58:10Z</time></trkpt><trkpt lat="44.42500740030755" lon="8.948515644570733"><ele>29.0</ele><time>2026-04-05T13:58:12Z</time></trkpt><trkpt lat="44.42507988461365" lon="8.94850988901529"><ele>29.0</ele><time>2026-04-05T13:58:14Z</time></trkpt><trkpt lat="44.42520489024956" lon="8.9485450417365"><ele>29.0</ele><time>2026-04-05T13:58:43.999Z</time></trkpt><trkpt lat="44.42534194662004" lon="8.948570209084957"><ele>29.0</ele><time>2026-04-05T13:58:45.999Z</time></trkpt><trkpt lat="44.42544178347382" lon="8.948590949708553"><ele>28.5</ele><time>2026-04-05T13:58:46.999Z</time></trkpt><trkpt lat="44.42554519438091" lon="8.948625609253774"><ele>28.0</ele><time>2026-04-05T13:58:47.999Z</time></trkpt><trkpt lat="44.42567143377909" lon="8.948668179853213"><ele>27.5</ele><time>2026-04-05T13:58:48.999Z</time></trkpt><trkpt lat="44.42580670385537" lon="8.948732535023348"><ele>27.0</ele><time>2026-04-05T13:58:49.999Z</time></trkpt><trkpt lat="44.425950109135385" lon="8.948812496929017"><ele>27.0</ele><time>2026-04-05T13:58:50.999Z</time></trkpt><trkpt lat="44.42609858735886" lon="8.948911270161586"><ele>27.0</ele><time>2026-04-05T13:58:51.999Z</time></trkpt><trkpt lat="44.42623654632328" lon="8.949035960367086"><ele>27.0</ele><time>2026-04-05T13:58:52.999Z</time></trkpt><trkpt lat="44.42636974447671" lon="8.949174898089886"><ele>28.666666666666664</ele><time>2026-04-05T13:58:53.999Z</time></trkpt><trkpt lat="44.42649016818909" lon="8.94931146412953"><ele>30.333333333333332</ele><time>2026-04-05T13:58:54.999Z</time></trkpt><trkpt lat="44.42662059818986" lon="8.94946705234334"><ele>32.0</ele><time>2026-04-05T13:58:55.999Z</time></trkpt><trkpt lat="44.42674175807273" lon="8.949619622287782"><ele>32.0</ele><time>2026-04-05T13:58:56.999Z</time></trkpt><trkpt lat="44.42685501583174" lon="8.949782000845882"><ele>32.0</ele><time>2026-04-05T13:58:57.999Z</time></trkpt><trkpt lat="44.42695905800427" lon="8.949957581893262"><ele>32.0</ele><time>2026-04-05T13:58:58.999Z</time></trkpt><trkpt lat="44.42705015758504" lon="8.950138769647273"><ele>34.5</ele><time>2026-04-05T13:58:59.999Z</time></trkpt><trkpt lat="44.42712568417517" lon="8.950321367259736"><ele>37.0</ele><time>2026-04-05T13:59:00.999Z</time></trkpt><trkpt lat="44.42717617351863" lon="8.950488042865675"><ele>39.5</ele><time>2026-04-05T13:59:01.999Z</time></trkpt><trkpt lat="44.42722154998786" lon="8.950640922868967"><ele>42.0</ele><time>2026-04-05T13:59:02.999Z</time></trkpt><trkpt lat="44.42726111805528" lon="8.95080269152628"><ele>38.5</ele><time>2026-04-05T13:59:03.999Z</time></trkpt><trkpt lat="44.427287353401816" lon="8.9509591770327"><ele>35.0</ele><time>2026-04-05T13:59:04.999Z</time></trkpt><trkpt lat="44.42732235028363" lon="8.951110581314957"><ele>31.5</ele><time>2026-04-05T13:59:05.999Z</time></trkpt><trkpt lat="44.427347703031195" lon="8.951285571107421"><ele>28.0</ele><time>2026-04-05T13:59:06.999Z</time></trkpt><trkpt lat="44.4273844926572" lon="8.951478443910771"><ele>28.0</ele><time>2026-04-05T13:59:07.999Z</time></trkpt><trkpt lat="44.4274276500156" lon="8.951676168994926"><ele>28.0</ele><time>2026-04-05T13:59:08.999Z</time></trkpt><trkpt lat="44.42748125156419" lon="8.951891152433957"><ele>28.0</ele><time>2026-04-05T13:59:09.999Z</time></trkpt><trkpt lat="44.42754392332925" lon="8.952140625332433"><ele>32.333333333333336</ele><time>2026-04-05T13:59:10.999Z</time></trkpt><trkpt lat="44.42759564961113" lon="8.952391663929552"><ele>36.666666666666664</ele><time>2026-04-05T13:59:11.999Z</time></trkpt><trkpt lat="44.42765784240923" lon="8.952657877841414"><ele>41.0</ele><time>2026-04-05T13:59:12.999Z</time></trkpt><trkpt lat="44.42771016414389" lon="8.952923816594563"><ele>45.33333333333333</ele><time>2026-04-05T13:59:13.999Z</time></trkpt><trkpt lat="44.427760228680846" lon="8.95319070612372"><ele>49.666666666666664</ele><time>2026-04-05T13:59:14.999Z</time></trkpt><trkpt lat="44.427822160874385" lon="8.953455970240896"><ele>54.0</ele><time>2026-04-05T13:59:15.999Z</time></trkpt><trkpt lat="44.42789111748021" lon="8.953716721292684"><ele>58.0</ele><time>2026-04-05T13:59:16.999Z</time></trkpt><trkpt lat="44.427959078172094" lon="8.953989372330799"><ele>62.0</ele><time>2026-04-05T13:59:17.999Z</time></trkpt><trkpt lat="44.42803097582612" lon="8.954245879041025"><ele>66.0</ele><time>2026-04-05T13:59:18.999Z</time></trkpt><trkpt lat="44.42811431621177" lon="8.95449862227547"><ele>56.333333333333336</ele><time>2026-04-05T13:59:19.999Z</time></trkpt><trkpt lat="44.428209478074" lon="8.954759289261258"><ele>46.66666666666667</ele><time>2026-04-05T13:59:20.999Z</time></trkpt><trkpt lat="44.428323756790434" lon="8.955039666386188"><ele>37.0</ele><time>2026-04-05T13:59:22Z</time></trkpt><trkpt lat="44.42843828231691" lon="8.955316067165004"><ele>37.0</ele><time>2026-04-05T13:59:23Z</time></trkpt><trkpt lat="44.42855205780945" lon="8.955586312837506"><ele>37.0</ele><time>2026-04-05T13:59:24Z</time></trkpt><trkpt lat="44.42868551249104" lon="8.95585446344653"><ele>32.0</ele><time>2026-04-05T13:59:25Z</time></trkpt><trkpt lat="44.42882627973866" lon="8.956112462014584"><ele>27.0</ele><time>2026-04-05T13:59:26Z</time></trkpt><trkpt lat="44.42896370875794" lon="8.956363465938864"><ele>27.0</ele><time>2026-04-05T13:59:27Z</time></trkpt><trkpt lat="44.429097007747785" lon="8.956587794174034"><ele>27.0</ele><time>2026-04-05T13:59:28Z</time></trkpt><trkpt lat="44.42923504879594" lon="8.956794775251934"><ele>27.0</ele><time>2026-04-05T13:59:29Z</time></trkpt><trkpt lat="44.42937338930838" lon="8.957004809150547"><ele>26.666666666666664</ele><time>2026-04-05T13:59:30Z</time></trkpt><trkpt lat="44.42951104840656" lon="8.957194998592815"><ele>26.333333333333332</ele><time>2026-04-05T13:59:31Z</time></trkpt><trkpt lat="44.4296327985855" lon="8.957356308860941"><ele>26.0</ele><time>2026-04-05T13:59:32Z</time></trkpt><trkpt lat="44.42975227887293" lon="8.9575008635579"><ele>26.5</ele><time>2026-04-05T13:59:33Z</time></trkpt><trkpt lat="44.42984920908" lon="8.957623857678843"><ele>27.0</ele><time>2026-04-05T13:59:34Z</time></trkpt><trkpt lat="44.42994868266101" lon="8.95773874063243"><ele>27.5</ele><time>2026-04-05T13:59:35Z</time></trkpt><trkpt lat="44.43003538245322" lon="8.957844837052306"><ele>28.0</ele><time>2026-04-05T13:59:36Z</time></trkpt><trkpt lat="44.43012587716347" lon="8.957954355169239"><ele>28.0</ele><time>2026-04-05T13:59:37Z</time></trkpt><trkpt lat="44.43021181188851" lon="8.958059284882076"><ele>27.999999999999996</ele><time>2026-04-05T13:59:38Z</time></trkpt><trkpt lat="44.4302946324382" lon="8.95815374901755"><ele>27.999999999999996</ele><time>2026-04-05T13:59:39Z</time></trkpt><trkpt lat="44.430373593319764" lon="8.95823753310185"><ele>28.0</ele><time>2026-04-05T13:59:40Z</time></trkpt><trkpt lat="44.43044942369314" lon="8.958325997956925"><ele>28.0</ele><time>2026-04-05T13:59:41Z</time></trkpt><trkpt lat="44.430518875921585" lon="8.958415654472404"><ele>28.666666666666668</ele><time>2026-04-05T13:59:42Z</time></trkpt><trkpt lat="44.43057819707236" lon="8.958497542174792"><ele>29.333333333333336</ele><time>2026-04-05T13:59:43Z</time></trkpt><trkpt lat="44.43063403612747" lon="8.958575058862506"><ele>30.0</ele><time>2026-04-05T13:59:44Z</time></trkpt><trkpt lat="44.43068935838053" lon="8.958634681460907"><ele>30.666666666666664</ele><time>2026-04-05T13:59:45Z</time></trkpt><trkpt lat="44.43074631517043" lon="8.958702551571482"><ele>31.333333333333332</ele><time>2026-04-05T13:59:46Z</time></trkpt><trkpt lat="44.43080872637017" lon="8.958783275371342"><ele>32.0</ele><time>2026-04-05T13:59:47Z</time></trkpt><trkpt lat="44.43088253029167" lon="8.958857991392396"><ele>32.0</ele><time>2026-04-05T13:59:48Z</time></trkpt><trkpt lat="44.43095904196737" lon="8.958927339056386"><ele>32.0</ele><time>2026-04-05T13:59:49Z</time></trkpt><trkpt lat="44.431047928887075" lon="8.959002926712326"><ele>32.0</ele><time>2026-04-05T13:59:50Z</time></trkpt><trkpt lat="44.43113850158769" lon="8.959093602447869"><ele>32.0</ele><time>2026-04-05T13:59:51Z</time></trkpt><trkpt lat="44.43123411226959" lon="8.95920409431917"><ele>32.0</ele><time>2026-04-05T13:59:52Z</time></trkpt><trkpt lat="44.43134385719529" lon="8.959322112788145"><ele>31.666666666666664</ele><time>2026-04-05T13:59:53Z</time></trkpt><trkpt lat="44.431472483099405" lon="8.959464425735264"><ele>31.333333333333336</ele><time>2026-04-05T13:59:54Z</time></trkpt><trkpt lat="44.43161936194182" lon="8.959610818385043"><ele>31.0</ele><time>2026-04-05T13:59:55Z</time></trkpt><trkpt lat="44.431747133008926" lon="8.95975710132244"><ele>31.0</ele><time>2026-04-05T13:59:56Z</time></trkpt><trkpt lat="44.43186644646912" lon="8.95990610916976"><ele>31.0</ele><time>2026-04-05T13:59:57Z</time></trkpt><trkpt lat="44.431982277122295" lon="8.9600558871308"><ele>31.0</ele><time>2026-04-05T13:59:58Z</time></trkpt><trkpt lat="44.43209522916967" lon="8.960192885202115"><ele>31.5</ele><time>2026-04-05T13:59:59Z</time></trkpt><trkpt lat="44.432200130432584" lon="8.960304533682208"><ele>32.0</ele><time>2026-04-05T14:00:00Z</time></trkpt><trkpt lat="44.43228453095824" lon="8.960412078111574"><ele>32.5</ele><time>2026-04-05T14:00:01Z</time></trkpt><trkpt lat="44.43238203365873" lon="8.960534205305347"><ele>33.0</ele><time>2026-04-05T14:00:02Z</time></trkpt><trkpt lat="44.43249517590514" lon="8.96065640044773"><ele>33.0</ele><time>2026-04-05T14:00:03Z</time></trkpt><trkpt lat="44.43260498742098" lon="8.960780010561004"><ele>33.0</ele><time>2026-04-05T14:00:04Z</time></trkpt><trkpt lat="44.43270722335428" lon="8.960900929696491"><ele>33.0</ele><time>2026-04-05T14:00:05Z</time></trkpt><trkpt lat="44.43280605291499" lon="8.961013617615409"><ele>33.0</ele><time>2026-04-05T14:00:06Z</time></trkpt><trkpt lat="44.43291183404522" lon="8.961120262708468"><ele>32.5</ele><time>2026-04-05T14:00:07Z</time></trkpt><trkpt lat="44.433015704810984" lon="8.961237894651012"><ele>32.0</ele><time>2026-04-05T14:00:08Z</time></trkpt><trkpt lat="44.433129133484364" lon="8.961350214215148"><ele>31.5</ele><time>2026-04-05T14:00:09Z</time></trkpt><trkpt lat="44.43324932193498" lon="8.96147857542058"><ele>31.0</ele><time>2026-04-05T14:00:10Z</time></trkpt><trkpt lat="44.43337292884535" lon="8.961606982592091"><ele>31.0</ele><time>2026-04-05T14:00:11Z</time></trkpt><trkpt lat="44.43349121239477" lon="8.961706535271194"><ele>31.0</ele><time>2026-04-05T14:00:12Z</time></trkpt><trkpt lat="44.43361007667925" lon="8.961800396023213"><ele>31.0</ele><time>2026-04-05T14:00:13Z</time></trkpt><trkpt lat="44.43371567124805" lon="8.9618884913857"><ele>31.0</ele><time>2026-04-05T14:00:14Z</time></trkpt><trkpt lat="44.43382811766416" lon="8.961975174390872"><ele>31.0</ele><time>2026-04-05T14:00:15Z</time></trkpt><trkpt lat="44.433940404956985" lon="8.962073849330173"><ele>31.0</ele><time>2026-04-05T14:00:16Z</time></trkpt><trkpt lat="44.43405373564184" lon="8.962161919910509"><ele>31.0</ele><time>2026-04-05T14:00:17Z</time></trkpt><trkpt lat="44.43416508889936" lon="8.96224525040027"><ele>31.0</ele><time>2026-04-05T14:00:18Z</time></trkpt><trkpt lat="44.434281762022565" lon="8.962328013902193"><ele>31.0</ele><time>2026-04-05T14:00:19Z</time></trkpt><trkpt lat="44.43440233826732" lon="8.962410230711095"><ele>31.0</ele><time>2026-04-05T14:00:20Z</time></trkpt><trkpt lat="44.43452397524141" lon="8.962487685418662"><ele>31.0</ele><time>2026-04-05T14:00:21Z</time></trkpt><trkpt lat="44.43464229310482" lon="8.962555426560861"><ele>31.0</ele><time>2026-04-05T14:00:22Z</time></trkpt><trkpt lat="44.4347545641135" lon="8.962630385825056"><ele>32.4</ele><time>2026-04-05T14:00:23Z</time></trkpt><trkpt lat="44.43486366799708" lon="8.962690296226238"><ele>33.8</ele><time>2026-04-05T14:00:24Z</time></trkpt><trkpt lat="44.43496041429984" lon="8.962740595781646"><ele>35.199999999999996</ele><time>2026-04-05T14:00:25Z</time></trkpt><trkpt lat="44.43505940421404" lon="8.962791794341383"><ele>36.6</ele><time>2026-04-05T14:00:26Z</time></trkpt><trkpt lat="44.43516051995447" lon="8.962834034359016"><ele>38.0</ele><time>2026-04-05T14:00:27Z</time></trkpt><trkpt lat="44.43525514403055" lon="8.962868370415123"><ele>38.0</ele><time>2026-04-05T14:00:28Z</time></trkpt><trkpt lat="44.43533424158752" lon="8.96289182027917"><ele>38.0</ele><time>2026-04-05T14:00:28.999Z</time></trkpt><trkpt lat="44.435416650797414" lon="8.962928176839778"><ele>38.0</ele><time>2026-04-05T14:00:29.999Z</time></trkpt><trkpt lat="44.4354895409651" lon="8.962982758697816"><ele>38.0</ele><time>2026-04-05T14:00:30.999Z</time></trkpt><trkpt lat="44.43555599939966" lon="8.963046020398785"><ele>38.0</ele><time>2026-04-05T14:00:31.999Z</time></trkpt><trkpt lat="44.43561925735635" lon="8.963134641310074"><ele>38.0</ele><time>2026-04-05T14:00:32.999Z</time></trkpt><trkpt lat="44.435668285707514" lon="8.963212284750407"><ele>37.0</ele><time>2026-04-05T14:00:33.999Z</time></trkpt><trkpt lat="44.43579164685996" lon="8.96327843326292"><ele>36.0</ele><time>2026-04-05T14:00:35.999Z</time></trkpt><trkpt lat="44.435883685470095" lon="8.9632636576377"><ele>35.0</ele><time>2026-04-05T14:00:36.999Z</time></trkpt><trkpt lat="44.43598312886053" lon="8.963238136474832"><ele>34.0</ele><time>2026-04-05T14:00:37.999Z</time></trkpt><trkpt lat="44.43610034814326" lon="8.963220146091363"><ele>33.0</ele><time>2026-04-05T14:00:38.999Z</time></trkpt><trkpt lat="44.43624648243162" lon="8.963224025393801"><ele>33.666666666666664</ele><time>2026-04-05T14:00:39.999Z</time></trkpt><trkpt lat="44.43636684218387" lon="8.963248944602155"><ele>34.33333333333333</ele><time>2026-04-05T14:00:40.999Z</time></trkpt><trkpt lat="44.43652846914082" lon="8.963274332371853"><ele>35.0</ele><time>2026-04-05T14:00:41.999Z</time></trkpt><trkpt lat="44.43670764358533" lon="8.963287917219887"><ele>35.0</ele><time>2026-04-05T14:00:42.999Z</time></trkpt><trkpt lat="44.436870540528545" lon="8.96329994502249"><ele>35.0</ele><time>2026-04-05T14:00:43.999Z</time></trkpt><trkpt lat="44.437020009388874" lon="8.963308796470841"><ele>35.0</ele><time>2026-04-05T14:00:44.999Z</time></trkpt><trkpt lat="44.43717505552548" lon="8.963328983526397"><ele>35.0</ele><time>2026-04-05T14:00:45.999Z</time></trkpt><trkpt lat="44.437358536136756" lon="8.963353294566494"><ele>35.0</ele><time>2026-04-05T14:00:46.999Z</time></trkpt><trkpt lat="44.437527650558344" lon="8.963393256460908"><ele>35.0</ele><time>2026-04-05T14:00:47.999Z</time></trkpt><trkpt lat="44.43768617789056" lon="8.963434565823627"><ele>36.0</ele><time>2026-04-05T14:00:48.999Z</time></trkpt><trkpt lat="44.43783393866237" lon="8.963477421614916"><ele>37.0</ele><time>2026-04-05T14:00:49.999Z</time></trkpt><trkpt lat="44.4379836302191" lon="8.963511595400428"><ele>38.0</ele><time>2026-04-05T14:00:50.999Z</time></trkpt><trkpt lat="44.438145177686124" lon="8.963562110188715"><ele>38.0</ele><time>2026-04-05T14:00:51.999Z</time></trkpt><trkpt lat="44.438310041415534" lon="8.963616403773626"><ele>38.0</ele><time>2026-04-05T14:00:52.999Z</time></trkpt><trkpt lat="44.43846612064735" lon="8.963660439597591"><ele>38.0</ele><time>2026-04-05T14:00:53.999Z</time></trkpt><trkpt lat="44.43863324614115" lon="8.963707901888093"><ele>38.0</ele><time>2026-04-05T14:00:54.999Z</time></trkpt><trkpt lat="44.43879509934743" lon="8.963748971286794"><ele>38.0</ele><time>2026-04-05T14:00:55.999Z</time></trkpt><trkpt lat="44.43896288595089" lon="8.963802223145233"><ele>38.0</ele><time>2026-04-05T14:00:56.999Z</time></trkpt><trkpt lat="44.43912669585905" lon="8.963833566284277"><ele>37.8</ele><time>2026-04-05T14:00:57.999Z</time></trkpt><trkpt lat="44.439255823040625" lon="8.963871683158908"><ele>37.599999999999994</ele><time>2026-04-05T14:00:58.999Z</time></trkpt><trkpt lat="44.43936091156253" lon="8.963902971448261"><ele>37.400000000000006</ele><time>2026-04-05T14:00:59.999Z</time></trkpt><trkpt lat="44.439442805100526" lon="8.96393364035393"><ele>37.2</ele><time>2026-04-05T14:01:00.999Z</time></trkpt><trkpt lat="44.439514328913475" lon="8.963953398555315"><ele>37.0</ele><time>2026-04-05T14:01:01.999Z</time></trkpt><trkpt lat="44.43957947322911" lon="8.963976173548183"><ele>37.2</ele><time>2026-04-05T14:01:03.999Z</time></trkpt><trkpt lat="44.43964382711945" lon="8.963964540181458"><ele>37.400000000000006</ele><time>2026-04-05T14:01:20.999Z</time></trkpt><trkpt lat="44.43970389487533" lon="8.964002335453939"><ele>37.599999999999994</ele><time>2026-04-05T14:01:21.999Z</time></trkpt><trkpt lat="44.43979033117877" lon="8.964012739954995"><ele>37.8</ele><time>2026-04-05T14:01:22.999Z</time></trkpt><trkpt lat="44.439893702641896" lon="8.96407692915918"><ele>38.0</ele><time>2026-04-05T14:01:23.999Z</time></trkpt><trkpt lat="44.440011805375974" lon="8.964124829293635"><ele>38.0</ele><time>2026-04-05T14:01:24.999Z</time></trkpt><trkpt lat="44.44018498581341" lon="8.964193498620862"><ele>38.0</ele><time>2026-04-05T14:01:25.999Z</time></trkpt><trkpt lat="44.440398365773625" lon="8.964265491217374"><ele>38.0</ele><time>2026-04-05T14:01:26.999Z</time></trkpt><trkpt lat="44.44059666494048" lon="8.964385233466807"><ele>39.0</ele><time>2026-04-05T14:01:28Z</time></trkpt><trkpt lat="44.44079156434687" lon="8.964463136617006"><ele>40.0</ele><time>2026-04-05T14:01:29Z</time></trkpt><trkpt lat="44.4409709859555" lon="8.96456256694974"><ele>41.0</ele><time>2026-04-05T14:01:30Z</time></trkpt><trkpt lat="44.44113309879907" lon="8.964660640874266"><ele>41.0</ele><time>2026-04-05T14:01:31Z</time></trkpt><trkpt lat="44.44127540459563" lon="8.96474575249479"><ele>41.0</ele><time>2026-04-05T14:01:32Z</time></trkpt><trkpt lat="44.441405212923854" lon="8.964824728213012"><ele>41.0</ele><time>2026-04-05T14:01:33Z</time></trkpt><trkpt lat="44.441518694306914" lon="8.964898361744702"><ele>41.0</ele><time>2026-04-05T14:01:34Z</time></trkpt><trkpt lat="44.44161277167058" lon="8.96496282740129"><ele>40.666666666666664</ele><time>2026-04-05T14:01:35Z</time></trkpt><trkpt lat="44.44168291862792" lon="8.965015863216248"><ele>40.33333333333333</ele><time>2026-04-05T14:01:36Z</time></trkpt><trkpt lat="44.4417428274255" lon="8.965085974075123"><ele>40.0</ele><time>2026-04-05T14:01:37Z</time></trkpt><trkpt lat="44.44179377454788" lon="8.96518306550121"><ele>39.666666666666664</ele><time>2026-04-05T14:01:38Z</time></trkpt><trkpt lat="44.44183581048069" lon="8.965255644051775"><ele>39.333333333333336</ele><time>2026-04-05T14:01:39Z</time></trkpt><trkpt lat="44.44194314900428" lon="8.965315512957918"><ele>39.0</ele><time>2026-04-05T14:01:41Z</time></trkpt><trkpt lat="44.44203624357628" lon="8.965314134404592"><ele>39.5</ele><time>2026-04-05T14:01:42Z</time></trkpt><trkpt lat="44.44214161529504" lon="8.965337631387587"><ele>40.0</ele><time>2026-04-05T14:01:43Z</time></trkpt><trkpt lat="44.44225404383606" lon="8.965422682882615"><ele>40.5</ele><time>2026-04-05T14:01:44Z</time></trkpt><trkpt lat="44.442388807486516" lon="8.965543148201714"><ele>41.0</ele><time>2026-04-05T14:01:45Z</time></trkpt><trkpt lat="44.44254624115" lon="8.965684247722354"><ele>41.0</ele><time>2026-04-05T14:01:46Z</time></trkpt><trkpt lat="44.442712509700726" lon="8.965841022690839"><ele>41.0</ele><time>2026-04-05T14:01:47Z</time></trkpt><trkpt lat="44.44289909647913" lon="8.965972520694924"><ele>41.0</ele><time>2026-04-05T14:01:48Z</time></trkpt><trkpt lat="44.44306180801129" lon="8.966128864410999"><ele>41.33333333333333</ele><time>2026-04-05T14:01:49Z</time></trkpt><trkpt lat="44.4432383200587" lon="8.96626748591456"><ele>41.666666666666664</ele><time>2026-04-05T14:01:50Z</time></trkpt><trkpt lat="44.443421107871806" lon="8.966404733219001"><ele>42.0</ele><time>2026-04-05T14:01:51Z</time></trkpt><trkpt lat="44.443592313969575" lon="8.966543345595523"><ele>42.0</ele><time>2026-04-05T14:01:52Z</time></trkpt><trkpt lat="44.44375890057286" lon="8.96670592636774"><ele>42.0</ele><time>2026-04-05T14:01:53Z</time></trkpt><trkpt lat="44.44392644217411" lon="8.966889099191713"><ele>42.0</ele><time>2026-04-05T14:01:54Z</time></trkpt><trkpt lat="44.444107266629835" lon="8.967103691565415"><ele>42.0</ele><time>2026-04-05T14:01:55Z</time></trkpt><trkpt lat="44.444301732233804" lon="8.967355817778516"><ele>42.0</ele><time>2026-04-05T14:01:56Z</time></trkpt><trkpt lat="44.44450741568763" lon="8.967626555640244"><ele>42.5</ele><time>2026-04-05T14:01:57Z</time></trkpt><trkpt lat="44.44468315120541" lon="8.967860312764214"><ele>43.0</ele><time>2026-04-05T14:01:58Z</time></trkpt><trkpt lat="44.444843797758466" lon="8.968063371952168"><ele>43.0</ele><time>2026-04-05T14:01:59Z</time></trkpt><trkpt lat="44.44498619639066" lon="8.968262759045146"><ele>43.0</ele><time>2026-04-05T14:02:00Z</time></trkpt><trkpt lat="44.445120118542654" lon="8.96845313657266"><ele>43.0</ele><time>2026-04-05T14:02:01Z</time></trkpt><trkpt lat="44.445248999050825" lon="8.968622916704499"><ele>43.0</ele><time>2026-04-05T14:02:02Z</time></trkpt><trkpt lat="44.4453771436946" lon="8.968801230127127"><ele>43.0</ele><time>2026-04-05T14:02:03Z</time></trkpt><trkpt lat="44.445527044316876" lon="8.968986081905706"><ele>43.0</ele><time>2026-04-05T14:02:04Z</time></trkpt><trkpt lat="44.44567590170285" lon="8.969181442859384"><ele>43.66666666666667</ele><time>2026-04-05T14:02:05Z</time></trkpt><trkpt lat="44.44582512796399" lon="8.969367497432872"><ele>44.333333333333336</ele><time>2026-04-05T14:02:06Z</time></trkpt><trkpt lat="44.44597064957775" lon="8.969553521600167"><ele>45.0</ele><time>2026-04-05T14:02:07Z</time></trkpt><trkpt lat="44.44610650254686" lon="8.96974575130606"><ele>45.0</ele><time>2026-04-05T14:02:08Z</time></trkpt><trkpt lat="44.44624679520942" lon="8.969926774807936"><ele>45.0</ele><time>2026-04-05T14:02:09Z</time></trkpt><trkpt lat="44.446383379075044" lon="8.970094486894784"><ele>45.0</ele><time>2026-04-05T14:02:10Z</time></trkpt><trkpt lat="44.44650332666199" lon="8.970242487310387"><ele>45.0</ele><time>2026-04-05T14:02:11Z</time></trkpt><trkpt lat="44.446611345766385" lon="8.970383519609182"><ele>45.0</ele><time>2026-04-05T14:02:12Z</time></trkpt><trkpt lat="44.44671738037177" lon="8.970521001572864"><ele>45.0</ele><time>2026-04-05T14:02:13Z</time></trkpt><trkpt lat="44.446828717572636" lon="8.970651367862814"><ele>45.0</ele><time>2026-04-05T14:02:14Z</time></trkpt><trkpt lat="44.446931551797874" lon="8.970777269514741"><ele>45.666666666666664</ele><time>2026-04-05T14:02:15Z</time></trkpt><trkpt lat="44.44704243454875" lon="8.97091290813478"><ele>46.33333333333333</ele><time>2026-04-05T14:02:16Z</time></trkpt><trkpt lat="44.44716249667924" lon="8.971063893219418"><ele>47.0</ele><time>2026-04-05T14:02:17Z</time></trkpt><trkpt lat="44.44728966979546" lon="8.971238767614311"><ele>47.0</ele><time>2026-04-05T14:02:18Z</time></trkpt><trkpt lat="44.44741313758194" lon="8.971400187894051"><ele>47.0</ele><time>2026-04-05T14:02:19Z</time></trkpt><trkpt lat="44.44753489364886" lon="8.971548227112102"><ele>47.0</ele><time>2026-04-05T14:02:20Z</time></trkpt><trkpt lat="44.447676101563225" lon="8.97171780864886"><ele>46.33333333333333</ele><time>2026-04-05T14:02:21Z</time></trkpt><trkpt lat="44.44783267146834" lon="8.971894784611235"><ele>45.666666666666664</ele><time>2026-04-05T14:02:22Z</time></trkpt><trkpt lat="44.44801917410855" lon="8.972103913505304"><ele>45.0</ele><time>2026-04-05T14:02:23Z</time></trkpt><trkpt lat="44.44818839569361" lon="8.972301855146696"><ele>45.0</ele><time>2026-04-05T14:02:24Z</time></trkpt><trkpt lat="44.44834445967809" lon="8.972494344250455"><ele>45.0</ele><time>2026-04-05T14:02:25Z</time></trkpt><trkpt lat="44.44850510337318" lon="8.97267681360161"><ele>45.0</ele><time>2026-04-05T14:02:26Z</time></trkpt><trkpt lat="44.44864396115113" lon="8.972842841217238"><ele>46.0</ele><time>2026-04-05T14:02:27Z</time></trkpt><trkpt lat="44.44877372637503" lon="8.97300388949647"><ele>47.0</ele><time>2026-04-05T14:02:28Z</time></trkpt><trkpt lat="44.44889924192985" lon="8.973159856550156"><ele>48.0</ele><time>2026-04-05T14:02:29Z</time></trkpt><trkpt lat="44.44904307666682" lon="8.973327549769936"><ele>50.66666666666667</ele><time>2026-04-05T14:02:30Z</time></trkpt><trkpt lat="44.44920263913878" lon="8.973503046125485"><ele>53.333333333333336</ele><time>2026-04-05T14:02:31Z</time></trkpt><trkpt lat="44.449354025925686" lon="8.973695013227836"><ele>56.0</ele><time>2026-04-05T14:02:32Z</time></trkpt><trkpt lat="44.44951073438259" lon="8.973899705376704"><ele>57.0</ele><time>2026-04-05T14:02:33Z</time></trkpt><trkpt lat="44.44968505378583" lon="8.974139779139088"><ele>58.0</ele><time>2026-04-05T14:02:34Z</time></trkpt><trkpt lat="44.449871283051074" lon="8.97438893567986"><ele>58.0</ele><time>2026-04-05T14:02:35Z</time></trkpt><trkpt lat="44.45005102691376" lon="8.974637228545369"><ele>58.0</ele><time>2026-04-05T14:02:35.999Z</time></trkpt><trkpt lat="44.45021700879674" lon="8.97486271203295"><ele>62.0</ele><time>2026-04-05T14:02:36.999Z</time></trkpt><trkpt lat="44.450391222122896" lon="8.975088656097215"><ele>66.0</ele><time>2026-04-05T14:02:37.999Z</time></trkpt><trkpt lat="44.450567252864985" lon="8.97531128730115"><ele>57.5</ele><time>2026-04-05T14:02:38.999Z</time></trkpt><trkpt lat="44.4507389353414" lon="8.97553545122139"><ele>49.0</ele><time>2026-04-05T14:02:39.999Z</time></trkpt><trkpt lat="44.45089769443762" lon="8.975761976054462"><ele>58.5</ele><time>2026-04-05T14:02:40.999Z</time></trkpt><trkpt lat="44.45105622786938" lon="8.975994938193473"><ele>68.0</ele><time>2026-04-05T14:02:41.999Z</time></trkpt><trkpt lat="44.45120386850318" lon="8.976225073839009"><ele>67.33333333333334</ele><time>2026-04-05T14:02:42.999Z</time></trkpt><trkpt lat="44.451346326510794" lon="8.976457921232441"><ele>66.66666666666667</ele><time>2026-04-05T14:02:43.999Z</time></trkpt><trkpt lat="44.45148062083417" lon="8.976697476821967"><ele>66.0</ele><time>2026-04-05T14:02:44.999Z</time></trkpt><trkpt lat="44.4516091189827" lon="8.976938617631955"><ele>66.0</ele><time>2026-04-05T14:02:45.999Z</time></trkpt><trkpt lat="44.451736448297375" lon="8.977185960495373"><ele>66.0</ele><time>2026-04-05T14:02:46.999Z</time></trkpt><trkpt lat="44.45186047490719" lon="8.977438286265517"><ele>66.0</ele><time>2026-04-05T14:02:47.999Z</time></trkpt><trkpt lat="44.451981304423256" lon="8.977697476734058"><ele>66.0</ele><time>2026-04-05T14:02:48.999Z</time></trkpt><trkpt lat="44.452094727092636" lon="8.977971016107777"><ele>66.0</ele><time>2026-04-05T14:02:49.999Z</time></trkpt><trkpt lat="44.45219724298935" lon="8.978239959264034"><ele>66.0</ele><time>2026-04-05T14:02:50.999Z</time></trkpt><trkpt lat="44.45230563530097" lon="8.978482071103539"><ele>66.0</ele><time>2026-04-05T14:02:51.999Z</time></trkpt><trkpt lat="44.45239858270193" lon="8.97873766064793"><ele>66.0</ele><time>2026-04-05T14:02:52.999Z</time></trkpt><trkpt lat="44.452480259327146" lon="8.978984347543093"><ele>66.0</ele><time>2026-04-05T14:02:53.999Z</time></trkpt><trkpt lat="44.45254833463526" lon="8.97923161295732"><ele>66.33333333333333</ele><time>2026-04-05T14:02:54.999Z</time></trkpt><trkpt lat="44.45260642467667" lon="8.979445351830478"><ele>66.66666666666666</ele><time>2026-04-05T14:02:55.999Z</time></trkpt><trkpt lat="44.45266138392511" lon="8.979687007202314"><ele>67.0</ele><time>2026-04-05T14:02:56.999Z</time></trkpt><trkpt lat="44.45272596929219" lon="8.979962858791016"><ele>66.0</ele><time>2026-04-05T14:02:57.999Z</time></trkpt><trkpt lat="44.45280784730922" lon="8.980243394308909"><ele>65.0</ele><time>2026-04-05T14:02:58.999Z</time></trkpt><trkpt lat="44.45287855041212" lon="8.980521633592977"><ele>64.0</ele><time>2026-04-05T14:02:59.999Z</time></trkpt><trkpt lat="44.45294889214036" lon="8.980813415793367"><ele>58.5</ele><time>2026-04-05T14:03:00.999Z</time></trkpt><trkpt lat="44.45302508930705" lon="8.981113814597705"><ele>53.0</ele><time>2026-04-05T14:03:01.999Z</time></trkpt><trkpt lat="44.453100066402214" lon="8.981424182742035"><ele>53.5</ele><time>2026-04-05T14:03:02.999Z</time></trkpt><trkpt lat="44.45317525735801" lon="8.981737036968688"><ele>54.0</ele><time>2026-04-05T14:03:03.999Z</time></trkpt><trkpt lat="44.453249460395305" lon="8.982041203810232"><ele>54.0</ele><time>2026-04-05T14:03:04.999Z</time></trkpt><trkpt lat="44.45331828418679" lon="8.982351324698893"><ele>54.0</ele><time>2026-04-05T14:03:05.999Z</time></trkpt><trkpt lat="44.45338234609553" lon="8.982643185434997"><ele>54.33333333333333</ele><time>2026-04-05T14:03:06.999Z</time></trkpt><trkpt lat="44.45343786287148" lon="8.982915213646043"><ele>54.666666666666664</ele><time>2026-04-05T14:03:07.999Z</time></trkpt><trkpt lat="44.45350076606464" lon="8.983186650756565"><ele>55.0</ele><time>2026-04-05T14:03:08.999Z</time></trkpt><trkpt lat="44.45357256753402" lon="8.983448555362285"><ele>56.0</ele><time>2026-04-05T14:03:09.999Z</time></trkpt><trkpt lat="44.45363119561089" lon="8.983691932777107"><ele>57.0</ele><time>2026-04-05T14:03:10.999Z</time></trkpt><trkpt lat="44.453681617956754" lon="8.983935263349053"><ele>58.0</ele><time>2026-04-05T14:03:11.999Z</time></trkpt><trkpt lat="44.45372233435475" lon="8.984180076424206"><ele>59.33333333333333</ele><time>2026-04-05T14:03:12.999Z</time></trkpt><trkpt lat="44.45374562228818" lon="8.984432961809896"><ele>60.66666666666667</ele><time>2026-04-05T14:03:13.999Z</time></trkpt><trkpt lat="44.45376354529784" lon="8.98470826199341"><ele>62.0</ele><time>2026-04-05T14:03:14.999Z</time></trkpt><trkpt lat="44.453778127510425" lon="8.985001000155316"><ele>65.66666666666667</ele><time>2026-04-05T14:03:15.999Z</time></trkpt><trkpt lat="44.453779511770435" lon="8.985255496779825"><ele>69.33333333333333</ele><time>2026-04-05T14:03:16.999Z</time></trkpt><trkpt lat="44.453778448296376" lon="8.985505439899333"><ele>73.0</ele><time>2026-04-05T14:03:17.999Z</time></trkpt><trkpt lat="44.453779671910965" lon="8.985754121384941"><ele>76.66666666666666</ele><time>2026-04-05T14:03:18.999Z</time></trkpt><trkpt lat="44.45376446268857" lon="8.986005969041203"><ele>80.33333333333333</ele><time>2026-04-05T14:03:19.999Z</time></trkpt><trkpt lat="44.45373291378422" lon="8.986265481423537"><ele>84.0</ele><time>2026-04-05T14:03:20.999Z</time></trkpt><trkpt lat="44.4536842571785" lon="8.986545365069304"><ele>78.5</ele><time>2026-04-05T14:03:21.999Z</time></trkpt><trkpt lat="44.453617151210686" lon="8.986844944718074"><ele>73.0</ele><time>2026-04-05T14:03:22.999Z</time></trkpt><trkpt lat="44.45354677905601" lon="8.987179712947382"><ele>66.0</ele><time>2026-04-05T14:03:23.999Z</time></trkpt><trkpt lat="44.45346672995627" lon="8.98753143665097"><ele>59.0</ele><time>2026-04-05T14:03:24.999Z</time></trkpt><trkpt lat="44.45333348807455" lon="8.987884624550984"><ele>59.0</ele><time>2026-04-05T14:03:25.999Z</time></trkpt><trkpt lat="44.45324122670462" lon="8.988204947018666"><ele>59.0</ele><time>2026-04-05T14:03:26.999Z</time></trkpt><trkpt lat="44.453173589411314" lon="8.988497208665255"><ele>59.333333333333336</ele><time>2026-04-05T14:03:27.999Z</time></trkpt><trkpt lat="44.45309904437281" lon="8.988769919363136"><ele>59.66666666666667</ele><time>2026-04-05T14:03:28.999Z</time></trkpt><trkpt lat="44.4530331381558" lon="8.989022334374365"><ele>60.0</ele><time>2026-04-05T14:03:29.999Z</time></trkpt><trkpt lat="44.452973292543646" lon="8.989261070406252"><ele>64.33333333333333</ele><time>2026-04-05T14:03:30.999Z</time></trkpt><trkpt lat="44.45292126032744" lon="8.98949466019325"><ele>68.66666666666666</ele><time>2026-04-05T14:03:31.999Z</time></trkpt><trkpt lat="44.45285924019533" lon="8.989728346239946"><ele>73.0</ele><time>2026-04-05T14:03:32.999Z</time></trkpt><trkpt lat="44.45278233121491" lon="8.98995887344637"><ele>70.0</ele><time>2026-04-05T14:03:34Z</time></trkpt><trkpt lat="44.452695122903094" lon="8.990172529696833"><ele>67.0</ele><time>2026-04-05T14:03:35Z</time></trkpt><trkpt lat="44.45259313847296" lon="8.99038464816243"><ele>64.0</ele><time>2026-04-05T14:03:36Z</time></trkpt><trkpt lat="44.45248839401636" lon="8.990573808658425"><ele>64.0</ele><time>2026-04-05T14:03:37Z</time></trkpt><trkpt lat="44.452372138639426" lon="8.990745488554643"><ele>64.0</ele><time>2026-04-05T14:03:38Z</time></trkpt><trkpt lat="44.452245841735014" lon="8.99091787064809"><ele>64.0</ele><time>2026-04-05T14:03:39Z</time></trkpt><trkpt lat="44.45212524828961" lon="8.991070247907453"><ele>64.75</ele><time>2026-04-05T14:03:40Z</time></trkpt><trkpt lat="44.45201999311074" lon="8.991200782206676"><ele>65.5</ele><time>2026-04-05T14:03:41Z</time></trkpt><trkpt lat="44.45191296756511" lon="8.991304086522126"><ele>66.25</ele><time>2026-04-05T14:03:42Z</time></trkpt><trkpt lat="44.4518066424874" lon="8.991382747123426"><ele>67.0</ele><time>2026-04-05T14:03:43Z</time></trkpt><trkpt lat="44.451693609392215" lon="8.991447945603095"><ele>67.0</ele><time>2026-04-05T14:03:44Z</time></trkpt><trkpt lat="44.451566710560606" lon="8.991476109271906"><ele>67.0</ele><time>2026-04-05T14:03:45Z</time></trkpt><trkpt lat="44.45142908967136" lon="8.991475172409483"><ele>67.0</ele><time>2026-04-05T14:03:46Z</time></trkpt><trkpt lat="44.45127986540094" lon="8.991453614387623"><ele>67.0</ele><time>2026-04-05T14:03:47Z</time></trkpt><trkpt lat="44.45111465645497" lon="8.991411960808637"><ele>69.0</ele><time>2026-04-05T14:03:48Z</time></trkpt><trkpt lat="44.45095115736845" lon="8.991382019376337"><ele>71.0</ele><time>2026-04-05T14:03:49Z</time></trkpt><trkpt lat="44.45078725926074" lon="8.991388464991752"><ele>73.0</ele><time>2026-04-05T14:03:50Z</time></trkpt><trkpt lat="44.45064406565198" lon="8.991416962080164"><ele>73.0</ele><time>2026-04-05T14:03:51Z</time></trkpt><trkpt lat="44.45050558761351" lon="8.991462950794768"><ele>73.0</ele><time>2026-04-05T14:03:52Z</time></trkpt><trkpt lat="44.450369412765276" lon="8.991515711453332"><ele>73.0</ele><time>2026-04-05T14:03:53Z</time></trkpt><trkpt lat="44.45025338946336" lon="8.991592955602869"><ele>73.0</ele><time>2026-04-05T14:03:54Z</time></trkpt><trkpt lat="44.45014831524412" lon="8.9916736017385"><ele>71.0</ele><time>2026-04-05T14:03:55Z</time></trkpt><trkpt lat="44.45005176097688" lon="8.991765076374085"><ele>69.0</ele><time>2026-04-05T14:03:56Z</time></trkpt><trkpt lat="44.449964250868135" lon="8.991866907428554"><ele>67.0</ele><time>2026-04-05T14:03:57Z</time></trkpt><trkpt lat="44.449885501337356" lon="8.99194974882804"><ele>65.0</ele><time>2026-04-05T14:03:58Z</time></trkpt><trkpt lat="44.449807814106805" lon="8.99208065931393"><ele>65.0</ele><time>2026-04-05T14:03:59Z</time></trkpt><trkpt lat="44.44972371223466" lon="8.992211378406"><ele>65.0</ele><time>2026-04-05T14:04:00Z</time></trkpt><trkpt lat="44.44965042235754" lon="8.992338802053297"><ele>65.0</ele><time>2026-04-05T14:04:01Z</time></trkpt><trkpt lat="44.4495750362408" lon="8.992463997538591"><ele>65.0</ele><time>2026-04-05T14:04:02Z</time></trkpt><trkpt lat="44.449499326092415" lon="8.992603110620387"><ele>66.25</ele><time>2026-04-05T14:04:03Z</time></trkpt><trkpt lat="44.44942585669889" lon="8.992740352672788"><ele>67.5</ele><time>2026-04-05T14:04:04Z</time></trkpt><trkpt lat="44.449353369902774" lon="8.992862291787265"><ele>68.75</ele><time>2026-04-05T14:04:05Z</time></trkpt><trkpt lat="44.44928136151622" lon="8.992989816701193"><ele>70.0</ele><time>2026-04-05T14:04:06Z</time></trkpt><trkpt lat="44.449216490704195" lon="8.9931152944578"><ele>70.0</ele><time>2026-04-05T14:04:07Z</time></trkpt><trkpt lat="44.4491507083116" lon="8.993252187259158"><ele>70.0</ele><time>2026-04-05T14:04:08Z</time></trkpt><trkpt lat="44.4490876975089" lon="8.993395440694982"><ele>70.0</ele><time>2026-04-05T14:04:09Z</time></trkpt><trkpt lat="44.44903725183345" lon="8.993536331397092"><ele>70.0</ele><time>2026-04-05T14:04:10Z</time></trkpt><trkpt lat="44.448982777462454" lon="8.993691505280117"><ele>70.0</ele><time>2026-04-05T14:04:11Z</time></trkpt><trkpt lat="44.44893594019695" lon="8.993852463745686"><ele>70.0</ele><time>2026-04-05T14:04:12Z</time></trkpt><trkpt lat="44.44888574706105" lon="8.994021114130566"><ele>70.0</ele><time>2026-04-05T14:04:13Z</time></trkpt><trkpt lat="44.44883849513243" lon="8.99421098061591"><ele>70.0</ele><time>2026-04-05T14:04:14Z</time></trkpt><trkpt lat="44.44878700541615" lon="8.994414686135991"><ele>70.66666666666666</ele><time>2026-04-05T14:04:15Z</time></trkpt><trkpt lat="44.44873622723116" lon="8.994652539552199"><ele>71.33333333333333</ele><time>2026-04-05T14:04:16Z</time></trkpt><trkpt lat="44.44867466569805" lon="8.994883369443068"><ele>72.0</ele><time>2026-04-05T14:04:17Z</time></trkpt><trkpt lat="44.44860996799216" lon="8.99513833986829"><ele>70.0</ele><time>2026-04-05T14:04:18Z</time></trkpt><trkpt lat="44.44854101962937" lon="8.995417305269907"><ele>68.0</ele><time>2026-04-05T14:04:19Z</time></trkpt><trkpt lat="44.44846325318783" lon="8.995741464540933"><ele>68.0</ele><time>2026-04-05T14:04:20Z</time></trkpt><trkpt lat="44.44838965574511" lon="8.996009608045924"><ele>68.0</ele><time>2026-04-05T14:04:21Z</time></trkpt><trkpt lat="44.44832617315642" lon="8.996234179391942"><ele>68.0</ele><time>2026-04-05T14:04:22Z</time></trkpt><trkpt lat="44.44826846727981" lon="8.996444465366835"><ele>68.0</ele><time>2026-04-05T14:04:23Z</time></trkpt><trkpt lat="44.448217845013716" lon="8.99664001594616"><ele>68.0</ele><time>2026-04-05T14:04:24Z</time></trkpt><trkpt lat="44.44817046615764" lon="8.996844331809239"><ele>68.0</ele><time>2026-04-05T14:04:25Z</time></trkpt><trkpt lat="44.44811619094441" lon="8.99707525870553"><ele>68.0</ele><time>2026-04-05T14:04:26Z</time></trkpt><trkpt lat="44.44804827413564" lon="8.997337034946366"><ele>68.0</ele><time>2026-04-05T14:04:27Z</time></trkpt><trkpt lat="44.447964685325005" lon="8.997628531682782"><ele>68.0</ele><time>2026-04-05T14:04:28Z</time></trkpt><trkpt lat="44.44788203585874" lon="8.997890551745142"><ele>69.66666666666667</ele><time>2026-04-05T14:04:29Z</time></trkpt><trkpt lat="44.4478144435463" lon="8.998125510641444"><ele>71.33333333333333</ele><time>2026-04-05T14:04:30Z</time></trkpt><trkpt lat="44.44774793846221" lon="8.998371504936381"><ele>73.0</ele><time>2026-04-05T14:04:31Z</time></trkpt><trkpt lat="44.44768537581004" lon="8.998633285583916"><ele>73.33333333333333</ele><time>2026-04-05T14:04:32Z</time></trkpt><trkpt lat="44.447618947582654" lon="8.99889402274851"><ele>73.66666666666667</ele><time>2026-04-05T14:04:33Z</time></trkpt><trkpt lat="44.44755927442985" lon="8.999132969640764"><ele>74.0</ele><time>2026-04-05T14:04:34Z</time></trkpt><trkpt lat="44.44750251822773" lon="8.999363103052632"><ele>74.0</ele><time>2026-04-05T14:04:35Z</time></trkpt><trkpt lat="44.44744526971312" lon="8.999607717422093"><ele>74.0</ele><time>2026-04-05T14:04:36Z</time></trkpt><trkpt lat="44.447390621546305" lon="8.99983848489898"><ele>74.0</ele><time>2026-04-05T14:04:37Z</time></trkpt><trkpt lat="44.44733984447174" lon="9.000044428663674"><ele>74.0</ele><time>2026-04-05T14:04:38Z</time></trkpt><trkpt lat="44.447287480252896" lon="9.000252709845922"><ele>74.0</ele><time>2026-04-05T14:04:39Z</time></trkpt><trkpt lat="44.44723612361391" lon="9.00044228110318"><ele>74.0</ele><time>2026-04-05T14:04:39.999Z</time></trkpt><trkpt lat="44.44719842006103" lon="9.000620156068651"><ele>74.0</ele><time>2026-04-05T14:04:40.999Z</time></trkpt><trkpt lat="44.447153746460074" lon="9.000801260464272"><ele>75.33333333333334</ele><time>2026-04-05T14:04:41.999Z</time></trkpt><trkpt lat="44.44710080930283" lon="9.001013223854768"><ele>76.66666666666667</ele><time>2026-04-05T14:04:42.999Z</time></trkpt><trkpt lat="44.447055177160884" lon="9.001244479495579"><ele>78.0</ele><time>2026-04-05T14:04:43.999Z</time></trkpt><trkpt lat="44.44701313645966" lon="9.001522079180326"><ele>77.0</ele><time>2026-04-05T14:04:44.999Z</time></trkpt><trkpt lat="44.446972288622234" lon="9.0018364800252"><ele>76.0</ele><time>2026-04-05T14:04:45.999Z</time></trkpt><trkpt lat="44.44692788188684" lon="9.002169750169585"><ele>78.0</ele><time>2026-04-05T14:04:46.999Z</time></trkpt><trkpt lat="44.44688312005869" lon="9.002514907555314"><ele>80.0</ele><time>2026-04-05T14:04:47.999Z</time></trkpt><trkpt lat="44.44684520311568" lon="9.002817429065448"><ele>80.0</ele><time>2026-04-05T14:04:48.999Z</time></trkpt><trkpt lat="44.44680862400361" lon="9.003096910495007"><ele>80.0</ele><time>2026-04-05T14:04:49.999Z</time></trkpt><trkpt lat="44.44677801699091" lon="9.003339900473133"><ele>80.0</ele><time>2026-04-05T14:04:50.999Z</time></trkpt><trkpt lat="44.44675006572185" lon="9.003604086256209"><ele>82.66666666666667</ele><time>2026-04-05T14:04:51.999Z</time></trkpt><trkpt lat="44.446744749177434" lon="9.003885645040977"><ele>85.33333333333333</ele><time>2026-04-05T14:04:52.999Z</time></trkpt><trkpt lat="44.446746672709125" lon="9.004167630990432"><ele>88.0</ele><time>2026-04-05T14:04:53.999Z</time></trkpt><trkpt lat="44.4467624162073" lon="9.004447512289156"><ele>89.33333333333333</ele><time>2026-04-05T14:04:54.999Z</time></trkpt><trkpt lat="44.4467776530929" lon="9.004727553537593"><ele>90.66666666666667</ele><time>2026-04-05T14:04:55.999Z</time></trkpt><trkpt lat="44.446808462332335" lon="9.005003472331754"><ele>92.0</ele><time>2026-04-05T14:04:56.999Z</time></trkpt><trkpt lat="44.44684553160976" lon="9.005274084484247"><ele>92.33333333333334</ele><time>2026-04-05T14:04:57.999Z</time></trkpt><trkpt lat="44.44688403645529" lon="9.00554019670248"><ele>92.66666666666667</ele><time>2026-04-05T14:04:58.999Z</time></trkpt><trkpt lat="44.446926888883056" lon="9.005787137133499"><ele>93.0</ele><time>2026-04-05T14:04:59.999Z</time></trkpt><trkpt lat="44.446987352491625" lon="9.006046202201446"><ele>95.66666666666666</ele><time>2026-04-05T14:05:00.999Z</time></trkpt><trkpt lat="44.44705040446167" lon="9.006288730575722"><ele>98.33333333333333</ele><time>2026-04-05T14:05:01.999Z</time></trkpt><trkpt lat="44.4471257078526" lon="9.006531726817137"><ele>101.0</ele><time>2026-04-05T14:05:02.999Z</time></trkpt><trkpt lat="44.44720504874004" lon="9.006773084937892"><ele>93.0</ele><time>2026-04-05T14:05:03.999Z</time></trkpt><trkpt lat="44.44729003864754" lon="9.007013428473542"><ele>85.0</ele><time>2026-04-05T14:05:04.999Z</time></trkpt><trkpt lat="44.44737640931407" lon="9.007249849157278"><ele>77.0</ele><time>2026-04-05T14:05:05.999Z</time></trkpt><trkpt lat="44.44746057172697" lon="9.007478589835115"><ele>77.33333333333334</ele><time>2026-04-05T14:05:06.999Z</time></trkpt><trkpt lat="44.44754737934193" lon="9.00772332003397"><ele>77.66666666666667</ele><time>2026-04-05T14:05:07.999Z</time></trkpt><trkpt lat="44.44762789475077" lon="9.007950891212388"><ele>78.0</ele><time>2026-04-05T14:05:08.999Z</time></trkpt><trkpt lat="44.447693220503325" lon="9.008200448873872"><ele>80.0</ele><time>2026-04-05T14:05:09.999Z</time></trkpt><trkpt lat="44.44776533221018" lon="9.008421546522408"><ele>82.0</ele><time>2026-04-05T14:05:10.999Z</time></trkpt><trkpt lat="44.44782821340097" lon="9.008629966996981"><ele>84.0</ele><time>2026-04-05T14:05:11.999Z</time></trkpt><trkpt lat="44.447878625667514" lon="9.00881527692501"><ele>84.0</ele><time>2026-04-05T14:05:12.999Z</time></trkpt><trkpt lat="44.44792700444613" lon="9.00900177653155"><ele>84.0</ele><time>2026-04-05T14:05:13.999Z</time></trkpt><trkpt lat="44.447992146012645" lon="9.009201004028435"><ele>84.0</ele><time>2026-04-05T14:05:14.999Z</time></trkpt><trkpt lat="44.44804763030589" lon="9.009427637350168"><ele>82.33333333333333</ele><time>2026-04-05T14:05:15.999Z</time></trkpt><trkpt lat="44.44809484701754" lon="9.009663598698205"><ele>80.66666666666666</ele><time>2026-04-05T14:05:16.999Z</time></trkpt><trkpt lat="44.44814804529334" lon="9.00990286607719"><ele>79.0</ele><time>2026-04-05T14:05:17.999Z</time></trkpt><trkpt lat="44.44820748494113" lon="9.010142156830831"><ele>79.0</ele><time>2026-04-05T14:05:18.999Z</time></trkpt><trkpt lat="44.44825331023838" lon="9.01038219776521"><ele>79.0</ele><time>2026-04-05T14:05:19.999Z</time></trkpt><trkpt lat="44.448301589845975" lon="9.01062647508435"><ele>79.0</ele><time>2026-04-05T14:05:20.999Z</time></trkpt><trkpt lat="44.44835494909325" lon="9.010899208011184"><ele>80.0</ele><time>2026-04-05T14:05:21.999Z</time></trkpt><trkpt lat="44.44841234949378" lon="9.01116476406393"><ele>81.0</ele><time>2026-04-05T14:05:22.999Z</time></trkpt><trkpt lat="44.44846255973944" lon="9.011413671523721"><ele>82.0</ele><time>2026-04-05T14:05:23.999Z</time></trkpt><trkpt lat="44.44851409394489" lon="9.011665536410636"><ele>82.0</ele><time>2026-04-05T14:05:24.999Z</time></trkpt><trkpt lat="44.44854151800359" lon="9.011930089183759"><ele>82.0</ele><time>2026-04-05T14:05:25.999Z</time></trkpt><trkpt lat="44.448577560242896" lon="9.01217977677972"><ele>82.0</ele><time>2026-04-05T14:05:26.999Z</time></trkpt><trkpt lat="44.448608031763534" lon="9.012405919628456"><ele>81.66666666666666</ele><time>2026-04-05T14:05:27.999Z</time></trkpt><trkpt lat="44.4486487733214" lon="9.012610776468113"><ele>81.33333333333333</ele><time>2026-04-05T14:05:28.999Z</time></trkpt><trkpt lat="44.448671655102174" lon="9.012826293309882"><ele>81.0</ele><time>2026-04-05T14:05:29.999Z</time></trkpt><trkpt lat="44.448685851465186" lon="9.013048589034508"><ele>81.0</ele><time>2026-04-05T14:05:30.999Z</time></trkpt><trkpt lat="44.4487047231605" lon="9.013278378908023"><ele>81.0</ele><time>2026-04-05T14:05:31.999Z</time></trkpt><trkpt lat="44.4487207445205" lon="9.013487070147194"><ele>81.0</ele><time>2026-04-05T14:05:32.999Z</time></trkpt><trkpt lat="44.4487275434427" lon="9.013677827926347"><ele>81.4</ele><time>2026-04-05T14:05:33.999Z</time></trkpt><trkpt lat="44.44874038538235" lon="9.013852284639595"><ele>81.8</ele><time>2026-04-05T14:05:34.999Z</time></trkpt><trkpt lat="44.448744507036345" lon="9.014001851382973"><ele>82.2</ele><time>2026-04-05T14:05:35.999Z</time></trkpt><trkpt lat="44.448741001948875" lon="9.014145306304412"><ele>82.60000000000001</ele><time>2026-04-05T14:05:36.999Z</time></trkpt><trkpt lat="44.4487282262972" lon="9.014281984432383"><ele>83.0</ele><time>2026-04-05T14:05:37.999Z</time></trkpt><trkpt lat="44.44871381222313" lon="9.014406279545243"><ele>83.16666666666667</ele><time>2026-04-05T14:05:38.999Z</time></trkpt><trkpt lat="44.44870134054837" lon="9.014518708844516"><ele>83.33333333333334</ele><time>2026-04-05T14:05:40Z</time></trkpt><trkpt lat="44.44867560772767" lon="9.014634732407844"><ele>83.5</ele><time>2026-04-05T14:05:41Z</time></trkpt><trkpt lat="44.448646245748364" lon="9.014758576352609"><ele>83.66666666666667</ele><time>2026-04-05T14:05:42Z</time></trkpt><trkpt lat="44.44862121059565" lon="9.014866803862217"><ele>83.83333333333333</ele><time>2026-04-05T14:05:43Z</time></trkpt><trkpt lat="44.448624956931475" lon="9.014964495540465"><ele>84.0</ele><time>2026-04-05T14:05:44Z</time></trkpt><trkpt lat="44.44865952379358" lon="9.015058000057392"><ele>84.25</ele><time>2026-04-05T14:05:45Z</time></trkpt><trkpt lat="44.44872393471228" lon="9.015162903150713"><ele>84.5</ele><time>2026-04-05T14:05:46Z</time></trkpt><trkpt lat="44.44877578148595" lon="9.01528658833459"><ele>84.75</ele><time>2026-04-05T14:05:47Z</time></trkpt><trkpt lat="44.44879262498448" lon="9.015443704250213"><ele>85.0</ele><time>2026-04-05T14:05:48Z</time></trkpt><trkpt lat="44.448792792941234" lon="9.015661776364892"><ele>84.33333333333333</ele><time>2026-04-05T14:05:49Z</time></trkpt><trkpt lat="44.44879266484572" lon="9.015916331947063"><ele>83.66666666666667</ele><time>2026-04-05T14:05:50Z</time></trkpt><trkpt lat="44.44878416888041" lon="9.016188596971308"><ele>83.0</ele><time>2026-04-05T14:05:51Z</time></trkpt><trkpt lat="44.44878014221246" lon="9.016424648551176"><ele>83.0</ele><time>2026-04-05T14:05:52Z</time></trkpt><trkpt lat="44.448780206235355" lon="9.016644036947504"><ele>83.0</ele><time>2026-04-05T14:05:53Z</time></trkpt><trkpt lat="44.448781667159004" lon="9.016846752180351"><ele>83.0</ele><time>2026-04-05T14:05:54Z</time></trkpt><trkpt lat="44.44878365482628" lon="9.017059023886429"><ele>83.25</ele><time>2026-04-05T14:05:55Z</time></trkpt><trkpt lat="44.448785336067516" lon="9.017263342731423"><ele>83.5</ele><time>2026-04-05T14:05:56Z</time></trkpt><trkpt lat="44.448787693919414" lon="9.017469632830025"><ele>83.75</ele><time>2026-04-05T14:05:57Z</time></trkpt><trkpt lat="44.44878614181082" lon="9.017674966970109"><ele>84.0</ele><time>2026-04-05T14:05:58Z</time></trkpt><trkpt lat="44.44879349525142" lon="9.017886503294712"><ele>84.0</ele><time>2026-04-05T14:05:59Z</time></trkpt><trkpt lat="44.44879540287552" lon="9.018120033032773"><ele>84.0</ele><time>2026-04-05T14:06:00Z</time></trkpt><trkpt lat="44.44878698222641" lon="9.018360156635458"><ele>84.0</ele><time>2026-04-05T14:06:01Z</time></trkpt><trkpt lat="44.44876791737102" lon="9.018570209044407"><ele>86.0</ele><time>2026-04-05T14:06:02Z</time></trkpt><trkpt lat="44.448749893133495" lon="9.018784842377974"><ele>88.0</ele><time>2026-04-05T14:06:03Z</time></trkpt><trkpt lat="44.44872879983967" lon="9.019016113335951"><ele>90.0</ele><time>2026-04-05T14:06:04Z</time></trkpt><trkpt lat="44.44870176402241" lon="9.019266377504593"><ele>93.0</ele><time>2026-04-05T14:06:05Z</time></trkpt><trkpt lat="44.44867157668343" lon="9.01954706038496"><ele>96.0</ele><time>2026-04-05T14:06:06Z</time></trkpt><trkpt lat="44.4486309642753" lon="9.019839332958686"><ele>99.0</ele><time>2026-04-05T14:06:07Z</time></trkpt><trkpt lat="44.44858984961219" lon="9.020092961686634"><ele>97.66666666666667</ele><time>2026-04-05T14:06:08Z</time></trkpt><trkpt lat="44.44854679227909" lon="9.020344514733013"><ele>96.33333333333334</ele><time>2026-04-05T14:06:09Z</time></trkpt><trkpt lat="44.448505445562176" lon="9.020601656836043"><ele>95.0</ele><time>2026-04-05T14:06:10Z</time></trkpt><trkpt lat="44.44846591491799" lon="9.020866497899304"><ele>95.0</ele><time>2026-04-05T14:06:11Z</time></trkpt><trkpt lat="44.44843928521844" lon="9.021145610319484"><ele>95.0</ele><time>2026-04-05T14:06:12Z</time></trkpt><trkpt lat="44.448418004550334" lon="9.021419079372139"><ele>95.0</ele><time>2026-04-05T14:06:13Z</time></trkpt><trkpt lat="44.44840261646676" lon="9.02170605760661"><ele>94.0</ele><time>2026-04-05T14:06:14Z</time></trkpt><trkpt lat="44.44838964982031" lon="9.021985673215443"><ele>93.0</ele><time>2026-04-05T14:06:15Z</time></trkpt><trkpt lat="44.44838391914948" lon="9.022270344678518"><ele>92.0</ele><time>2026-04-05T14:06:16Z</time></trkpt><trkpt lat="44.44837765800935" lon="9.022537686455072"><ele>95.33333333333334</ele><time>2026-04-05T14:06:17Z</time></trkpt><trkpt lat="44.4483741668752" lon="9.02278201176659"><ele>98.66666666666667</ele><time>2026-04-05T14:06:18Z</time></trkpt><trkpt lat="44.448372013713154" lon="9.023032892720439"><ele>102.0</ele><time>2026-04-05T14:06:19Z</time></trkpt><trkpt lat="44.44837190886676" lon="9.023296248188945"><ele>110.0</ele><time>2026-04-05T14:06:20Z</time></trkpt><trkpt lat="44.44837740836163" lon="9.023578873845766"><ele>118.0</ele><time>2026-04-05T14:06:21Z</time></trkpt><trkpt lat="44.44839247071594" lon="9.023867308757431"><ele>126.0</ele><time>2026-04-05T14:06:22.019Z</time></trkpt><trkpt lat="44.44841602178058" lon="9.024136906075936"><ele>129.66666666666666</ele><time>2026-04-05T14:06:23.017Z</time></trkpt><trkpt lat="44.448446866307854" lon="9.024399444432557"><ele>133.33333333333331</ele><time>2026-04-05T14:06:24.018Z</time></trkpt><trkpt lat="44.44849050075612" lon="9.024671608798133"><ele>137.0</ele><time>2026-04-05T14:06:25.017Z</time></trkpt><trkpt lat="44.44879397570765" lon="9.025746197038048"><ele>140.66666666666666</ele><time>2026-04-05T14:06:29.138Z</time></trkpt><trkpt lat="44.44890584805235" lon="9.025979851466667"><ele>144.33333333333334</ele><time>2026-04-05T14:06:30.143Z</time></trkpt><trkpt lat="44.44899757130382" lon="9.02622895183998"><ele>148.0</ele><time>2026-04-05T14:06:31.143Z</time></trkpt><trkpt lat="44.44911371764481" lon="9.026456206751075"><ele>144.5</ele><time>2026-04-05T14:06:32.142Z</time></trkpt><trkpt lat="44.44923564848312" lon="9.026678000982303"><ele>141.0</ele><time>2026-04-05T14:06:33.143Z</time></trkpt><trkpt lat="44.450045186136336" lon="9.02768933215088"><ele>137.33333333333334</ele><time>2026-04-05T14:06:40Z</time></trkpt><trkpt lat="44.45015611417994" lon="9.027885276415986"><ele>133.66666666666669</ele><time>2026-04-05T14:06:41Z</time></trkpt><trkpt lat="44.45039980286974" lon="9.028010845371911"><ele>130.0</ele><time>2026-04-05T14:06:42Z</time></trkpt><trkpt lat="44.45051910743129" lon="9.028083030722689"><ele>130.0</ele><time>2026-04-05T14:06:43Z</time></trkpt><trkpt lat="44.450586230289694" lon="9.028242328639696"><ele>130.0</ele><time>2026-04-05T14:06:44Z</time></trkpt><trkpt lat="44.45070639238551" lon="9.028291822324034"><ele>130.0</ele><time>2026-04-05T14:06:45Z</time></trkpt><trkpt lat="44.45077334197661" lon="9.028383658282658"><ele>130.0</ele><time>2026-04-05T14:06:46Z</time></trkpt><trkpt lat="44.450816158021645" lon="9.028525379062716"><ele>127.2</ele><time>2026-04-05T14:06:46.999Z</time></trkpt><trkpt lat="44.45086930111059" lon="9.028607077854781"><ele>124.4</ele><time>2026-04-05T14:06:47.999Z</time></trkpt><trkpt lat="44.450887703450334" lon="9.028719280706344"><ele>121.6</ele><time>2026-04-05T14:06:48.999Z</time></trkpt><trkpt lat="44.45084444330303" lon="9.028843143419326"><ele>118.8</ele><time>2026-04-05T14:06:49.999Z</time></trkpt><trkpt lat="44.45082455907147" lon="9.028946494439417"><ele>116.0</ele><time>2026-04-05T14:06:50.999Z</time></trkpt><trkpt lat="44.45075162960624" lon="9.029087598409012"><ele>114.25</ele><time>2026-04-05T14:06:51.999Z</time></trkpt><trkpt lat="44.45067770335542" lon="9.029241309065664"><ele>112.5</ele><time>2026-04-05T14:06:52.999Z</time></trkpt><trkpt lat="44.450566666269374" lon="9.029366568092948"><ele>110.75</ele><time>2026-04-05T14:06:53.999Z</time></trkpt><trkpt lat="44.45044213042147" lon="9.029471788814842"><ele>109.0</ele><time>2026-04-05T14:06:54.999Z</time></trkpt><trkpt lat="44.45034240069349" lon="9.029604247886006"><ele>117.25</ele><time>2026-04-05T14:06:55.999Z</time></trkpt><trkpt lat="44.45025077807192" lon="9.029728181733615"><ele>125.5</ele><time>2026-04-05T14:06:56.999Z</time></trkpt><trkpt lat="44.45019200029816" lon="9.029852194410218"><ele>133.75</ele><time>2026-04-05T14:06:57.999Z</time></trkpt><trkpt lat="44.4501469593795" lon="9.030008327500713"><ele>142.0</ele><time>2026-04-05T14:06:58.999Z</time></trkpt><trkpt lat="44.450111246878194" lon="9.030159172186286"><ele>142.0</ele><time>2026-04-05T14:06:59.999Z</time></trkpt><trkpt lat="44.45009660625756" lon="9.03029528124402"><ele>142.0</ele><time>2026-04-05T14:07:00.999Z</time></trkpt><trkpt lat="44.45010185394853" lon="9.03045868121991"><ele>142.0</ele><time>2026-04-05T14:07:01.999Z</time></trkpt><trkpt lat="44.450111519796216" lon="9.030610646272434"><ele>142.0</ele><time>2026-04-05T14:07:02.999Z</time></trkpt><trkpt lat="44.45013505475986" lon="9.030746164561075"><ele>142.0</ele><time>2026-04-05T14:07:03.999Z</time></trkpt><trkpt lat="44.45019361342554" lon="9.030884435017732"><ele>143.0</ele><time>2026-04-05T14:07:04.999Z</time></trkpt><trkpt lat="44.450262100467114" lon="9.03102331485461"><ele>144.0</ele><time>2026-04-05T14:07:05.999Z</time></trkpt><trkpt lat="44.450336595453265" lon="9.031176707695293"><ele>145.0</ele><time>2026-04-05T14:07:06.999Z</time></trkpt><trkpt lat="44.450436629614096" lon="9.031347063362881"><ele>146.0</ele><time>2026-04-05T14:07:07.999Z</time></trkpt><trkpt lat="44.45056156610014" lon="9.031480229596418"><ele>139.0</ele><time>2026-04-05T14:07:08.999Z</time></trkpt><trkpt lat="44.4506868024638" lon="9.031573570583515"><ele>132.0</ele><time>2026-04-05T14:07:09.999Z</time></trkpt><trkpt lat="44.45082823073859" lon="9.031692092036419"><ele>125.0</ele><time>2026-04-05T14:07:10.999Z</time></trkpt><trkpt lat="44.450986996174045" lon="9.03183902300993"><ele>124.5</ele><time>2026-04-05T14:07:11.999Z</time></trkpt><trkpt lat="44.45111871814571" lon="9.031954887186767"><ele>124.0</ele><time>2026-04-05T14:07:12.999Z</time></trkpt><trkpt lat="44.45121633564659" lon="9.032048584612305"><ele>123.5</ele><time>2026-04-05T14:07:13.999Z</time></trkpt><trkpt lat="44.45129511655277" lon="9.03214439555765"><ele>123.0</ele><time>2026-04-05T14:07:14.999Z</time></trkpt><trkpt lat="44.451350839797925" lon="9.032234727120226"><ele>123.0</ele><time>2026-04-05T14:07:15.999Z</time></trkpt><trkpt lat="44.45137304139782" lon="9.032391906250933"><ele>123.00000000000001</ele><time>2026-04-05T14:07:16.999Z</time></trkpt><trkpt lat="44.451366854282945" lon="9.0325637481304"><ele>123.00000000000001</ele><time>2026-04-05T14:07:17.999Z</time></trkpt><trkpt lat="44.45133710901044" lon="9.03267583822691"><ele>123.0</ele><time>2026-04-05T14:07:18.999Z</time></trkpt><trkpt lat="44.45129725015232" lon="9.032752869649451"><ele>123.0</ele><time>2026-04-05T14:07:19.999Z</time></trkpt><trkpt lat="44.45122031742395" lon="9.032828524390483"><ele>124.0</ele><time>2026-04-05T14:07:20.999Z</time></trkpt><trkpt lat="44.45110635689127" lon="9.032901143166699"><ele>125.0</ele><time>2026-04-05T14:07:21.999Z</time></trkpt><trkpt lat="44.45095827672692" lon="9.032953152103802"><ele>126.0</ele><time>2026-04-05T14:07:22.999Z</time></trkpt><trkpt lat="44.45080169391838" lon="9.033017426971796"><ele>127.0</ele><time>2026-04-05T14:07:23.999Z</time></trkpt><trkpt lat="44.45061160026342" lon="9.033087734469769"><ele>130.0</ele><time>2026-04-05T14:07:24.999Z</time></trkpt><trkpt lat="44.450426470496964" lon="9.033159622490636"><ele>133.0</ele><time>2026-04-05T14:07:25.999Z</time></trkpt><trkpt lat="44.45022694191593" lon="9.033272871098736"><ele>136.0</ele><time>2026-04-05T14:07:26.999Z</time></trkpt><trkpt lat="44.450049347985896" lon="9.033406745707591"><ele>136.0</ele><time>2026-04-05T14:07:27.999Z</time></trkpt><trkpt lat="44.449908728182585" lon="9.033540372103856"><ele>136.0</ele><time>2026-04-05T14:07:28.999Z</time></trkpt><trkpt lat="44.44978127241655" lon="9.033660042595438"><ele>136.0</ele><time>2026-04-05T14:07:29.999Z</time></trkpt><trkpt lat="44.44967152001631" lon="9.033774196021739"><ele>143.0</ele><time>2026-04-05T14:07:30.999Z</time></trkpt><trkpt lat="44.44957241156265" lon="9.03389964363598"><ele>150.0</ele><time>2026-04-05T14:07:31.999Z</time></trkpt><trkpt lat="44.449469818424085" lon="9.034015286986783"><ele>157.0</ele><time>2026-04-05T14:07:32.999Z</time></trkpt><trkpt lat="44.44938484178249" lon="9.03415214078936"><ele>164.0</ele><time>2026-04-05T14:07:33.999Z</time></trkpt><trkpt lat="44.44931435921681" lon="9.034322621957028"><ele>164.0</ele><time>2026-04-05T14:07:34.999Z</time></trkpt><trkpt lat="44.44925235833197" lon="9.034516881445862"><ele>164.0</ele><time>2026-04-05T14:07:35.999Z</time></trkpt><trkpt lat="44.4492026811754" lon="9.034729153250147"><ele>164.0</ele><time>2026-04-05T14:07:36.999Z</time></trkpt><trkpt lat="44.449143371045885" lon="9.034896940830393"><ele>164.0</ele><time>2026-04-05T14:07:37.999Z</time></trkpt><trkpt lat="44.449091348249496" lon="9.035085804524629"><ele>158.75</ele><time>2026-04-05T14:07:38.999Z</time></trkpt><trkpt lat="44.44905045243503" lon="9.035290770440747"><ele>153.5</ele><time>2026-04-05T14:07:39.999Z</time></trkpt><trkpt lat="44.4490121266438" lon="9.035489516632266"><ele>148.25</ele><time>2026-04-05T14:07:40.999Z</time></trkpt><trkpt lat="44.44899221825897" lon="9.035673269989069"><ele>143.0</ele><time>2026-04-05T14:07:41.999Z</time></trkpt><trkpt lat="44.44894477482323" lon="9.035837920777489"><ele>142.4</ele><time>2026-04-05T14:07:42.999Z</time></trkpt><trkpt lat="44.4489486144585" lon="9.036015706033913"><ele>141.8</ele><time>2026-04-05T14:07:43.999Z</time></trkpt><trkpt lat="44.44891892576367" lon="9.036159717301162"><ele>141.2</ele><time>2026-04-05T14:07:44.999Z</time></trkpt><trkpt lat="44.448892867206155" lon="9.036289451696666"><ele>140.6</ele><time>2026-04-05T14:07:46Z</time></trkpt><trkpt lat="44.44892502588611" lon="9.036428690916706"><ele>140.0</ele><time>2026-04-05T14:07:47Z</time></trkpt><trkpt lat="44.44900072848605" lon="9.036550784620255"><ele>140.8</ele><time>2026-04-05T14:07:48Z</time></trkpt><trkpt lat="44.449077524047496" lon="9.036678924926736"><ele>141.6</ele><time>2026-04-05T14:07:49Z</time></trkpt><trkpt lat="44.44911965372212" lon="9.036786283186549"><ele>142.4</ele><time>2026-04-05T14:07:50Z</time></trkpt><trkpt lat="44.449174680485754" lon="9.036921367512704"><ele>143.2</ele><time>2026-04-05T14:07:51Z</time></trkpt><trkpt lat="44.4491983221883" lon="9.037041980112347"><ele>144.0</ele><time>2026-04-05T14:07:52Z</time></trkpt><trkpt lat="44.44916922714801" lon="9.037172396304046"><ele>144.0</ele><time>2026-04-05T14:07:53Z</time></trkpt><trkpt lat="44.44910726914634" lon="9.037279872518129"><ele>144.0</ele><time>2026-04-05T14:07:54Z</time></trkpt><trkpt lat="44.44902428219637" lon="9.037376080311024"><ele>144.0</ele><time>2026-04-05T14:07:55Z</time></trkpt><trkpt lat="44.44892125898594" lon="9.037429539503735"><ele>144.0</ele><time>2026-04-05T14:07:56Z</time></trkpt><trkpt lat="44.44880349877838" lon="9.037444495703795"><ele>144.0</ele><time>2026-04-05T14:07:57Z</time></trkpt><trkpt lat="44.44864635170101" lon="9.037427252753414"><ele>147.33333333333334</ele><time>2026-04-05T14:07:58Z</time></trkpt><trkpt lat="44.4484899862096" lon="9.037421145731466"><ele>150.66666666666669</ele><time>2026-04-05T14:07:59Z</time></trkpt><trkpt lat="44.4483219877034" lon="9.037455299903074"><ele>154.0</ele><time>2026-04-05T14:08:00Z</time></trkpt><trkpt lat="44.44817028672029" lon="9.037499959230196"><ele>154.0</ele><time>2026-04-05T14:08:01Z</time></trkpt><trkpt lat="44.448015804634295" lon="9.0375928500477"><ele>154.0</ele><time>2026-04-05T14:08:02Z</time></trkpt><trkpt lat="44.447887039648485" lon="9.03764752317581"><ele>154.0</ele><time>2026-04-05T14:08:03Z</time></trkpt><trkpt lat="44.44777277354773" lon="9.037714154770137"><ele>154.0</ele><time>2026-04-05T14:08:04Z</time></trkpt><trkpt lat="44.44767022478889" lon="9.037764163446765"><ele>160.0</ele><time>2026-04-05T14:08:05Z</time></trkpt><trkpt lat="44.44756922944688" lon="9.037824531294765"><ele>166.0</ele><time>2026-04-05T14:08:06Z</time></trkpt><trkpt lat="44.44744287168757" lon="9.037814895630863"><ele>172.0</ele><time>2026-04-05T14:08:07Z</time></trkpt><trkpt lat="44.447341809397635" lon="9.037812023252616"><ele>178.0</ele><time>2026-04-05T14:08:08Z</time></trkpt><trkpt lat="44.44722973848732" lon="9.037774281979072"><ele>182.5</ele><time>2026-04-05T14:08:09Z</time></trkpt><trkpt lat="44.44711138873117" lon="9.03774812096653"><ele>187.0</ele><time>2026-04-05T14:08:10Z</time></trkpt><trkpt lat="44.446990024544675" lon="9.03772941169285"><ele>191.5</ele><time>2026-04-05T14:08:11Z</time></trkpt><trkpt lat="44.446874346850755" lon="9.037773219809695"><ele>196.0</ele><time>2026-04-05T14:08:12Z</time></trkpt><trkpt lat="44.446767222569086" lon="9.037792074309515"><ele>196.0</ele><time>2026-04-05T14:08:13Z</time></trkpt><trkpt lat="44.446644563705604" lon="9.037863330648007"><ele>196.0</ele><time>2026-04-05T14:08:14Z</time></trkpt><trkpt lat="44.44651783720737" lon="9.037914358947189"><ele>196.0</ele><time>2026-04-05T14:08:15Z</time></trkpt><trkpt lat="44.446387388411125" lon="9.03796039475727"><ele>196.0</ele><time>2026-04-05T14:08:16Z</time></trkpt><trkpt lat="44.44626053272566" lon="9.03803945855967"><ele>188.33333333333331</ele><time>2026-04-05T14:08:17Z</time></trkpt><trkpt lat="44.44613801403234" lon="9.038148537245442"><ele>180.66666666666666</ele><time>2026-04-05T14:08:18Z</time></trkpt><trkpt lat="44.44599915955731" lon="9.038292084219462"><ele>173.0</ele><time>2026-04-05T14:08:19Z</time></trkpt><trkpt lat="44.44587707777435" lon="9.038497439178323"><ele>173.0</ele><time>2026-04-05T14:08:20Z</time></trkpt><trkpt lat="44.44572069642154" lon="9.038685454888714"><ele>173.0</ele><time>2026-04-05T14:08:21Z</time></trkpt><trkpt lat="44.445567220514654" lon="9.038889165273508"><ele>173.0</ele><time>2026-04-05T14:08:22Z</time></trkpt><trkpt lat="44.44538900504404" lon="9.039067503347532"><ele>173.66666666666666</ele><time>2026-04-05T14:08:23Z</time></trkpt><trkpt lat="44.44524113409236" lon="9.039259546931023"><ele>174.33333333333334</ele><time>2026-04-05T14:08:24Z</time></trkpt><trkpt lat="44.4450877743312" lon="9.039450712110934"><ele>175.0</ele><time>2026-04-05T14:08:25Z</time></trkpt><trkpt lat="44.44493664882149" lon="9.039648251926199"><ele>175.0</ele><time>2026-04-05T14:08:26Z</time></trkpt><trkpt lat="44.44478252221554" lon="9.039825270505379"><ele>175.0</ele><time>2026-04-05T14:08:27Z</time></trkpt><trkpt lat="44.44464421430192" lon="9.040019353145528"><ele>175.0</ele><time>2026-04-05T14:08:28Z</time></trkpt><trkpt lat="44.44453401199" lon="9.040167613506604"><ele>176.0</ele><time>2026-04-05T14:08:29Z</time></trkpt><trkpt lat="44.444420571063354" lon="9.040307621383715"><ele>177.0</ele><time>2026-04-05T14:08:30Z</time></trkpt><trkpt lat="44.44430547868271" lon="9.04049112388615"><ele>178.0</ele><time>2026-04-05T14:08:31Z</time></trkpt><trkpt lat="44.4441969453266" lon="9.040663880131303"><ele>172.25</ele><time>2026-04-05T14:08:32Z</time></trkpt><trkpt lat="44.44408245900199" lon="9.040820035323266"><ele>166.5</ele><time>2026-04-05T14:08:33Z</time></trkpt><trkpt lat="44.44399096782406" lon="9.04099699556573"><ele>160.75</ele><time>2026-04-05T14:08:34Z</time></trkpt><trkpt lat="44.44389780507516" lon="9.041122792609738"><ele>155.0</ele><time>2026-04-05T14:08:35Z</time></trkpt><trkpt lat="44.44380802101816" lon="9.041267147205819"><ele>155.75</ele><time>2026-04-05T14:08:36Z</time></trkpt><trkpt lat="44.443726833264236" lon="9.041417675878291"><ele>156.5</ele><time>2026-04-05T14:08:37Z</time></trkpt><trkpt lat="44.443636080565156" lon="9.041536839544603"><ele>157.25</ele><time>2026-04-05T14:08:38Z</time></trkpt><trkpt lat="44.443549739658366" lon="9.041639486450352"><ele>158.0</ele><time>2026-04-05T14:08:39Z</time></trkpt><trkpt lat="44.44343229257283" lon="9.04170237067923"><ele>158.0</ele><time>2026-04-05T14:08:40Z</time></trkpt><trkpt lat="44.443310312506505" lon="9.041737063289927"><ele>158.0</ele><time>2026-04-05T14:08:41Z</time></trkpt><trkpt lat="44.443158410424644" lon="9.041752415182716"><ele>158.0</ele><time>2026-04-05T14:08:42Z</time></trkpt><trkpt lat="44.44300090175617" lon="9.041764861466117"><ele>158.0</ele><time>2026-04-05T14:08:43Z</time></trkpt><trkpt lat="44.442839904523" lon="9.041811276492192"><ele>161.75</ele><time>2026-04-05T14:08:44Z</time></trkpt><trkpt lat="44.442677947041375" lon="9.041845604285388"><ele>165.5</ele><time>2026-04-05T14:08:45Z</time></trkpt><trkpt lat="44.44254474598096" lon="9.04186598849286"><ele>169.25</ele><time>2026-04-05T14:08:46Z</time></trkpt><trkpt lat="44.44244170771557" lon="9.041889602631414"><ele>173.0</ele><time>2026-04-05T14:08:47Z</time></trkpt><trkpt lat="44.442365761830416" lon="9.041908928698158"><ele>173.0</ele><time>2026-04-05T14:08:48Z</time></trkpt><trkpt lat="44.44229252264924" lon="9.041926248807666"><ele>173.0</ele><time>2026-04-05T14:08:56.999Z</time></trkpt><trkpt lat="44.442205267149006" lon="9.042010790485952"><ele>173.0</ele><time>2026-04-05T14:12:32Z</time></trkpt><trkpt lat="44.442112929153325" lon="9.042000247847978"><ele>173.0</ele><time>2026-04-05T14:12:34Z</time></trkpt><trkpt lat="44.44202600623862" lon="9.042017863628988"><ele>173.0</ele><time>2026-04-05T14:12:35Z</time></trkpt><trkpt lat="44.441941294614125" lon="9.042069746605522"><ele>172.0</ele><time>2026-04-05T14:12:36Z</time></trkpt><trkpt lat="44.44186864077668" lon="9.042146654886727"><ele>171.0</ele><time>2026-04-05T14:12:37Z</time></trkpt><trkpt lat="44.44181577464693" lon="9.04227893045451"><ele>170.0</ele><time>2026-04-05T14:12:38Z</time></trkpt><trkpt lat="44.44176693626176" lon="9.04241950962496"><ele>169.0</ele><time>2026-04-05T14:12:39Z</time></trkpt><trkpt lat="44.441725407566565" lon="9.042588163753276"><ele>168.0</ele><time>2026-04-05T14:12:40Z</time></trkpt><trkpt lat="44.441714278283925" lon="9.042747801689414"><ele>168.0</ele><time>2026-04-05T14:12:41Z</time></trkpt><trkpt lat="44.441676687369245" lon="9.04293103836858"><ele>168.0</ele><time>2026-04-05T14:12:42Z</time></trkpt><trkpt lat="44.4416311164495" lon="9.043117467745567"><ele>168.0</ele><time>2026-04-05T14:12:43Z</time></trkpt><trkpt lat="44.44159255515374" lon="9.043308754416774"><ele>168.0</ele><time>2026-04-05T14:12:44Z</time></trkpt><trkpt lat="44.44155131972212" lon="9.04351468619324"><ele>166.33333333333334</ele><time>2026-04-05T14:12:45Z</time></trkpt><trkpt lat="44.44150298886634" lon="9.043733183527442"><ele>164.66666666666669</ele><time>2026-04-05T14:12:46Z</time></trkpt><trkpt lat="44.4414400981024" lon="9.043954671743451"><ele>163.0</ele><time>2026-04-05T14:12:47Z</time></trkpt><trkpt lat="44.4413454776277" lon="9.044159700644165"><ele>172.33333333333334</ele><time>2026-04-05T14:12:48Z</time></trkpt><trkpt lat="44.44125871318178" lon="9.044368095944565"><ele>181.66666666666666</ele><time>2026-04-05T14:12:49Z</time></trkpt><trkpt lat="44.441154442018934" lon="9.044570621953351"><ele>191.0</ele><time>2026-04-05T14:12:50Z</time></trkpt><trkpt lat="44.44109196111775" lon="9.04478920820537"><ele>189.33333333333331</ele><time>2026-04-05T14:12:51Z</time></trkpt><trkpt lat="44.44102808720983" lon="9.045019722819136"><ele>187.66666666666666</ele><time>2026-04-05T14:12:52Z</time></trkpt><trkpt lat="44.44097789708815" lon="9.045259555604556"><ele>186.0</ele><time>2026-04-05T14:12:53Z</time></trkpt><trkpt lat="44.440932899750216" lon="9.04550045928252"><ele>181.5</ele><time>2026-04-05T14:12:54Z</time></trkpt><trkpt lat="44.44090047377851" lon="9.04580909978383"><ele>177.0</ele><time>2026-04-05T14:12:55Z</time></trkpt><trkpt lat="44.44089236278576" lon="9.04613925013379"><ele>177.0</ele><time>2026-04-05T14:12:56Z</time></trkpt><trkpt lat="44.44085225336492" lon="9.04643938393424"><ele>177.0</ele><time>2026-04-05T14:12:57Z</time></trkpt><trkpt lat="44.440808734794174" lon="9.046731093225102"><ele>177.0</ele><time>2026-04-05T14:12:58Z</time></trkpt><trkpt lat="44.440763701086205" lon="9.046994875933239"><ele>173.33333333333334</ele><time>2026-04-05T14:12:59Z</time></trkpt><trkpt lat="44.44072739345914" lon="9.047229646262217"><ele>169.66666666666669</ele><time>2026-04-05T14:13:00Z</time></trkpt><trkpt lat="44.44069614312476" lon="9.047442526275876"><ele>166.0</ele><time>2026-04-05T14:13:00.999Z</time></trkpt><trkpt lat="44.440667020823284" lon="9.047641968474997"><ele>163.66666666666669</ele><time>2026-04-05T14:13:01.999Z</time></trkpt><trkpt lat="44.44062489293115" lon="9.047859646758669"><ele>161.33333333333334</ele><time>2026-04-05T14:13:02.999Z</time></trkpt><trkpt lat="44.440560966404384" lon="9.048066626699166"><ele>159.0</ele><time>2026-04-05T14:13:03.999Z</time></trkpt><trkpt lat="44.440491079021264" lon="9.048242130484889"><ele>162.0</ele><time>2026-04-05T14:13:04.999Z</time></trkpt><trkpt lat="44.440446266085345" lon="9.048420431731854"><ele>165.0</ele><time>2026-04-05T14:13:05.999Z</time></trkpt><trkpt lat="44.44041617893293" lon="9.048589845276346"><ele>168.0</ele><time>2026-04-05T14:13:06.999Z</time></trkpt><trkpt lat="44.44040739762819" lon="9.048773313542288"><ele>171.0</ele><time>2026-04-05T14:13:07.999Z</time></trkpt><trkpt lat="44.44043233545928" lon="9.048956802159676"><ele>169.33333333333334</ele><time>2026-04-05T14:13:08.999Z</time></trkpt><trkpt lat="44.44048223014682" lon="9.049142619986993"><ele>167.66666666666669</ele><time>2026-04-05T14:13:09.999Z</time></trkpt><trkpt lat="44.440560770517145" lon="9.049345794976318"><ele>166.0</ele><time>2026-04-05T14:13:10.999Z</time></trkpt><trkpt lat="44.44063313287053" lon="9.049547239087946"><ele>166.0</ele><time>2026-04-05T14:13:11.999Z</time></trkpt><trkpt lat="44.440691516562744" lon="9.049720565827982"><ele>166.0</ele><time>2026-04-05T14:13:12.999Z</time></trkpt><trkpt lat="44.44076175046864" lon="9.049899302473378"><ele>166.0</ele><time>2026-04-05T14:13:13.999Z</time></trkpt><trkpt lat="44.440820030834715" lon="9.05007231856296"><ele>166.0</ele><time>2026-04-05T14:13:14.999Z</time></trkpt><trkpt lat="44.440887595856445" lon="9.050234471185256"><ele>167.33333333333334</ele><time>2026-04-05T14:13:15.999Z</time></trkpt><trkpt lat="44.440960823756285" lon="9.050402337836028"><ele>168.66666666666666</ele><time>2026-04-05T14:13:16.999Z</time></trkpt><trkpt lat="44.44107392878122" lon="9.050594533548967"><ele>170.0</ele><time>2026-04-05T14:13:17.999Z</time></trkpt><trkpt lat="44.44120771194967" lon="9.050806168686993"><ele>171.66666666666666</ele><time>2026-04-05T14:13:18.999Z</time></trkpt><trkpt lat="44.4413181857023" lon="9.050999235297658"><ele>173.33333333333334</ele><time>2026-04-05T14:13:19.999Z</time></trkpt><trkpt lat="44.44142384418353" lon="9.051157544057286"><ele>175.0</ele><time>2026-04-05T14:13:20.999Z</time></trkpt><trkpt lat="44.44152707277592" lon="9.051297035762978"><ele>175.0</ele><time>2026-04-05T14:13:21.999Z</time></trkpt><trkpt lat="44.44160514142069" lon="9.051427391153691"><ele>175.0</ele><time>2026-04-05T14:13:22.999Z</time></trkpt><trkpt lat="44.44167067991785" lon="9.051555465797101"><ele>175.0</ele><time>2026-04-05T14:13:23.999Z</time></trkpt><trkpt lat="44.44169168462599" lon="9.051681076791724"><ele>175.0</ele><time>2026-04-05T14:13:24.999Z</time></trkpt><trkpt lat="44.44169167838333" lon="9.05183922784708"><ele>175.0</ele><time>2026-04-05T14:13:25.999Z</time></trkpt><trkpt lat="44.44166238146778" lon="9.052018739080602"><ele>175.75</ele><time>2026-04-05T14:13:26.999Z</time></trkpt><trkpt lat="44.44161720006094" lon="9.052221225607544"><ele>176.5</ele><time>2026-04-05T14:13:27.999Z</time></trkpt><trkpt lat="44.44161449813825" lon="9.052376075529297"><ele>177.25</ele><time>2026-04-05T14:13:28.999Z</time></trkpt><trkpt lat="44.44163726705665" lon="9.05251235182883"><ele>178.0</ele><time>2026-04-05T14:13:29.999Z</time></trkpt><trkpt lat="44.441682823646154" lon="9.05264804766732"><ele>178.0</ele><time>2026-04-05T14:13:30.999Z</time></trkpt><trkpt lat="44.441757542799564" lon="9.052781002818396"><ele>178.0</ele><time>2026-04-05T14:13:31.999Z</time></trkpt><trkpt lat="44.44186622310808" lon="9.052910455690233"><ele>178.0</ele><time>2026-04-05T14:13:32.999Z</time></trkpt><trkpt lat="44.44200211711015" lon="9.053038174958862"><ele>178.0</ele><time>2026-04-05T14:13:33.999Z</time></trkpt><trkpt lat="44.44214459887846" lon="9.05318620547208"><ele>180.0</ele><time>2026-04-05T14:13:34.999Z</time></trkpt><trkpt lat="44.442311139513876" lon="9.053360982979344"><ele>182.0</ele><time>2026-04-05T14:13:35.999Z</time></trkpt><trkpt lat="44.44247576361732" lon="9.053513459543387"><ele>184.0</ele><time>2026-04-05T14:13:36.999Z</time></trkpt><trkpt lat="44.44263748018301" lon="9.053602653447289"><ele>184.0</ele><time>2026-04-05T14:13:37.999Z</time></trkpt><trkpt lat="44.442793003437664" lon="9.053684426231396"><ele>184.0</ele><time>2026-04-05T14:13:38.999Z</time></trkpt><trkpt lat="44.44294523754658" lon="9.053753573026377"><ele>184.0</ele><time>2026-04-05T14:13:39.999Z</time></trkpt><trkpt lat="44.44306134623652" lon="9.053815701029869"><ele>183.79999999999998</ele><time>2026-04-05T14:13:40.999Z</time></trkpt><trkpt lat="44.443162455329414" lon="9.053898868106753"><ele>183.6</ele><time>2026-04-05T14:13:41.999Z</time></trkpt><trkpt lat="44.44322241362942" lon="9.054006003841003"><ele>183.4</ele><time>2026-04-05T14:13:42.999Z</time></trkpt><trkpt lat="44.443254545932824" lon="9.054153747059253"><ele>183.2</ele><time>2026-04-05T14:13:43.999Z</time></trkpt><trkpt lat="44.443250567963084" lon="9.054317638240672"><ele>183.0</ele><time>2026-04-05T14:13:44.999Z</time></trkpt><trkpt lat="44.44319992205435" lon="9.054496389030328"><ele>185.33333333333334</ele><time>2026-04-05T14:13:45.999Z</time></trkpt><trkpt lat="44.44312399733893" lon="9.054716742394545"><ele>187.66666666666669</ele><time>2026-04-05T14:13:46.999Z</time></trkpt><trkpt lat="44.4430290974669" lon="9.054991606172099"><ele>190.0</ele><time>2026-04-05T14:13:47.999Z</time></trkpt><trkpt lat="44.442927664054594" lon="9.055283687438775"><ele>207.33333333333334</ele><time>2026-04-05T14:13:48.999Z</time></trkpt><trkpt lat="44.442880357424585" lon="9.05552061851505"><ele>224.66666666666669</ele><time>2026-04-05T14:13:49.999Z</time></trkpt><trkpt lat="44.44280585748168" lon="9.055725026117317"><ele>242.0</ele><time>2026-04-05T14:13:50.999Z</time></trkpt><trkpt lat="44.44273789643299" lon="9.055916089932227"><ele>243.66666666666669</ele><time>2026-04-05T14:13:51.999Z</time></trkpt><trkpt lat="44.442699414540925" lon="9.056145528934982"><ele>245.33333333333331</ele><time>2026-04-05T14:13:52.999Z</time></trkpt><trkpt lat="44.44267390466241" lon="9.056421291161325"><ele>247.0</ele><time>2026-04-05T14:13:53.999Z</time></trkpt><trkpt lat="44.44265953753333" lon="9.056713134581402"><ele>247.0</ele><time>2026-04-05T14:13:54.999Z</time></trkpt><trkpt lat="44.44265629609705" lon="9.056944767720525"><ele>247.0</ele><time>2026-04-05T14:13:55.999Z</time></trkpt><trkpt lat="44.44267227812025" lon="9.057181748224586"><ele>247.0</ele><time>2026-04-05T14:13:56.999Z</time></trkpt><trkpt lat="44.442697049398376" lon="9.057400457265452"><ele>243.5</ele><time>2026-04-05T14:13:57.999Z</time></trkpt><trkpt lat="44.44269477169114" lon="9.057587160188683"><ele>240.0</ele><time>2026-04-05T14:13:58.999Z</time></trkpt><trkpt lat="44.442661794751025" lon="9.057766483568454"><ele>236.5</ele><time>2026-04-05T14:13:59.999Z</time></trkpt><trkpt lat="44.44257223380124" lon="9.057952209610658"><ele>233.0</ele><time>2026-04-05T14:14:00.999Z</time></trkpt><trkpt lat="44.44246997498655" lon="9.058174943370373"><ele>228.33333333333334</ele><time>2026-04-05T14:14:01.999Z</time></trkpt><trkpt lat="44.442374055017915" lon="9.058431920751682"><ele>223.66666666666669</ele><time>2026-04-05T14:14:02.999Z</time></trkpt><trkpt lat="44.44228410927455" lon="9.058683971869907"><ele>219.0</ele><time>2026-04-05T14:14:04Z</time></trkpt><trkpt lat="44.442224172086256" lon="9.058937872307972"><ele>218.33333333333331</ele><time>2026-04-05T14:14:05Z</time></trkpt><trkpt lat="44.44217385043592" lon="9.05920435100148"><ele>217.66666666666666</ele><time>2026-04-05T14:14:06Z</time></trkpt><trkpt lat="44.442130964135636" lon="9.0594417934746"><ele>217.0</ele><time>2026-04-05T14:14:07Z</time></trkpt><trkpt lat="44.44210749051158" lon="9.059666151401466"><ele>218.33333333333331</ele><time>2026-04-05T14:14:08Z</time></trkpt><trkpt lat="44.442102639823474" lon="9.05989506708351"><ele>219.66666666666669</ele><time>2026-04-05T14:14:09Z</time></trkpt><trkpt lat="44.44214903053156" lon="9.060133733624276"><ele>221.0</ele><time>2026-04-05T14:14:10Z</time></trkpt><trkpt lat="44.44218449330642" lon="9.060385201679741"><ele>221.0</ele><time>2026-04-05T14:14:11Z</time></trkpt><trkpt lat="44.44223079900491" lon="9.060628179833515"><ele>221.0</ele><time>2026-04-05T14:14:12Z</time></trkpt><trkpt lat="44.44225648903396" lon="9.060818701453599"><ele>221.0</ele><time>2026-04-05T14:14:13Z</time></trkpt><trkpt lat="44.442282781772064" lon="9.060966927362296"><ele>221.0</ele><time>2026-04-05T14:14:14Z</time></trkpt><trkpt lat="44.442284575675664" lon="9.061128232737657"><ele>222.0</ele><time>2026-04-05T14:14:15Z</time></trkpt><trkpt lat="44.442273914067655" lon="9.061305383983152"><ele>223.0</ele><time>2026-04-05T14:14:16Z</time></trkpt><trkpt lat="44.44224018385349" lon="9.061523109815884"><ele>224.0</ele><time>2026-04-05T14:14:17Z</time></trkpt><trkpt lat="44.44221574990238" lon="9.061747181444275"><ele>225.0</ele><time>2026-04-05T14:14:18Z</time></trkpt><trkpt lat="44.44217897857332" lon="9.061953277084367"><ele>225.66666666666669</ele><time>2026-04-05T14:14:19Z</time></trkpt><trkpt lat="44.44215364200177" lon="9.062179215880322"><ele>226.33333333333334</ele><time>2026-04-05T14:14:20Z</time></trkpt><trkpt lat="44.44215468150226" lon="9.062424304540215"><ele>227.0</ele><time>2026-04-05T14:14:21Z</time></trkpt><trkpt lat="44.44217857512083" lon="9.06269200641316"><ele>227.66666666666669</ele><time>2026-04-05T14:14:22Z</time></trkpt><trkpt lat="44.44221921535867" lon="9.062983249314932"><ele>228.33333333333331</ele><time>2026-04-05T14:14:23Z</time></trkpt><trkpt lat="44.44227978506624" lon="9.0632747417743"><ele>229.0</ele><time>2026-04-05T14:14:24Z</time></trkpt><trkpt lat="44.44232980584778" lon="9.063511748860904"><ele>231.25</ele><time>2026-04-05T14:14:25Z</time></trkpt><trkpt lat="44.44238152367804" lon="9.063722502938633"><ele>233.5</ele><time>2026-04-05T14:14:26Z</time></trkpt><trkpt lat="44.442421972634065" lon="9.063916168344488"><ele>235.75</ele><time>2026-04-05T14:14:27Z</time></trkpt><trkpt lat="44.44244339664776" lon="9.064067183555855"><ele>238.0</ele><time>2026-04-05T14:14:28Z</time></trkpt><trkpt lat="44.44244545211503" lon="9.064195041319582"><ele>239.25</ele><time>2026-04-05T14:14:29Z</time></trkpt><trkpt lat="44.44241818086296" lon="9.064317098016698"><ele>240.5</ele><time>2026-04-05T14:14:30Z</time></trkpt><trkpt lat="44.44235466602033" lon="9.064427528821199"><ele>241.75</ele><time>2026-04-05T14:14:31Z</time></trkpt><trkpt lat="44.44224946217653" lon="9.064537795081316"><ele>243.0</ele><time>2026-04-05T14:14:32Z</time></trkpt><trkpt lat="44.44212244136733" lon="9.064670631766946"><ele>251.5</ele><time>2026-04-05T14:14:33Z</time></trkpt><trkpt lat="44.44201733675182" lon="9.06477558725727"><ele>260.0</ele><time>2026-04-05T14:14:34Z</time></trkpt><trkpt lat="44.44194863273592" lon="9.064909602507907"><ele>268.5</ele><time>2026-04-05T14:14:35Z</time></trkpt><trkpt lat="44.441907319727825" lon="9.065065178600177"><ele>277.0</ele><time>2026-04-05T14:14:36Z</time></trkpt><trkpt lat="44.441896943863156" lon="9.065215793182187"><ele>277.0</ele><time>2026-04-05T14:14:37Z</time></trkpt><trkpt lat="44.44191240777767" lon="9.065394212510592"><ele>277.0</ele><time>2026-04-05T14:14:38Z</time></trkpt><trkpt lat="44.44196389027229" lon="9.06560487423429"><ele>277.0</ele><time>2026-04-05T14:14:39Z</time></trkpt><trkpt lat="44.44202243954204" lon="9.0658316521197"><ele>276.75</ele><time>2026-04-05T14:14:40Z</time></trkpt><trkpt lat="44.44207087839234" lon="9.066025919093022"><ele>276.5</ele><time>2026-04-05T14:14:41Z</time></trkpt><trkpt lat="44.44210621290484" lon="9.066196959535999"><ele>276.25</ele><time>2026-04-05T14:14:42Z</time></trkpt><trkpt lat="44.442121337595" lon="9.066359208169967"><ele>276.0</ele><time>2026-04-05T14:14:43Z</time></trkpt><trkpt lat="44.44210081184491" lon="9.066510786732309"><ele>276.0</ele><time>2026-04-05T14:14:44Z</time></trkpt><trkpt lat="44.44205441791241" lon="9.066668140512531"><ele>276.0</ele><time>2026-04-05T14:14:45Z</time></trkpt><trkpt lat="44.441975051925695" lon="9.066817893451132"><ele>276.0</ele><time>2026-04-05T14:14:46Z</time></trkpt><trkpt lat="44.441863389768216" lon="9.066987592137913"><ele>276.0</ele><time>2026-04-05T14:14:47Z</time></trkpt><trkpt lat="44.44170960616001" lon="9.067184320897523"><ele>276.0</ele><time>2026-04-05T14:14:48Z</time></trkpt><trkpt lat="44.4415371108092" lon="9.067397204004466"><ele>276.0</ele><time>2026-04-05T14:14:49Z</time></trkpt><trkpt lat="44.44138181900811" lon="9.067609985382703"><ele>276.0</ele><time>2026-04-05T14:14:50Z</time></trkpt><trkpt lat="44.44125755211097" lon="9.067814453830836"><ele>280.75</ele><time>2026-04-05T14:14:51Z</time></trkpt><trkpt lat="44.441173576727124" lon="9.067998491569076"><ele>285.5</ele><time>2026-04-05T14:14:52Z</time></trkpt><trkpt lat="44.44108622009534" lon="9.068172619466445"><ele>290.25</ele><time>2026-04-05T14:14:53Z</time></trkpt><trkpt lat="44.441024951449535" lon="9.068326164404137"><ele>295.0</ele><time>2026-04-05T14:14:54Z</time></trkpt><trkpt lat="44.44100510541299" lon="9.068511923791739"><ele>295.0</ele><time>2026-04-05T14:14:55Z</time></trkpt><trkpt lat="44.44100996372418" lon="9.068712268678052"><ele>295.0</ele><time>2026-04-05T14:14:56Z</time></trkpt><trkpt lat="44.44106275114248" lon="9.068925802610432"><ele>295.0</ele><time>2026-04-05T14:14:57Z</time></trkpt><trkpt lat="44.44108569839074" lon="9.069137521979105"><ele>295.25</ele><time>2026-04-05T14:14:58Z</time></trkpt><trkpt lat="44.441131975895516" lon="9.069312720623955"><ele>295.5</ele><time>2026-04-05T14:14:59Z</time></trkpt><trkpt lat="44.44115728830038" lon="9.069469198197012"><ele>295.75</ele><time>2026-04-05T14:15:00Z</time></trkpt><trkpt lat="44.441112725183366" lon="9.069643440445958"><ele>296.0</ele><time>2026-04-05T14:15:01Z</time></trkpt><trkpt lat="44.441041948162066" lon="9.069806636765964"><ele>293.33333333333337</ele><time>2026-04-05T14:15:02Z</time></trkpt><trkpt lat="44.440933444505255" lon="9.069990332217536"><ele>290.6666666666667</ele><time>2026-04-05T14:15:03Z</time></trkpt><trkpt lat="44.44080842125073" lon="9.070174329272588"><ele>288.0</ele><time>2026-04-05T14:15:04Z</time></trkpt><trkpt lat="44.440698270099986" lon="9.07031397992145"><ele>288.0</ele><time>2026-04-05T14:15:05Z</time></trkpt><trkpt lat="44.440626362501625" lon="9.070441532083912"><ele>288.0</ele><time>2026-04-05T14:15:06Z</time></trkpt><trkpt lat="44.440572915116086" lon="9.070534231751472"><ele>288.0</ele><time>2026-04-05T14:15:07Z</time></trkpt><trkpt lat="44.44053473894042" lon="9.070662504116292"><ele>288.0</ele><time>2026-04-05T14:15:08Z</time></trkpt><trkpt lat="44.4405215412655" lon="9.070848339498545"><ele>288.0</ele><time>2026-04-05T14:15:08.999Z</time></trkpt><trkpt lat="44.44056834203596" lon="9.071086044797879"><ele>287.0</ele><time>2026-04-05T14:15:09.999Z</time></trkpt><trkpt lat="44.440609770417545" lon="9.07136791548444"><ele>286.0</ele><time>2026-04-05T14:15:10.999Z</time></trkpt><trkpt lat="44.44067053233686" lon="9.071612270423007"><ele>285.0</ele><time>2026-04-05T14:15:11.999Z</time></trkpt><trkpt lat="44.44070817558281" lon="9.071800297081293"><ele>285.0</ele><time>2026-04-05T14:15:12.999Z</time></trkpt><trkpt lat="44.440777991784785" lon="9.071935591152046"><ele>285.0</ele><time>2026-04-05T14:15:13.999Z</time></trkpt><trkpt lat="44.44079549600357" lon="9.072067508570692"><ele>285.0</ele><time>2026-04-05T14:15:14.999Z</time></trkpt><trkpt lat="44.44079555221323" lon="9.072222921771251"><ele>285.0</ele><time>2026-04-05T14:15:15.999Z</time></trkpt><trkpt lat="44.440753357247225" lon="9.072339273651325"><ele>285.0</ele><time>2026-04-05T14:15:16.999Z</time></trkpt><trkpt lat="44.440660244666944" lon="9.072503627349812"><ele>282.6666666666667</ele><time>2026-04-05T14:15:17.999Z</time></trkpt><trkpt lat="44.440507201652764" lon="9.072686991791599"><ele>280.33333333333337</ele><time>2026-04-05T14:15:18.999Z</time></trkpt><trkpt lat="44.44037642367628" lon="9.072868144362639"><ele>278.0</ele><time>2026-04-05T14:15:19.999Z</time></trkpt><trkpt lat="44.440254151522716" lon="9.073035410371142"><ele>290.0</ele><time>2026-04-05T14:15:20.999Z</time></trkpt><trkpt lat="44.44016842366743" lon="9.073229385462684"><ele>302.0</ele><time>2026-04-05T14:15:21.999Z</time></trkpt><trkpt lat="44.440099103621534" lon="9.073411558896955"><ele>314.0</ele><time>2026-04-05T14:15:22.999Z</time></trkpt><trkpt lat="44.44003280659328" lon="9.073615976155763"><ele>314.0</ele><time>2026-04-05T14:15:23.999Z</time></trkpt><trkpt lat="44.439978700292585" lon="9.073872847196425"><ele>314.0</ele><time>2026-04-05T14:15:24.999Z</time></trkpt><trkpt lat="44.4398672889984" lon="9.074127255677197"><ele>314.0</ele><time>2026-04-05T14:15:25.999Z</time></trkpt><trkpt lat="44.43981543341566" lon="9.07433751385466"><ele>310.75</ele><time>2026-04-05T14:15:26.999Z</time></trkpt><trkpt lat="44.43981094368136" lon="9.074471158451514"><ele>307.5</ele><time>2026-04-05T14:15:27.999Z</time></trkpt><trkpt lat="44.43979528511638" lon="9.07463936079147"><ele>304.25</ele><time>2026-04-05T14:15:28.999Z</time></trkpt><trkpt lat="44.43985186331352" lon="9.074795847774663"><ele>301.0</ele><time>2026-04-05T14:15:29.999Z</time></trkpt><trkpt lat="44.439922062851" lon="9.074981672753633"><ele>300.66666666666663</ele><time>2026-04-05T14:15:30.999Z</time></trkpt><trkpt lat="44.43998715576824" lon="9.075189457932025"><ele>300.3333333333333</ele><time>2026-04-05T14:15:31.999Z</time></trkpt><trkpt lat="44.44004114494035" lon="9.075412342808827"><ele>300.0</ele><time>2026-04-05T14:15:32.999Z</time></trkpt><trkpt lat="44.44003119947839" lon="9.075607903982922"><ele>299.0</ele><time>2026-04-05T14:15:33.999Z</time></trkpt><trkpt lat="44.439994442694825" lon="9.07580819115706"><ele>298.0</ele><time>2026-04-05T14:15:34.999Z</time></trkpt><trkpt lat="44.43993606019585" lon="9.076001845984758"><ele>297.0</ele><time>2026-04-05T14:15:35.999Z</time></trkpt><trkpt lat="44.43985901620044" lon="9.076152991156398"><ele>296.0</ele><time>2026-04-05T14:15:36.999Z</time></trkpt><trkpt lat="44.43979359834052" lon="9.076285699249766"><ele>296.0</ele><time>2026-04-05T14:15:37.999Z</time></trkpt><trkpt lat="44.439654297660056" lon="9.07638715862331"><ele>296.0</ele><time>2026-04-05T14:15:38.999Z</time></trkpt><trkpt lat="44.43950920397306" lon="9.076502997464145"><ele>296.0</ele><time>2026-04-05T14:15:39.999Z</time></trkpt><trkpt lat="44.43935592905708" lon="9.076592507489876"><ele>303.25</ele><time>2026-04-05T14:15:40.999Z</time></trkpt><trkpt lat="44.43922862253555" lon="9.076688091040666"><ele>310.5</ele><time>2026-04-05T14:15:41.999Z</time></trkpt><trkpt lat="44.43909894512186" lon="9.076749699142264"><ele>317.75</ele><time>2026-04-05T14:15:42.999Z</time></trkpt><trkpt lat="44.43900354273184" lon="9.07690440368566"><ele>325.0</ele><time>2026-04-05T14:15:43.999Z</time></trkpt><trkpt lat="44.4389174288507" lon="9.07708050616455"><ele>325.0</ele><time>2026-04-05T14:15:44.999Z</time></trkpt><trkpt lat="44.43884730471658" lon="9.077316249567831"><ele>325.0</ele><time>2026-04-05T14:15:45.999Z</time></trkpt><trkpt lat="44.43873044652699" lon="9.077552041018286"><ele>325.0</ele><time>2026-04-05T14:15:46.999Z</time></trkpt><trkpt lat="44.438619467892046" lon="9.07778494292426"><ele>322.75</ele><time>2026-04-05T14:15:47.999Z</time></trkpt><trkpt lat="44.4385162040685" lon="9.077960312858105"><ele>320.5</ele><time>2026-04-05T14:15:48.999Z</time></trkpt><trkpt lat="44.438428550779044" lon="9.078130079222436"><ele>318.25</ele><time>2026-04-05T14:15:49.999Z</time></trkpt><trkpt lat="44.43834721943084" lon="9.078271591891621"><ele>316.0</ele><time>2026-04-05T14:15:50.999Z</time></trkpt><trkpt lat="44.43828421957138" lon="9.078438954231942"><ele>316.0</ele><time>2026-04-05T14:15:51.999Z</time></trkpt><trkpt lat="44.43823858287889" lon="9.078614231132505"><ele>316.0</ele><time>2026-04-05T14:15:52.999Z</time></trkpt><trkpt lat="44.43821035274468" lon="9.078785820876677"><ele>316.0</ele><time>2026-04-05T14:15:53.999Z</time></trkpt><trkpt lat="44.43820232063959" lon="9.079000707956633"><ele>316.0</ele><time>2026-04-05T14:15:54.999Z</time></trkpt><trkpt lat="44.438222988444025" lon="9.079267346891902"><ele>313.0</ele><time>2026-04-05T14:15:55.999Z</time></trkpt><trkpt lat="44.43822387126078" lon="9.0794899909898"><ele>310.0</ele><time>2026-04-05T14:15:56.999Z</time></trkpt><trkpt lat="44.43822363337922" lon="9.079699723353142"><ele>307.0</ele><time>2026-04-05T14:15:57.999Z</time></trkpt><trkpt lat="44.438255616719545" lon="9.079915503649447"><ele>306.66666666666663</ele><time>2026-04-05T14:15:58.999Z</time></trkpt><trkpt lat="44.43831154814675" lon="9.080147757688653"><ele>306.3333333333333</ele><time>2026-04-05T14:15:59.999Z</time></trkpt><trkpt lat="44.43840703183584" lon="9.080410786816197"><ele>306.0</ele><time>2026-04-05T14:16:00.999Z</time></trkpt><trkpt lat="44.43851968247458" lon="9.080699255647762"><ele>303.5</ele><time>2026-04-05T14:16:01.999Z</time></trkpt><trkpt lat="44.43864012643148" lon="9.081003967707307"><ele>301.0</ele><time>2026-04-05T14:16:02.999Z</time></trkpt><trkpt lat="44.438741377096214" lon="9.081291551079493"><ele>303.3333333333333</ele><time>2026-04-05T14:16:03.999Z</time></trkpt><trkpt lat="44.43883404689691" lon="9.081532594536469"><ele>305.6666666666667</ele><time>2026-04-05T14:16:04.999Z</time></trkpt><trkpt lat="44.43891305680235" lon="9.081756090459352"><ele>308.0</ele><time>2026-04-05T14:16:05.999Z</time></trkpt><trkpt lat="44.438993289031906" lon="9.081959973529822"><ele>308.0</ele><time>2026-04-05T14:16:06.999Z</time></trkpt><trkpt lat="44.4390926442229" lon="9.082151464911172"><ele>308.0</ele><time>2026-04-05T14:16:07.999Z</time></trkpt><trkpt lat="44.439230180896686" lon="9.082337959918176"><ele>308.0</ele><time>2026-04-05T14:16:08.999Z</time></trkpt><trkpt lat="44.43939138685941" lon="9.082550385646094"><ele>310.33333333333337</ele><time>2026-04-05T14:16:10Z</time></trkpt><trkpt lat="44.439579010936335" lon="9.082768901713369"><ele>312.6666666666667</ele><time>2026-04-05T14:16:11Z</time></trkpt><trkpt lat="44.43974123850404" lon="9.082941865201498"><ele>315.0</ele><time>2026-04-05T14:16:12Z</time></trkpt><trkpt lat="44.43988814122637" lon="9.083096699833568"><ele>315.0</ele><time>2026-04-05T14:16:13Z</time></trkpt><trkpt lat="44.4400171667778" lon="9.08323912070616"><ele>315.0</ele><time>2026-04-05T14:16:14Z</time></trkpt><trkpt lat="44.44015626108832" lon="9.083392191527818"><ele>315.0</ele><time>2026-04-05T14:16:15Z</time></trkpt><trkpt lat="44.440288375629784" lon="9.083570848447035"><ele>318.0</ele><time>2026-04-05T14:16:16Z</time></trkpt><trkpt lat="44.44038849787019" lon="9.083750122681986"><ele>321.0</ele><time>2026-04-05T14:16:17Z</time></trkpt><trkpt lat="44.44048149819546" lon="9.083951006782863"><ele>324.0</ele><time>2026-04-05T14:16:18Z</time></trkpt><trkpt lat="44.440559804966114" lon="9.084164140530232"><ele>324.0</ele><time>2026-04-05T14:16:19Z</time></trkpt><trkpt lat="44.4406422666371" lon="9.084440917917727"><ele>324.0</ele><time>2026-04-05T14:16:20Z</time></trkpt><trkpt lat="44.440713798981804" lon="9.084723746008125"><ele>324.0</ele><time>2026-04-05T14:16:21Z</time></trkpt><trkpt lat="44.44078336643592" lon="9.084987155751188"><ele>326.3333333333333</ele><time>2026-04-05T14:16:22Z</time></trkpt><trkpt lat="44.44085588783071" lon="9.085213213078294"><ele>328.66666666666663</ele><time>2026-04-05T14:16:23Z</time></trkpt><trkpt lat="44.44091598744116" lon="9.085407887080068"><ele>331.0</ele><time>2026-04-05T14:16:24Z</time></trkpt><trkpt lat="44.44097764655307" lon="9.085602671107159"><ele>330.3333333333333</ele><time>2026-04-05T14:16:25Z</time></trkpt><trkpt lat="44.441051602296454" lon="9.085800597251753"><ele>329.6666666666667</ele><time>2026-04-05T14:16:26Z</time></trkpt><trkpt lat="44.441164712645715" lon="9.08599061506362"><ele>329.0</ele><time>2026-04-05T14:16:27Z</time></trkpt><trkpt lat="44.44129922014865" lon="9.086190144710647"><ele>329.0</ele><time>2026-04-05T14:16:28Z</time></trkpt><trkpt lat="44.44142526124082" lon="9.086355334569602"><ele>329.0</ele><time>2026-04-05T14:16:29Z</time></trkpt><trkpt lat="44.441526957990945" lon="9.086507526528996"><ele>329.0</ele><time>2026-04-05T14:16:30Z</time></trkpt><trkpt lat="44.4416214878107" lon="9.086639919677232"><ele>335.33333333333337</ele><time>2026-04-05T14:16:31Z</time></trkpt><trkpt lat="44.44170183069679" lon="9.086795866119713"><ele>341.6666666666667</ele><time>2026-04-05T14:16:32Z</time></trkpt><trkpt lat="44.441776985257775" lon="9.086987142250612"><ele>348.0</ele><time>2026-04-05T14:16:33Z</time></trkpt><trkpt lat="44.44183126885354" lon="9.087242596855049"><ele>352.6666666666667</ele><time>2026-04-05T14:16:34Z</time></trkpt><trkpt lat="44.44187509029932" lon="9.087513468672554"><ele>357.33333333333337</ele><time>2026-04-05T14:16:35Z</time></trkpt><trkpt lat="44.441914869328166" lon="9.087755851723925"><ele>362.0</ele><time>2026-04-05T14:16:36Z</time></trkpt><trkpt lat="44.441952771106315" lon="9.08798820262542"><ele>362.0</ele><time>2026-04-05T14:16:37Z</time></trkpt><trkpt lat="44.44199046740227" lon="9.088213050006365"><ele>362.0</ele><time>2026-04-05T14:16:38Z</time></trkpt><trkpt lat="44.44203272085554" lon="9.08841716059049"><ele>362.0</ele><time>2026-04-05T14:16:39Z</time></trkpt><trkpt lat="44.442085001034464" lon="9.08860052271329"><ele>354.6666666666667</ele><time>2026-04-05T14:16:40Z</time></trkpt><trkpt lat="44.44216103580739" lon="9.08878560699991"><ele>347.3333333333333</ele><time>2026-04-05T14:16:41Z</time></trkpt><trkpt lat="44.44226695804182" lon="9.088970893247458"><ele>340.0</ele><time>2026-04-05T14:16:42Z</time></trkpt><trkpt lat="44.442334325064294" lon="9.089151194575436"><ele>340.0</ele><time>2026-04-05T14:16:43Z</time></trkpt><trkpt lat="44.44240583535251" lon="9.089306937694507"><ele>340.0</ele><time>2026-04-05T14:16:44Z</time></trkpt><trkpt lat="44.442449052539914" lon="9.089447850599838"><ele>340.0</ele><time>2026-04-05T14:16:45Z</time></trkpt><trkpt lat="44.442477081336804" lon="9.089593500071961"><ele>340.0</ele><time>2026-04-05T14:16:46Z</time></trkpt><trkpt lat="44.442488759840366" lon="9.089747062673503"><ele>340.0</ele><time>2026-04-05T14:16:47Z</time></trkpt><trkpt lat="44.44245437725881" lon="9.089919784070105"><ele>340.0</ele><time>2026-04-05T14:16:48Z</time></trkpt><trkpt lat="44.44240015658636" lon="9.090112983349826"><ele>340.0</ele><time>2026-04-05T14:16:49Z</time></trkpt><trkpt lat="44.44236103600821" lon="9.090292126384817"><ele>340.0</ele><time>2026-04-05T14:16:50Z</time></trkpt><trkpt lat="44.442333459693266" lon="9.090444967482714"><ele>341.2</ele><time>2026-04-05T14:16:51Z</time></trkpt><trkpt lat="44.44231115775229" lon="9.090582664348387"><ele>342.4</ele><time>2026-04-05T14:16:52Z</time></trkpt><trkpt lat="44.442321943437896" lon="9.090731700116548"><ele>343.6</ele><time>2026-04-05T14:16:53Z</time></trkpt><trkpt lat="44.442347892074515" lon="9.090878898125416"><ele>344.8</ele><time>2026-04-05T14:16:54Z</time></trkpt><trkpt lat="44.44238658155198" lon="9.091014024910482"><ele>346.0</ele><time>2026-04-05T14:16:55Z</time></trkpt><trkpt lat="44.442430120097335" lon="9.091135263557796"><ele>346.3333333333333</ele><time>2026-04-05T14:16:56Z</time></trkpt><trkpt lat="44.442452324985204" lon="9.09123859444542"><ele>346.66666666666663</ele><time>2026-04-05T14:16:57Z</time></trkpt><trkpt lat="44.442458293409885" lon="9.091357271619632"><ele>347.0</ele><time>2026-04-05T14:16:58Z</time></trkpt><trkpt lat="44.44243732400335" lon="9.091471995609183"><ele>347.3333333333333</ele><time>2026-04-05T14:16:59Z</time></trkpt><trkpt lat="44.44243765128846" lon="9.091582952561279"><ele>347.6666666666667</ele><time>2026-04-05T14:17:00Z</time></trkpt><trkpt lat="44.442460640135984" lon="9.091679660718185"><ele>348.0</ele><time>2026-04-05T14:17:01Z</time></trkpt><trkpt lat="44.44257569146038" lon="9.091812889838678"><ele>348.0</ele><time>2026-04-05T14:17:03Z</time></trkpt><trkpt lat="44.442651051099745" lon="9.09182154001959"><ele>348.0</ele><time>2026-04-05T14:17:04Z</time></trkpt><trkpt lat="44.442719003306905" lon="9.091794072309074"><ele>348.0</ele><time>2026-04-05T14:17:05Z</time></trkpt><trkpt lat="44.44278056856376" lon="9.09171952114067"><ele>348.0</ele><time>2026-04-05T14:17:06Z</time></trkpt><trkpt lat="44.44284381783978" lon="9.091628620518305"><ele>348.0</ele><time>2026-04-05T14:17:07Z</time></trkpt><trkpt lat="44.44290016507793" lon="9.0915558906111"><ele>348.0</ele><time>2026-04-05T14:17:08Z</time></trkpt><trkpt lat="44.44296972915814" lon="9.091501301483461"><ele>347.79999999999995</ele><time>2026-04-05T14:17:09Z</time></trkpt><trkpt lat="44.4430350667488" lon="9.091462640341133"><ele>347.6</ele><time>2026-04-05T14:17:10Z</time></trkpt><trkpt lat="44.443138382516054" lon="9.091419139093512"><ele>347.4</ele><time>2026-04-05T14:17:12Z</time></trkpt><trkpt lat="44.443200143714925" lon="9.091374315542348"><ele>347.20000000000005</ele><time>2026-04-05T14:17:14.999Z</time></trkpt><trkpt lat="44.443315978951446" lon="9.091264426182335"><ele>347.0</ele><time>2026-04-05T14:17:22.999Z</time></trkpt><trkpt lat="44.44337899394292" lon="9.091196611426387"><ele>347.0</ele><time>2026-04-05T14:17:23.999Z</time></trkpt><trkpt lat="44.44343456823611" lon="9.091091689586325"><ele>347.0</ele><time>2026-04-05T14:17:24.999Z</time></trkpt><trkpt lat="44.44348507884733" lon="9.090966069411731"><ele>347.0</ele><time>2026-04-05T14:17:25.999Z</time></trkpt><trkpt lat="44.44355481123598" lon="9.090829931752086"><ele>347.0</ele><time>2026-04-05T14:17:26.999Z</time></trkpt><trkpt lat="44.44361681085054" lon="9.090667168613546"><ele>347.0</ele><time>2026-04-05T14:17:27.999Z</time></trkpt><trkpt lat="44.443693962603504" lon="9.090483786481862"><ele>342.0</ele><time>2026-04-05T14:17:28.999Z</time></trkpt><trkpt lat="44.44378826450484" lon="9.090264607108496"><ele>337.0</ele><time>2026-04-05T14:17:29.999Z</time></trkpt><trkpt lat="44.44385272009207" lon="9.090030182769288"><ele>332.0</ele><time>2026-04-05T14:17:30.999Z</time></trkpt><trkpt lat="44.44391916352648" lon="9.089843171985057"><ele>339.5</ele><time>2026-04-05T14:17:31.999Z</time></trkpt><trkpt lat="44.44394927186737" lon="9.08967152788857"><ele>347.0</ele><time>2026-04-05T14:17:32.999Z</time></trkpt><trkpt lat="44.44396359253005" lon="9.08945934730361"><ele>354.5</ele><time>2026-04-05T14:17:33.999Z</time></trkpt><trkpt lat="44.443991322539844" lon="9.089303017858384"><ele>362.0</ele><time>2026-04-05T14:17:34.999Z</time></trkpt><trkpt lat="44.44403522730451" lon="9.089145219042658"><ele>357.0</ele><time>2026-04-05T14:17:35.999Z</time></trkpt><trkpt lat="44.44413784502729" lon="9.088988131830266"><ele>352.0</ele><time>2026-04-05T14:17:36.999Z</time></trkpt><trkpt lat="44.444266539422024" lon="9.088824027053443"><ele>347.0</ele><time>2026-04-05T14:17:37.999Z</time></trkpt><trkpt lat="44.444383307008934" lon="9.088706816155385"><ele>347.0</ele><time>2026-04-05T14:17:38.999Z</time></trkpt><trkpt lat="44.444469660230624" lon="9.088592013573619"><ele>347.0</ele><time>2026-04-05T14:17:39.999Z</time></trkpt><trkpt lat="44.444554765818744" lon="9.088513732124524"><ele>347.0</ele><time>2026-04-05T14:17:40.999Z</time></trkpt><trkpt lat="44.44465038972867" lon="9.088462806930757"><ele>347.0</ele><time>2026-04-05T14:17:41.999Z</time></trkpt><trkpt lat="44.44475380835242" lon="9.088499001299413"><ele>347.0</ele><time>2026-04-05T14:17:42.999Z</time></trkpt><trkpt lat="44.44485096087728" lon="9.088582296136654"><ele>352.0</ele><time>2026-04-05T14:17:43.999Z</time></trkpt><trkpt lat="44.44497280338599" lon="9.088697524050682"><ele>357.0</ele><time>2026-04-05T14:17:44.999Z</time></trkpt><trkpt lat="44.445127172975695" lon="9.088835205363859"><ele>362.0</ele><time>2026-04-05T14:17:45.999Z</time></trkpt><trkpt lat="44.445274845012676" lon="9.088963337847662"><ele>362.0</ele><time>2026-04-05T14:17:46.999Z</time></trkpt><trkpt lat="44.44540783938676" lon="9.089031764975225"><ele>362.0</ele><time>2026-04-05T14:17:47.999Z</time></trkpt><trkpt lat="44.44551421946563" lon="9.089091140296023"><ele>362.0</ele><time>2026-04-05T14:17:48.999Z</time></trkpt><trkpt lat="44.44564633598113" lon="9.089112442160376"><ele>362.0</ele><time>2026-04-05T14:17:49.999Z</time></trkpt><trkpt lat="44.44580381643306" lon="9.089078679485977"><ele>362.33333333333337</ele><time>2026-04-05T14:17:50.999Z</time></trkpt><trkpt lat="44.4459489113433" lon="9.089031164113987"><ele>362.6666666666667</ele><time>2026-04-05T14:17:51.999Z</time></trkpt><trkpt lat="44.446091218833466" lon="9.088955020916897"><ele>363.0</ele><time>2026-04-05T14:17:52.999Z</time></trkpt><trkpt lat="44.44628648027879" lon="9.088798936459304"><ele>371.5</ele><time>2026-04-05T14:17:53.999Z</time></trkpt><trkpt lat="44.4464888288291" lon="9.088653569497934"><ele>380.0</ele><time>2026-04-05T14:17:54.999Z</time></trkpt><trkpt lat="44.446733774749305" lon="9.088467085523419"><ele>380.0</ele><time>2026-04-05T14:17:55.999Z</time></trkpt><trkpt lat="44.44694190155565" lon="9.088266159018895"><ele>380.0</ele><time>2026-04-05T14:17:56.999Z</time></trkpt><trkpt lat="44.44714030340396" lon="9.088035939825094"><ele>381.0</ele><time>2026-04-05T14:17:57.999Z</time></trkpt><trkpt lat="44.44729979710157" lon="9.08781496040113"><ele>382.0</ele><time>2026-04-05T14:17:58.999Z</time></trkpt><trkpt lat="44.44744285705482" lon="9.087633598238524"><ele>383.0</ele><time>2026-04-05T14:17:59.999Z</time></trkpt><trkpt lat="44.44757271318802" lon="9.087456196952095"><ele>385.0</ele><time>2026-04-05T14:18:00.999Z</time></trkpt><trkpt lat="44.44766000501713" lon="9.08733592921919"><ele>387.0</ele><time>2026-04-05T14:18:01.999Z</time></trkpt><trkpt lat="44.44773786938817" lon="9.087225558039481"><ele>389.0</ele><time>2026-04-05T14:18:02.999Z</time></trkpt><trkpt lat="44.44783762838573" lon="9.087135083922618"><ele>391.0</ele><time>2026-04-05T14:18:03.999Z</time></trkpt><trkpt lat="44.44796808220761" lon="9.087080218595187"><ele>391.0</ele><time>2026-04-05T14:18:04.999Z</time></trkpt><trkpt lat="44.44809915929472" lon="9.087025968693334"><ele>391.0</ele><time>2026-04-05T14:18:05.999Z</time></trkpt><trkpt lat="44.448222613482294" lon="9.086970040779478"><ele>391.0</ele><time>2026-04-05T14:18:06.999Z</time></trkpt><trkpt lat="44.448352809573066" lon="9.08691975521378"><ele>391.0</ele><time>2026-04-05T14:18:07.999Z</time></trkpt><trkpt lat="44.44848628179603" lon="9.086859690604777"><ele>391.0</ele><time>2026-04-05T14:18:08.999Z</time></trkpt><trkpt lat="44.44859943421421" lon="9.086811330415449"><ele>391.0</ele><time>2026-04-05T14:18:09.999Z</time></trkpt><trkpt lat="44.44871876393448" lon="9.0867746459162"><ele>391.0</ele><time>2026-04-05T14:18:10.999Z</time></trkpt><trkpt lat="44.44883450360993" lon="9.086756912862366"><ele>391.0</ele><time>2026-04-05T14:18:11.999Z</time></trkpt><trkpt lat="44.44895587972313" lon="9.086761008310985"><ele>393.0</ele><time>2026-04-05T14:18:12.999Z</time></trkpt><trkpt lat="44.44906748506438" lon="9.086787858379553"><ele>395.0</ele><time>2026-04-05T14:18:13.999Z</time></trkpt><trkpt lat="44.44918315025475" lon="9.086841115122624"><ele>397.0</ele><time>2026-04-05T14:18:14.999Z</time></trkpt><trkpt lat="44.44929487834494" lon="9.086895093848348"><ele>399.0</ele><time>2026-04-05T14:18:16Z</time></trkpt><trkpt lat="44.44940291736657" lon="9.086945022541396"><ele>399.0</ele><time>2026-04-05T14:18:17Z</time></trkpt><trkpt lat="44.44952021559892" lon="9.086975502311182"><ele>399.0</ele><time>2026-04-05T14:18:18Z</time></trkpt><trkpt lat="44.44965712854018" lon="9.08698813048335"><ele>399.0</ele><time>2026-04-05T14:18:19Z</time></trkpt><trkpt lat="44.44978312733459" lon="9.086987886735562"><ele>399.0</ele><time>2026-04-05T14:18:20Z</time></trkpt><trkpt lat="44.44987968524933" lon="9.08698857911225"><ele>399.5</ele><time>2026-04-05T14:18:21Z</time></trkpt><trkpt lat="44.449955829760206" lon="9.086968301285191"><ele>400.0</ele><time>2026-04-05T14:18:22Z</time></trkpt><trkpt lat="44.45002586510109" lon="9.086983100375376"><ele>400.5</ele><time>2026-04-05T14:18:24Z</time></trkpt><trkpt lat="44.45011297357916" lon="9.087005127154903"><ele>401.0</ele><time>2026-04-05T14:18:27Z</time></trkpt><trkpt lat="44.450179077916786" lon="9.087003174835111"><ele>401.5</ele><time>2026-04-05T14:18:28Z</time></trkpt><trkpt lat="44.450268802086555" lon="9.086942849120096"><ele>402.0</ele><time>2026-04-05T14:18:29Z</time></trkpt><trkpt lat="44.45034558115955" lon="9.086869257940485"><ele>402.0</ele><time>2026-04-05T14:18:30Z</time></trkpt><trkpt lat="44.450430291205585" lon="9.086802010698907"><ele>402.0</ele><time>2026-04-05T14:18:31Z</time></trkpt><trkpt lat="44.450488434125006" lon="9.086737161323656"><ele>402.0</ele><time>2026-04-05T14:18:32Z</time></trkpt><trkpt lat="44.450571293773955" lon="9.086720117578084"><ele>402.0</ele><time>2026-04-05T14:18:33Z</time></trkpt><trkpt lat="44.45066395380682" lon="9.086751474694344"><ele>402.0</ele><time>2026-04-05T14:18:34Z</time></trkpt><trkpt lat="44.45077808156108" lon="9.086791079582936"><ele>404.5</ele><time>2026-04-05T14:18:35Z</time></trkpt><trkpt lat="44.450897855579015" lon="9.086813902755189"><ele>407.0</ele><time>2026-04-05T14:18:36Z</time></trkpt><trkpt lat="44.451037145449604" lon="9.086786106517078"><ele>409.5</ele><time>2026-04-05T14:18:37Z</time></trkpt><trkpt lat="44.45119222731456" lon="9.086742159169544"><ele>412.0</ele><time>2026-04-05T14:18:38Z</time></trkpt><trkpt lat="44.45133073677289" lon="9.086684617150445"><ele>411.40000000000003</ele><time>2026-04-05T14:18:39Z</time></trkpt><trkpt lat="44.45143744764098" lon="9.086614185935648"><ele>410.8</ele><time>2026-04-05T14:18:40Z</time></trkpt><trkpt lat="44.45152440284338" lon="9.086556222755396"><ele>410.2</ele><time>2026-04-05T14:18:41Z</time></trkpt><trkpt lat="44.45160952015413" lon="9.086550182604762"><ele>409.6</ele><time>2026-04-05T14:18:42Z</time></trkpt><trkpt lat="44.45170007911505" lon="9.086593958560702"><ele>409.0</ele><time>2026-04-05T14:18:43Z</time></trkpt><trkpt lat="44.45181151752992" lon="9.086695478981841"><ele>411.5</ele><time>2026-04-05T14:18:44Z</time></trkpt><trkpt lat="44.451933198806046" lon="9.086799801183366"><ele>414.0</ele><time>2026-04-05T14:18:45Z</time></trkpt><trkpt lat="44.45205262574931" lon="9.08686875626181"><ele>416.5</ele><time>2026-04-05T14:18:46Z</time></trkpt><trkpt lat="44.452143323852795" lon="9.086913546628557"><ele>419.0</ele><time>2026-04-05T14:18:47Z</time></trkpt><trkpt lat="44.45226141513665" lon="9.086917218677522"><ele>420.5</ele><time>2026-04-05T14:18:48Z</time></trkpt><trkpt lat="44.452370989475924" lon="9.08688086441406"><ele>422.0</ele><time>2026-04-05T14:18:49Z</time></trkpt><trkpt lat="44.452505705377455" lon="9.08679136146832"><ele>423.5</ele><time>2026-04-05T14:18:50Z</time></trkpt><trkpt lat="44.45263633764008" lon="9.08668297466082"><ele>425.0</ele><time>2026-04-05T14:18:51Z</time></trkpt><trkpt lat="44.45275720465864" lon="9.08659677992391"><ele>427.0</ele><time>2026-04-05T14:18:52Z</time></trkpt><trkpt lat="44.45286351486993" lon="9.086564920862934"><ele>429.0</ele><time>2026-04-05T14:18:53Z</time></trkpt><trkpt lat="44.45297011826782" lon="9.086566422346191"><ele>431.0</ele><time>2026-04-05T14:18:54Z</time></trkpt><trkpt lat="44.45308276727863" lon="9.086617505069793"><ele>433.0</ele><time>2026-04-05T14:18:55Z</time></trkpt><trkpt lat="44.45319421538741" lon="9.086705254902936"><ele>433.0</ele><time>2026-04-05T14:18:56Z</time></trkpt><trkpt lat="44.453324902662544" lon="9.086846125576065"><ele>433.0</ele><time>2026-04-05T14:18:57Z</time></trkpt><trkpt lat="44.45343067405129" lon="9.08694448990026"><ele>433.0</ele><time>2026-04-05T14:18:58Z</time></trkpt><trkpt lat="44.4535308689594" lon="9.087006914960881"><ele>433.0</ele><time>2026-04-05T14:18:59Z</time></trkpt><trkpt lat="44.45365838230389" lon="9.087028466786974"><ele>433.0</ele><time>2026-04-05T14:19:00Z</time></trkpt><trkpt lat="44.453780590989524" lon="9.087011196310808"><ele>433.0</ele><time>2026-04-05T14:19:01Z</time></trkpt><trkpt lat="44.453888766353195" lon="9.08694260147005"><ele>433.0</ele><time>2026-04-05T14:19:02Z</time></trkpt><trkpt lat="44.453975613292386" lon="9.086844918345548"><ele>433.0</ele><time>2026-04-05T14:19:03Z</time></trkpt><trkpt lat="44.45405042565419" lon="9.086748276958959"><ele>434.5</ele><time>2026-04-05T14:19:04Z</time></trkpt><trkpt lat="44.45414258738182" lon="9.086645342890876"><ele>436.0</ele><time>2026-04-05T14:19:05Z</time></trkpt><trkpt lat="44.454239439093925" lon="9.08656517762446"><ele>437.5</ele><time>2026-04-05T14:19:06Z</time></trkpt><trkpt lat="44.454360520486134" lon="9.086537266572641"><ele>439.0</ele><time>2026-04-05T14:19:07Z</time></trkpt><trkpt lat="44.45451991482184" lon="9.086529785499684"><ele>441.0</ele><time>2026-04-05T14:19:08Z</time></trkpt><trkpt lat="44.45471925855834" lon="9.086560742497594"><ele>443.0</ele><time>2026-04-05T14:19:09Z</time></trkpt><trkpt lat="44.45495160578679" lon="9.08658465010228"><ele>445.0</ele><time>2026-04-05T14:19:10Z</time></trkpt><trkpt lat="44.455204299605" lon="9.086605547796518"><ele>445.0</ele><time>2026-04-05T14:19:11Z</time></trkpt><trkpt lat="44.45544537332675" lon="9.086622350624287"><ele>445.0</ele><time>2026-04-05T14:19:12Z</time></trkpt><trkpt lat="44.45567360613254" lon="9.086646499646287"><ele>448.0</ele><time>2026-04-05T14:19:13Z</time></trkpt><trkpt lat="44.45587599014172" lon="9.086651671004704"><ele>451.0</ele><time>2026-04-05T14:19:14Z</time></trkpt><trkpt lat="44.456063647845795" lon="9.086662611928247"><ele>454.0</ele><time>2026-04-05T14:19:15Z</time></trkpt><trkpt lat="44.45622032622966" lon="9.086668686560397"><ele>451.75</ele><time>2026-04-05T14:19:16Z</time></trkpt><trkpt lat="44.45636117189867" lon="9.086691143172462"><ele>449.5</ele><time>2026-04-05T14:19:17Z</time></trkpt><trkpt lat="44.45649518338603" lon="9.086768837115445"><ele>447.25</ele><time>2026-04-05T14:19:17.999Z</time></trkpt><trkpt lat="44.456626531444584" lon="9.08688114466642"><ele>445.0</ele><time>2026-04-05T14:19:18.999Z</time></trkpt><trkpt lat="44.456729903566476" lon="9.087019985176632"><ele>445.0</ele><time>2026-04-05T14:19:19.999Z</time></trkpt><trkpt lat="44.456823027055286" lon="9.087170316064086"><ele>445.0</ele><time>2026-04-05T14:19:20.999Z</time></trkpt><trkpt lat="44.45690134637929" lon="9.087355306104032"><ele>445.0</ele><time>2026-04-05T14:19:21.999Z</time></trkpt><trkpt lat="44.456977913876344" lon="9.087544646975987"><ele>446.5</ele><time>2026-04-05T14:19:22.999Z</time></trkpt><trkpt lat="44.45705863413608" lon="9.087699052922154"><ele>448.0</ele><time>2026-04-05T14:19:23.999Z</time></trkpt><trkpt lat="44.45715362187716" lon="9.087840937448338"><ele>449.5</ele><time>2026-04-05T14:19:24.999Z</time></trkpt><trkpt lat="44.45727251336758" lon="9.087946975497703"><ele>451.0</ele><time>2026-04-05T14:19:25.999Z</time></trkpt><trkpt lat="44.45742975159279" lon="9.08804603642571"><ele>451.0</ele><time>2026-04-05T14:19:26.999Z</time></trkpt><trkpt lat="44.45763629743235" lon="9.088140443729019"><ele>451.0</ele><time>2026-04-05T14:19:27.999Z</time></trkpt><trkpt lat="44.457860429044565" lon="9.088226609885572"><ele>455.6666666666667</ele><time>2026-04-05T14:19:28.999Z</time></trkpt><trkpt lat="44.45804021026448" lon="9.088293408720046"><ele>460.33333333333337</ele><time>2026-04-05T14:19:29.999Z</time></trkpt><trkpt lat="44.458195062437305" lon="9.08835344460893"><ele>465.0</ele><time>2026-04-05T14:19:30.999Z</time></trkpt><trkpt lat="44.458323006732535" lon="9.088409624056178"><ele>465.0</ele><time>2026-04-05T14:19:31.999Z</time></trkpt><trkpt lat="44.45842930919239" lon="9.088459875361565"><ele>465.0</ele><time>2026-04-05T14:19:32.999Z</time></trkpt><trkpt lat="44.458523832060074" lon="9.08853333902215"><ele>465.0</ele><time>2026-04-05T14:19:33.999Z</time></trkpt><trkpt lat="44.458615320733486" lon="9.088645104328483"><ele>465.0</ele><time>2026-04-05T14:19:34.999Z</time></trkpt><trkpt lat="44.45868785057872" lon="9.088776461879194"><ele>465.0</ele><time>2026-04-05T14:19:35.999Z</time></trkpt><trkpt lat="44.458733861795785" lon="9.088933224401739"><ele>465.0</ele><time>2026-04-05T14:19:36.999Z</time></trkpt><trkpt lat="44.45875409441467" lon="9.089099681676007"><ele>465.0</ele><time>2026-04-05T14:19:37.999Z</time></trkpt><trkpt lat="44.458743239581985" lon="9.089282592689656"><ele>465.0</ele><time>2026-04-05T14:19:38.999Z</time></trkpt><trkpt lat="44.45870207444925" lon="9.089468966356856"><ele>470.75</ele><time>2026-04-05T14:19:39.999Z</time></trkpt><trkpt lat="44.45864676185765" lon="9.089663798587166"><ele>476.5</ele><time>2026-04-05T14:19:40.999Z</time></trkpt><trkpt lat="44.45860930808001" lon="9.089833397861444"><ele>482.25</ele><time>2026-04-05T14:19:41.999Z</time></trkpt><trkpt lat="44.45861574535432" lon="9.09001495920166"><ele>488.0</ele><time>2026-04-05T14:19:42.999Z</time></trkpt><trkpt lat="44.45865194275388" lon="9.090231907060236"><ele>490.0</ele><time>2026-04-05T14:19:43.999Z</time></trkpt><trkpt lat="44.458703381664975" lon="9.090479540556501"><ele>492.0</ele><time>2026-04-05T14:19:44.999Z</time></trkpt><trkpt lat="44.45876157862417" lon="9.090739951144876"><ele>494.0</ele><time>2026-04-05T14:19:45.999Z</time></trkpt><trkpt lat="44.45882105958897" lon="9.090966139777501"><ele>492.0</ele><time>2026-04-05T14:19:46.999Z</time></trkpt><trkpt lat="44.45886372048036" lon="9.091188728555077"><ele>490.0</ele><time>2026-04-05T14:19:47.999Z</time></trkpt><trkpt lat="44.4589066575489" lon="9.091380995697943"><ele>488.0</ele><time>2026-04-05T14:19:48.999Z</time></trkpt><trkpt lat="44.45894068466103" lon="9.091558861685431"><ele>486.0</ele><time>2026-04-05T14:19:49.999Z</time></trkpt><trkpt lat="44.4589548835768" lon="9.091736320469494"><ele>486.0</ele><time>2026-04-05T14:19:50.999Z</time></trkpt><trkpt lat="44.45894094662025" lon="9.09193425378845"><ele>486.0</ele><time>2026-04-05T14:19:51.999Z</time></trkpt><trkpt lat="44.45890264038566" lon="9.092135434914722"><ele>486.0</ele><time>2026-04-05T14:19:52.999Z</time></trkpt><trkpt lat="44.458850047120514" lon="9.092318864682792"><ele>486.0</ele><time>2026-04-05T14:19:53.999Z</time></trkpt><trkpt lat="44.458744344580275" lon="9.092532322447502"><ele>495.0</ele><time>2026-04-05T14:19:54.999Z</time></trkpt><trkpt lat="44.45864976468901" lon="9.092716954599245"><ele>504.0</ele><time>2026-04-05T14:19:55.999Z</time></trkpt><trkpt lat="44.458577285301736" lon="9.0928639350406"><ele>513.0</ele><time>2026-04-05T14:19:56.999Z</time></trkpt><trkpt lat="44.4585338040747" lon="9.092991947058053"><ele>522.0</ele><time>2026-04-05T14:19:57.999Z</time></trkpt><trkpt lat="44.458506166672436" lon="9.093144827427409"><ele>522.5</ele><time>2026-04-05T14:19:58.999Z</time></trkpt><trkpt lat="44.45851210801061" lon="9.093328782893561"><ele>523.0</ele><time>2026-04-05T14:19:59.999Z</time></trkpt><trkpt lat="44.45855290013928" lon="9.093490238885932"><ele>523.5</ele><time>2026-04-05T14:20:00.999Z</time></trkpt><trkpt lat="44.458622917551395" lon="9.093652870995513"><ele>524.0</ele><time>2026-04-05T14:20:01.999Z</time></trkpt><trkpt lat="44.45873130148073" lon="9.093800652157727"><ele>517.3333333333333</ele><time>2026-04-05T14:20:02.999Z</time></trkpt><trkpt lat="44.458867860963686" lon="9.093930669348573"><ele>510.66666666666663</ele><time>2026-04-05T14:20:03.999Z</time></trkpt><trkpt lat="44.45900965823752" lon="9.0940555060067"><ele>504.0</ele><time>2026-04-05T14:20:04.999Z</time></trkpt><trkpt lat="44.459144687520045" lon="9.094153626753343"><ele>504.0</ele><time>2026-04-05T14:20:05.999Z</time></trkpt><trkpt lat="44.45927234195805" lon="9.094241439011785"><ele>504.0</ele><time>2026-04-05T14:20:06.999Z</time></trkpt><trkpt lat="44.459401964864426" lon="9.09428874008691"><ele>504.0</ele><time>2026-04-05T14:20:07.999Z</time></trkpt><trkpt lat="44.45954701706116" lon="9.094296746387776"><ele>504.0</ele><time>2026-04-05T14:20:08.999Z</time></trkpt><trkpt lat="44.459663208049676" lon="9.094291488936161"><ele>503.5</ele><time>2026-04-05T14:20:09.999Z</time></trkpt><trkpt lat="44.45978114351265" lon="9.094314399701755"><ele>503.0</ele><time>2026-04-05T14:20:10.999Z</time></trkpt><trkpt lat="44.45989635181708" lon="9.094382296043287"><ele>502.5</ele><time>2026-04-05T14:20:11.999Z</time></trkpt><trkpt lat="44.460033736982815" lon="9.094518489776329"><ele>502.0</ele><time>2026-04-05T14:20:12.999Z</time></trkpt><trkpt lat="44.46015982906814" lon="9.094688595057876"><ele>502.0</ele><time>2026-04-05T14:20:13.999Z</time></trkpt><trkpt lat="44.46030366239741" lon="9.094908110421596"><ele>502.0</ele><time>2026-04-05T14:20:14.999Z</time></trkpt><trkpt lat="44.46046998711945" lon="9.095165430162506"><ele>502.33333333333337</ele><time>2026-04-05T14:20:15.999Z</time></trkpt><trkpt lat="44.460610484574175" lon="9.0954161479803"><ele>502.66666666666663</ele><time>2026-04-05T14:20:16.999Z</time></trkpt><trkpt lat="44.460736417562515" lon="9.095568973780296"><ele>503.0</ele><time>2026-04-05T14:20:17.999Z</time></trkpt><trkpt lat="44.460838796391" lon="9.095728101674796"><ele>508.0</ele><time>2026-04-05T14:20:18.999Z</time></trkpt><trkpt lat="44.460917242929014" lon="9.0958940323611"><ele>513.0</ele><time>2026-04-05T14:20:19.999Z</time></trkpt><trkpt lat="44.460989914288476" lon="9.096088029909952"><ele>518.0</ele><time>2026-04-05T14:20:20.999Z</time></trkpt><trkpt lat="44.46102484359738" lon="9.096285711352607"><ele>523.0</ele><time>2026-04-05T14:20:22Z</time></trkpt><trkpt lat="44.461043781781804" lon="9.096475448125158"><ele>528.6666666666667</ele><time>2026-04-05T14:20:23Z</time></trkpt><trkpt lat="44.46102308116549" lon="9.09669119466562"><ele>534.3333333333334</ele><time>2026-04-05T14:20:24Z</time></trkpt><trkpt lat="44.46098076397056" lon="9.096943817235674"><ele>540.0</ele><time>2026-04-05T14:20:25Z</time></trkpt><trkpt lat="44.460925939010245" lon="9.097219747308273"><ele>539.3333333333334</ele><time>2026-04-05T14:20:26Z</time></trkpt><trkpt lat="44.46087123330743" lon="9.097442791345147"><ele>538.6666666666667</ele><time>2026-04-05T14:20:27Z</time></trkpt><trkpt lat="44.460837898286904" lon="9.097647716461095"><ele>538.0</ele><time>2026-04-05T14:20:28Z</time></trkpt><trkpt lat="44.46081488387115" lon="9.097842215524858"><ele>538.0</ele><time>2026-04-05T14:20:29Z</time></trkpt><trkpt lat="44.46081705496102" lon="9.098022544725703"><ele>538.0</ele><time>2026-04-05T14:20:30Z</time></trkpt><trkpt lat="44.46084424906577" lon="9.098202918913243"><ele>538.0</ele><time>2026-04-05T14:20:31Z</time></trkpt><trkpt lat="44.46089154805134" lon="9.098388418934109"><ele>538.0</ele><time>2026-04-05T14:20:32Z</time></trkpt><trkpt lat="44.460961381116" lon="9.098559702024438"><ele>540.75</ele><time>2026-04-05T14:20:33Z</time></trkpt><trkpt lat="44.461056434658204" lon="9.098708217284027"><ele>543.5</ele><time>2026-04-05T14:20:34Z</time></trkpt><trkpt lat="44.46118021873252" lon="9.09882613743566"><ele>546.25</ele><time>2026-04-05T14:20:35Z</time></trkpt><trkpt lat="44.46129953727401" lon="9.098940357890076"><ele>549.0</ele><time>2026-04-05T14:20:36Z</time></trkpt><trkpt lat="44.46146311149407" lon="9.0989926139575"><ele>547.5</ele><time>2026-04-05T14:20:37Z</time></trkpt><trkpt lat="44.461556771097996" lon="9.099064927446992"><ele>546.0</ele><time>2026-04-05T14:20:38Z</time></trkpt><trkpt lat="44.461644389276756" lon="9.09920780565777"><ele>544.5</ele><time>2026-04-05T14:20:39Z</time></trkpt><trkpt lat="44.4617018073316" lon="9.099371723110627"><ele>543.0</ele><time>2026-04-05T14:20:40Z</time></trkpt><trkpt lat="44.46171979346005" lon="9.09957806631664"><ele>543.0</ele><time>2026-04-05T14:20:41Z</time></trkpt><trkpt lat="44.46174447071482" lon="9.09983059953925"><ele>543.0</ele><time>2026-04-05T14:20:42Z</time></trkpt><trkpt lat="44.46174452694034" lon="9.100036417255863"><ele>543.0</ele><time>2026-04-05T14:20:43Z</time></trkpt><trkpt lat="44.461750895108445" lon="9.100186800182072"><ele>543.0</ele><time>2026-04-05T14:20:44Z</time></trkpt><trkpt lat="44.46181051109385" lon="9.100342765115451"><ele>541.75</ele><time>2026-04-05T14:20:45Z</time></trkpt><trkpt lat="44.461896876312515" lon="9.100478136654784"><ele>540.5</ele><time>2026-04-05T14:20:46Z</time></trkpt><trkpt lat="44.46201436223242" lon="9.100610754816941"><ele>539.25</ele><time>2026-04-05T14:20:47Z</time></trkpt><trkpt lat="44.46215544280107" lon="9.100732943774746"><ele>538.0</ele><time>2026-04-05T14:20:48Z</time></trkpt><trkpt lat="44.46232775581303" lon="9.100858952777926"><ele>544.0</ele><time>2026-04-05T14:20:49Z</time></trkpt><trkpt lat="44.46250032380363" lon="9.100980226592236"><ele>550.0</ele><time>2026-04-05T14:20:50Z</time></trkpt><trkpt lat="44.46267806664063" lon="9.101114898442225"><ele>556.0</ele><time>2026-04-05T14:20:51Z</time></trkpt><trkpt lat="44.46286370465108" lon="9.101254392405556"><ele>556.6666666666667</ele><time>2026-04-05T14:20:52Z</time></trkpt><trkpt lat="44.463039171125736" lon="9.101364884300848"><ele>557.3333333333334</ele><time>2026-04-05T14:20:53Z</time></trkpt><trkpt lat="44.463180732044265" lon="9.101469640603"><ele>558.0</ele><time>2026-04-05T14:20:54Z</time></trkpt><trkpt lat="44.463341186819285" lon="9.101588406499596"><ele>558.0</ele><time>2026-04-05T14:20:55Z</time></trkpt><trkpt lat="44.46349995483128" lon="9.101711094401509"><ele>558.0</ele><time>2026-04-05T14:20:56Z</time></trkpt><trkpt lat="44.46364002764858" lon="9.101823237979874"><ele>558.0</ele><time>2026-04-05T14:20:57Z</time></trkpt><trkpt lat="44.463771349886024" lon="9.101925504410886"><ele>555.5</ele><time>2026-04-05T14:20:58Z</time></trkpt><trkpt lat="44.46389287589674" lon="9.102027045273362"><ele>553.0</ele><time>2026-04-05T14:20:59Z</time></trkpt><trkpt lat="44.46400405516788" lon="9.102108778393019"><ele>550.5</ele><time>2026-04-05T14:21:00Z</time></trkpt><trkpt lat="44.46410766802044" lon="9.102184161164999"><ele>548.0</ele><time>2026-04-05T14:21:01Z</time></trkpt><trkpt lat="44.46420957929138" lon="9.102255294324928"><ele>548.0</ele><time>2026-04-05T14:21:02Z</time></trkpt><trkpt lat="44.464283438452966" lon="9.102359104446643"><ele>548.0</ele><time>2026-04-05T14:21:03Z</time></trkpt><trkpt lat="44.46437599336991" lon="9.10244081690236"><ele>548.0</ele><time>2026-04-05T14:21:04Z</time></trkpt><trkpt lat="44.46446417056767" lon="9.10251113000444"><ele>548.0</ele><time>2026-04-05T14:21:05Z</time></trkpt><trkpt lat="44.46454834315578" lon="9.102568582008962"><ele>548.0</ele><time>2026-04-05T14:21:06Z</time></trkpt><trkpt lat="44.4646340581869" lon="9.102632538555513"><ele>550.4</ele><time>2026-04-05T14:21:07Z</time></trkpt><trkpt lat="44.464727964025975" lon="9.102691840400176"><ele>552.8</ele><time>2026-04-05T14:21:08Z</time></trkpt><trkpt lat="44.46481432145635" lon="9.1027600141301"><ele>555.2</ele><time>2026-04-05T14:21:09Z</time></trkpt><trkpt lat="44.46489394375822" lon="9.1028287651291"><ele>557.6</ele><time>2026-04-05T14:21:10Z</time></trkpt><trkpt lat="44.46498386042868" lon="9.102900642261185"><ele>560.0</ele><time>2026-04-05T14:21:11Z</time></trkpt><trkpt lat="44.46506798941519" lon="9.102969477105653"><ele>560.0</ele><time>2026-04-05T14:21:12Z</time></trkpt><trkpt lat="44.46514862593008" lon="9.103039909498921"><ele>560.0</ele><time>2026-04-05T14:21:13Z</time></trkpt><trkpt lat="44.46524113265217" lon="9.10310867109908"><ele>560.0</ele><time>2026-04-05T14:21:14Z</time></trkpt><trkpt lat="44.46534221292215" lon="9.1031636465572"><ele>560.0</ele><time>2026-04-05T14:21:15Z</time></trkpt><trkpt lat="44.46545071113277" lon="9.103233673685391"><ele>560.0</ele><time>2026-04-05T14:21:16Z</time></trkpt><trkpt lat="44.465547992381644" lon="9.103292144021953"><ele>559.25</ele><time>2026-04-05T14:21:17Z</time></trkpt><trkpt lat="44.46564887040454" lon="9.103383305138259"><ele>558.5</ele><time>2026-04-05T14:21:18Z</time></trkpt><trkpt lat="44.46574782265354" lon="9.103501705911325"><ele>557.75</ele><time>2026-04-05T14:21:19Z</time></trkpt><trkpt lat="44.46582380398767" lon="9.103670625974516"><ele>557.0</ele><time>2026-04-05T14:21:20Z</time></trkpt><trkpt lat="44.465886161508074" lon="9.103856485242966"><ele>557.0</ele><time>2026-04-05T14:21:21Z</time></trkpt><trkpt lat="44.4659140734915" lon="9.104044933388659"><ele>557.0</ele><time>2026-04-05T14:21:22Z</time></trkpt><trkpt lat="44.465927023563594" lon="9.104244734522913"><ele>557.0</ele><time>2026-04-05T14:21:23Z</time></trkpt><trkpt lat="44.46590582418339" lon="9.104431532046762"><ele>557.0</ele><time>2026-04-05T14:21:23.999Z</time></trkpt><trkpt lat="44.465871167483165" lon="9.1046138345582"><ele>559.6666666666666</ele><time>2026-04-05T14:21:24.999Z</time></trkpt><trkpt lat="44.46580732753839" lon="9.104782091972403"><ele>562.3333333333334</ele><time>2026-04-05T14:21:25.999Z</time></trkpt><trkpt lat="44.46570140108314" lon="9.104973571070895"><ele>565.0</ele><time>2026-04-05T14:21:26.999Z</time></trkpt><trkpt lat="44.46557448685605" lon="9.105203459666312"><ele>565.0</ele><time>2026-04-05T14:21:27.999Z</time></trkpt><trkpt lat="44.465459122174025" lon="9.105413495658624"><ele>565.0</ele><time>2026-04-05T14:21:28.999Z</time></trkpt><trkpt lat="44.46536390132292" lon="9.105583410702812"><ele>565.0</ele><time>2026-04-05T14:21:29.999Z</time></trkpt><trkpt lat="44.46528619601636" lon="9.105753935886348"><ele>573.75</ele><time>2026-04-05T14:21:30.999Z</time></trkpt><trkpt lat="44.46524457327673" lon="9.105905834455953"><ele>582.5</ele><time>2026-04-05T14:21:31.999Z</time></trkpt><trkpt lat="44.465226141431756" lon="9.106084693475118"><ele>591.25</ele><time>2026-04-05T14:21:32.999Z</time></trkpt><trkpt lat="44.46523942263373" lon="9.10627095119789"><ele>600.0</ele><time>2026-04-05T14:21:33.999Z</time></trkpt><trkpt lat="44.46528565643826" lon="9.106432167043854"><ele>599.5</ele><time>2026-04-05T14:21:34.999Z</time></trkpt><trkpt lat="44.46536594145499" lon="9.106593593624607"><ele>599.0</ele><time>2026-04-05T14:21:35.999Z</time></trkpt><trkpt lat="44.46546422223937" lon="9.106726327560732"><ele>598.5</ele><time>2026-04-05T14:21:36.999Z</time></trkpt><trkpt lat="44.46556400517426" lon="9.106837263848254"><ele>598.0</ele><time>2026-04-05T14:21:37.999Z</time></trkpt><trkpt lat="44.465679076288964" lon="9.106916484754072"><ele>591.0</ele><time>2026-04-05T14:21:38.999Z</time></trkpt><trkpt lat="44.46584998087926" lon="9.106980171059144"><ele>584.0</ele><time>2026-04-05T14:21:39.999Z</time></trkpt><trkpt lat="44.466004166479486" lon="9.107053160290183"><ele>577.0</ele><time>2026-04-05T14:21:40.999Z</time></trkpt><trkpt lat="44.46610768087145" lon="9.107104479616117"><ele>570.0</ele><time>2026-04-05T14:21:41.999Z</time></trkpt><trkpt lat="44.46626234732476" lon="9.107137047310303"><ele>569.25</ele><time>2026-04-05T14:21:42.999Z</time></trkpt><trkpt lat="44.46637218461507" lon="9.107219590063803"><ele>568.5</ele><time>2026-04-05T14:21:43.999Z</time></trkpt><trkpt lat="44.4664134118822" lon="9.107371697637598"><ele>567.75</ele><time>2026-04-05T14:21:44.999Z</time></trkpt><trkpt lat="44.466452050302756" lon="9.107540303857121"><ele>567.0</ele><time>2026-04-05T14:21:45.999Z</time></trkpt><trkpt lat="44.46646053596343" lon="9.107728012503648"><ele>567.0</ele><time>2026-04-05T14:21:46.999Z</time></trkpt><trkpt lat="44.46643635978158" lon="9.10796701051325"><ele>567.0</ele><time>2026-04-05T14:21:47.999Z</time></trkpt><trkpt lat="44.46642688955541" lon="9.10819429868251"><ele>567.0</ele><time>2026-04-05T14:21:48.999Z</time></trkpt><trkpt lat="44.46639957607372" lon="9.108351763249209"><ele>567.0</ele><time>2026-04-05T14:21:49.999Z</time></trkpt><trkpt lat="44.46633840743148" lon="9.108536647920387"><ele>567.0</ele><time>2026-04-05T14:21:50.999Z</time></trkpt><trkpt lat="44.466207775180514" lon="9.1087194308178"><ele>567.0</ele><time>2026-04-05T14:21:51.999Z</time></trkpt><trkpt lat="44.46610369171132" lon="9.10894279500019"><ele>574.5</ele><time>2026-04-05T14:21:52.999Z</time></trkpt><trkpt lat="44.46603446571703" lon="9.109138878008379"><ele>582.0</ele><time>2026-04-05T14:21:53.999Z</time></trkpt><trkpt lat="44.46599309301012" lon="9.109321208918542"><ele>589.5</ele><time>2026-04-05T14:21:54.999Z</time></trkpt><trkpt lat="44.46595784939131" lon="9.109514483726922"><ele>597.0</ele><time>2026-04-05T14:21:55.999Z</time></trkpt><trkpt lat="44.46595795425425" lon="9.10973696213535"><ele>597.3333333333334</ele><time>2026-04-05T14:21:56.999Z</time></trkpt><trkpt lat="44.46597170197145" lon="9.109961288710123"><ele>597.6666666666667</ele><time>2026-04-05T14:21:57.999Z</time></trkpt><trkpt lat="44.46601562247294" lon="9.110205945380828"><ele>598.0</ele><time>2026-04-05T14:21:58.999Z</time></trkpt><trkpt lat="44.46608541783325" lon="9.110493685494744"><ele>605.5</ele><time>2026-04-05T14:21:59.999Z</time></trkpt><trkpt lat="44.466170535207915" lon="9.110821163051254"><ele>613.0</ele><time>2026-04-05T14:22:00.999Z</time></trkpt><trkpt lat="44.466260895964254" lon="9.111134917926968"><ele>604.3333333333334</ele><time>2026-04-05T14:22:01.999Z</time></trkpt><trkpt lat="44.466327908493476" lon="9.111374873535553"><ele>595.6666666666666</ele><time>2026-04-05T14:22:02.999Z</time></trkpt><trkpt lat="44.466382926144654" lon="9.111608134031151"><ele>587.0</ele><time>2026-04-05T14:22:03.999Z</time></trkpt><trkpt lat="44.46642646657265" lon="9.11183913167174"><ele>587.0</ele><time>2026-04-05T14:22:04.999Z</time></trkpt><trkpt lat="44.466482520792745" lon="9.112063342019516"><ele>587.0</ele><time>2026-04-05T14:22:05.999Z</time></trkpt><trkpt lat="44.46658140024249" lon="9.11229557272327"><ele>587.0</ele><time>2026-04-05T14:22:06.999Z</time></trkpt><trkpt lat="44.46671682462902" lon="9.11254076364938"><ele>592.0</ele><time>2026-04-05T14:22:07.999Z</time></trkpt><trkpt lat="44.466863288140736" lon="9.112800079021929"><ele>597.0</ele><time>2026-04-05T14:22:08.999Z</time></trkpt><trkpt lat="44.46698085530212" lon="9.113052095052668"><ele>593.3333333333334</ele><time>2026-04-05T14:22:09.999Z</time></trkpt><trkpt lat="44.467099290151296" lon="9.11331345606599"><ele>589.6666666666667</ele><time>2026-04-05T14:22:10.999Z</time></trkpt><trkpt lat="44.46722576270433" lon="9.113562993209666"><ele>586.0</ele><time>2026-04-05T14:22:11.999Z</time></trkpt><trkpt lat="44.467329041587014" lon="9.113779737964775"><ele>586.0</ele><time>2026-04-05T14:22:12.999Z</time></trkpt><trkpt lat="44.467445789693166" lon="9.113994292408506"><ele>586.0</ele><time>2026-04-05T14:22:13.999Z</time></trkpt><trkpt lat="44.46753401289708" lon="9.114208738887191"><ele>586.0</ele><time>2026-04-05T14:22:14.999Z</time></trkpt><trkpt lat="44.46761762146171" lon="9.114381735554343"><ele>589.0</ele><time>2026-04-05T14:22:15.999Z</time></trkpt><trkpt lat="44.46769019425129" lon="9.114533548464337"><ele>592.0</ele><time>2026-04-05T14:22:16.999Z</time></trkpt><trkpt lat="44.467770876599474" lon="9.114672758080186"><ele>595.0</ele><time>2026-04-05T14:22:17.999Z</time></trkpt><trkpt lat="44.46779879619789" lon="9.114873941210506"><ele>598.0</ele><time>2026-04-05T14:22:18.999Z</time></trkpt><trkpt lat="44.46781091834055" lon="9.115074640080595"><ele>597.25</ele><time>2026-04-05T14:22:19.999Z</time></trkpt><trkpt lat="44.46782852356493" lon="9.115226247869947"><ele>596.5</ele><time>2026-04-05T14:22:20.999Z</time></trkpt><trkpt lat="44.46789257809458" lon="9.115367714149109"><ele>595.75</ele><time>2026-04-05T14:22:21.999Z</time></trkpt><trkpt lat="44.467985368162864" lon="9.115502246815247"><ele>595.0</ele><time>2026-04-05T14:22:22.999Z</time></trkpt><trkpt lat="44.46809478170704" lon="9.11563365332111"><ele>595.0</ele><time>2026-04-05T14:22:23.999Z</time></trkpt><trkpt lat="44.468242892097685" lon="9.115696634305852"><ele>595.0</ele><time>2026-04-05T14:22:24.999Z</time></trkpt><trkpt lat="44.46841310821628" lon="9.115758095260976"><ele>595.0</ele><time>2026-04-05T14:22:25.999Z</time></trkpt><trkpt lat="44.46859665835202" lon="9.115825335224214"><ele>605.5</ele><time>2026-04-05T14:22:26.999Z</time></trkpt><trkpt lat="44.46882526898971" lon="9.11593010329145"><ele>616.0</ele><time>2026-04-05T14:22:28Z</time></trkpt><trkpt lat="44.469060664223754" lon="9.116049042020226"><ele>616.0</ele><time>2026-04-05T14:22:29Z</time></trkpt><trkpt lat="44.46924576395171" lon="9.116160630900318"><ele>616.0</ele><time>2026-04-05T14:22:30Z</time></trkpt><trkpt lat="44.46943724479135" lon="9.116286002964372"><ele>616.0</ele><time>2026-04-05T14:22:31Z</time></trkpt><trkpt lat="44.469583466524476" lon="9.11639912961945"><ele>616.3333333333334</ele><time>2026-04-05T14:22:32Z</time></trkpt><trkpt lat="44.469752704928965" lon="9.11644725913584"><ele>616.6666666666666</ele><time>2026-04-05T14:22:33Z</time></trkpt><trkpt lat="44.469919250563485" lon="9.116503653345019"><ele>617.0</ele><time>2026-04-05T14:22:34Z</time></trkpt><trkpt lat="44.47010340673984" lon="9.116528289821701"><ele>622.3333333333333</ele><time>2026-04-05T14:22:35Z</time></trkpt><trkpt lat="44.47027848078016" lon="9.116592844412752"><ele>627.6666666666666</ele><time>2026-04-05T14:22:36Z</time></trkpt><trkpt lat="44.47042546844437" lon="9.116640834017735"><ele>633.0</ele><time>2026-04-05T14:22:37Z</time></trkpt><trkpt lat="44.4705651228143" lon="9.11669999099855"><ele>634.5</ele><time>2026-04-05T14:22:38Z</time></trkpt><trkpt lat="44.47068861120612" lon="9.116761632880994"><ele>636.0</ele><time>2026-04-05T14:22:39Z</time></trkpt><trkpt lat="44.47081304428164" lon="9.116831084433715"><ele>637.5</ele><time>2026-04-05T14:22:40Z</time></trkpt><trkpt lat="44.470946786431426" lon="9.116906702517147"><ele>639.0</ele><time>2026-04-05T14:22:41Z</time></trkpt><trkpt lat="44.471088221210756" lon="9.116987123932375"><ele>639.0</ele><time>2026-04-05T14:22:42Z</time></trkpt><trkpt lat="44.47123180882784" lon="9.117068168477793"><ele>639.0</ele><time>2026-04-05T14:22:43.013Z</time></trkpt><trkpt lat="44.47137818070047" lon="9.117149922534376"><ele>639.0</ele><time>2026-04-05T14:22:44.017Z</time></trkpt><trkpt lat="44.471526199583" lon="9.11723259621711"><ele>648.6666666666666</ele><time>2026-04-05T14:22:45.017Z</time></trkpt><trkpt lat="44.471678975344254" lon="9.11731792707852"><ele>658.3333333333333</ele><time>2026-04-05T14:22:46.018Z</time></trkpt><trkpt lat="44.47183600212185" lon="9.117380996886665"><ele>668.0</ele><time>2026-04-05T14:22:47.018Z</time></trkpt><trkpt lat="44.47198569596675" lon="9.117469052630994"><ele>719.0</ele><time>2026-04-05T14:22:48.016Z</time></trkpt><trkpt lat="44.473811843021934" lon="9.118498655293461"><ele>719.0</ele><time>2026-04-05T14:22:51.133Z</time></trkpt><trkpt lat="44.47439552283551" lon="9.11882955898303"><ele>720.0</ele><time>2026-04-05T14:22:52.133Z</time></trkpt><trkpt lat="44.47498008743984" lon="9.119157505185022"><ele>714.0</ele><time>2026-04-05T14:22:53.133Z</time></trkpt><trkpt lat="44.47556316445801" lon="9.119490356009313"><ele>714.0</ele><time>2026-04-05T14:22:54.133Z</time></trkpt><trkpt lat="44.4758691" lon="9.119665"><ele>714.0</ele><time>2026-04-05T14:22:55.133Z</time></trkpt><trkpt lat="44.48299763262689" lon="9.124197475620662"><ele>678.0</ele><time>2026-04-05T14:23:46.999Z</time></trkpt><trkpt lat="44.483157170356755" lon="9.124434435133216"><ele>642.0</ele><time>2026-04-05T14:23:47.999Z</time></trkpt><trkpt lat="44.48338373780171" lon="9.124663945797971"><ele>651.0</ele><time>2026-04-05T14:23:48.999Z</time></trkpt><trkpt lat="44.483522929513796" lon="9.124941704094866"><ele>660.0</ele><time>2026-04-05T14:23:49.999Z</time></trkpt><trkpt lat="44.48369816865057" lon="9.125244666140269"><ele>646.5</ele><time>2026-04-05T14:23:50.999Z</time></trkpt><trkpt lat="44.483868058740995" lon="9.125539769294923"><ele>633.0</ele><time>2026-04-05T14:23:51.999Z</time></trkpt><trkpt lat="44.484014821717004" lon="9.125795315905393"><ele>633.0</ele><time>2026-04-05T14:23:52.999Z</time></trkpt><trkpt lat="44.4841584612868" lon="9.126044325015943"><ele>633.0</ele><time>2026-04-05T14:23:53.999Z</time></trkpt><trkpt lat="44.48429561101211" lon="9.126280991780085"><ele>633.0</ele><time>2026-04-05T14:23:54.999Z</time></trkpt><trkpt lat="44.48444651954624" lon="9.126541400844447"><ele>631.5</ele><time>2026-04-05T14:23:55.999Z</time></trkpt><trkpt lat="44.48460506989356" lon="9.126814996701873"><ele>630.0</ele><time>2026-04-05T14:23:56.999Z</time></trkpt><trkpt lat="44.484790484821275" lon="9.127131014789802"><ele>632.5</ele><time>2026-04-05T14:23:57.999Z</time></trkpt><trkpt lat="44.48497907765899" lon="9.12744215091277"><ele>635.0</ele><time>2026-04-05T14:23:58.999Z</time></trkpt><trkpt lat="44.485136311777154" lon="9.127709680985983"><ele>635.0</ele><time>2026-04-05T14:23:59.999Z</time></trkpt><trkpt lat="44.48530504481165" lon="9.12800478075422"><ele>635.0</ele><time>2026-04-05T14:24:00.999Z</time></trkpt><trkpt lat="44.485438896600996" lon="9.128237667479059"><ele>633.6666666666666</ele><time>2026-04-05T14:24:01.999Z</time></trkpt><trkpt lat="44.485576344628406" lon="9.128472793296098"><ele>632.3333333333334</ele><time>2026-04-05T14:24:02.999Z</time></trkpt><trkpt lat="44.4857132886339" lon="9.128714767198522"><ele>631.0</ele><time>2026-04-05T14:24:03.999Z</time></trkpt><trkpt lat="44.48582988473371" lon="9.128931486541457"><ele>637.6666666666667</ele><time>2026-04-05T14:24:04.999Z</time></trkpt><trkpt lat="44.485959753129805" lon="9.129142304504024"><ele>644.3333333333334</ele><time>2026-04-05T14:24:05.999Z</time></trkpt><trkpt lat="44.48609535789822" lon="9.129330964980955"><ele>651.0</ele><time>2026-04-05T14:24:06.999Z</time></trkpt><trkpt lat="44.486255795056564" lon="9.129496542970168"><ele>635.5</ele><time>2026-04-05T14:24:07.999Z</time></trkpt><trkpt lat="44.48645598356155" lon="9.12965236690441"><ele>620.0</ele><time>2026-04-05T14:24:08.999Z</time></trkpt><trkpt lat="44.48667627684497" lon="9.12979947474327"><ele>620.5</ele><time>2026-04-05T14:24:09.999Z</time></trkpt><trkpt lat="44.48691356074048" lon="9.13001277145447"><ele>621.0</ele><time>2026-04-05T14:24:10.999Z</time></trkpt><trkpt lat="44.48716244402968" lon="9.130176939099082"><ele>621.0</ele><time>2026-04-05T14:24:11.999Z</time></trkpt><trkpt lat="44.48739285909067" lon="9.130303887083167"><ele>621.0</ele><time>2026-04-05T14:24:12.999Z</time></trkpt><trkpt lat="44.48760094020556" lon="9.130459436028882"><ele>621.0</ele><time>2026-04-05T14:24:13.999Z</time></trkpt><trkpt lat="44.487827620535676" lon="9.13061051977216"><ele>621.0</ele><time>2026-04-05T14:24:14.999Z</time></trkpt><trkpt lat="44.488050291251064" lon="9.13075175771821"><ele>630.0</ele><time>2026-04-05T14:24:15.999Z</time></trkpt><trkpt lat="44.488273426453006" lon="9.130872857364949"><ele>639.0</ele><time>2026-04-05T14:24:16.999Z</time></trkpt><trkpt lat="44.48849499115706" lon="9.130949362792482"><ele>639.0</ele><time>2026-04-05T14:24:17.999Z</time></trkpt><trkpt lat="44.488704578983395" lon="9.131003035198372"><ele>639.0</ele><time>2026-04-05T14:24:18.999Z</time></trkpt><trkpt lat="44.48892475746017" lon="9.131032599810915"><ele>639.0</ele><time>2026-04-05T14:24:19.999Z</time></trkpt><trkpt lat="44.48914471879684" lon="9.131034502974327"><ele>636.5</ele><time>2026-04-05T14:24:20.999Z</time></trkpt><trkpt lat="44.489365569144404" lon="9.131016847404737"><ele>634.0</ele><time>2026-04-05T14:24:21.999Z</time></trkpt><trkpt lat="44.489598959700096" lon="9.130988460123072"><ele>632.3333333333334</ele><time>2026-04-05T14:24:22.999Z</time></trkpt><trkpt lat="44.4898260176372" lon="9.13095984672812"><ele>630.6666666666666</ele><time>2026-04-05T14:24:23.999Z</time></trkpt><trkpt lat="44.49002440675397" lon="9.13093932946501"><ele>629.0</ele><time>2026-04-05T14:24:24.999Z</time></trkpt><trkpt lat="44.490223956967526" lon="9.130915865010367"><ele>629.0</ele><time>2026-04-05T14:24:25.999Z</time></trkpt><trkpt lat="44.490405062320974" lon="9.130897647219264"><ele>629.0</ele><time>2026-04-05T14:24:26.999Z</time></trkpt><trkpt lat="44.49058332453667" lon="9.130889250247012"><ele>629.0</ele><time>2026-04-05T14:24:27.999Z</time></trkpt><trkpt lat="44.49075404186081" lon="9.130864830186985"><ele>626.75</ele><time>2026-04-05T14:24:28.999Z</time></trkpt><trkpt lat="44.49090897172242" lon="9.13085174450417"><ele>624.5</ele><time>2026-04-05T14:24:29.999Z</time></trkpt><trkpt lat="44.491054826754386" lon="9.130824684019489"><ele>622.25</ele><time>2026-04-05T14:24:30.999Z</time></trkpt><trkpt lat="44.49118484042422" lon="9.13081429921384"><ele>620.0</ele><time>2026-04-05T14:24:31.999Z</time></trkpt><trkpt lat="44.49128806790707" lon="9.130828150869936"><ele>615.3333333333333</ele><time>2026-04-05T14:24:32.999Z</time></trkpt><trkpt lat="44.4913890934821" lon="9.130814688803946"><ele>610.6666666666666</ele><time>2026-04-05T14:24:34Z</time></trkpt><trkpt lat="44.491479790106695" lon="9.130805635958588"><ele>606.0</ele><time>2026-04-05T14:24:35Z</time></trkpt><trkpt lat="44.49156913177941" lon="9.130802162499647"><ele>601.3333333333334</ele><time>2026-04-05T14:24:36Z</time></trkpt><trkpt lat="44.49164491364684" lon="9.130804057455828"><ele>596.6666666666667</ele><time>2026-04-05T14:24:37Z</time></trkpt><trkpt lat="44.4917198029935" lon="9.130795374010143"><ele>592.0</ele><time>2026-04-05T14:24:38Z</time></trkpt><trkpt lat="44.49179300438539" lon="9.130777717365953"><ele>592.0</ele><time>2026-04-05T14:24:39Z</time></trkpt><trkpt lat="44.49186012253025" lon="9.130767094894319"><ele>592.0</ele><time>2026-04-05T14:24:40Z</time></trkpt><trkpt lat="44.49193006360995" lon="9.130758310690517"><ele>592.0</ele><time>2026-04-05T14:24:41Z</time></trkpt><trkpt lat="44.492009878164545" lon="9.130748531359961"><ele>592.0</ele><time>2026-04-05T14:24:42Z</time></trkpt><trkpt lat="44.49208403277278" lon="9.130747857780218"><ele>592.0</ele><time>2026-04-05T14:24:43Z</time></trkpt><trkpt lat="44.492175704794555" lon="9.130735740337157"><ele>592.0</ele><time>2026-04-05T14:24:44Z</time></trkpt><trkpt lat="44.4922799471176" lon="9.130726379804903"><ele>593.0</ele><time>2026-04-05T14:24:45Z</time></trkpt><trkpt lat="44.49238804302179" lon="9.130728878550311"><ele>594.0</ele><time>2026-04-05T14:24:46Z</time></trkpt><trkpt lat="44.49249589062477" lon="9.130751273391608"><ele>595.0</ele><time>2026-04-05T14:24:47Z</time></trkpt><trkpt lat="44.492601992868536" lon="9.130787234501769"><ele>596.0</ele><time>2026-04-05T14:24:48Z</time></trkpt><trkpt lat="44.49271530420291" lon="9.130834662881341"><ele>597.0</ele><time>2026-04-05T14:24:49Z</time></trkpt><trkpt lat="44.49282539854768" lon="9.13089585253745"><ele>600.8000000000001</ele><time>2026-04-05T14:24:50Z</time></trkpt><trkpt lat="44.4929316185166" lon="9.130970702760422"><ele>604.6</ele><time>2026-04-05T14:24:51Z</time></trkpt><trkpt lat="44.493036366861205" lon="9.131024812439573"><ele>608.4000000000001</ele><time>2026-04-05T14:24:52Z</time></trkpt><trkpt lat="44.493127703496725" lon="9.131076962203801"><ele>612.2</ele><time>2026-04-05T14:24:53Z</time></trkpt><trkpt lat="44.49321204461687" lon="9.131129215024686"><ele>616.0</ele><time>2026-04-05T14:24:54Z</time></trkpt><trkpt lat="44.493295226637336" lon="9.13117712773094"><ele>616.0</ele><time>2026-04-05T14:24:55Z</time></trkpt><trkpt lat="44.49337197078813" lon="9.13122399707504"><ele>616.0</ele><time>2026-04-05T14:24:56Z</time></trkpt><trkpt lat="44.4934420820164" lon="9.13126739846976"><ele>616.0</ele><time>2026-04-05T14:24:57Z</time></trkpt><trkpt lat="44.49351960664836" lon="9.13131684296675"><ele>616.0</ele><time>2026-04-05T14:24:58Z</time></trkpt><trkpt lat="44.4936029877672" lon="9.131366710880743"><ele>616.0</ele><time>2026-04-05T14:24:59Z</time></trkpt><trkpt lat="44.493707987047976" lon="9.13146820682739"><ele>622.0</ele><time>2026-04-05T14:25:00Z</time></trkpt><trkpt lat="44.49386179824852" lon="9.13159611666434"><ele>628.0</ele><time>2026-04-05T14:25:01Z</time></trkpt><trkpt lat="44.49403753684302" lon="9.131745395144623"><ele>634.0</ele><time>2026-04-05T14:25:02Z</time></trkpt><trkpt lat="44.49423154348681" lon="9.131912090420043"><ele>634.0</ele><time>2026-04-05T14:25:03Z</time></trkpt><trkpt lat="44.494408024122684" lon="9.132062755284348"><ele>634.0</ele><time>2026-04-05T14:25:04Z</time></trkpt><trkpt lat="44.494591632325445" lon="9.132219640328325"><ele>634.0</ele><time>2026-04-05T14:25:05Z</time></trkpt><trkpt lat="44.49482058240483" lon="9.132416636196295"><ele>646.5</ele><time>2026-04-05T14:25:06.018Z</time></trkpt><trkpt lat="44.49503420761522" lon="9.132601386947158"><ele>659.0</ele><time>2026-04-05T14:25:07.014Z</time></trkpt><trkpt lat="44.49524563293871" lon="9.132784235219356"><ele>659.0</ele><time>2026-04-05T14:25:08.018Z</time></trkpt><trkpt lat="44.495459615269986" lon="9.132972250123474"><ele>659.0</ele><time>2026-04-05T14:25:09.013Z</time></trkpt><trkpt lat="44.49631897413602" lon="9.13377029251342"><ele>654.0</ele><time>2026-04-05T14:25:13.128Z</time></trkpt><trkpt lat="44.49651720416705" lon="9.133984637397782"><ele>649.0</ele><time>2026-04-05T14:25:14.127Z</time></trkpt><trkpt lat="44.4967239863696" lon="9.134187731023061"><ele>649.0</ele><time>2026-04-05T14:25:15.13Z</time></trkpt><trkpt lat="44.49721623216243" lon="9.134974926718636"><ele>649.0</ele><time>2026-04-05T14:25:19Z</time></trkpt><trkpt lat="44.497381854778986" lon="9.135179543806087"><ele>649.0</ele><time>2026-04-05T14:25:20Z</time></trkpt><trkpt lat="44.49762512562724" lon="9.135434993318086"><ele>649.0</ele><time>2026-04-05T14:25:21Z</time></trkpt><trkpt lat="44.497820642508785" lon="9.135624440824651"><ele>649.0</ele><time>2026-04-05T14:25:22Z</time></trkpt><trkpt lat="44.4980279950267" lon="9.13591266207832"><ele>652.5</ele><time>2026-04-05T14:25:23Z</time></trkpt><trkpt lat="44.49824206453729" lon="9.136173485153508"><ele>656.0</ele><time>2026-04-05T14:25:24Z</time></trkpt><trkpt lat="44.49841770433271" lon="9.136352074509011"><ele>659.0</ele><time>2026-04-05T14:25:25Z</time></trkpt><trkpt lat="44.49862827191576" lon="9.136610988823573"><ele>662.0</ele><time>2026-04-05T14:25:26Z</time></trkpt><trkpt lat="44.49881316389422" lon="9.136884434049973"><ele>662.0</ele><time>2026-04-05T14:25:27Z</time></trkpt><trkpt lat="44.499010918682316" lon="9.137156395815122"><ele>662.0</ele><time>2026-04-05T14:25:28Z</time></trkpt><trkpt lat="44.49921564313822" lon="9.137452440809145"><ele>665.0</ele><time>2026-04-05T14:25:29Z</time></trkpt><trkpt lat="44.49941835856124" lon="9.137762287798823"><ele>668.0</ele><time>2026-04-05T14:25:30Z</time></trkpt><trkpt lat="44.49960563036897" lon="9.13806279354105"><ele>672.0</ele><time>2026-04-05T14:25:31Z</time></trkpt><trkpt lat="44.49978322167299" lon="9.13832877884378"><ele>676.0</ele><time>2026-04-05T14:25:32Z</time></trkpt><trkpt lat="44.49994687321837" lon="9.138602427068777"><ele>676.0</ele><time>2026-04-05T14:25:33Z</time></trkpt><trkpt lat="44.50009967981269" lon="9.138873964073934"><ele>676.0</ele><time>2026-04-05T14:25:34Z</time></trkpt><trkpt lat="44.50024493904702" lon="9.139142449213843"><ele>681.5</ele><time>2026-04-05T14:25:35Z</time></trkpt><trkpt lat="44.50039011536924" lon="9.139426240790185"><ele>687.0</ele><time>2026-04-05T14:25:36Z</time></trkpt><trkpt lat="44.500538841798345" lon="9.139709276435338"><ele>694.5</ele><time>2026-04-05T14:25:36.999Z</time></trkpt><trkpt lat="44.50067921101843" lon="9.139995958641615"><ele>702.0</ele><time>2026-04-05T14:25:37.999Z</time></trkpt><trkpt lat="44.500796327056065" lon="9.14029452602065"><ele>702.0</ele><time>2026-04-05T14:25:38.999Z</time></trkpt><trkpt lat="44.50093009165841" lon="9.14059044563354"><ele>702.0</ele><time>2026-04-05T14:25:40.014Z</time></trkpt><trkpt lat="44.501069618354144" lon="9.140909319338352"><ele>708.5</ele><time>2026-04-05T14:25:41.018Z</time></trkpt><trkpt lat="44.50120661364697" lon="9.141233770335074"><ele>715.0</ele><time>2026-04-05T14:25:42.018Z</time></trkpt><trkpt lat="44.50133300384742" lon="9.14156094386974"><ele>726.0</ele><time>2026-04-05T14:25:43.017Z</time></trkpt><trkpt lat="44.50145297915318" lon="9.141891643168567"><ele>737.0</ele><time>2026-04-05T14:25:44.017Z</time></trkpt><trkpt lat="44.50193023346655" lon="9.14326233575684"><ele>737.0</ele><time>2026-04-05T14:25:48.131Z</time></trkpt><trkpt lat="44.502016569763256" lon="9.143614871242242"><ele>737.0</ele><time>2026-04-05T14:25:49.131Z</time></trkpt><trkpt lat="44.5020741" lon="9.1437502"><ele>737.0</ele><time>2026-04-05T14:25:50.131Z</time></trkpt><trkpt lat="44.502774565522095" lon="9.14592479356485"><ele>722.0</ele><time>2026-04-05T14:25:55.999Z</time></trkpt><trkpt lat="44.502872766251286" lon="9.146274118512869"><ele>707.0</ele><time>2026-04-05T14:25:56.999Z</time></trkpt><trkpt lat="44.50288297969769" lon="9.146719486469928"><ele>713.5</ele><time>2026-04-05T14:25:57.999Z</time></trkpt><trkpt lat="44.50300943108777" lon="9.147043936032402"><ele>720.0</ele><time>2026-04-05T14:25:58.999Z</time></trkpt><trkpt lat="44.50312865591786" lon="9.147304445799826"><ele>717.5</ele><time>2026-04-05T14:25:59.999Z</time></trkpt><trkpt lat="44.503231885939456" lon="9.147593261624971"><ele>715.0</ele><time>2026-04-05T14:26:00.999Z</time></trkpt><trkpt lat="44.50334285816195" lon="9.147861301002493"><ele>715.0</ele><time>2026-04-05T14:26:01.999Z</time></trkpt><trkpt lat="44.503491188903205" lon="9.148152748531734"><ele>715.0</ele><time>2026-04-05T14:26:02.999Z</time></trkpt><trkpt lat="44.50364627881716" lon="9.148426410419324"><ele>724.0</ele><time>2026-04-05T14:26:03.999Z</time></trkpt><trkpt lat="44.503809232369555" lon="9.148688107673182"><ele>733.0</ele><time>2026-04-05T14:26:04.999Z</time></trkpt><trkpt lat="44.50399435991601" lon="9.148920691162465"><ele>722.5</ele><time>2026-04-05T14:26:05.999Z</time></trkpt><trkpt lat="44.50417793626776" lon="9.149165662303368"><ele>712.0</ele><time>2026-04-05T14:26:06.999Z</time></trkpt><trkpt lat="44.50427557792025" lon="9.149430642253405"><ele>712.0</ele><time>2026-04-05T14:26:07.999Z</time></trkpt><trkpt lat="44.50448941474421" lon="9.14964573670406"><ele>712.0</ele><time>2026-04-05T14:26:08.999Z</time></trkpt><trkpt lat="44.50470739563275" lon="9.149856142935631"><ele>727.0</ele><time>2026-04-05T14:26:09.999Z</time></trkpt><trkpt lat="44.50492263938769" lon="9.15006385254468"><ele>742.0</ele><time>2026-04-05T14:26:10.999Z</time></trkpt><trkpt lat="44.50513268065506" lon="9.150265728221248"><ele>742.0</ele><time>2026-04-05T14:26:11.999Z</time></trkpt><trkpt lat="44.505343059334685" lon="9.150465360224775"><ele>742.0</ele><time>2026-04-05T14:26:13.017Z</time></trkpt><trkpt lat="44.50555607362682" lon="9.150657707520853"><ele>749.0</ele><time>2026-04-05T14:26:14.017Z</time></trkpt><trkpt lat="44.50578175866928" lon="9.150870712771534"><ele>756.0</ele><time>2026-04-05T14:26:15.017Z</time></trkpt><trkpt lat="44.50600923265212" lon="9.15108798444707"><ele>727.0</ele><time>2026-04-05T14:26:16.017Z</time></trkpt><trkpt lat="44.50699397366913" lon="9.152090353899776"><ele>727.5</ele><time>2026-04-05T14:26:20.999Z</time></trkpt><trkpt lat="44.5071827317076" lon="9.152278556059024"><ele>728.0</ele><time>2026-04-05T14:26:21.999Z</time></trkpt><trkpt lat="44.50738781171647" lon="9.152479691455815"><ele>730.5</ele><time>2026-04-05T14:26:22.999Z</time></trkpt><trkpt lat="44.50759267516201" lon="9.152651690182815"><ele>733.0</ele><time>2026-04-05T14:26:23.999Z</time></trkpt><trkpt lat="44.50777046204143" lon="9.152860055800502"><ele>738.5</ele><time>2026-04-05T14:26:24.999Z</time></trkpt><trkpt lat="44.50795451853227" lon="9.153043716609835"><ele>744.0</ele><time>2026-04-05T14:26:25.999Z</time></trkpt><trkpt lat="44.50813958167044" lon="9.153230908632363"><ele>737.0</ele><time>2026-04-05T14:26:27.017Z</time></trkpt><trkpt lat="44.50898693878624" lon="9.153620218866648"><ele>737.0</ele><time>2026-04-05T14:26:30.999Z</time></trkpt><trkpt lat="44.5092020107169" lon="9.153731938438812"><ele>737.0</ele><time>2026-04-05T14:26:31.999Z</time></trkpt><trkpt lat="44.50945288720933" lon="9.153777076218095"><ele>738.5</ele><time>2026-04-05T14:26:32.999Z</time></trkpt><trkpt lat="44.50968340662232" lon="9.153841905818295"><ele>740.0</ele><time>2026-04-05T14:26:33.999Z</time></trkpt><trkpt lat="44.50992883040159" lon="9.153931631885468"><ele>740.0</ele><time>2026-04-05T14:26:34.999Z</time></trkpt><trkpt lat="44.51016835862482" lon="9.154025207927106"><ele>740.0</ele><time>2026-04-05T14:26:35.999Z</time></trkpt><trkpt lat="44.51041183156526" lon="9.154112339501737"><ele>737.5</ele><time>2026-04-05T14:26:36.999Z</time></trkpt><trkpt lat="44.51064007068329" lon="9.154175623172028"><ele>735.0</ele><time>2026-04-05T14:26:37.999Z</time></trkpt><trkpt lat="44.51087475622676" lon="9.154270098245169"><ele>735.0</ele><time>2026-04-05T14:26:38.999Z</time></trkpt><trkpt lat="44.51111021138307" lon="9.154353618288248"><ele>735.0</ele><time>2026-04-05T14:26:40Z</time></trkpt><trkpt lat="44.51134747788818" lon="9.154464977367718"><ele>743.5</ele><time>2026-04-05T14:26:41Z</time></trkpt><trkpt lat="44.51156159574222" lon="9.154581070285817"><ele>752.0</ele><time>2026-04-05T14:26:42Z</time></trkpt><trkpt lat="44.51178798806526" lon="9.154724200935746"><ele>750.0</ele><time>2026-04-05T14:26:43Z</time></trkpt><trkpt lat="44.512006939139305" lon="9.154918160669682"><ele>748.0</ele><time>2026-04-05T14:26:44Z</time></trkpt><trkpt lat="44.512222510851934" lon="9.155119661485275"><ele>748.0</ele><time>2026-04-05T14:26:45Z</time></trkpt><trkpt lat="44.512426936461516" lon="9.15534408808627"><ele>748.0</ele><time>2026-04-05T14:26:46Z</time></trkpt><trkpt lat="44.5126198904548" lon="9.15558049738095"><ele>746.6666666666667</ele><time>2026-04-05T14:26:47Z</time></trkpt><trkpt lat="44.512774809748834" lon="9.15581821767072"><ele>745.3333333333334</ele><time>2026-04-05T14:26:48Z</time></trkpt><trkpt lat="44.512918698127656" lon="9.156042667862568"><ele>744.0</ele><time>2026-04-05T14:26:49Z</time></trkpt><trkpt lat="44.513053942518965" lon="9.156278135075922"><ele>744.0</ele><time>2026-04-05T14:26:50Z</time></trkpt><trkpt lat="44.51318067443164" lon="9.15652689711623"><ele>744.0</ele><time>2026-04-05T14:26:51Z</time></trkpt><trkpt lat="44.51329319939631" lon="9.156779797310774"><ele>744.0</ele><time>2026-04-05T14:26:52Z</time></trkpt><trkpt lat="44.513410010503215" lon="9.157062672812266"><ele>744.0</ele><time>2026-04-05T14:26:53.017Z</time></trkpt><trkpt lat="44.51349273202775" lon="9.157365247557406"><ele>744.0</ele><time>2026-04-05T14:26:54.013Z</time></trkpt><trkpt lat="44.5135768032516" lon="9.157677005152937"><ele>744.0</ele><time>2026-04-05T14:26:55.016Z</time></trkpt><trkpt lat="44.51366517552408" lon="9.157993532018702"><ele>744.0</ele><time>2026-04-05T14:26:56.017Z</time></trkpt><trkpt lat="44.513738723984325" lon="9.158313900234324"><ele>744.0</ele><time>2026-04-05T14:26:57.018Z</time></trkpt><trkpt lat="44.513843336455416" lon="9.158559389378361"><ele>744.0</ele><time>2026-04-05T14:26:58Z</time></trkpt><trkpt lat="44.51389372570571" lon="9.158873360406435"><ele>744.0</ele><time>2026-04-05T14:26:59Z</time></trkpt><trkpt lat="44.51394534847958" lon="9.159365011647154"><ele>737.5</ele><time>2026-04-05T14:27:00Z</time></trkpt><trkpt lat="44.51396212865907" lon="9.159683248575867"><ele>731.0</ele><time>2026-04-05T14:27:01Z</time></trkpt><trkpt lat="44.51398316233974" lon="9.160019167235893"><ele>728.3333333333333</ele><time>2026-04-05T14:27:02Z</time></trkpt><trkpt lat="44.51395983290448" lon="9.160333334811927"><ele>725.6666666666666</ele><time>2026-04-05T14:27:03Z</time></trkpt><trkpt lat="44.51394418973016" lon="9.160625638996526"><ele>723.0</ele><time>2026-04-05T14:27:04Z</time></trkpt><trkpt lat="44.51391946026996" lon="9.160890289720314"><ele>723.0</ele><time>2026-04-05T14:27:05Z</time></trkpt><trkpt lat="44.51389206842997" lon="9.1611193832781"><ele>723.0</ele><time>2026-04-05T14:27:06Z</time></trkpt><trkpt lat="44.51385917778688" lon="9.161334775784617"><ele>723.0</ele><time>2026-04-05T14:27:07Z</time></trkpt><trkpt lat="44.513816712145214" lon="9.161563439398806"><ele>728.3333333333334</ele><time>2026-04-05T14:27:08Z</time></trkpt><trkpt lat="44.51378343603052" lon="9.161791709340648"><ele>733.6666666666667</ele><time>2026-04-05T14:27:09Z</time></trkpt><trkpt lat="44.513738399636296" lon="9.161998341342093"><ele>739.0</ele><time>2026-04-05T14:27:10Z</time></trkpt><trkpt lat="44.51369568154499" lon="9.162193361190363"><ele>749.0</ele><time>2026-04-05T14:27:11Z</time></trkpt><trkpt lat="44.51364505568335" lon="9.162394607245199"><ele>759.0</ele><time>2026-04-05T14:27:12Z</time></trkpt><trkpt lat="44.513598464374915" lon="9.16259772251462"><ele>769.0</ele><time>2026-04-05T14:27:13Z</time></trkpt><trkpt lat="44.51354795086599" lon="9.162810476901877"><ele>769.0</ele><time>2026-04-05T14:27:14Z</time></trkpt><trkpt lat="44.51349083475207" lon="9.163049360849607"><ele>769.0</ele><time>2026-04-05T14:27:15.017Z</time></trkpt><trkpt lat="44.513416280882645" lon="9.163291399858418"><ele>769.0</ele><time>2026-04-05T14:27:16.016Z</time></trkpt><trkpt lat="44.51335392395412" lon="9.163548772060082"><ele>774.3333333333333</ele><time>2026-04-05T14:27:17.016Z</time></trkpt><trkpt lat="44.51329161803283" lon="9.163811695350525"><ele>779.6666666666667</ele><time>2026-04-05T14:27:18.017Z</time></trkpt><trkpt lat="44.51322975565297" lon="9.16407274695644"><ele>785.0</ele><time>2026-04-05T14:27:19.016Z</time></trkpt><trkpt lat="44.508960451972214" lon="9.183397348978728"><ele>787.6666666666667</ele><time>2026-04-05T14:28:45.999Z</time></trkpt><trkpt lat="44.508939154105796" lon="9.183627047374461"><ele>790.3333333333333</ele><time>2026-04-05T14:28:46.999Z</time></trkpt><trkpt lat="44.50888160376225" lon="9.183863410919448"><ele>793.0</ele><time>2026-04-05T14:28:47.999Z</time></trkpt><trkpt lat="44.508858688557154" lon="9.184124188401425"><ele>793.0</ele><time>2026-04-05T14:28:48.999Z</time></trkpt><trkpt lat="44.508851188615736" lon="9.184380471550837"><ele>793.0</ele><time>2026-04-05T14:28:49.999Z</time></trkpt><trkpt lat="44.508833138816016" lon="9.184635336866961"><ele>793.0</ele><time>2026-04-05T14:28:50.999Z</time></trkpt><trkpt lat="44.50878187903004" lon="9.184887677940175"><ele>800.0</ele><time>2026-04-05T14:28:52Z</time></trkpt><trkpt lat="44.50873833106704" lon="9.18515033240525"><ele>807.0</ele><time>2026-04-05T14:28:53Z</time></trkpt><trkpt lat="44.508700035479166" lon="9.185436973084657"><ele>814.0</ele><time>2026-04-05T14:28:54Z</time></trkpt><trkpt lat="44.50865866690729" lon="9.185728647645382"><ele>815.3333333333333</ele><time>2026-04-05T14:28:55Z</time></trkpt><trkpt lat="44.50862979061521" lon="9.18602606554458"><ele>816.6666666666667</ele><time>2026-04-05T14:28:56Z</time></trkpt><trkpt lat="44.50858768539805" lon="9.186296456643598"><ele>818.0</ele><time>2026-04-05T14:28:57Z</time></trkpt><trkpt lat="44.50854383711068" lon="9.186553467336596"><ele>814.3333333333334</ele><time>2026-04-05T14:28:58Z</time></trkpt><trkpt lat="44.508504305325076" lon="9.186814153830605"><ele>810.6666666666667</ele><time>2026-04-05T14:28:59Z</time></trkpt><trkpt lat="44.50845707732329" lon="9.187045229419455"><ele>807.0</ele><time>2026-04-05T14:29:00Z</time></trkpt><trkpt lat="44.50842637921365" lon="9.187269428683702"><ele>805.0</ele><time>2026-04-05T14:29:01Z</time></trkpt><trkpt lat="44.50841673795314" lon="9.187484595602562"><ele>803.0</ele><time>2026-04-05T14:29:02Z</time></trkpt><trkpt lat="44.50844204502359" lon="9.18770321278614"><ele>801.0</ele><time>2026-04-05T14:29:03Z</time></trkpt><trkpt lat="44.50847803034545" lon="9.187925847087577"><ele>801.0</ele><time>2026-04-05T14:29:04Z</time></trkpt><trkpt lat="44.50853477599426" lon="9.188151125258141"><ele>801.0</ele><time>2026-04-05T14:29:05Z</time></trkpt><trkpt lat="44.50861864550405" lon="9.188376334882493"><ele>801.0</ele><time>2026-04-05T14:29:06Z</time></trkpt><trkpt lat="44.508717230772945" lon="9.188561658003858"><ele>798.5</ele><time>2026-04-05T14:29:07Z</time></trkpt><trkpt lat="44.50882160647948" lon="9.18872087321898"><ele>796.0</ele><time>2026-04-05T14:29:08Z</time></trkpt><trkpt lat="44.50893114763263" lon="9.18886793384309"><ele>793.5</ele><time>2026-04-05T14:29:09Z</time></trkpt><trkpt lat="44.50903998641849" lon="9.188993050284164"><ele>791.0</ele><time>2026-04-05T14:29:10Z</time></trkpt><trkpt lat="44.50913758665632" lon="9.18909976929452"><ele>791.0</ele><time>2026-04-05T14:29:11Z</time></trkpt><trkpt lat="44.50923046462029" lon="9.189203672676038"><ele>791.0</ele><time>2026-04-05T14:29:12Z</time></trkpt><trkpt lat="44.5093381965183" lon="9.18929919444853"><ele>791.0</ele><time>2026-04-05T14:29:13Z</time></trkpt><trkpt lat="44.50943858219014" lon="9.189402862355882"><ele>791.0</ele><time>2026-04-05T14:29:14Z</time></trkpt><trkpt lat="44.50954401588111" lon="9.189527162363943"><ele>790.0</ele><time>2026-04-05T14:29:15Z</time></trkpt><trkpt lat="44.50962725017011" lon="9.189661932405082"><ele>789.0</ele><time>2026-04-05T14:29:16Z</time></trkpt><trkpt lat="44.50970087314188" lon="9.189813015056854"><ele>788.0</ele><time>2026-04-05T14:29:17Z</time></trkpt><trkpt lat="44.5097775558029" lon="9.189976770142344"><ele>787.0</ele><time>2026-04-05T14:29:18Z</time></trkpt><trkpt lat="44.50985270253714" lon="9.190153842131432"><ele>784.5</ele><time>2026-04-05T14:29:19Z</time></trkpt><trkpt lat="44.50989535037356" lon="9.190326151373062"><ele>782.0</ele><time>2026-04-05T14:29:20Z</time></trkpt><trkpt lat="44.509909224069" lon="9.190501921711373"><ele>779.5</ele><time>2026-04-05T14:29:21Z</time></trkpt><trkpt lat="44.50991329749813" lon="9.190683126665594"><ele>777.0</ele><time>2026-04-05T14:29:22Z</time></trkpt><trkpt lat="44.50990401258658" lon="9.190870679294708"><ele>777.0</ele><time>2026-04-05T14:29:23Z</time></trkpt><trkpt lat="44.509881371294355" lon="9.191065523514355"><ele>777.0</ele><time>2026-04-05T14:29:24Z</time></trkpt><trkpt lat="44.509839765734164" lon="9.19127067812872"><ele>777.0</ele><time>2026-04-05T14:29:25Z</time></trkpt><trkpt lat="44.50978713792732" lon="9.191508366710979"><ele>780.3333333333333</ele><time>2026-04-05T14:29:26Z</time></trkpt><trkpt lat="44.50972197069461" lon="9.191782473738785"><ele>783.6666666666666</ele><time>2026-04-05T14:29:27Z</time></trkpt><trkpt lat="44.509664012566134" lon="9.192052110210442"><ele>787.0</ele><time>2026-04-05T14:29:28.014Z</time></trkpt><trkpt lat="44.509629232509404" lon="9.192291522878184"><ele>785.6666666666666</ele><time>2026-04-05T14:29:29.015Z</time></trkpt><trkpt lat="44.50961248929254" lon="9.192519127147998"><ele>784.3333333333333</ele><time>2026-04-05T14:29:30.015Z</time></trkpt><trkpt lat="44.509609998494646" lon="9.1927367612348"><ele>783.0</ele><time>2026-04-05T14:29:31.011Z</time></trkpt><trkpt lat="44.509611285569804" lon="9.192946587624009"><ele>779.6666666666667</ele><time>2026-04-05T14:29:32.012Z</time></trkpt><trkpt lat="44.50961353556512" lon="9.193324266466195"><ele>776.3333333333334</ele><time>2026-04-05T14:29:34Z</time></trkpt><trkpt lat="44.50963385580394" lon="9.193461972914948"><ele>773.0</ele><time>2026-04-05T14:29:35Z</time></trkpt><trkpt lat="44.50963938332746" lon="9.193609304837626"><ele>773.0</ele><time>2026-04-05T14:29:36Z</time></trkpt><trkpt lat="44.50963021018751" lon="9.193793962066927"><ele>773.0</ele><time>2026-04-05T14:29:37Z</time></trkpt><trkpt lat="44.50959772442736" lon="9.193963637792764"><ele>773.0</ele><time>2026-04-05T14:29:38Z</time></trkpt><trkpt lat="44.5095598835748" lon="9.194121838811945"><ele>773.0</ele><time>2026-04-05T14:29:39Z</time></trkpt><trkpt lat="44.50951011421429" lon="9.194261321879157"><ele>776.5</ele><time>2026-04-05T14:29:40Z</time></trkpt><trkpt lat="44.50944463204438" lon="9.194402921251662"><ele>780.0</ele><time>2026-04-05T14:29:41Z</time></trkpt><trkpt lat="44.50935729005951" lon="9.19452664761225"><ele>783.5</ele><time>2026-04-05T14:29:42Z</time></trkpt><trkpt lat="44.50924026325276" lon="9.19463254313898"><ele>787.0</ele><time>2026-04-05T14:29:43Z</time></trkpt><trkpt lat="44.50911639538437" lon="9.194711305144306"><ele>787.0</ele><time>2026-04-05T14:29:44Z</time></trkpt><trkpt lat="44.509002855191625" lon="9.194773211048732"><ele>787.0</ele><time>2026-04-05T14:29:45Z</time></trkpt><trkpt lat="44.508920029064534" lon="9.194855785767679"><ele>787.0</ele><time>2026-04-05T14:29:46Z</time></trkpt><trkpt lat="44.50886542821337" lon="9.194980785034838"><ele>787.0</ele><time>2026-04-05T14:29:47Z</time></trkpt><trkpt lat="44.5088424795542" lon="9.195098183215945"><ele>787.0</ele><time>2026-04-05T14:29:48Z</time></trkpt><trkpt lat="44.50886304436729" lon="9.195239562739648"><ele>783.0</ele><time>2026-04-05T14:29:49Z</time></trkpt><trkpt lat="44.50889888826054" lon="9.195413754172254"><ele>779.0</ele><time>2026-04-05T14:29:50Z</time></trkpt><trkpt lat="44.508958290100985" lon="9.195616692709969"><ele>775.0</ele><time>2026-04-05T14:29:51Z</time></trkpt><trkpt lat="44.50901142944793" lon="9.195795050411421"><ele>771.0</ele><time>2026-04-05T14:29:52Z</time></trkpt><trkpt lat="44.50903770549615" lon="9.195948483141342"><ele>771.0</ele><time>2026-04-05T14:29:53Z</time></trkpt><trkpt lat="44.50904288513012" lon="9.196102102712556"><ele>771.0</ele><time>2026-04-05T14:29:54Z</time></trkpt><trkpt lat="44.50902620554586" lon="9.196215352665861"><ele>771.0</ele><time>2026-04-05T14:29:55Z</time></trkpt><trkpt lat="44.50901079497899" lon="9.196352846891305"><ele>771.0</ele><time>2026-04-05T14:29:56.999Z</time></trkpt><trkpt lat="44.509009312007166" lon="9.196459883060708"><ele>771.0</ele><time>2026-04-05T14:30:01.999Z</time></trkpt><trkpt lat="44.50905177991668" lon="9.196530658608268"><ele>771.0</ele><time>2026-04-05T14:30:38.999Z</time></trkpt><trkpt lat="44.50906467557501" lon="9.196761275105718"><ele>771.1999999999999</ele><time>2026-04-05T14:31:21Z</time></trkpt><trkpt lat="44.50910740000309" lon="9.196882721056662"><ele>771.4</ele><time>2026-04-05T14:31:23Z</time></trkpt><trkpt lat="44.5092215773939" lon="9.19692342610048"><ele>771.6</ele><time>2026-04-05T14:31:25Z</time></trkpt><trkpt lat="44.509295328556725" lon="9.19693933183949"><ele>771.8</ele><time>2026-04-05T14:31:26Z</time></trkpt><trkpt lat="44.50939447273454" lon="9.197017390498633"><ele>772.0</ele><time>2026-04-05T14:31:28Z</time></trkpt><trkpt lat="44.509452331988165" lon="9.197176462004807"><ele>771.9999999999999</ele><time>2026-04-05T14:31:30Z</time></trkpt><trkpt lat="44.509435632509245" lon="9.197301804661864"><ele>772.0</ele><time>2026-04-05T14:31:31Z</time></trkpt><trkpt lat="44.50940998073291" lon="9.197388273580122"><ele>772.0</ele><time>2026-04-05T14:31:32Z</time></trkpt><trkpt lat="44.50932912901098" lon="9.197395108444043"><ele>772.0</ele><time>2026-04-05T14:31:33Z</time></trkpt><trkpt lat="44.50925871244825" lon="9.197426590554928"><ele>771.9999999999999</ele><time>2026-04-05T14:31:34Z</time></trkpt><trkpt lat="44.50919285958825" lon="9.197443409016484"><ele>772.0</ele><time>2026-04-05T14:31:35Z</time></trkpt><trkpt lat="44.50911462004355" lon="9.197425298146603"><ele>772.6666666666666</ele><time>2026-04-05T14:31:36Z</time></trkpt><trkpt lat="44.509042780106746" lon="9.19744098812888"><ele>773.3333333333333</ele><time>2026-04-05T14:31:37Z</time></trkpt><trkpt lat="44.508949075694154" lon="9.197449577419508"><ele>774.0</ele><time>2026-04-05T14:31:38Z</time></trkpt><trkpt lat="44.50888829517664" lon="9.197493295225149"><ele>774.6666666666667</ele><time>2026-04-05T14:31:39Z</time></trkpt><trkpt lat="44.50884653293808" lon="9.197633574451565"><ele>775.3333333333334</ele><time>2026-04-05T14:31:41Z</time></trkpt><trkpt lat="44.5088405863622" lon="9.19777226250687"><ele>776.0</ele><time>2026-04-05T14:31:42Z</time></trkpt><trkpt lat="44.508842909735456" lon="9.197961875197382"><ele>776.0</ele><time>2026-04-05T14:31:43Z</time></trkpt><trkpt lat="44.508858439017665" lon="9.198126740266561"><ele>776.0</ele><time>2026-04-05T14:31:44Z</time></trkpt><trkpt lat="44.50888174720305" lon="9.198265664679187"><ele>776.0</ele><time>2026-04-05T14:31:45Z</time></trkpt><trkpt lat="44.508896417753945" lon="9.198380046241772"><ele>776.0</ele><time>2026-04-05T14:31:46Z</time></trkpt><trkpt lat="44.508912916760174" lon="9.198540555438186"><ele>776.0</ele><time>2026-04-05T14:31:48Z</time></trkpt><trkpt lat="44.508963374935895" lon="9.19870190777296"><ele>776.8</ele><time>2026-04-05T14:31:50Z</time></trkpt><trkpt lat="44.50909091231617" lon="9.19877061444378"><ele>777.5999999999999</ele><time>2026-04-05T14:31:52Z</time></trkpt><trkpt lat="44.5091603633215" lon="9.198798764718534"><ele>778.4</ele><time>2026-04-05T14:31:53Z</time></trkpt><trkpt lat="44.50924465518272" lon="9.19881699101536"><ele>779.2</ele><time>2026-04-05T14:31:54Z</time></trkpt><trkpt lat="44.50939154755071" lon="9.198775913679917"><ele>780.0</ele><time>2026-04-05T14:31:55Z</time></trkpt><trkpt lat="44.50950358056336" lon="9.198771114124806"><ele>784.2</ele><time>2026-04-05T14:31:56Z</time></trkpt><trkpt lat="44.50961297036856" lon="9.19879721417815"><ele>788.4</ele><time>2026-04-05T14:31:57Z</time></trkpt><trkpt lat="44.509711320188295" lon="9.198809019102983"><ele>792.5999999999999</ele><time>2026-04-05T14:31:58Z</time></trkpt><trkpt lat="44.50979483809333" lon="9.198837708990007"><ele>796.8</ele><time>2026-04-05T14:31:59Z</time></trkpt><trkpt lat="44.50987289922135" lon="9.19888637793943"><ele>801.0</ele><time>2026-04-05T14:32:00Z</time></trkpt><trkpt lat="44.5099504344166" lon="9.198993439915247"><ele>796.75</ele><time>2026-04-05T14:32:01Z</time></trkpt><trkpt lat="44.510011953731286" lon="9.199123020276508"><ele>792.5</ele><time>2026-04-05T14:32:01.999Z</time></trkpt><trkpt lat="44.51008854701194" lon="9.199235734199556"><ele>788.25</ele><time>2026-04-05T14:32:02.999Z</time></trkpt><trkpt lat="44.51014830566881" lon="9.199371597713863"><ele>784.0</ele><time>2026-04-05T14:32:03.999Z</time></trkpt><trkpt lat="44.51023245776966" lon="9.199569589327842"><ele>784.0</ele><time>2026-04-05T14:32:04.999Z</time></trkpt><trkpt lat="44.510312109645334" lon="9.199706478619467"><ele>784.0</ele><time>2026-04-05T14:32:05.999Z</time></trkpt><trkpt lat="44.51037929232707" lon="9.199850130330388"><ele>784.0</ele><time>2026-04-05T14:32:06.999Z</time></trkpt><trkpt lat="44.51044966191393" lon="9.200000603286671"><ele>784.0</ele><time>2026-04-05T14:32:07.999Z</time></trkpt><trkpt lat="44.510498566311206" lon="9.200206788131698"><ele>779.25</ele><time>2026-04-05T14:32:08.999Z</time></trkpt><trkpt lat="44.51049642105913" lon="9.200334689856113"><ele>774.5</ele><time>2026-04-05T14:32:09.999Z</time></trkpt><trkpt lat="44.51051541634446" lon="9.200532046982762"><ele>769.75</ele><time>2026-04-05T14:32:10.999Z</time></trkpt><trkpt lat="44.51044089405973" lon="9.200724500998339"><ele>765.0</ele><time>2026-04-05T14:32:11.999Z</time></trkpt><trkpt lat="44.51038738306569" lon="9.200924945251652"><ele>765.0</ele><time>2026-04-05T14:32:12.999Z</time></trkpt><trkpt lat="44.51032965907865" lon="9.201151794682266"><ele>765.0</ele><time>2026-04-05T14:32:13.999Z</time></trkpt><trkpt lat="44.51021374770811" lon="9.20146294270802"><ele>765.0</ele><time>2026-04-05T14:32:14.999Z</time></trkpt><trkpt lat="44.51004169119084" lon="9.201775021523103"><ele>766.3333333333333</ele><time>2026-04-05T14:32:15.999Z</time></trkpt><trkpt lat="44.509933010373885" lon="9.202043222670754"><ele>767.6666666666666</ele><time>2026-04-05T14:32:16.999Z</time></trkpt><trkpt lat="44.50982099556468" lon="9.20228230958721"><ele>769.0</ele><time>2026-04-05T14:32:17.999Z</time></trkpt><trkpt lat="44.5097269461135" lon="9.20249456766791"><ele>767.75</ele><time>2026-04-05T14:32:18.999Z</time></trkpt><trkpt lat="44.509631623287994" lon="9.202693846472348"><ele>766.5</ele><time>2026-04-05T14:32:19.999Z</time></trkpt><trkpt lat="44.509568900303954" lon="9.202854163253546"><ele>765.25</ele><time>2026-04-05T14:32:20.999Z</time></trkpt><trkpt lat="44.50952053656622" lon="9.202984544231118"><ele>764.0</ele><time>2026-04-05T14:32:21.999Z</time></trkpt><trkpt lat="44.50951606608469" lon="9.203116265774097"><ele>765.6666666666666</ele><time>2026-04-05T14:32:22.999Z</time></trkpt><trkpt lat="44.50952580486777" lon="9.203310124564949"><ele>767.3333333333333</ele><time>2026-04-05T14:32:23.999Z</time></trkpt><trkpt lat="44.50955055376711" lon="9.203556191475775"><ele>769.0</ele><time>2026-04-05T14:32:24.999Z</time></trkpt><trkpt lat="44.50955807460269" lon="9.203813561745651"><ele>769.6666666666666</ele><time>2026-04-05T14:32:25.999Z</time></trkpt><trkpt lat="44.50951114762727" lon="9.204050125189513"><ele>770.3333333333333</ele><time>2026-04-05T14:32:26.999Z</time></trkpt><trkpt lat="44.50949209418472" lon="9.204256080549225"><ele>771.0</ele><time>2026-04-05T14:32:27.999Z</time></trkpt><trkpt lat="44.50947288281146" lon="9.204448557214862"><ele>771.0</ele><time>2026-04-05T14:32:28.999Z</time></trkpt><trkpt lat="44.50945086428621" lon="9.204624782509475"><ele>771.0</ele><time>2026-04-05T14:32:29.999Z</time></trkpt><trkpt lat="44.50938837102238" lon="9.204788963830296"><ele>771.0</ele><time>2026-04-05T14:32:30.999Z</time></trkpt><trkpt lat="44.509286383964714" lon="9.205005148102327"><ele>771.0</ele><time>2026-04-05T14:32:31.999Z</time></trkpt><trkpt lat="44.509146698682656" lon="9.205237947743408"><ele>775.6666666666667</ele><time>2026-04-05T14:32:32.999Z</time></trkpt><trkpt lat="44.50901668275384" lon="9.205465363794502"><ele>780.3333333333334</ele><time>2026-04-05T14:32:33.999Z</time></trkpt><trkpt lat="44.50889784798718" lon="9.205685326853224"><ele>785.0</ele><time>2026-04-05T14:32:34.999Z</time></trkpt><trkpt lat="44.50879716876982" lon="9.205893306199924"><ele>782.5</ele><time>2026-04-05T14:32:35.999Z</time></trkpt><trkpt lat="44.50871007575823" lon="9.206083469825973"><ele>780.0</ele><time>2026-04-05T14:32:36.999Z</time></trkpt><trkpt lat="44.50863735076111" lon="9.20624832530595"><ele>777.5</ele><time>2026-04-05T14:32:37.999Z</time></trkpt><trkpt lat="44.508566757993144" lon="9.206381530880654"><ele>775.0</ele><time>2026-04-05T14:32:38.999Z</time></trkpt><trkpt lat="44.508513536698" lon="9.2065109487849"><ele>775.0</ele><time>2026-04-05T14:32:39.999Z</time></trkpt><trkpt lat="44.508462867557334" lon="9.206621587346142"><ele>775.0</ele><time>2026-04-05T14:32:40.999Z</time></trkpt><trkpt lat="44.508455359178825" lon="9.2067516339881"><ele>775.0</ele><time>2026-04-05T14:32:41.999Z</time></trkpt><trkpt lat="44.508461553206224" lon="9.206897241328269"><ele>775.0</ele><time>2026-04-05T14:32:42.999Z</time></trkpt><trkpt lat="44.5085018068727" lon="9.20707343109349"><ele>775.0</ele><time>2026-04-05T14:32:43.999Z</time></trkpt><trkpt lat="44.50855557038706" lon="9.207240092475585"><ele>774.25</ele><time>2026-04-05T14:32:44.999Z</time></trkpt><trkpt lat="44.50862039055198" lon="9.207379011133103"><ele>773.5</ele><time>2026-04-05T14:32:45.999Z</time></trkpt><trkpt lat="44.50870993201929" lon="9.207482194146959"><ele>772.75</ele><time>2026-04-05T14:32:46.999Z</time></trkpt><trkpt lat="44.5088255968262" lon="9.207566294207034"><ele>772.0</ele><time>2026-04-05T14:32:47.999Z</time></trkpt><trkpt lat="44.508958008640484" lon="9.207630311831466"><ele>779.0</ele><time>2026-04-05T14:32:48.999Z</time></trkpt><trkpt lat="44.509079413743734" lon="9.207705710894182"><ele>786.0</ele><time>2026-04-05T14:32:49.999Z</time></trkpt><trkpt lat="44.50918931206421" lon="9.207735436994463"><ele>793.0</ele><time>2026-04-05T14:32:50.999Z</time></trkpt><trkpt lat="44.50929705489236" lon="9.207747341280053"><ele>800.0</ele><time>2026-04-05T14:32:51.999Z</time></trkpt><trkpt lat="44.50940520219981" lon="9.207746882174524"><ele>800.0000000000001</ele><time>2026-04-05T14:32:52.999Z</time></trkpt><trkpt lat="44.50948642572561" lon="9.207732747750116"><ele>800.0</ele><time>2026-04-05T14:32:53.999Z</time></trkpt><trkpt lat="44.5095500974825" lon="9.207751664755445"><ele>800.0</ele><time>2026-04-05T14:32:54.999Z</time></trkpt><trkpt lat="44.50961204408993" lon="9.207834068525731"><ele>800.0</ele><time>2026-04-05T14:32:55.999Z</time></trkpt><trkpt lat="44.509642724596226" lon="9.207954521689114"><ele>800.0000000000001</ele><time>2026-04-05T14:32:56.999Z</time></trkpt><trkpt lat="44.50960786433483" lon="9.20803505358127"><ele>800.0</ele><time>2026-04-05T14:32:57.999Z</time></trkpt><trkpt lat="44.50954860590036" lon="9.208157043174996"><ele>796.0</ele><time>2026-04-05T14:32:58.999Z</time></trkpt><trkpt lat="44.50944470114697" lon="9.208265465222293"><ele>792.0</ele><time>2026-04-05T14:32:59.999Z</time></trkpt><trkpt lat="44.509357704778296" lon="9.208356255810317"><ele>788.0</ele><time>2026-04-05T14:33:00.999Z</time></trkpt><trkpt lat="44.50930622125997" lon="9.208455034139439"><ele>784.0</ele><time>2026-04-05T14:33:01.999Z</time></trkpt><trkpt lat="44.50927452542115" lon="9.208583362091678"><ele>780.0</ele><time>2026-04-05T14:33:02.999Z</time></trkpt><trkpt lat="44.50927088126906" lon="9.208715248289243"><ele>780.0</ele><time>2026-04-05T14:33:04Z</time></trkpt><trkpt lat="44.509299611242774" lon="9.208839308778458"><ele>780.0</ele><time>2026-04-05T14:33:05Z</time></trkpt><trkpt lat="44.50935869767114" lon="9.208937094778035"><ele>780.0</ele><time>2026-04-05T14:33:06Z</time></trkpt><trkpt lat="44.50943793610789" lon="9.209014333339402"><ele>780.0</ele><time>2026-04-05T14:33:07Z</time></trkpt><trkpt lat="44.509521270196664" lon="9.209063552226544"><ele>780.0</ele><time>2026-04-05T14:33:08Z</time></trkpt><trkpt lat="44.50959767835736" lon="9.209043187387477"><ele>780.0</ele><time>2026-04-05T14:33:09Z</time></trkpt><trkpt lat="44.509669499397674" lon="9.208981185098073"><ele>784.5</ele><time>2026-04-05T14:33:10Z</time></trkpt><trkpt lat="44.50976077932609" lon="9.208881192586855"><ele>789.0</ele><time>2026-04-05T14:33:11Z</time></trkpt><trkpt lat="44.50986708923889" lon="9.208752094314539"><ele>793.5</ele><time>2026-04-05T14:33:12Z</time></trkpt><trkpt lat="44.509985099261065" lon="9.208627326437155"><ele>798.0</ele><time>2026-04-05T14:33:13Z</time></trkpt><trkpt lat="44.51011795388506" lon="9.208555096008059"><ele>798.0</ele><time>2026-04-05T14:33:14Z</time></trkpt><trkpt lat="44.510247432012356" lon="9.208443710766307"><ele>798.0</ele><time>2026-04-05T14:33:15Z</time></trkpt><trkpt lat="44.510373274609016" lon="9.208356413116299"><ele>798.0</ele><time>2026-04-05T14:33:16Z</time></trkpt><trkpt lat="44.51050155962687" lon="9.208299848786142"><ele>798.0</ele><time>2026-04-05T14:33:17Z</time></trkpt><trkpt lat="44.51064390692382" lon="9.20823922349794"><ele>793.0</ele><time>2026-04-05T14:33:18Z</time></trkpt><trkpt lat="44.510801435310704" lon="9.208188216489674"><ele>788.0</ele><time>2026-04-05T14:33:19Z</time></trkpt><trkpt lat="44.51097372652431" lon="9.208136705328842"><ele>783.0</ele><time>2026-04-05T14:33:20Z</time></trkpt><trkpt lat="44.51113177825932" lon="9.208140176584429"><ele>784.0</ele><time>2026-04-05T14:33:21Z</time></trkpt><trkpt lat="44.51127469212912" lon="9.208163047841422"><ele>785.0</ele><time>2026-04-05T14:33:22Z</time></trkpt><trkpt lat="44.51140295324167" lon="9.208164846675365"><ele>786.0</ele><time>2026-04-05T14:33:23Z</time></trkpt><trkpt lat="44.51152409680169" lon="9.208167274140028"><ele>787.0</ele><time>2026-04-05T14:33:24Z</time></trkpt><trkpt lat="44.511636635224484" lon="9.20818514405494"><ele>787.0</ele><time>2026-04-05T14:33:25Z</time></trkpt><trkpt lat="44.511741365586936" lon="9.208207474003645"><ele>787.0</ele><time>2026-04-05T14:33:26Z</time></trkpt><trkpt lat="44.511842006272765" lon="9.208321147968839"><ele>787.0</ele><time>2026-04-05T14:33:27Z</time></trkpt><trkpt lat="44.51193698112012" lon="9.208469035315602"><ele>787.0</ele><time>2026-04-05T14:33:28Z</time></trkpt><trkpt lat="44.512046725832015" lon="9.208645899289186"><ele>786.0</ele><time>2026-04-05T14:33:29Z</time></trkpt><trkpt lat="44.5121790441667" lon="9.208847727365393"><ele>785.0</ele><time>2026-04-05T14:33:30Z</time></trkpt><trkpt lat="44.51226357446122" lon="9.209030747005189"><ele>784.0</ele><time>2026-04-05T14:33:31Z</time></trkpt><trkpt lat="44.51234186046246" lon="9.20921935966718"><ele>784.0</ele><time>2026-04-05T14:33:32Z</time></trkpt><trkpt lat="44.51237706621866" lon="9.20939486140676"><ele>784.0</ele><time>2026-04-05T14:33:33Z</time></trkpt><trkpt lat="44.512417158151145" lon="9.209541525089165"><ele>784.0</ele><time>2026-04-05T14:33:34Z</time></trkpt><trkpt lat="44.512459290133414" lon="9.209657189195271"><ele>784.0</ele><time>2026-04-05T14:33:35Z</time></trkpt><trkpt lat="44.51251180303335" lon="9.209741844151017"><ele>784.0</ele><time>2026-04-05T14:33:36Z</time></trkpt><trkpt lat="44.512569955810754" lon="9.209788082786883"><ele>784.0</ele><time>2026-04-05T14:33:37Z</time></trkpt><trkpt lat="44.51263468895246" lon="9.209804449014237"><ele>784.0</ele><time>2026-04-05T14:33:38Z</time></trkpt><trkpt lat="44.51271784774655" lon="9.209804876215436"><ele>784.0</ele><time>2026-04-05T14:33:39Z</time></trkpt><trkpt lat="44.512795455573524" lon="9.209720967559035"><ele>784.0</ele><time>2026-04-05T14:33:40Z</time></trkpt><trkpt lat="44.51287429890754" lon="9.209599394206196"><ele>784.0</ele><time>2026-04-05T14:33:41Z</time></trkpt><trkpt lat="44.51293436987325" lon="9.209503329008786"><ele>785.8000000000001</ele><time>2026-04-05T14:33:42Z</time></trkpt><trkpt lat="44.51302452527407" lon="9.209418827886699"><ele>787.6</ele><time>2026-04-05T14:33:44Z</time></trkpt><trkpt lat="44.51309532003074" lon="9.209434282101931"><ele>789.4</ele><time>2026-04-05T14:33:45Z</time></trkpt><trkpt lat="44.513157826165745" lon="9.209588602535822"><ele>791.2</ele><time>2026-04-05T14:33:47Z</time></trkpt><trkpt lat="44.51312280996755" lon="9.209777914093728"><ele>793.0</ele><time>2026-04-05T14:33:48Z</time></trkpt><trkpt lat="44.51308247852254" lon="9.210022276545327"><ele>793.0</ele><time>2026-04-05T14:33:49Z</time></trkpt><trkpt lat="44.513034765120615" lon="9.210296962602579"><ele>793.0</ele><time>2026-04-05T14:33:50Z</time></trkpt><trkpt lat="44.5130351397516" lon="9.210610402824694"><ele>793.0</ele><time>2026-04-05T14:33:51Z</time></trkpt><trkpt lat="44.51297584711025" lon="9.210891131432682"><ele>792.5</ele><time>2026-04-05T14:33:52Z</time></trkpt><trkpt lat="44.51293410965566" lon="9.211190196915021"><ele>792.0</ele><time>2026-04-05T14:33:53Z</time></trkpt><trkpt lat="44.51288605300728" lon="9.21151316564225"><ele>779.0</ele><time>2026-04-05T14:33:54Z</time></trkpt><trkpt lat="44.51284977092667" lon="9.211794018135308"><ele>766.0</ele><time>2026-04-05T14:33:55Z</time></trkpt><trkpt lat="44.512804861134775" lon="9.212025417519968"><ele>753.0</ele><time>2026-04-05T14:33:56Z</time></trkpt><trkpt lat="44.51273994156566" lon="9.212262369182511"><ele>755.0</ele><time>2026-04-05T14:33:57Z</time></trkpt><trkpt lat="44.51264211485721" lon="9.212461591901304"><ele>757.0</ele><time>2026-04-05T14:33:58Z</time></trkpt><trkpt lat="44.51254280929914" lon="9.21263440185569"><ele>759.0</ele><time>2026-04-05T14:33:59Z</time></trkpt><trkpt lat="44.51245001298566" lon="9.212769612561832"><ele>759.0</ele><time>2026-04-05T14:34:00Z</time></trkpt><trkpt lat="44.51237378296559" lon="9.21288507621585"><ele>759.0</ele><time>2026-04-05T14:34:01Z</time></trkpt><trkpt lat="44.51232610266815" lon="9.21298635808085"><ele>759.0</ele><time>2026-04-05T14:34:02Z</time></trkpt><trkpt lat="44.51228432033089" lon="9.213167519539477"><ele>759.0</ele><time>2026-04-05T14:34:03Z</time></trkpt><trkpt lat="44.51228028001118" lon="9.213403563296295"><ele>758.0</ele><time>2026-04-05T14:34:04Z</time></trkpt><trkpt lat="44.51227082946743" lon="9.213623409278222"><ele>757.0</ele><time>2026-04-05T14:34:05Z</time></trkpt><trkpt lat="44.51226224619495" lon="9.213832902971301"><ele>756.0</ele><time>2026-04-05T14:34:06Z</time></trkpt><trkpt lat="44.512253456549786" lon="9.214008364930217"><ele>755.0</ele><time>2026-04-05T14:34:07Z</time></trkpt><trkpt lat="44.51225962985089" lon="9.2141490132915"><ele>755.0</ele><time>2026-04-05T14:34:07.999Z</time></trkpt><trkpt lat="44.512264939536784" lon="9.214296341231925"><ele>755.0</ele><time>2026-04-05T14:34:08.999Z</time></trkpt><trkpt lat="44.51230411119412" lon="9.214413312252761"><ele>755.0</ele><time>2026-04-05T14:34:09.999Z</time></trkpt><trkpt lat="44.5123804618031" lon="9.214450984781301"><ele>755.0</ele><time>2026-04-05T14:34:10.999Z</time></trkpt><trkpt lat="44.51247673558704" lon="9.214477373364616"><ele>755.0</ele><time>2026-04-05T14:34:11.999Z</time></trkpt><trkpt lat="44.5125553805625" lon="9.21444970230439"><ele>755.0</ele><time>2026-04-05T14:34:12.999Z</time></trkpt><trkpt lat="44.51266378254506" lon="9.214373166659486"><ele>755.0</ele><time>2026-04-05T14:34:13.999Z</time></trkpt><trkpt lat="44.51278043890102" lon="9.214253017276768"><ele>755.0</ele><time>2026-04-05T14:34:14.999Z</time></trkpt><trkpt lat="44.512936671615115" lon="9.214120034112428"><ele>755.0</ele><time>2026-04-05T14:34:15.999Z</time></trkpt><trkpt lat="44.51311848351909" lon="9.21399934500203"><ele>766.5</ele><time>2026-04-05T14:34:16.999Z</time></trkpt><trkpt lat="44.513389404067134" lon="9.213848141102462"><ele>778.0</ele><time>2026-04-05T14:34:17.999Z</time></trkpt><trkpt lat="44.513577414110266" lon="9.213734742426961"><ele>770.3333333333333</ele><time>2026-04-05T14:34:18.999Z</time></trkpt><trkpt lat="44.51376087696122" lon="9.213601274023775"><ele>762.6666666666666</ele><time>2026-04-05T14:34:19.999Z</time></trkpt><trkpt lat="44.513910962772755" lon="9.21347708350168"><ele>755.0</ele><time>2026-04-05T14:34:20.999Z</time></trkpt><trkpt lat="44.51404780953787" lon="9.213351674799592"><ele>755.0</ele><time>2026-04-05T14:34:21.999Z</time></trkpt><trkpt lat="44.51416066300612" lon="9.213255271515779"><ele>755.0</ele><time>2026-04-05T14:34:22.999Z</time></trkpt><trkpt lat="44.514248377599635" lon="9.213161340384316"><ele>755.0</ele><time>2026-04-05T14:34:23.999Z</time></trkpt><trkpt lat="44.514330345234995" lon="9.213118480804068"><ele>755.0</ele><time>2026-04-05T14:34:24.999Z</time></trkpt><trkpt lat="44.514457958603366" lon="9.213126840015367"><ele>755.0</ele><time>2026-04-05T14:34:26.999Z</time></trkpt><trkpt lat="44.51460245766349" lon="9.213329897232281"><ele>755.0</ele><time>2026-04-05T14:34:28.999Z</time></trkpt><trkpt lat="44.51462151172969" lon="9.213435991131062"><ele>755.0</ele><time>2026-04-05T14:34:29.999Z</time></trkpt><trkpt lat="44.51461803139916" lon="9.213542517990444"><ele>755.0</ele><time>2026-04-05T14:34:30.999Z</time></trkpt><trkpt lat="44.514550441226476" lon="9.213666063828875"><ele>755.0</ele><time>2026-04-05T14:34:31.999Z</time></trkpt><trkpt lat="44.5144692859691" lon="9.213815527171782"><ele>755.0</ele><time>2026-04-05T14:34:32.999Z</time></trkpt><trkpt lat="44.51437421517007" lon="9.214011269770545"><ele>755.0</ele><time>2026-04-05T14:34:33.999Z</time></trkpt><trkpt lat="44.51422547920483" lon="9.21417171308198"><ele>754.0</ele><time>2026-04-05T14:34:34.999Z</time></trkpt><trkpt lat="44.514066006002786" lon="9.214356832641492"><ele>753.0</ele><time>2026-04-05T14:34:35.999Z</time></trkpt><trkpt lat="44.51388305320662" lon="9.214526299010723"><ele>752.0</ele><time>2026-04-05T14:34:36.999Z</time></trkpt><trkpt lat="44.51372214907878" lon="9.214650580877308"><ele>752.0</ele><time>2026-04-05T14:34:37.999Z</time></trkpt><trkpt lat="44.51360128200075" lon="9.214770168514736"><ele>752.0</ele><time>2026-04-05T14:34:38.999Z</time></trkpt><trkpt lat="44.51350230877178" lon="9.21487336009257"><ele>752.0</ele><time>2026-04-05T14:34:39.999Z</time></trkpt><trkpt lat="44.513429284013434" lon="9.214981416086653"><ele>752.0</ele><time>2026-04-05T14:34:40.999Z</time></trkpt><trkpt lat="44.51338326971396" lon="9.215095512609965"><ele>751.0</ele><time>2026-04-05T14:34:41.999Z</time></trkpt><trkpt lat="44.51336153772792" lon="9.215225793387544"><ele>750.0</ele><time>2026-04-05T14:34:42.999Z</time></trkpt><trkpt lat="44.513374597234815" lon="9.215387708722822"><ele>749.0</ele><time>2026-04-05T14:34:43.999Z</time></trkpt><trkpt lat="44.513430468768995" lon="9.215504320026115"><ele>748.0</ele><time>2026-04-05T14:34:44.999Z</time></trkpt><trkpt lat="44.51352989918002" lon="9.21561303921621"><ele>747.0</ele><time>2026-04-05T14:34:45.999Z</time></trkpt><trkpt lat="44.513653416372236" lon="9.215731960255262"><ele>750.25</ele><time>2026-04-05T14:34:46.999Z</time></trkpt><trkpt lat="44.51377643556131" lon="9.21583134204044"><ele>753.5</ele><time>2026-04-05T14:34:47.999Z</time></trkpt><trkpt lat="44.51385735587478" lon="9.215892974340383"><ele>756.75</ele><time>2026-04-05T14:34:48.999Z</time></trkpt><trkpt lat="44.51395984245567" lon="9.215921824304745"><ele>760.0</ele><time>2026-04-05T14:34:49.999Z</time></trkpt><trkpt lat="44.51408302527103" lon="9.215916040072315"><ele>760.0</ele><time>2026-04-05T14:34:50.999Z</time></trkpt><trkpt lat="44.5142440226679" lon="9.215859398944163"><ele>760.0</ele><time>2026-04-05T14:34:51.999Z</time></trkpt><trkpt lat="44.51438011891983" lon="9.215765283575466"><ele>760.0</ele><time>2026-04-05T14:34:52.999Z</time></trkpt><trkpt lat="44.51454405862082" lon="9.215741017289302"><ele>761.0</ele><time>2026-04-05T14:34:53.999Z</time></trkpt><trkpt lat="44.5146533072639" lon="9.215671859400473"><ele>762.0</ele><time>2026-04-05T14:34:54.999Z</time></trkpt><trkpt lat="44.514741497572935" lon="9.215614680844077"><ele>763.0</ele><time>2026-04-05T14:34:55.999Z</time></trkpt><trkpt lat="44.51481070511064" lon="9.215557316903501"><ele>764.0</ele><time>2026-04-05T14:34:56.999Z</time></trkpt><trkpt lat="44.51494875761111" lon="9.21555450960393"><ele>765.0</ele><time>2026-04-05T14:34:58.999Z</time></trkpt><trkpt lat="44.515008046983986" lon="9.21567481267805"><ele>765.0</ele><time>2026-04-05T14:35:00.999Z</time></trkpt><trkpt lat="44.51501682418495" lon="9.215785456982536"><ele>765.0</ele><time>2026-04-05T14:35:01.999Z</time></trkpt><trkpt lat="44.51494266631025" lon="9.21587855117704"><ele>765.0</ele><time>2026-04-05T14:35:02.999Z</time></trkpt><trkpt lat="44.5148302486625" lon="9.215972084675494"><ele>765.0</ele><time>2026-04-05T14:35:03.999Z</time></trkpt><trkpt lat="44.51475195767516" lon="9.216121232829646"><ele>765.0</ele><time>2026-04-05T14:35:04.999Z</time></trkpt><trkpt lat="44.514670181369844" lon="9.216305030124536"><ele>769.5</ele><time>2026-04-05T14:35:05.999Z</time></trkpt><trkpt lat="44.51458418038253" lon="9.216527375950713"><ele>774.0</ele><time>2026-04-05T14:35:06.999Z</time></trkpt><trkpt lat="44.51453831147095" lon="9.216693411867938"><ele>778.5</ele><time>2026-04-05T14:35:07.999Z</time></trkpt><trkpt lat="44.514464494956194" lon="9.21685644867075"><ele>783.0</ele><time>2026-04-05T14:35:08.999Z</time></trkpt><trkpt lat="44.51439883101508" lon="9.217013945590685"><ele>769.3333333333334</ele><time>2026-04-05T14:35:10Z</time></trkpt><trkpt lat="44.514392887578865" lon="9.217225508754996"><ele>755.6666666666667</ele><time>2026-04-05T14:35:11Z</time></trkpt><trkpt lat="44.51442568802517" lon="9.217434473281477"><ele>742.0</ele><time>2026-04-05T14:35:12Z</time></trkpt><trkpt lat="44.51448682357791" lon="9.217625271918992"><ele>740.75</ele><time>2026-04-05T14:35:13Z</time></trkpt><trkpt lat="44.51451039527924" lon="9.217808975238249"><ele>739.5</ele><time>2026-04-05T14:35:14Z</time></trkpt><trkpt lat="44.51448865728894" lon="9.217968710588568"><ele>738.25</ele><time>2026-04-05T14:35:15Z</time></trkpt><trkpt lat="44.51442028245524" lon="9.21813985440779"><ele>737.0</ele><time>2026-04-05T14:35:16Z</time></trkpt><trkpt lat="44.51437835547376" lon="9.21834689523909"><ele>739.75</ele><time>2026-04-05T14:35:17Z</time></trkpt><trkpt lat="44.51433496911384" lon="9.21849700908933"><ele>742.5</ele><time>2026-04-05T14:35:18Z</time></trkpt><trkpt lat="44.514266391908066" lon="9.21860082853747"><ele>745.25</ele><time>2026-04-05T14:35:19Z</time></trkpt><trkpt lat="44.5141736767511" lon="9.218634764194256"><ele>748.0</ele><time>2026-04-05T14:35:20Z</time></trkpt><trkpt lat="44.51403860775924" lon="9.218741607852806"><ele>748.0</ele><time>2026-04-05T14:35:21Z</time></trkpt><trkpt lat="44.51392697452569" lon="9.218859847275557"><ele>748.0</ele><time>2026-04-05T14:35:22Z</time></trkpt><trkpt lat="44.51380194428775" lon="9.218974406784266"><ele>748.0</ele><time>2026-04-05T14:35:23Z</time></trkpt><trkpt lat="44.513640145313865" lon="9.219068752806136"><ele>751.75</ele><time>2026-04-05T14:35:24Z</time></trkpt><trkpt lat="44.513485975466615" lon="9.219150730844431"><ele>755.5</ele><time>2026-04-05T14:35:25Z</time></trkpt><trkpt lat="44.51334100461226" lon="9.219217650542433"><ele>759.25</ele><time>2026-04-05T14:35:26Z</time></trkpt><trkpt lat="44.513216893258715" lon="9.219224734990942"><ele>763.0</ele><time>2026-04-05T14:35:27Z</time></trkpt><trkpt lat="44.51301375825972" lon="9.219232534446746"><ele>760.0</ele><time>2026-04-05T14:35:28Z</time></trkpt><trkpt lat="44.51276321183062" lon="9.219197335536451"><ele>757.0</ele><time>2026-04-05T14:35:29Z</time></trkpt><trkpt lat="44.5124881468859" lon="9.219219044808856"><ele>757.0</ele><time>2026-04-05T14:35:30Z</time></trkpt><trkpt lat="44.51230223887022" lon="9.219248767235747"><ele>757.0</ele><time>2026-04-05T14:35:31Z</time></trkpt><trkpt lat="44.51209709953131" lon="9.219319422203862"><ele>757.0</ele><time>2026-04-05T14:35:32Z</time></trkpt><trkpt lat="44.511878680242745" lon="9.219368565420137"><ele>754.6666666666667</ele><time>2026-04-05T14:35:33Z</time></trkpt><trkpt lat="44.51173670647759" lon="9.2195474936814"><ele>752.3333333333334</ele><time>2026-04-05T14:35:34Z</time></trkpt><trkpt lat="44.511576283406065" lon="9.21969214106976"><ele>750.0</ele><time>2026-04-05T14:35:35Z</time></trkpt><trkpt lat="44.51143323538331" lon="9.219785065278813"><ele>749.0</ele><time>2026-04-05T14:35:36Z</time></trkpt><trkpt lat="44.511312832460156" lon="9.21988062899357"><ele>748.0</ele><time>2026-04-05T14:35:37Z</time></trkpt><trkpt lat="44.51125467942806" lon="9.219930238418064"><ele>747.0</ele><time>2026-04-05T14:35:38Z</time></trkpt><trkpt lat="44.51120391604764" lon="9.22001072502369"><ele>746.0</ele><time>2026-04-05T14:35:39Z</time></trkpt><trkpt lat="44.511186292428185" lon="9.220109859482829"><ele>745.0</ele><time>2026-04-05T14:35:40Z</time></trkpt><trkpt lat="44.511219427763095" lon="9.220226740404792"><ele>744.0</ele><time>2026-04-05T14:35:41Z</time></trkpt><trkpt lat="44.511270892513345" lon="9.220363842500696"><ele>751.3333333333334</ele><time>2026-04-05T14:35:42Z</time></trkpt><trkpt lat="44.511371136322765" lon="9.22051284663855"><ele>758.6666666666667</ele><time>2026-04-05T14:35:43Z</time></trkpt><trkpt lat="44.51150570642257" lon="9.220691135756711"><ele>766.0</ele><time>2026-04-05T14:35:44Z</time></trkpt><trkpt lat="44.51164257195008" lon="9.220877160189477"><ele>766.0</ele><time>2026-04-05T14:35:45Z</time></trkpt><trkpt lat="44.51178514944414" lon="9.221117079038233"><ele>766.0</ele><time>2026-04-05T14:35:46Z</time></trkpt><trkpt lat="44.511873637425126" lon="9.221330843078697"><ele>766.0</ele><time>2026-04-05T14:35:47Z</time></trkpt><trkpt lat="44.51199457471901" lon="9.22151055406592"><ele>772.0</ele><time>2026-04-05T14:35:48Z</time></trkpt><trkpt lat="44.51210671717742" lon="9.22168850891366"><ele>778.0</ele><time>2026-04-05T14:35:49Z</time></trkpt><trkpt lat="44.51222215617108" lon="9.221844973429414"><ele>784.0</ele><time>2026-04-05T14:35:50Z</time></trkpt><trkpt lat="44.51233952087246" lon="9.222008489812659"><ele>784.0</ele><time>2026-04-05T14:35:51Z</time></trkpt><trkpt lat="44.51242465601211" lon="9.222145327515163"><ele>784.0</ele><time>2026-04-05T14:35:52Z</time></trkpt><trkpt lat="44.51252260660307" lon="9.222216567180851"><ele>784.0</ele><time>2026-04-05T14:35:53Z</time></trkpt><trkpt lat="44.51260909917099" lon="9.222265008960242"><ele>784.0</ele><time>2026-04-05T14:35:54Z</time></trkpt><trkpt lat="44.51272239513201" lon="9.22225437195001"><ele>784.0</ele><time>2026-04-05T14:35:55Z</time></trkpt><trkpt lat="44.512870887824675" lon="9.222217358470768"><ele>788.6666666666666</ele><time>2026-04-05T14:35:56Z</time></trkpt><trkpt lat="44.51306170759858" lon="9.222158468013133"><ele>793.3333333333333</ele><time>2026-04-05T14:35:57Z</time></trkpt><trkpt lat="44.51326803293413" lon="9.222155346052697"><ele>798.0</ele><time>2026-04-05T14:35:58Z</time></trkpt><trkpt lat="44.513469628635384" lon="9.222211102451617"><ele>798.0</ele><time>2026-04-05T14:35:59Z</time></trkpt><trkpt lat="44.51366291381317" lon="9.222239217187076"><ele>798.0</ele><time>2026-04-05T14:36:00Z</time></trkpt><trkpt lat="44.51385101512565" lon="9.222254544917197"><ele>798.0</ele><time>2026-04-05T14:36:01Z</time></trkpt><trkpt lat="44.51401688669901" lon="9.222260380041968"><ele>797.3333333333333</ele><time>2026-04-05T14:36:02Z</time></trkpt><trkpt lat="44.51417953729797" lon="9.222263636670501"><ele>796.6666666666666</ele><time>2026-04-05T14:36:03Z</time></trkpt><trkpt lat="44.5143341589744" lon="9.222275001146407"><ele>796.0</ele><time>2026-04-05T14:36:04Z</time></trkpt><trkpt lat="44.51448872546223" lon="9.222289230131578"><ele>795.3333333333333</ele><time>2026-04-05T14:36:05Z</time></trkpt><trkpt lat="44.51463782762662" lon="9.222254381210139"><ele>794.6666666666667</ele><time>2026-04-05T14:36:06Z</time></trkpt><trkpt lat="44.51479023592747" lon="9.222196982711983"><ele>794.0</ele><time>2026-04-05T14:36:07Z</time></trkpt><trkpt lat="44.51494084992041" lon="9.222134741754552"><ele>794.0</ele><time>2026-04-05T14:36:08Z</time></trkpt><trkpt lat="44.51511378211983" lon="9.222181688672032"><ele>794.0</ele><time>2026-04-05T14:36:09Z</time></trkpt><trkpt lat="44.515263998899535" lon="9.222216782770586"><ele>794.0</ele><time>2026-04-05T14:36:10Z</time></trkpt><trkpt lat="44.515400309885614" lon="9.222213238168354"><ele>796.0</ele><time>2026-04-05T14:36:11Z</time></trkpt><trkpt lat="44.51553111432966" lon="9.222193830680101"><ele>798.0</ele><time>2026-04-05T14:36:12Z</time></trkpt><trkpt lat="44.515632804243715" lon="9.222168518966251"><ele>800.0</ele><time>2026-04-05T14:36:13Z</time></trkpt><trkpt lat="44.51570418560561" lon="9.222155986031071"><ele>802.0</ele><time>2026-04-05T14:36:14Z</time></trkpt><trkpt lat="44.51576988964313" lon="9.222177931144632"><ele>804.0</ele><time>2026-04-05T14:36:15Z</time></trkpt><trkpt lat="44.51583087368571" lon="9.222246671194775"><ele>797.8000000000001</ele><time>2026-04-05T14:36:16Z</time></trkpt><trkpt lat="44.51586462296539" lon="9.22235036621337"><ele>791.6</ele><time>2026-04-05T14:36:17Z</time></trkpt><trkpt lat="44.515854706924564" lon="9.222480268494246"><ele>785.4</ele><time>2026-04-05T14:36:17.999Z</time></trkpt><trkpt lat="44.515798439326865" lon="9.222613611569866"><ele>779.2</ele><time>2026-04-05T14:36:18.999Z</time></trkpt><trkpt lat="44.51570253957843" lon="9.222744712202058"><ele>773.0</ele><time>2026-04-05T14:36:19.999Z</time></trkpt><trkpt lat="44.51558064978844" lon="9.222853064350216"><ele>773.0</ele><time>2026-04-05T14:36:20.999Z</time></trkpt><trkpt lat="44.515495294545126" lon="9.22296124281766"><ele>773.0</ele><time>2026-04-05T14:36:21.999Z</time></trkpt><trkpt lat="44.515424273922" lon="9.223060141004451"><ele>773.0</ele><time>2026-04-05T14:36:22.999Z</time></trkpt><trkpt lat="44.515379811295404" lon="9.223156148996297"><ele>773.0</ele><time>2026-04-05T14:36:23.999Z</time></trkpt><trkpt lat="44.515371649346896" lon="9.223260253905956"><ele>773.0</ele><time>2026-04-05T14:36:24.999Z</time></trkpt><trkpt lat="44.51540932389233" lon="9.223361202924218"><ele>773.2</ele><time>2026-04-05T14:36:25.999Z</time></trkpt><trkpt lat="44.5154766459383" lon="9.223464085123286"><ele>773.4</ele><time>2026-04-05T14:36:26.999Z</time></trkpt><trkpt lat="44.51556156060451" lon="9.22354274495851"><ele>773.6</ele><time>2026-04-05T14:36:27.999Z</time></trkpt><trkpt lat="44.51564042678268" lon="9.223608685272007"><ele>773.8000000000001</ele><time>2026-04-05T14:36:28.999Z</time></trkpt><trkpt lat="44.51571060013592" lon="9.223664935913343"><ele>774.0</ele><time>2026-04-05T14:36:29.999Z</time></trkpt><trkpt lat="44.5157768575623" lon="9.223741691708454"><ele>774.0</ele><time>2026-04-05T14:36:30.999Z</time></trkpt><trkpt lat="44.51579334460714" lon="9.223862467235413"><ele>774.0</ele><time>2026-04-05T14:36:31.999Z</time></trkpt><trkpt lat="44.51576207250287" lon="9.224024652353911"><ele>774.0</ele><time>2026-04-05T14:36:32.999Z</time></trkpt><trkpt lat="44.515748906913664" lon="9.224210936818663"><ele>774.0</ele><time>2026-04-05T14:36:33.999Z</time></trkpt><trkpt lat="44.515758128868356" lon="9.224401610969656"><ele>769.75</ele><time>2026-04-05T14:36:34.999Z</time></trkpt><trkpt lat="44.515804424407555" lon="9.2245626692408"><ele>765.5</ele><time>2026-04-05T14:36:35.999Z</time></trkpt><trkpt lat="44.515865828927346" lon="9.224684389042316"><ele>761.25</ele><time>2026-04-05T14:36:36.999Z</time></trkpt><trkpt lat="44.51593281313297" lon="9.224777893507317"><ele>757.0</ele><time>2026-04-05T14:36:37.999Z</time></trkpt><trkpt lat="44.516051447912524" lon="9.224860897524504"><ele>762.5</ele><time>2026-04-05T14:36:38.999Z</time></trkpt><trkpt lat="44.51619790538843" lon="9.224909875776236"><ele>768.0</ele><time>2026-04-05T14:36:39.999Z</time></trkpt><trkpt lat="44.5163184260803" lon="9.224882411523438"><ele>773.5</ele><time>2026-04-05T14:36:40.999Z</time></trkpt><trkpt lat="44.51641763744054" lon="9.224856499291404"><ele>779.0</ele><time>2026-04-05T14:36:41.999Z</time></trkpt><trkpt lat="44.516506564355545" lon="9.224837894014188"><ele>779.0</ele><time>2026-04-05T14:36:42.999Z</time></trkpt><trkpt lat="44.51658858816313" lon="9.22486577246843"><ele>779.0</ele><time>2026-04-05T14:36:43.999Z</time></trkpt><trkpt lat="44.516634592790055" lon="9.224981598551807"><ele>779.0</ele><time>2026-04-05T14:36:44.999Z</time></trkpt><trkpt lat="44.51665274204186" lon="9.225117425423466"><ele>779.0</ele><time>2026-04-05T14:36:45.999Z</time></trkpt><trkpt lat="44.51659371784846" lon="9.225258481761298"><ele>779.0</ele><time>2026-04-05T14:36:46.999Z</time></trkpt><trkpt lat="44.516526036649616" lon="9.225429145379103"><ele>779.0</ele><time>2026-04-05T14:36:47.999Z</time></trkpt><trkpt lat="44.51645208421376" lon="9.225620367069283"><ele>779.0</ele><time>2026-04-05T14:36:48.999Z</time></trkpt><trkpt lat="44.516388809029685" lon="9.22582111518413"><ele>779.0</ele><time>2026-04-05T14:36:49.999Z</time></trkpt><trkpt lat="44.5163557451864" lon="9.226053853362572"><ele>777.6666666666667</ele><time>2026-04-05T14:36:50.999Z</time></trkpt><trkpt lat="44.51631763773197" lon="9.226305446702508"><ele>776.3333333333333</ele><time>2026-04-05T14:36:51.999Z</time></trkpt><trkpt lat="44.51631917565752" lon="9.226595378545786"><ele>775.0</ele><time>2026-04-05T14:36:52.999Z</time></trkpt><trkpt lat="44.516279983829584" lon="9.226885379979134"><ele>755.0</ele><time>2026-04-05T14:36:53.999Z</time></trkpt><trkpt lat="44.516155940514736" lon="9.227197899795055"><ele>735.0</ele><time>2026-04-05T14:36:54.999Z</time></trkpt><trkpt lat="44.516069157152394" lon="9.22755159312695"><ele>735.0</ele><time>2026-04-05T14:36:55.999Z</time></trkpt><trkpt lat="44.515995233562265" lon="9.22784706175512"><ele>735.0</ele><time>2026-04-05T14:36:56.999Z</time></trkpt><trkpt lat="44.51593888936649" lon="9.228086308482983"><ele>735.0</ele><time>2026-04-05T14:36:57.999Z</time></trkpt><trkpt lat="44.515894541812216" lon="9.228337025411282"><ele>734.75</ele><time>2026-04-05T14:36:58.999Z</time></trkpt><trkpt lat="44.515853102521646" lon="9.22851932216069"><ele>734.5</ele><time>2026-04-05T14:36:59.999Z</time></trkpt><trkpt lat="44.51581688514896" lon="9.228668893474365"><ele>734.25</ele><time>2026-04-05T14:37:00.999Z</time></trkpt><trkpt lat="44.51580463601511" lon="9.228815149162173"><ele>734.0</ele><time>2026-04-05T14:37:01.999Z</time></trkpt><trkpt lat="44.51583531512628" lon="9.228979701533593"><ele>734.0</ele><time>2026-04-05T14:37:02.999Z</time></trkpt><trkpt lat="44.5158879919853" lon="9.229164420562588"><ele>734.0</ele><time>2026-04-05T14:37:03.999Z</time></trkpt><trkpt lat="44.51593981320835" lon="9.229331419736956"><ele>734.0</ele><time>2026-04-05T14:37:04.999Z</time></trkpt><trkpt lat="44.516007771292166" lon="9.229476850143007"><ele>734.0</ele><time>2026-04-05T14:37:05.999Z</time></trkpt><trkpt lat="44.516095852959545" lon="9.229616131745212"><ele>734.0</ele><time>2026-04-05T14:37:06.999Z</time></trkpt><trkpt lat="44.5162155077043" lon="9.229708808646649"><ele>734.0</ele><time>2026-04-05T14:37:07.999Z</time></trkpt><trkpt lat="44.516353577582436" lon="9.229764976922349"><ele>734.0</ele><time>2026-04-05T14:37:08.999Z</time></trkpt><trkpt lat="44.516490651715664" lon="9.2297618354655"><ele>734.0</ele><time>2026-04-05T14:37:09.999Z</time></trkpt><trkpt lat="44.51661975914268" lon="9.229723863128866"><ele>741.0</ele><time>2026-04-05T14:37:10.999Z</time></trkpt><trkpt lat="44.51677606695181" lon="9.229640255705126"><ele>748.0</ele><time>2026-04-05T14:37:11.999Z</time></trkpt><trkpt lat="44.51695574885835" lon="9.22955709039496"><ele>755.0</ele><time>2026-04-05T14:37:12.999Z</time></trkpt><trkpt lat="44.51715007826962" lon="9.22955063002077"><ele>755.0</ele><time>2026-04-05T14:37:13.999Z</time></trkpt><trkpt lat="44.51735310805211" lon="9.229562361257681"><ele>755.0</ele><time>2026-04-05T14:37:14.999Z</time></trkpt><trkpt lat="44.517524888218496" lon="9.229566265858324"><ele>755.0</ele><time>2026-04-05T14:37:16Z</time></trkpt><trkpt lat="44.517725028903754" lon="9.229545625639426"><ele>755.0</ele><time>2026-04-05T14:37:17Z</time></trkpt><trkpt lat="44.51789555080878" lon="9.229515551370643"><ele>755.0</ele><time>2026-04-05T14:37:18Z</time></trkpt><trkpt lat="44.51805502629422" lon="9.229503177720394"><ele>755.0</ele><time>2026-04-05T14:37:19Z</time></trkpt><trkpt lat="44.51821857250724" lon="9.229520900263564"><ele>747.0</ele><time>2026-04-05T14:37:20Z</time></trkpt><trkpt lat="44.51842614317815" lon="9.22959862909904"><ele>739.0</ele><time>2026-04-05T14:37:21Z</time></trkpt><trkpt lat="44.51866654395723" lon="9.229710280022099"><ele>733.6666666666667</ele><time>2026-04-05T14:37:22Z</time></trkpt><trkpt lat="44.518875595504" lon="9.229829882346694"><ele>728.3333333333334</ele><time>2026-04-05T14:37:23Z</time></trkpt><trkpt lat="44.51907926734282" lon="9.229930089523876"><ele>723.0</ele><time>2026-04-05T14:37:24Z</time></trkpt><trkpt lat="44.519271960725575" lon="9.230024365319267"><ele>723.0</ele><time>2026-04-05T14:37:25Z</time></trkpt><trkpt lat="44.519450466072314" lon="9.2300916539341"><ele>723.0</ele><time>2026-04-05T14:37:26Z</time></trkpt><trkpt lat="44.519607823694834" lon="9.23017900360952"><ele>723.0</ele><time>2026-04-05T14:37:27Z</time></trkpt><trkpt lat="44.51976241751961" lon="9.23028233318482"><ele>720.6666666666666</ele><time>2026-04-05T14:37:28Z</time></trkpt><trkpt lat="44.51991237488617" lon="9.230420963541857"><ele>718.3333333333333</ele><time>2026-04-05T14:37:29Z</time></trkpt><trkpt lat="44.520080038389196" lon="9.230655603029314"><ele>716.0</ele><time>2026-04-05T14:37:30Z</time></trkpt><trkpt lat="44.52026947666982" lon="9.230858018911196"><ele>724.3333333333333</ele><time>2026-04-05T14:37:31Z</time></trkpt><trkpt lat="44.52040837505171" lon="9.23105487738095"><ele>732.6666666666666</ele><time>2026-04-05T14:37:32Z</time></trkpt><trkpt lat="44.52054889746724" lon="9.231232247638458"><ele>741.0</ele><time>2026-04-05T14:37:33Z</time></trkpt><trkpt lat="44.520675362456245" lon="9.23140383451556"><ele>730.6666666666666</ele><time>2026-04-05T14:37:34Z</time></trkpt><trkpt lat="44.52081691090442" lon="9.231537438752232"><ele>720.3333333333333</ele><time>2026-04-05T14:37:35Z</time></trkpt><trkpt lat="44.520987461477525" lon="9.231669954086788"><ele>710.0</ele><time>2026-04-05T14:37:36Z</time></trkpt><trkpt lat="44.52115138888687" lon="9.2318101994333"><ele>715.6666666666666</ele><time>2026-04-05T14:37:37Z</time></trkpt><trkpt lat="44.52129710675186" lon="9.231967141555232"><ele>721.3333333333334</ele><time>2026-04-05T14:37:38Z</time></trkpt><trkpt lat="44.521424352048264" lon="9.232141695347643"><ele>727.0</ele><time>2026-04-05T14:37:39Z</time></trkpt><trkpt lat="44.52153431205091" lon="9.232303894575855"><ele>722.0</ele><time>2026-04-05T14:37:40Z</time></trkpt><trkpt lat="44.5216186031707" lon="9.232454460132969"><ele>717.0</ele><time>2026-04-05T14:37:41Z</time></trkpt><trkpt lat="44.521674461598195" lon="9.232627730662344"><ele>712.0</ele><time>2026-04-05T14:37:42Z</time></trkpt><trkpt lat="44.5217122972219" lon="9.232866377700427"><ele>707.0</ele><time>2026-04-05T14:37:43Z</time></trkpt><trkpt lat="44.521750091921525" lon="9.233138597893094"><ele>705.0</ele><time>2026-04-05T14:37:44Z</time></trkpt><trkpt lat="44.52178317192928" lon="9.233410495058397"><ele>703.0</ele><time>2026-04-05T14:37:45Z</time></trkpt><trkpt lat="44.52179993974192" lon="9.233636197791517"><ele>701.0</ele><time>2026-04-05T14:37:46Z</time></trkpt><trkpt lat="44.52181174597768" lon="9.233833509520853"><ele>702.75</ele><time>2026-04-05T14:37:47Z</time></trkpt><trkpt lat="44.521827697051684" lon="9.234019954388739"><ele>704.5</ele><time>2026-04-05T14:37:48Z</time></trkpt><trkpt lat="44.52186436441999" lon="9.234199027654416"><ele>706.25</ele><time>2026-04-05T14:37:49Z</time></trkpt><trkpt lat="44.52195551586652" lon="9.234355571133934"><ele>708.0</ele><time>2026-04-05T14:37:50Z</time></trkpt><trkpt lat="44.52206645180208" lon="9.234531275114986"><ele>708.0</ele><time>2026-04-05T14:37:51Z</time></trkpt><trkpt lat="44.52222540015251" lon="9.234728591451407"><ele>708.0</ele><time>2026-04-05T14:37:52Z</time></trkpt><trkpt lat="44.522422683559924" lon="9.234943503605198"><ele>701.6666666666666</ele><time>2026-04-05T14:37:53Z</time></trkpt><trkpt lat="44.52257431722824" lon="9.235120821481424"><ele>695.3333333333333</ele><time>2026-04-05T14:37:54Z</time></trkpt><trkpt lat="44.52272560998878" lon="9.23528493559124"><ele>689.0</ele><time>2026-04-05T14:37:55Z</time></trkpt><trkpt lat="44.52288734351904" lon="9.235413528306632"><ele>686.3333333333333</ele><time>2026-04-05T14:37:56Z</time></trkpt><trkpt lat="44.52308066080113" lon="9.235516377477888"><ele>683.6666666666666</ele><time>2026-04-05T14:37:57Z</time></trkpt><trkpt lat="44.523292063396084" lon="9.235608935934657"><ele>681.0</ele><time>2026-04-05T14:37:58Z</time></trkpt><trkpt lat="44.52353588500227" lon="9.235703955743809"><ele>686.0</ele><time>2026-04-05T14:37:59Z</time></trkpt><trkpt lat="44.523763078904906" lon="9.235782390763394"><ele>691.0</ele><time>2026-04-05T14:38:00Z</time></trkpt><trkpt lat="44.523971360708096" lon="9.23586066848936"><ele>691.0</ele><time>2026-04-05T14:38:01Z</time></trkpt><trkpt lat="44.52416681658829" lon="9.235936330057982"><ele>691.0</ele><time>2026-04-05T14:38:02Z</time></trkpt><trkpt lat="44.52436334287172" lon="9.236006193633038"><ele>691.0</ele><time>2026-04-05T14:38:03Z</time></trkpt><trkpt lat="44.524552296147355" lon="9.236065836777453"><ele>693.5</ele><time>2026-04-05T14:38:04Z</time></trkpt><trkpt lat="44.52470679376693" lon="9.236105184660728"><ele>696.0</ele><time>2026-04-05T14:38:05Z</time></trkpt><trkpt lat="44.524833173083806" lon="9.23615587272758"><ele>698.5</ele><time>2026-04-05T14:38:06Z</time></trkpt><trkpt lat="44.524974013408446" lon="9.236253011819874"><ele>701.0</ele><time>2026-04-05T14:38:07Z</time></trkpt><trkpt lat="44.525114216088426" lon="9.236387756718738"><ele>698.6666666666666</ele><time>2026-04-05T14:38:08Z</time></trkpt><trkpt lat="44.52521194739116" lon="9.23660332371546"><ele>696.3333333333334</ele><time>2026-04-05T14:38:09Z</time></trkpt><trkpt lat="44.52532440434706" lon="9.236817028238262"><ele>694.0</ele><time>2026-04-05T14:38:10Z</time></trkpt><trkpt lat="44.52541907928654" lon="9.236982624429832"><ele>694.0</ele><time>2026-04-05T14:38:11Z</time></trkpt><trkpt lat="44.52553512612606" lon="9.23714699017628"><ele>694.0</ele><time>2026-04-05T14:38:12Z</time></trkpt><trkpt lat="44.5256755778653" lon="9.237279181018415"><ele>694.0</ele><time>2026-04-05T14:38:13Z</time></trkpt><trkpt lat="44.525835164204" lon="9.23738605693249"><ele>686.3333333333334</ele><time>2026-04-05T14:38:14Z</time></trkpt><trkpt lat="44.52596019605528" lon="9.237555074592725"><ele>678.6666666666666</ele><time>2026-04-05T14:38:15Z</time></trkpt><trkpt lat="44.5260674323305" lon="9.237725391594797"><ele>671.0</ele><time>2026-04-05T14:38:16Z</time></trkpt><trkpt lat="44.526169783583306" lon="9.237884368212553"><ele>676.25</ele><time>2026-04-05T14:38:17Z</time></trkpt><trkpt lat="44.52626359417693" lon="9.238044151452579"><ele>681.5</ele><time>2026-04-05T14:38:18Z</time></trkpt><trkpt lat="44.52631843587219" lon="9.238173658045142"><ele>686.75</ele><time>2026-04-05T14:38:19Z</time></trkpt><trkpt lat="44.52635844610029" lon="9.238309107177914"><ele>692.0</ele><time>2026-04-05T14:38:20Z</time></trkpt><trkpt lat="44.52638161764689" lon="9.2384777650893"><ele>692.0</ele><time>2026-04-05T14:38:21Z</time></trkpt><trkpt lat="44.52639281541012" lon="9.238644395214985"><ele>692.0</ele><time>2026-04-05T14:38:21.999Z</time></trkpt><trkpt lat="44.526373045018055" lon="9.238807131376706"><ele>692.0</ele><time>2026-04-05T14:38:22.999Z</time></trkpt><trkpt lat="44.526323112820286" lon="9.238993449980342"><ele>692.0</ele><time>2026-04-05T14:38:23.999Z</time></trkpt><trkpt lat="44.5262372015795" lon="9.239239143493986"><ele>685.0</ele><time>2026-04-05T14:38:24.999Z</time></trkpt><trkpt lat="44.52615532470224" lon="9.239463373983575"><ele>678.0</ele><time>2026-04-05T14:38:25.999Z</time></trkpt><trkpt lat="44.52608884870587" lon="9.239642742953373"><ele>671.0</ele><time>2026-04-05T14:38:26.999Z</time></trkpt><trkpt lat="44.52603595991251" lon="9.23981987667008"><ele>669.6666666666666</ele><time>2026-04-05T14:38:27.999Z</time></trkpt><trkpt lat="44.52599772415619" lon="9.240010248466502"><ele>668.3333333333334</ele><time>2026-04-05T14:38:28.999Z</time></trkpt><trkpt lat="44.52601753637108" lon="9.24025490730557"><ele>667.0</ele><time>2026-04-05T14:38:29.999Z</time></trkpt><trkpt lat="44.52608457589181" lon="9.240476749338308"><ele>667.3333333333334</ele><time>2026-04-05T14:38:30.999Z</time></trkpt><trkpt lat="44.526151133446604" lon="9.240754567029965"><ele>667.6666666666666</ele><time>2026-04-05T14:38:31.999Z</time></trkpt><trkpt lat="44.526198262536454" lon="9.240999547752004"><ele>668.0</ele><time>2026-04-05T14:38:32.999Z</time></trkpt><trkpt lat="44.52625179011302" lon="9.241218142530714"><ele>668.0</ele><time>2026-04-05T14:38:33.999Z</time></trkpt><trkpt lat="44.52629070377287" lon="9.241417703933053"><ele>668.0</ele><time>2026-04-05T14:38:34.999Z</time></trkpt><trkpt lat="44.526285221271024" lon="9.241614366048319"><ele>668.0</ele><time>2026-04-05T14:38:35.999Z</time></trkpt><trkpt lat="44.52625949069333" lon="9.241858886889604"><ele>667.3333333333333</ele><time>2026-04-05T14:38:36.999Z</time></trkpt><trkpt lat="44.526223652432456" lon="9.242188957292658"><ele>666.6666666666666</ele><time>2026-04-05T14:38:37.999Z</time></trkpt><trkpt lat="44.52619207204991" lon="9.242478705252557"><ele>666.0</ele><time>2026-04-05T14:38:38.999Z</time></trkpt><trkpt lat="44.52616534718263" lon="9.24272138669425"><ele>665.5</ele><time>2026-04-05T14:38:39.999Z</time></trkpt><trkpt lat="44.52614046437045" lon="9.242913516519348"><ele>665.0</ele><time>2026-04-05T14:38:40.999Z</time></trkpt><trkpt lat="44.52610122432641" lon="9.24307795198443"><ele>664.5</ele><time>2026-04-05T14:38:41.999Z</time></trkpt><trkpt lat="44.526031522810435" lon="9.24326112159939"><ele>664.0</ele><time>2026-04-05T14:38:42.999Z</time></trkpt><trkpt lat="44.52588314958218" lon="9.243459578225268"><ele>665.6666666666667</ele><time>2026-04-05T14:38:43.999Z</time></trkpt><trkpt lat="44.525804118018634" lon="9.243713058719864"><ele>667.3333333333334</ele><time>2026-04-05T14:38:44.999Z</time></trkpt><trkpt lat="44.525707798005236" lon="9.24402260219224"><ele>669.0</ele><time>2026-04-05T14:38:45.999Z</time></trkpt><trkpt lat="44.52561917124541" lon="9.24433951166317"><ele>671.3333333333334</ele><time>2026-04-05T14:38:46.999Z</time></trkpt><trkpt lat="44.52553574125369" lon="9.244616397282647"><ele>673.6666666666667</ele><time>2026-04-05T14:38:47.999Z</time></trkpt><trkpt lat="44.52546817814604" lon="9.244861378900211"><ele>676.0</ele><time>2026-04-05T14:38:48.999Z</time></trkpt><trkpt lat="44.52540735343929" lon="9.245097455697206"><ele>670.3333333333334</ele><time>2026-04-05T14:38:49.999Z</time></trkpt><trkpt lat="44.525340467727766" lon="9.245331370269437"><ele>664.6666666666666</ele><time>2026-04-05T14:38:50.999Z</time></trkpt><trkpt lat="44.5253018773995" lon="9.245602455459105"><ele>659.0</ele><time>2026-04-05T14:38:51.999Z</time></trkpt><trkpt lat="44.52528363873433" lon="9.24585404158764"><ele>659.0</ele><time>2026-04-05T14:38:52.999Z</time></trkpt><trkpt lat="44.52526865809112" lon="9.246078912078511"><ele>659.0</ele><time>2026-04-05T14:38:53.999Z</time></trkpt><trkpt lat="44.52522802472028" lon="9.24625476375255"><ele>659.0</ele><time>2026-04-05T14:38:54.999Z</time></trkpt><trkpt lat="44.52518988305188" lon="9.24641867891536"><ele>659.0</ele><time>2026-04-05T14:38:55.999Z</time></trkpt><trkpt lat="44.52516260241126" lon="9.246560812287294"><ele>659.5</ele><time>2026-04-05T14:38:56.999Z</time></trkpt><trkpt lat="44.525182350224824" lon="9.246693851714824"><ele>660.0</ele><time>2026-04-05T14:38:57.999Z</time></trkpt><trkpt lat="44.52521061741273" lon="9.246851909824562"><ele>660.5</ele><time>2026-04-05T14:38:58.999Z</time></trkpt><trkpt lat="44.52526221247264" lon="9.24700865987481"><ele>661.0</ele><time>2026-04-05T14:38:59.999Z</time></trkpt><trkpt lat="44.52532826534504" lon="9.247148340672975"><ele>661.0</ele><time>2026-04-05T14:39:00.999Z</time></trkpt><trkpt lat="44.52539076434011" lon="9.247255547037433"><ele>661.0</ele><time>2026-04-05T14:39:01.999Z</time></trkpt><trkpt lat="44.52545658903105" lon="9.247365181919701"><ele>661.0</ele><time>2026-04-05T14:39:02.999Z</time></trkpt><trkpt lat="44.525517346488684" lon="9.247464284480028"><ele>661.0</ele><time>2026-04-05T14:39:03.999Z</time></trkpt><trkpt lat="44.52558355315831" lon="9.247584675868264"><ele>661.0</ele><time>2026-04-05T14:39:04.999Z</time></trkpt><trkpt lat="44.525654804534284" lon="9.247724127307114"><ele>661.5</ele><time>2026-04-05T14:39:05.999Z</time></trkpt><trkpt lat="44.52573437543625" lon="9.247897208941728"><ele>662.0</ele><time>2026-04-05T14:39:06.999Z</time></trkpt><trkpt lat="44.525807860520416" lon="9.248063222676928"><ele>662.5</ele><time>2026-04-05T14:39:07.999Z</time></trkpt><trkpt lat="44.525880679184986" lon="9.248229524464495"><ele>663.0</ele><time>2026-04-05T14:39:08.999Z</time></trkpt><trkpt lat="44.52594539267574" lon="9.248350579183514"><ele>663.0</ele><time>2026-04-05T14:39:09.999Z</time></trkpt><trkpt lat="44.526002983127036" lon="9.248487614151658"><ele>663.0</ele><time>2026-04-05T14:39:10.999Z</time></trkpt><trkpt lat="44.526068361262006" lon="9.248612943860087"><ele>663.0</ele><time>2026-04-05T14:39:11.999Z</time></trkpt><trkpt lat="44.52609012730652" lon="9.248745218822995"><ele>663.0</ele><time>2026-04-05T14:39:12.999Z</time></trkpt><trkpt lat="44.52615419151697" lon="9.248869803931315"><ele>663.0</ele><time>2026-04-05T14:39:13.999Z</time></trkpt><trkpt lat="44.52621417051981" lon="9.249007644138825"><ele>663.5</ele><time>2026-04-05T14:39:14.999Z</time></trkpt><trkpt lat="44.5262784703934" lon="9.249148825562754"><ele>664.0</ele><time>2026-04-05T14:39:15.999Z</time></trkpt><trkpt lat="44.52636402878541" lon="9.249300833854406"><ele>664.5</ele><time>2026-04-05T14:39:16.999Z</time></trkpt><trkpt lat="44.52646919222844" lon="9.249443519722034"><ele>665.0</ele><time>2026-04-05T14:39:17.999Z</time></trkpt><trkpt lat="44.52656922191401" lon="9.249601187393687"><ele>665.0</ele><time>2026-04-05T14:39:18.999Z</time></trkpt><trkpt lat="44.52669035342384" lon="9.249761930453932"><ele>665.0</ele><time>2026-04-05T14:39:19.999Z</time></trkpt><trkpt lat="44.52681826883148" lon="9.249924392259738"><ele>665.0</ele><time>2026-04-05T14:39:20.999Z</time></trkpt><trkpt lat="44.526933003611745" lon="9.250089112134795"><ele>665.25</ele><time>2026-04-05T14:39:22Z</time></trkpt><trkpt lat="44.527042486072155" lon="9.250251983983091"><ele>665.5</ele><time>2026-04-05T14:39:23Z</time></trkpt><trkpt lat="44.52715145064973" lon="9.250392593480813"><ele>665.75</ele><time>2026-04-05T14:39:24Z</time></trkpt><trkpt lat="44.52724358068637" lon="9.250510282792874"><ele>666.0</ele><time>2026-04-05T14:39:25Z</time></trkpt><trkpt lat="44.52733211233582" lon="9.250637653971529"><ele>663.5</ele><time>2026-04-05T14:39:26Z</time></trkpt><trkpt lat="44.527413356113726" lon="9.250770025615017"><ele>661.0</ele><time>2026-04-05T14:39:27Z</time></trkpt><trkpt lat="44.52751579000127" lon="9.250889250989077"><ele>658.5</ele><time>2026-04-05T14:39:28Z</time></trkpt><trkpt lat="44.527643666523616" lon="9.25099258657669"><ele>656.0</ele><time>2026-04-05T14:39:29Z</time></trkpt><trkpt lat="44.5277756964292" lon="9.251097787861994"><ele>656.0</ele><time>2026-04-05T14:39:30Z</time></trkpt><trkpt lat="44.52789075606895" lon="9.251208050885223"><ele>656.0</ele><time>2026-04-05T14:39:31Z</time></trkpt><trkpt lat="44.52797842974063" lon="9.251329156680518"><ele>656.0</ele><time>2026-04-05T14:39:32Z</time></trkpt><trkpt lat="44.52806508918734" lon="9.25147061996589"><ele>656.0</ele><time>2026-04-05T14:39:33Z</time></trkpt><trkpt lat="44.528136617010894" lon="9.251624651380725"><ele>660.0</ele><time>2026-04-05T14:39:34Z</time></trkpt><trkpt lat="44.528196566264235" lon="9.251796099349114"><ele>664.0</ele><time>2026-04-05T14:39:35Z</time></trkpt><trkpt lat="44.52824707883777" lon="9.251985458478677"><ele>668.0</ele><time>2026-04-05T14:39:36Z</time></trkpt><trkpt lat="44.528266731260935" lon="9.252190076016015"><ele>672.0</ele><time>2026-04-05T14:39:37Z</time></trkpt><trkpt lat="44.5282806547675" lon="9.252411954204392"><ele>672.0</ele><time>2026-04-05T14:39:38Z</time></trkpt><trkpt lat="44.52828156929351" lon="9.25262525664973"><ele>672.0</ele><time>2026-04-05T14:39:39Z</time></trkpt><trkpt lat="44.5282773958141" lon="9.25281445328699"><ele>672.0</ele><time>2026-04-05T14:39:40Z</time></trkpt><trkpt lat="44.52823565995093" lon="9.252988473998135"><ele>672.0</ele><time>2026-04-05T14:39:41Z</time></trkpt><trkpt lat="44.5281541396837" lon="9.253169276459884"><ele>674.0</ele><time>2026-04-05T14:39:42Z</time></trkpt><trkpt lat="44.52802545881744" lon="9.253400981717979"><ele>676.0</ele><time>2026-04-05T14:39:43Z</time></trkpt><trkpt lat="44.527864963142676" lon="9.2536814636771"><ele>666.5</ele><time>2026-04-05T14:39:44Z</time></trkpt><trkpt lat="44.52769474819089" lon="9.254004214593904"><ele>657.0</ele><time>2026-04-05T14:39:45Z</time></trkpt><trkpt lat="44.52750459224577" lon="9.254347362981932"><ele>657.0</ele><time>2026-04-05T14:39:46Z</time></trkpt><trkpt lat="44.52734947665769" lon="9.254631670167539"><ele>657.0</ele><time>2026-04-05T14:39:47Z</time></trkpt><trkpt lat="44.52719619958462" lon="9.254900051790669"><ele>655.5</ele><time>2026-04-05T14:39:48Z</time></trkpt><trkpt lat="44.52704757343456" lon="9.255169201513905"><ele>654.0</ele><time>2026-04-05T14:39:49Z</time></trkpt><trkpt lat="44.52691026533117" lon="9.25544019173428"><ele>656.0</ele><time>2026-04-05T14:39:50Z</time></trkpt><trkpt lat="44.52679275012028" lon="9.255688460145082"><ele>658.0</ele><time>2026-04-05T14:39:51Z</time></trkpt><trkpt lat="44.52668727503836" lon="9.25592650018734"><ele>660.0</ele><time>2026-04-05T14:39:52Z</time></trkpt><trkpt lat="44.526591658083596" lon="9.256163808860652"><ele>660.0</ele><time>2026-04-05T14:39:53Z</time></trkpt><trkpt lat="44.526508287542434" lon="9.25636740142663"><ele>660.0</ele><time>2026-04-05T14:39:54Z</time></trkpt><trkpt lat="44.526431180783526" lon="9.256559410466334"><ele>660.0</ele><time>2026-04-05T14:39:55Z</time></trkpt><trkpt lat="44.5263885228269" lon="9.256805542920043"><ele>662.3333333333334</ele><time>2026-04-05T14:39:56Z</time></trkpt><trkpt lat="44.52636399946157" lon="9.257054005175515"><ele>664.6666666666667</ele><time>2026-04-05T14:39:57Z</time></trkpt><trkpt lat="44.526378452873224" lon="9.257296312754045"><ele>667.0</ele><time>2026-04-05T14:39:58Z</time></trkpt><trkpt lat="44.526400131302225" lon="9.257539822968546"><ele>668.0</ele><time>2026-04-05T14:39:59Z</time></trkpt><trkpt lat="44.52643341956422" lon="9.25776669697252"><ele>669.0</ele><time>2026-04-05T14:40:00Z</time></trkpt><trkpt lat="44.526503236719996" lon="9.257997369462101"><ele>670.0</ele><time>2026-04-05T14:40:01Z</time></trkpt><trkpt lat="44.526586629329046" lon="9.258203486226668"><ele>666.0</ele><time>2026-04-05T14:40:02Z</time></trkpt><trkpt lat="44.52669476745491" lon="9.258387854638396"><ele>662.0</ele><time>2026-04-05T14:40:03Z</time></trkpt><trkpt lat="44.52683189441118" lon="9.258560759100742"><ele>658.0</ele><time>2026-04-05T14:40:04Z</time></trkpt><trkpt lat="44.526978193193365" lon="9.258707200358518"><ele>658.0</ele><time>2026-04-05T14:40:05Z</time></trkpt><trkpt lat="44.5271428586965" lon="9.258843325913977"><ele>658.0</ele><time>2026-04-05T14:40:06Z</time></trkpt><trkpt lat="44.527312563472236" lon="9.258960839460208"><ele>658.0</ele><time>2026-04-05T14:40:07Z</time></trkpt><trkpt lat="44.52747779908049" lon="9.259058576698157"><ele>658.0</ele><time>2026-04-05T14:40:08Z</time></trkpt><trkpt lat="44.52765373431075" lon="9.259150446666057"><ele>658.0</ele><time>2026-04-05T14:40:09Z</time></trkpt><trkpt lat="44.527814024002204" lon="9.259310935898744"><ele>658.0</ele><time>2026-04-05T14:40:10Z</time></trkpt><trkpt lat="44.52796488713264" lon="9.259485165188352"><ele>656.0</ele><time>2026-04-05T14:40:11Z</time></trkpt><trkpt lat="44.52814788912492" lon="9.259707056710434"><ele>654.0</ele><time>2026-04-05T14:40:12Z</time></trkpt><trkpt lat="44.52829904015026" lon="9.25987523415423"><ele>652.0</ele><time>2026-04-05T14:40:13Z</time></trkpt><trkpt lat="44.52844058496237" lon="9.26000813845684"><ele>652.0</ele><time>2026-04-05T14:40:14Z</time></trkpt><trkpt lat="44.52858053587251" lon="9.260102243888463"><ele>652.0</ele><time>2026-04-05T14:40:15Z</time></trkpt><trkpt lat="44.52874098991651" lon="9.260119953019872"><ele>652.0</ele><time>2026-04-05T14:40:16Z</time></trkpt><trkpt lat="44.52889071419393" lon="9.260143942922316"><ele>656.0</ele><time>2026-04-05T14:40:17Z</time></trkpt><trkpt lat="44.529042227235195" lon="9.260198916382175"><ele>660.0</ele><time>2026-04-05T14:40:18Z</time></trkpt><trkpt lat="44.5292019034299" lon="9.260264427085716"><ele>664.0</ele><time>2026-04-05T14:40:19Z</time></trkpt><trkpt lat="44.52934359764903" lon="9.260341225104598"><ele>664.0</ele><time>2026-04-05T14:40:20Z</time></trkpt><trkpt lat="44.5294711764737" lon="9.260430366645243"><ele>664.0</ele><time>2026-04-05T14:40:21Z</time></trkpt><trkpt lat="44.52959426804434" lon="9.260461617395222"><ele>664.0</ele><time>2026-04-05T14:40:22Z</time></trkpt><trkpt lat="44.529729951735376" lon="9.26049285081158"><ele>664.0</ele><time>2026-04-05T14:40:23Z</time></trkpt><trkpt lat="44.52986021178693" lon="9.260487179799515"><ele>660.0</ele><time>2026-04-05T14:40:24Z</time></trkpt><trkpt lat="44.52999148652428" lon="9.260472137640347"><ele>656.0</ele><time>2026-04-05T14:40:25Z</time></trkpt><trkpt lat="44.5301115452163" lon="9.260403003426402"><ele>652.0</ele><time>2026-04-05T14:40:26Z</time></trkpt><trkpt lat="44.53023464800586" lon="9.260298776577205"><ele>648.0</ele><time>2026-04-05T14:40:26.999Z</time></trkpt><trkpt lat="44.53032982837572" lon="9.26016732834258"><ele>647.75</ele><time>2026-04-05T14:40:27.999Z</time></trkpt><trkpt lat="44.530402624835084" lon="9.260004343156332"><ele>647.5</ele><time>2026-04-05T14:40:28.999Z</time></trkpt><trkpt lat="44.530452360954214" lon="9.2598079656309"><ele>647.25</ele><time>2026-04-05T14:40:29.999Z</time></trkpt><trkpt lat="44.53047507952985" lon="9.259581027264323"><ele>647.0</ele><time>2026-04-05T14:40:30.999Z</time></trkpt><trkpt lat="44.53047955392823" lon="9.259305107252073"><ele>647.0</ele><time>2026-04-05T14:40:31.999Z</time></trkpt><trkpt lat="44.5304597088069" lon="9.258991470038456"><ele>647.0</ele><time>2026-04-05T14:40:32.999Z</time></trkpt><trkpt lat="44.530439363371215" lon="9.258666809710126"><ele>646.6666666666666</ele><time>2026-04-05T14:40:33.999Z</time></trkpt><trkpt lat="44.53042446089283" lon="9.25836823125003"><ele>646.3333333333334</ele><time>2026-04-05T14:40:34.999Z</time></trkpt><trkpt lat="44.530423917886374" lon="9.258096962800032"><ele>646.0</ele><time>2026-04-05T14:40:35.999Z</time></trkpt><trkpt lat="44.53042068827209" lon="9.25783785415376"><ele>645.6666666666667</ele><time>2026-04-05T14:40:36.999Z</time></trkpt><trkpt lat="44.53041578015487" lon="9.25757618995211"><ele>645.3333333333334</ele><time>2026-04-05T14:40:37.999Z</time></trkpt><trkpt lat="44.53042844269385" lon="9.257320665764254"><ele>645.0</ele><time>2026-04-05T14:40:38.999Z</time></trkpt><trkpt lat="44.530443939875596" lon="9.25709691498028"><ele>644.6666666666666</ele><time>2026-04-05T14:40:39.999Z</time></trkpt><trkpt lat="44.530454643245605" lon="9.256884563319804"><ele>644.3333333333333</ele><time>2026-04-05T14:40:40.999Z</time></trkpt><trkpt lat="44.53046835876069" lon="9.256677868308069"><ele>644.0</ele><time>2026-04-05T14:40:41.999Z</time></trkpt><trkpt lat="44.53052139058911" lon="9.25645760377167"><ele>645.6666666666666</ele><time>2026-04-05T14:40:42.999Z</time></trkpt><trkpt lat="44.53062066463139" lon="9.256211532177687"><ele>647.3333333333334</ele><time>2026-04-05T14:40:43.999Z</time></trkpt><trkpt lat="44.53069605107989" lon="9.255956027485215"><ele>649.0</ele><time>2026-04-05T14:40:44.999Z</time></trkpt><trkpt lat="44.53079197912009" lon="9.255733042538482"><ele>655.0</ele><time>2026-04-05T14:40:45.999Z</time></trkpt><trkpt lat="44.530916156071946" lon="9.255519505192067"><ele>661.0</ele><time>2026-04-05T14:40:46.999Z</time></trkpt><trkpt lat="44.53101287602645" lon="9.255311670021108"><ele>667.0</ele><time>2026-04-05T14:40:47.999Z</time></trkpt><trkpt lat="44.531129169432695" lon="9.255139020798522"><ele>665.6666666666667</ele><time>2026-04-05T14:40:48.999Z</time></trkpt><trkpt lat="44.53124065222578" lon="9.254949534933772"><ele>664.3333333333334</ele><time>2026-04-05T14:40:49.999Z</time></trkpt><trkpt lat="44.531353117557124" lon="9.254780595664426"><ele>663.0</ele><time>2026-04-05T14:40:50.999Z</time></trkpt><trkpt lat="44.53148481382182" lon="9.254635724186418"><ele>663.0</ele><time>2026-04-05T14:40:51.999Z</time></trkpt><trkpt lat="44.53163227136927" lon="9.254491831629887"><ele>663.0</ele><time>2026-04-05T14:40:52.999Z</time></trkpt><trkpt lat="44.53177691113126" lon="9.254371875926934"><ele>663.0</ele><time>2026-04-05T14:40:53.999Z</time></trkpt><trkpt lat="44.53189531424589" lon="9.254291590063502"><ele>663.0</ele><time>2026-04-05T14:40:54.999Z</time></trkpt><trkpt lat="44.532039211040725" lon="9.254225271798719"><ele>663.0</ele><time>2026-04-05T14:40:55.999Z</time></trkpt><trkpt lat="44.532195318661614" lon="9.254194167471283"><ele>663.0</ele><time>2026-04-05T14:40:56.999Z</time></trkpt><trkpt lat="44.53237125940882" lon="9.25419692665507"><ele>663.5</ele><time>2026-04-05T14:40:57.999Z</time></trkpt><trkpt lat="44.53253944861776" lon="9.254210690258798"><ele>664.0</ele><time>2026-04-05T14:40:58.999Z</time></trkpt><trkpt lat="44.53267589398272" lon="9.254202436578986"><ele>664.5</ele><time>2026-04-05T14:40:59.999Z</time></trkpt><trkpt lat="44.532794966318264" lon="9.25424283521557"><ele>665.0</ele><time>2026-04-05T14:41:00.999Z</time></trkpt><trkpt lat="44.53291828455702" lon="9.254374304520697"><ele>665.0</ele><time>2026-04-05T14:41:01.999Z</time></trkpt><trkpt lat="44.533055130868796" lon="9.25453667812684"><ele>665.0</ele><time>2026-04-05T14:41:02.999Z</time></trkpt><trkpt lat="44.53320775643993" lon="9.254698264694785"><ele>665.0</ele><time>2026-04-05T14:41:03.999Z</time></trkpt><trkpt lat="44.53334800078674" lon="9.254828243709566"><ele>658.0</ele><time>2026-04-05T14:41:04.999Z</time></trkpt><trkpt lat="44.53347991185065" lon="9.254949911419299"><ele>651.0</ele><time>2026-04-05T14:41:05.999Z</time></trkpt><trkpt lat="44.533600340149675" lon="9.255094932841441"><ele>644.0</ele><time>2026-04-05T14:41:06.999Z</time></trkpt><trkpt lat="44.53371562194134" lon="9.255261372086114"><ele>647.75</ele><time>2026-04-05T14:41:07.999Z</time></trkpt><trkpt lat="44.533801542713675" lon="9.255415654995446"><ele>651.5</ele><time>2026-04-05T14:41:08.999Z</time></trkpt><trkpt lat="44.53388271829423" lon="9.255549382681643"><ele>655.25</ele><time>2026-04-05T14:41:09.999Z</time></trkpt><trkpt lat="44.5339617514764" lon="9.255669674584345"><ele>659.0</ele><time>2026-04-05T14:41:10.999Z</time></trkpt><trkpt lat="44.53401445713877" lon="9.255798545042351"><ele>659.0</ele><time>2026-04-05T14:41:11.999Z</time></trkpt><trkpt lat="44.53400425167694" lon="9.255962229121996"><ele>659.0</ele><time>2026-04-05T14:41:12.999Z</time></trkpt><trkpt lat="44.533959709408514" lon="9.256166526435269"><ele>659.0</ele><time>2026-04-05T14:41:13.999Z</time></trkpt><trkpt lat="44.5339322727127" lon="9.256445268192396"><ele>659.0</ele><time>2026-04-05T14:41:14.999Z</time></trkpt><trkpt lat="44.53390594316175" lon="9.256766580795418"><ele>659.0</ele><time>2026-04-05T14:41:15.999Z</time></trkpt><trkpt lat="44.533878695850014" lon="9.257093501215959"><ele>659.0</ele><time>2026-04-05T14:41:16.999Z</time></trkpt><trkpt lat="44.533848477987775" lon="9.257377019349422"><ele>659.0</ele><time>2026-04-05T14:41:17.999Z</time></trkpt><trkpt lat="44.533807135757286" lon="9.257632668745668"><ele>659.0</ele><time>2026-04-05T14:41:18.999Z</time></trkpt><trkpt lat="44.53378585288333" lon="9.257923317640468"><ele>659.6666666666666</ele><time>2026-04-05T14:41:19.999Z</time></trkpt><trkpt lat="44.53378672282908" lon="9.258215136586477"><ele>660.3333333333334</ele><time>2026-04-05T14:41:20.999Z</time></trkpt><trkpt lat="44.53380175201232" lon="9.258547082584572"><ele>661.0</ele><time>2026-04-05T14:41:21.999Z</time></trkpt><trkpt lat="44.533829649939136" lon="9.258865579506015"><ele>660.3333333333334</ele><time>2026-04-05T14:41:22.999Z</time></trkpt><trkpt lat="44.53383651343466" lon="9.259163959370875"><ele>659.6666666666666</ele><time>2026-04-05T14:41:23.999Z</time></trkpt><trkpt lat="44.533815337537355" lon="9.259478499621416"><ele>659.0</ele><time>2026-04-05T14:41:24.999Z</time></trkpt><trkpt lat="44.533787597033026" lon="9.25977786523445"><ele>658.6666666666666</ele><time>2026-04-05T14:41:25.999Z</time></trkpt><trkpt lat="44.53378458112738" lon="9.260064298834871"><ele>658.3333333333334</ele><time>2026-04-05T14:41:26.999Z</time></trkpt><trkpt lat="44.53380009503318" lon="9.260336448414343"><ele>658.0</ele><time>2026-04-05T14:41:28Z</time></trkpt><trkpt lat="44.53381640926623" lon="9.260597337674461"><ele>655.6666666666667</ele><time>2026-04-05T14:41:29Z</time></trkpt><trkpt lat="44.53381766460004" lon="9.260833895495391"><ele>653.3333333333334</ele><time>2026-04-05T14:41:30Z</time></trkpt><trkpt lat="44.533804133345456" lon="9.261049542064518"><ele>651.0</ele><time>2026-04-05T14:41:31Z</time></trkpt><trkpt lat="44.5337896454521" lon="9.261245303390679"><ele>651.0</ele><time>2026-04-05T14:41:32Z</time></trkpt><trkpt lat="44.53378951433173" lon="9.261429608031523"><ele>651.0</ele><time>2026-04-05T14:41:33Z</time></trkpt><trkpt lat="44.53380496328663" lon="9.261580616231855"><ele>651.0</ele><time>2026-04-05T14:41:34Z</time></trkpt><trkpt lat="44.53383708176337" lon="9.261735306206269"><ele>651.0</ele><time>2026-04-05T14:41:35Z</time></trkpt><trkpt lat="44.53389274559559" lon="9.2618651366832"><ele>647.75</ele><time>2026-04-05T14:41:36Z</time></trkpt><trkpt lat="44.53397928975003" lon="9.261967195340414"><ele>644.5</ele><time>2026-04-05T14:41:37Z</time></trkpt><trkpt lat="44.53407822976294" lon="9.262030158490678"><ele>641.25</ele><time>2026-04-05T14:41:38Z</time></trkpt><trkpt lat="44.534189943877266" lon="9.262039155287633"><ele>638.0</ele><time>2026-04-05T14:41:39Z</time></trkpt><trkpt lat="44.53432802432559" lon="9.262010917619918"><ele>638.0</ele><time>2026-04-05T14:41:40Z</time></trkpt><trkpt lat="44.534494416216006" lon="9.261949220314639"><ele>638.0</ele><time>2026-04-05T14:41:41Z</time></trkpt><trkpt lat="44.53466968814009" lon="9.26185768209399"><ele>638.0</ele><time>2026-04-05T14:41:42Z</time></trkpt><trkpt lat="44.53482432274781" lon="9.261750391402227"><ele>638.0</ele><time>2026-04-05T14:41:43Z</time></trkpt><trkpt lat="44.53498025041095" lon="9.261633011716514"><ele>638.0</ele><time>2026-04-05T14:41:44Z</time></trkpt><trkpt lat="44.535112575892136" lon="9.261500378247117"><ele>638.0</ele><time>2026-04-05T14:41:45Z</time></trkpt><trkpt lat="44.53522597713383" lon="9.261391037469494"><ele>643.25</ele><time>2026-04-05T14:41:46Z</time></trkpt><trkpt lat="44.5353505816198" lon="9.261302102076447"><ele>648.5</ele><time>2026-04-05T14:41:47Z</time></trkpt><trkpt lat="44.53548717971572" lon="9.261226656667684"><ele>653.75</ele><time>2026-04-05T14:41:48Z</time></trkpt><trkpt lat="44.53560778295105" lon="9.261198902746157"><ele>659.0</ele><time>2026-04-05T14:41:49Z</time></trkpt><trkpt lat="44.53576597929505" lon="9.261205217878953"><ele>659.0</ele><time>2026-04-05T14:41:50Z</time></trkpt><trkpt lat="44.535952359706926" lon="9.261212785154333"><ele>659.0</ele><time>2026-04-05T14:41:51Z</time></trkpt><trkpt lat="44.53613302878469" lon="9.26121408409792"><ele>659.0</ele><time>2026-04-05T14:41:52Z</time></trkpt><trkpt lat="44.53633489454907" lon="9.261193093672851"><ele>652.3333333333333</ele><time>2026-04-05T14:41:53Z</time></trkpt><trkpt lat="44.536555330213886" lon="9.261131244619133"><ele>645.6666666666666</ele><time>2026-04-05T14:41:54Z</time></trkpt><trkpt lat="44.536770489480624" lon="9.26108828135708"><ele>639.0</ele><time>2026-04-05T14:41:55Z</time></trkpt><trkpt lat="44.537004076836645" lon="9.261059645489894"><ele>637.5</ele><time>2026-04-05T14:41:56Z</time></trkpt><trkpt lat="44.53723659375536" lon="9.261049433362386"><ele>636.0</ele><time>2026-04-05T14:41:57Z</time></trkpt><trkpt lat="44.53749944288833" lon="9.261041207419181"><ele>636.0</ele><time>2026-04-05T14:41:58Z</time></trkpt><trkpt lat="44.53778397531812" lon="9.261031084006142"><ele>636.0</ele><time>2026-04-05T14:41:59Z</time></trkpt><trkpt lat="44.5380764737464" lon="9.261038590544706"><ele>637.5</ele><time>2026-04-05T14:42:00Z</time></trkpt><trkpt lat="44.53836671681477" lon="9.261043750037626"><ele>639.0</ele><time>2026-04-05T14:42:01Z</time></trkpt><trkpt lat="44.53865104235189" lon="9.261034276346951"><ele>643.5</ele><time>2026-04-05T14:42:02Z</time></trkpt><trkpt lat="44.53893575093154" lon="9.261022223803215"><ele>648.0</ele><time>2026-04-05T14:42:03Z</time></trkpt><trkpt lat="44.53920287627875" lon="9.261015114632903"><ele>648.0</ele><time>2026-04-05T14:42:04Z</time></trkpt><trkpt lat="44.53944508799692" lon="9.261010200411274"><ele>648.0</ele><time>2026-04-05T14:42:05Z</time></trkpt><trkpt lat="44.53969403627829" lon="9.260992032706516"><ele>646.0</ele><time>2026-04-05T14:42:06Z</time></trkpt><trkpt lat="44.539923767110096" lon="9.260989458085218"><ele>644.0</ele><time>2026-04-05T14:42:07Z</time></trkpt><trkpt lat="44.54014255117454" lon="9.260973567451877"><ele>642.0</ele><time>2026-04-05T14:42:08Z</time></trkpt><trkpt lat="44.54033209101724" lon="9.260960037185745"><ele>638.6666666666666</ele><time>2026-04-05T14:42:09Z</time></trkpt><trkpt lat="44.540492558361656" lon="9.260975015275715"><ele>635.3333333333333</ele><time>2026-04-05T14:42:10Z</time></trkpt><trkpt lat="44.5406542720763" lon="9.260962344793946"><ele>632.0</ele><time>2026-04-05T14:42:11Z</time></trkpt><trkpt lat="44.54081191049594" lon="9.260939223563462"><ele>632.0</ele><time>2026-04-05T14:42:12Z</time></trkpt><trkpt lat="44.5409510824051" lon="9.260906280380581"><ele>632.0</ele><time>2026-04-05T14:42:13Z</time></trkpt><trkpt lat="44.54110714491298" lon="9.26085301034563"><ele>632.0</ele><time>2026-04-05T14:42:14Z</time></trkpt><trkpt lat="44.541252245200155" lon="9.260777140662055"><ele>631.0</ele><time>2026-04-05T14:42:15Z</time></trkpt><trkpt lat="44.54135706673507" lon="9.260686978007994"><ele>630.0</ele><time>2026-04-05T14:42:16Z</time></trkpt><trkpt lat="44.54146271710653" lon="9.260612667467385"><ele>629.0</ele><time>2026-04-05T14:42:17Z</time></trkpt><trkpt lat="44.5415297385006" lon="9.260533056185178"><ele>628.0</ele><time>2026-04-05T14:42:18Z</time></trkpt><trkpt lat="44.5415924011509" lon="9.26044493913978"><ele>627.0</ele><time>2026-04-05T14:42:19Z</time></trkpt><trkpt lat="44.541660016844084" lon="9.260379518253606"><ele>627.0</ele><time>2026-04-05T14:42:20Z</time></trkpt><trkpt lat="44.54172743611452" lon="9.260270587489686"><ele>627.0</ele><time>2026-04-05T14:42:22Z</time></trkpt><trkpt lat="44.54176189828142" lon="9.260186279778187"><ele>627.0</ele><time>2026-04-05T14:43:10.999Z</time></trkpt><trkpt lat="44.54169537561691" lon="9.260082515126328"><ele>627.0</ele><time>2026-04-05T14:43:23.999Z</time></trkpt><trkpt lat="44.54175143764404" lon="9.260193104896002"><ele>627.0</ele><time>2026-04-05T14:43:43Z</time></trkpt><trkpt lat="44.54179866101023" lon="9.260060625994413"><ele>627.0</ele><time>2026-04-05T14:44:15Z</time></trkpt><trkpt lat="44.54185442316238" lon="9.259951985030817"><ele>627.0</ele><time>2026-04-05T14:44:16Z</time></trkpt><trkpt lat="44.54195399512143" lon="9.259886577851447"><ele>627.0</ele><time>2026-04-05T14:44:17Z</time></trkpt><trkpt lat="44.54203655734952" lon="9.25983130737328"><ele>627.0</ele><time>2026-04-05T14:44:18Z</time></trkpt><trkpt lat="44.5421148438788" lon="9.259783460772505"><ele>627.0</ele><time>2026-04-05T14:44:19Z</time></trkpt><trkpt lat="44.54219671752291" lon="9.259726025242683"><ele>626.25</ele><time>2026-04-05T14:44:20Z</time></trkpt><trkpt lat="44.54229794725108" lon="9.259754069888245"><ele>625.5</ele><time>2026-04-05T14:44:21Z</time></trkpt><trkpt lat="44.54240717182459" lon="9.259775846834954"><ele>624.75</ele><time>2026-04-05T14:44:22Z</time></trkpt><trkpt lat="44.54255206741508" lon="9.259832067813665"><ele>624.0</ele><time>2026-04-05T14:44:23Z</time></trkpt><trkpt lat="44.542684002398836" lon="9.259885992020426"><ele>623.3333333333334</ele><time>2026-04-05T14:44:24Z</time></trkpt><trkpt lat="44.54282828425224" lon="9.259924481572007"><ele>622.6666666666667</ele><time>2026-04-05T14:44:25Z</time></trkpt><trkpt lat="44.54297654336761" lon="9.259994420503535"><ele>622.0</ele><time>2026-04-05T14:44:26Z</time></trkpt><trkpt lat="44.54312279626652" lon="9.260075461662243"><ele>622.0</ele><time>2026-04-05T14:44:27Z</time></trkpt><trkpt lat="44.54328235107951" lon="9.260141945619479"><ele>622.0</ele><time>2026-04-05T14:44:28Z</time></trkpt><trkpt lat="44.54337852331743" lon="9.260181509263615"><ele>622.0</ele><time>2026-04-05T14:44:29Z</time></trkpt><trkpt lat="44.54350416810851" lon="9.260232329185964"><ele>622.0</ele><time>2026-04-05T14:44:30Z</time></trkpt><trkpt lat="44.54360774769545" lon="9.26027523490858"><ele>622.0</ele><time>2026-04-05T14:44:31Z</time></trkpt><trkpt lat="44.543704545904596" lon="9.260315983571644"><ele>622.0</ele><time>2026-04-05T14:44:32Z</time></trkpt><trkpt lat="44.543841402375506" lon="9.260373595452247"><ele>622.0</ele><time>2026-04-05T14:44:33Z</time></trkpt><trkpt lat="44.5439368643477" lon="9.260413781553314"><ele>622.0</ele><time>2026-04-05T14:44:34Z</time></trkpt><trkpt lat="44.54401448591565" lon="9.260447113515335"><ele>622.0</ele><time>2026-04-05T14:44:35Z</time></trkpt><trkpt lat="44.54409664643521" lon="9.260494452202678"><ele>622.4</ele><time>2026-04-05T14:44:36Z</time></trkpt><trkpt lat="44.54415975680232" lon="9.260553953170694"><ele>622.8000000000001</ele><time>2026-04-05T14:44:36.999Z</time></trkpt><trkpt lat="44.544206067283525" lon="9.260652635973889"><ele>623.2</ele><time>2026-04-05T14:44:37.999Z</time></trkpt><trkpt lat="44.54423712129118" lon="9.260778760782538"><ele>623.6</ele><time>2026-04-05T14:44:38.999Z</time></trkpt><trkpt lat="44.544293156460746" lon="9.260941459179406"><ele>624.0</ele><time>2026-04-05T14:44:39.999Z</time></trkpt><trkpt lat="44.544346488883775" lon="9.26116744988756"><ele>624.0</ele><time>2026-04-05T14:44:40.999Z</time></trkpt><trkpt lat="44.54439358562992" lon="9.261419936581435"><ele>624.0</ele><time>2026-04-05T14:44:41.999Z</time></trkpt><trkpt lat="44.544443465888065" lon="9.261694106903667"><ele>624.0</ele><time>2026-04-05T14:44:42.999Z</time></trkpt><trkpt lat="44.544505830746054" lon="9.261958388981755"><ele>636.5</ele><time>2026-04-05T14:44:43.999Z</time></trkpt><trkpt lat="44.54459601451841" lon="9.262246977995341"><ele>649.0</ele><time>2026-04-05T14:44:44.999Z</time></trkpt><trkpt lat="44.54470079691001" lon="9.262553413551027"><ele>649.0</ele><time>2026-04-05T14:44:45.999Z</time></trkpt><trkpt lat="44.54479432663738" lon="9.262818828448177"><ele>649.0</ele><time>2026-04-05T14:44:46.999Z</time></trkpt><trkpt lat="44.5448782692733" lon="9.263066602862732"><ele>649.0</ele><time>2026-04-05T14:44:47.999Z</time></trkpt><trkpt lat="44.54497001978951" lon="9.263326719634557"><ele>644.0</ele><time>2026-04-05T14:44:48.999Z</time></trkpt><trkpt lat="44.54504745053542" lon="9.263604179436193"><ele>639.0</ele><time>2026-04-05T14:44:49.999Z</time></trkpt><trkpt lat="44.54511882314753" lon="9.26381344974767"><ele>634.0</ele><time>2026-04-05T14:44:50.999Z</time></trkpt><trkpt lat="44.54517819900924" lon="9.263986050649084"><ele>634.0</ele><time>2026-04-05T14:44:51.999Z</time></trkpt><trkpt lat="44.54522872636139" lon="9.26418821771445"><ele>634.0</ele><time>2026-04-05T14:44:52.999Z</time></trkpt><trkpt lat="44.54528740744347" lon="9.264354747853053"><ele>634.0</ele><time>2026-04-05T14:44:53.999Z</time></trkpt><trkpt lat="44.54534673419066" lon="9.264536644653061"><ele>634.0</ele><time>2026-04-05T14:44:54.999Z</time></trkpt><trkpt lat="44.545408014040824" lon="9.264783922914253"><ele>634.0</ele><time>2026-04-05T14:44:55.999Z</time></trkpt><trkpt lat="44.54549013771585" lon="9.265061371745418"><ele>634.0</ele><time>2026-04-05T14:44:56.999Z</time></trkpt><trkpt lat="44.54556168657043" lon="9.265351107188408"><ele>634.0</ele><time>2026-04-05T14:44:57.999Z</time></trkpt><trkpt lat="44.54562456573262" lon="9.265615060675874"><ele>631.3333333333334</ele><time>2026-04-05T14:44:58.999Z</time></trkpt><trkpt lat="44.54569707935318" lon="9.265868830014881"><ele>628.6666666666666</ele><time>2026-04-05T14:44:59.999Z</time></trkpt><trkpt lat="44.545743704434265" lon="9.26610896090834"><ele>626.0</ele><time>2026-04-05T14:45:00.999Z</time></trkpt><trkpt lat="44.54578372313548" lon="9.266338511739063"><ele>624.0</ele><time>2026-04-05T14:45:01.999Z</time></trkpt><trkpt lat="44.54579856379349" lon="9.266562574368736"><ele>622.0</ele><time>2026-04-05T14:45:02.999Z</time></trkpt><trkpt lat="44.545814544205186" lon="9.266769681268542"><ele>620.0</ele><time>2026-04-05T14:45:03.999Z</time></trkpt><trkpt lat="44.54584292973749" lon="9.266985524716123"><ele>620.0</ele><time>2026-04-05T14:45:04.999Z</time></trkpt><trkpt lat="44.54589271604655" lon="9.267167842209377"><ele>620.0</ele><time>2026-04-05T14:45:05.999Z</time></trkpt><trkpt lat="44.545975268114184" lon="9.26734491008194"><ele>620.0</ele><time>2026-04-05T14:45:06.999Z</time></trkpt><trkpt lat="44.54609465834065" lon="9.267531828931947"><ele>622.5</ele><time>2026-04-05T14:45:07.999Z</time></trkpt><trkpt lat="44.546263230488236" lon="9.267745549687175"><ele>625.0</ele><time>2026-04-05T14:45:08.999Z</time></trkpt><trkpt lat="44.54647026628371" lon="9.26799300613899"><ele>623.3333333333334</ele><time>2026-04-05T14:45:09.999Z</time></trkpt><trkpt lat="44.54664212689152" lon="9.268199326016365"><ele>621.6666666666666</ele><time>2026-04-05T14:45:10.999Z</time></trkpt><trkpt lat="44.54678860487102" lon="9.268376515999929"><ele>620.0</ele><time>2026-04-05T14:45:11.999Z</time></trkpt><trkpt lat="44.54691522384979" lon="9.268528603889385"><ele>620.0</ele><time>2026-04-05T14:45:12.999Z</time></trkpt><trkpt lat="44.547017095992764" lon="9.268696557008363"><ele>620.0</ele><time>2026-04-05T14:45:13.999Z</time></trkpt><trkpt lat="44.54712073051072" lon="9.268907633013955"><ele>620.0</ele><time>2026-04-05T14:45:14.999Z</time></trkpt><trkpt lat="44.547209239277514" lon="9.269177656115788"><ele>618.3333333333333</ele><time>2026-04-05T14:45:15.999Z</time></trkpt><trkpt lat="44.54729162538735" lon="9.269476379863068"><ele>616.6666666666666</ele><time>2026-04-05T14:45:16.999Z</time></trkpt><trkpt lat="44.547376873189165" lon="9.26973330293801"><ele>615.0</ele><time>2026-04-05T14:45:17.999Z</time></trkpt><trkpt lat="44.54745268422251" lon="9.269958676928614"><ele>615.0</ele><time>2026-04-05T14:45:18.999Z</time></trkpt><trkpt lat="44.54756159224368" lon="9.270164269632758"><ele>615.0</ele><time>2026-04-05T14:45:19.999Z</time></trkpt><trkpt lat="44.54767359390995" lon="9.270357647564813"><ele>615.0</ele><time>2026-04-05T14:45:20.999Z</time></trkpt><trkpt lat="44.547816652116815" lon="9.270527889345464"><ele>615.6666666666666</ele><time>2026-04-05T14:45:21.999Z</time></trkpt><trkpt lat="44.547970586521416" lon="9.270682899500516"><ele>616.3333333333333</ele><time>2026-04-05T14:45:22.999Z</time></trkpt><trkpt lat="44.54816635775746" lon="9.270812966101467"><ele>617.0</ele><time>2026-04-05T14:45:23.999Z</time></trkpt><trkpt lat="44.54835357966982" lon="9.270920772131682"><ele>617.0</ele><time>2026-04-05T14:45:24.999Z</time></trkpt><trkpt lat="44.54857739566251" lon="9.271039159683959"><ele>617.0</ele><time>2026-04-05T14:45:25.999Z</time></trkpt><trkpt lat="44.548798014537326" lon="9.271137506194021"><ele>625.5</ele><time>2026-04-05T14:45:26.999Z</time></trkpt><trkpt lat="44.54900309976226" lon="9.271224434662804"><ele>634.0</ele><time>2026-04-05T14:45:27.999Z</time></trkpt><trkpt lat="44.54923248273439" lon="9.271347208270889"><ele>634.5</ele><time>2026-04-05T14:45:28.999Z</time></trkpt><trkpt lat="44.549483997395185" lon="9.271510287802565"><ele>635.0</ele><time>2026-04-05T14:45:29.999Z</time></trkpt><trkpt lat="44.54970968462459" lon="9.271646677029107"><ele>635.0</ele><time>2026-04-05T14:45:30.999Z</time></trkpt><trkpt lat="44.54989142867425" lon="9.271800602091949"><ele>635.0</ele><time>2026-04-05T14:45:31.999Z</time></trkpt><trkpt lat="44.550053832476955" lon="9.27189316212184"><ele>635.0</ele><time>2026-04-05T14:45:32.999Z</time></trkpt><trkpt lat="44.5501987032192" lon="9.27200062374977"><ele>635.0</ele><time>2026-04-05T14:45:33.999Z</time></trkpt><trkpt lat="44.550324776731614" lon="9.272089967566338"><ele>635.0</ele><time>2026-04-05T14:45:34.999Z</time></trkpt><trkpt lat="44.550436454995506" lon="9.272214037934248"><ele>635.0</ele><time>2026-04-05T14:45:35.999Z</time></trkpt><trkpt lat="44.55055316977106" lon="9.272364848296798"><ele>635.0</ele><time>2026-04-05T14:45:36.999Z</time></trkpt><trkpt lat="44.550676180899295" lon="9.272557275197244"><ele>635.6666666666666</ele><time>2026-04-05T14:45:37.999Z</time></trkpt><trkpt lat="44.55081719162229" lon="9.272774185121595"><ele>636.3333333333334</ele><time>2026-04-05T14:45:38.999Z</time></trkpt><trkpt lat="44.55093058815313" lon="9.272962632728163"><ele>637.0</ele><time>2026-04-05T14:45:40Z</time></trkpt><trkpt lat="44.55103503282087" lon="9.273168424696932"><ele>644.0</ele><time>2026-04-05T14:45:41Z</time></trkpt><trkpt lat="44.55114447092252" lon="9.273358610216174"><ele>651.0</ele><time>2026-04-05T14:45:42Z</time></trkpt><trkpt lat="44.55123726115598" lon="9.273541669873666"><ele>658.0</ele><time>2026-04-05T14:45:43Z</time></trkpt><trkpt lat="44.55133463397141" lon="9.27373715963759"><ele>649.0</ele><time>2026-04-05T14:45:44Z</time></trkpt><trkpt lat="44.55139527788676" lon="9.273946282284241"><ele>640.0</ele><time>2026-04-05T14:45:45Z</time></trkpt><trkpt lat="44.55143224111723" lon="9.274165367685693"><ele>631.0</ele><time>2026-04-05T14:45:46Z</time></trkpt><trkpt lat="44.551457409169295" lon="9.274349912796012"><ele>631.0</ele><time>2026-04-05T14:45:47Z</time></trkpt><trkpt lat="44.55150090533062" lon="9.274555217474182"><ele>631.0</ele><time>2026-04-05T14:45:48Z</time></trkpt><trkpt lat="44.55160633901417" lon="9.274749290146167"><ele>631.0</ele><time>2026-04-05T14:45:49Z</time></trkpt><trkpt lat="44.55171935724485" lon="9.274907306905911"><ele>627.5</ele><time>2026-04-05T14:45:50Z</time></trkpt><trkpt lat="44.551803402655096" lon="9.275034904179225"><ele>624.0</ele><time>2026-04-05T14:45:51Z</time></trkpt><trkpt lat="44.551853345887814" lon="9.275154150746046"><ele>620.5</ele><time>2026-04-05T14:45:52Z</time></trkpt><trkpt lat="44.551866946469296" lon="9.275308124246624"><ele>617.0</ele><time>2026-04-05T14:45:53Z</time></trkpt><trkpt lat="44.551836169200584" lon="9.275479034257188"><ele>615.3333333333333</ele><time>2026-04-05T14:45:54Z</time></trkpt><trkpt lat="44.5517774261847" lon="9.275724400991137"><ele>613.6666666666666</ele><time>2026-04-05T14:45:55Z</time></trkpt><trkpt lat="44.55171524569413" lon="9.276010816915612"><ele>612.0</ele><time>2026-04-05T14:45:56Z</time></trkpt><trkpt lat="44.55163385497213" lon="9.276319510215616"><ele>615.0</ele><time>2026-04-05T14:45:57Z</time></trkpt><trkpt lat="44.55158347909132" lon="9.276598769141172"><ele>618.0</ele><time>2026-04-05T14:45:58Z</time></trkpt><trkpt lat="44.551522968874984" lon="9.276846368230451"><ele>621.0</ele><time>2026-04-05T14:45:59Z</time></trkpt><trkpt lat="44.55147197958021" lon="9.277096441475928"><ele>621.6666666666666</ele><time>2026-04-05T14:46:00Z</time></trkpt><trkpt lat="44.55144200106031" lon="9.277372197331308"><ele>622.3333333333333</ele><time>2026-04-05T14:46:01Z</time></trkpt><trkpt lat="44.55140412327467" lon="9.277695823837684"><ele>623.0</ele><time>2026-04-05T14:46:02Z</time></trkpt><trkpt lat="44.55138831977827" lon="9.277974569398406"><ele>620.3333333333333</ele><time>2026-04-05T14:46:03Z</time></trkpt><trkpt lat="44.55138117102094" lon="9.278241831188165"><ele>617.6666666666666</ele><time>2026-04-05T14:46:04Z</time></trkpt><trkpt lat="44.55137260119994" lon="9.278456705958824"><ele>615.0</ele><time>2026-04-05T14:46:05Z</time></trkpt><trkpt lat="44.55136551496391" lon="9.278650354295959"><ele>615.0</ele><time>2026-04-05T14:46:06Z</time></trkpt><trkpt lat="44.55137888861559" lon="9.27881345358571"><ele>615.0</ele><time>2026-04-05T14:46:07Z</time></trkpt><trkpt lat="44.55143031966323" lon="9.278975632533824"><ele>615.0</ele><time>2026-04-05T14:46:08Z</time></trkpt><trkpt lat="44.551515212649896" lon="9.27914530167357"><ele>615.0</ele><time>2026-04-05T14:46:09Z</time></trkpt><trkpt lat="44.55163834741759" lon="9.279288980598777"><ele>616.3333333333334</ele><time>2026-04-05T14:46:10Z</time></trkpt><trkpt lat="44.551792230184354" lon="9.279427608542594"><ele>617.6666666666667</ele><time>2026-04-05T14:46:11Z</time></trkpt><trkpt lat="44.55198724256538" lon="9.279570782545662"><ele>619.0</ele><time>2026-04-05T14:46:12Z</time></trkpt><trkpt lat="44.55218925298619" lon="9.279708235358301"><ele>615.5</ele><time>2026-04-05T14:46:13Z</time></trkpt><trkpt lat="44.55239015626145" lon="9.279862871323898"><ele>612.0</ele><time>2026-04-05T14:46:14Z</time></trkpt><trkpt lat="44.5525819160793" lon="9.280015376827992"><ele>612.0</ele><time>2026-04-05T14:46:15Z</time></trkpt><trkpt lat="44.55276129969119" lon="9.280157757728848"><ele>612.0</ele><time>2026-04-05T14:46:16Z</time></trkpt><trkpt lat="44.552983519730645" lon="9.280298147234273"><ele>615.5</ele><time>2026-04-05T14:46:17Z</time></trkpt><trkpt lat="44.55321423041121" lon="9.280435054303005"><ele>619.0</ele><time>2026-04-05T14:46:18Z</time></trkpt><trkpt lat="44.55341282537162" lon="9.280573225201687"><ele>621.3333333333334</ele><time>2026-04-05T14:46:19Z</time></trkpt><trkpt lat="44.55360818755742" lon="9.280666514421526"><ele>623.6666666666666</ele><time>2026-04-05T14:46:20Z</time></trkpt><trkpt lat="44.55375796444938" lon="9.280764135342752"><ele>626.0</ele><time>2026-04-05T14:46:21Z</time></trkpt><trkpt lat="44.55391588573624" lon="9.28088024261133"><ele>626.0</ele><time>2026-04-05T14:46:22Z</time></trkpt><trkpt lat="44.55405495740153" lon="9.280945002093755"><ele>626.0</ele><time>2026-04-05T14:46:23Z</time></trkpt><trkpt lat="44.55418096776563" lon="9.281047515537681"><ele>626.0</ele><time>2026-04-05T14:46:24Z</time></trkpt><trkpt lat="44.554288387646814" lon="9.281170309061205"><ele>626.0</ele><time>2026-04-05T14:46:25Z</time></trkpt><trkpt lat="44.554379359046905" lon="9.28135066022763"><ele>625.3333333333333</ele><time>2026-04-05T14:46:26Z</time></trkpt><trkpt lat="44.554483898728634" lon="9.281565282180972"><ele>624.6666666666666</ele><time>2026-04-05T14:46:27Z</time></trkpt><trkpt lat="44.554633004816495" lon="9.281785386303072"><ele>624.0</ele><time>2026-04-05T14:46:28Z</time></trkpt><trkpt lat="44.55479168261198" lon="9.281992650597623"><ele>624.0</ele><time>2026-04-05T14:46:29Z</time></trkpt><trkpt lat="44.55492714681736" lon="9.28217235620967"><ele>624.0</ele><time>2026-04-05T14:46:30Z</time></trkpt><trkpt lat="44.555035440493334" lon="9.282354036482849"><ele>624.0</ele><time>2026-04-05T14:46:31Z</time></trkpt><trkpt lat="44.55512536423934" lon="9.282542453382453"><ele>618.5</ele><time>2026-04-05T14:46:32Z</time></trkpt><trkpt lat="44.555195831282305" lon="9.282737894067349"><ele>613.0</ele><time>2026-04-05T14:46:33Z</time></trkpt><trkpt lat="44.55524879227414" lon="9.282953458327459"><ele>607.5</ele><time>2026-04-05T14:46:34Z</time></trkpt><trkpt lat="44.555295382702745" lon="9.283095027293024"><ele>602.0</ele><time>2026-04-05T14:46:35Z</time></trkpt><trkpt lat="44.55535443571594" lon="9.283257663527268"><ele>603.0</ele><time>2026-04-05T14:46:36Z</time></trkpt><trkpt lat="44.55541940484842" lon="9.283388773460238"><ele>604.0</ele><time>2026-04-05T14:46:37Z</time></trkpt><trkpt lat="44.55549692553787" lon="9.283457887293416"><ele>605.0</ele><time>2026-04-05T14:46:38Z</time></trkpt><trkpt lat="44.555565055428" lon="9.283536997949696"><ele>606.0</ele><time>2026-04-05T14:46:39Z</time></trkpt><trkpt lat="44.55565624234487" lon="9.283574714984825"><ele>607.0</ele><time>2026-04-05T14:46:40Z</time></trkpt><trkpt lat="44.555769973746266" lon="9.283564369103853"><ele>607.0</ele><time>2026-04-05T14:46:41Z</time></trkpt><trkpt lat="44.55588024937859" lon="9.283539969192637"><ele>607.0</ele><time>2026-04-05T14:46:42Z</time></trkpt><trkpt lat="44.55598165085626" lon="9.283491233230182"><ele>607.0</ele><time>2026-04-05T14:46:43Z</time></trkpt><trkpt lat="44.556071680033334" lon="9.28343126230529"><ele>607.0</ele><time>2026-04-05T14:46:44Z</time></trkpt><trkpt lat="44.55618994994508" lon="9.283385624545978"><ele>607.0</ele><time>2026-04-05T14:46:44.999Z</time></trkpt><trkpt lat="44.556280303743186" lon="9.283327554444828"><ele>606.2</ele><time>2026-04-05T14:46:45.999Z</time></trkpt><trkpt lat="44.55637086458111" lon="9.283269838245257"><ele>605.4000000000001</ele><time>2026-04-05T14:46:46.999Z</time></trkpt><trkpt lat="44.55645434641353" lon="9.283212774643497"><ele>604.5999999999999</ele><time>2026-04-05T14:46:47.999Z</time></trkpt><trkpt lat="44.55654120189334" lon="9.283156205679875"><ele>603.8</ele><time>2026-04-05T14:46:48.999Z</time></trkpt><trkpt lat="44.55662732242076" lon="9.283101728847027"><ele>603.0</ele><time>2026-04-05T14:46:49.999Z</time></trkpt><trkpt lat="44.556717137986745" lon="9.283050774818665"><ele>603.0</ele><time>2026-04-05T14:46:50.999Z</time></trkpt><trkpt lat="44.556807159387695" lon="9.282998439264611"><ele>603.0</ele><time>2026-04-05T14:46:51.999Z</time></trkpt><trkpt lat="44.55689788125327" lon="9.282936822854273"><ele>603.0</ele><time>2026-04-05T14:46:52.999Z</time></trkpt><trkpt lat="44.55698903448999" lon="9.282865791205982"><ele>603.0</ele><time>2026-04-05T14:46:53.999Z</time></trkpt><trkpt lat="44.55708488137702" lon="9.282805880187954"><ele>603.0</ele><time>2026-04-05T14:46:54.999Z</time></trkpt><trkpt lat="44.557181861381" lon="9.282734195491196"><ele>602.0</ele><time>2026-04-05T14:46:55.999Z</time></trkpt><trkpt lat="44.55729975832007" lon="9.28266062147568"><ele>601.0</ele><time>2026-04-05T14:46:56.999Z</time></trkpt><trkpt lat="44.55743427984597" lon="9.282582160574693"><ele>600.0</ele><time>2026-04-05T14:46:57.999Z</time></trkpt><trkpt lat="44.55758330993602" lon="9.28248619815042"><ele>599.0</ele><time>2026-04-05T14:46:58.999Z</time></trkpt><trkpt lat="44.557761009255564" lon="9.28237799193936"><ele>601.3333333333333</ele><time>2026-04-05T14:46:59.999Z</time></trkpt><trkpt lat="44.557926859068615" lon="9.282248170491874"><ele>603.6666666666666</ele><time>2026-04-05T14:47:00.999Z</time></trkpt><trkpt lat="44.5580707191189" lon="9.282159266266202"><ele>606.0</ele><time>2026-04-05T14:47:01.999Z</time></trkpt><trkpt lat="44.55820379966227" lon="9.282085498903802"><ele>606.0</ele><time>2026-04-05T14:47:02.999Z</time></trkpt><trkpt lat="44.558328617657146" lon="9.282018838328124"><ele>606.0</ele><time>2026-04-05T14:47:03.999Z</time></trkpt><trkpt lat="44.55846659134564" lon="9.281983754866305"><ele>606.0</ele><time>2026-04-05T14:47:04.999Z</time></trkpt><trkpt lat="44.55860848104815" lon="9.2819880548951"><ele>606.0</ele><time>2026-04-05T14:47:05.999Z</time></trkpt><trkpt lat="44.558746839801344" lon="9.282037358899926"><ele>607.75</ele><time>2026-04-05T14:47:06.999Z</time></trkpt><trkpt lat="44.55887985330961" lon="9.282125311950868"><ele>609.5</ele><time>2026-04-05T14:47:07.999Z</time></trkpt><trkpt lat="44.559000469631734" lon="9.282247574801564"><ele>611.25</ele><time>2026-04-05T14:47:08.999Z</time></trkpt><trkpt lat="44.55909304439312" lon="9.28240077766116"><ele>613.0</ele><time>2026-04-05T14:47:09.999Z</time></trkpt><trkpt lat="44.55915633176959" lon="9.282585813079876"><ele>613.0</ele><time>2026-04-05T14:47:10.999Z</time></trkpt><trkpt lat="44.55919229300282" lon="9.282798990144284"><ele>613.0</ele><time>2026-04-05T14:47:11.999Z</time></trkpt><trkpt lat="44.55921430029082" lon="9.283030683823565"><ele>613.0</ele><time>2026-04-05T14:47:12.999Z</time></trkpt><trkpt lat="44.55921205746481" lon="9.283240373456772"><ele>610.0</ele><time>2026-04-05T14:47:13.999Z</time></trkpt><trkpt lat="44.559237564326025" lon="9.283398529356292"><ele>607.0</ele><time>2026-04-05T14:47:14.999Z</time></trkpt><trkpt lat="44.55929659571528" lon="9.28355936530442"><ele>604.0</ele><time>2026-04-05T14:47:15.999Z</time></trkpt><trkpt lat="44.559396218189455" lon="9.28369137236453"><ele>601.0</ele><time>2026-04-05T14:47:16.999Z</time></trkpt><trkpt lat="44.55952040650074" lon="9.283790127710182"><ele>610.0</ele><time>2026-04-05T14:47:17.999Z</time></trkpt><trkpt lat="44.559663996990444" lon="9.283836271561682"><ele>619.0</ele><time>2026-04-05T14:47:18.999Z</time></trkpt><trkpt lat="44.55986307304128" lon="9.283860133641994"><ele>628.0</ele><time>2026-04-05T14:47:19.999Z</time></trkpt><trkpt lat="44.56011136771276" lon="9.283873769625625"><ele>628.0</ele><time>2026-04-05T14:47:20.999Z</time></trkpt><trkpt lat="44.56036348976854" lon="9.283898953164604"><ele>628.0</ele><time>2026-04-05T14:47:21.999Z</time></trkpt><trkpt lat="44.560584837519585" lon="9.283896967329511"><ele>628.0</ele><time>2026-04-05T14:47:22.999Z</time></trkpt><trkpt lat="44.560802857616096" lon="9.283860474480475"><ele>628.0</ele><time>2026-04-05T14:47:23.999Z</time></trkpt><trkpt lat="44.561019364540854" lon="9.283820885504056"><ele>628.0</ele><time>2026-04-05T14:47:24.999Z</time></trkpt><trkpt lat="44.56123549161606" lon="9.283788513212397"><ele>623.6666666666667</ele><time>2026-04-05T14:47:25.999Z</time></trkpt><trkpt lat="44.56143307161891" lon="9.283747386059996"><ele>619.3333333333334</ele><time>2026-04-05T14:47:26.999Z</time></trkpt><trkpt lat="44.56162489487949" lon="9.283675645369664"><ele>615.0</ele><time>2026-04-05T14:47:27.999Z</time></trkpt><trkpt lat="44.56181338285631" lon="9.283629097943681"><ele>615.0</ele><time>2026-04-05T14:47:28.999Z</time></trkpt><trkpt lat="44.561996942252684" lon="9.28353854236259"><ele>615.0</ele><time>2026-04-05T14:47:29.999Z</time></trkpt><trkpt lat="44.562197918773784" lon="9.283414875482695"><ele>615.0</ele><time>2026-04-05T14:47:30.999Z</time></trkpt><trkpt lat="44.562427921286144" lon="9.283245554521612"><ele>609.5</ele><time>2026-04-05T14:47:31.999Z</time></trkpt><trkpt lat="44.56268012237486" lon="9.283042308992092"><ele>604.0</ele><time>2026-04-05T14:47:32.999Z</time></trkpt><trkpt lat="44.562958150930676" lon="9.282792565533356"><ele>596.5</ele><time>2026-04-05T14:47:33.999Z</time></trkpt><trkpt lat="44.563244299312224" lon="9.282523099176384"><ele>589.0</ele><time>2026-04-05T14:47:34.999Z</time></trkpt><trkpt lat="44.56348976982489" lon="9.28228680662417"><ele>589.5</ele><time>2026-04-05T14:47:35.999Z</time></trkpt><trkpt lat="44.56371721835393" lon="9.28208780866066"><ele>590.0</ele><time>2026-04-05T14:47:36.999Z</time></trkpt><trkpt lat="44.563917226057896" lon="9.281906527068662"><ele>590.0</ele><time>2026-04-05T14:47:37.999Z</time></trkpt><trkpt lat="44.564088978511926" lon="9.28177186751783"><ele>590.0</ele><time>2026-04-05T14:47:38.999Z</time></trkpt><trkpt lat="44.5642005993254" lon="9.281655989429641"><ele>590.0</ele><time>2026-04-05T14:47:39.999Z</time></trkpt><trkpt lat="44.56436240197279" lon="9.281480752326772"><ele>590.3333333333333</ele><time>2026-04-05T14:47:40.999Z</time></trkpt><trkpt lat="44.5644993073845" lon="9.28130454331262"><ele>590.6666666666666</ele><time>2026-04-05T14:47:41.999Z</time></trkpt><trkpt lat="44.564603729747105" lon="9.281128243757326"><ele>591.0</ele><time>2026-04-05T14:47:42.999Z</time></trkpt><trkpt lat="44.56469267081471" lon="9.280984732601471"><ele>591.0</ele><time>2026-04-05T14:47:43.999Z</time></trkpt><trkpt lat="44.56477715630394" lon="9.280869963110481"><ele>591.0</ele><time>2026-04-05T14:47:44.999Z</time></trkpt><trkpt lat="44.56484951738195" lon="9.280777309452903"><ele>591.0</ele><time>2026-04-05T14:47:46Z</time></trkpt><trkpt lat="44.56493326713675" lon="9.280762451361936"><ele>591.0</ele><time>2026-04-05T14:47:47Z</time></trkpt><trkpt lat="44.565022131691386" lon="9.28077628163794"><ele>591.0</ele><time>2026-04-05T14:47:48Z</time></trkpt><trkpt lat="44.56509636543116" lon="9.280865404063672"><ele>591.0</ele><time>2026-04-05T14:47:49Z</time></trkpt><trkpt lat="44.56522830857634" lon="9.280979652193547"><ele>591.0</ele><time>2026-04-05T14:47:50Z</time></trkpt><trkpt lat="44.56533301972807" lon="9.281065041041947"><ele>591.0</ele><time>2026-04-05T14:47:51Z</time></trkpt><trkpt lat="44.565415832229675" lon="9.281131673312984"><ele>591.0</ele><time>2026-04-05T14:47:52Z</time></trkpt><trkpt lat="44.56549463538491" lon="9.281188046207212"><ele>591.75</ele><time>2026-04-05T14:47:53Z</time></trkpt><trkpt lat="44.56560264675322" lon="9.281184996276176"><ele>592.5</ele><time>2026-04-05T14:47:54Z</time></trkpt><trkpt lat="44.56572019909254" lon="9.281089378439367"><ele>593.25</ele><time>2026-04-05T14:47:55Z</time></trkpt><trkpt lat="44.56580442509904" lon="9.280928826564736"><ele>594.0</ele><time>2026-04-05T14:47:56Z</time></trkpt><trkpt lat="44.56590671433491" lon="9.280750948620696"><ele>592.3333333333334</ele><time>2026-04-05T14:47:57Z</time></trkpt><trkpt lat="44.566009643824884" lon="9.280505597493677"><ele>590.6666666666667</ele><time>2026-04-05T14:47:58Z</time></trkpt><trkpt lat="44.566098744509546" lon="9.28025860695796"><ele>589.0</ele><time>2026-04-05T14:47:59Z</time></trkpt><trkpt lat="44.56621167664488" lon="9.280072913467484"><ele>588.6666666666667</ele><time>2026-04-05T14:48:00Z</time></trkpt><trkpt lat="44.56629191262958" lon="9.279889688147538"><ele>588.3333333333334</ele><time>2026-04-05T14:48:01Z</time></trkpt><trkpt lat="44.566382165219586" lon="9.279722132629745"><ele>588.0</ele><time>2026-04-05T14:48:02Z</time></trkpt><trkpt lat="44.566513567078914" lon="9.279591300727628"><ele>588.0</ele><time>2026-04-05T14:48:03Z</time></trkpt><trkpt lat="44.56670251252992" lon="9.279440820139623"><ele>588.0</ele><time>2026-04-05T14:48:04Z</time></trkpt><trkpt lat="44.56692507060322" lon="9.279271612470856"><ele>587.0</ele><time>2026-04-05T14:48:05Z</time></trkpt><trkpt lat="44.5671696570342" lon="9.279082473414421"><ele>586.0</ele><time>2026-04-05T14:48:06Z</time></trkpt><trkpt lat="44.56740609110744" lon="9.278899637895565"><ele>586.0</ele><time>2026-04-05T14:48:07Z</time></trkpt><trkpt lat="44.56764802242233" lon="9.278710674788584"><ele>586.0</ele><time>2026-04-05T14:48:08Z</time></trkpt><trkpt lat="44.56788385562903" lon="9.278439925196855"><ele>584.0</ele><time>2026-04-05T14:48:09Z</time></trkpt><trkpt lat="44.568115185354294" lon="9.278202007468675"><ele>582.0</ele><time>2026-04-05T14:48:10Z</time></trkpt><trkpt lat="44.56832585383709" lon="9.27796469030663"><ele>582.0</ele><time>2026-04-05T14:48:11Z</time></trkpt><trkpt lat="44.56853307285168" lon="9.277756455013995"><ele>582.0</ele><time>2026-04-05T14:48:12Z</time></trkpt><trkpt lat="44.56868930671106" lon="9.27753334888676"><ele>582.0</ele><time>2026-04-05T14:48:13Z</time></trkpt><trkpt lat="44.56881700001766" lon="9.277367074019947"><ele>582.0</ele><time>2026-04-05T14:48:14Z</time></trkpt><trkpt lat="44.568940368961265" lon="9.277240759174926"><ele>582.0</ele><time>2026-04-05T14:48:15Z</time></trkpt><trkpt lat="44.56904432437948" lon="9.277088132229228"><ele>582.0</ele><time>2026-04-05T14:48:16Z</time></trkpt><trkpt lat="44.56910839145547" lon="9.276900701169202"><ele>582.0</ele><time>2026-04-05T14:48:17Z</time></trkpt><trkpt lat="44.56917988220331" lon="9.276700080847998"><ele>582.0</ele><time>2026-04-05T14:48:18Z</time></trkpt><trkpt lat="44.56921607589032" lon="9.276492458104567"><ele>581.75</ele><time>2026-04-05T14:48:19Z</time></trkpt><trkpt lat="44.569275360147955" lon="9.276316167630846"><ele>581.5</ele><time>2026-04-05T14:48:20Z</time></trkpt><trkpt lat="44.56936797223568" lon="9.276174048174637"><ele>581.25</ele><time>2026-04-05T14:48:21Z</time></trkpt><trkpt lat="44.56949320739676" lon="9.276027432114207"><ele>581.0</ele><time>2026-04-05T14:48:22Z</time></trkpt><trkpt lat="44.56961566685239" lon="9.27587838169123"><ele>582.0</ele><time>2026-04-05T14:48:23Z</time></trkpt><trkpt lat="44.569778471783394" lon="9.275831576955353"><ele>583.0</ele><time>2026-04-05T14:48:24Z</time></trkpt><trkpt lat="44.56991796262223" lon="9.275775530372245"><ele>584.0</ele><time>2026-04-05T14:48:25Z</time></trkpt><trkpt lat="44.570080306105275" lon="9.275751043998154"><ele>584.0</ele><time>2026-04-05T14:48:26Z</time></trkpt><trkpt lat="44.5702279599183" lon="9.275765284261798"><ele>584.0</ele><time>2026-04-05T14:48:27Z</time></trkpt><trkpt lat="44.5703578844727" lon="9.275782750652045"><ele>584.0</ele><time>2026-04-05T14:48:28Z</time></trkpt><trkpt lat="44.57050884889778" lon="9.275819921495232"><ele>584.0</ele><time>2026-04-05T14:48:29Z</time></trkpt><trkpt lat="44.57060921438182" lon="9.275834187704238"><ele>585.0</ele><time>2026-04-05T14:48:30Z</time></trkpt><trkpt lat="44.57072294063041" lon="9.275885981646875"><ele>586.0</ele><time>2026-04-05T14:48:31Z</time></trkpt><trkpt lat="44.57078521574623" lon="9.275980582372556"><ele>587.0</ele><time>2026-04-05T14:48:32Z</time></trkpt><trkpt lat="44.57089071890818" lon="9.276046819958749"><ele>588.0</ele><time>2026-04-05T14:48:33Z</time></trkpt><trkpt lat="44.57096221128104" lon="9.276104775285594"><ele>589.0</ele><time>2026-04-05T14:48:34Z</time></trkpt><trkpt lat="44.571038311781074" lon="9.276156846062927"><ele>589.0</ele><time>2026-04-05T14:48:35Z</time></trkpt><trkpt lat="44.57110045820773" lon="9.276184866389857"><ele>589.0</ele><time>2026-04-05T14:48:36Z</time></trkpt><trkpt lat="44.57117783567469" lon="9.276196055997168"><ele>589.0</ele><time>2026-04-05T14:48:37Z</time></trkpt><trkpt lat="44.57125490324865" lon="9.276160266961925"><ele>589.0</ele><time>2026-04-05T14:48:38Z</time></trkpt><trkpt lat="44.57135057555906" lon="9.276066188434692"><ele>589.0</ele><time>2026-04-05T14:48:39Z</time></trkpt><trkpt lat="44.57143907735031" lon="9.275927448537308"><ele>589.0</ele><time>2026-04-05T14:48:40Z</time></trkpt><trkpt lat="44.571561847760904" lon="9.275825653889433"><ele>589.0</ele><time>2026-04-05T14:48:41Z</time></trkpt><trkpt lat="44.57165777580809" lon="9.27570435221755"><ele>589.0</ele><time>2026-04-05T14:48:42Z</time></trkpt><trkpt lat="44.571787154946115" lon="9.275575883548417"><ele>589.0</ele><time>2026-04-05T14:48:43Z</time></trkpt><trkpt lat="44.571930834410374" lon="9.27548083339628"><ele>588.3333333333334</ele><time>2026-04-05T14:48:44Z</time></trkpt><trkpt lat="44.57208497466947" lon="9.275397729185203"><ele>587.6666666666666</ele><time>2026-04-05T14:48:45Z</time></trkpt><trkpt lat="44.57226264576822" lon="9.275304358440344"><ele>587.0</ele><time>2026-04-05T14:48:46Z</time></trkpt><trkpt lat="44.572425864223106" lon="9.27520812324508"><ele>587.0</ele><time>2026-04-05T14:48:47Z</time></trkpt><trkpt lat="44.57260199079136" lon="9.275083792299318"><ele>587.0</ele><time>2026-04-05T14:48:48Z</time></trkpt><trkpt lat="44.572787138329645" lon="9.274916394907656"><ele>587.0</ele><time>2026-04-05T14:48:49Z</time></trkpt><trkpt lat="44.57296452773148" lon="9.274769979970317"><ele>586.0</ele><time>2026-04-05T14:48:49.999Z</time></trkpt><trkpt lat="44.57315377996128" lon="9.274582414278932"><ele>585.0</ele><time>2026-04-05T14:48:50.999Z</time></trkpt><trkpt lat="44.57335353287658" lon="9.27435563656625"><ele>585.0</ele><time>2026-04-05T14:48:51.999Z</time></trkpt><trkpt lat="44.57355973784599" lon="9.274112720811976"><ele>585.0</ele><time>2026-04-05T14:48:52.999Z</time></trkpt><trkpt lat="44.57373994671052" lon="9.273880550903055"><ele>585.6666666666666</ele><time>2026-04-05T14:48:53.999Z</time></trkpt><trkpt lat="44.57389810918364" lon="9.273695384668628"><ele>586.3333333333333</ele><time>2026-04-05T14:48:54.999Z</time></trkpt><trkpt lat="44.57404393105034" lon="9.273519144649969"><ele>587.0</ele><time>2026-04-05T14:48:55.999Z</time></trkpt><trkpt lat="44.574173356343515" lon="9.273345374381776"><ele>587.0</ele><time>2026-04-05T14:48:56.999Z</time></trkpt><trkpt lat="44.57429961491783" lon="9.273195843785054"><ele>587.0</ele><time>2026-04-05T14:48:57.999Z</time></trkpt><trkpt lat="44.574414276891815" lon="9.273052023159845"><ele>587.0</ele><time>2026-04-05T14:48:58.999Z</time></trkpt><trkpt lat="44.574493243981834" lon="9.272873249145158"><ele>587.0</ele><time>2026-04-05T14:48:59.999Z</time></trkpt><trkpt lat="44.57456805412765" lon="9.272673342233928"><ele>587.0</ele><time>2026-04-05T14:49:00.999Z</time></trkpt><trkpt lat="44.57463526122325" lon="9.272439496117041"><ele>587.0</ele><time>2026-04-05T14:49:01.999Z</time></trkpt><trkpt lat="44.574697546698346" lon="9.27222977743499"><ele>587.0</ele><time>2026-04-05T14:49:02.999Z</time></trkpt><trkpt lat="44.57476501484492" lon="9.272019877506256"><ele>587.0</ele><time>2026-04-05T14:49:03.999Z</time></trkpt><trkpt lat="44.57484194836423" lon="9.271825185844337"><ele>587.0</ele><time>2026-04-05T14:49:04.999Z</time></trkpt><trkpt lat="44.57492665429797" lon="9.271647821939702"><ele>587.0</ele><time>2026-04-05T14:49:05.999Z</time></trkpt><trkpt lat="44.574994977114876" lon="9.271479212526401"><ele>587.0</ele><time>2026-04-05T14:49:06.999Z</time></trkpt><trkpt lat="44.57507564998164" lon="9.271328167645438"><ele>587.0</ele><time>2026-04-05T14:49:07.999Z</time></trkpt><trkpt lat="44.57517850425967" lon="9.271181132527362"><ele>587.0</ele><time>2026-04-05T14:49:08.999Z</time></trkpt><trkpt lat="44.57524624008351" lon="9.271029085877647"><ele>586.8000000000001</ele><time>2026-04-05T14:49:09.999Z</time></trkpt><trkpt lat="44.57532738494734" lon="9.270905865989343"><ele>586.6</ele><time>2026-04-05T14:49:10.999Z</time></trkpt><trkpt lat="44.575410166131206" lon="9.270796149441207"><ele>586.4000000000001</ele><time>2026-04-05T14:49:11.999Z</time></trkpt><trkpt lat="44.57549531410203" lon="9.27071807441678"><ele>586.2</ele><time>2026-04-05T14:49:12.999Z</time></trkpt><trkpt lat="44.57557070673852" lon="9.270647495681077"><ele>586.0</ele><time>2026-04-05T14:49:13.999Z</time></trkpt><trkpt lat="44.575641331760096" lon="9.270594226919151"><ele>584.25</ele><time>2026-04-05T14:49:14.999Z</time></trkpt><trkpt lat="44.575729551576146" lon="9.270533799104872"><ele>582.5</ele><time>2026-04-05T14:49:15.999Z</time></trkpt><trkpt lat="44.5758505220317" lon="9.270514366634092"><ele>580.75</ele><time>2026-04-05T14:49:16.999Z</time></trkpt><trkpt lat="44.57601063318238" lon="9.270479057280289"><ele>579.0</ele><time>2026-04-05T14:49:17.999Z</time></trkpt><trkpt lat="44.57618176201687" lon="9.270440443552893"><ele>578.5</ele><time>2026-04-05T14:49:18.999Z</time></trkpt><trkpt lat="44.576340452115396" lon="9.270405654162682"><ele>578.0</ele><time>2026-04-05T14:49:19.999Z</time></trkpt><trkpt lat="44.57648451482793" lon="9.270370446900017"><ele>577.5</ele><time>2026-04-05T14:49:20.999Z</time></trkpt><trkpt lat="44.57660610068071" lon="9.2703275341858"><ele>577.0</ele><time>2026-04-05T14:49:21.999Z</time></trkpt><trkpt lat="44.57672375797534" lon="9.270295703950133"><ele>577.0</ele><time>2026-04-05T14:49:22.999Z</time></trkpt><trkpt lat="44.576839142666635" lon="9.270290141642908"><ele>577.0</ele><time>2026-04-05T14:49:23.999Z</time></trkpt><trkpt lat="44.57701304052703" lon="9.27024994689438"><ele>577.0</ele><time>2026-04-05T14:49:24.999Z</time></trkpt><trkpt lat="44.577208857383" lon="9.270258259440086"><ele>576.3333333333334</ele><time>2026-04-05T14:49:25.999Z</time></trkpt><trkpt lat="44.57741216060531" lon="9.270294707510171"><ele>575.6666666666666</ele><time>2026-04-05T14:49:26.999Z</time></trkpt><trkpt lat="44.57761256047251" lon="9.270308685479069"><ele>575.0</ele><time>2026-04-05T14:49:27.999Z</time></trkpt><trkpt lat="44.5778047943732" lon="9.270304331411388"><ele>575.0</ele><time>2026-04-05T14:49:28.999Z</time></trkpt><trkpt lat="44.577991861761426" lon="9.27026813481196"><ele>575.0</ele><time>2026-04-05T14:49:29.999Z</time></trkpt><trkpt lat="44.578168650862075" lon="9.270217764795008"><ele>575.0</ele><time>2026-04-05T14:49:30.999Z</time></trkpt><trkpt lat="44.57835423271523" lon="9.270162131829043"><ele>575.0</ele><time>2026-04-05T14:49:31.999Z</time></trkpt><trkpt lat="44.57851970964179" lon="9.270110396690606"><ele>575.0</ele><time>2026-04-05T14:49:32.999Z</time></trkpt><trkpt lat="44.578684594700334" lon="9.270064516870118"><ele>575.0</ele><time>2026-04-05T14:49:33.999Z</time></trkpt><trkpt lat="44.57884611923908" lon="9.270045299650954"><ele>575.3333333333333</ele><time>2026-04-05T14:49:34.999Z</time></trkpt><trkpt lat="44.57903017287544" lon="9.270035595147634"><ele>575.6666666666666</ele><time>2026-04-05T14:49:35.999Z</time></trkpt><trkpt lat="44.57925170745398" lon="9.270041474851993"><ele>576.0</ele><time>2026-04-05T14:49:36.999Z</time></trkpt><trkpt lat="44.57950597182624" lon="9.270055847327146"><ele>576.0</ele><time>2026-04-05T14:49:37.999Z</time></trkpt><trkpt lat="44.57977608743233" lon="9.270082589832755"><ele>576.0</ele><time>2026-04-05T14:49:38.999Z</time></trkpt><trkpt lat="44.5800322910782" lon="9.270112771855636"><ele>576.0</ele><time>2026-04-05T14:49:39.999Z</time></trkpt><trkpt lat="44.580260482862776" lon="9.270134593566514"><ele>576.0</ele><time>2026-04-05T14:49:40.999Z</time></trkpt><trkpt lat="44.58046970672282" lon="9.270157077883736"><ele>576.0</ele><time>2026-04-05T14:49:41.999Z</time></trkpt><trkpt lat="44.58065899080751" lon="9.270176217219252"><ele>575.0</ele><time>2026-04-05T14:49:42.999Z</time></trkpt><trkpt lat="44.580838409789514" lon="9.270209448762154"><ele>574.0</ele><time>2026-04-05T14:49:43.999Z</time></trkpt><trkpt lat="44.58101521802856" lon="9.270249366020122"><ele>573.0</ele><time>2026-04-05T14:49:44.999Z</time></trkpt><trkpt lat="44.5812088580265" lon="9.270321662280875"><ele>570.0</ele><time>2026-04-05T14:49:45.999Z</time></trkpt><trkpt lat="44.58142639455525" lon="9.270438580534057"><ele>567.0</ele><time>2026-04-05T14:49:46.999Z</time></trkpt><trkpt lat="44.581666320370346" lon="9.270594065468066"><ele>567.5</ele><time>2026-04-05T14:49:47.999Z</time></trkpt><trkpt lat="44.58192509835931" lon="9.270802448779142"><ele>568.0</ele><time>2026-04-05T14:49:48.999Z</time></trkpt><trkpt lat="44.58220541853604" lon="9.270975175629903"><ele>568.0</ele><time>2026-04-05T14:49:49.999Z</time></trkpt><trkpt lat="44.58243774570023" lon="9.271145315033205"><ele>568.0</ele><time>2026-04-05T14:49:50.999Z</time></trkpt><trkpt lat="44.58265681322586" lon="9.271301346698777"><ele>568.0</ele><time>2026-04-05T14:49:52Z</time></trkpt><trkpt lat="44.582839535405085" lon="9.271435475308666"><ele>568.0</ele><time>2026-04-05T14:49:53Z</time></trkpt><trkpt lat="44.583011693700534" lon="9.271564387972878"><ele>568.0</ele><time>2026-04-05T14:49:54Z</time></trkpt><trkpt lat="44.583192931016775" lon="9.271690498081849"><ele>569.3333333333334</ele><time>2026-04-05T14:49:55Z</time></trkpt><trkpt lat="44.58335666983256" lon="9.27184688655025"><ele>570.6666666666666</ele><time>2026-04-05T14:49:56Z</time></trkpt><trkpt lat="44.583485024324126" lon="9.272025384448819"><ele>572.0</ele><time>2026-04-05T14:49:57Z</time></trkpt><trkpt lat="44.583633167728706" lon="9.272237410448794"><ele>570.5</ele><time>2026-04-05T14:49:58Z</time></trkpt><trkpt lat="44.583800180711755" lon="9.27251798740952"><ele>569.0</ele><time>2026-04-05T14:49:59Z</time></trkpt><trkpt lat="44.58394030071024" lon="9.272816091232539"><ele>569.0</ele><time>2026-04-05T14:50:00Z</time></trkpt><trkpt lat="44.58409521393941" lon="9.27309453539946"><ele>569.0</ele><time>2026-04-05T14:50:01Z</time></trkpt><trkpt lat="44.584244884772495" lon="9.273326495177576"><ele>567.3333333333333</ele><time>2026-04-05T14:50:02Z</time></trkpt><trkpt lat="44.58437717895847" lon="9.273571407633325"><ele>565.6666666666666</ele><time>2026-04-05T14:50:03Z</time></trkpt><trkpt lat="44.584509217773515" lon="9.273779614441386"><ele>564.0</ele><time>2026-04-05T14:50:04Z</time></trkpt><trkpt lat="44.584604161823016" lon="9.274064388149792"><ele>564.0</ele><time>2026-04-05T14:50:05Z</time></trkpt><trkpt lat="44.58470929102919" lon="9.274367778128623"><ele>564.0</ele><time>2026-04-05T14:50:06Z</time></trkpt><trkpt lat="44.58481824385878" lon="9.27463896078184"><ele>565.3333333333334</ele><time>2026-04-05T14:50:07Z</time></trkpt><trkpt lat="44.584911135781745" lon="9.274873261352365"><ele>566.6666666666667</ele><time>2026-04-05T14:50:08Z</time></trkpt><trkpt lat="44.5849864712271" lon="9.275091889308763"><ele>568.0</ele><time>2026-04-05T14:50:09Z</time></trkpt><trkpt lat="44.58505080504137" lon="9.275282788019027"><ele>568.0</ele><time>2026-04-05T14:50:10Z</time></trkpt><trkpt lat="44.58510823599421" lon="9.275455968692084"><ele>568.0</ele><time>2026-04-05T14:50:11Z</time></trkpt><trkpt lat="44.58517014578115" lon="9.275638215580036"><ele>568.0</ele><time>2026-04-05T14:50:12Z</time></trkpt><trkpt lat="44.58520394767792" lon="9.275833402502947"><ele>568.0</ele><time>2026-04-05T14:50:13Z</time></trkpt><trkpt lat="44.58522669312356" lon="9.276058883843351"><ele>569.6666666666667</ele><time>2026-04-05T14:50:14Z</time></trkpt><trkpt lat="44.5852350438723" lon="9.276335081616295"><ele>571.3333333333334</ele><time>2026-04-05T14:50:15Z</time></trkpt><trkpt lat="44.58524130267007" lon="9.276615749733699"><ele>573.0</ele><time>2026-04-05T14:50:16Z</time></trkpt><trkpt lat="44.58524917779718" lon="9.276862818435767"><ele>573.0</ele><time>2026-04-05T14:50:17Z</time></trkpt><trkpt lat="44.58526292745301" lon="9.277077323514927"><ele>573.0</ele><time>2026-04-05T14:50:18Z</time></trkpt><trkpt lat="44.585318786467084" lon="9.277281660660986"><ele>573.0</ele><time>2026-04-05T14:50:19Z</time></trkpt><trkpt lat="44.58538132060296" lon="9.277480746065926"><ele>570.0</ele><time>2026-04-05T14:50:20Z</time></trkpt><trkpt lat="44.58548334422241" lon="9.277713255991271"><ele>567.0</ele><time>2026-04-05T14:50:21Z</time></trkpt><trkpt lat="44.58561068897524" lon="9.27796082537184"><ele>564.0</ele><time>2026-04-05T14:50:22Z</time></trkpt><trkpt lat="44.58573881690883" lon="9.278199060004868"><ele>564.0</ele><time>2026-04-05T14:50:23Z</time></trkpt><trkpt lat="44.5858461489978" lon="9.27842478796553"><ele>564.0</ele><time>2026-04-05T14:50:24Z</time></trkpt><trkpt lat="44.585929661792484" lon="9.278622675722957"><ele>564.0</ele><time>2026-04-05T14:50:25Z</time></trkpt><trkpt lat="44.585998027941336" lon="9.27883463217171"><ele>566.75</ele><time>2026-04-05T14:50:26Z</time></trkpt><trkpt lat="44.58606320229784" lon="9.2790382093536"><ele>569.5</ele><time>2026-04-05T14:50:27Z</time></trkpt><trkpt lat="44.586112929629536" lon="9.279232729224347"><ele>572.25</ele><time>2026-04-05T14:50:28Z</time></trkpt><trkpt lat="44.586156210048685" lon="9.279402445437162"><ele>575.0</ele><time>2026-04-05T14:50:29Z</time></trkpt><trkpt lat="44.586206640633954" lon="9.279545680930081"><ele>571.0</ele><time>2026-04-05T14:50:30Z</time></trkpt><trkpt lat="44.58622834614064" lon="9.279661442529655"><ele>567.0</ele><time>2026-04-05T14:50:31Z</time></trkpt><trkpt lat="44.58626232822204" lon="9.279758082068684"><ele>563.0</ele><time>2026-04-05T14:51:07.999Z</time></trkpt><trkpt lat="44.586291407759084" lon="9.279837965948497"><ele>559.0</ele><time>2026-04-05T14:51:08.999Z</time></trkpt><trkpt lat="44.586294402698144" lon="9.279948175806213"><ele>555.0</ele><time>2026-04-05T14:51:09.999Z</time></trkpt><trkpt lat="44.58634476639216" lon="9.280108103440346"><ele>551.0</ele><time>2026-04-05T14:51:10.999Z</time></trkpt><trkpt lat="44.586417267335186" lon="9.280291980262826"><ele>551.0</ele><time>2026-04-05T14:51:11.999Z</time></trkpt><trkpt lat="44.58649438514356" lon="9.280493706921947"><ele>551.0</ele><time>2026-04-05T14:51:12.999Z</time></trkpt><trkpt lat="44.58658558289987" lon="9.280720016793614"><ele>551.0</ele><time>2026-04-05T14:51:13.999Z</time></trkpt><trkpt lat="44.58668212159554" lon="9.28095604221725"><ele>554.6666666666666</ele><time>2026-04-05T14:51:14.999Z</time></trkpt><trkpt lat="44.5867714165407" lon="9.281159904944198"><ele>558.3333333333334</ele><time>2026-04-05T14:51:15.999Z</time></trkpt><trkpt lat="44.586865711052646" lon="9.281329990898719"><ele>562.0</ele><time>2026-04-05T14:51:16.999Z</time></trkpt><trkpt lat="44.586993526101" lon="9.281503230949562"><ele>561.3333333333334</ele><time>2026-04-05T14:51:17.999Z</time></trkpt><trkpt lat="44.58713934440629" lon="9.281656531987823"><ele>560.6666666666666</ele><time>2026-04-05T14:51:18.999Z</time></trkpt><trkpt lat="44.58727160230128" lon="9.281802930997511"><ele>560.0</ele><time>2026-04-05T14:51:19.999Z</time></trkpt><trkpt lat="44.58740311953743" lon="9.281926491831369"><ele>560.0</ele><time>2026-04-05T14:51:20.999Z</time></trkpt><trkpt lat="44.58753373444527" lon="9.282015610828177"><ele>560.0</ele><time>2026-04-05T14:51:21.999Z</time></trkpt><trkpt lat="44.58765231543941" lon="9.28208565805145"><ele>560.0</ele><time>2026-04-05T14:51:22.999Z</time></trkpt><trkpt lat="44.58776802628622" lon="9.282116458596557"><ele>560.0</ele><time>2026-04-05T14:51:23.999Z</time></trkpt><trkpt lat="44.5878771639897" lon="9.28212085318808"><ele>560.0</ele><time>2026-04-05T14:51:24.999Z</time></trkpt><trkpt lat="44.587994681177925" lon="9.282078156670472"><ele>560.0</ele><time>2026-04-05T14:51:25.999Z</time></trkpt><trkpt lat="44.58811252310582" lon="9.282000888855487"><ele>560.0</ele><time>2026-04-05T14:51:26.999Z</time></trkpt><trkpt lat="44.588235242193356" lon="9.28190533474606"><ele>560.0</ele><time>2026-04-05T14:51:27.999Z</time></trkpt><trkpt lat="44.58834115760735" lon="9.281831857736313"><ele>560.0</ele><time>2026-04-05T14:51:28.999Z</time></trkpt><trkpt lat="44.588438185309904" lon="9.281783884267991"><ele>560.0</ele><time>2026-04-05T14:51:29.999Z</time></trkpt><trkpt lat="44.58853178375307" lon="9.281771060302816"><ele>560.0</ele><time>2026-04-05T14:51:30.999Z</time></trkpt><trkpt lat="44.58861575188623" lon="9.28178708323639"><ele>560.0</ele><time>2026-04-05T14:51:31.999Z</time></trkpt><trkpt lat="44.5887088892315" lon="9.28184495578283"><ele>560.0</ele><time>2026-04-05T14:51:32.999Z</time></trkpt><trkpt lat="44.5887975941197" lon="9.281937824981073"><ele>560.0</ele><time>2026-04-05T14:51:33.999Z</time></trkpt><trkpt lat="44.58887701161885" lon="9.282049334452969"><ele>560.0</ele><time>2026-04-05T14:51:34.999Z</time></trkpt><trkpt lat="44.588963937911466" lon="9.282212782286937"><ele>560.0</ele><time>2026-04-05T14:51:35.999Z</time></trkpt><trkpt lat="44.58903909526772" lon="9.282420722748535"><ele>560.0</ele><time>2026-04-05T14:51:36.999Z</time></trkpt><trkpt lat="44.58911264677766" lon="9.282653485232675"><ele>560.0</ele><time>2026-04-05T14:51:37.999Z</time></trkpt><trkpt lat="44.58916704134964" lon="9.282880755512618"><ele>560.0</ele><time>2026-04-05T14:51:38.999Z</time></trkpt><trkpt lat="44.58922680382672" lon="9.283081228709303"><ele>560.0</ele><time>2026-04-05T14:51:39.999Z</time></trkpt><trkpt lat="44.589250200087875" lon="9.283304613142347"><ele>562.6666666666666</ele><time>2026-04-05T14:51:40.999Z</time></trkpt><trkpt lat="44.58925044479488" lon="9.283539694156413"><ele>565.3333333333334</ele><time>2026-04-05T14:51:41.999Z</time></trkpt><trkpt lat="44.589218141375504" lon="9.28375833473921"><ele>568.0</ele><time>2026-04-05T14:51:42.999Z</time></trkpt><trkpt lat="44.5892145162605" lon="9.283951280717718"><ele>568.0</ele><time>2026-04-05T14:51:43.999Z</time></trkpt><trkpt lat="44.58923592069197" lon="9.284128762513706"><ele>568.0</ele><time>2026-04-05T14:51:44.999Z</time></trkpt><trkpt lat="44.589300309644265" lon="9.284351104564761"><ele>568.0</ele><time>2026-04-05T14:51:45.999Z</time></trkpt><trkpt lat="44.58940079000825" lon="9.284608875700851"><ele>561.0</ele><time>2026-04-05T14:51:46.999Z</time></trkpt><trkpt lat="44.589510232170014" lon="9.284897258764385"><ele>554.0</ele><time>2026-04-05T14:51:47.999Z</time></trkpt><trkpt lat="44.589599336529695" lon="9.285144453844719"><ele>547.0</ele><time>2026-04-05T14:51:48.999Z</time></trkpt><trkpt lat="44.58968268961871" lon="9.285348028180506"><ele>547.0</ele><time>2026-04-05T14:51:49.999Z</time></trkpt><trkpt lat="44.589775331752655" lon="9.285526790920763"><ele>547.0</ele><time>2026-04-05T14:51:50.999Z</time></trkpt><trkpt lat="44.589902028798335" lon="9.285685638833431"><ele>547.0</ele><time>2026-04-05T14:51:51.999Z</time></trkpt><trkpt lat="44.59004879682357" lon="9.285823009381316"><ele>545.6666666666667</ele><time>2026-04-05T14:51:52.999Z</time></trkpt><trkpt lat="44.59018421140044" lon="9.285940822209747"><ele>544.3333333333334</ele><time>2026-04-05T14:51:53.999Z</time></trkpt><trkpt lat="44.590263895602604" lon="9.286139871414802"><ele>543.0</ele><time>2026-04-05T14:51:54.999Z</time></trkpt><trkpt lat="44.59035364109997" lon="9.286379071684976"><ele>545.0</ele><time>2026-04-05T14:51:55.999Z</time></trkpt><trkpt lat="44.59045229906605" lon="9.286670996862922"><ele>547.0</ele><time>2026-04-05T14:51:56.999Z</time></trkpt><trkpt lat="44.590551777414575" lon="9.287004760933415"><ele>549.0</ele><time>2026-04-05T14:51:58Z</time></trkpt><trkpt lat="44.5906437203631" lon="9.287311565103307"><ele>551.0</ele><time>2026-04-05T14:51:59Z</time></trkpt><trkpt lat="44.59072389088858" lon="9.287579216013853"><ele>553.0</ele><time>2026-04-05T14:52:00Z</time></trkpt><trkpt lat="44.59083281076409" lon="9.287789596787642"><ele>553.0</ele><time>2026-04-05T14:52:01Z</time></trkpt><trkpt lat="44.59088510565171" lon="9.287991581438767"><ele>553.0</ele><time>2026-04-05T14:52:02Z</time></trkpt><trkpt lat="44.590946843731615" lon="9.288165204872794"><ele>553.0</ele><time>2026-04-05T14:52:03Z</time></trkpt><trkpt lat="44.59101792988057" lon="9.288308469084793"><ele>553.0</ele><time>2026-04-05T14:52:04Z</time></trkpt><trkpt lat="44.59112416015425" lon="9.288446083781029"><ele>552.0</ele><time>2026-04-05T14:52:05Z</time></trkpt><trkpt lat="44.59127360806843" lon="9.28853006557251"><ele>551.0</ele><time>2026-04-05T14:52:06Z</time></trkpt><trkpt lat="44.59145156268726" lon="9.28863509027717"><ele>550.0</ele><time>2026-04-05T14:52:07Z</time></trkpt><trkpt lat="44.591604299826784" lon="9.288728534060262"><ele>550.0</ele><time>2026-04-05T14:52:08Z</time></trkpt><trkpt lat="44.59173206730696" lon="9.288795937061202"><ele>550.0</ele><time>2026-04-05T14:52:09Z</time></trkpt><trkpt lat="44.59187688364202" lon="9.288824590347703"><ele>550.0</ele><time>2026-04-05T14:52:10Z</time></trkpt><trkpt lat="44.59205499331863" lon="9.28879805488124"><ele>547.6666666666667</ele><time>2026-04-05T14:52:11Z</time></trkpt><trkpt lat="44.59222451072258" lon="9.288738236804555"><ele>545.3333333333334</ele><time>2026-04-05T14:52:12Z</time></trkpt><trkpt lat="44.592360749939836" lon="9.288693050913794"><ele>543.0</ele><time>2026-04-05T14:52:13Z</time></trkpt><trkpt lat="44.59252156191504" lon="9.288673341339148"><ele>543.0</ele><time>2026-04-05T14:52:14Z</time></trkpt><trkpt lat="44.592638113950485" lon="9.288701757722073"><ele>543.0</ele><time>2026-04-05T14:52:15Z</time></trkpt><trkpt lat="44.592757165790694" lon="9.288781268562664"><ele>543.0</ele><time>2026-04-05T14:52:16Z</time></trkpt><trkpt lat="44.592870892734524" lon="9.288923814236625"><ele>543.0</ele><time>2026-04-05T14:52:17Z</time></trkpt><trkpt lat="44.59295930728575" lon="9.289140542032516"><ele>545.0</ele><time>2026-04-05T14:52:18Z</time></trkpt><trkpt lat="44.59309520227515" lon="9.289409346941126"><ele>547.0</ele><time>2026-04-05T14:52:19Z</time></trkpt><trkpt lat="44.5932280827467" lon="9.289695914274683"><ele>555.0</ele><time>2026-04-05T14:52:20Z</time></trkpt><trkpt lat="44.59339067634062" lon="9.29001451163112"><ele>563.0</ele><time>2026-04-05T14:52:21Z</time></trkpt><trkpt lat="44.59353725724675" lon="9.29025770342286"><ele>555.0</ele><time>2026-04-05T14:52:22Z</time></trkpt><trkpt lat="44.59367440994172" lon="9.290460498217492"><ele>547.0</ele><time>2026-04-05T14:52:23Z</time></trkpt><trkpt lat="44.59378181057559" lon="9.29068485689233"><ele>539.0</ele><time>2026-04-05T14:52:24Z</time></trkpt><trkpt lat="44.5938684486719" lon="9.290945398915252"><ele>539.0</ele><time>2026-04-05T14:52:25Z</time></trkpt><trkpt lat="44.59396108852634" lon="9.291245646361965"><ele>539.0</ele><time>2026-04-05T14:52:26Z</time></trkpt><trkpt lat="44.594024631879755" lon="9.29149394521899"><ele>539.0</ele><time>2026-04-05T14:52:27Z</time></trkpt><trkpt lat="44.59407286272548" lon="9.291729473671456"><ele>544.0</ele><time>2026-04-05T14:52:28Z</time></trkpt><trkpt lat="44.5941528361612" lon="9.291916496918416"><ele>549.0</ele><time>2026-04-05T14:52:29Z</time></trkpt><trkpt lat="44.59425182890109" lon="9.29207302573982"><ele>554.0</ele><time>2026-04-05T14:52:30Z</time></trkpt><trkpt lat="44.59438094841932" lon="9.292184353113951"><ele>554.25</ele><time>2026-04-05T14:52:31Z</time></trkpt><trkpt lat="44.59450293315339" lon="9.292282455301256"><ele>554.5</ele><time>2026-04-05T14:52:32Z</time></trkpt><trkpt lat="44.594645994446786" lon="9.292324420295438"><ele>554.75</ele><time>2026-04-05T14:52:33Z</time></trkpt><trkpt lat="44.594795920059056" lon="9.292344971965539"><ele>555.0</ele><time>2026-04-05T14:52:34Z</time></trkpt><trkpt lat="44.594921663561266" lon="9.292403429478568"><ele>555.0</ele><time>2026-04-05T14:52:35Z</time></trkpt><trkpt lat="44.59502268810048" lon="9.292520343285371"><ele>555.0</ele><time>2026-04-05T14:52:36Z</time></trkpt><trkpt lat="44.5951384010641" lon="9.292663042466353"><ele>555.0</ele><time>2026-04-05T14:52:37Z</time></trkpt><trkpt lat="44.59528531911634" lon="9.29274117422943"><ele>555.0</ele><time>2026-04-05T14:52:38Z</time></trkpt><trkpt lat="44.59547719510483" lon="9.292793357135542"><ele>545.5</ele><time>2026-04-05T14:52:39Z</time></trkpt><trkpt lat="44.59571576850248" lon="9.292840445377621"><ele>536.0</ele><time>2026-04-05T14:52:40Z</time></trkpt><trkpt lat="44.595964879185324" lon="9.29293260415576"><ele>535.0</ele><time>2026-04-05T14:52:41Z</time></trkpt><trkpt lat="44.59623051914574" lon="9.293012011701151"><ele>534.0</ele><time>2026-04-05T14:52:42Z</time></trkpt><trkpt lat="44.596470832559085" lon="9.293062881479745"><ele>542.5</ele><time>2026-04-05T14:52:43Z</time></trkpt><trkpt lat="44.59669795256524" lon="9.29313916065134"><ele>551.0</ele><time>2026-04-05T14:52:44Z</time></trkpt><trkpt lat="44.596911864411375" lon="9.293242114811513"><ele>548.6666666666666</ele><time>2026-04-05T14:52:45Z</time></trkpt><trkpt lat="44.59710724329057" lon="9.293351350855067"><ele>546.3333333333334</ele><time>2026-04-05T14:52:46Z</time></trkpt><trkpt lat="44.597291571722394" lon="9.293467920652388"><ele>544.0</ele><time>2026-04-05T14:52:47Z</time></trkpt><trkpt lat="44.59746611792047" lon="9.293568142865833"><ele>544.0</ele><time>2026-04-05T14:52:48Z</time></trkpt><trkpt lat="44.59761360417926" lon="9.293653010012761"><ele>544.0</ele><time>2026-04-05T14:52:49Z</time></trkpt><trkpt lat="44.59777388168745" lon="9.293675086081064"><ele>544.0</ele><time>2026-04-05T14:52:50Z</time></trkpt><trkpt lat="44.5979438712179" lon="9.293643972924693"><ele>544.6666666666667</ele><time>2026-04-05T14:52:51Z</time></trkpt><trkpt lat="44.598121509027656" lon="9.293604206375415"><ele>545.3333333333334</ele><time>2026-04-05T14:52:52Z</time></trkpt><trkpt lat="44.59832935425142" lon="9.293468885392024"><ele>546.0</ele><time>2026-04-05T14:52:53Z</time></trkpt><trkpt lat="44.59856993105104" lon="9.293348807544598"><ele>550.0</ele><time>2026-04-05T14:52:54Z</time></trkpt><trkpt lat="44.59880093362059" lon="9.293216228237362"><ele>554.0</ele><time>2026-04-05T14:52:55Z</time></trkpt><trkpt lat="44.59898616536134" lon="9.293090520661492"><ele>547.6666666666666</ele><time>2026-04-05T14:52:56Z</time></trkpt><trkpt lat="44.599167054035675" lon="9.293013384309099"><ele>541.3333333333334</ele><time>2026-04-05T14:52:57Z</time></trkpt><trkpt lat="44.599296074537385" lon="9.292906865904298"><ele>535.0</ele><time>2026-04-05T14:52:58Z</time></trkpt><trkpt lat="44.59942056749649" lon="9.292810606738676"><ele>538.0</ele><time>2026-04-05T14:52:59Z</time></trkpt><trkpt lat="44.599521288355035" lon="9.292680656939906"><ele>541.0</ele><time>2026-04-05T14:53:00Z</time></trkpt><trkpt lat="44.599614208997615" lon="9.29247759768773"><ele>544.0</ele><time>2026-04-05T14:53:00.999Z</time></trkpt><trkpt lat="44.5997132444484" lon="9.292192998896077"><ele>544.0</ele><time>2026-04-05T14:53:01.999Z</time></trkpt><trkpt lat="44.59983702528111" lon="9.291880764564358"><ele>544.0</ele><time>2026-04-05T14:53:02.999Z</time></trkpt><trkpt lat="44.59995881993906" lon="9.291594330435304"><ele>540.0</ele><time>2026-04-05T14:53:03.999Z</time></trkpt><trkpt lat="44.600071789628466" lon="9.29135044094519"><ele>536.0</ele><time>2026-04-05T14:53:04.999Z</time></trkpt><trkpt lat="44.600182359941954" lon="9.291128612028954"><ele>532.0</ele><time>2026-04-05T14:53:05.999Z</time></trkpt><trkpt lat="44.600279333260524" lon="9.290942888861018"><ele>531.75</ele><time>2026-04-05T14:53:06.999Z</time></trkpt><trkpt lat="44.600361980054416" lon="9.290770938821963"><ele>531.5</ele><time>2026-04-05T14:53:07.999Z</time></trkpt><trkpt lat="44.60048276257574" lon="9.290665446311248"><ele>531.25</ele><time>2026-04-05T14:53:08.999Z</time></trkpt><trkpt lat="44.60061156052034" lon="9.290552537607772"><ele>531.0</ele><time>2026-04-05T14:53:09.999Z</time></trkpt><trkpt lat="44.600777755314425" lon="9.290487063134371"><ele>531.0</ele><time>2026-04-05T14:53:10.999Z</time></trkpt><trkpt lat="44.60094444486961" lon="9.290425943446488"><ele>531.0</ele><time>2026-04-05T14:53:11.999Z</time></trkpt><trkpt lat="44.60109974171375" lon="9.290371727200398"><ele>531.0</ele><time>2026-04-05T14:53:12.999Z</time></trkpt><trkpt lat="44.60125576719515" lon="9.290336370725871"><ele>531.0</ele><time>2026-04-05T14:53:13.999Z</time></trkpt><trkpt lat="44.60142990322761" lon="9.290332900094347"><ele>531.0</ele><time>2026-04-05T14:53:14.999Z</time></trkpt><trkpt lat="44.601611155961955" lon="9.290379002969786"><ele>531.0</ele><time>2026-04-05T14:53:15.999Z</time></trkpt><trkpt lat="44.60182359230412" lon="9.290456614146118"><ele>531.0</ele><time>2026-04-05T14:53:16.999Z</time></trkpt><trkpt lat="44.60205581745933" lon="9.290578246575793"><ele>531.0</ele><time>2026-04-05T14:53:17.999Z</time></trkpt><trkpt lat="44.602300628962496" lon="9.290698228769328"><ele>531.0</ele><time>2026-04-05T14:53:18.999Z</time></trkpt><trkpt lat="44.602533280587274" lon="9.290810116621168"><ele>531.0</ele><time>2026-04-05T14:53:19.999Z</time></trkpt><trkpt lat="44.602775740997934" lon="9.290927725250773"><ele>528.0</ele><time>2026-04-05T14:53:20.999Z</time></trkpt><trkpt lat="44.602984254340655" lon="9.29102280118028"><ele>525.0</ele><time>2026-04-05T14:53:21.999Z</time></trkpt><trkpt lat="44.60319086495313" lon="9.291130417547192"><ele>522.0</ele><time>2026-04-05T14:53:22.999Z</time></trkpt><trkpt lat="44.603380288999155" lon="9.2912339631964"><ele>522.0</ele><time>2026-04-05T14:53:23.999Z</time></trkpt><trkpt lat="44.60355895058595" lon="9.291323154713158"><ele>522.0</ele><time>2026-04-05T14:53:24.999Z</time></trkpt><trkpt lat="44.60374430916899" lon="9.291412548433593"><ele>522.0</ele><time>2026-04-05T14:53:25.999Z</time></trkpt><trkpt lat="44.60391978385302" lon="9.29150712053211"><ele>523.0</ele><time>2026-04-05T14:53:26.999Z</time></trkpt><trkpt lat="44.60408193845778" lon="9.291595185378736"><ele>524.0</ele><time>2026-04-05T14:53:27.999Z</time></trkpt><trkpt lat="44.604233599633595" lon="9.291662490654181"><ele>525.0</ele><time>2026-04-05T14:53:28.999Z</time></trkpt><trkpt lat="44.60437180657225" lon="9.29172854733951"><ele>525.75</ele><time>2026-04-05T14:53:29.999Z</time></trkpt><trkpt lat="44.60450392465854" lon="9.291795511873808"><ele>526.5</ele><time>2026-04-05T14:53:30.999Z</time></trkpt><trkpt lat="44.60462389969577" lon="9.291889616181434"><ele>527.25</ele><time>2026-04-05T14:53:31.999Z</time></trkpt><trkpt lat="44.60472693924374" lon="9.292008497340861"><ele>528.0</ele><time>2026-04-05T14:53:32.999Z</time></trkpt><trkpt lat="44.604834200929304" lon="9.292146328099623"><ele>527.25</ele><time>2026-04-05T14:53:33.999Z</time></trkpt><trkpt lat="44.604914652576696" lon="9.292293914090834"><ele>526.5</ele><time>2026-04-05T14:53:34.999Z</time></trkpt><trkpt lat="44.60499043376175" lon="9.292449212680317"><ele>525.75</ele><time>2026-04-05T14:53:35.999Z</time></trkpt><trkpt lat="44.6050702681777" lon="9.292613346786789"><ele>525.0</ele><time>2026-04-05T14:53:36.999Z</time></trkpt><trkpt lat="44.60515528454679" lon="9.292789866833054"><ele>525.0</ele><time>2026-04-05T14:53:37.999Z</time></trkpt><trkpt lat="44.605241033127584" lon="9.292971511299019"><ele>525.0</ele><time>2026-04-05T14:53:38.999Z</time></trkpt><trkpt lat="44.60533205104249" lon="9.29316560629436"><ele>525.0</ele><time>2026-04-05T14:53:39.999Z</time></trkpt><trkpt lat="44.60542207730584" lon="9.29335052742896"><ele>524.6666666666666</ele><time>2026-04-05T14:53:40.999Z</time></trkpt><trkpt lat="44.60551059263797" lon="9.293532345074892"><ele>524.3333333333333</ele><time>2026-04-05T14:53:41.999Z</time></trkpt><trkpt lat="44.605598548585874" lon="9.29371301374537"><ele>524.0</ele><time>2026-04-05T14:53:42.999Z</time></trkpt><trkpt lat="44.60568737874742" lon="9.293895478018062"><ele>524.0</ele><time>2026-04-05T14:53:43.999Z</time></trkpt><trkpt lat="44.605771562163184" lon="9.294068397583203"><ele>524.0</ele><time>2026-04-05T14:53:44.999Z</time></trkpt><trkpt lat="44.605859830617" lon="9.294226349431682"><ele>524.0</ele><time>2026-04-05T14:53:45.999Z</time></trkpt><trkpt lat="44.60594453079121" lon="9.294390584387875"><ele>524.0</ele><time>2026-04-05T14:53:46.999Z</time></trkpt><trkpt lat="44.60602253957299" lon="9.294554651325821"><ele>524.0</ele><time>2026-04-05T14:53:47.999Z</time></trkpt><trkpt lat="44.60610564055177" lon="9.294720871155048"><ele>524.0</ele><time>2026-04-05T14:53:48.999Z</time></trkpt><trkpt lat="44.60617945953784" lon="9.294907131880446"><ele>524.0</ele><time>2026-04-05T14:53:49.999Z</time></trkpt><trkpt lat="44.60626525544261" lon="9.295082325610949"><ele>524.0</ele><time>2026-04-05T14:53:50.999Z</time></trkpt><trkpt lat="44.606360661207596" lon="9.295277142513001"><ele>525.6666666666666</ele><time>2026-04-05T14:53:51.999Z</time></trkpt><trkpt lat="44.60647150752282" lon="9.295503488726311"><ele>527.3333333333334</ele><time>2026-04-05T14:53:52.999Z</time></trkpt><trkpt lat="44.60658709482394" lon="9.295738991923237"><ele>529.0</ele><time>2026-04-05T14:53:53.999Z</time></trkpt><trkpt lat="44.60668603560718" lon="9.295946895616026"><ele>529.25</ele><time>2026-04-05T14:53:54.999Z</time></trkpt><trkpt lat="44.60676272133097" lon="9.29611072465461"><ele>529.5</ele><time>2026-04-05T14:53:55.999Z</time></trkpt><trkpt lat="44.60681395811326" lon="9.296272975007028"><ele>529.75</ele><time>2026-04-05T14:53:56.999Z</time></trkpt><trkpt lat="44.606834147911826" lon="9.296472901586162"><ele>530.0</ele><time>2026-04-05T14:53:57.999Z</time></trkpt><trkpt lat="44.606862106482716" lon="9.296686328451372"><ele>528.6666666666666</ele><time>2026-04-05T14:53:58.999Z</time></trkpt><trkpt lat="44.60692952131576" lon="9.296898367190973"><ele>527.3333333333334</ele><time>2026-04-05T14:53:59.999Z</time></trkpt><trkpt lat="44.607057229834126" lon="9.29714665567192"><ele>526.0</ele><time>2026-04-05T14:54:00.999Z</time></trkpt><trkpt lat="44.60720013880697" lon="9.29740497049093"><ele>528.0</ele><time>2026-04-05T14:54:01.999Z</time></trkpt><trkpt lat="44.60731091921432" lon="9.297607458532173"><ele>530.0</ele><time>2026-04-05T14:54:02.999Z</time></trkpt><trkpt lat="44.60740647695109" lon="9.297746743571363"><ele>532.0</ele><time>2026-04-05T14:54:04Z</time></trkpt><trkpt lat="44.607498943353534" lon="9.297860768636914"><ele>534.0</ele><time>2026-04-05T14:54:05Z</time></trkpt><trkpt lat="44.607629866892566" lon="9.297954346075594"><ele>534.0</ele><time>2026-04-05T14:54:06Z</time></trkpt><trkpt lat="44.607785891157256" lon="9.298038799867726"><ele>534.0</ele><time>2026-04-05T14:54:07Z</time></trkpt><trkpt lat="44.60789261498654" lon="9.298095093138333"><ele>534.0</ele><time>2026-04-05T14:54:08Z</time></trkpt><trkpt lat="44.607973898256574" lon="9.298161296174563"><ele>534.0</ele><time>2026-04-05T14:54:09Z</time></trkpt><trkpt lat="44.60804980371469" lon="9.298273241788202"><ele>538.3333333333334</ele><time>2026-04-05T14:54:10Z</time></trkpt><trkpt lat="44.608075015797695" lon="9.298437013626485"><ele>542.6666666666667</ele><time>2026-04-05T14:54:11Z</time></trkpt><trkpt lat="44.60810397344564" lon="9.29866538620094"><ele>547.0</ele><time>2026-04-05T14:54:12Z</time></trkpt><trkpt lat="44.6081449414239" lon="9.298960169584676"><ele>547.0</ele><time>2026-04-05T14:54:13Z</time></trkpt><trkpt lat="44.60821056936261" lon="9.299292056353003"><ele>547.0</ele><time>2026-04-05T14:54:14Z</time></trkpt><trkpt lat="44.60825392402229" lon="9.29959220825582"><ele>545.0</ele><time>2026-04-05T14:54:15Z</time></trkpt><trkpt lat="44.608289514779074" lon="9.299862891795554"><ele>543.0</ele><time>2026-04-05T14:54:16Z</time></trkpt><trkpt lat="44.60831597228334" lon="9.300154122541915"><ele>541.0</ele><time>2026-04-05T14:54:17Z</time></trkpt><trkpt lat="44.60832669110643" lon="9.300458821253773"><ele>538.3333333333334</ele><time>2026-04-05T14:54:18Z</time></trkpt><trkpt lat="44.608329884128366" lon="9.30075811636223"><ele>535.6666666666666</ele><time>2026-04-05T14:54:19Z</time></trkpt><trkpt lat="44.60832276420264" lon="9.301032189936638"><ele>533.0</ele><time>2026-04-05T14:54:20Z</time></trkpt><trkpt lat="44.60833997211299" lon="9.301341900484974"><ele>531.5</ele><time>2026-04-05T14:54:21Z</time></trkpt><trkpt lat="44.608380917155195" lon="9.30168355417537"><ele>530.0</ele><time>2026-04-05T14:54:22Z</time></trkpt><trkpt lat="44.60840943460325" lon="9.301970797060541"><ele>530.0</ele><time>2026-04-05T14:54:23Z</time></trkpt><trkpt lat="44.60844007563706" lon="9.302227703559495"><ele>530.0</ele><time>2026-04-05T14:54:24Z</time></trkpt><trkpt lat="44.60846293126834" lon="9.302414263943534"><ele>530.0</ele><time>2026-04-05T14:54:25Z</time></trkpt><trkpt lat="44.60848213693397" lon="9.302554293678881"><ele>530.0</ele><time>2026-04-05T14:54:26Z</time></trkpt><trkpt lat="44.608475535563244" lon="9.302692201368096"><ele>530.5</ele><time>2026-04-05T14:54:27Z</time></trkpt><trkpt lat="44.608413042186555" lon="9.302833497550047"><ele>531.0</ele><time>2026-04-05T14:54:28Z</time></trkpt><trkpt lat="44.60833657806541" lon="9.30302688510633"><ele>531.5</ele><time>2026-04-05T14:54:29Z</time></trkpt><trkpt lat="44.60825446670554" lon="9.30322969156302"><ele>532.0</ele><time>2026-04-05T14:54:30Z</time></trkpt><trkpt lat="44.608176975826034" lon="9.30341241494739"><ele>532.6666666666667</ele><time>2026-04-05T14:54:31Z</time></trkpt><trkpt lat="44.608077687381105" lon="9.303567816422417"><ele>533.3333333333334</ele><time>2026-04-05T14:54:32Z</time></trkpt><trkpt lat="44.6079339367157" lon="9.303736847006732"><ele>534.0</ele><time>2026-04-05T14:54:33Z</time></trkpt><trkpt lat="44.60778269144361" lon="9.303885261454132"><ele>533.6666666666666</ele><time>2026-04-05T14:54:34Z</time></trkpt><trkpt lat="44.60762861989599" lon="9.3040299624019"><ele>533.3333333333333</ele><time>2026-04-05T14:54:35Z</time></trkpt><trkpt lat="44.60750138283588" lon="9.304159869970054"><ele>533.0</ele><time>2026-04-05T14:54:36Z</time></trkpt><trkpt lat="44.60737385077659" lon="9.304232741779492"><ele>533.0</ele><time>2026-04-05T14:54:37Z</time></trkpt><trkpt lat="44.607218446743936" lon="9.304250705906316"><ele>533.0</ele><time>2026-04-05T14:54:38Z</time></trkpt><trkpt lat="44.60706492305969" lon="9.304272800643602"><ele>533.0</ele><time>2026-04-05T14:54:39Z</time></trkpt><trkpt lat="44.60694273534429" lon="9.30426687619567"><ele>533.0</ele><time>2026-04-05T14:54:40Z</time></trkpt><trkpt lat="44.60684736466433" lon="9.304291055699254"><ele>531.5</ele><time>2026-04-05T14:54:41Z</time></trkpt><trkpt lat="44.60675202279735" lon="9.304362089766293"><ele>530.0</ele><time>2026-04-05T14:54:42Z</time></trkpt><trkpt lat="44.60667594699503" lon="9.304506201979027"><ele>528.5</ele><time>2026-04-05T14:54:43Z</time></trkpt><trkpt lat="44.60664349753517" lon="9.304680164874748"><ele>527.0</ele><time>2026-04-05T14:54:44Z</time></trkpt><trkpt lat="44.60663697107961" lon="9.30489982097794"><ele>527.0</ele><time>2026-04-05T14:54:45Z</time></trkpt><trkpt lat="44.60666491707026" lon="9.305150404125673"><ele>527.0</ele><time>2026-04-05T14:54:46Z</time></trkpt><trkpt lat="44.60669905985805" lon="9.305435457354928"><ele>527.0</ele><time>2026-04-05T14:54:47Z</time></trkpt><trkpt lat="44.606746682907385" lon="9.305689680640558"><ele>527.0</ele><time>2026-04-05T14:54:48Z</time></trkpt><trkpt lat="44.60678437948609" lon="9.3059054547409"><ele>527.0</ele><time>2026-04-05T14:54:49Z</time></trkpt><trkpt lat="44.60681654131797" lon="9.306102663020715"><ele>527.0</ele><time>2026-04-05T14:54:50Z</time></trkpt><trkpt lat="44.60685709420757" lon="9.306271157238859"><ele>527.0</ele><time>2026-04-05T14:54:51Z</time></trkpt><trkpt lat="44.606918061544306" lon="9.306437161907377"><ele>526.6666666666666</ele><time>2026-04-05T14:54:52Z</time></trkpt><trkpt lat="44.607015919250344" lon="9.306592779784184"><ele>526.3333333333334</ele><time>2026-04-05T14:54:53Z</time></trkpt><trkpt lat="44.607158756878526" lon="9.306756981089638"><ele>526.0</ele><time>2026-04-05T14:54:54Z</time></trkpt><trkpt lat="44.607266758981915" lon="9.306889635718875"><ele>526.0</ele><time>2026-04-05T14:54:55Z</time></trkpt><trkpt lat="44.607373447909765" lon="9.307003608309898"><ele>526.0</ele><time>2026-04-05T14:54:56Z</time></trkpt><trkpt lat="44.60743596683717" lon="9.307075899036153"><ele>526.0</ele><time>2026-04-05T14:54:57Z</time></trkpt><trkpt lat="44.607602754459826" lon="9.307076754017936"><ele>526.0</ele><time>2026-04-05T14:54:58Z</time></trkpt><trkpt lat="44.607787520787106" lon="9.307068234123157"><ele>526.6666666666667</ele><time>2026-04-05T14:54:59Z</time></trkpt><trkpt lat="44.60800890591095" lon="9.30705270369267"><ele>527.3333333333334</ele><time>2026-04-05T14:55:00Z</time></trkpt><trkpt lat="44.608155851072645" lon="9.307089168537143"><ele>528.0</ele><time>2026-04-05T14:55:01Z</time></trkpt><trkpt lat="44.608280653488215" lon="9.307128231719782"><ele>528.0</ele><time>2026-04-05T14:55:02Z</time></trkpt><trkpt lat="44.608406862464236" lon="9.307146478937028"><ele>528.0</ele><time>2026-04-05T14:55:03Z</time></trkpt><trkpt lat="44.608550645541975" lon="9.30713226713559"><ele>528.0</ele><time>2026-04-05T14:55:04Z</time></trkpt><trkpt lat="44.60876047479556" lon="9.307030420925514"><ele>529.0</ele><time>2026-04-05T14:55:04.999Z</time></trkpt><trkpt lat="44.60899985608372" lon="9.30693679119145"><ele>530.0</ele><time>2026-04-05T14:55:05.999Z</time></trkpt><trkpt lat="44.60920283658582" lon="9.306863737063765"><ele>530.0</ele><time>2026-04-05T14:55:06.999Z</time></trkpt><trkpt lat="44.60937489391389" lon="9.306809485399802"><ele>530.0</ele><time>2026-04-05T14:55:07.999Z</time></trkpt><trkpt lat="44.60953099068883" lon="9.306782169052202"><ele>530.0</ele><time>2026-04-05T14:55:08.999Z</time></trkpt><trkpt lat="44.60968923298954" lon="9.30675270401316"><ele>531.6666666666666</ele><time>2026-04-05T14:55:09.999Z</time></trkpt><trkpt lat="44.60984287303765" lon="9.306740212982142"><ele>533.3333333333334</ele><time>2026-04-05T14:55:10.999Z</time></trkpt><trkpt lat="44.60998221374794" lon="9.306714584667674"><ele>535.0</ele><time>2026-04-05T14:55:11.999Z</time></trkpt><trkpt lat="44.610141059630344" lon="9.306733159319949"><ele>538.5</ele><time>2026-04-05T14:55:12.999Z</time></trkpt><trkpt lat="44.61033106179784" lon="9.306820116267025"><ele>542.0</ele><time>2026-04-05T14:55:13.999Z</time></trkpt><trkpt lat="44.610454475859015" lon="9.306921623342049"><ele>545.5</ele><time>2026-04-05T14:55:14.999Z</time></trkpt><trkpt lat="44.61052564403048" lon="9.306991038148015"><ele>549.0</ele><time>2026-04-05T14:55:15.999Z</time></trkpt><trkpt lat="44.6105901383075" lon="9.307093848111213"><ele>542.5</ele><time>2026-04-05T14:55:16.999Z</time></trkpt><trkpt lat="44.610596134190644" lon="9.307274938334185"><ele>536.0</ele><time>2026-04-05T14:55:17.999Z</time></trkpt><trkpt lat="44.61057575156568" lon="9.307447955743473"><ele>529.5</ele><time>2026-04-05T14:55:18.999Z</time></trkpt><trkpt lat="44.61058736209751" lon="9.307608685628567"><ele>523.0</ele><time>2026-04-05T14:55:19.999Z</time></trkpt><trkpt lat="44.610603977868216" lon="9.30777393171832"><ele>523.0</ele><time>2026-04-05T14:55:20.999Z</time></trkpt><trkpt lat="44.610661457530554" lon="9.307942788855977"><ele>523.0</ele><time>2026-04-05T14:55:21.999Z</time></trkpt><trkpt lat="44.610766411725855" lon="9.308108749847579"><ele>523.0</ele><time>2026-04-05T14:55:22.999Z</time></trkpt><trkpt lat="44.61089388355976" lon="9.308308606702143"><ele>525.0</ele><time>2026-04-05T14:55:23.999Z</time></trkpt><trkpt lat="44.610992700765394" lon="9.30844748141394"><ele>527.0</ele><time>2026-04-05T14:55:24.999Z</time></trkpt><trkpt lat="44.611073798357545" lon="9.308564583694722"><ele>529.0</ele><time>2026-04-05T14:55:25.999Z</time></trkpt><trkpt lat="44.611146163657416" lon="9.308683036492036"><ele>531.0</ele><time>2026-04-05T14:55:26.999Z</time></trkpt><trkpt lat="44.61120052234079" lon="9.308777653210816"><ele>531.0</ele><time>2026-04-05T14:55:27.999Z</time></trkpt><trkpt lat="44.61124459341592" lon="9.308900781984962"><ele>531.0</ele><time>2026-04-05T14:55:28.999Z</time></trkpt><trkpt lat="44.611216459103744" lon="9.309041028806064"><ele>531.0</ele><time>2026-04-05T14:55:29.999Z</time></trkpt><trkpt lat="44.6111626350797" lon="9.309269133929622"><ele>531.0</ele><time>2026-04-05T14:55:30.999Z</time></trkpt><trkpt lat="44.61113189769029" lon="9.309520330228553"><ele>527.0</ele><time>2026-04-05T14:55:31.999Z</time></trkpt><trkpt lat="44.61111279399788" lon="9.309736176875838"><ele>523.0</ele><time>2026-04-05T14:55:32.999Z</time></trkpt><trkpt lat="44.61109001020385" lon="9.30992007549775"><ele>519.0</ele><time>2026-04-05T14:55:33.999Z</time></trkpt><trkpt lat="44.61104144701641" lon="9.310069337801538"><ele>515.0</ele><time>2026-04-05T14:55:34.999Z</time></trkpt><trkpt lat="44.61094881878957" lon="9.310199266713093"><ele>515.0</ele><time>2026-04-05T14:55:35.999Z</time></trkpt><trkpt lat="44.61081848065558" lon="9.31040345583131"><ele>515.0</ele><time>2026-04-05T14:55:36.999Z</time></trkpt><trkpt lat="44.6106786006002" lon="9.310618069452172"><ele>515.0</ele><time>2026-04-05T14:55:37.999Z</time></trkpt><trkpt lat="44.610544242939504" lon="9.310839373850136"><ele>513.0</ele><time>2026-04-05T14:55:38.999Z</time></trkpt><trkpt lat="44.61041102362346" lon="9.311048771302664"><ele>511.0</ele><time>2026-04-05T14:55:39.999Z</time></trkpt><trkpt lat="44.610302000726136" lon="9.3112203230971"><ele>509.0</ele><time>2026-04-05T14:55:40.999Z</time></trkpt><trkpt lat="44.61021228651192" lon="9.311399506458754"><ele>509.5</ele><time>2026-04-05T14:55:41.999Z</time></trkpt><trkpt lat="44.61010601798364" lon="9.31154852775075"><ele>510.0</ele><time>2026-04-05T14:55:42.999Z</time></trkpt><trkpt lat="44.61003792290906" lon="9.311689795675484"><ele>510.5</ele><time>2026-04-05T14:55:43.999Z</time></trkpt><trkpt lat="44.610011982462254" lon="9.31182544434586"><ele>511.0</ele><time>2026-04-05T14:55:44.999Z</time></trkpt><trkpt lat="44.61001579698459" lon="9.311964913579354"><ele>511.0</ele><time>2026-04-05T14:55:45.999Z</time></trkpt><trkpt lat="44.6100737031271" lon="9.312157434263826"><ele>511.0</ele><time>2026-04-05T14:55:46.999Z</time></trkpt><trkpt lat="44.6102060950378" lon="9.312448331705568"><ele>511.0</ele><time>2026-04-05T14:55:47.999Z</time></trkpt><trkpt lat="44.610299879856306" lon="9.312690497223024"><ele>516.3333333333334</ele><time>2026-04-05T14:55:48.999Z</time></trkpt><trkpt lat="44.61036406879594" lon="9.312935940189082"><ele>521.6666666666666</ele><time>2026-04-05T14:55:49.999Z</time></trkpt><trkpt lat="44.61042218859456" lon="9.313159706721398"><ele>527.0</ele><time>2026-04-05T14:55:50.999Z</time></trkpt><trkpt lat="44.61046900910184" lon="9.313363801486256"><ele>527.0</ele><time>2026-04-05T14:55:51.999Z</time></trkpt><trkpt lat="44.610498460118855" lon="9.313593410099209"><ele>527.0</ele><time>2026-04-05T14:55:52.999Z</time></trkpt><trkpt lat="44.610486123569615" lon="9.313877225026035"><ele>527.0</ele><time>2026-04-05T14:55:53.999Z</time></trkpt><trkpt lat="44.6105011997176" lon="9.314148686616244"><ele>527.0</ele><time>2026-04-05T14:55:54.999Z</time></trkpt><trkpt lat="44.61049200245013" lon="9.314367476820074"><ele>527.0</ele><time>2026-04-05T14:55:55.999Z</time></trkpt><trkpt lat="44.61050303090724" lon="9.314574152654988"><ele>527.0</ele><time>2026-04-05T14:55:56.999Z</time></trkpt><trkpt lat="44.610541919371606" lon="9.314809158133635"><ele>524.3333333333333</ele><time>2026-04-05T14:55:57.999Z</time></trkpt><trkpt lat="44.61061985062054" lon="9.315055479494816"><ele>521.6666666666666</ele><time>2026-04-05T14:55:58.999Z</time></trkpt><trkpt lat="44.61067765531393" lon="9.315309723851724"><ele>519.0</ele><time>2026-04-05T14:55:59.999Z</time></trkpt><trkpt lat="44.61073009831885" lon="9.31553673362258"><ele>518.75</ele><time>2026-04-05T14:56:00.999Z</time></trkpt><trkpt lat="44.61077548274266" lon="9.315745044045778"><ele>518.5</ele><time>2026-04-05T14:56:01.999Z</time></trkpt><trkpt lat="44.61080695662819" lon="9.315937244180116"><ele>518.25</ele><time>2026-04-05T14:56:02.999Z</time></trkpt><trkpt lat="44.61083616881057" lon="9.31612032593464"><ele>518.0</ele><time>2026-04-05T14:56:03.999Z</time></trkpt><trkpt lat="44.61082994834586" lon="9.316287103897864"><ele>517.75</ele><time>2026-04-05T14:56:04.999Z</time></trkpt><trkpt lat="44.61082381817829" lon="9.31645281985521"><ele>517.5</ele><time>2026-04-05T14:56:05.999Z</time></trkpt><trkpt lat="44.61075459310672" lon="9.316632130382608"><ele>517.25</ele><time>2026-04-05T14:56:06.999Z</time></trkpt><trkpt lat="44.610709453690426" lon="9.316788891804679"><ele>517.0</ele><time>2026-04-05T14:56:07.999Z</time></trkpt><trkpt lat="44.61070308314996" lon="9.316956339844882"><ele>517.0</ele><time>2026-04-05T14:56:08.999Z</time></trkpt><trkpt lat="44.610729823992536" lon="9.317171199975887"><ele>517.0</ele><time>2026-04-05T14:56:10Z</time></trkpt><trkpt lat="44.610758432256674" lon="9.317400297718947"><ele>517.0</ele><time>2026-04-05T14:56:11Z</time></trkpt><trkpt lat="44.61075300433104" lon="9.317591969450447"><ele>516.0</ele><time>2026-04-05T14:56:12Z</time></trkpt><trkpt lat="44.61075191550307" lon="9.317762786013047"><ele>515.0</ele><time>2026-04-05T14:56:13Z</time></trkpt><trkpt lat="44.610754047389506" lon="9.317901558983527"><ele>514.0</ele><time>2026-04-05T14:56:14Z</time></trkpt><trkpt lat="44.610764178136186" lon="9.318007742365882"><ele>513.0</ele><time>2026-04-05T14:56:15Z</time></trkpt><trkpt lat="44.610828573392496" lon="9.318105498637093"><ele>512.0</ele><time>2026-04-05T14:56:16Z</time></trkpt><trkpt lat="44.61092962487855" lon="9.318194926205273"><ele>509.3333333333333</ele><time>2026-04-05T14:56:17Z</time></trkpt><trkpt lat="44.611070887235456" lon="9.31827807198942"><ele>506.66666666666663</ele><time>2026-04-05T14:56:18Z</time></trkpt><trkpt lat="44.611235869944814" lon="9.318369389536127"><ele>504.0</ele><time>2026-04-05T14:56:19Z</time></trkpt><trkpt lat="44.611385167324265" lon="9.318507493876721"><ele>511.25</ele><time>2026-04-05T14:56:20Z</time></trkpt><trkpt lat="44.61151580035198" lon="9.318628915713353"><ele>518.5</ele><time>2026-04-05T14:56:21Z</time></trkpt><trkpt lat="44.61161613418506" lon="9.318724691713683"><ele>525.75</ele><time>2026-04-05T14:56:22Z</time></trkpt><trkpt lat="44.61170251238994" lon="9.318803152640392"><ele>533.0</ele><time>2026-04-05T14:56:23Z</time></trkpt><trkpt lat="44.611784511356475" lon="9.318883063666977"><ele>526.0</ele><time>2026-04-05T14:56:24Z</time></trkpt><trkpt lat="44.61186490040309" lon="9.318976480663444"><ele>519.0</ele><time>2026-04-05T14:56:25Z</time></trkpt><trkpt lat="44.61188222481558" lon="9.319122839123596"><ele>512.0</ele><time>2026-04-05T14:56:26Z</time></trkpt><trkpt lat="44.61187405329251" lon="9.319315024082343"><ele>505.0</ele><time>2026-04-05T14:56:27Z</time></trkpt><trkpt lat="44.611885814836015" lon="9.319496709598473"><ele>505.0</ele><time>2026-04-05T14:56:28Z</time></trkpt><trkpt lat="44.6118765528417" lon="9.31963832104623"><ele>505.0</ele><time>2026-04-05T14:56:29Z</time></trkpt><trkpt lat="44.61190574209645" lon="9.319772324527223"><ele>505.0</ele><time>2026-04-05T14:56:30Z</time></trkpt><trkpt lat="44.61198720446559" lon="9.319910953236507"><ele>505.0</ele><time>2026-04-05T14:56:31Z</time></trkpt><trkpt lat="44.612108540386515" lon="9.320026840335435"><ele>505.0</ele><time>2026-04-05T14:56:32Z</time></trkpt><trkpt lat="44.61228375672301" lon="9.320130775563078"><ele>505.0</ele><time>2026-04-05T14:56:33Z</time></trkpt><trkpt lat="44.61245241825988" lon="9.320252014553802"><ele>505.0</ele><time>2026-04-05T14:56:34Z</time></trkpt><trkpt lat="44.61257893959895" lon="9.320361662300877"><ele>505.0</ele><time>2026-04-05T14:56:35Z</time></trkpt><trkpt lat="44.612683154226985" lon="9.320454067161712"><ele>505.0</ele><time>2026-04-05T14:56:36Z</time></trkpt><trkpt lat="44.61275588648009" lon="9.320554076499102"><ele>505.0</ele><time>2026-04-05T14:56:37Z</time></trkpt><trkpt lat="44.612840756280185" lon="9.320658834092418"><ele>505.0</ele><time>2026-04-05T14:56:38Z</time></trkpt><trkpt lat="44.61287008876357" lon="9.320823741073688"><ele>504.25</ele><time>2026-04-05T14:56:39Z</time></trkpt><trkpt lat="44.61291576265506" lon="9.321034114983958"><ele>503.5</ele><time>2026-04-05T14:56:40Z</time></trkpt><trkpt lat="44.61295530403967" lon="9.321226716282535"><ele>502.75</ele><time>2026-04-05T14:56:41Z</time></trkpt><trkpt lat="44.61298741914409" lon="9.321394612164454"><ele>502.0</ele><time>2026-04-05T14:56:42Z</time></trkpt><trkpt lat="44.61301846576058" lon="9.321535872889108"><ele>505.0</ele><time>2026-04-05T14:56:43Z</time></trkpt><trkpt lat="44.61307391877228" lon="9.321630345188332"><ele>508.00000000000006</ele><time>2026-04-05T14:56:44Z</time></trkpt><trkpt lat="44.613131739466624" lon="9.321735495152732"><ele>511.00000000000006</ele><time>2026-04-05T14:56:45Z</time></trkpt><trkpt lat="44.61322479583933" lon="9.321784594928994"><ele>514.0</ele><time>2026-04-05T14:56:46Z</time></trkpt><trkpt lat="44.613303689792666" lon="9.321849680800318"><ele>517.0</ele><time>2026-04-05T14:56:47Z</time></trkpt><trkpt lat="44.61339422255858" lon="9.321784753787014"><ele>517.0</ele><time>2026-04-05T14:56:48Z</time></trkpt><trkpt lat="44.61362308327435" lon="9.321705208812824"><ele>517.0</ele><time>2026-04-05T14:56:49Z</time></trkpt><trkpt lat="44.61383013117154" lon="9.321582669187862"><ele>518.3333333333334</ele><time>2026-04-05T14:56:50Z</time></trkpt><trkpt lat="44.61398701991446" lon="9.321537116620002"><ele>519.6666666666666</ele><time>2026-04-05T14:56:51Z</time></trkpt><trkpt lat="44.61418206183251" lon="9.321493650489812"><ele>521.0</ele><time>2026-04-05T14:56:52Z</time></trkpt><trkpt lat="44.614328252393314" lon="9.321443174018889"><ele>521.0</ele><time>2026-04-05T14:56:53Z</time></trkpt><trkpt lat="44.61446170424191" lon="9.321421426025532"><ele>521.0</ele><time>2026-04-05T14:56:54Z</time></trkpt><trkpt lat="44.61460501249964" lon="9.321397571363953"><ele>521.0</ele><time>2026-04-05T14:56:55Z</time></trkpt><trkpt lat="44.61473518631344" lon="9.321407969961474"><ele>521.0</ele><time>2026-04-05T14:56:56Z</time></trkpt><trkpt lat="44.6148429085447" lon="9.321542687381873"><ele>517.6666666666666</ele><time>2026-04-05T14:56:57Z</time></trkpt><trkpt lat="44.61495889034193" lon="9.321647762865537"><ele>514.3333333333334</ele><time>2026-04-05T14:56:58Z</time></trkpt><trkpt lat="44.6151076662262" lon="9.321785749434842"><ele>511.0</ele><time>2026-04-05T14:56:59Z</time></trkpt><trkpt lat="44.61525254682998" lon="9.321837203998477"><ele>510.33333333333337</ele><time>2026-04-05T14:57:00Z</time></trkpt><trkpt lat="44.61543339560618" lon="9.321858751888387"><ele>509.66666666666663</ele><time>2026-04-05T14:57:01Z</time></trkpt><trkpt lat="44.61562862243746" lon="9.321862083446952"><ele>509.0</ele><time>2026-04-05T14:57:02Z</time></trkpt><trkpt lat="44.615832444254536" lon="9.321870020072591"><ele>509.0</ele><time>2026-04-05T14:57:03Z</time></trkpt><trkpt lat="44.61605287065608" lon="9.321857290853977"><ele>509.0</ele><time>2026-04-05T14:57:04Z</time></trkpt><trkpt lat="44.61623555883806" lon="9.321836625725556"><ele>509.0</ele><time>2026-04-05T14:57:05Z</time></trkpt><trkpt lat="44.61640273835857" lon="9.321833165489032"><ele>507.25</ele><time>2026-04-05T14:57:06Z</time></trkpt><trkpt lat="44.616545415586316" lon="9.321838227314736"><ele>505.5</ele><time>2026-04-05T14:57:07Z</time></trkpt><trkpt lat="44.61669222367793" lon="9.3218656551052"><ele>503.75</ele><time>2026-04-05T14:57:08Z</time></trkpt><trkpt lat="44.616847150985535" lon="9.321913046659668"><ele>502.0</ele><time>2026-04-05T14:57:09Z</time></trkpt><trkpt lat="44.6169754973537" lon="9.321988544703393"><ele>498.0</ele><time>2026-04-05T14:57:10Z</time></trkpt><trkpt lat="44.617111756130654" lon="9.322085595630886"><ele>494.0</ele><time>2026-04-05T14:57:11Z</time></trkpt><trkpt lat="44.61724890828518" lon="9.322237934192112"><ele>490.0</ele><time>2026-04-05T14:57:12Z</time></trkpt><trkpt lat="44.6174086759981" lon="9.322430142523869"><ele>490.0</ele><time>2026-04-05T14:57:13Z</time></trkpt><trkpt lat="44.61754220201673" lon="9.32262880319816"><ele>490.0</ele><time>2026-04-05T14:57:13.999Z</time></trkpt><trkpt lat="44.61765916024068" lon="9.322814511897198"><ele>490.0</ele><time>2026-04-05T14:57:14.999Z</time></trkpt><trkpt lat="44.61779672983482" lon="9.322996955560903"><ele>493.0</ele><time>2026-04-05T14:57:15.999Z</time></trkpt><trkpt lat="44.617952807841164" lon="9.32317280096351"><ele>496.0</ele><time>2026-04-05T14:57:16.999Z</time></trkpt><trkpt lat="44.61808694012486" lon="9.323342406696497"><ele>499.0</ele><time>2026-04-05T14:57:17.999Z</time></trkpt><trkpt lat="44.61821141019175" lon="9.323513025052492"><ele>499.0</ele><time>2026-04-05T14:57:18.999Z</time></trkpt><trkpt lat="44.61833727266602" lon="9.32368213284123"><ele>499.0</ele><time>2026-04-05T14:57:19.999Z</time></trkpt><trkpt lat="44.61846311990003" lon="9.323852436979443"><ele>499.0</ele><time>2026-04-05T14:57:20.999Z</time></trkpt><trkpt lat="44.618587414782105" lon="9.324013007190896"><ele>500.6666666666667</ele><time>2026-04-05T14:57:21.999Z</time></trkpt><trkpt lat="44.618709802061694" lon="9.324176748786176"><ele>502.33333333333337</ele><time>2026-04-05T14:57:22.999Z</time></trkpt><trkpt lat="44.61883095249868" lon="9.324345051563999"><ele>504.0</ele><time>2026-04-05T14:57:23.999Z</time></trkpt><trkpt lat="44.61893593162058" lon="9.324513508018311"><ele>504.0</ele><time>2026-04-05T14:57:24.999Z</time></trkpt><trkpt lat="44.619059272339896" lon="9.324680722767047"><ele>504.0</ele><time>2026-04-05T14:57:25.999Z</time></trkpt><trkpt lat="44.61916926055276" lon="9.32484497845273"><ele>504.0</ele><time>2026-04-05T14:57:26.999Z</time></trkpt><trkpt lat="44.61928518843469" lon="9.324992132580842"><ele>501.0</ele><time>2026-04-05T14:57:27.999Z</time></trkpt><trkpt lat="44.61939723454654" lon="9.325132885208811"><ele>498.0</ele><time>2026-04-05T14:57:28.999Z</time></trkpt><trkpt lat="44.619503135999274" lon="9.325268505355725"><ele>495.0</ele><time>2026-04-05T14:57:29.999Z</time></trkpt><trkpt lat="44.61961267755331" lon="9.325408531995393"><ele>492.0</ele><time>2026-04-05T14:57:30.999Z</time></trkpt><trkpt lat="44.619720012610564" lon="9.325558364976999"><ele>490.66666666666663</ele><time>2026-04-05T14:57:31.999Z</time></trkpt><trkpt lat="44.619831117137544" lon="9.325712434575458"><ele>489.3333333333333</ele><time>2026-04-05T14:57:32.999Z</time></trkpt><trkpt lat="44.619937455819894" lon="9.325860213701741"><ele>488.0</ele><time>2026-04-05T14:57:33.999Z</time></trkpt><trkpt lat="44.6200421814171" lon="9.326000826282355"><ele>488.0</ele><time>2026-04-05T14:57:34.999Z</time></trkpt><trkpt lat="44.62014024813322" lon="9.32614213275403"><ele>488.0</ele><time>2026-04-05T14:57:35.999Z</time></trkpt><trkpt lat="44.620235826674985" lon="9.326276178663937"><ele>488.0</ele><time>2026-04-05T14:57:36.999Z</time></trkpt><trkpt lat="44.620326181329496" lon="9.32640891689935"><ele>488.0</ele><time>2026-04-05T14:57:37.999Z</time></trkpt><trkpt lat="44.62042169219007" lon="9.326555454756905"><ele>487.0</ele><time>2026-04-05T14:57:38.999Z</time></trkpt><trkpt lat="44.62050976768619" lon="9.32671990826105"><ele>486.0</ele><time>2026-04-05T14:57:39.999Z</time></trkpt><trkpt lat="44.62059275403862" lon="9.32688808689656"><ele>485.0</ele><time>2026-04-05T14:57:40.999Z</time></trkpt><trkpt lat="44.62066976016781" lon="9.327051462837838"><ele>484.0</ele><time>2026-04-05T14:57:41.999Z</time></trkpt><trkpt lat="44.62076097034353" lon="9.327214146431615"><ele>483.75</ele><time>2026-04-05T14:57:42.999Z</time></trkpt><trkpt lat="44.62083337215287" lon="9.327382130055886"><ele>483.5</ele><time>2026-04-05T14:57:43.999Z</time></trkpt><trkpt lat="44.620888933728324" lon="9.32754707166909"><ele>483.25</ele><time>2026-04-05T14:57:44.999Z</time></trkpt><trkpt lat="44.62096020217803" lon="9.327699570765214"><ele>483.0</ele><time>2026-04-05T14:57:45.999Z</time></trkpt><trkpt lat="44.62102512338272" lon="9.327847982614589"><ele>483.0</ele><time>2026-04-05T14:57:46.999Z</time></trkpt><trkpt lat="44.62105302547054" lon="9.328002892408694"><ele>483.0</ele><time>2026-04-05T14:57:47.999Z</time></trkpt><trkpt lat="44.62111428649699" lon="9.328163331348556"><ele>483.0</ele><time>2026-04-05T14:57:48.999Z</time></trkpt><trkpt lat="44.6211808097654" lon="9.328328837449929"><ele>483.0</ele><time>2026-04-05T14:57:49.999Z</time></trkpt><trkpt lat="44.62124076548804" lon="9.328498947765214"><ele>483.75</ele><time>2026-04-05T14:57:50.999Z</time></trkpt><trkpt lat="44.62130902273034" lon="9.328670782739318"><ele>484.5</ele><time>2026-04-05T14:57:51.999Z</time></trkpt><trkpt lat="44.62138723077748" lon="9.32883788724432"><ele>485.25</ele><time>2026-04-05T14:57:52.999Z</time></trkpt><trkpt lat="44.62146362175951" lon="9.329004542278161"><ele>486.0</ele><time>2026-04-05T14:57:53.999Z</time></trkpt><trkpt lat="44.62155002741734" lon="9.329177889224946"><ele>486.0</ele><time>2026-04-05T14:57:54.999Z</time></trkpt><trkpt lat="44.621623947904375" lon="9.329347354755502"><ele>486.0</ele><time>2026-04-05T14:57:55.999Z</time></trkpt><trkpt lat="44.62172461166255" lon="9.329526381571316"><ele>486.0</ele><time>2026-04-05T14:57:56.999Z</time></trkpt><trkpt lat="44.62183549675661" lon="9.329698207481684"><ele>485.0</ele><time>2026-04-05T14:57:57.999Z</time></trkpt><trkpt lat="44.62195395906425" lon="9.329856882591814"><ele>484.0</ele><time>2026-04-05T14:57:58.999Z</time></trkpt><trkpt lat="44.62207500081823" lon="9.330007621827216"><ele>483.0</ele><time>2026-04-05T14:57:59.999Z</time></trkpt><trkpt lat="44.62219039640059" lon="9.330150281655483"><ele>483.0</ele><time>2026-04-05T14:58:00.999Z</time></trkpt><trkpt lat="44.62232500941172" lon="9.330300840609349"><ele>483.0</ele><time>2026-04-05T14:58:01.999Z</time></trkpt><trkpt lat="44.62244306554919" lon="9.330424922153957"><ele>483.0</ele><time>2026-04-05T14:58:02.999Z</time></trkpt><trkpt lat="44.622584231189" lon="9.330560033713192"><ele>481.66666666666663</ele><time>2026-04-05T14:58:03.999Z</time></trkpt><trkpt lat="44.6227248842557" lon="9.330689456209422"><ele>480.3333333333333</ele><time>2026-04-05T14:58:04.999Z</time></trkpt><trkpt lat="44.622874267245614" lon="9.33080871075416"><ele>479.0</ele><time>2026-04-05T14:58:05.999Z</time></trkpt><trkpt lat="44.623022156404595" lon="9.330904486695998"><ele>478.66666666666663</ele><time>2026-04-05T14:58:06.999Z</time></trkpt><trkpt lat="44.6231736082156" lon="9.33099852352195"><ele>478.33333333333337</ele><time>2026-04-05T14:58:07.999Z</time></trkpt><trkpt lat="44.62331910862705" lon="9.33108302202569"><ele>478.0</ele><time>2026-04-05T14:58:08.999Z</time></trkpt><trkpt lat="44.62347195645242" lon="9.331161318548185"><ele>478.0</ele><time>2026-04-05T14:58:09.999Z</time></trkpt><trkpt lat="44.62362595767367" lon="9.331245779441103"><ele>478.0</ele><time>2026-04-05T14:58:10.999Z</time></trkpt><trkpt lat="44.62377916972602" lon="9.331333674133269"><ele>478.0</ele><time>2026-04-05T14:58:11.999Z</time></trkpt><trkpt lat="44.623937290458194" lon="9.331426688434961"><ele>479.33333333333337</ele><time>2026-04-05T14:58:12.999Z</time></trkpt><trkpt lat="44.62409537243898" lon="9.331516615228656"><ele>480.66666666666663</ele><time>2026-04-05T14:58:13.999Z</time></trkpt><trkpt lat="44.624251810836164" lon="9.331602680980401"><ele>482.0</ele><time>2026-04-05T14:58:14.999Z</time></trkpt><trkpt lat="44.62441286052844" lon="9.331689967736665"><ele>481.3333333333333</ele><time>2026-04-05T14:58:16Z</time></trkpt><trkpt lat="44.62458088823023" lon="9.331781940189703"><ele>480.66666666666663</ele><time>2026-04-05T14:58:17Z</time></trkpt><trkpt lat="44.62476271064192" lon="9.331886211433714"><ele>480.0</ele><time>2026-04-05T14:58:18Z</time></trkpt><trkpt lat="44.624953835284884" lon="9.331995229412923"><ele>480.0</ele><time>2026-04-05T14:58:19Z</time></trkpt><trkpt lat="44.625151071067926" lon="9.332104438347903"><ele>480.0</ele><time>2026-04-05T14:58:20Z</time></trkpt><trkpt lat="44.62534088904899" lon="9.332206242367015"><ele>480.0</ele><time>2026-04-05T14:58:21Z</time></trkpt><trkpt lat="44.62551469384261" lon="9.332305387779927"><ele>478.0</ele><time>2026-04-05T14:58:22Z</time></trkpt><trkpt lat="44.625679560743585" lon="9.332400601170908"><ele>476.0</ele><time>2026-04-05T14:58:23Z</time></trkpt><trkpt lat="44.625849546318896" lon="9.332481916354807"><ele>474.0</ele><time>2026-04-05T14:58:24Z</time></trkpt><trkpt lat="44.626050793310725" lon="9.33257613469219"><ele>476.5</ele><time>2026-04-05T14:58:25Z</time></trkpt><trkpt lat="44.62629344526339" lon="9.332669864350084"><ele>479.0</ele><time>2026-04-05T14:58:26Z</time></trkpt><trkpt lat="44.626548710788484" lon="9.332762071514459"><ele>479.0</ele><time>2026-04-05T14:58:27Z</time></trkpt><trkpt lat="44.62679410234354" lon="9.332833345597434"><ele>479.0</ele><time>2026-04-05T14:58:28Z</time></trkpt><trkpt lat="44.62705979121878" lon="9.332900815994252"><ele>476.0</ele><time>2026-04-05T14:58:29Z</time></trkpt><trkpt lat="44.62734858519894" lon="9.332948404323368"><ele>473.0</ele><time>2026-04-05T14:58:30Z</time></trkpt><trkpt lat="44.62764430757998" lon="9.332981467524318"><ele>473.0</ele><time>2026-04-05T14:58:31Z</time></trkpt><trkpt lat="44.62791057682014" lon="9.333003886283882"><ele>473.0</ele><time>2026-04-05T14:58:32Z</time></trkpt><trkpt lat="44.62815247145167" lon="9.333015611842344"><ele>473.0</ele><time>2026-04-05T14:58:33Z</time></trkpt><trkpt lat="44.628376930161245" lon="9.333034909792294"><ele>473.0</ele><time>2026-04-05T14:58:34Z</time></trkpt><trkpt lat="44.62858973082113" lon="9.333061576781231"><ele>473.0</ele><time>2026-04-05T14:58:35Z</time></trkpt><trkpt lat="44.628791346439485" lon="9.33308276572967"><ele>475.3333333333333</ele><time>2026-04-05T14:58:36Z</time></trkpt><trkpt lat="44.62900139494573" lon="9.333090823559093"><ele>477.66666666666663</ele><time>2026-04-05T14:58:37Z</time></trkpt><trkpt lat="44.629204282062794" lon="9.33309092472868"><ele>480.0</ele><time>2026-04-05T14:58:38Z</time></trkpt><trkpt lat="44.629415186983074" lon="9.333062646309575"><ele>477.0</ele><time>2026-04-05T14:58:39Z</time></trkpt><trkpt lat="44.62962775204958" lon="9.33301320356069"><ele>474.0</ele><time>2026-04-05T14:58:40Z</time></trkpt><trkpt lat="44.6298334438904" lon="9.332941094043617"><ele>471.0</ele><time>2026-04-05T14:58:41Z</time></trkpt><trkpt lat="44.6300491351361" lon="9.332844311352693"><ele>471.0</ele><time>2026-04-05T14:58:42Z</time></trkpt><trkpt lat="44.630272767185865" lon="9.332691656213614"><ele>471.0</ele><time>2026-04-05T14:58:43Z</time></trkpt><trkpt lat="44.630519226937956" lon="9.332507171075399"><ele>470.0</ele><time>2026-04-05T14:58:44Z</time></trkpt><trkpt lat="44.630751289712244" lon="9.33236553546872"><ele>469.0</ele><time>2026-04-05T14:58:45Z</time></trkpt><trkpt lat="44.63095212676244" lon="9.332200980305963"><ele>472.6666666666667</ele><time>2026-04-05T14:58:46Z</time></trkpt><trkpt lat="44.63114665104402" lon="9.332065128885457"><ele>476.33333333333337</ele><time>2026-04-05T14:58:47Z</time></trkpt><trkpt lat="44.63134450805708" lon="9.331911519440727"><ele>480.0</ele><time>2026-04-05T14:58:48Z</time></trkpt><trkpt lat="44.631535229143076" lon="9.331741240351464"><ele>480.0</ele><time>2026-04-05T14:58:49Z</time></trkpt><trkpt lat="44.631721858624" lon="9.331552473336622"><ele>480.0</ele><time>2026-04-05T14:58:50Z</time></trkpt><trkpt lat="44.63189949068582" lon="9.331372560667843"><ele>480.0</ele><time>2026-04-05T14:58:51Z</time></trkpt><trkpt lat="44.63206003277321" lon="9.331216679730149"><ele>478.66666666666663</ele><time>2026-04-05T14:58:52Z</time></trkpt><trkpt lat="44.63222855806991" lon="9.33105774452296"><ele>477.3333333333333</ele><time>2026-04-05T14:58:53Z</time></trkpt><trkpt lat="44.632397608537985" lon="9.330863083086605"><ele>476.0</ele><time>2026-04-05T14:58:54Z</time></trkpt><trkpt lat="44.632590404248006" lon="9.330699827393408"><ele>474.66666666666663</ele><time>2026-04-05T14:58:55Z</time></trkpt><trkpt lat="44.63276029849564" lon="9.330534077468984"><ele>473.33333333333337</ele><time>2026-04-05T14:58:56Z</time></trkpt><trkpt lat="44.632943210987634" lon="9.330372400449951"><ele>472.0</ele><time>2026-04-05T14:58:57Z</time></trkpt><trkpt lat="44.63314617338928" lon="9.330200352212096"><ele>472.0</ele><time>2026-04-05T14:58:58Z</time></trkpt><trkpt lat="44.63336429033536" lon="9.33006514613545"><ele>472.0</ele><time>2026-04-05T14:58:59Z</time></trkpt><trkpt lat="44.633570749145434" lon="9.32992996992217"><ele>471.0</ele><time>2026-04-05T14:59:00Z</time></trkpt><trkpt lat="44.6337617291727" lon="9.329789860336811"><ele>470.0</ele><time>2026-04-05T14:59:01Z</time></trkpt><trkpt lat="44.633946621464524" lon="9.32966488234972"><ele>469.0</ele><time>2026-04-05T14:59:02Z</time></trkpt><trkpt lat="44.634122745392" lon="9.329538208343793"><ele>469.0</ele><time>2026-04-05T14:59:03Z</time></trkpt><trkpt lat="44.63429727474181" lon="9.329445267970907"><ele>469.0</ele><time>2026-04-05T14:59:04Z</time></trkpt><trkpt lat="44.63446631023135" lon="9.329311189526857"><ele>469.0</ele><time>2026-04-05T14:59:05Z</time></trkpt><trkpt lat="44.6346281890126" lon="9.329203072222278"><ele>471.6666666666667</ele><time>2026-04-05T14:59:06Z</time></trkpt><trkpt lat="44.63480042890762" lon="9.329104928977786"><ele>474.33333333333337</ele><time>2026-04-05T14:59:07Z</time></trkpt><trkpt lat="44.634960357510906" lon="9.328995924559182"><ele>477.0</ele><time>2026-04-05T14:59:08Z</time></trkpt><trkpt lat="44.63509541474025" lon="9.328901594122925"><ele>473.66666666666663</ele><time>2026-04-05T14:59:09Z</time></trkpt><trkpt lat="44.63522741093265" lon="9.328795842847407"><ele>470.3333333333333</ele><time>2026-04-05T14:59:10Z</time></trkpt><trkpt lat="44.63537655257444" lon="9.32871993129689"><ele>467.0</ele><time>2026-04-05T14:59:11Z</time></trkpt><trkpt lat="44.635527203285626" lon="9.328650898407831"><ele>467.0</ele><time>2026-04-05T14:59:12Z</time></trkpt><trkpt lat="44.63568151613724" lon="9.32859376969233"><ele>467.0</ele><time>2026-04-05T14:59:13Z</time></trkpt><trkpt lat="44.63583509853314" lon="9.32856374520739"><ele>467.0</ele><time>2026-04-05T14:59:14Z</time></trkpt><trkpt lat="44.63599070599539" lon="9.328542272186517"><ele>467.0</ele><time>2026-04-05T14:59:15Z</time></trkpt><trkpt lat="44.63613456599145" lon="9.328546718309148"><ele>467.0</ele><time>2026-04-05T14:59:16Z</time></trkpt><trkpt lat="44.6362818353051" lon="9.328568083431477"><ele>467.0</ele><time>2026-04-05T14:59:17Z</time></trkpt><trkpt lat="44.63642686489859" lon="9.328606370580447"><ele>467.0</ele><time>2026-04-05T14:59:18Z</time></trkpt><trkpt lat="44.636570613241915" lon="9.328660517817276"><ele>467.3333333333333</ele><time>2026-04-05T14:59:19Z</time></trkpt><trkpt lat="44.636715627765426" lon="9.328719964889261"><ele>467.66666666666663</ele><time>2026-04-05T14:59:20Z</time></trkpt><trkpt lat="44.63688680497343" lon="9.328808007066225"><ele>468.0</ele><time>2026-04-05T14:59:20.999Z</time></trkpt><trkpt lat="44.637090743942174" lon="9.328941798048078"><ele>468.0</ele><time>2026-04-05T14:59:21.999Z</time></trkpt><trkpt lat="44.63728642871684" lon="9.329086080476772"><ele>468.0</ele><time>2026-04-05T14:59:22.999Z</time></trkpt><trkpt lat="44.6374590837032" lon="9.329218470618992"><ele>468.0</ele><time>2026-04-05T14:59:23.999Z</time></trkpt><trkpt lat="44.63764167615764" lon="9.32935831983337"><ele>469.66666666666663</ele><time>2026-04-05T14:59:24.999Z</time></trkpt><trkpt lat="44.63782324142264" lon="9.329495610308204"><ele>471.3333333333333</ele><time>2026-04-05T14:59:25.999Z</time></trkpt><trkpt lat="44.63799373306432" lon="9.329609711983974"><ele>473.0</ele><time>2026-04-05T14:59:26.999Z</time></trkpt><trkpt lat="44.638163463149695" lon="9.329732293463426"><ele>473.0</ele><time>2026-04-05T14:59:27.999Z</time></trkpt><trkpt lat="44.63834389855885" lon="9.329848345452215"><ele>473.0</ele><time>2026-04-05T14:59:28.999Z</time></trkpt><trkpt lat="44.63853719238229" lon="9.329956219026748"><ele>473.0</ele><time>2026-04-05T14:59:29.999Z</time></trkpt><trkpt lat="44.63871921557298" lon="9.330031008560331"><ele>469.0</ele><time>2026-04-05T14:59:30.999Z</time></trkpt><trkpt lat="44.63892707414104" lon="9.330062168014905"><ele>465.0</ele><time>2026-04-05T14:59:31.999Z</time></trkpt><trkpt lat="44.63915010048726" lon="9.330059041758236"><ele>461.0</ele><time>2026-04-05T14:59:32.999Z</time></trkpt><trkpt lat="44.63936875035647" lon="9.330025373870559"><ele>460.0</ele><time>2026-04-05T14:59:33.999Z</time></trkpt><trkpt lat="44.63959585309817" lon="9.329965136991163"><ele>459.0</ele><time>2026-04-05T14:59:34.999Z</time></trkpt><trkpt lat="44.639863322096154" lon="9.329884569513505"><ele>459.0</ele><time>2026-04-05T14:59:35.999Z</time></trkpt><trkpt lat="44.64016441475706" lon="9.329794109875044"><ele>459.0</ele><time>2026-04-05T14:59:36.999Z</time></trkpt><trkpt lat="44.64047816086469" lon="9.329700276228158"><ele>461.5</ele><time>2026-04-05T14:59:37.999Z</time></trkpt><trkpt lat="44.64081607983626" lon="9.32961133686683"><ele>464.0</ele><time>2026-04-05T14:59:38.999Z</time></trkpt><trkpt lat="44.64115521566028" lon="9.329531178850127"><ele>464.0</ele><time>2026-04-05T14:59:39.999Z</time></trkpt><trkpt lat="44.64150057902494" lon="9.329448999204166"><ele>464.0</ele><time>2026-04-05T14:59:40.999Z</time></trkpt><trkpt lat="44.64183512048113" lon="9.329360035049152"><ele>462.5</ele><time>2026-04-05T14:59:41.999Z</time></trkpt><trkpt lat="44.64217020276351" lon="9.32926634224211"><ele>461.0</ele><time>2026-04-05T14:59:42.999Z</time></trkpt><trkpt lat="44.64251248889421" lon="9.3291699610126"><ele>460.0</ele><time>2026-04-05T14:59:43.999Z</time></trkpt><trkpt lat="44.642835646360226" lon="9.329076734723149"><ele>459.0</ele><time>2026-04-05T14:59:44.999Z</time></trkpt><trkpt lat="44.64313267015626" lon="9.328989736683155"><ele>459.0</ele><time>2026-04-05T14:59:45.999Z</time></trkpt><trkpt lat="44.64341831804292" lon="9.328934757189428"><ele>459.0</ele><time>2026-04-05T14:59:46.999Z</time></trkpt><trkpt lat="44.643668275670315" lon="9.328857180626096"><ele>464.0</ele><time>2026-04-05T14:59:47.999Z</time></trkpt><trkpt lat="44.643906588515534" lon="9.328792932751357"><ele>469.0</ele><time>2026-04-05T14:59:48.999Z</time></trkpt><trkpt lat="44.6441328827239" lon="9.328734982374169"><ele>469.0</ele><time>2026-04-05T14:59:49.999Z</time></trkpt><trkpt lat="44.644360972576145" lon="9.328681311573298"><ele>469.0</ele><time>2026-04-05T14:59:50.999Z</time></trkpt><trkpt lat="44.64458238815704" lon="9.328624210067616"><ele>468.33333333333337</ele><time>2026-04-05T14:59:51.999Z</time></trkpt><trkpt lat="44.644791849653984" lon="9.32856918670779"><ele>467.66666666666663</ele><time>2026-04-05T14:59:52.999Z</time></trkpt><trkpt lat="44.645015293764246" lon="9.328481303052394"><ele>467.0</ele><time>2026-04-05T14:59:53.999Z</time></trkpt><trkpt lat="44.645250326271984" lon="9.328358109779504"><ele>468.0</ele><time>2026-04-05T14:59:54.999Z</time></trkpt><trkpt lat="44.6455104624843" lon="9.328196717737471"><ele>469.0</ele><time>2026-04-05T14:59:55.999Z</time></trkpt><trkpt lat="44.64576152721824" lon="9.328010681552502"><ele>469.0</ele><time>2026-04-05T14:59:56.999Z</time></trkpt><trkpt lat="44.64600137058893" lon="9.32786144174676"><ele>469.0</ele><time>2026-04-05T14:59:57.999Z</time></trkpt><trkpt lat="44.64622003702877" lon="9.327710858016946"><ele>463.33333333333337</ele><time>2026-04-05T14:59:58.999Z</time></trkpt><trkpt lat="44.64642112274879" lon="9.327550809886086"><ele>457.66666666666663</ele><time>2026-04-05T14:59:59.999Z</time></trkpt><trkpt lat="44.64659800627706" lon="9.327405995752963"><ele>452.0</ele><time>2026-04-05T15:00:00.999Z</time></trkpt><trkpt lat="44.64675309454337" lon="9.327255901892046"><ele>451.0</ele><time>2026-04-05T15:00:01.999Z</time></trkpt><trkpt lat="44.64692947618214" lon="9.327111039030738"><ele>450.0</ele><time>2026-04-05T15:00:02.999Z</time></trkpt><trkpt lat="44.64707975733476" lon="9.326924134408788"><ele>449.0</ele><time>2026-04-05T15:00:03.999Z</time></trkpt><trkpt lat="44.647234100582466" lon="9.326702556579182"><ele>449.0</ele><time>2026-04-05T15:00:04.999Z</time></trkpt><trkpt lat="44.64736881716443" lon="9.326469854128634"><ele>449.0</ele><time>2026-04-05T15:00:05.999Z</time></trkpt><trkpt lat="44.64748409102102" lon="9.326196307105484"><ele>449.0</ele><time>2026-04-05T15:00:06.999Z</time></trkpt><trkpt lat="44.647602247113845" lon="9.32590327375484"><ele>450.0</ele><time>2026-04-05T15:00:07.999Z</time></trkpt><trkpt lat="44.64771098910934" lon="9.325553655695888"><ele>451.0</ele><time>2026-04-05T15:00:08.999Z</time></trkpt><trkpt lat="44.647816131497315" lon="9.325149395657482"><ele>452.5</ele><time>2026-04-05T15:00:09.999Z</time></trkpt><trkpt lat="44.64793002404374" lon="9.324743419264497"><ele>454.0</ele><time>2026-04-05T15:00:10.999Z</time></trkpt><trkpt lat="44.64805300984932" lon="9.324331032454579"><ele>454.0</ele><time>2026-04-05T15:00:11.999Z</time></trkpt><trkpt lat="44.64817003399419" lon="9.32392569262713"><ele>454.0</ele><time>2026-04-05T15:00:12.999Z</time></trkpt><trkpt lat="44.648283214225636" lon="9.323541810666377"><ele>449.5</ele><time>2026-04-05T15:00:13.999Z</time></trkpt><trkpt lat="44.64839215213405" lon="9.323191705518644"><ele>445.0</ele><time>2026-04-05T15:00:14.999Z</time></trkpt><trkpt lat="44.648486792723254" lon="9.322870218229554"><ele>444.6666666666667</ele><time>2026-04-05T15:00:15.999Z</time></trkpt><trkpt lat="44.64857824023679" lon="9.322573972576416"><ele>444.33333333333337</ele><time>2026-04-05T15:00:16.999Z</time></trkpt><trkpt lat="44.64868860488408" lon="9.322307047608863"><ele>444.0</ele><time>2026-04-05T15:00:17.999Z</time></trkpt><trkpt lat="44.64880369297151" lon="9.322030067834666"><ele>446.66666666666663</ele><time>2026-04-05T15:00:18.999Z</time></trkpt><trkpt lat="44.648934250222986" lon="9.32176722716006"><ele>449.3333333333333</ele><time>2026-04-05T15:00:19.999Z</time></trkpt><trkpt lat="44.6490474831536" lon="9.321548856935436"><ele>452.0</ele><time>2026-04-05T15:00:20.999Z</time></trkpt><trkpt lat="44.649145080852094" lon="9.321353975439386"><ele>452.0</ele><time>2026-04-05T15:00:22Z</time></trkpt><trkpt lat="44.64922930017289" lon="9.32118259578792"><ele>452.0</ele><time>2026-04-05T15:00:23Z</time></trkpt><trkpt lat="44.64930581034317" lon="9.32103350567958"><ele>452.0</ele><time>2026-04-05T15:00:24Z</time></trkpt><trkpt lat="44.64938515623666" lon="9.320910841455468"><ele>452.0</ele><time>2026-04-05T15:00:25Z</time></trkpt><trkpt lat="44.649505020265146" lon="9.320807804335024"><ele>450.3333333333333</ele><time>2026-04-05T15:00:26Z</time></trkpt><trkpt lat="44.64968114781693" lon="9.3206974111487"><ele>448.66666666666663</ele><time>2026-04-05T15:00:27Z</time></trkpt><trkpt lat="44.64983731528746" lon="9.320597232013178"><ele>447.0</ele><time>2026-04-05T15:00:28Z</time></trkpt><trkpt lat="44.64996105748891" lon="9.320520342032065"><ele>447.0</ele><time>2026-04-05T15:00:29Z</time></trkpt><trkpt lat="44.65005982975062" lon="9.32046730582293"><ele>447.00000000000006</ele><time>2026-04-05T15:00:30Z</time></trkpt><trkpt lat="44.65014254587682" lon="9.320442385555449"><ele>447.00000000000006</ele><time>2026-04-05T15:00:31Z</time></trkpt><trkpt lat="44.65022121884884" lon="9.32050760907591"><ele>447.0</ele><time>2026-04-05T15:00:32Z</time></trkpt><trkpt lat="44.650272496817806" lon="9.320613618822835"><ele>447.0</ele><time>2026-04-05T15:00:33Z</time></trkpt><trkpt lat="44.65029459117662" lon="9.320750721568984"><ele>452.5</ele><time>2026-04-05T15:00:34Z</time></trkpt><trkpt lat="44.65031601270526" lon="9.320907996640504"><ele>458.0</ele><time>2026-04-05T15:00:35Z</time></trkpt><trkpt lat="44.650387128887" lon="9.32103020472763"><ele>463.5</ele><time>2026-04-05T15:00:36Z</time></trkpt><trkpt lat="44.65049911950141" lon="9.321123400812894"><ele>469.0</ele><time>2026-04-05T15:00:37Z</time></trkpt><trkpt lat="44.65064155223826" lon="9.321232451427411"><ele>469.0</ele><time>2026-04-05T15:00:38Z</time></trkpt><trkpt lat="44.65078681061242" lon="9.321294330296531"><ele>469.0</ele><time>2026-04-05T15:00:39Z</time></trkpt><trkpt lat="44.65090680008316" lon="9.321318516694792"><ele>469.0</ele><time>2026-04-05T15:00:40Z</time></trkpt><trkpt lat="44.65099215885163" lon="9.321356230016162"><ele>469.0</ele><time>2026-04-05T15:00:41Z</time></trkpt><trkpt lat="44.65109026324337" lon="9.321536086310381"><ele>471.25</ele><time>2026-04-05T15:00:42Z</time></trkpt><trkpt lat="44.651190902822115" lon="9.321709559191598"><ele>473.5</ele><time>2026-04-05T15:00:43Z</time></trkpt><trkpt lat="44.65123984598511" lon="9.32177231906066"><ele>475.75</ele><time>2026-04-05T15:00:44Z</time></trkpt><trkpt lat="44.65134237751545" lon="9.321850108926098"><ele>478.0</ele><time>2026-04-05T15:00:45Z</time></trkpt><trkpt lat="44.651468966546624" lon="9.32175391251477"><ele>478.0</ele><time>2026-04-05T15:00:46Z</time></trkpt><trkpt lat="44.65153954435317" lon="9.321705170480806"><ele>477.99999999999994</ele><time>2026-04-05T15:00:47Z</time></trkpt><trkpt lat="44.65155256751419" lon="9.321579828225557"><ele>477.99999999999994</ele><time>2026-04-05T15:00:48Z</time></trkpt><trkpt lat="44.65159417412973" lon="9.321442279649094"><ele>478.0</ele><time>2026-04-05T15:00:49Z</time></trkpt><trkpt lat="44.65162755812674" lon="9.321223285285456"><ele>478.0</ele><time>2026-04-05T15:00:50Z</time></trkpt><trkpt lat="44.651677822846295" lon="9.321083933135954"><ele>478.0</ele><time>2026-04-05T15:00:51Z</time></trkpt><trkpt lat="44.651703682103665" lon="9.32095942559132"><ele>477.99999999999994</ele><time>2026-04-05T15:00:52Z</time></trkpt><trkpt lat="44.65162325834331" lon="9.320843069791675"><ele>477.99999999999994</ele><time>2026-04-05T15:00:53Z</time></trkpt><trkpt lat="44.65153469875594" lon="9.320740365143733"><ele>478.0</ele><time>2026-04-05T15:00:54Z</time></trkpt><trkpt lat="44.651429534791035" lon="9.320644649467857"><ele>478.0</ele><time>2026-04-05T15:00:55Z</time></trkpt><trkpt lat="44.65132136163887" lon="9.320600638274136"><ele>478.0</ele><time>2026-04-05T15:00:56Z</time></trkpt><trkpt lat="44.65125426123817" lon="9.320570326779183"><ele>477.99999999999994</ele><time>2026-04-05T15:00:57Z</time></trkpt><trkpt lat="44.65117991495645" lon="9.320486725259244"><ele>477.99999999999994</ele><time>2026-04-05T15:00:59Z</time></trkpt><trkpt lat="44.65119058204151" lon="9.320366401813619"><ele>478.0</ele><time>2026-04-05T15:01:00Z</time></trkpt><trkpt lat="44.651273683183646" lon="9.320253378067985"><ele>478.0</ele><time>2026-04-05T15:01:01Z</time></trkpt><trkpt lat="44.65136395468688" lon="9.32019253842433"><ele>481.4</ele><time>2026-04-05T15:01:02Z</time></trkpt><trkpt lat="44.65140068988177" lon="9.32010182486319"><ele>484.79999999999995</ele><time>2026-04-05T15:01:03Z</time></trkpt><trkpt lat="44.65144716124752" lon="9.319983587933145"><ele>488.2</ele><time>2026-04-05T15:01:05Z</time></trkpt><trkpt lat="44.65139724199455" lon="9.319851567264886"><ele>491.6</ele><time>2026-04-05T15:01:06Z</time></trkpt><trkpt lat="44.65135524165049" lon="9.31971823618082"><ele>495.0</ele><time>2026-04-05T15:01:07Z</time></trkpt><trkpt lat="44.651321974817606" lon="9.31957906911119"><ele>500.66666666666663</ele><time>2026-04-05T15:01:08Z</time></trkpt><trkpt lat="44.651284189546125" lon="9.319386038679562"><ele>506.3333333333333</ele><time>2026-04-05T15:01:09Z</time></trkpt><trkpt lat="44.65126878555444" lon="9.31916826009484"><ele>512.0</ele><time>2026-04-05T15:01:10Z</time></trkpt><trkpt lat="44.651253675444714" lon="9.318931311678622"><ele>512.0</ele><time>2026-04-05T15:01:11Z</time></trkpt><trkpt lat="44.65123563180496" lon="9.318750818492463"><ele>512.0</ele><time>2026-04-05T15:01:12Z</time></trkpt><trkpt lat="44.651236465125976" lon="9.318598139113453"><ele>512.0</ele><time>2026-04-05T15:01:13Z</time></trkpt><trkpt lat="44.651233643867606" lon="9.318475258735566"><ele>512.0</ele><time>2026-04-05T15:01:14Z</time></trkpt><trkpt lat="44.65122348350849" lon="9.318334931786735"><ele>512.0</ele><time>2026-04-05T15:01:15Z</time></trkpt><trkpt lat="44.65127497049784" lon="9.318160010902396"><ele>508.25</ele><time>2026-04-05T15:01:16Z</time></trkpt><trkpt lat="44.651342553692885" lon="9.3179800531655"><ele>504.5</ele><time>2026-04-05T15:01:17Z</time></trkpt><trkpt lat="44.65138215313156" lon="9.3177697975476"><ele>500.75</ele><time>2026-04-05T15:01:18Z</time></trkpt><trkpt lat="44.651405133284406" lon="9.31757359801079"><ele>497.0</ele><time>2026-04-05T15:01:19Z</time></trkpt><trkpt lat="44.651402829455215" lon="9.317409977828765"><ele>497.0</ele><time>2026-04-05T15:01:20Z</time></trkpt><trkpt lat="44.651428896946165" lon="9.31726840723765"><ele>497.0</ele><time>2026-04-05T15:01:21Z</time></trkpt><trkpt lat="44.651514122405125" lon="9.31717400049441"><ele>497.0</ele><time>2026-04-05T15:01:22Z</time></trkpt><trkpt lat="44.65165633352914" lon="9.317143599027515"><ele>497.0</ele><time>2026-04-05T15:01:23Z</time></trkpt><trkpt lat="44.65175742878778" lon="9.317077312046203"><ele>494.75</ele><time>2026-04-05T15:01:24Z</time></trkpt><trkpt lat="44.65183289736037" lon="9.316980905797378"><ele>492.5</ele><time>2026-04-05T15:01:24.999Z</time></trkpt><trkpt lat="44.65191496417602" lon="9.316850568952805"><ele>490.25</ele><time>2026-04-05T15:01:25.999Z</time></trkpt><trkpt lat="44.65195940498865" lon="9.31667757667523"><ele>488.0</ele><time>2026-04-05T15:01:26.999Z</time></trkpt><trkpt lat="44.65202372387236" lon="9.316560877619136"><ele>490.0</ele><time>2026-04-05T15:01:27.999Z</time></trkpt><trkpt lat="44.65215295730512" lon="9.316485152572554"><ele>492.0</ele><time>2026-04-05T15:01:28.999Z</time></trkpt><trkpt lat="44.652290840895596" lon="9.316431795189317"><ele>494.0</ele><time>2026-04-05T15:01:29.999Z</time></trkpt><trkpt lat="44.652406223748166" lon="9.316351078570108"><ele>496.0</ele><time>2026-04-05T15:01:30.999Z</time></trkpt><trkpt lat="44.65250709294658" lon="9.316240394392638"><ele>496.0</ele><time>2026-04-05T15:01:31.999Z</time></trkpt><trkpt lat="44.652592488900126" lon="9.316107672012489"><ele>496.0</ele><time>2026-04-05T15:01:32.999Z</time></trkpt><trkpt lat="44.65264822135725" lon="9.315978919562031"><ele>496.0</ele><time>2026-04-05T15:01:33.999Z</time></trkpt><trkpt lat="44.65268023882985" lon="9.315848962292867"><ele>496.0</ele><time>2026-04-05T15:01:34.999Z</time></trkpt><trkpt lat="44.65281594939952" lon="9.31582660540829"><ele>500.0</ele><time>2026-04-05T15:01:35.999Z</time></trkpt><trkpt lat="44.65297952266681" lon="9.315807406265288"><ele>504.0</ele><time>2026-04-05T15:01:36.999Z</time></trkpt><trkpt lat="44.65312664106393" lon="9.315761609157638"><ele>508.0</ele><time>2026-04-05T15:01:37.999Z</time></trkpt><trkpt lat="44.65325088984357" lon="9.31571961964817"><ele>512.0</ele><time>2026-04-05T15:01:38.999Z</time></trkpt><trkpt lat="44.65337915864346" lon="9.315702398087266"><ele>512.0</ele><time>2026-04-05T15:01:39.999Z</time></trkpt><trkpt lat="44.653468179582255" lon="9.315581861326722"><ele>512.0</ele><time>2026-04-05T15:01:40.999Z</time></trkpt><trkpt lat="44.653544469834465" lon="9.315438806777621"><ele>512.0</ele><time>2026-04-05T15:01:41.999Z</time></trkpt><trkpt lat="44.65355170176674" lon="9.31523614002486"><ele>512.0</ele><time>2026-04-05T15:01:42.999Z</time></trkpt><trkpt lat="44.65360399743976" lon="9.315146877689006"><ele>513.0</ele><time>2026-04-05T15:01:43.999Z</time></trkpt><trkpt lat="44.65371286263599" lon="9.315116967785317"><ele>514.0</ele><time>2026-04-05T15:01:44.999Z</time></trkpt><trkpt lat="44.65383320594643" lon="9.315092798594884"><ele>515.0</ele><time>2026-04-05T15:01:45.999Z</time></trkpt><trkpt lat="44.65396874592511" lon="9.315059614306715"><ele>516.0</ele><time>2026-04-05T15:01:46.999Z</time></trkpt><trkpt lat="44.65413856726146" lon="9.315013618385331"><ele>516.0</ele><time>2026-04-05T15:01:47.999Z</time></trkpt><trkpt lat="44.65426584405986" lon="9.314972816222815"><ele>516.0</ele><time>2026-04-05T15:01:48.999Z</time></trkpt><trkpt lat="44.65437568199039" lon="9.314923810325867"><ele>516.0</ele><time>2026-04-05T15:01:49.999Z</time></trkpt><trkpt lat="44.654451040033486" lon="9.314758944180786"><ele>516.0</ele><time>2026-04-05T15:01:51.999Z</time></trkpt><trkpt lat="44.65449536398581" lon="9.314610536080522"><ele>515.5</ele><time>2026-04-05T15:01:52.999Z</time></trkpt><trkpt lat="44.65450525079332" lon="9.314451120563652"><ele>515.0</ele><time>2026-04-05T15:01:53.999Z</time></trkpt><trkpt lat="44.65450866103181" lon="9.314294706450553"><ele>514.5</ele><time>2026-04-05T15:01:54.999Z</time></trkpt><trkpt lat="44.654421242217005" lon="9.314093429722028"><ele>514.0</ele><time>2026-04-05T15:01:55.999Z</time></trkpt><trkpt lat="44.654286086915384" lon="9.313872071132717"><ele>515.5</ele><time>2026-04-05T15:01:56.999Z</time></trkpt><trkpt lat="44.654169009252904" lon="9.31376181923821"><ele>517.0</ele><time>2026-04-05T15:01:57.999Z</time></trkpt><trkpt lat="44.65407241724382" lon="9.3136535149468"><ele>518.5</ele><time>2026-04-05T15:01:58.999Z</time></trkpt><trkpt lat="44.65398934741943" lon="9.313555785553191"><ele>520.0</ele><time>2026-04-05T15:01:59.999Z</time></trkpt><trkpt lat="44.65395745067407" lon="9.313448796626874"><ele>520.0</ele><time>2026-04-05T15:02:00.999Z</time></trkpt><trkpt lat="44.6539898596461" lon="9.313312193451978"><ele>520.0</ele><time>2026-04-05T15:02:01.999Z</time></trkpt><trkpt lat="44.65409314683396" lon="9.313227031944898"><ele>520.0</ele><time>2026-04-05T15:02:02.999Z</time></trkpt><trkpt lat="44.65421848413895" lon="9.313084672587335"><ele>520.0</ele><time>2026-04-05T15:02:03.999Z</time></trkpt><trkpt lat="44.65433090336052" lon="9.31288931885142"><ele>518.3333333333334</ele><time>2026-04-05T15:02:04.999Z</time></trkpt><trkpt lat="44.654422637468954" lon="9.312679390210798"><ele>516.6666666666666</ele><time>2026-04-05T15:02:05.999Z</time></trkpt><trkpt lat="44.65449557317201" lon="9.312504077115944"><ele>515.0</ele><time>2026-04-05T15:02:06.999Z</time></trkpt><trkpt lat="44.65458708741805" lon="9.31236497673321"><ele>517.2</ele><time>2026-04-05T15:02:07.999Z</time></trkpt><trkpt lat="44.65470553039892" lon="9.312290417344123"><ele>519.4</ele><time>2026-04-05T15:02:08.999Z</time></trkpt><trkpt lat="44.65482362737099" lon="9.312240613901002"><ele>521.6</ele><time>2026-04-05T15:02:09.999Z</time></trkpt><trkpt lat="44.65491030860424" lon="9.312246287983495"><ele>523.8</ele><time>2026-04-05T15:02:10.999Z</time></trkpt><trkpt lat="44.65498343708201" lon="9.312316812352295"><ele>526.0</ele><time>2026-04-05T15:02:11.999Z</time></trkpt><trkpt lat="44.65516497960337" lon="9.31235238448078"><ele>526.6666666666667</ele><time>2026-04-05T15:02:12.999Z</time></trkpt><trkpt lat="44.65531596471255" lon="9.312488252917552"><ele>527.3333333333334</ele><time>2026-04-05T15:02:13.999Z</time></trkpt><trkpt lat="44.655468458671464" lon="9.31254763367704"><ele>528.0</ele><time>2026-04-05T15:02:14.999Z</time></trkpt><trkpt lat="44.65563077878727" lon="9.312578875480645"><ele>528.0</ele><time>2026-04-05T15:02:15.999Z</time></trkpt><trkpt lat="44.65578377664184" lon="9.31258135531035"><ele>528.0</ele><time>2026-04-05T15:02:16.999Z</time></trkpt><trkpt lat="44.65592652020349" lon="9.312700602480756"><ele>528.0</ele><time>2026-04-05T15:02:17.999Z</time></trkpt><trkpt lat="44.65601799638667" lon="9.312693747633743"><ele>528.0</ele><time>2026-04-05T15:02:18.999Z</time></trkpt><trkpt lat="44.65613223708031" lon="9.312692075202762"><ele>528.0</ele><time>2026-04-05T15:02:19.999Z</time></trkpt><trkpt lat="44.65618942657429" lon="9.312279951081637"><ele>528.0</ele><time>2026-04-05T15:02:20.999Z</time></trkpt><trkpt lat="44.656256014670376" lon="9.312208909715329"><ele>528.0</ele><time>2026-04-05T15:02:21.999Z</time></trkpt><trkpt lat="44.656371827608616" lon="9.312278342212405"><ele>528.0</ele><time>2026-04-05T15:02:23.999Z</time></trkpt><trkpt lat="44.65645398070625" lon="9.31244477372356"><ele>528.0</ele><time>2026-04-05T15:02:24.999Z</time></trkpt><trkpt lat="44.65657767483586" lon="9.312614191266796"><ele>528.0</ele><time>2026-04-05T15:02:25.999Z</time></trkpt><trkpt lat="44.656714762863665" lon="9.312732210269267"><ele>528.0</ele><time>2026-04-05T15:02:26.999Z</time></trkpt><trkpt lat="44.656776023661855" lon="9.312858066133158"><ele>528.0</ele><time>2026-04-05T15:02:28Z</time></trkpt><trkpt lat="44.656874491665185" lon="9.31295114012412"><ele>528.0</ele><time>2026-04-05T15:02:29Z</time></trkpt><trkpt lat="44.656957014646366" lon="9.3129694371022"><ele>528.0</ele><time>2026-04-05T15:02:30Z</time></trkpt><trkpt lat="44.657060731958076" lon="9.312988415588174"><ele>528.0</ele><time>2026-04-05T15:02:31Z</time></trkpt><trkpt lat="44.65721998770755" lon="9.312923467894393"><ele>527.0</ele><time>2026-04-05T15:02:32Z</time></trkpt><trkpt lat="44.657377600697444" lon="9.312835992317812"><ele>526.0</ele><time>2026-04-05T15:02:33Z</time></trkpt><trkpt lat="44.65761778470696" lon="9.312767284069556"><ele>525.0</ele><time>2026-04-05T15:02:34Z</time></trkpt><trkpt lat="44.6578847702538" lon="9.312608100536742"><ele>520.5</ele><time>2026-04-05T15:02:35Z</time></trkpt><trkpt lat="44.65813067180841" lon="9.312388368850698"><ele>516.0</ele><time>2026-04-05T15:02:36Z</time></trkpt><trkpt lat="44.65841215863411" lon="9.312177898796657"><ele>525.0</ele><time>2026-04-05T15:02:37Z</time></trkpt><trkpt lat="44.65867942022094" lon="9.311991750457745"><ele>534.0</ele><time>2026-04-05T15:02:38Z</time></trkpt><trkpt lat="44.65893069340056" lon="9.311825981736552"><ele>534.0</ele><time>2026-04-05T15:02:39Z</time></trkpt><trkpt lat="44.65915835424348" lon="9.311682618972783"><ele>534.0</ele><time>2026-04-05T15:02:40Z</time></trkpt><trkpt lat="44.659374886309955" lon="9.311557951253317"><ele>534.0</ele><time>2026-04-05T15:02:41Z</time></trkpt><trkpt lat="44.659554788863936" lon="9.311448450214236"><ele>534.0</ele><time>2026-04-05T15:02:42Z</time></trkpt><trkpt lat="44.65970855394617" lon="9.311361195168242"><ele>534.0</ele><time>2026-04-05T15:02:43Z</time></trkpt><trkpt lat="44.659824316514516" lon="9.311257095234573"><ele>534.0</ele><time>2026-04-05T15:02:44Z</time></trkpt><trkpt lat="44.65995122691142" lon="9.31111011545671"><ele>534.0</ele><time>2026-04-05T15:02:45Z</time></trkpt><trkpt lat="44.659981070983754" lon="9.310936634805572"><ele>534.0</ele><time>2026-04-05T15:02:46Z</time></trkpt><trkpt lat="44.66012229003319" lon="9.310829850919719"><ele>534.0</ele><time>2026-04-05T15:02:47Z</time></trkpt><trkpt lat="44.660257170779694" lon="9.310749365793049"><ele>534.0</ele><time>2026-04-05T15:02:48Z</time></trkpt><trkpt lat="44.66037917696283" lon="9.31067888014672"><ele>534.0</ele><time>2026-04-05T15:02:49Z</time></trkpt><trkpt lat="44.660443589916014" lon="9.310626363229792"><ele>534.0</ele><time>2026-04-05T15:02:50Z</time></trkpt><trkpt lat="44.66051598431547" lon="9.310548215656219"><ele>534.0</ele><time>2026-04-05T15:02:51Z</time></trkpt><trkpt lat="44.660584104301755" lon="9.31042169128288"><ele>534.0</ele><time>2026-04-05T15:02:52Z</time></trkpt><trkpt lat="44.66065341647035" lon="9.310288913811872"><ele>534.0</ele><time>2026-04-05T15:02:53Z</time></trkpt><trkpt lat="44.660662303997206" lon="9.310124372318267"><ele>534.0</ele><time>2026-04-05T15:02:54Z</time></trkpt><trkpt lat="44.66071622222081" lon="9.309991880960693"><ele>534.0</ele><time>2026-04-05T15:02:55Z</time></trkpt><trkpt lat="44.66079816745361" lon="9.309920293723996"><ele>534.0</ele><time>2026-04-05T15:02:56Z</time></trkpt><trkpt lat="44.66089166758426" lon="9.30991451689218"><ele>534.0</ele><time>2026-04-05T15:02:57Z</time></trkpt><trkpt lat="44.66097106188613" lon="9.31015466517451"><ele>534.0</ele><time>2026-04-05T15:02:58Z</time></trkpt><trkpt lat="44.661022214829345" lon="9.310334329826865"><ele>534.0</ele><time>2026-04-05T15:02:59Z</time></trkpt><trkpt lat="44.66106294074959" lon="9.310521710406164"><ele>533.6666666666666</ele><time>2026-04-05T15:03:00Z</time></trkpt><trkpt lat="44.66109537419371" lon="9.31074580527961"><ele>533.3333333333333</ele><time>2026-04-05T15:03:01Z</time></trkpt><trkpt lat="44.66111925531729" lon="9.310965236709523"><ele>533.0</ele><time>2026-04-05T15:03:02Z</time></trkpt><trkpt lat="44.66114812562728" lon="9.311239709661626"><ele>534.3333333333333</ele><time>2026-04-05T15:03:03Z</time></trkpt><trkpt lat="44.66120781850183" lon="9.31150268502551"><ele>535.6666666666666</ele><time>2026-04-05T15:03:04Z</time></trkpt><trkpt lat="44.66123187386914" lon="9.311737627408386"><ele>537.0</ele><time>2026-04-05T15:03:05Z</time></trkpt><trkpt lat="44.66129966478659" lon="9.312005651010782"><ele>540.0</ele><time>2026-04-05T15:03:06Z</time></trkpt><trkpt lat="44.66142203749827" lon="9.31226019096648"><ele>543.0</ele><time>2026-04-05T15:03:07Z</time></trkpt><trkpt lat="44.661497114221376" lon="9.312524344263249"><ele>546.0</ele><time>2026-04-05T15:03:08Z</time></trkpt><trkpt lat="44.66157283775507" lon="9.312755231668739"><ele>546.0</ele><time>2026-04-05T15:03:09Z</time></trkpt><trkpt lat="44.66166436709528" lon="9.312947493628757"><ele>546.0</ele><time>2026-04-05T15:03:10Z</time></trkpt><trkpt lat="44.661706728601715" lon="9.313108878362023"><ele>546.0</ele><time>2026-04-05T15:03:11Z</time></trkpt><trkpt lat="44.66179339912974" lon="9.313244127893986"><ele>546.0</ele><time>2026-04-05T15:03:12Z</time></trkpt><trkpt lat="44.66181699466883" lon="9.313352422561568"><ele>549.0</ele><time>2026-04-05T15:03:13Z</time></trkpt><trkpt lat="44.66185290289594" lon="9.313451773156988"><ele>552.0</ele><time>2026-04-05T15:03:14Z</time></trkpt><trkpt lat="44.661898948483056" lon="9.313538603357909"><ele>555.0</ele><time>2026-04-05T15:03:15Z</time></trkpt><trkpt lat="44.66198322517903" lon="9.313550269784223"><ele>558.0</ele><time>2026-04-05T15:03:16Z</time></trkpt><trkpt lat="44.66209528938102" lon="9.313520680809848"><ele>561.0</ele><time>2026-04-05T15:03:17Z</time></trkpt><trkpt lat="44.66225463497035" lon="9.313452676616489"><ele>561.0</ele><time>2026-04-05T15:03:18Z</time></trkpt><trkpt lat="44.66246899079742" lon="9.313268921890852"><ele>561.0</ele><time>2026-04-05T15:03:19Z</time></trkpt><trkpt lat="44.66253492603358" lon="9.313084686192072"><ele>561.0</ele><time>2026-04-05T15:03:20Z</time></trkpt><trkpt lat="44.662585743657644" lon="9.312917929723705"><ele>563.25</ele><time>2026-04-05T15:03:21Z</time></trkpt><trkpt lat="44.662638104483044" lon="9.312756205040207"><ele>565.5</ele><time>2026-04-05T15:03:22Z</time></trkpt><trkpt lat="44.66270160629039" lon="9.312621592759566"><ele>567.75</ele><time>2026-04-05T15:03:23Z</time></trkpt><trkpt lat="44.6627867510734" lon="9.312499101230863"><ele>570.0</ele><time>2026-04-05T15:03:24Z</time></trkpt><trkpt lat="44.66294931480934" lon="9.312347649494612"><ele>560.3333333333334</ele><time>2026-04-05T15:03:25Z</time></trkpt><trkpt lat="44.663127114879195" lon="9.312174940497007"><ele>550.6666666666667</ele><time>2026-04-05T15:03:26Z</time></trkpt><trkpt lat="44.6633358313139" lon="9.312039907359726"><ele>541.0</ele><time>2026-04-05T15:03:27Z</time></trkpt><trkpt lat="44.66351545789835" lon="9.311907238075795"><ele>550.6666666666667</ele><time>2026-04-05T15:03:28Z</time></trkpt><trkpt lat="44.66366731950969" lon="9.311788431243693"><ele>560.3333333333334</ele><time>2026-04-05T15:03:28.999Z</time></trkpt><trkpt lat="44.663802500258164" lon="9.311642616550445"><ele>570.0</ele><time>2026-04-05T15:03:29.999Z</time></trkpt><trkpt lat="44.663900726018284" lon="9.311519904572739"><ele>570.0</ele><time>2026-04-05T15:03:30.999Z</time></trkpt><trkpt lat="44.66397893264515" lon="9.311412401585395"><ele>570.0</ele><time>2026-04-05T15:03:31.999Z</time></trkpt><trkpt lat="44.66410673169879" lon="9.311362246320527"><ele>570.0</ele><time>2026-04-05T15:03:32.999Z</time></trkpt><trkpt lat="44.664280810460745" lon="9.311292213849446"><ele>570.0</ele><time>2026-04-05T15:03:33.999Z</time></trkpt><trkpt lat="44.66445515547998" lon="9.311226406060126"><ele>564.25</ele><time>2026-04-05T15:03:34.999Z</time></trkpt><trkpt lat="44.664595529872095" lon="9.311201570762332"><ele>558.5</ele><time>2026-04-05T15:03:35.999Z</time></trkpt><trkpt lat="44.6647189988062" lon="9.31119103405365"><ele>552.75</ele><time>2026-04-05T15:03:36.999Z</time></trkpt><trkpt lat="44.66484048931952" lon="9.311208580541592"><ele>547.0</ele><time>2026-04-05T15:03:37.999Z</time></trkpt><trkpt lat="44.664979367996736" lon="9.311309409110125"><ele>547.0</ele><time>2026-04-05T15:03:38.999Z</time></trkpt><trkpt lat="44.665084751414696" lon="9.311398038551078"><ele>547.0</ele><time>2026-04-05T15:03:39.999Z</time></trkpt><trkpt lat="44.665207688340104" lon="9.311525125732835"><ele>547.0</ele><time>2026-04-05T15:03:40.999Z</time></trkpt><trkpt lat="44.66531162717284" lon="9.311659853561114"><ele>547.0</ele><time>2026-04-05T15:03:41.999Z</time></trkpt><trkpt lat="44.66540664003923" lon="9.311840994193982"><ele>545.0</ele><time>2026-04-05T15:03:42.999Z</time></trkpt><trkpt lat="44.66549698030844" lon="9.312007668946489"><ele>543.0</ele><time>2026-04-05T15:03:43.999Z</time></trkpt><trkpt lat="44.66552201183218" lon="9.31220761712644"><ele>541.0</ele><time>2026-04-05T15:03:44.999Z</time></trkpt><trkpt lat="44.66560625835051" lon="9.312382488538862"><ele>539.0</ele><time>2026-04-05T15:03:45.999Z</time></trkpt><trkpt lat="44.66567308700565" lon="9.312455121195478"><ele>543.75</ele><time>2026-04-05T15:03:46.999Z</time></trkpt><trkpt lat="44.665762680526086" lon="9.312572672436547"><ele>548.5</ele><time>2026-04-05T15:03:47.999Z</time></trkpt><trkpt lat="44.66586180236935" lon="9.312655047950281"><ele>553.25</ele><time>2026-04-05T15:03:48.999Z</time></trkpt><trkpt lat="44.665995450216826" lon="9.31270002962122"><ele>558.0</ele><time>2026-04-05T15:03:49.999Z</time></trkpt><trkpt lat="44.6661011116256" lon="9.312770489324054"><ele>560.6</ele><time>2026-04-05T15:03:50.999Z</time></trkpt><trkpt lat="44.66613349485597" lon="9.312929253938382"><ele>563.1999999999999</ele><time>2026-04-05T15:03:51.999Z</time></trkpt><trkpt lat="44.66620128035479" lon="9.313047609300563"><ele>565.8</ele><time>2026-04-05T15:03:52.999Z</time></trkpt><trkpt lat="44.66628793985086" lon="9.313149121338407"><ele>568.4</ele><time>2026-04-05T15:03:53.999Z</time></trkpt><trkpt lat="44.66636867060645" lon="9.313208775927489"><ele>571.0</ele><time>2026-04-05T15:03:54.999Z</time></trkpt><trkpt lat="44.66645383859589" lon="9.313218149587406"><ele>571.0</ele><time>2026-04-05T15:03:55.999Z</time></trkpt><trkpt lat="44.666543921736135" lon="9.31316580730596"><ele>571.0</ele><time>2026-04-05T15:03:56.999Z</time></trkpt><trkpt lat="44.66673417161385" lon="9.31309913549989"><ele>571.0</ele><time>2026-04-05T15:03:57.999Z</time></trkpt><trkpt lat="44.666938759424355" lon="9.31303428225652"><ele>567.75</ele><time>2026-04-05T15:03:58.999Z</time></trkpt><trkpt lat="44.66711763997922" lon="9.312978169677754"><ele>564.5</ele><time>2026-04-05T15:03:59.999Z</time></trkpt><trkpt lat="44.66723553514112" lon="9.312940964267982"><ele>561.25</ele><time>2026-04-05T15:04:00.999Z</time></trkpt><trkpt lat="44.66733836973331" lon="9.312851772302443"><ele>558.0</ele><time>2026-04-05T15:04:01.999Z</time></trkpt><trkpt lat="44.667419112670586" lon="9.312697847660168"><ele>558.0</ele><time>2026-04-05T15:04:02.999Z</time></trkpt><trkpt lat="44.66750264576183" lon="9.31250502637781"><ele>558.0</ele><time>2026-04-05T15:04:03.999Z</time></trkpt><trkpt lat="44.66761305590389" lon="9.312260644447402"><ele>558.0</ele><time>2026-04-05T15:04:04.999Z</time></trkpt><trkpt lat="44.66771140873953" lon="9.312086590329441"><ele>555.1999999999999</ele><time>2026-04-05T15:04:05.999Z</time></trkpt><trkpt lat="44.66773563512894" lon="9.311943024828489"><ele>552.4</ele><time>2026-04-05T15:04:06.999Z</time></trkpt><trkpt lat="44.66779050948453" lon="9.311887803772398"><ele>549.5999999999999</ele><time>2026-04-05T15:04:07.999Z</time></trkpt><trkpt lat="44.66786687217451" lon="9.311861192557593"><ele>546.8</ele><time>2026-04-05T15:04:08.999Z</time></trkpt><trkpt lat="44.66796518058983" lon="9.311880890294251"><ele>544.0</ele><time>2026-04-05T15:04:09.999Z</time></trkpt><trkpt lat="44.66805837279605" lon="9.31193923162408"><ele>544.0</ele><time>2026-04-05T15:04:10.999Z</time></trkpt><trkpt lat="44.66816296730768" lon="9.312058974708053"><ele>544.0</ele><time>2026-04-05T15:04:11.999Z</time></trkpt><trkpt lat="44.66829801892641" lon="9.312164841477774"><ele>544.0</ele><time>2026-04-05T15:04:12.999Z</time></trkpt><trkpt lat="44.668428824309274" lon="9.312238414460047"><ele>544.0</ele><time>2026-04-05T15:04:13.999Z</time></trkpt><trkpt lat="44.66856507349492" lon="9.312238264657505"><ele>549.0</ele><time>2026-04-05T15:04:14.999Z</time></trkpt><trkpt lat="44.66870484462255" lon="9.312194506129686"><ele>554.0</ele><time>2026-04-05T15:04:15.999Z</time></trkpt><trkpt lat="44.668798031816436" lon="9.312141742307738"><ele>559.0</ele><time>2026-04-05T15:04:16.999Z</time></trkpt><trkpt lat="44.668912954294285" lon="9.311916225357672"><ele>564.0</ele><time>2026-04-05T15:04:17.999Z</time></trkpt><trkpt lat="44.668987308557604" lon="9.311728977752772"><ele>564.0</ele><time>2026-04-05T15:04:18.999Z</time></trkpt><trkpt lat="44.66898587728628" lon="9.311460524254349"><ele>564.0</ele><time>2026-04-05T15:04:19.999Z</time></trkpt><trkpt lat="44.66899142214816" lon="9.311220371591181"><ele>564.0</ele><time>2026-04-05T15:04:20.999Z</time></trkpt><trkpt lat="44.66901530118221" lon="9.311130949652828"><ele>564.0</ele><time>2026-04-05T15:04:21.999Z</time></trkpt><trkpt lat="44.66904240700216" lon="9.310999758171755"><ele>567.5</ele><time>2026-04-05T15:04:22.999Z</time></trkpt><trkpt lat="44.66913103061465" lon="9.310909472936734"><ele>571.0</ele><time>2026-04-05T15:04:23.999Z</time></trkpt><trkpt lat="44.66924836574095" lon="9.310876083777462"><ele>574.5</ele><time>2026-04-05T15:04:24.999Z</time></trkpt><trkpt lat="44.669384615678844" lon="9.310860944138673"><ele>578.0</ele><time>2026-04-05T15:04:25.999Z</time></trkpt><trkpt lat="44.66951460012375" lon="9.310842695102428"><ele>578.0</ele><time>2026-04-05T15:04:26.999Z</time></trkpt><trkpt lat="44.66963591311068" lon="9.310796642042613"><ele>578.0</ele><time>2026-04-05T15:04:27.999Z</time></trkpt><trkpt lat="44.66972172796537" lon="9.310718751109007"><ele>578.0</ele><time>2026-04-05T15:04:28.999Z</time></trkpt><trkpt lat="44.66978870027413" lon="9.310733198394374"><ele>578.0</ele><time>2026-04-05T15:04:29.999Z</time></trkpt><trkpt lat="44.66982700939721" lon="9.310629984261974"><ele>578.0</ele><time>2026-04-05T15:04:30.999Z</time></trkpt><trkpt lat="44.66980615200848" lon="9.310375653612432"><ele>572.0</ele><time>2026-04-05T15:04:31.999Z</time></trkpt><trkpt lat="44.66970460247374" lon="9.310186704806757"><ele>566.0</ele><time>2026-04-05T15:04:32.999Z</time></trkpt><trkpt lat="44.66968574172226" lon="9.310010314645494"><ele>560.0</ele><time>2026-04-05T15:04:34Z</time></trkpt><trkpt lat="44.669671176382906" lon="9.309837158316181"><ele>554.0</ele><time>2026-04-05T15:04:35Z</time></trkpt><trkpt lat="44.669724245232366" lon="9.30967462408356"><ele>548.2</ele><time>2026-04-05T15:04:36Z</time></trkpt><trkpt lat="44.669797879378265" lon="9.309554759376617"><ele>542.4</ele><time>2026-04-05T15:04:37Z</time></trkpt><trkpt lat="44.66988067787074" lon="9.309459330739093"><ele>536.6</ele><time>2026-04-05T15:04:38Z</time></trkpt><trkpt lat="44.66997034622571" lon="9.309428437819557"><ele>530.8</ele><time>2026-04-05T15:04:39Z</time></trkpt><trkpt lat="44.6700810564972" lon="9.309412654394984"><ele>525.0</ele><time>2026-04-05T15:04:40Z</time></trkpt><trkpt lat="44.670162109787405" lon="9.309510807550868"><ele>527.3333333333334</ele><time>2026-04-05T15:04:41Z</time></trkpt><trkpt lat="44.67030003730969" lon="9.309603871877043"><ele>529.6666666666667</ele><time>2026-04-05T15:04:42Z</time></trkpt><trkpt lat="44.670458036494075" lon="9.309637495888689"><ele>532.0</ele><time>2026-04-05T15:04:43Z</time></trkpt><trkpt lat="44.67061177475842" lon="9.309653448764498"><ele>532.0</ele><time>2026-04-05T15:04:44Z</time></trkpt><trkpt lat="44.670764294733814" lon="9.309626843641945"><ele>532.0</ele><time>2026-04-05T15:04:45Z</time></trkpt><trkpt lat="44.67088372629952" lon="9.309577030574808"><ele>532.0</ele><time>2026-04-05T15:04:46Z</time></trkpt><trkpt lat="44.67100154524839" lon="9.309513256647747"><ele>532.0</ele><time>2026-04-05T15:04:47Z</time></trkpt><trkpt lat="44.67106250841531" lon="9.309437153079617"><ele>531.25</ele><time>2026-04-05T15:04:48Z</time></trkpt><trkpt lat="44.671171877245065" lon="9.309414112980967"><ele>530.5</ele><time>2026-04-05T15:04:49Z</time></trkpt><trkpt lat="44.671254288479034" lon="9.309508015142619"><ele>529.75</ele><time>2026-04-05T15:04:50Z</time></trkpt><trkpt lat="44.671346197991205" lon="9.309588322786002"><ele>529.0</ele><time>2026-04-05T15:04:51Z</time></trkpt><trkpt lat="44.67146651479899" lon="9.309682715994656"><ele>529.0</ele><time>2026-04-05T15:04:52Z</time></trkpt><trkpt lat="44.6715903504728" lon="9.309727404871852"><ele>529.0</ele><time>2026-04-05T15:04:53Z</time></trkpt><trkpt lat="44.67173123461846" lon="9.309730530251773"><ele>529.0</ele><time>2026-04-05T15:04:54Z</time></trkpt><trkpt lat="44.6718799537797" lon="9.309755753165504"><ele>529.0</ele><time>2026-04-05T15:04:55Z</time></trkpt><trkpt lat="44.67203432487654" lon="9.309753269522533"><ele>533.0</ele><time>2026-04-05T15:04:56Z</time></trkpt><trkpt lat="44.67216701046307" lon="9.309739368076784"><ele>537.0</ele><time>2026-04-05T15:04:57Z</time></trkpt><trkpt lat="44.67233632339609" lon="9.309652518339536"><ele>541.0</ele><time>2026-04-05T15:04:58Z</time></trkpt><trkpt lat="44.67248324798743" lon="9.30950454820492"><ele>541.0</ele><time>2026-04-05T15:04:59Z</time></trkpt><trkpt lat="44.672639774409596" lon="9.309393390167484"><ele>541.0</ele><time>2026-04-05T15:05:00Z</time></trkpt><trkpt lat="44.672736116625344" lon="9.309276485020478"><ele>541.0</ele><time>2026-04-05T15:05:01Z</time></trkpt><trkpt lat="44.67283886502102" lon="9.309162312261712"><ele>541.0</ele><time>2026-04-05T15:05:02Z</time></trkpt><trkpt lat="44.672921314805414" lon="9.309046302973499"><ele>538.5</ele><time>2026-04-05T15:05:03Z</time></trkpt><trkpt lat="44.67298902433848" lon="9.308871477315888"><ele>536.0</ele><time>2026-04-05T15:05:04Z</time></trkpt><trkpt lat="44.67304513054892" lon="9.308707784715908"><ele>533.5</ele><time>2026-04-05T15:05:05Z</time></trkpt><trkpt lat="44.673104409370644" lon="9.308589629473497"><ele>531.0</ele><time>2026-04-05T15:05:06Z</time></trkpt><trkpt lat="44.673160622371114" lon="9.308473908087876"><ele>531.0</ele><time>2026-04-05T15:05:07Z</time></trkpt><trkpt lat="44.67325841728889" lon="9.3084380503082"><ele>531.0</ele><time>2026-04-05T15:05:08Z</time></trkpt><trkpt lat="44.67337651168239" lon="9.308450160085126"><ele>531.0</ele><time>2026-04-05T15:05:09Z</time></trkpt><trkpt lat="44.67350623688733" lon="9.30853911488755"><ele>531.0</ele><time>2026-04-05T15:05:10Z</time></trkpt><trkpt lat="44.67365408666413" lon="9.308678684964127"><ele>530.0</ele><time>2026-04-05T15:05:11Z</time></trkpt><trkpt lat="44.6737875295341" lon="9.308829717241219"><ele>529.0</ele><time>2026-04-05T15:05:12Z</time></trkpt><trkpt lat="44.67388077543647" lon="9.308962982740216"><ele>528.0</ele><time>2026-04-05T15:05:13Z</time></trkpt><trkpt lat="44.67398482296856" lon="9.309061377404333"><ele>527.0</ele><time>2026-04-05T15:05:14Z</time></trkpt><trkpt lat="44.67409866645901" lon="9.30912034759521"><ele>532.5</ele><time>2026-04-05T15:05:15Z</time></trkpt><trkpt lat="44.67423110907354" lon="9.309149744879447"><ele>538.0</ele><time>2026-04-05T15:05:16Z</time></trkpt><trkpt lat="44.674373190068025" lon="9.30915293211391"><ele>543.5</ele><time>2026-04-05T15:05:17Z</time></trkpt><trkpt lat="44.67449638078528" lon="9.309102507836815"><ele>549.0</ele><time>2026-04-05T15:05:18Z</time></trkpt><trkpt lat="44.67457687443778" lon="9.309066591589362"><ele>549.0</ele><time>2026-04-05T15:05:19Z</time></trkpt><trkpt lat="44.67463867773229" lon="9.309101186796973"><ele>549.0</ele><time>2026-04-05T15:05:20Z</time></trkpt><trkpt lat="44.674685028323516" lon="9.30924744552372"><ele>549.0</ele><time>2026-04-05T15:05:21Z</time></trkpt><trkpt lat="44.674753169591256" lon="9.30935041996684"><ele>549.0</ele><time>2026-04-05T15:05:22Z</time></trkpt><trkpt lat="44.67483114405785" lon="9.309392902723985"><ele>549.0</ele><time>2026-04-05T15:05:23Z</time></trkpt><trkpt lat="44.67491545081455" lon="9.309400349983862"><ele>549.0</ele><time>2026-04-05T15:05:24Z</time></trkpt><trkpt lat="44.675022203906394" lon="9.309384269189051"><ele>549.0</ele><time>2026-04-05T15:05:25Z</time></trkpt><trkpt lat="44.67515583380011" lon="9.30927057486816"><ele>549.0</ele><time>2026-04-05T15:05:26Z</time></trkpt><trkpt lat="44.67530161253356" lon="9.309149514662085"><ele>549.0</ele><time>2026-04-05T15:05:27Z</time></trkpt><trkpt lat="44.67542451497228" lon="9.309045766415942"><ele>551.6</ele><time>2026-04-05T15:05:28Z</time></trkpt><trkpt lat="44.67551023745641" lon="9.308962950823705"><ele>554.2</ele><time>2026-04-05T15:05:29Z</time></trkpt><trkpt lat="44.675564758487575" lon="9.30886049379903"><ele>556.8000000000001</ele><time>2026-04-05T15:05:30Z</time></trkpt><trkpt lat="44.67560724766578" lon="9.308761251672212"><ele>559.4</ele><time>2026-04-05T15:05:31Z</time></trkpt><trkpt lat="44.67559794334486" lon="9.308578380012191"><ele>562.0</ele><time>2026-04-05T15:05:32Z</time></trkpt><trkpt lat="44.6754512171019" lon="9.308290906236756"><ele>562.0</ele><time>2026-04-05T15:05:33Z</time></trkpt><trkpt lat="44.67535620967692" lon="9.308139329286812"><ele>562.0</ele><time>2026-04-05T15:05:34Z</time></trkpt><trkpt lat="44.67531895104526" lon="9.307976972649136"><ele>562.0</ele><time>2026-04-05T15:05:34.999Z</time></trkpt><trkpt lat="44.67527965964834" lon="9.307808601072502"><ele>562.0</ele><time>2026-04-05T15:05:35.999Z</time></trkpt><trkpt lat="44.67525395609526" lon="9.307643693460482"><ele>561.6</ele><time>2026-04-05T15:05:36.999Z</time></trkpt><trkpt lat="44.675253123014265" lon="9.307483156090655"><ele>561.2</ele><time>2026-04-05T15:05:37.999Z</time></trkpt><trkpt lat="44.67528126453034" lon="9.307345282989607"><ele>560.8</ele><time>2026-04-05T15:05:38.999Z</time></trkpt><trkpt lat="44.67531184106344" lon="9.307215405760692"><ele>560.4</ele><time>2026-04-05T15:05:39.999Z</time></trkpt><trkpt lat="44.67540782892139" lon="9.307172817998286"><ele>560.0</ele><time>2026-04-05T15:05:40.999Z</time></trkpt><trkpt lat="44.67551001674377" lon="9.307111414396624"><ele>558.4</ele><time>2026-04-05T15:05:41.999Z</time></trkpt><trkpt lat="44.6755943990573" lon="9.30708090652356"><ele>556.8</ele><time>2026-04-05T15:05:42.999Z</time></trkpt><trkpt lat="44.67565507008237" lon="9.306996841399783"><ele>555.2</ele><time>2026-04-05T15:05:43.999Z</time></trkpt><trkpt lat="44.675697217668485" lon="9.306892078658375"><ele>553.6</ele><time>2026-04-05T15:05:44.999Z</time></trkpt><trkpt lat="44.67570192517579" lon="9.306731094964276"><ele>552.0</ele><time>2026-04-05T15:05:45.999Z</time></trkpt><trkpt lat="44.67565860650903" lon="9.30654350455204"><ele>548.5</ele><time>2026-04-05T15:05:46.999Z</time></trkpt><trkpt lat="44.67564435921784" lon="9.306352673233327"><ele>545.0</ele><time>2026-04-05T15:05:47.999Z</time></trkpt><trkpt lat="44.67567277858409" lon="9.306174577738782"><ele>541.5</ele><time>2026-04-05T15:05:48.999Z</time></trkpt><trkpt lat="44.67572223405045" lon="9.305985098933549"><ele>538.0</ele><time>2026-04-05T15:05:49.999Z</time></trkpt><trkpt lat="44.67581868511673" lon="9.305868908670808"><ele>538.0</ele><time>2026-04-05T15:05:50.999Z</time></trkpt><trkpt lat="44.675885209843955" lon="9.305707978149487"><ele>538.0</ele><time>2026-04-05T15:05:51.999Z</time></trkpt><trkpt lat="44.67596519205171" lon="9.305574193489669"><ele>538.0</ele><time>2026-04-05T15:05:52.999Z</time></trkpt><trkpt lat="44.67606118390935" lon="9.305478030031342"><ele>538.0</ele><time>2026-04-05T15:05:53.999Z</time></trkpt><trkpt lat="44.67614947735866" lon="9.30543839693769"><ele>536.0</ele><time>2026-04-05T15:05:54.999Z</time></trkpt><trkpt lat="44.6762544407487" lon="9.305391412103267"><ele>534.0</ele><time>2026-04-05T15:05:55.999Z</time></trkpt><trkpt lat="44.67637721413119" lon="9.305374273986674"><ele>532.0</ele><time>2026-04-05T15:05:56.999Z</time></trkpt><trkpt lat="44.676584662441385" lon="9.30534513683051"><ele>530.0</ele><time>2026-04-05T15:05:57.999Z</time></trkpt><trkpt lat="44.67679403625773" lon="9.305309898118951"><ele>530.5</ele><time>2026-04-05T15:05:58.999Z</time></trkpt><trkpt lat="44.677076417643676" lon="9.305261229820156"><ele>531.0</ele><time>2026-04-05T15:05:59.999Z</time></trkpt><trkpt lat="44.67727008933363" lon="9.305226068045863"><ele>531.0</ele><time>2026-04-05T15:06:00.999Z</time></trkpt><trkpt lat="44.67744035809152" lon="9.305187708663011"><ele>531.0</ele><time>2026-04-05T15:06:01.999Z</time></trkpt><trkpt lat="44.677585805920565" lon="9.305152621198296"><ele>531.0</ele><time>2026-04-05T15:06:02.999Z</time></trkpt><trkpt lat="44.677706566071784" lon="9.305157535034814"><ele>531.0</ele><time>2026-04-05T15:06:03.999Z</time></trkpt><trkpt lat="44.67778588725663" lon="9.30508083731444"><ele>528.8</ele><time>2026-04-05T15:06:04.999Z</time></trkpt><trkpt lat="44.677772275157785" lon="9.30499017324158"><ele>526.6</ele><time>2026-04-05T15:06:05.999Z</time></trkpt><trkpt lat="44.67786384304096" lon="9.304922137781693"><ele>524.4</ele><time>2026-04-05T15:06:06.999Z</time></trkpt><trkpt lat="44.67797024562021" lon="9.30483019926655"><ele>522.2</ele><time>2026-04-05T15:06:07.999Z</time></trkpt><trkpt lat="44.67807449189576" lon="9.304783550141133"><ele>520.0</ele><time>2026-04-05T15:06:08.999Z</time></trkpt><trkpt lat="44.67817378590394" lon="9.304735355131957"><ele>520.0</ele><time>2026-04-05T15:06:09.999Z</time></trkpt><trkpt lat="44.67825298376271" lon="9.304659627089292"><ele>520.0</ele><time>2026-04-05T15:06:10.999Z</time></trkpt><trkpt lat="44.67832890598577" lon="9.304481192270687"><ele>520.0</ele><time>2026-04-05T15:06:11.999Z</time></trkpt><trkpt lat="44.678375487491124" lon="9.304344716758122"><ele>520.0</ele><time>2026-04-05T15:06:12.999Z</time></trkpt><trkpt lat="44.6784310505393" lon="9.30422318533419"><ele>520.0</ele><time>2026-04-05T15:06:13.999Z</time></trkpt><trkpt lat="44.67851093545973" lon="9.304118383035672"><ele>520.0</ele><time>2026-04-05T15:06:14.999Z</time></trkpt><trkpt lat="44.67863067936379" lon="9.30401956292491"><ele>520.0</ele><time>2026-04-05T15:06:15.999Z</time></trkpt><trkpt lat="44.67876912342286" lon="9.303940816180443"><ele>520.0</ele><time>2026-04-05T15:06:16.999Z</time></trkpt><trkpt lat="44.67891788110012" lon="9.303872665647964"><ele>519.5</ele><time>2026-04-05T15:06:17.999Z</time></trkpt><trkpt lat="44.67905908444043" lon="9.3038293767865"><ele>519.0</ele><time>2026-04-05T15:06:18.999Z</time></trkpt><trkpt lat="44.67921486279907" lon="9.303826324194867"><ele>518.5</ele><time>2026-04-05T15:06:19.999Z</time></trkpt><trkpt lat="44.679360835720104" lon="9.303788802724291"><ele>518.0</ele><time>2026-04-05T15:06:20.999Z</time></trkpt><trkpt lat="44.679479644054375" lon="9.303767657612239"><ele>518.0</ele><time>2026-04-05T15:06:21.999Z</time></trkpt><trkpt lat="44.67961407256046" lon="9.303704964772372"><ele>518.0</ele><time>2026-04-05T15:06:22.999Z</time></trkpt><trkpt lat="44.67974042751488" lon="9.303632288327961"><ele>518.0</ele><time>2026-04-05T15:06:23.999Z</time></trkpt><trkpt lat="44.679830697068944" lon="9.303447539683454"><ele>518.0</ele><time>2026-04-05T15:06:24.999Z</time></trkpt><trkpt lat="44.67992360975563" lon="9.303385687159539"><ele>518.0</ele><time>2026-04-05T15:06:25.999Z</time></trkpt><trkpt lat="44.67999731653699" lon="9.303339521043778"><ele>518.0</ele><time>2026-04-05T15:06:26.999Z</time></trkpt><trkpt lat="44.6800769032056" lon="9.303313853402607"><ele>518.0</ele><time>2026-04-05T15:06:27.999Z</time></trkpt><trkpt lat="44.6801568569267" lon="9.303330623155238"><ele>518.0</ele><time>2026-04-05T15:06:28.999Z</time></trkpt><trkpt lat="44.68023958608867" lon="9.303396116884256"><ele>518.0</ele><time>2026-04-05T15:06:29.999Z</time></trkpt><trkpt lat="44.6803744467507" lon="9.303561686453678"><ele>519.6666666666666</ele><time>2026-04-05T15:06:30.999Z</time></trkpt><trkpt lat="44.68051188412352" lon="9.30371886894027"><ele>521.3333333333334</ele><time>2026-04-05T15:06:31.999Z</time></trkpt><trkpt lat="44.680670075652216" lon="9.303898870367874"><ele>523.0</ele><time>2026-04-05T15:06:32.999Z</time></trkpt><trkpt lat="44.68080526914192" lon="9.30403588935814"><ele>523.0</ele><time>2026-04-05T15:06:33.999Z</time></trkpt><trkpt lat="44.680918818644095" lon="9.304150468999886"><ele>523.0</ele><time>2026-04-05T15:06:34.999Z</time></trkpt><trkpt lat="44.68104563379016" lon="9.304218189036524"><ele>523.0</ele><time>2026-04-05T15:06:35.999Z</time></trkpt><trkpt lat="44.68115064382721" lon="9.304225004641017"><ele>523.0</ele><time>2026-04-05T15:06:36.999Z</time></trkpt><trkpt lat="44.68125814067187" lon="9.304211882126484"><ele>517.3333333333334</ele><time>2026-04-05T15:06:37.999Z</time></trkpt><trkpt lat="44.68141839127328" lon="9.304184335104098"><ele>511.66666666666663</ele><time>2026-04-05T15:06:38.999Z</time></trkpt><trkpt lat="44.68163558764578" lon="9.304136035297782"><ele>506.0</ele><time>2026-04-05T15:06:40Z</time></trkpt><trkpt lat="44.68182178548279" lon="9.304072218775078"><ele>504.3333333333333</ele><time>2026-04-05T15:06:41Z</time></trkpt><trkpt lat="44.681992061726454" lon="9.304031051366874"><ele>502.66666666666663</ele><time>2026-04-05T15:06:42Z</time></trkpt><trkpt lat="44.68213784567265" lon="9.303994985431993"><ele>501.0</ele><time>2026-04-05T15:06:43Z</time></trkpt><trkpt lat="44.68226909943189" lon="9.303958748190238"><ele>501.0</ele><time>2026-04-05T15:06:44Z</time></trkpt><trkpt lat="44.68238260767883" lon="9.3039297401274"><ele>501.0</ele><time>2026-04-05T15:06:45Z</time></trkpt><trkpt lat="44.68248466658841" lon="9.30392604622453"><ele>501.0</ele><time>2026-04-05T15:06:46Z</time></trkpt><trkpt lat="44.68259190691417" lon="9.303971946083255"><ele>501.0</ele><time>2026-04-05T15:06:47Z</time></trkpt><trkpt lat="44.68267462209578" lon="9.30410623618499"><ele>501.0</ele><time>2026-04-05T15:06:48Z</time></trkpt><trkpt lat="44.68274581435083" lon="9.30427346336845"><ele>501.0</ele><time>2026-04-05T15:06:49Z</time></trkpt><trkpt lat="44.682848045418574" lon="9.304532960712072"><ele>501.0</ele><time>2026-04-05T15:06:50Z</time></trkpt><trkpt lat="44.68293721943595" lon="9.304760705396577"><ele>498.0</ele><time>2026-04-05T15:06:51Z</time></trkpt><trkpt lat="44.68300073750477" lon="9.304913112517033"><ele>495.0</ele><time>2026-04-05T15:06:52Z</time></trkpt><trkpt lat="44.68306051563929" lon="9.305058974728329"><ele>492.0</ele><time>2026-04-05T15:06:53Z</time></trkpt><trkpt lat="44.68307543955597" lon="9.305213936488078"><ele>489.0</ele><time>2026-04-05T15:06:54Z</time></trkpt><trkpt lat="44.68306277408663" lon="9.305382177602906"><ele>489.0</ele><time>2026-04-05T15:06:55Z</time></trkpt><trkpt lat="44.68306192710167" lon="9.30551412659355"><ele>489.0</ele><time>2026-04-05T15:06:56Z</time></trkpt><trkpt lat="44.68310582096186" lon="9.305634366379412"><ele>489.0</ele><time>2026-04-05T15:06:57Z</time></trkpt><trkpt lat="44.683198638391815" lon="9.305750997650247"><ele>489.0</ele><time>2026-04-05T15:06:58Z</time></trkpt><trkpt lat="44.6833408752038" lon="9.305847433668148"><ele>491.25</ele><time>2026-04-05T15:06:59Z</time></trkpt><trkpt lat="44.683471844715804" lon="9.305899230421492"><ele>493.5</ele><time>2026-04-05T15:07:00Z</time></trkpt><trkpt lat="44.683576271367215" lon="9.305936692562309"><ele>495.75</ele><time>2026-04-05T15:07:01Z</time></trkpt><trkpt lat="44.68364740939827" lon="9.30602045763356"><ele>498.0</ele><time>2026-04-05T15:07:02Z</time></trkpt><trkpt lat="44.68368575851035" lon="9.306184451193404"><ele>494.59999999999997</ele><time>2026-04-05T15:07:03Z</time></trkpt><trkpt lat="44.68373315097699" lon="9.306360550221402"><ele>491.19999999999993</ele><time>2026-04-05T15:07:04Z</time></trkpt><trkpt lat="44.68376986343973" lon="9.306502136536407"><ele>487.8</ele><time>2026-04-05T15:07:05Z</time></trkpt><trkpt lat="44.683805551359285" lon="9.306623609748193"><ele>484.4</ele><time>2026-04-05T15:07:06Z</time></trkpt><trkpt lat="44.683771835822846" lon="9.306776467313604"><ele>481.0</ele><time>2026-04-05T15:07:07Z</time></trkpt><trkpt lat="44.68373473380857" lon="9.306964379059416"><ele>481.0</ele><time>2026-04-05T15:07:08Z</time></trkpt><trkpt lat="44.68369924731157" lon="9.307207029571662"><ele>481.0</ele><time>2026-04-05T15:07:09Z</time></trkpt><trkpt lat="44.683644524081345" lon="9.307438747689217"><ele>481.0</ele><time>2026-04-05T15:07:10Z</time></trkpt><trkpt lat="44.68356895703452" lon="9.307620029854757"><ele>483.0</ele><time>2026-04-05T15:07:11Z</time></trkpt><trkpt lat="44.68347458708021" lon="9.30779412968324"><ele>485.0</ele><time>2026-04-05T15:07:12Z</time></trkpt><trkpt lat="44.683357567307986" lon="9.307941805485987"><ele>487.0</ele><time>2026-04-05T15:07:13Z</time></trkpt><trkpt lat="44.683281480737676" lon="9.308022191494025"><ele>489.0</ele><time>2026-04-05T15:07:14Z</time></trkpt><trkpt lat="44.68323101559006" lon="9.308129347227538"><ele>489.0</ele><time>2026-04-05T15:07:15Z</time></trkpt><trkpt lat="44.68320622517743" lon="9.308245693497309"><ele>489.0</ele><time>2026-04-05T15:07:16Z</time></trkpt><trkpt lat="44.683242798196375" lon="9.308329108506324"><ele>489.0</ele><time>2026-04-05T15:07:17Z</time></trkpt><trkpt lat="44.68332340022734" lon="9.308418385502604"><ele>489.0</ele><time>2026-04-05T15:07:18Z</time></trkpt><trkpt lat="44.683415272262216" lon="9.30849709693794"><ele>489.0</ele><time>2026-04-05T15:07:19Z</time></trkpt><trkpt lat="44.68350331171263" lon="9.308576438847165"><ele>489.5</ele><time>2026-04-05T15:07:20Z</time></trkpt><trkpt lat="44.683641193016335" lon="9.308660352268705"><ele>490.0</ele><time>2026-04-05T15:07:21Z</time></trkpt><trkpt lat="44.68377824703778" lon="9.308795323750608"><ele>490.5</ele><time>2026-04-05T15:07:22Z</time></trkpt><trkpt lat="44.68384704547942" lon="9.30894393335016"><ele>491.0</ele><time>2026-04-05T15:07:23Z</time></trkpt><trkpt lat="44.68390671185005" lon="9.30906148251722"><ele>491.0</ele><time>2026-04-05T15:07:24Z</time></trkpt><trkpt lat="44.68399455599325" lon="9.30912920729023"><ele>491.0</ele><time>2026-04-05T15:07:25Z</time></trkpt><trkpt lat="44.68409252176674" lon="9.309181309310965"><ele>491.0</ele><time>2026-04-05T15:07:26Z</time></trkpt><trkpt lat="44.68420725831871" lon="9.309220784241202"><ele>491.0</ele><time>2026-04-05T15:07:27Z</time></trkpt><trkpt lat="44.68439561791557" lon="9.309169953761256"><ele>490.75</ele><time>2026-04-05T15:07:28Z</time></trkpt><trkpt lat="44.68449878248805" lon="9.30916962807381"><ele>490.5</ele><time>2026-04-05T15:07:29Z</time></trkpt><trkpt lat="44.68461458617988" lon="9.309143367159768"><ele>490.25</ele><time>2026-04-05T15:07:30Z</time></trkpt><trkpt lat="44.684737649910986" lon="9.30905529186286"><ele>490.0</ele><time>2026-04-05T15:07:31Z</time></trkpt><trkpt lat="44.684836557121805" lon="9.308959563124557"><ele>490.0</ele><time>2026-04-05T15:07:32Z</time></trkpt><trkpt lat="44.684940404614906" lon="9.308927555756195"><ele>490.0</ele><time>2026-04-05T15:07:33Z</time></trkpt><trkpt lat="44.68509107180567" lon="9.308902143880552"><ele>490.0</ele><time>2026-04-05T15:07:34Z</time></trkpt><trkpt lat="44.68522994326577" lon="9.308885593876221"><ele>490.0</ele><time>2026-04-05T15:07:35Z</time></trkpt><trkpt lat="44.68539169847964" lon="9.308879083002797"><ele>490.33333333333337</ele><time>2026-04-05T15:07:36Z</time></trkpt><trkpt lat="44.68558138943063" lon="9.30890235160498"><ele>490.66666666666663</ele><time>2026-04-05T15:07:37Z</time></trkpt><trkpt lat="44.68574472016943" lon="9.3089231013264"><ele>491.0</ele><time>2026-04-05T15:07:38Z</time></trkpt><trkpt lat="44.68589581428198" lon="9.308930900496293"><ele>491.0</ele><time>2026-04-05T15:07:39Z</time></trkpt><trkpt lat="44.68602386211623" lon="9.308928089125782"><ele>491.0</ele><time>2026-04-05T15:07:40Z</time></trkpt><trkpt lat="44.68614754438331" lon="9.308882586410727"><ele>491.0</ele><time>2026-04-05T15:07:41Z</time></trkpt><trkpt lat="44.68626554309832" lon="9.308889140417932"><ele>491.0</ele><time>2026-04-05T15:07:42Z</time></trkpt><trkpt lat="44.686426984491945" lon="9.30892833049846"><ele>485.25</ele><time>2026-04-05T15:07:43Z</time></trkpt><trkpt lat="44.68656964860018" lon="9.308994136085433"><ele>479.5</ele><time>2026-04-05T15:07:43.999Z</time></trkpt><trkpt lat="44.686685841551856" lon="9.309034417629846"><ele>473.75</ele><time>2026-04-05T15:07:44.999Z</time></trkpt><trkpt lat="44.68678164607556" lon="9.309144559698645"><ele>468.0</ele><time>2026-04-05T15:07:45.999Z</time></trkpt><trkpt lat="44.68686334061231" lon="9.309222427738243"><ele>468.0</ele><time>2026-04-05T15:07:46.999Z</time></trkpt><trkpt lat="44.686914101887666" lon="9.309361081238212"><ele>467.99999999999994</ele><time>2026-04-05T15:07:47.999Z</time></trkpt><trkpt lat="44.686962242215124" lon="9.309486793947169"><ele>467.99999999999994</ele><time>2026-04-05T15:07:48.999Z</time></trkpt><trkpt lat="44.686963326462134" lon="9.309636564095886"><ele>468.0</ele><time>2026-04-05T15:07:49.999Z</time></trkpt><trkpt lat="44.68694860776491" lon="9.309799064294873"><ele>468.0</ele><time>2026-04-05T15:07:50.999Z</time></trkpt><trkpt lat="44.68689031553673" lon="9.309957391148533"><ele>468.5</ele><time>2026-04-05T15:07:51.999Z</time></trkpt><trkpt lat="44.686786986112345" lon="9.310073402494986"><ele>469.0</ele><time>2026-04-05T15:07:52.999Z</time></trkpt><trkpt lat="44.686663790799344" lon="9.310187906333615"><ele>469.5</ele><time>2026-04-05T15:07:53.999Z</time></trkpt><trkpt lat="44.68650439859169" lon="9.31019087221045"><ele>470.0</ele><time>2026-04-05T15:07:54.999Z</time></trkpt><trkpt lat="44.68639412410698" lon="9.310273643237862"><ele>470.0</ele><time>2026-04-05T15:07:55.999Z</time></trkpt><trkpt lat="44.68629744504733" lon="9.310335170636492"><ele>470.0</ele><time>2026-04-05T15:07:56.999Z</time></trkpt><trkpt lat="44.6862432626858" lon="9.310475969258926"><ele>470.0</ele><time>2026-04-05T15:07:57.999Z</time></trkpt><trkpt lat="44.68621286883768" lon="9.31065957831368"><ele>470.0</ele><time>2026-04-05T15:07:58.999Z</time></trkpt><trkpt lat="44.68617009849653" lon="9.31084961729724"><ele>466.5</ele><time>2026-04-05T15:07:59.999Z</time></trkpt><trkpt lat="44.68613365317377" lon="9.311055902855477"><ele>463.0</ele><time>2026-04-05T15:08:00.999Z</time></trkpt><trkpt lat="44.686105983591034" lon="9.311276303450638"><ele>459.5</ele><time>2026-04-05T15:08:01.999Z</time></trkpt><trkpt lat="44.68615221037242" lon="9.311440414579513"><ele>456.0</ele><time>2026-04-05T15:08:02.999Z</time></trkpt><trkpt lat="44.68623072371608" lon="9.311560778094917"><ele>456.0</ele><time>2026-04-05T15:08:03.999Z</time></trkpt><trkpt lat="44.686310175251414" lon="9.311639033256862"><ele>456.0</ele><time>2026-04-05T15:08:04.999Z</time></trkpt><trkpt lat="44.68648558059896" lon="9.31176411240348"><ele>456.0</ele><time>2026-04-05T15:08:05.999Z</time></trkpt><trkpt lat="44.68664117547784" lon="9.311841645675536"><ele>456.0</ele><time>2026-04-05T15:08:06.999Z</time></trkpt><trkpt lat="44.686744592051234" lon="9.312024761828932"><ele>456.0</ele><time>2026-04-05T15:08:07.999Z</time></trkpt><trkpt lat="44.68685833512628" lon="9.31222636201587"><ele>456.0</ele><time>2026-04-05T15:08:08.999Z</time></trkpt><trkpt lat="44.68694442582636" lon="9.312451279500891"><ele>451.33333333333337</ele><time>2026-04-05T15:08:09.999Z</time></trkpt><trkpt lat="44.68702100011027" lon="9.312696126936391"><ele>446.6666666666667</ele><time>2026-04-05T15:08:10.999Z</time></trkpt><trkpt lat="44.68709039185221" lon="9.312920242826273"><ele>442.0</ele><time>2026-04-05T15:08:11.999Z</time></trkpt><trkpt lat="44.68715535945694" lon="9.313117041044798"><ele>442.0</ele><time>2026-04-05T15:08:12.999Z</time></trkpt><trkpt lat="44.687189072851105" lon="9.31326814281792"><ele>442.00000000000006</ele><time>2026-04-05T15:08:13.999Z</time></trkpt><trkpt lat="44.68722380792501" lon="9.313395762388097"><ele>442.00000000000006</ele><time>2026-04-05T15:08:14.999Z</time></trkpt><trkpt lat="44.687291774976195" lon="9.313490285713716"><ele>442.0</ele><time>2026-04-05T15:08:15.999Z</time></trkpt><trkpt lat="44.68738983619492" lon="9.313552257060515"><ele>442.0</ele><time>2026-04-05T15:08:16.999Z</time></trkpt><trkpt lat="44.68751945967023" lon="9.31357990786682"><ele>442.0</ele><time>2026-04-05T15:08:17.999Z</time></trkpt><trkpt lat="44.68760509056532" lon="9.313665482017683"><ele>442.0</ele><time>2026-04-05T15:08:18.999Z</time></trkpt><trkpt lat="44.68765973424033" lon="9.313794405019367"><ele>442.0</ele><time>2026-04-05T15:08:19.999Z</time></trkpt><trkpt lat="44.68770807662954" lon="9.313970297195096"><ele>442.0</ele><time>2026-04-05T15:08:20.999Z</time></trkpt><trkpt lat="44.68769781373909" lon="9.314176104596319"><ele>443.0</ele><time>2026-04-05T15:08:21.999Z</time></trkpt><trkpt lat="44.68768753476546" lon="9.314389847104012"><ele>444.0</ele><time>2026-04-05T15:08:22.999Z</time></trkpt><trkpt lat="44.68764349042811" lon="9.314567545402605"><ele>445.0</ele><time>2026-04-05T15:08:23.999Z</time></trkpt><trkpt lat="44.68756700160862" lon="9.314773901648644"><ele>445.0</ele><time>2026-04-05T15:08:24.999Z</time></trkpt><trkpt lat="44.68749456539359" lon="9.31496589566243"><ele>445.0</ele><time>2026-04-05T15:08:25.999Z</time></trkpt><trkpt lat="44.68742069932609" lon="9.315124618095052"><ele>445.0</ele><time>2026-04-05T15:08:26.999Z</time></trkpt><trkpt lat="44.68731956792319" lon="9.315232913620598"><ele>445.0</ele><time>2026-04-05T15:08:27.999Z</time></trkpt><trkpt lat="44.687259798057994" lon="9.315399367614484"><ele>445.0</ele><time>2026-04-05T15:08:29.999Z</time></trkpt><trkpt lat="44.68728610660411" lon="9.315531033106822"><ele>445.0</ele><time>2026-04-05T15:08:30.999Z</time></trkpt><trkpt lat="44.68727320585583" lon="9.31573976625641"><ele>445.0</ele><time>2026-04-05T15:08:31.999Z</time></trkpt><trkpt lat="44.68725325093281" lon="9.315930541565363"><ele>445.0</ele><time>2026-04-05T15:08:32.999Z</time></trkpt><trkpt lat="44.687188624654006" lon="9.316205764133445"><ele>437.33333333333337</ele><time>2026-04-05T15:08:33.999Z</time></trkpt><trkpt lat="44.68719142318123" lon="9.316503743600109"><ele>429.66666666666663</ele><time>2026-04-05T15:08:34.999Z</time></trkpt><trkpt lat="44.68712397282534" lon="9.31672164715976"><ele>422.0</ele><time>2026-04-05T15:08:35.999Z</time></trkpt><trkpt lat="44.68712265636318" lon="9.316905316247462"><ele>422.0</ele><time>2026-04-05T15:08:36.999Z</time></trkpt><trkpt lat="44.68714502918998" lon="9.31709506944687"><ele>422.0</ele><time>2026-04-05T15:08:37.999Z</time></trkpt><trkpt lat="44.68716398999785" lon="9.317243720288092"><ele>422.0</ele><time>2026-04-05T15:08:38.999Z</time></trkpt><trkpt lat="44.68719302360703" lon="9.317390856112203"><ele>422.0</ele><time>2026-04-05T15:08:39.999Z</time></trkpt><trkpt lat="44.68719079269718" lon="9.317516533618054"><ele>422.0</ele><time>2026-04-05T15:08:40.999Z</time></trkpt><trkpt lat="44.68717723540992" lon="9.317652992627263"><ele>419.0</ele><time>2026-04-05T15:08:41.999Z</time></trkpt><trkpt lat="44.68705673737072" lon="9.317781181518333"><ele>416.0</ele><time>2026-04-05T15:08:42.999Z</time></trkpt><trkpt lat="44.68692986053301" lon="9.317930825224147"><ele>413.0</ele><time>2026-04-05T15:08:43.999Z</time></trkpt><trkpt lat="44.686853122142544" lon="9.318079654987697"><ele>410.0</ele><time>2026-04-05T15:08:44.999Z</time></trkpt><trkpt lat="44.68679000710639" lon="9.318248639456439"><ele>419.25</ele><time>2026-04-05T15:08:46Z</time></trkpt><trkpt lat="44.68676928077602" lon="9.318436638147842"><ele>428.5</ele><time>2026-04-05T15:08:47Z</time></trkpt><trkpt lat="44.68675115769089" lon="9.31862549115125"><ele>437.75</ele><time>2026-04-05T15:08:48Z</time></trkpt><trkpt lat="44.686758659316276" lon="9.318824297949833"><ele>447.0</ele><time>2026-04-05T15:08:49Z</time></trkpt><trkpt lat="44.68679972958596" lon="9.319023177724754"><ele>447.25</ele><time>2026-04-05T15:08:50Z</time></trkpt><trkpt lat="44.686889667752645" lon="9.31918500859177"><ele>447.5</ele><time>2026-04-05T15:08:51Z</time></trkpt><trkpt lat="44.68692368907149" lon="9.319332480273724"><ele>447.75</ele><time>2026-04-05T15:08:52Z</time></trkpt><trkpt lat="44.6869865839712" lon="9.31947187940557"><ele>448.0</ele><time>2026-04-05T15:08:53Z</time></trkpt><trkpt lat="44.68704973214084" lon="9.3195660205846"><ele>438.33333333333337</ele><time>2026-04-05T15:08:54Z</time></trkpt><trkpt lat="44.68715720405735" lon="9.31957554036073"><ele>428.66666666666663</ele><time>2026-04-05T15:08:55Z</time></trkpt><trkpt lat="44.687309322981996" lon="9.319598786734641"><ele>419.0</ele><time>2026-04-05T15:08:56Z</time></trkpt><trkpt lat="44.6875385578933" lon="9.31955247217097"><ele>419.0</ele><time>2026-04-05T15:08:57Z</time></trkpt><trkpt lat="44.687684517527686" lon="9.319452452051873"><ele>419.0</ele><time>2026-04-05T15:08:58Z</time></trkpt><trkpt lat="44.68771277975964" lon="9.319283688849877"><ele>419.0</ele><time>2026-04-05T15:08:59Z</time></trkpt><trkpt lat="44.68780079139122" lon="9.319263420026358"><ele>419.0</ele><time>2026-04-05T15:09:00Z</time></trkpt><trkpt lat="44.68788692774728" lon="9.319295706425823"><ele>412.75</ele><time>2026-04-05T15:09:01Z</time></trkpt><trkpt lat="44.68797882603169" lon="9.319401538348062"><ele>406.5</ele><time>2026-04-05T15:09:02Z</time></trkpt><trkpt lat="44.688053166943384" lon="9.319483408279375"><ele>400.25</ele><time>2026-04-05T15:09:03Z</time></trkpt><trkpt lat="44.68809702036485" lon="9.319602238890536"><ele>394.0</ele><time>2026-04-05T15:09:04Z</time></trkpt><trkpt lat="44.688089635210595" lon="9.319801993104615"><ele>394.0</ele><time>2026-04-05T15:09:05Z</time></trkpt><trkpt lat="44.688088458030414" lon="9.320063538392814"><ele>394.0</ele><time>2026-04-05T15:09:06Z</time></trkpt><trkpt lat="44.688063385034035" lon="9.32037992864114"><ele>394.0</ele><time>2026-04-05T15:09:07Z</time></trkpt><trkpt lat="44.68805641016286" lon="9.320721006910214"><ele>396.0</ele><time>2026-04-05T15:09:08Z</time></trkpt><trkpt lat="44.68804218516427" lon="9.321008778289935"><ele>398.0</ele><time>2026-04-05T15:09:09Z</time></trkpt><trkpt lat="44.68803456600668" lon="9.321247286505297"><ele>400.0</ele><time>2026-04-05T15:09:10Z</time></trkpt><trkpt lat="44.688028904440415" lon="9.321440873484613"><ele>401.0</ele><time>2026-04-05T15:09:11Z</time></trkpt><trkpt lat="44.68803022411884" lon="9.321628107673044"><ele>402.0</ele><time>2026-04-05T15:09:12Z</time></trkpt><trkpt lat="44.68805173371697" lon="9.321780492407385"><ele>403.0</ele><time>2026-04-05T15:09:13Z</time></trkpt><trkpt lat="44.68811582615311" lon="9.321932202575313"><ele>404.0</ele><time>2026-04-05T15:09:14Z</time></trkpt><trkpt lat="44.6881566107295" lon="9.322083549643915"><ele>404.0</ele><time>2026-04-05T15:09:15Z</time></trkpt><trkpt lat="44.688186548798505" lon="9.32225091551796"><ele>404.0</ele><time>2026-04-05T15:09:16Z</time></trkpt><trkpt lat="44.688175410353416" lon="9.32243901854011"><ele>404.0</ele><time>2026-04-05T15:09:17Z</time></trkpt><trkpt lat="44.68817433050443" lon="9.322622629908034"><ele>404.0</ele><time>2026-04-05T15:09:18Z</time></trkpt><trkpt lat="44.68820532336388" lon="9.322755435940222"><ele>404.0</ele><time>2026-04-05T15:09:19Z</time></trkpt><trkpt lat="44.68822843543104" lon="9.322874752488486"><ele>404.0</ele><time>2026-04-05T15:09:20Z</time></trkpt><trkpt lat="44.68834218626927" lon="9.322955401781037"><ele>404.0</ele><time>2026-04-05T15:09:21Z</time></trkpt><trkpt lat="44.68849427922338" lon="9.323008625034436"><ele>404.0</ele><time>2026-04-05T15:09:22Z</time></trkpt><trkpt lat="44.688639181909224" lon="9.32308100883492"><ele>400.75</ele><time>2026-04-05T15:09:23Z</time></trkpt><trkpt lat="44.68874069839509" lon="9.323127112546794"><ele>397.5</ele><time>2026-04-05T15:09:24Z</time></trkpt><trkpt lat="44.688874979736596" lon="9.323181162622538"><ele>394.25</ele><time>2026-04-05T15:09:25Z</time></trkpt><trkpt lat="44.68898100963883" lon="9.323260479043276"><ele>391.0</ele><time>2026-04-05T15:09:26Z</time></trkpt><trkpt lat="44.68906090033759" lon="9.323405404249188"><ele>391.0</ele><time>2026-04-05T15:09:27Z</time></trkpt><trkpt lat="44.68911475548688" lon="9.323586865692015"><ele>391.0</ele><time>2026-04-05T15:09:28Z</time></trkpt><trkpt lat="44.68919799295521" lon="9.323756011409282"><ele>391.0</ele><time>2026-04-05T15:09:29Z</time></trkpt><trkpt lat="44.68925492269527" lon="9.323896782765786"><ele>391.0</ele><time>2026-04-05T15:09:30Z</time></trkpt><trkpt lat="44.68928778887385" lon="9.324069080070624"><ele>391.1666666666667</ele><time>2026-04-05T15:09:31Z</time></trkpt><trkpt lat="44.68929326544496" lon="9.32424333329066"><ele>391.33333333333337</ele><time>2026-04-05T15:09:32Z</time></trkpt><trkpt lat="44.68927436038766" lon="9.324363611521278"><ele>391.5</ele><time>2026-04-05T15:09:33Z</time></trkpt><trkpt lat="44.68927822454243" lon="9.32445646939061"><ele>391.66666666666663</ele><time>2026-04-05T15:09:34Z</time></trkpt><trkpt lat="44.68928473022059" lon="9.324563965981056"><ele>391.8333333333333</ele><time>2026-04-05T15:09:36Z</time></trkpt><trkpt lat="44.6892832179886" lon="9.324668501133091"><ele>392.0</ele><time>2026-04-05T15:09:38Z</time></trkpt><trkpt lat="44.68930556515819" lon="9.324791099956043"><ele>392.0</ele><time>2026-04-05T15:10:21.999Z</time></trkpt><trkpt lat="44.68931935377734" lon="9.324927845261481"><ele>392.0</ele><time>2026-04-05T15:10:22.999Z</time></trkpt><trkpt lat="44.68933675672833" lon="9.32509497137555"><ele>392.0</ele><time>2026-04-05T15:10:23.999Z</time></trkpt><trkpt lat="44.68932826797312" lon="9.325295197212398"><ele>392.0</ele><time>2026-04-05T15:10:24.999Z</time></trkpt><trkpt lat="44.68933113114009" lon="9.325476062882709"><ele>391.25</ele><time>2026-04-05T15:10:25.999Z</time></trkpt><trkpt lat="44.68932639115496" lon="9.325640106229052"><ele>390.5</ele><time>2026-04-05T15:10:26.999Z</time></trkpt><trkpt lat="44.68931938855717" lon="9.325846677668268"><ele>389.75</ele><time>2026-04-05T15:10:27.999Z</time></trkpt><trkpt lat="44.68929026813238" lon="9.326098938212956"><ele>389.0</ele><time>2026-04-05T15:10:28.999Z</time></trkpt><trkpt lat="44.689264077976446" lon="9.326303192916347"><ele>388.0</ele><time>2026-04-05T15:10:29.999Z</time></trkpt><trkpt lat="44.68921475058696" lon="9.326487064493783"><ele>387.0</ele><time>2026-04-05T15:10:30.999Z</time></trkpt><trkpt lat="44.68918196738975" lon="9.326676887300499"><ele>386.0</ele><time>2026-04-05T15:10:31.999Z</time></trkpt><trkpt lat="44.689158177313594" lon="9.326864178255258"><ele>385.0</ele><time>2026-04-05T15:10:32.999Z</time></trkpt><trkpt lat="44.68914882890533" lon="9.327086255631256"><ele>382.6666666666667</ele><time>2026-04-05T15:10:33.999Z</time></trkpt><trkpt lat="44.689129523752214" lon="9.327321354056393"><ele>380.33333333333337</ele><time>2026-04-05T15:10:34.999Z</time></trkpt><trkpt lat="44.68910728368769" lon="9.327534985252159"><ele>378.0</ele><time>2026-04-05T15:10:35.999Z</time></trkpt><trkpt lat="44.689084600589545" lon="9.327729234171427"><ele>378.0</ele><time>2026-04-05T15:10:36.999Z</time></trkpt><trkpt lat="44.68906712826651" lon="9.327903146950737"><ele>378.0</ele><time>2026-04-05T15:10:37.999Z</time></trkpt><trkpt lat="44.68902945721937" lon="9.328088187079969"><ele>378.0</ele><time>2026-04-05T15:10:38.999Z</time></trkpt><trkpt lat="44.68896277995308" lon="9.328260085245576"><ele>378.0</ele><time>2026-04-05T15:10:39.999Z</time></trkpt><trkpt lat="44.688928853552" lon="9.328411467414401"><ele>377.0</ele><time>2026-04-05T15:10:40.999Z</time></trkpt><trkpt lat="44.68889700945429" lon="9.32854996112246"><ele>376.0</ele><time>2026-04-05T15:10:41.999Z</time></trkpt><trkpt lat="44.68886469586531" lon="9.328669210755423"><ele>375.0</ele><time>2026-04-05T15:10:42.999Z</time></trkpt><trkpt lat="44.68884310734411" lon="9.328773889558395"><ele>374.0</ele><time>2026-04-05T15:10:43.999Z</time></trkpt><trkpt lat="44.68886691652542" lon="9.328868745144357"><ele>373.0</ele><time>2026-04-05T15:10:44.999Z</time></trkpt><trkpt lat="44.688925784645825" lon="9.328998662466951"><ele>371.25</ele><time>2026-04-05T15:10:45.999Z</time></trkpt><trkpt lat="44.689021349981346" lon="9.329031123667884"><ele>369.5</ele><time>2026-04-05T15:10:46.999Z</time></trkpt><trkpt lat="44.68912097738384" lon="9.329107945676164"><ele>367.75</ele><time>2026-04-05T15:10:47.999Z</time></trkpt><trkpt lat="44.689236952881274" lon="9.329152227551207"><ele>366.0</ele><time>2026-04-05T15:10:48.999Z</time></trkpt><trkpt lat="44.68937279997385" lon="9.329214695817251"><ele>368.25</ele><time>2026-04-05T15:10:49.999Z</time></trkpt><trkpt lat="44.68950039640849" lon="9.32930320955185"><ele>370.5</ele><time>2026-04-05T15:10:50.999Z</time></trkpt><trkpt lat="44.68962813331251" lon="9.329383460730138"><ele>372.75</ele><time>2026-04-05T15:10:52Z</time></trkpt><trkpt lat="44.68973885539235" lon="9.3294514831162"><ele>375.0</ele><time>2026-04-05T15:10:53Z</time></trkpt><trkpt lat="44.689839986309266" lon="9.329512988118864"><ele>375.0</ele><time>2026-04-05T15:10:54Z</time></trkpt><trkpt lat="44.689937494542015" lon="9.3295734081076"><ele>375.0</ele><time>2026-04-05T15:10:55Z</time></trkpt><trkpt lat="44.690040702459726" lon="9.32963205194028"><ele>375.0</ele><time>2026-04-05T15:10:56Z</time></trkpt><trkpt lat="44.69012001828112" lon="9.329704901850484"><ele>375.0</ele><time>2026-04-05T15:10:57Z</time></trkpt><trkpt lat="44.69017750762674" lon="9.329825366716067"><ele>375.0</ele><time>2026-04-05T15:10:58Z</time></trkpt><trkpt lat="44.690186739553475" lon="9.329967396076682"><ele>375.0</ele><time>2026-04-05T15:10:59Z</time></trkpt><trkpt lat="44.69019737547027" lon="9.330133131480604"><ele>375.0</ele><time>2026-04-05T15:11:00Z</time></trkpt><trkpt lat="44.69018945390818" lon="9.330333637574975"><ele>375.0</ele><time>2026-04-05T15:11:01Z</time></trkpt><trkpt lat="44.69017965273366" lon="9.330534868272816"><ele>375.0</ele><time>2026-04-05T15:11:02Z</time></trkpt><trkpt lat="44.690166336622" lon="9.330714214093303"><ele>375.0</ele><time>2026-04-05T15:11:03Z</time></trkpt><trkpt lat="44.69014528760577" lon="9.330881881150619"><ele>375.0</ele><time>2026-04-05T15:11:04Z</time></trkpt><trkpt lat="44.690138380193474" lon="9.331046387281877"><ele>375.0</ele><time>2026-04-05T15:11:05Z</time></trkpt><trkpt lat="44.690149567430225" lon="9.331255810092973"><ele>375.0</ele><time>2026-04-05T15:11:06Z</time></trkpt><trkpt lat="44.6901820633402" lon="9.331433664540635"><ele>376.0</ele><time>2026-04-05T15:11:07Z</time></trkpt><trkpt lat="44.69023845389102" lon="9.33159750648963"><ele>377.0</ele><time>2026-04-05T15:11:08Z</time></trkpt><trkpt lat="44.69031811492016" lon="9.331747835264482"><ele>378.0</ele><time>2026-04-05T15:11:09Z</time></trkpt><trkpt lat="44.69041487573444" lon="9.331893105145603"><ele>379.0</ele><time>2026-04-05T15:11:10Z</time></trkpt><trkpt lat="44.69049506806812" lon="9.332020699660056"><ele>382.6</ele><time>2026-04-05T15:11:11Z</time></trkpt><trkpt lat="44.69056540555967" lon="9.33212534487763"><ele>386.2</ele><time>2026-04-05T15:11:12Z</time></trkpt><trkpt lat="44.69064883426236" lon="9.332212164253336"><ele>389.8</ele><time>2026-04-05T15:11:13Z</time></trkpt><trkpt lat="44.690777615039856" lon="9.332261014050925"><ele>393.40000000000003</ele><time>2026-04-05T15:11:14Z</time></trkpt><trkpt lat="44.69088273778416" lon="9.332282854353366"><ele>397.0</ele><time>2026-04-05T15:11:15Z</time></trkpt><trkpt lat="44.690959337793544" lon="9.332308176670967"><ele>397.00000000000006</ele><time>2026-04-05T15:11:16Z</time></trkpt><trkpt lat="44.69101682923638" lon="9.332398541842112"><ele>397.0</ele><time>2026-04-05T15:11:17Z</time></trkpt><trkpt lat="44.69104185209811" lon="9.332490684111036"><ele>397.0</ele><time>2026-04-05T15:11:18Z</time></trkpt><trkpt lat="44.69101060941923" lon="9.332600570951946"><ele>397.0</ele><time>2026-04-05T15:11:19Z</time></trkpt><trkpt lat="44.69096259563618" lon="9.332677564374807"><ele>397.00000000000006</ele><time>2026-04-05T15:11:20Z</time></trkpt><trkpt lat="44.69084759498288" lon="9.332694582425816"><ele>397.0</ele><time>2026-04-05T15:11:21Z</time></trkpt><trkpt lat="44.69072579876089" lon="9.332707734999534"><ele>397.0</ele><time>2026-04-05T15:11:22Z</time></trkpt><trkpt lat="44.690573890045165" lon="9.33271352981448"><ele>397.0</ele><time>2026-04-05T15:11:23Z</time></trkpt><trkpt lat="44.69044034778146" lon="9.332741550464666"><ele>397.0</ele><time>2026-04-05T15:11:24Z</time></trkpt><trkpt lat="44.69033115462227" lon="9.33279770633131"><ele>397.0</ele><time>2026-04-05T15:11:25Z</time></trkpt><trkpt lat="44.69023520922095" lon="9.332881220812713"><ele>396.6</ele><time>2026-04-05T15:11:26Z</time></trkpt><trkpt lat="44.690158210592806" lon="9.332970959673318"><ele>396.20000000000005</ele><time>2026-04-05T15:11:27Z</time></trkpt><trkpt lat="44.69010900977577" lon="9.333067008776295"><ele>395.8</ele><time>2026-04-05T15:11:28Z</time></trkpt><trkpt lat="44.690086302410485" lon="9.33321563733744"><ele>395.4</ele><time>2026-04-05T15:11:29Z</time></trkpt><trkpt lat="44.69008572958021" lon="9.333379158124645"><ele>395.0</ele><time>2026-04-05T15:11:30Z</time></trkpt><trkpt lat="44.690107841015354" lon="9.333596773091076"><ele>395.0</ele><time>2026-04-05T15:11:31Z</time></trkpt><trkpt lat="44.690133352135334" lon="9.33383633269529"><ele>395.0</ele><time>2026-04-05T15:11:32Z</time></trkpt><trkpt lat="44.69014135703156" lon="9.334045693081334"><ele>395.0</ele><time>2026-04-05T15:11:33Z</time></trkpt><trkpt lat="44.69013837217468" lon="9.334227595345721"><ele>395.5</ele><time>2026-04-05T15:11:34Z</time></trkpt><trkpt lat="44.690152353130884" lon="9.334374201616257"><ele>396.0</ele><time>2026-04-05T15:11:35Z</time></trkpt><trkpt lat="44.69019644103645" lon="9.334549742433909"><ele>396.5</ele><time>2026-04-05T15:11:36Z</time></trkpt><trkpt lat="44.69028353983421" lon="9.334720313825658"><ele>397.0</ele><time>2026-04-05T15:11:37Z</time></trkpt><trkpt lat="44.69043663441284" lon="9.33487975463858"><ele>405.33333333333337</ele><time>2026-04-05T15:11:38Z</time></trkpt><trkpt lat="44.69052169424037" lon="9.335072733884022"><ele>413.66666666666663</ele><time>2026-04-05T15:11:39Z</time></trkpt><trkpt lat="44.690556817098425" lon="9.335273354539243"><ele>422.0</ele><time>2026-04-05T15:11:40Z</time></trkpt><trkpt lat="44.6905443110883" lon="9.335507954174972"><ele>423.3333333333333</ele><time>2026-04-05T15:11:41Z</time></trkpt><trkpt lat="44.69055668806713" lon="9.335802824827757"><ele>424.66666666666663</ele><time>2026-04-05T15:11:42Z</time></trkpt><trkpt lat="44.69054478225104" lon="9.336089978696027"><ele>426.0</ele><time>2026-04-05T15:11:43Z</time></trkpt><trkpt lat="44.69054754951375" lon="9.336327534389806"><ele>425.25</ele><time>2026-04-05T15:11:44Z</time></trkpt><trkpt lat="44.69052616250271" lon="9.336549618867203"><ele>424.5</ele><time>2026-04-05T15:11:45Z</time></trkpt><trkpt lat="44.6905202747913" lon="9.336772283953296"><ele>423.75</ele><time>2026-04-05T15:11:46Z</time></trkpt><trkpt lat="44.69050362918309" lon="9.336918099317652"><ele>423.0</ele><time>2026-04-05T15:11:47Z</time></trkpt><trkpt lat="44.690491503852925" lon="9.337044666641292"><ele>423.0</ele><time>2026-04-05T15:11:48Z</time></trkpt><trkpt lat="44.69050658044399" lon="9.33717082994479"><ele>423.0</ele><time>2026-04-05T15:11:49Z</time></trkpt><trkpt lat="44.69056636264852" lon="9.337344242816652"><ele>423.0</ele><time>2026-04-05T15:11:50Z</time></trkpt><trkpt lat="44.69065669979949" lon="9.33751110318141"><ele>423.0</ele><time>2026-04-05T15:11:51Z</time></trkpt><trkpt lat="44.69077259531559" lon="9.33764706683631"><ele>422.25</ele><time>2026-04-05T15:11:52Z</time></trkpt><trkpt lat="44.69086648479133" lon="9.337752256264684"><ele>421.5</ele><time>2026-04-05T15:11:53Z</time></trkpt><trkpt lat="44.69098193355225" lon="9.337820529108917"><ele>420.75</ele><time>2026-04-05T15:11:54Z</time></trkpt><trkpt lat="44.6911298356144" lon="9.337872374325665"><ele>420.0</ele><time>2026-04-05T15:11:55Z</time></trkpt><trkpt lat="44.69130214130643" lon="9.337906588772752"><ele>420.0</ele><time>2026-04-05T15:11:55.999Z</time></trkpt><trkpt lat="44.69142954592742" lon="9.337959267644974"><ele>420.0</ele><time>2026-04-05T15:11:56.999Z</time></trkpt><trkpt lat="44.69153903182425" lon="9.337999330383342"><ele>420.0</ele><time>2026-04-05T15:11:57.999Z</time></trkpt><trkpt lat="44.691646067754" lon="9.338082033749465"><ele>420.0</ele><time>2026-04-05T15:11:58.999Z</time></trkpt><trkpt lat="44.69171858019368" lon="9.338189870099734"><ele>420.0</ele><time>2026-04-05T15:11:59.999Z</time></trkpt><trkpt lat="44.691765419053624" lon="9.338312742182522"><ele>420.0</ele><time>2026-04-05T15:12:00.999Z</time></trkpt><trkpt lat="44.691809583745545" lon="9.338423979560426"><ele>420.0</ele><time>2026-04-05T15:12:01.999Z</time></trkpt><trkpt lat="44.6918069428617" lon="9.338559815781739"><ele>420.0</ele><time>2026-04-05T15:12:02.999Z</time></trkpt><trkpt lat="44.691763780403605" lon="9.338695855243067"><ele>420.0</ele><time>2026-04-05T15:12:03.999Z</time></trkpt><trkpt lat="44.691650877846065" lon="9.338852986949734"><ele>420.25</ele><time>2026-04-05T15:12:04.999Z</time></trkpt><trkpt lat="44.6915362289782" lon="9.339032273810291"><ele>420.5</ele><time>2026-04-05T15:12:05.999Z</time></trkpt><trkpt lat="44.69145800540056" lon="9.339216047266008"><ele>420.75</ele><time>2026-04-05T15:12:06.999Z</time></trkpt><trkpt lat="44.69140452976787" lon="9.339344964792943"><ele>421.0</ele><time>2026-04-05T15:12:07.999Z</time></trkpt><trkpt lat="44.69137764690102" lon="9.339446845094223"><ele>421.0</ele><time>2026-04-05T15:12:08.999Z</time></trkpt><trkpt lat="44.69138502335968" lon="9.33955602606169"><ele>421.0</ele><time>2026-04-05T15:12:09.999Z</time></trkpt><trkpt lat="44.69143157014041" lon="9.339675719355835"><ele>421.0</ele><time>2026-04-05T15:12:10.999Z</time></trkpt><trkpt lat="44.69150468176485" lon="9.339792350465324"><ele>421.0</ele><time>2026-04-05T15:12:11.999Z</time></trkpt><trkpt lat="44.6915549564644" lon="9.339922707156068"><ele>421.0</ele><time>2026-04-05T15:12:12.999Z</time></trkpt><trkpt lat="44.691556152030365" lon="9.340085816039952"><ele>421.33333333333337</ele><time>2026-04-05T15:12:13.999Z</time></trkpt><trkpt lat="44.691512700728346" lon="9.34030229627451"><ele>421.66666666666663</ele><time>2026-04-05T15:12:14.999Z</time></trkpt><trkpt lat="44.69146230968229" lon="9.340522479343015"><ele>422.0</ele><time>2026-04-05T15:12:15.999Z</time></trkpt><trkpt lat="44.691407915099305" lon="9.340682388966032"><ele>422.0</ele><time>2026-04-05T15:12:16.999Z</time></trkpt><trkpt lat="44.691369365058506" lon="9.340828412413249"><ele>422.0</ele><time>2026-04-05T15:12:17.999Z</time></trkpt><trkpt lat="44.691366970449586" lon="9.340977320596576"><ele>422.0</ele><time>2026-04-05T15:12:18.999Z</time></trkpt><trkpt lat="44.691386650409115" lon="9.341164832769321"><ele>422.0</ele><time>2026-04-05T15:12:19.999Z</time></trkpt><trkpt lat="44.691434822542305" lon="9.34136020054559"><ele>421.0</ele><time>2026-04-05T15:12:20.999Z</time></trkpt><trkpt lat="44.691488456051005" lon="9.3415446547069"><ele>420.0</ele><time>2026-04-05T15:12:21.999Z</time></trkpt><trkpt lat="44.691510529798464" lon="9.341695374685296"><ele>419.0</ele><time>2026-04-05T15:12:22.999Z</time></trkpt><trkpt lat="44.69150283755648" lon="9.34181789304744"><ele>418.0</ele><time>2026-04-05T15:12:23.999Z</time></trkpt><trkpt lat="44.6914651244888" lon="9.34194594708407"><ele>417.0</ele><time>2026-04-05T15:12:24.999Z</time></trkpt><trkpt lat="44.69142387044191" lon="9.342050417009961"><ele>417.0</ele><time>2026-04-05T15:12:25.999Z</time></trkpt><trkpt lat="44.69141836629654" lon="9.342157854380964"><ele>417.0</ele><time>2026-04-05T15:12:26.999Z</time></trkpt><trkpt lat="44.691452474469635" lon="9.342259484719476"><ele>417.0</ele><time>2026-04-05T15:12:27.999Z</time></trkpt><trkpt lat="44.691508525675474" lon="9.342347904911673"><ele>417.0</ele><time>2026-04-05T15:12:28.999Z</time></trkpt><trkpt lat="44.691580459050016" lon="9.342402692000887"><ele>417.0</ele><time>2026-04-05T15:12:29.999Z</time></trkpt><trkpt lat="44.69165608906974" lon="9.342427991653949"><ele>417.0</ele><time>2026-04-05T15:12:30.999Z</time></trkpt><trkpt lat="44.69175119543166" lon="9.342377061541534"><ele>416.20000000000005</ele><time>2026-04-05T15:12:31.999Z</time></trkpt><trkpt lat="44.69188153348474" lon="9.342344249903764"><ele>415.4</ele><time>2026-04-05T15:12:32.999Z</time></trkpt><trkpt lat="44.69197063152731" lon="9.342298126833205"><ele>414.6</ele><time>2026-04-05T15:12:33.999Z</time></trkpt><trkpt lat="44.6920442747395" lon="9.342220297236304"><ele>413.79999999999995</ele><time>2026-04-05T15:12:34.999Z</time></trkpt><trkpt lat="44.692113458200424" lon="9.34213435286962"><ele>413.0</ele><time>2026-04-05T15:12:35.999Z</time></trkpt><trkpt lat="44.69216580590116" lon="9.342026636558238"><ele>413.0</ele><time>2026-04-05T15:12:36.999Z</time></trkpt><trkpt lat="44.692222468715514" lon="9.341909609115616"><ele>413.0</ele><time>2026-04-05T15:12:37.999Z</time></trkpt><trkpt lat="44.69230408476578" lon="9.341799797394005"><ele>413.0</ele><time>2026-04-05T15:12:38.999Z</time></trkpt><trkpt lat="44.69238748020166" lon="9.341701862114794"><ele>413.0</ele><time>2026-04-05T15:12:39.999Z</time></trkpt><trkpt lat="44.69245383877905" lon="9.341609731987582"><ele>413.0</ele><time>2026-04-05T15:12:40.999Z</time></trkpt><trkpt lat="44.69250554266898" lon="9.341504941924638"><ele>413.0</ele><time>2026-04-05T15:12:41.999Z</time></trkpt><trkpt lat="44.692552164967985" lon="9.341409242051924"><ele>413.0</ele><time>2026-04-05T15:12:42.999Z</time></trkpt><trkpt lat="44.69260520050159" lon="9.341328698390443"><ele>413.0</ele><time>2026-04-05T15:12:43.999Z</time></trkpt><trkpt lat="44.69267283612298" lon="9.341256749887286"><ele>413.0</ele><time>2026-04-05T15:12:44.999Z</time></trkpt><trkpt lat="44.69275970279388" lon="9.341209154420715"><ele>413.0</ele><time>2026-04-05T15:12:45.999Z</time></trkpt><trkpt lat="44.692875218274374" lon="9.341172571761936"><ele>418.79999999999995</ele><time>2026-04-05T15:12:46.999Z</time></trkpt><trkpt lat="44.692996267630384" lon="9.341170657132443"><ele>424.6</ele><time>2026-04-05T15:12:47.999Z</time></trkpt><trkpt lat="44.693096420273086" lon="9.341186325871465"><ele>430.40000000000003</ele><time>2026-04-05T15:12:48.999Z</time></trkpt><trkpt lat="44.69317324284358" lon="9.341202835919457"><ele>436.20000000000005</ele><time>2026-04-05T15:12:49.999Z</time></trkpt><trkpt lat="44.69326159672516" lon="9.341234015367924"><ele>442.0</ele><time>2026-04-05T15:12:50.999Z</time></trkpt><trkpt lat="44.693330590311255" lon="9.341264112896626"><ele>442.0</ele><time>2026-04-05T15:12:51.999Z</time></trkpt><trkpt lat="44.69337031318148" lon="9.341368792488105"><ele>442.00000000000006</ele><time>2026-04-05T15:12:52.999Z</time></trkpt><trkpt lat="44.69341132807163" lon="9.341508470670087"><ele>442.00000000000006</ele><time>2026-04-05T15:12:53.999Z</time></trkpt><trkpt lat="44.69341303174436" lon="9.341673755509971"><ele>442.0</ele><time>2026-04-05T15:12:54.999Z</time></trkpt><trkpt lat="44.69341156007298" lon="9.34180843098395"><ele>442.0</ele><time>2026-04-05T15:12:55.999Z</time></trkpt><trkpt lat="44.69340279094697" lon="9.341954629302652"><ele>437.5</ele><time>2026-04-05T15:12:56.999Z</time></trkpt><trkpt lat="44.69329737738123" lon="9.342034320178428"><ele>433.0</ele><time>2026-04-05T15:12:58Z</time></trkpt><trkpt lat="44.69319062861015" lon="9.342167186120033"><ele>428.5</ele><time>2026-04-05T15:12:59Z</time></trkpt><trkpt lat="44.69308698163384" lon="9.342346223442492"><ele>424.0</ele><time>2026-04-05T15:13:00Z</time></trkpt><trkpt lat="44.69299085885796" lon="9.342535292976931"><ele>424.0</ele><time>2026-04-05T15:13:01Z</time></trkpt><trkpt lat="44.692908323406364" lon="9.342699809517136"><ele>424.0</ele><time>2026-04-05T15:13:02Z</time></trkpt><trkpt lat="44.69282576676918" lon="9.342883232763407"><ele>424.0</ele><time>2026-04-05T15:13:03Z</time></trkpt><trkpt lat="44.69275517364421" lon="9.343081682963446"><ele>419.75</ele><time>2026-04-05T15:13:04Z</time></trkpt><trkpt lat="44.69273209861665" lon="9.343255544159721"><ele>415.5</ele><time>2026-04-05T15:13:05Z</time></trkpt><trkpt lat="44.69267928256494" lon="9.343424873867297"><ele>411.25</ele><time>2026-04-05T15:13:06Z</time></trkpt><trkpt lat="44.69258043670758" lon="9.343565256274353"><ele>407.0</ele><time>2026-04-05T15:13:07Z</time></trkpt><trkpt lat="44.6924597981838" lon="9.343726827283803"><ele>419.3333333333333</ele><time>2026-04-05T15:13:08Z</time></trkpt><trkpt lat="44.69231232090209" lon="9.343907039954052"><ele>431.66666666666663</ele><time>2026-04-05T15:13:09Z</time></trkpt><trkpt lat="44.6922034084265" lon="9.344033642695438"><ele>444.0</ele><time>2026-04-05T15:13:10Z</time></trkpt><trkpt lat="44.69207881386088" lon="9.34414692814781"><ele>444.0</ele><time>2026-04-05T15:13:11Z</time></trkpt><trkpt lat="44.691958226232806" lon="9.34424143911018"><ele>444.0</ele><time>2026-04-05T15:13:12Z</time></trkpt><trkpt lat="44.69181356635058" lon="9.344376711473608"><ele>444.0</ele><time>2026-04-05T15:13:13Z</time></trkpt><trkpt lat="44.69168030398283" lon="9.34450686010318"><ele>444.25</ele><time>2026-04-05T15:13:14Z</time></trkpt><trkpt lat="44.69155680421871" lon="9.344616938375667"><ele>444.5</ele><time>2026-04-05T15:13:15Z</time></trkpt><trkpt lat="44.69142654733348" lon="9.344717498431699"><ele>444.75</ele><time>2026-04-05T15:13:16Z</time></trkpt><trkpt lat="44.691319446489345" lon="9.34474167954704"><ele>445.0</ele><time>2026-04-05T15:13:17Z</time></trkpt><trkpt lat="44.69124920522692" lon="9.344793528824383"><ele>445.0</ele><time>2026-04-05T15:13:18Z</time></trkpt><trkpt lat="44.69117832016359" lon="9.344926298558052"><ele>445.0</ele><time>2026-04-05T15:13:19Z</time></trkpt><trkpt lat="44.69113921907066" lon="9.345121923752883"><ele>445.0</ele><time>2026-04-05T15:13:20Z</time></trkpt><trkpt lat="44.69111837340946" lon="9.345367680182239"><ele>445.0</ele><time>2026-04-05T15:13:21Z</time></trkpt><trkpt lat="44.69110482942873" lon="9.345601392807476"><ele>447.25</ele><time>2026-04-05T15:13:22Z</time></trkpt><trkpt lat="44.691108534604915" lon="9.3457865723661"><ele>449.5</ele><time>2026-04-05T15:13:23Z</time></trkpt><trkpt lat="44.69113652784693" lon="9.34593576044657"><ele>451.75</ele><time>2026-04-05T15:13:24Z</time></trkpt><trkpt lat="44.69119128988264" lon="9.34606915383772"><ele>454.0</ele><time>2026-04-05T15:13:25Z</time></trkpt><trkpt lat="44.69129788358268" lon="9.346235088092104"><ele>454.0</ele><time>2026-04-05T15:13:26Z</time></trkpt><trkpt lat="44.69142305495913" lon="9.346347138742997"><ele>454.0</ele><time>2026-04-05T15:13:27Z</time></trkpt><trkpt lat="44.69151427039618" lon="9.346418771617026"><ele>454.0</ele><time>2026-04-05T15:13:28Z</time></trkpt><trkpt lat="44.691565981297806" lon="9.34649916560986"><ele>454.0</ele><time>2026-04-05T15:13:29Z</time></trkpt><trkpt lat="44.69159326596585" lon="9.34661647566955"><ele>454.0</ele><time>2026-04-05T15:13:30Z</time></trkpt><trkpt lat="44.69154154732048" lon="9.346741759187367"><ele>452.2</ele><time>2026-04-05T15:13:31Z</time></trkpt><trkpt lat="44.691472601600694" lon="9.3468606833165"><ele>450.4</ele><time>2026-04-05T15:13:32Z</time></trkpt><trkpt lat="44.69142196748049" lon="9.347007408105851"><ele>448.6</ele><time>2026-04-05T15:13:33Z</time></trkpt><trkpt lat="44.69138556305366" lon="9.347152803602306"><ele>446.8</ele><time>2026-04-05T15:13:34Z</time></trkpt><trkpt lat="44.69139850775441" lon="9.34729103279473"><ele>445.0</ele><time>2026-04-05T15:13:35Z</time></trkpt><trkpt lat="44.6914305473815" lon="9.347450731689435"><ele>444.25</ele><time>2026-04-05T15:13:36Z</time></trkpt><trkpt lat="44.691462465578475" lon="9.347612751509798"><ele>443.5</ele><time>2026-04-05T15:13:37Z</time></trkpt><trkpt lat="44.69152390753264" lon="9.347733643013783"><ele>442.75</ele><time>2026-04-05T15:13:38Z</time></trkpt><trkpt lat="44.6916747015738" lon="9.347807588987497"><ele>442.0</ele><time>2026-04-05T15:13:39Z</time></trkpt><trkpt lat="44.69176551385033" lon="9.347866024350578"><ele>442.0</ele><time>2026-04-05T15:13:40Z</time></trkpt><trkpt lat="44.69180049337878" lon="9.347946143011352"><ele>442.00000000000006</ele><time>2026-04-05T15:13:41Z</time></trkpt><trkpt lat="44.69182476148319" lon="9.348068879670057"><ele>442.00000000000006</ele><time>2026-04-05T15:13:42Z</time></trkpt><trkpt lat="44.69177953856626" lon="9.34818359033682"><ele>442.0</ele><time>2026-04-05T15:13:43Z</time></trkpt><trkpt lat="44.691741884993256" lon="9.348351122705061"><ele>442.0</ele><time>2026-04-05T15:13:44Z</time></trkpt><trkpt lat="44.691627245246586" lon="9.348543316639859"><ele>440.25</ele><time>2026-04-05T15:13:45Z</time></trkpt><trkpt lat="44.691537727686544" lon="9.348694460096054"><ele>438.5</ele><time>2026-04-05T15:13:46Z</time></trkpt><trkpt lat="44.69146028136757" lon="9.348843389148294"><ele>436.75</ele><time>2026-04-05T15:13:47Z</time></trkpt><trkpt lat="44.69143449145313" lon="9.348950148248921"><ele>435.0</ele><time>2026-04-05T15:13:48Z</time></trkpt><trkpt lat="44.69142806063206" lon="9.349088850318118"><ele>434.0</ele><time>2026-04-05T15:13:49Z</time></trkpt><trkpt lat="44.69151394896291" lon="9.349253577642473"><ele>433.0</ele><time>2026-04-05T15:13:50Z</time></trkpt><trkpt lat="44.69159821870565" lon="9.349396371211794"><ele>432.0</ele><time>2026-04-05T15:13:51Z</time></trkpt><trkpt lat="44.69171801360362" lon="9.349478123499503"><ele>431.0</ele><time>2026-04-05T15:13:52Z</time></trkpt><trkpt lat="44.69184785067064" lon="9.349507890750644"><ele>440.25</ele><time>2026-04-05T15:13:53Z</time></trkpt><trkpt lat="44.69192651115945" lon="9.349584823353698"><ele>449.5</ele><time>2026-04-05T15:13:54Z</time></trkpt><trkpt lat="44.691973995031574" lon="9.349715187018043"><ele>458.75</ele><time>2026-04-05T15:13:55Z</time></trkpt><trkpt lat="44.69199952299531" lon="9.349884786127408"><ele>468.0</ele><time>2026-04-05T15:13:56Z</time></trkpt><trkpt lat="44.69209282857407" lon="9.350050113525795"><ele>468.0</ele><time>2026-04-05T15:13:57Z</time></trkpt><trkpt lat="44.69219416285136" lon="9.350169426664682"><ele>468.0</ele><time>2026-04-05T15:13:58Z</time></trkpt><trkpt lat="44.692292894396104" lon="9.350316543934724"><ele>468.0</ele><time>2026-04-05T15:13:59Z</time></trkpt><trkpt lat="44.692371914825515" lon="9.350525398725225"><ele>468.0</ele><time>2026-04-05T15:13:59.999Z</time></trkpt><trkpt lat="44.692454546282164" lon="9.3507228427249"><ele>471.75</ele><time>2026-04-05T15:14:00.999Z</time></trkpt><trkpt lat="44.69257843700121" lon="9.350890919764892"><ele>475.5</ele><time>2026-04-05T15:14:01.999Z</time></trkpt><trkpt lat="44.69269768711316" lon="9.350996059088777"><ele>479.25</ele><time>2026-04-05T15:14:02.999Z</time></trkpt><trkpt lat="44.692785341768364" lon="9.351116870871115"><ele>483.0</ele><time>2026-04-05T15:14:03.999Z</time></trkpt><trkpt lat="44.692867864044715" lon="9.35124049512208"><ele>479.0</ele><time>2026-04-05T15:14:04.999Z</time></trkpt><trkpt lat="44.69290704116896" lon="9.3514085553316"><ele>475.0</ele><time>2026-04-05T15:14:05.999Z</time></trkpt><trkpt lat="44.69294064454828" lon="9.35158890324658"><ele>471.0</ele><time>2026-04-05T15:14:06.999Z</time></trkpt><trkpt lat="44.69300646125603" lon="9.3518347401302"><ele>467.0</ele><time>2026-04-05T15:14:07.999Z</time></trkpt><trkpt lat="44.693105849592605" lon="9.35202370146125"><ele>467.0</ele><time>2026-04-05T15:14:08.999Z</time></trkpt><trkpt lat="44.69320184051447" lon="9.352182591189807"><ele>467.0</ele><time>2026-04-05T15:14:09.999Z</time></trkpt><trkpt lat="44.69326915452284" lon="9.352342829644462"><ele>467.0</ele><time>2026-04-05T15:14:10.999Z</time></trkpt><trkpt lat="44.69331030856769" lon="9.352499838534964"><ele>467.0</ele><time>2026-04-05T15:14:11.999Z</time></trkpt><trkpt lat="44.693296498576444" lon="9.352664129697645"><ele>462.20000000000005</ele><time>2026-04-05T15:14:12.999Z</time></trkpt><trkpt lat="44.69326259309776" lon="9.352793197943408"><ele>457.40000000000003</ele><time>2026-04-05T15:14:13.999Z</time></trkpt><trkpt lat="44.69324178495158" lon="9.352949463833111"><ele>452.59999999999997</ele><time>2026-04-05T15:14:14.999Z</time></trkpt><trkpt lat="44.69323231866119" lon="9.353093529553604"><ele>447.79999999999995</ele><time>2026-04-05T15:14:15.999Z</time></trkpt><trkpt lat="44.69326612645304" lon="9.353191024092292"><ele>443.0</ele><time>2026-04-05T15:14:16.999Z</time></trkpt><trkpt lat="44.693328181653584" lon="9.353270178719155"><ele>448.0</ele><time>2026-04-05T15:14:17.999Z</time></trkpt><trkpt lat="44.693467985688024" lon="9.353321405523392"><ele>453.0</ele><time>2026-04-05T15:14:18.999Z</time></trkpt><trkpt lat="44.69361667630903" lon="9.353345275122752"><ele>458.0</ele><time>2026-04-05T15:14:19.999Z</time></trkpt><trkpt lat="44.693714689400544" lon="9.353338484127097"><ele>463.0</ele><time>2026-04-05T15:14:20.999Z</time></trkpt><trkpt lat="44.69381219392723" lon="9.35338475513075"><ele>463.0</ele><time>2026-04-05T15:14:21.999Z</time></trkpt><trkpt lat="44.693894192582796" lon="9.353464729600741"><ele>462.99999999999994</ele><time>2026-04-05T15:14:22.999Z</time></trkpt><trkpt lat="44.693932997692116" lon="9.353571044725422"><ele>462.99999999999994</ele><time>2026-04-05T15:14:23.999Z</time></trkpt><trkpt lat="44.69402777322865" lon="9.353630949880229"><ele>463.0</ele><time>2026-04-05T15:14:24.999Z</time></trkpt><trkpt lat="44.694130985588544" lon="9.353635455336278"><ele>463.0</ele><time>2026-04-05T15:14:25.999Z</time></trkpt><trkpt lat="44.694255675275386" lon="9.353597396102645"><ele>463.0</ele><time>2026-04-05T15:14:26.999Z</time></trkpt><trkpt lat="44.69436415076927" lon="9.353570642975122"><ele>462.99999999999994</ele><time>2026-04-05T15:14:27.999Z</time></trkpt><trkpt lat="44.694509610566" lon="9.353484494805802"><ele>462.99999999999994</ele><time>2026-04-05T15:14:28.999Z</time></trkpt><trkpt lat="44.694593221255836" lon="9.353499828859789"><ele>463.0</ele><time>2026-04-05T15:14:29.999Z</time></trkpt><trkpt lat="44.69468329518148" lon="9.3535457720611"><ele>463.0</ele><time>2026-04-05T15:14:30.999Z</time></trkpt><trkpt lat="44.69473734537286" lon="9.35374721996396"><ele>466.75</ele><time>2026-04-05T15:14:31.999Z</time></trkpt><trkpt lat="44.69464675337364" lon="9.353900836968164"><ele>470.5</ele><time>2026-04-05T15:14:32.999Z</time></trkpt><trkpt lat="44.694591554943564" lon="9.354106502726145"><ele>474.25</ele><time>2026-04-05T15:14:33.999Z</time></trkpt><trkpt lat="44.69463650678344" lon="9.354266919651778"><ele>478.0</ele><time>2026-04-05T15:14:34.999Z</time></trkpt><trkpt lat="44.69469266726458" lon="9.354418184799675"><ele>478.0</ele><time>2026-04-05T15:14:35.999Z</time></trkpt><trkpt lat="44.69477423502465" lon="9.354561209897442"><ele>478.0</ele><time>2026-04-05T15:14:36.999Z</time></trkpt><trkpt lat="44.6948115008469" lon="9.354692640837106"><ele>478.0</ele><time>2026-04-05T15:14:37.999Z</time></trkpt><trkpt lat="44.69483499584067" lon="9.354850970997335"><ele>478.0</ele><time>2026-04-05T15:14:38.999Z</time></trkpt><trkpt lat="44.694790591015575" lon="9.35504236329526"><ele>476.0</ele><time>2026-04-05T15:14:39.999Z</time></trkpt><trkpt lat="44.694740210971794" lon="9.355222473374482"><ele>474.0</ele><time>2026-04-05T15:14:40.999Z</time></trkpt><trkpt lat="44.69470114461897" lon="9.355417553907857"><ele>472.0</ele><time>2026-04-05T15:14:41.999Z</time></trkpt><trkpt lat="44.69468115568242" lon="9.35555525969214"><ele>470.0</ele><time>2026-04-05T15:14:42.999Z</time></trkpt><trkpt lat="44.69468852876779" lon="9.35566583643005"><ele>470.0</ele><time>2026-04-05T15:14:43.999Z</time></trkpt><trkpt lat="44.69471068919753" lon="9.35582048742074"><ele>470.0</ele><time>2026-04-05T15:14:44.999Z</time></trkpt><trkpt lat="44.69477279797618" lon="9.35590143161239"><ele>470.0</ele><time>2026-04-05T15:14:45.999Z</time></trkpt><trkpt lat="44.694862152733506" lon="9.356046773830037"><ele>470.0</ele><time>2026-04-05T15:14:46.999Z</time></trkpt><trkpt lat="44.694882234046716" lon="9.356198652069745"><ele>470.0</ele><time>2026-04-05T15:14:47.999Z</time></trkpt><trkpt lat="44.6948743623628" lon="9.356374971161385"><ele>471.0</ele><time>2026-04-05T15:14:48.999Z</time></trkpt><trkpt lat="44.69479558300149" lon="9.356548610777116"><ele>472.0</ele><time>2026-04-05T15:14:49.999Z</time></trkpt><trkpt lat="44.69475544393663" lon="9.356793669955755"><ele>473.0</ele><time>2026-04-05T15:14:50.999Z</time></trkpt><trkpt lat="44.69466225408484" lon="9.357116655390191"><ele>476.25</ele><time>2026-04-05T15:14:51.999Z</time></trkpt><trkpt lat="44.694616620058724" lon="9.357309158927498"><ele>479.5</ele><time>2026-04-05T15:14:52.999Z</time></trkpt><trkpt lat="44.69455221238082" lon="9.3574689527867"><ele>482.75</ele><time>2026-04-05T15:14:53.999Z</time></trkpt><trkpt lat="44.694471146204855" lon="9.357560392452491"><ele>486.0</ele><time>2026-04-05T15:14:54.999Z</time></trkpt><trkpt lat="44.69431658037045" lon="9.35766224011456"><ele>481.25</ele><time>2026-04-05T15:14:55.999Z</time></trkpt><trkpt lat="44.69416386586639" lon="9.357729904039992"><ele>476.5</ele><time>2026-04-05T15:14:56.999Z</time></trkpt><trkpt lat="44.69404783599934" lon="9.357837618569757"><ele>471.75</ele><time>2026-04-05T15:14:57.999Z</time></trkpt><trkpt lat="44.69394164406372" lon="9.357985006451166"><ele>467.0</ele><time>2026-04-05T15:14:58.999Z</time></trkpt><trkpt lat="44.69387169068591" lon="9.358118429024582"><ele>467.0</ele><time>2026-04-05T15:14:59.999Z</time></trkpt><trkpt lat="44.69383352870036" lon="9.358288965894667"><ele>467.00000000000006</ele><time>2026-04-05T15:15:00.999Z</time></trkpt><trkpt lat="44.69379627032019" lon="9.358403670211626"><ele>467.00000000000006</ele><time>2026-04-05T15:15:01.999Z</time></trkpt><trkpt lat="44.69385363557628" lon="9.358480865204598"><ele>467.0</ele><time>2026-04-05T15:15:02.999Z</time></trkpt><trkpt lat="44.6939206299908" lon="9.358606908892778"><ele>467.0</ele><time>2026-04-05T15:15:04Z</time></trkpt><trkpt lat="44.69403909061879" lon="9.35877788208467"><ele>462.3333333333333</ele><time>2026-04-05T15:15:05Z</time></trkpt><trkpt lat="44.69418169547726" lon="9.358958644231233"><ele>457.66666666666663</ele><time>2026-04-05T15:15:06Z</time></trkpt><trkpt lat="44.69429356972688" lon="9.35913153224703"><ele>453.0</ele><time>2026-04-05T15:15:07Z</time></trkpt><trkpt lat="44.69437067225027" lon="9.35927274205421"><ele>457.0</ele><time>2026-04-05T15:15:08Z</time></trkpt><trkpt lat="44.69443639677312" lon="9.359338174193166"><ele>460.99999999999994</ele><time>2026-04-05T15:15:09Z</time></trkpt><trkpt lat="44.69452576468406" lon="9.359389464279634"><ele>464.99999999999994</ele><time>2026-04-05T15:15:10Z</time></trkpt><trkpt lat="44.694633837944764" lon="9.359402704466545"><ele>469.0</ele><time>2026-04-05T15:15:11Z</time></trkpt><trkpt lat="44.69476354485944" lon="9.359401525165017"><ele>473.0</ele><time>2026-04-05T15:15:12Z</time></trkpt><trkpt lat="44.69493520654433" lon="9.359351529004753"><ele>473.0</ele><time>2026-04-05T15:15:13Z</time></trkpt><trkpt lat="44.69510680771875" lon="9.359296378506372"><ele>473.0</ele><time>2026-04-05T15:15:14Z</time></trkpt><trkpt lat="44.69522741633496" lon="9.359254792882812"><ele>473.0</ele><time>2026-04-05T15:15:15Z</time></trkpt><trkpt lat="44.695362390759726" lon="9.359226225271332"><ele>473.0</ele><time>2026-04-05T15:15:16Z</time></trkpt><trkpt lat="44.6954778178989" lon="9.35924167659479"><ele>474.75</ele><time>2026-04-05T15:15:17Z</time></trkpt><trkpt lat="44.695557369737365" lon="9.359354085745702"><ele>476.5</ele><time>2026-04-05T15:15:18Z</time></trkpt><trkpt lat="44.695592896614514" lon="9.359533214088428"><ele>478.25</ele><time>2026-04-05T15:15:19Z</time></trkpt><trkpt lat="44.69558922182851" lon="9.35967858036743"><ele>480.0</ele><time>2026-04-05T15:15:20Z</time></trkpt><trkpt lat="44.69555443696023" lon="9.359821070145928"><ele>480.0</ele><time>2026-04-05T15:15:21Z</time></trkpt><trkpt lat="44.69551694344757" lon="9.360031323311755"><ele>480.0</ele><time>2026-04-05T15:15:22Z</time></trkpt><trkpt lat="44.695415716972285" lon="9.360336104435971"><ele>480.0</ele><time>2026-04-05T15:15:23Z</time></trkpt><trkpt lat="44.69534903154982" lon="9.360544641657258"><ele>479.5</ele><time>2026-04-05T15:15:24Z</time></trkpt><trkpt lat="44.69528652527149" lon="9.36075700500875"><ele>479.0</ele><time>2026-04-05T15:15:25Z</time></trkpt><trkpt lat="44.6952662628586" lon="9.360932344191847"><ele>478.5</ele><time>2026-04-05T15:15:26Z</time></trkpt><trkpt lat="44.69524682022317" lon="9.361110125608443"><ele>478.0</ele><time>2026-04-05T15:15:27Z</time></trkpt><trkpt lat="44.695252077390485" lon="9.361293194266615"><ele>479.5</ele><time>2026-04-05T15:15:28Z</time></trkpt><trkpt lat="44.69530768138834" lon="9.361488521613357"><ele>481.0</ele><time>2026-04-05T15:15:29Z</time></trkpt><trkpt lat="44.69533442505731" lon="9.36164865717509"><ele>482.5</ele><time>2026-04-05T15:15:30Z</time></trkpt><trkpt lat="44.69532718547036" lon="9.361821986799237"><ele>484.0</ele><time>2026-04-05T15:15:31Z</time></trkpt><trkpt lat="44.695309995804095" lon="9.36195263053651"><ele>478.25</ele><time>2026-04-05T15:15:32Z</time></trkpt><trkpt lat="44.695238652298116" lon="9.36203021237698"><ele>472.5</ele><time>2026-04-05T15:15:33Z</time></trkpt><trkpt lat="44.69514114240479" lon="9.362108685334267"><ele>466.75</ele><time>2026-04-05T15:15:34Z</time></trkpt><trkpt lat="44.69502221897754" lon="9.362190084712761"><ele>461.0</ele><time>2026-04-05T15:15:35Z</time></trkpt><trkpt lat="44.694913682863245" lon="9.362279073337586"><ele>461.0</ele><time>2026-04-05T15:15:36Z</time></trkpt><trkpt lat="44.69479040068309" lon="9.362402675725344"><ele>461.0</ele><time>2026-04-05T15:15:37Z</time></trkpt><trkpt lat="44.69468778168273" lon="9.362558872499623"><ele>461.0</ele><time>2026-04-05T15:15:38Z</time></trkpt><trkpt lat="44.69461627155143" lon="9.36270355469683"><ele>461.0</ele><time>2026-04-05T15:15:39Z</time></trkpt><trkpt lat="44.69457577519949" lon="9.362858435906961"><ele>461.0</ele><time>2026-04-05T15:15:40Z</time></trkpt><trkpt lat="44.694569303396975" lon="9.363015621605157"><ele>461.0</ele><time>2026-04-05T15:15:41Z</time></trkpt><trkpt lat="44.694581411175406" lon="9.36317269670662"><ele>461.0</ele><time>2026-04-05T15:15:42Z</time></trkpt><trkpt lat="44.69460978813511" lon="9.363320655438917"><ele>461.0</ele><time>2026-04-05T15:15:43Z</time></trkpt><trkpt lat="44.69461236070907" lon="9.363436251573805"><ele>461.0</ele><time>2026-04-05T15:15:44Z</time></trkpt><trkpt lat="44.694566108986585" lon="9.363544345797916"><ele>462.49999999999994</ele><time>2026-04-05T15:15:45Z</time></trkpt><trkpt lat="44.69450115480232" lon="9.363641474491041"><ele>464.0</ele><time>2026-04-05T15:15:46Z</time></trkpt><trkpt lat="44.69440449650107" lon="9.36366894922665"><ele>465.5</ele><time>2026-04-05T15:15:47Z</time></trkpt><trkpt lat="44.69433409638017" lon="9.363696022924872"><ele>467.0</ele><time>2026-04-05T15:15:48Z</time></trkpt><trkpt lat="44.69427152985269" lon="9.363750384925469"><ele>468.49999999999994</ele><time>2026-04-05T15:15:49Z</time></trkpt><trkpt lat="44.69422305873435" lon="9.363837327973265"><ele>470.0</ele><time>2026-04-05T15:15:50Z</time></trkpt><trkpt lat="44.69426027672444" lon="9.364023191378966"><ele>465.2</ele><time>2026-04-05T15:15:52Z</time></trkpt><trkpt lat="44.6943382032722" lon="9.364057839954025"><ele>460.4</ele><time>2026-04-05T15:15:53Z</time></trkpt><trkpt lat="44.69442610016809" lon="9.364072977314821"><ele>455.6</ele><time>2026-04-05T15:15:54Z</time></trkpt><trkpt lat="44.694528764204485" lon="9.364078559516594"><ele>450.8</ele><time>2026-04-05T15:15:55Z</time></trkpt><trkpt lat="44.694659914132146" lon="9.364096878039977"><ele>446.0</ele><time>2026-04-05T15:15:56Z</time></trkpt><trkpt lat="44.6948080649974" lon="9.364126425705994"><ele>446.0</ele><time>2026-04-05T15:15:57Z</time></trkpt><trkpt lat="44.69498162365099" lon="9.364073405390833"><ele>446.0</ele><time>2026-04-05T15:15:58Z</time></trkpt><trkpt lat="44.69523493986259" lon="9.364028363813956"><ele>446.0</ele><time>2026-04-05T15:15:59Z</time></trkpt><trkpt lat="44.695420972157635" lon="9.363966488450131"><ele>443.3333333333333</ele><time>2026-04-05T15:16:00Z</time></trkpt><trkpt lat="44.695589210229556" lon="9.363917669007842"><ele>440.66666666666663</ele><time>2026-04-05T15:16:01Z</time></trkpt><trkpt lat="44.69574414093704" lon="9.363894816632072"><ele>438.0</ele><time>2026-04-05T15:16:02Z</time></trkpt><trkpt lat="44.69589378773711" lon="9.363868464651503"><ele>438.0</ele><time>2026-04-05T15:16:03Z</time></trkpt><trkpt lat="44.69607707223636" lon="9.36388296817894"><ele>438.0</ele><time>2026-04-05T15:16:04Z</time></trkpt><trkpt lat="44.69625758850553" lon="9.363986275443839"><ele>438.0</ele><time>2026-04-05T15:16:05Z</time></trkpt><trkpt lat="44.69642227486707" lon="9.364012853068736"><ele>437.25</ele><time>2026-04-05T15:16:05.999Z</time></trkpt><trkpt lat="44.696580184221276" lon="9.364025391368456"><ele>436.5</ele><time>2026-04-05T15:16:06.999Z</time></trkpt><trkpt lat="44.69675197626569" lon="9.36402675071854"><ele>435.75</ele><time>2026-04-05T15:16:07.999Z</time></trkpt><trkpt lat="44.69686521190328" lon="9.364040533929671"><ele>435.0</ele><time>2026-04-05T15:16:08.999Z</time></trkpt><trkpt lat="44.69693129977698" lon="9.364007512908817"><ele>435.0</ele><time>2026-04-05T15:16:09.999Z</time></trkpt><trkpt lat="44.69707516697297" lon="9.36391347878018"><ele>435.0</ele><time>2026-04-05T15:16:10.999Z</time></trkpt><trkpt lat="44.697192811861015" lon="9.363868097113672"><ele>435.0</ele><time>2026-04-05T15:16:11.999Z</time></trkpt><trkpt lat="44.697327718964075" lon="9.363988604847242"><ele>435.0</ele><time>2026-04-05T15:16:12.999Z</time></trkpt><trkpt lat="44.697472582233104" lon="9.36401818562558"><ele>435.0</ele><time>2026-04-05T15:16:13.999Z</time></trkpt><trkpt lat="44.69759814041052" lon="9.3640406787826"><ele>435.0</ele><time>2026-04-05T15:16:14.999Z</time></trkpt><trkpt lat="44.697706414889964" lon="9.364049456280377"><ele>435.0</ele><time>2026-04-05T15:16:15.999Z</time></trkpt><trkpt lat="44.69780224178344" lon="9.364079513736117"><ele>435.0</ele><time>2026-04-05T15:16:16.999Z</time></trkpt><trkpt lat="44.69790535550065" lon="9.364178341599525"><ele>430.5</ele><time>2026-04-05T15:16:17.999Z</time></trkpt><trkpt lat="44.69789271470148" lon="9.364375438806306"><ele>426.0</ele><time>2026-04-05T15:16:18.999Z</time></trkpt><trkpt lat="44.697941080763876" lon="9.364568328929327"><ele>421.5</ele><time>2026-04-05T15:16:19.999Z</time></trkpt><trkpt lat="44.69801554288715" lon="9.364683615390783"><ele>417.0</ele><time>2026-04-05T15:16:20.999Z</time></trkpt><trkpt lat="44.6981013519545" lon="9.36477985111177"><ele>417.0</ele><time>2026-04-05T15:16:21.999Z</time></trkpt><trkpt lat="44.698210224658375" lon="9.364852188274035"><ele>417.0</ele><time>2026-04-05T15:16:22.999Z</time></trkpt><trkpt lat="44.6983122798773" lon="9.364903351316972"><ele>417.0</ele><time>2026-04-05T15:16:23.999Z</time></trkpt><trkpt lat="44.69840952710342" lon="9.364953808927222"><ele>417.0</ele><time>2026-04-05T15:16:24.999Z</time></trkpt><trkpt lat="44.698502280474436" lon="9.364998987522291"><ele>417.0</ele><time>2026-04-05T15:16:25.999Z</time></trkpt><trkpt lat="44.69860515032194" lon="9.365029071251591"><ele>418.5</ele><time>2026-04-05T15:16:26.999Z</time></trkpt><trkpt lat="44.69870369951364" lon="9.36512677289807"><ele>420.0</ele><time>2026-04-05T15:16:27.999Z</time></trkpt><trkpt lat="44.69877360097838" lon="9.365310885414914"><ele>421.5</ele><time>2026-04-05T15:16:28.999Z</time></trkpt><trkpt lat="44.698814044664374" lon="9.365509183752334"><ele>423.0</ele><time>2026-04-05T15:16:29.999Z</time></trkpt><trkpt lat="44.698829513246274" lon="9.365631417886775"><ele>423.0</ele><time>2026-04-05T15:16:30.999Z</time></trkpt><trkpt lat="44.69885749744069" lon="9.365776669462738"><ele>423.0</ele><time>2026-04-05T15:16:31.999Z</time></trkpt><trkpt lat="44.698836025255225" lon="9.365913489235536"><ele>423.0</ele><time>2026-04-05T15:16:32.999Z</time></trkpt><trkpt lat="44.69883995460351" lon="9.366055562104252"><ele>423.0</ele><time>2026-04-05T15:16:33.999Z</time></trkpt><trkpt lat="44.69888539873284" lon="9.366131936539661"><ele>423.0</ele><time>2026-04-05T15:16:34.999Z</time></trkpt><trkpt lat="44.698950504739784" lon="9.366212194971462"><ele>423.0</ele><time>2026-04-05T15:16:35.999Z</time></trkpt><trkpt lat="44.69905264381249" lon="9.36623498156245"><ele>423.0</ele><time>2026-04-05T15:16:36.999Z</time></trkpt><trkpt lat="44.69915089283862" lon="9.36633769720417"><ele>423.0</ele><time>2026-04-05T15:16:37.999Z</time></trkpt><trkpt lat="44.69928794258148" lon="9.366409319631403"><ele>423.0</ele><time>2026-04-05T15:16:38.999Z</time></trkpt><trkpt lat="44.6994191323828" lon="9.36645001846735"><ele>429.0</ele><time>2026-04-05T15:16:39.999Z</time></trkpt><trkpt lat="44.69955327217166" lon="9.366442003540266"><ele>435.0</ele><time>2026-04-05T15:16:40.999Z</time></trkpt><trkpt lat="44.699710342579586" lon="9.366397513292895"><ele>441.0</ele><time>2026-04-05T15:16:41.999Z</time></trkpt><trkpt lat="44.69985599953041" lon="9.366301494456048"><ele>441.0</ele><time>2026-04-05T15:16:42.999Z</time></trkpt><trkpt lat="44.6999773403246" lon="9.366269200000712"><ele>441.0</ele><time>2026-04-05T15:16:43.999Z</time></trkpt><trkpt lat="44.70008147252781" lon="9.36623837808082"><ele>441.0</ele><time>2026-04-05T15:16:44.999Z</time></trkpt><trkpt lat="44.70017413227106" lon="9.366235985128435"><ele>441.0</ele><time>2026-04-05T15:16:45.999Z</time></trkpt><trkpt lat="44.70028782165204" lon="9.366204818789877"><ele>441.0</ele><time>2026-04-05T15:16:46.999Z</time></trkpt><trkpt lat="44.700388007349" lon="9.366241163315026"><ele>439.5</ele><time>2026-04-05T15:16:47.999Z</time></trkpt><trkpt lat="44.70047423241945" lon="9.36641490149657"><ele>438.0</ele><time>2026-04-05T15:16:48.999Z</time></trkpt><trkpt lat="44.70053451124464" lon="9.366544433230334"><ele>436.5</ele><time>2026-04-05T15:16:49.999Z</time></trkpt><trkpt lat="44.70054261448401" lon="9.366682647416257"><ele>435.0</ele><time>2026-04-05T15:16:50.999Z</time></trkpt><trkpt lat="44.70042461681919" lon="9.366844747589003"><ele>435.0</ele><time>2026-04-05T15:16:51.999Z</time></trkpt><trkpt lat="44.7003845926202" lon="9.366989161043564"><ele>435.0</ele><time>2026-04-05T15:16:52.999Z</time></trkpt><trkpt lat="44.700396864179204" lon="9.367155884888613"><ele>435.0</ele><time>2026-04-05T15:16:53.999Z</time></trkpt><trkpt lat="44.70043131802046" lon="9.367275886244386"><ele>435.0</ele><time>2026-04-05T15:16:54.999Z</time></trkpt><trkpt lat="44.70050331714448" lon="9.367402761220065"><ele>435.0</ele><time>2026-04-05T15:16:55.999Z</time></trkpt><trkpt lat="44.70056531350672" lon="9.36752833447796"><ele>428.33333333333337</ele><time>2026-04-05T15:16:56.999Z</time></trkpt><trkpt lat="44.700701557441874" lon="9.367647090995757"><ele>421.6666666666667</ele><time>2026-04-05T15:16:57.999Z</time></trkpt><trkpt lat="44.70082642989967" lon="9.367770540103841"><ele>415.0</ele><time>2026-04-05T15:16:58.999Z</time></trkpt><trkpt lat="44.70095189636168" lon="9.36789606331134"><ele>418.5</ele><time>2026-04-05T15:16:59.999Z</time></trkpt><trkpt lat="44.701064565628094" lon="9.36803409948621"><ele>422.0</ele><time>2026-04-05T15:17:00.999Z</time></trkpt><trkpt lat="44.701145139618255" lon="9.368194855164504"><ele>425.5</ele><time>2026-04-05T15:17:01.999Z</time></trkpt><trkpt lat="44.70123713295353" lon="9.368359439371924"><ele>429.0</ele><time>2026-04-05T15:17:02.999Z</time></trkpt><trkpt lat="44.701313327824465" lon="9.368518504818372"><ele>429.0</ele><time>2026-04-05T15:17:03.999Z</time></trkpt><trkpt lat="44.70137645056075" lon="9.36865186376932"><ele>429.0</ele><time>2026-04-05T15:17:04.999Z</time></trkpt><trkpt lat="44.701437156966435" lon="9.368771444832229"><ele>429.0</ele><time>2026-04-05T15:17:05.999Z</time></trkpt><trkpt lat="44.70152537924653" lon="9.368871679004044"><ele>429.0</ele><time>2026-04-05T15:17:06.999Z</time></trkpt><trkpt lat="44.7015970426703" lon="9.368964061443146"><ele>429.0</ele><time>2026-04-05T15:17:07.999Z</time></trkpt><trkpt lat="44.70166867314399" lon="9.369082540560594"><ele>423.5</ele><time>2026-04-05T15:17:08.999Z</time></trkpt><trkpt lat="44.701686555338405" lon="9.369263445999763"><ele>418.0</ele><time>2026-04-05T15:17:10Z</time></trkpt><trkpt lat="44.70171623200782" lon="9.369412538130403"><ele>412.5</ele><time>2026-04-05T15:17:11Z</time></trkpt><trkpt lat="44.701760386296655" lon="9.369575214669629"><ele>407.0</ele><time>2026-04-05T15:17:12Z</time></trkpt><trkpt lat="44.70184248572748" lon="9.36970301251832"><ele>403.20000000000005</ele><time>2026-04-05T15:17:13Z</time></trkpt><trkpt lat="44.70188992638015" lon="9.369828066000412"><ele>399.4</ele><time>2026-04-05T15:17:14Z</time></trkpt><trkpt lat="44.70190744619032" lon="9.369975734849737"><ele>395.6</ele><time>2026-04-05T15:17:15Z</time></trkpt><trkpt lat="44.70187507332273" lon="9.370105903711947"><ele>391.79999999999995</ele><time>2026-04-05T15:17:16Z</time></trkpt><trkpt lat="44.70180871168278" lon="9.370219917786907"><ele>388.0</ele><time>2026-04-05T15:17:17Z</time></trkpt><trkpt lat="44.70176111195557" lon="9.370367296946853"><ele>388.0</ele><time>2026-04-05T15:17:18Z</time></trkpt><trkpt lat="44.70173997174534" lon="9.370504041886427"><ele>388.0</ele><time>2026-04-05T15:17:19Z</time></trkpt><trkpt lat="44.701739072515835" lon="9.370647128824093"><ele>388.0</ele><time>2026-04-05T15:17:20Z</time></trkpt><trkpt lat="44.701773568094396" lon="9.370804845140375"><ele>388.0</ele><time>2026-04-05T15:17:21Z</time></trkpt><trkpt lat="44.701837749800575" lon="9.370950719621899"><ele>388.0</ele><time>2026-04-05T15:17:22Z</time></trkpt><trkpt lat="44.70195364274409" lon="9.371073938091532"><ele>392.0</ele><time>2026-04-05T15:17:23Z</time></trkpt><trkpt lat="44.702088936718425" lon="9.37115209682488"><ele>396.0</ele><time>2026-04-05T15:17:24Z</time></trkpt><trkpt lat="44.70225274670244" lon="9.371227419465828"><ele>400.0</ele><time>2026-04-05T15:17:25Z</time></trkpt><trkpt lat="44.70244184325939" lon="9.371332752788627"><ele>396.0</ele><time>2026-04-05T15:17:26Z</time></trkpt><trkpt lat="44.70261906270882" lon="9.371385388566987"><ele>392.0</ele><time>2026-04-05T15:17:27Z</time></trkpt><trkpt lat="44.70277471500469" lon="9.371444192668354"><ele>388.0</ele><time>2026-04-05T15:17:28Z</time></trkpt><trkpt lat="44.702923459022784" lon="9.371500377152314"><ele>388.0</ele><time>2026-04-05T15:17:29Z</time></trkpt><trkpt lat="44.70303596376231" lon="9.371538979224884"><ele>388.0</ele><time>2026-04-05T15:17:30Z</time></trkpt><trkpt lat="44.7031562574454" lon="9.371639628596238"><ele>388.0</ele><time>2026-04-05T15:17:31Z</time></trkpt><trkpt lat="44.7032511360881" lon="9.3717519424143"><ele>388.0</ele><time>2026-04-05T15:17:32Z</time></trkpt><trkpt lat="44.703360639387" lon="9.3719604328495"><ele>388.0</ele><time>2026-04-05T15:17:33Z</time></trkpt><trkpt lat="44.70345595100478" lon="9.37215298096308"><ele>388.0</ele><time>2026-04-05T15:17:34Z</time></trkpt><trkpt lat="44.70354238623885" lon="9.372327462374145"><ele>388.0</ele><time>2026-04-05T15:17:35Z</time></trkpt><trkpt lat="44.703609919061385" lon="9.372474634883908"><ele>388.0</ele><time>2026-04-05T15:17:36Z</time></trkpt><trkpt lat="44.70370941361695" lon="9.372599086827215"><ele>387.5</ele><time>2026-04-05T15:17:37Z</time></trkpt><trkpt lat="44.7038359470926" lon="9.372705467190336"><ele>387.0</ele><time>2026-04-05T15:17:38Z</time></trkpt><trkpt lat="44.7039546677125" lon="9.372799548955658"><ele>386.5</ele><time>2026-04-05T15:17:39Z</time></trkpt><trkpt lat="44.70405468491673" lon="9.372850866983898"><ele>386.0</ele><time>2026-04-05T15:17:40Z</time></trkpt><trkpt lat="44.70417883315268" lon="9.372905089968283"><ele>386.0</ele><time>2026-04-05T15:17:41Z</time></trkpt><trkpt lat="44.70434400291438" lon="9.372882097653168"><ele>386.0</ele><time>2026-04-05T15:17:42Z</time></trkpt><trkpt lat="44.70449429550999" lon="9.372842844513706"><ele>386.0</ele><time>2026-04-05T15:17:43Z</time></trkpt><trkpt lat="44.70462135231802" lon="9.372850763129785"><ele>386.0</ele><time>2026-04-05T15:17:44Z</time></trkpt><trkpt lat="44.704728106017285" lon="9.372925549387755"><ele>387.5</ele><time>2026-04-05T15:17:45Z</time></trkpt><trkpt lat="44.70486058401934" lon="9.373008175511654"><ele>389.0</ele><time>2026-04-05T15:17:46Z</time></trkpt><trkpt lat="44.7049921244993" lon="9.373059205341814"><ele>390.5</ele><time>2026-04-05T15:17:47Z</time></trkpt><trkpt lat="44.705127600517166" lon="9.37307260873017"><ele>392.0</ele><time>2026-04-05T15:17:48Z</time></trkpt><trkpt lat="44.70522985913801" lon="9.373072138452919"><ele>388.75</ele><time>2026-04-05T15:17:49Z</time></trkpt><trkpt lat="44.70532754634113" lon="9.373154797780398"><ele>385.5</ele><time>2026-04-05T15:17:50Z</time></trkpt><trkpt lat="44.70540673313071" lon="9.373293152624198"><ele>382.25</ele><time>2026-04-05T15:17:51Z</time></trkpt><trkpt lat="44.705505042656696" lon="9.373453467821443"><ele>379.0</ele><time>2026-04-05T15:17:52Z</time></trkpt><trkpt lat="44.705613214752525" lon="9.373625653158276"><ele>379.0</ele><time>2026-04-05T15:17:53Z</time></trkpt><trkpt lat="44.70571897971058" lon="9.3737881755183"><ele>379.0</ele><time>2026-04-05T15:17:54Z</time></trkpt><trkpt lat="44.705790646495494" lon="9.37392376216383"><ele>379.0</ele><time>2026-04-05T15:17:55Z</time></trkpt><trkpt lat="44.70583986333756" lon="9.374083585690686"><ele>379.0</ele><time>2026-04-05T15:17:56Z</time></trkpt><trkpt lat="44.70582282500107" lon="9.374211568408253"><ele>373.0</ele><time>2026-04-05T15:17:57Z</time></trkpt><trkpt lat="44.70577220520611" lon="9.374450373272014"><ele>367.0</ele><time>2026-04-05T15:17:58Z</time></trkpt><trkpt lat="44.70570702655955" lon="9.374691060126397"><ele>361.0</ele><time>2026-04-05T15:17:59Z</time></trkpt><trkpt lat="44.705647986261525" lon="9.37488452688594"><ele>360.0</ele><time>2026-04-05T15:18:00Z</time></trkpt><trkpt lat="44.70559777157769" lon="9.375101274922136"><ele>359.0</ele><time>2026-04-05T15:18:01Z</time></trkpt><trkpt lat="44.70555862254429" lon="9.375282027385264"><ele>358.0</ele><time>2026-04-05T15:18:02Z</time></trkpt><trkpt lat="44.70551443578425" lon="9.375411265027076"><ele>357.0</ele><time>2026-04-05T15:18:03Z</time></trkpt><trkpt lat="44.705478851543745" lon="9.375566547489912"><ele>356.0</ele><time>2026-04-05T15:18:04Z</time></trkpt><trkpt lat="44.70550806789803" lon="9.375690393642419"><ele>355.0</ele><time>2026-04-05T15:18:05Z</time></trkpt><trkpt lat="44.70554406866256" lon="9.375866561020821"><ele>354.0</ele><time>2026-04-05T15:18:06Z</time></trkpt><trkpt lat="44.70558873615406" lon="9.376076956717869"><ele>353.0</ele><time>2026-04-05T15:18:07Z</time></trkpt><trkpt lat="44.70565932580626" lon="9.376285854376484"><ele>350.6666666666667</ele><time>2026-04-05T15:18:08Z</time></trkpt><trkpt lat="44.70574232593832" lon="9.37645023310068"><ele>348.3333333333333</ele><time>2026-04-05T15:18:09Z</time></trkpt><trkpt lat="44.70582396098152" lon="9.376618584200658"><ele>346.0</ele><time>2026-04-05T15:18:10Z</time></trkpt><trkpt lat="44.705974537425156" lon="9.376777384551485"><ele>346.6</ele><time>2026-04-05T15:18:11Z</time></trkpt><trkpt lat="44.70608684817604" lon="9.376893419738579"><ele>347.20000000000005</ele><time>2026-04-05T15:18:12Z</time></trkpt><trkpt lat="44.706188576499784" lon="9.376986168616622"><ele>347.79999999999995</ele><time>2026-04-05T15:18:12.999Z</time></trkpt><trkpt lat="44.70628680156504" lon="9.377061310215916"><ele>348.4</ele><time>2026-04-05T15:18:13.999Z</time></trkpt><trkpt lat="44.706347526608226" lon="9.377118099322228"><ele>349.0</ele><time>2026-04-05T15:18:14.999Z</time></trkpt><trkpt lat="44.70642423860292" lon="9.37722210468336"><ele>346.5</ele><time>2026-04-05T15:18:16.999Z</time></trkpt><trkpt lat="44.70654987888032" lon="9.377318830787933"><ele>344.0</ele><time>2026-04-05T15:18:45.999Z</time></trkpt><trkpt lat="44.70663523839419" lon="9.37737295617576"><ele>341.5</ele><time>2026-04-05T15:18:46.999Z</time></trkpt><trkpt lat="44.70674444806718" lon="9.377385161215138"><ele>339.0</ele><time>2026-04-05T15:18:47.999Z</time></trkpt><trkpt lat="44.70684469481351" lon="9.377348835855141"><ele>340.2</ele><time>2026-04-05T15:18:48.999Z</time></trkpt><trkpt lat="44.70691221268325" lon="9.377251815436699"><ele>341.4</ele><time>2026-04-05T15:18:49.999Z</time></trkpt><trkpt lat="44.70696902781762" lon="9.37715093795382"><ele>342.6</ele><time>2026-04-05T15:18:50.999Z</time></trkpt><trkpt lat="44.70705362257683" lon="9.377029984798797"><ele>343.8</ele><time>2026-04-05T15:18:51.999Z</time></trkpt><trkpt lat="44.70713873568424" lon="9.376958523977429"><ele>345.0</ele><time>2026-04-05T15:18:52.999Z</time></trkpt><trkpt lat="44.70724890671781" lon="9.376898293427509"><ele>345.0</ele><time>2026-04-05T15:18:53.999Z</time></trkpt><trkpt lat="44.70736819912854" lon="9.376900907528068"><ele>345.0</ele><time>2026-04-05T15:18:54.999Z</time></trkpt><trkpt lat="44.70748906756673" lon="9.37688514914718"><ele>345.0</ele><time>2026-04-05T15:18:55.999Z</time></trkpt><trkpt lat="44.707596806247125" lon="9.37688134418764"><ele>345.0</ele><time>2026-04-05T15:18:56.999Z</time></trkpt><trkpt lat="44.707690549616174" lon="9.37685057535353"><ele>345.0</ele><time>2026-04-05T15:18:57.999Z</time></trkpt><trkpt lat="44.707790078530664" lon="9.376839479901486"><ele>343.0</ele><time>2026-04-05T15:18:58.999Z</time></trkpt><trkpt lat="44.70787630279101" lon="9.3768875820006"><ele>341.0</ele><time>2026-04-05T15:18:59.999Z</time></trkpt><trkpt lat="44.707960064713966" lon="9.3769549372132"><ele>339.0</ele><time>2026-04-05T15:19:00.999Z</time></trkpt><trkpt lat="44.70801514254548" lon="9.377071667941763"><ele>337.0</ele><time>2026-04-05T15:19:01.999Z</time></trkpt><trkpt lat="44.708088724319275" lon="9.377201421468056"><ele>335.0</ele><time>2026-04-05T15:19:02.999Z</time></trkpt><trkpt lat="44.708124650068775" lon="9.377406346589922"><ele>335.0</ele><time>2026-04-05T15:19:03.999Z</time></trkpt><trkpt lat="44.708136421259326" lon="9.377596706109896"><ele>335.0</ele><time>2026-04-05T15:19:04.999Z</time></trkpt><trkpt lat="44.708192142488244" lon="9.377739495039682"><ele>335.0</ele><time>2026-04-05T15:19:05.999Z</time></trkpt><trkpt lat="44.70827197905691" lon="9.377866307511663"><ele>335.0</ele><time>2026-04-05T15:19:06.999Z</time></trkpt><trkpt lat="44.70840226302942" lon="9.377969314211597"><ele>330.33333333333337</ele><time>2026-04-05T15:19:07.999Z</time></trkpt><trkpt lat="44.708574402037236" lon="9.37804626786527"><ele>325.6666666666667</ele><time>2026-04-05T15:19:08.999Z</time></trkpt><trkpt lat="44.70875268944414" lon="9.378089008049756"><ele>321.0</ele><time>2026-04-05T15:19:09.999Z</time></trkpt><trkpt lat="44.70887841275418" lon="9.37812602917181"><ele>320.75</ele><time>2026-04-05T15:19:10.999Z</time></trkpt><trkpt lat="44.70900762333153" lon="9.378165817868807"><ele>320.5</ele><time>2026-04-05T15:19:11.999Z</time></trkpt><trkpt lat="44.70914537441782" lon="9.378169878207096"><ele>320.25</ele><time>2026-04-05T15:19:12.999Z</time></trkpt><trkpt lat="44.70930193927843" lon="9.378142319789784"><ele>320.0</ele><time>2026-04-05T15:19:13.999Z</time></trkpt><trkpt lat="44.70945581498157" lon="9.378068210343406"><ele>323.6666666666667</ele><time>2026-04-05T15:19:14.999Z</time></trkpt><trkpt lat="44.70959365120166" lon="9.37797660643665"><ele>327.3333333333333</ele><time>2026-04-05T15:19:16Z</time></trkpt><trkpt lat="44.70975534052688" lon="9.377856373852437"><ele>331.0</ele><time>2026-04-05T15:19:17Z</time></trkpt><trkpt lat="44.709875662540554" lon="9.37772527479078"><ele>331.0</ele><time>2026-04-05T15:19:18Z</time></trkpt><trkpt lat="44.70998711873794" lon="9.377599340165643"><ele>331.0</ele><time>2026-04-05T15:19:19Z</time></trkpt><trkpt lat="44.71011051366419" lon="9.37752838044495"><ele>331.0</ele><time>2026-04-05T15:19:20Z</time></trkpt><trkpt lat="44.71021144554613" lon="9.37748415516949"><ele>331.0</ele><time>2026-04-05T15:19:21Z</time></trkpt><trkpt lat="44.71032126149905" lon="9.377434636622302"><ele>329.25</ele><time>2026-04-05T15:19:22Z</time></trkpt><trkpt lat="44.71044903930505" lon="9.377552578701843"><ele>327.5</ele><time>2026-04-05T15:19:23Z</time></trkpt><trkpt lat="44.710557654733364" lon="9.3776579461097"><ele>325.75</ele><time>2026-04-05T15:19:24Z</time></trkpt><trkpt lat="44.710679432919505" lon="9.377813036501577"><ele>324.0</ele><time>2026-04-05T15:19:25Z</time></trkpt><trkpt lat="44.71082242027759" lon="9.378043651371147"><ele>321.3333333333333</ele><time>2026-04-05T15:19:26Z</time></trkpt><trkpt lat="44.710911576085046" lon="9.378311160227886"><ele>318.66666666666663</ele><time>2026-04-05T15:19:27Z</time></trkpt><trkpt lat="44.710983279132805" lon="9.378625489633482"><ele>316.0</ele><time>2026-04-05T15:19:28Z</time></trkpt><trkpt lat="44.71107801779251" lon="9.378824149438252"><ele>315.0</ele><time>2026-04-05T15:19:29Z</time></trkpt><trkpt lat="44.71116664937028" lon="9.379009143455095"><ele>314.0</ele><time>2026-04-05T15:19:30Z</time></trkpt><trkpt lat="44.711258226906" lon="9.37919839867288"><ele>313.0</ele><time>2026-04-05T15:19:31Z</time></trkpt><trkpt lat="44.71133657101836" lon="9.379364716989759"><ele>313.0</ele><time>2026-04-05T15:19:32Z</time></trkpt><trkpt lat="44.71140414662885" lon="9.379482209455686"><ele>313.0</ele><time>2026-04-05T15:19:33Z</time></trkpt><trkpt lat="44.71147458514429" lon="9.379635514197906"><ele>313.0</ele><time>2026-04-05T15:19:34Z</time></trkpt><trkpt lat="44.71153908902052" lon="9.379768756827389"><ele>313.0</ele><time>2026-04-05T15:19:35Z</time></trkpt><trkpt lat="44.711629224685545" lon="9.379880945729463"><ele>314.25</ele><time>2026-04-05T15:19:36Z</time></trkpt><trkpt lat="44.7117711082655" lon="9.379972765540968"><ele>315.5</ele><time>2026-04-05T15:19:37Z</time></trkpt><trkpt lat="44.71190680778464" lon="9.379992585125015"><ele>316.75</ele><time>2026-04-05T15:19:38Z</time></trkpt><trkpt lat="44.712038789174464" lon="9.380008781844007"><ele>318.0</ele><time>2026-04-05T15:19:39Z</time></trkpt><trkpt lat="44.71217011905249" lon="9.380038359757828"><ele>319.0</ele><time>2026-04-05T15:19:40Z</time></trkpt><trkpt lat="44.71228359189497" lon="9.380055301373918"><ele>320.0</ele><time>2026-04-05T15:19:41Z</time></trkpt><trkpt lat="44.712398469181856" lon="9.380072567353476"><ele>321.0</ele><time>2026-04-05T15:19:42Z</time></trkpt><trkpt lat="44.712549559177205" lon="9.380023898139415"><ele>322.0</ele><time>2026-04-05T15:19:43Z</time></trkpt><trkpt lat="44.712709934869544" lon="9.380041665291069"><ele>321.25</ele><time>2026-04-05T15:19:44Z</time></trkpt><trkpt lat="44.71286591491411" lon="9.38007095876589"><ele>320.5</ele><time>2026-04-05T15:19:45Z</time></trkpt><trkpt lat="44.71296252653007" lon="9.380135497559106"><ele>319.75</ele><time>2026-04-05T15:19:46Z</time></trkpt><trkpt lat="44.71305854546834" lon="9.380203098554132"><ele>319.0</ele><time>2026-04-05T15:19:47Z</time></trkpt><trkpt lat="44.71314987544486" lon="9.380272128028214"><ele>319.0</ele><time>2026-04-05T15:19:48Z</time></trkpt><trkpt lat="44.71329314049743" lon="9.38039422113312"><ele>319.0</ele><time>2026-04-05T15:19:49Z</time></trkpt><trkpt lat="44.713400332439605" lon="9.380543897992403"><ele>319.0</ele><time>2026-04-05T15:19:50Z</time></trkpt><trkpt lat="44.71348730764388" lon="9.380702600469347"><ele>317.75</ele><time>2026-04-05T15:19:51Z</time></trkpt><trkpt lat="44.71358974365647" lon="9.380855334738268"><ele>316.5</ele><time>2026-04-05T15:19:52Z</time></trkpt><trkpt lat="44.71366932391261" lon="9.380991687343139"><ele>315.25</ele><time>2026-04-05T15:19:53Z</time></trkpt><trkpt lat="44.71375041148225" lon="9.381103049834135"><ele>314.0</ele><time>2026-04-05T15:19:54Z</time></trkpt><trkpt lat="44.71381283860828" lon="9.381232466524997"><ele>314.0</ele><time>2026-04-05T15:19:55Z</time></trkpt><trkpt lat="44.7138191558419" lon="9.38138381639349"><ele>314.0</ele><time>2026-04-05T15:19:56Z</time></trkpt><trkpt lat="44.713854012963985" lon="9.38152510635447"><ele>314.0</ele><time>2026-04-05T15:19:57Z</time></trkpt><trkpt lat="44.71388516979243" lon="9.381677585796524"><ele>314.0</ele><time>2026-04-05T15:19:58Z</time></trkpt><trkpt lat="44.71389318034826" lon="9.381833438503572"><ele>314.0</ele><time>2026-04-05T15:19:59Z</time></trkpt><trkpt lat="44.713906223432296" lon="9.381995024137762"><ele>314.0</ele><time>2026-04-05T15:20:00Z</time></trkpt><trkpt lat="44.71392117634907" lon="9.382158357482734"><ele>314.0</ele><time>2026-04-05T15:20:01Z</time></trkpt><trkpt lat="44.713944302968144" lon="9.382360666023512"><ele>314.0</ele><time>2026-04-05T15:20:02Z</time></trkpt><trkpt lat="44.71399727548947" lon="9.382543143320271"><ele>314.0</ele><time>2026-04-05T15:20:03Z</time></trkpt><trkpt lat="44.714101767931794" lon="9.382733382637129"><ele>313.33333333333337</ele><time>2026-04-05T15:20:04Z</time></trkpt><trkpt lat="44.714223696650826" lon="9.382930519667632"><ele>312.6666666666667</ele><time>2026-04-05T15:20:05Z</time></trkpt><trkpt lat="44.71432741246734" lon="9.383077173718965"><ele>312.0</ele><time>2026-04-05T15:20:06Z</time></trkpt><trkpt lat="44.71441341361003" lon="9.383208916012293"><ele>312.0</ele><time>2026-04-05T15:20:07Z</time></trkpt><trkpt lat="44.714479490776846" lon="9.383345462059417"><ele>312.0</ele><time>2026-04-05T15:20:08Z</time></trkpt><trkpt lat="44.71451494779791" lon="9.383503425910972"><ele>312.0</ele><time>2026-04-05T15:20:09Z</time></trkpt><trkpt lat="44.7145218866437" lon="9.38369248463565"><ele>312.0</ele><time>2026-04-05T15:20:10Z</time></trkpt><trkpt lat="44.714494630352334" lon="9.383928763621805"><ele>310.6666666666667</ele><time>2026-04-05T15:20:11Z</time></trkpt><trkpt lat="44.714450275301246" lon="9.384203606601336"><ele>309.33333333333337</ele><time>2026-04-05T15:20:12Z</time></trkpt><trkpt lat="44.714411841517105" lon="9.384473710334955"><ele>308.0</ele><time>2026-04-05T15:20:13Z</time></trkpt><trkpt lat="44.71439342734873" lon="9.384713479697202"><ele>308.0</ele><time>2026-04-05T15:20:14Z</time></trkpt><trkpt lat="44.71439332868079" lon="9.384930656945503"><ele>308.0</ele><time>2026-04-05T15:20:15Z</time></trkpt><trkpt lat="44.71439062725654" lon="9.385114956167008"><ele>308.0</ele><time>2026-04-05T15:20:16Z</time></trkpt><trkpt lat="44.71444369556417" lon="9.385311401584488"><ele>308.0</ele><time>2026-04-05T15:20:17Z</time></trkpt><trkpt lat="44.71454884036787" lon="9.385575195251329"><ele>311.5</ele><time>2026-04-05T15:20:18Z</time></trkpt><trkpt lat="44.714672507725034" lon="9.385875608752011"><ele>315.0</ele><time>2026-04-05T15:20:19Z</time></trkpt><trkpt lat="44.71479358600938" lon="9.386173964034915"><ele>318.6666666666667</ele><time>2026-04-05T15:20:20Z</time></trkpt><trkpt lat="44.71488459720045" lon="9.386435911332475"><ele>322.33333333333337</ele><time>2026-04-05T15:20:21Z</time></trkpt><trkpt lat="44.71498597899564" lon="9.3866710558377"><ele>326.0</ele><time>2026-04-05T15:20:21.999Z</time></trkpt><trkpt lat="44.71508756630318" lon="9.386882381528988"><ele>326.0</ele><time>2026-04-05T15:20:22.999Z</time></trkpt><trkpt lat="44.71514566002447" lon="9.387073552593254"><ele>326.0</ele><time>2026-04-05T15:20:23.999Z</time></trkpt><trkpt lat="44.715188240370075" lon="9.387270506084823"><ele>326.0</ele><time>2026-04-05T15:20:24.999Z</time></trkpt><trkpt lat="44.715247502773806" lon="9.387459540205212"><ele>326.0</ele><time>2026-04-05T15:20:25.999Z</time></trkpt><trkpt lat="44.715336301526534" lon="9.387598151136576"><ele>325.5</ele><time>2026-04-05T15:20:26.999Z</time></trkpt><trkpt lat="44.715464524820334" lon="9.38774680450938"><ele>325.0</ele><time>2026-04-05T15:20:27.999Z</time></trkpt><trkpt lat="44.715568843900435" lon="9.387869145953795"><ele>324.5</ele><time>2026-04-05T15:20:28.999Z</time></trkpt><trkpt lat="44.715635747136325" lon="9.388008896283015"><ele>324.0</ele><time>2026-04-05T15:20:29.999Z</time></trkpt><trkpt lat="44.71577876248318" lon="9.388157313730284"><ele>324.0</ele><time>2026-04-05T15:20:30.999Z</time></trkpt><trkpt lat="44.71586521180586" lon="9.388386204052232"><ele>324.0</ele><time>2026-04-05T15:20:31.999Z</time></trkpt><trkpt lat="44.71591707608997" lon="9.38864121983166"><ele>324.0</ele><time>2026-04-05T15:20:32.999Z</time></trkpt><trkpt lat="44.71597927830785" lon="9.388856323594666"><ele>320.0</ele><time>2026-04-05T15:20:33.999Z</time></trkpt><trkpt lat="44.716044964563295" lon="9.389039809658405"><ele>316.0</ele><time>2026-04-05T15:20:34.999Z</time></trkpt><trkpt lat="44.716125603488074" lon="9.389216508429245"><ele>312.0</ele><time>2026-04-05T15:20:35.999Z</time></trkpt><trkpt lat="44.71621810933609" lon="9.389394846354476"><ele>312.0</ele><time>2026-04-05T15:20:36.999Z</time></trkpt><trkpt lat="44.71637831889172" lon="9.389519152560233"><ele>312.0</ele><time>2026-04-05T15:20:37.999Z</time></trkpt><trkpt lat="44.71666488622529" lon="9.389698620039175"><ele>318.6666666666667</ele><time>2026-04-05T15:20:38.999Z</time></trkpt><trkpt lat="44.716891849731184" lon="9.38983879408871"><ele>325.33333333333337</ele><time>2026-04-05T15:20:39.999Z</time></trkpt><trkpt lat="44.717066417719074" lon="9.389980126975223"><ele>332.0</ele><time>2026-04-05T15:20:40.999Z</time></trkpt><trkpt lat="44.71723255048198" lon="9.3900905348379"><ele>332.0</ele><time>2026-04-05T15:20:41.999Z</time></trkpt><trkpt lat="44.717382913402574" lon="9.390189189035057"><ele>332.0</ele><time>2026-04-05T15:20:42.999Z</time></trkpt><trkpt lat="44.71756382496768" lon="9.390268294331493"><ele>332.0</ele><time>2026-04-05T15:20:43.999Z</time></trkpt><trkpt lat="44.71774742002967" lon="9.39030958285845"><ele>329.6666666666667</ele><time>2026-04-05T15:20:44.999Z</time></trkpt><trkpt lat="44.71795787212209" lon="9.390283198014028"><ele>327.3333333333333</ele><time>2026-04-05T15:20:45.999Z</time></trkpt><trkpt lat="44.7181728483495" lon="9.390310412209574"><ele>325.0</ele><time>2026-04-05T15:20:46.999Z</time></trkpt><trkpt lat="44.718364724842374" lon="9.390329956404134"><ele>325.0</ele><time>2026-04-05T15:20:47.999Z</time></trkpt><trkpt lat="44.71853164275316" lon="9.390345027242962"><ele>325.0</ele><time>2026-04-05T15:20:48.999Z</time></trkpt><trkpt lat="44.71869202973587" lon="9.390377769725673"><ele>325.0</ele><time>2026-04-05T15:20:49.999Z</time></trkpt><trkpt lat="44.71883386641518" lon="9.390320501081803"><ele>324.6</ele><time>2026-04-05T15:20:50.999Z</time></trkpt><trkpt lat="44.718976288922825" lon="9.390271186490656"><ele>324.2</ele><time>2026-04-05T15:20:51.999Z</time></trkpt><trkpt lat="44.71907013012449" lon="9.390185156747986"><ele>323.79999999999995</ele><time>2026-04-05T15:20:52.999Z</time></trkpt><trkpt lat="44.719142184334515" lon="9.390103932873819"><ele>323.4</ele><time>2026-04-05T15:20:53.999Z</time></trkpt><trkpt lat="44.71919033650982" lon="9.39003971777945"><ele>323.0</ele><time>2026-04-05T15:20:54.999Z</time></trkpt><trkpt lat="44.71926842526312" lon="9.389998390249616"><ele>323.0</ele><time>2026-04-05T15:20:55.999Z</time></trkpt><trkpt lat="44.719352004868796" lon="9.389976111685918"><ele>323.0</ele><time>2026-04-05T15:20:56.999Z</time></trkpt><trkpt lat="44.71946382741995" lon="9.389989859228194"><ele>323.0</ele><time>2026-04-05T15:20:57.999Z</time></trkpt><trkpt lat="44.719577627911214" lon="9.390000662044761"><ele>323.0</ele><time>2026-04-05T15:20:58.999Z</time></trkpt><trkpt lat="44.71970283790348" lon="9.390024269066288"><ele>323.0</ele><time>2026-04-05T15:20:59.999Z</time></trkpt><trkpt lat="44.71981133784262" lon="9.390060873585933"><ele>322.2</ele><time>2026-04-05T15:21:00.999Z</time></trkpt><trkpt lat="44.71991579444621" lon="9.390091521974268"><ele>321.4</ele><time>2026-04-05T15:21:01.999Z</time></trkpt><trkpt lat="44.720008494706605" lon="9.390165291973188"><ele>320.59999999999997</ele><time>2026-04-05T15:21:02.999Z</time></trkpt><trkpt lat="44.72009074442637" lon="9.390244254516528"><ele>319.79999999999995</ele><time>2026-04-05T15:21:03.999Z</time></trkpt><trkpt lat="44.72013810779031" lon="9.3903542052521"><ele>319.0</ele><time>2026-04-05T15:21:04.999Z</time></trkpt><trkpt lat="44.72016440020491" lon="9.390491147629403"><ele>327.66666666666663</ele><time>2026-04-05T15:21:05.999Z</time></trkpt><trkpt lat="44.72017745052722" lon="9.390679949870334"><ele>336.3333333333333</ele><time>2026-04-05T15:21:06.999Z</time></trkpt><trkpt lat="44.720204329310405" lon="9.390985889167125"><ele>345.0</ele><time>2026-04-05T15:21:07.999Z</time></trkpt><trkpt lat="44.720229213125876" lon="9.391283918067815"><ele>333.0</ele><time>2026-04-05T15:21:08.999Z</time></trkpt><trkpt lat="44.720242587291196" lon="9.391528929528086"><ele>321.0</ele><time>2026-04-05T15:21:09.999Z</time></trkpt><trkpt lat="44.720251630252235" lon="9.391751772396448"><ele>309.0</ele><time>2026-04-05T15:21:10.999Z</time></trkpt><trkpt lat="44.72025149086234" lon="9.391986942193222"><ele>313.3333333333333</ele><time>2026-04-05T15:21:11.999Z</time></trkpt><trkpt lat="44.72031514214858" lon="9.392240444453527"><ele>317.66666666666663</ele><time>2026-04-05T15:21:12.999Z</time></trkpt><trkpt lat="44.720403202157" lon="9.39247457795722"><ele>322.0</ele><time>2026-04-05T15:21:13.999Z</time></trkpt><trkpt lat="44.72046833425198" lon="9.39267803816126"><ele>322.0</ele><time>2026-04-05T15:21:14.999Z</time></trkpt><trkpt lat="44.720544035154695" lon="9.392863559672145"><ele>322.0</ele><time>2026-04-05T15:21:15.999Z</time></trkpt><trkpt lat="44.720712181268645" lon="9.39299909245786"><ele>322.0</ele><time>2026-04-05T15:21:16.999Z</time></trkpt><trkpt lat="44.7207690633387" lon="9.393105683456868"><ele>322.0</ele><time>2026-04-05T15:21:17.999Z</time></trkpt><trkpt lat="44.720803948175146" lon="9.39320710957331"><ele>323.25</ele><time>2026-04-05T15:21:18.999Z</time></trkpt><trkpt lat="44.720823203960414" lon="9.39334278740887"><ele>324.5</ele><time>2026-04-05T15:21:19.999Z</time></trkpt><trkpt lat="44.72080427326765" lon="9.393471527343253"><ele>325.75</ele><time>2026-04-05T15:21:20.999Z</time></trkpt><trkpt lat="44.720736130009584" lon="9.393592798694247"><ele>327.0</ele><time>2026-04-05T15:21:22Z</time></trkpt><trkpt lat="44.72062729132808" lon="9.393793894636232"><ele>326.6</ele><time>2026-04-05T15:21:23Z</time></trkpt><trkpt lat="44.72055300379885" lon="9.393931555321863"><ele>326.20000000000005</ele><time>2026-04-05T15:21:24Z</time></trkpt><trkpt lat="44.72050382237095" lon="9.39404393311906"><ele>325.8</ele><time>2026-04-05T15:21:25Z</time></trkpt><trkpt lat="44.7204628801914" lon="9.394156829752031"><ele>325.4</ele><time>2026-04-05T15:21:26Z</time></trkpt><trkpt lat="44.72046085390938" lon="9.394297955178258"><ele>325.0</ele><time>2026-04-05T15:21:27Z</time></trkpt><trkpt lat="44.720456189727614" lon="9.394397916617777"><ele>325.0</ele><time>2026-04-05T15:21:28Z</time></trkpt><trkpt lat="44.72045238895769" lon="9.394498937089402"><ele>325.0</ele><time>2026-04-05T15:21:29Z</time></trkpt><trkpt lat="44.72044771466744" lon="9.394632948595362"><ele>325.0</ele><time>2026-04-05T15:21:30Z</time></trkpt><trkpt lat="44.72044645311836" lon="9.394756951728931"><ele>325.0</ele><time>2026-04-05T15:21:31Z</time></trkpt><trkpt lat="44.72045177776991" lon="9.394859271009059"><ele>325.0</ele><time>2026-04-05T15:21:32Z</time></trkpt><trkpt lat="44.72048395798724" lon="9.394978082619959"><ele>325.0</ele><time>2026-04-05T15:21:33Z</time></trkpt><trkpt lat="44.7205773750502" lon="9.395056965982661"><ele>329.8</ele><time>2026-04-05T15:21:34Z</time></trkpt><trkpt lat="44.720662047912604" lon="9.395078575433555"><ele>334.6</ele><time>2026-04-05T15:21:35Z</time></trkpt><trkpt lat="44.72078600594837" lon="9.39510748637728"><ele>339.4</ele><time>2026-04-05T15:21:36Z</time></trkpt><trkpt lat="44.72087541234268" lon="9.395071647643775"><ele>344.2</ele><time>2026-04-05T15:21:37Z</time></trkpt><trkpt lat="44.7209704299543" lon="9.394991494523405"><ele>349.0</ele><time>2026-04-05T15:21:38Z</time></trkpt><trkpt lat="44.7210841093738" lon="9.394890719350084"><ele>346.0</ele><time>2026-04-05T15:21:39Z</time></trkpt><trkpt lat="44.721209157877546" lon="9.394734620038044"><ele>343.0</ele><time>2026-04-05T15:21:40Z</time></trkpt><trkpt lat="44.72133530619016" lon="9.394597168582818"><ele>340.0</ele><time>2026-04-05T15:21:41Z</time></trkpt><trkpt lat="44.72141008914932" lon="9.39449481806746"><ele>337.0</ele><time>2026-04-05T15:21:42Z</time></trkpt><trkpt lat="44.72146025479291" lon="9.394365867152015"><ele>337.0</ele><time>2026-04-05T15:21:43Z</time></trkpt><trkpt lat="44.721472725480396" lon="9.394241287043014"><ele>337.0</ele><time>2026-04-05T15:21:44Z</time></trkpt><trkpt lat="44.72147553848021" lon="9.394079594652306"><ele>337.0</ele><time>2026-04-05T15:21:45Z</time></trkpt><trkpt lat="44.721514867951605" lon="9.393951761070017"><ele>337.0</ele><time>2026-04-05T15:21:46Z</time></trkpt><trkpt lat="44.72159724927716" lon="9.39387626474802"><ele>337.0</ele><time>2026-04-05T15:21:47Z</time></trkpt><trkpt lat="44.72168760868258" lon="9.393851973122803"><ele>337.6</ele><time>2026-04-05T15:21:48Z</time></trkpt><trkpt lat="44.72176601339032" lon="9.393819318522116"><ele>338.20000000000005</ele><time>2026-04-05T15:21:49Z</time></trkpt><trkpt lat="44.72184963489473" lon="9.393823524109768"><ele>338.8</ele><time>2026-04-05T15:21:50Z</time></trkpt><trkpt lat="44.721933046644416" lon="9.393866893186033"><ele>339.4</ele><time>2026-04-05T15:21:51Z</time></trkpt><trkpt lat="44.722022278945346" lon="9.39395165572867"><ele>340.0</ele><time>2026-04-05T15:21:52Z</time></trkpt><trkpt lat="44.72211932913159" lon="9.394042083575236"><ele>340.0</ele><time>2026-04-05T15:21:53Z</time></trkpt><trkpt lat="44.72222397436462" lon="9.394273936170812"><ele>340.0</ele><time>2026-04-05T15:21:54Z</time></trkpt><trkpt lat="44.722308531837996" lon="9.394443332555289"><ele>340.0</ele><time>2026-04-05T15:21:55Z</time></trkpt><trkpt lat="44.72235773171718" lon="9.394560259241134"><ele>340.0</ele><time>2026-04-05T15:21:56Z</time></trkpt><trkpt lat="44.722427526738116" lon="9.39465589211757"><ele>347.0</ele><time>2026-04-05T15:21:57Z</time></trkpt><trkpt lat="44.72250824674326" lon="9.394702944229975"><ele>354.0</ele><time>2026-04-05T15:21:58Z</time></trkpt><trkpt lat="44.72259863889148" lon="9.394738942260105"><ele>361.0</ele><time>2026-04-05T15:21:59Z</time></trkpt><trkpt lat="44.72268519446019" lon="9.394684261808177"><ele>368.0</ele><time>2026-04-05T15:22:00Z</time></trkpt><trkpt lat="44.72279237778887" lon="9.394478641162449"><ele>368.0</ele><time>2026-04-05T15:22:01Z</time></trkpt><trkpt lat="44.72280457542347" lon="9.394318672141003"><ele>368.0</ele><time>2026-04-05T15:22:02Z</time></trkpt><trkpt lat="44.72285414833833" lon="9.394140878039778"><ele>368.0</ele><time>2026-04-05T15:22:03Z</time></trkpt><trkpt lat="44.7229894939034" lon="9.39405133271837"><ele>368.0</ele><time>2026-04-05T15:22:04Z</time></trkpt><trkpt lat="44.7231188154101" lon="9.394002520948188"><ele>368.0</ele><time>2026-04-05T15:22:05Z</time></trkpt><trkpt lat="44.723208305957144" lon="9.393946291132691"><ele>368.0</ele><time>2026-04-05T15:22:06Z</time></trkpt><trkpt lat="44.723289480505414" lon="9.393880085873427"><ele>368.0</ele><time>2026-04-05T15:22:08Z</time></trkpt><trkpt lat="44.72335063802774" lon="9.393918872373673"><ele>368.0</ele><time>2026-04-05T15:22:29.999Z</time></trkpt><trkpt lat="44.723460029465464" lon="9.393879945878155"><ele>368.0</ele><time>2026-04-05T15:22:30.999Z</time></trkpt><trkpt lat="44.723557013243735" lon="9.39381177149091"><ele>367.5</ele><time>2026-04-05T15:22:31.999Z</time></trkpt><trkpt lat="44.7236819731174" lon="9.393741803566673"><ele>367.0</ele><time>2026-04-05T15:22:32.999Z</time></trkpt><trkpt lat="44.7238069858518" lon="9.393714700913856"><ele>366.5</ele><time>2026-04-05T15:22:33.999Z</time></trkpt><trkpt lat="44.72391440943484" lon="9.393650683300343"><ele>366.0</ele><time>2026-04-05T15:22:34.999Z</time></trkpt><trkpt lat="44.72400454472944" lon="9.393476860327617"><ele>366.0</ele><time>2026-04-05T15:22:35.999Z</time></trkpt><trkpt lat="44.72411031134978" lon="9.393306768616094"><ele>366.0</ele><time>2026-04-05T15:22:36.999Z</time></trkpt><trkpt lat="44.72418010263226" lon="9.393106873634236"><ele>366.0</ele><time>2026-04-05T15:22:37.999Z</time></trkpt><trkpt lat="44.72426490424769" lon="9.392942105584712"><ele>370.3333333333333</ele><time>2026-04-05T15:22:38.999Z</time></trkpt><trkpt lat="44.72436704119246" lon="9.392776849582393"><ele>374.66666666666663</ele><time>2026-04-05T15:22:39.999Z</time></trkpt><trkpt lat="44.724466895737606" lon="9.392605129929004"><ele>379.0</ele><time>2026-04-05T15:22:40.999Z</time></trkpt><trkpt lat="44.72455317088549" lon="9.392431041572193"><ele>379.0</ele><time>2026-04-05T15:22:41.999Z</time></trkpt><trkpt lat="44.72464117127164" lon="9.392218497279636"><ele>379.0</ele><time>2026-04-05T15:22:42.999Z</time></trkpt><trkpt lat="44.72473468848562" lon="9.39196843132884"><ele>379.0</ele><time>2026-04-05T15:22:43.999Z</time></trkpt><trkpt lat="44.724816265976486" lon="9.391667883639979"><ele>373.3333333333333</ele><time>2026-04-05T15:22:44.999Z</time></trkpt><trkpt lat="44.72487822163704" lon="9.39142483246643"><ele>367.6666666666667</ele><time>2026-04-05T15:22:45.999Z</time></trkpt><trkpt lat="44.72492787872974" lon="9.391178456050199"><ele>362.0</ele><time>2026-04-05T15:22:46.999Z</time></trkpt><trkpt lat="44.72495339377611" lon="9.39094925519358"><ele>361.25</ele><time>2026-04-05T15:22:47.999Z</time></trkpt><trkpt lat="44.72497990670831" lon="9.390776947968119"><ele>360.5</ele><time>2026-04-05T15:22:48.999Z</time></trkpt><trkpt lat="44.72501525640994" lon="9.390626830739103"><ele>359.75</ele><time>2026-04-05T15:22:49.999Z</time></trkpt><trkpt lat="44.725010898458166" lon="9.390453576510689"><ele>359.0</ele><time>2026-04-05T15:22:50.999Z</time></trkpt><trkpt lat="44.724967016316555" lon="9.39030302259554"><ele>359.0</ele><time>2026-04-05T15:22:51.999Z</time></trkpt><trkpt lat="44.72489501728658" lon="9.390190082692046"><ele>359.0</ele><time>2026-04-05T15:22:52.999Z</time></trkpt><trkpt lat="44.724791201089246" lon="9.390127884110763"><ele>359.0</ele><time>2026-04-05T15:22:53.999Z</time></trkpt><trkpt lat="44.72477653962582" lon="9.389967475690813"><ele>359.0</ele><time>2026-04-05T15:22:54.999Z</time></trkpt><trkpt lat="44.72477582236599" lon="9.389779233159125"><ele>358.33333333333337</ele><time>2026-04-05T15:22:55.999Z</time></trkpt><trkpt lat="44.72487797338448" lon="9.389518880945147"><ele>357.6666666666667</ele><time>2026-04-05T15:22:56.999Z</time></trkpt><trkpt lat="44.72493492519709" lon="9.389317698018173"><ele>357.0</ele><time>2026-04-05T15:22:57.999Z</time></trkpt><trkpt lat="44.725004986516005" lon="9.389162011814078"><ele>357.0</ele><time>2026-04-05T15:22:58.999Z</time></trkpt><trkpt lat="44.72508517883412" lon="9.38902876533275"><ele>357.0</ele><time>2026-04-05T15:22:59.999Z</time></trkpt><trkpt lat="44.72520291203648" lon="9.388921606737535"><ele>357.0</ele><time>2026-04-05T15:23:00.999Z</time></trkpt><trkpt lat="44.72538553216812" lon="9.388825124253739"><ele>361.0</ele><time>2026-04-05T15:23:01.999Z</time></trkpt><trkpt lat="44.72555639708768" lon="9.388700360501966"><ele>365.0</ele><time>2026-04-05T15:23:02.999Z</time></trkpt><trkpt lat="44.725696277941275" lon="9.3885517983178"><ele>369.0</ele><time>2026-04-05T15:23:03.999Z</time></trkpt><trkpt lat="44.725823825145284" lon="9.388405617165068"><ele>369.0</ele><time>2026-04-05T15:23:04.999Z</time></trkpt><trkpt lat="44.72594833483446" lon="9.388232524116637"><ele>369.0</ele><time>2026-04-05T15:23:05.999Z</time></trkpt><trkpt lat="44.726082412884836" lon="9.388012543941917"><ele>369.0</ele><time>2026-04-05T15:23:06.999Z</time></trkpt><trkpt lat="44.7262276607054" lon="9.387775021043934"><ele>371.3333333333333</ele><time>2026-04-05T15:23:07.999Z</time></trkpt><trkpt lat="44.726329359234995" lon="9.387519956061146"><ele>373.66666666666663</ele><time>2026-04-05T15:23:08.999Z</time></trkpt><trkpt lat="44.72640946847271" lon="9.387273181386892"><ele>376.0</ele><time>2026-04-05T15:23:09.999Z</time></trkpt><trkpt lat="44.72648242276903" lon="9.387068198914623"><ele>376.0</ele><time>2026-04-05T15:23:10.999Z</time></trkpt><trkpt lat="44.72651289764981" lon="9.386917525867158"><ele>376.0</ele><time>2026-04-05T15:23:11.999Z</time></trkpt><trkpt lat="44.726516858260545" lon="9.386709649821492"><ele>376.0</ele><time>2026-04-05T15:23:12.999Z</time></trkpt><trkpt lat="44.726460351791665" lon="9.38647419169679"><ele>376.0</ele><time>2026-04-05T15:23:13.999Z</time></trkpt><trkpt lat="44.72639827374835" lon="9.386209145838915"><ele>371.25</ele><time>2026-04-05T15:23:14.999Z</time></trkpt><trkpt lat="44.72635089223552" lon="9.385981420887905"><ele>366.5</ele><time>2026-04-05T15:23:15.999Z</time></trkpt><trkpt lat="44.72631525732002" lon="9.38575857141303"><ele>361.75</ele><time>2026-04-05T15:23:16.999Z</time></trkpt><trkpt lat="44.72628320173489" lon="9.385598803871074"><ele>357.0</ele><time>2026-04-05T15:23:17.999Z</time></trkpt><trkpt lat="44.726238617525745" lon="9.385496163130668"><ele>347.0</ele><time>2026-04-05T15:23:18.999Z</time></trkpt><trkpt lat="44.72623539164949" lon="9.385392193153434"><ele>337.0</ele><time>2026-04-05T15:23:19.999Z</time></trkpt><trkpt lat="44.726309192485544" lon="9.3852823458131"><ele>327.0</ele><time>2026-04-05T15:23:21.999Z</time></trkpt><trkpt lat="44.72643688356254" lon="9.385335452776946"><ele>317.0</ele><time>2026-04-05T15:23:22.999Z</time></trkpt><trkpt lat="44.72656568076172" lon="9.385435111246236"><ele>322.33333333333337</ele><time>2026-04-05T15:23:23.999Z</time></trkpt><trkpt lat="44.7266998935226" lon="9.385542259782769"><ele>327.6666666666667</ele><time>2026-04-05T15:23:24.999Z</time></trkpt><trkpt lat="44.72683199323825" lon="9.385674805826563"><ele>333.0</ele><time>2026-04-05T15:23:25.999Z</time></trkpt><trkpt lat="44.72696997096727" lon="9.385828110438359"><ele>333.0</ele><time>2026-04-05T15:23:26.999Z</time></trkpt><trkpt lat="44.72711678161104" lon="9.385961818647635"><ele>333.0</ele><time>2026-04-05T15:23:28Z</time></trkpt><trkpt lat="44.7272834226082" lon="9.386105841602344"><ele>333.0</ele><time>2026-04-05T15:23:29Z</time></trkpt><trkpt lat="44.72744421279316" lon="9.38622178425161"><ele>333.0</ele><time>2026-04-05T15:23:30Z</time></trkpt><trkpt lat="44.727581562227364" lon="9.386327594258256"><ele>333.0</ele><time>2026-04-05T15:23:31Z</time></trkpt><trkpt lat="44.72772682664117" lon="9.38642468697947"><ele>333.0</ele><time>2026-04-05T15:23:32Z</time></trkpt><trkpt lat="44.72788640693613" lon="9.386554695522182"><ele>342.0</ele><time>2026-04-05T15:23:33Z</time></trkpt><trkpt lat="44.72804760047776" lon="9.386631924879044"><ele>351.0</ele><time>2026-04-05T15:23:34Z</time></trkpt><trkpt lat="44.728201365957744" lon="9.386693574439429"><ele>360.0</ele><time>2026-04-05T15:23:35Z</time></trkpt><trkpt lat="44.72834375227439" lon="9.386731037650478"><ele>360.0</ele><time>2026-04-05T15:23:36Z</time></trkpt><trkpt lat="44.728457755581864" lon="9.38674508089692"><ele>360.0</ele><time>2026-04-05T15:23:37Z</time></trkpt><trkpt lat="44.72854069596563" lon="9.386747881601877"><ele>360.0</ele><time>2026-04-05T15:23:38Z</time></trkpt><trkpt lat="44.72862572035118" lon="9.386789796900995"><ele>360.0</ele><time>2026-04-05T15:23:39Z</time></trkpt><trkpt lat="44.72870922871236" lon="9.386862715051759"><ele>360.0</ele><time>2026-04-05T15:23:40Z</time></trkpt><trkpt lat="44.72873754413405" lon="9.38702318851539"><ele>363.75</ele><time>2026-04-05T15:23:41Z</time></trkpt><trkpt lat="44.72878320147915" lon="9.387159647440425"><ele>367.5</ele><time>2026-04-05T15:23:42Z</time></trkpt><trkpt lat="44.72885124582599" lon="9.387279321534251"><ele>371.25</ele><time>2026-04-05T15:23:43Z</time></trkpt><trkpt lat="44.728956430551975" lon="9.387371943630587"><ele>375.0</ele><time>2026-04-05T15:23:44Z</time></trkpt><trkpt lat="44.729096011127204" lon="9.387414601620696"><ele>375.0</ele><time>2026-04-05T15:23:45Z</time></trkpt><trkpt lat="44.729249321743595" lon="9.38741041175619"><ele>375.0</ele><time>2026-04-05T15:23:46Z</time></trkpt><trkpt lat="44.72937743542344" lon="9.387399051278312"><ele>375.0</ele><time>2026-04-05T15:23:47Z</time></trkpt><trkpt lat="44.729464999914526" lon="9.38738556421988"><ele>375.0</ele><time>2026-04-05T15:23:48Z</time></trkpt><trkpt lat="44.72958478085508" lon="9.38745560721039"><ele>362.0</ele><time>2026-04-05T15:23:49Z</time></trkpt><trkpt lat="44.72970346732385" lon="9.387603432101706"><ele>349.0</ele><time>2026-04-05T15:23:50Z</time></trkpt><trkpt lat="44.72980969843612" lon="9.38773551007506"><ele>336.0</ele><time>2026-04-05T15:23:51Z</time></trkpt><trkpt lat="44.72998876787969" lon="9.387802297702917"><ele>336.0</ele><time>2026-04-05T15:23:52Z</time></trkpt><trkpt lat="44.730163649582764" lon="9.387899516778885"><ele>336.0</ele><time>2026-04-05T15:23:53Z</time></trkpt><trkpt lat="44.73027737582532" lon="9.388004093241433"><ele>336.0</ele><time>2026-04-05T15:23:54Z</time></trkpt><trkpt lat="44.730386109773114" lon="9.388083109134417"><ele>336.0</ele><time>2026-04-05T15:23:55Z</time></trkpt><trkpt lat="44.73050067801024" lon="9.388106441020211"><ele>340.8</ele><time>2026-04-05T15:23:56Z</time></trkpt><trkpt lat="44.73062360104805" lon="9.388106322504596"><ele>345.6</ele><time>2026-04-05T15:23:57Z</time></trkpt><trkpt lat="44.73071632723429" lon="9.388122962344104"><ele>350.4</ele><time>2026-04-05T15:23:58Z</time></trkpt><trkpt lat="44.730824408595566" lon="9.388206364024335"><ele>355.2</ele><time>2026-04-05T15:23:59Z</time></trkpt><trkpt lat="44.73088532238037" lon="9.388334997546746"><ele>360.0</ele><time>2026-04-05T15:24:00Z</time></trkpt><trkpt lat="44.73095566520102" lon="9.388430451515273"><ele>360.0</ele><time>2026-04-05T15:24:01Z</time></trkpt><trkpt lat="44.73104909138545" lon="9.388501083858594"><ele>360.0</ele><time>2026-04-05T15:24:02Z</time></trkpt><trkpt lat="44.73118090686166" lon="9.388519397191127"><ele>360.0</ele><time>2026-04-05T15:24:03Z</time></trkpt><trkpt lat="44.731351762281435" lon="9.388484286210641"><ele>360.0</ele><time>2026-04-05T15:24:04Z</time></trkpt><trkpt lat="44.73150771126903" lon="9.388452478607944"><ele>355.25</ele><time>2026-04-05T15:24:05Z</time></trkpt><trkpt lat="44.73161201972133" lon="9.388375670727939"><ele>350.5</ele><time>2026-04-05T15:24:06Z</time></trkpt><trkpt lat="44.731760056727275" lon="9.388397513540955"><ele>345.75</ele><time>2026-04-05T15:24:07Z</time></trkpt><trkpt lat="44.731921041703906" lon="9.388456496974676"><ele>341.0</ele><time>2026-04-05T15:24:08Z</time></trkpt><trkpt lat="44.73204059530442" lon="9.388528986861536"><ele>335.25</ele><time>2026-04-05T15:24:09Z</time></trkpt><trkpt lat="44.732155489927855" lon="9.388589802113795"><ele>329.5</ele><time>2026-04-05T15:24:10Z</time></trkpt><trkpt lat="44.73227445271211" lon="9.388709990757548"><ele>323.75</ele><time>2026-04-05T15:24:11Z</time></trkpt><trkpt lat="44.73236675299331" lon="9.38886384824454"><ele>318.0</ele><time>2026-04-05T15:24:12Z</time></trkpt><trkpt lat="44.73244748396691" lon="9.388975559048562"><ele>328.0</ele><time>2026-04-05T15:24:13Z</time></trkpt><trkpt lat="44.73255552927666" lon="9.389050005055012"><ele>338.0</ele><time>2026-04-05T15:24:14Z</time></trkpt><trkpt lat="44.73271914570654" lon="9.389117525430361"><ele>348.0</ele><time>2026-04-05T15:24:15Z</time></trkpt><trkpt lat="44.7328770442" lon="9.389167925795451"><ele>348.0</ele><time>2026-04-05T15:24:16Z</time></trkpt><trkpt lat="44.73304195595277" lon="9.389163652073732"><ele>348.0</ele><time>2026-04-05T15:24:17Z</time></trkpt><trkpt lat="44.73321991221013" lon="9.389170922604453"><ele>348.0</ele><time>2026-04-05T15:24:18Z</time></trkpt><trkpt lat="44.73336437726993" lon="9.389214756620373"><ele>348.0</ele><time>2026-04-05T15:24:19Z</time></trkpt><trkpt lat="44.73349527055405" lon="9.389218518292664"><ele>348.0</ele><time>2026-04-05T15:24:20Z</time></trkpt><trkpt lat="44.733655722948896" lon="9.389217620970456"><ele>348.0</ele><time>2026-04-05T15:24:21Z</time></trkpt><trkpt lat="44.7338301675309" lon="9.38916088289399"><ele>347.0</ele><time>2026-04-05T15:24:22Z</time></trkpt><trkpt lat="44.73399629402279" lon="9.389144951252018"><ele>346.0</ele><time>2026-04-05T15:24:23Z</time></trkpt><trkpt lat="44.73414698511307" lon="9.389152063101136"><ele>345.0</ele><time>2026-04-05T15:24:24Z</time></trkpt><trkpt lat="44.73429394385397" lon="9.389166775020595"><ele>340.0</ele><time>2026-04-05T15:24:25Z</time></trkpt><trkpt lat="44.734436750323255" lon="9.389203324079503"><ele>335.0</ele><time>2026-04-05T15:24:26Z</time></trkpt><trkpt lat="44.73459122902964" lon="9.389321303522276"><ele>330.0</ele><time>2026-04-05T15:24:27Z</time></trkpt><trkpt lat="44.73480803702461" lon="9.389477729896758"><ele>330.0</ele><time>2026-04-05T15:24:28Z</time></trkpt><trkpt lat="44.73500974068432" lon="9.389586500933556"><ele>330.0</ele><time>2026-04-05T15:24:29Z</time></trkpt><trkpt lat="44.73518375816927" lon="9.38967637971786"><ele>330.0</ele><time>2026-04-05T15:24:30Z</time></trkpt><trkpt lat="44.73535040550006" lon="9.38973635445456"><ele>340.0</ele><time>2026-04-05T15:24:31Z</time></trkpt><trkpt lat="44.735557490513074" lon="9.389805028939701"><ele>350.0</ele><time>2026-04-05T15:24:31.999Z</time></trkpt><trkpt lat="44.73579044842788" lon="9.389794059999168"><ele>360.0</ele><time>2026-04-05T15:24:32.999Z</time></trkpt><trkpt lat="44.73603553623465" lon="9.389832319475772"><ele>361.3333333333333</ele><time>2026-04-05T15:24:33.999Z</time></trkpt><trkpt lat="44.73626528834307" lon="9.389799586981477"><ele>362.66666666666663</ele><time>2026-04-05T15:24:34.999Z</time></trkpt><trkpt lat="44.736464475487715" lon="9.389792747799236"><ele>364.0</ele><time>2026-04-05T15:24:35.999Z</time></trkpt><trkpt lat="44.7366408072999" lon="9.389751663013689"><ele>364.0</ele><time>2026-04-05T15:24:36.999Z</time></trkpt><trkpt lat="44.736825505689524" lon="9.389693462569111"><ele>364.0</ele><time>2026-04-05T15:24:37.999Z</time></trkpt><trkpt lat="44.73700751835868" lon="9.389631723911668"><ele>364.0</ele><time>2026-04-05T15:24:38.999Z</time></trkpt><trkpt lat="44.73717125360166" lon="9.389546893038748"><ele>354.0</ele><time>2026-04-05T15:24:39.999Z</time></trkpt><trkpt lat="44.73734210936842" lon="9.389390081744189"><ele>344.0</ele><time>2026-04-05T15:24:40.999Z</time></trkpt><trkpt lat="44.73752995462846" lon="9.389250992641863"><ele>334.0</ele><time>2026-04-05T15:24:41.999Z</time></trkpt><trkpt lat="44.73771985214149" lon="9.38907065150957"><ele>334.0</ele><time>2026-04-05T15:24:42.999Z</time></trkpt><trkpt lat="44.73789230469897" lon="9.388906782254306"><ele>334.0</ele><time>2026-04-05T15:24:43.999Z</time></trkpt><trkpt lat="44.738036011443434" lon="9.388750709764208"><ele>334.0</ele><time>2026-04-05T15:24:44.999Z</time></trkpt><trkpt lat="44.73815962807976" lon="9.388620694031003"><ele>331.3333333333333</ele><time>2026-04-05T15:24:45.999Z</time></trkpt><trkpt lat="44.73827640296339" lon="9.388480190649078"><ele>328.6666666666667</ele><time>2026-04-05T15:24:46.999Z</time></trkpt><trkpt lat="44.738386551996655" lon="9.388315510055678"><ele>326.0</ele><time>2026-04-05T15:24:47.999Z</time></trkpt><trkpt lat="44.73849037044078" lon="9.388169804608912"><ele>326.4</ele><time>2026-04-05T15:24:48.999Z</time></trkpt><trkpt lat="44.73858851353094" lon="9.388047233345224"><ele>326.8</ele><time>2026-04-05T15:24:49.999Z</time></trkpt><trkpt lat="44.7386774749472" lon="9.387935776757999"><ele>327.2</ele><time>2026-04-05T15:24:50.999Z</time></trkpt><trkpt lat="44.73874265791342" lon="9.38784348773751"><ele>327.59999999999997</ele><time>2026-04-05T15:24:51.999Z</time></trkpt><trkpt lat="44.738806252128796" lon="9.387768828270604"><ele>328.0</ele><time>2026-04-05T15:24:52.999Z</time></trkpt><trkpt lat="44.7388585011318" lon="9.387677438694483"><ele>328.0</ele><time>2026-04-05T15:24:54.999Z</time></trkpt><trkpt lat="44.73891910936094" lon="9.387597216301595"><ele>328.0</ele><time>2026-04-05T15:24:57.999Z</time></trkpt><trkpt lat="44.73894385068702" lon="9.387493801399282"><ele>328.0</ele><time>2026-04-05T15:25:21.999Z</time></trkpt><trkpt lat="44.739056341980245" lon="9.38752387976918"><ele>328.0</ele><time>2026-04-05T15:25:22.999Z</time></trkpt><trkpt lat="44.73915465951204" lon="9.387448232545612"><ele>328.0</ele><time>2026-04-05T15:25:23.999Z</time></trkpt><trkpt lat="44.739258982723854" lon="9.387382234427546"><ele>325.0</ele><time>2026-04-05T15:25:24.999Z</time></trkpt><trkpt lat="44.739386161791764" lon="9.387321457869458"><ele>322.0</ele><time>2026-04-05T15:25:25.999Z</time></trkpt><trkpt lat="44.73951983087337" lon="9.387270066518973"><ele>319.0</ele><time>2026-04-05T15:25:26.999Z</time></trkpt><trkpt lat="44.73967346862674" lon="9.38723329628475"><ele>316.0</ele><time>2026-04-05T15:25:27.999Z</time></trkpt><trkpt lat="44.73983071296005" lon="9.38721728193057"><ele>316.0</ele><time>2026-04-05T15:25:28.999Z</time></trkpt><trkpt lat="44.74000272481075" lon="9.387225815962426"><ele>316.0</ele><time>2026-04-05T15:25:29.999Z</time></trkpt><trkpt lat="44.7401778931798" lon="9.387263729215656"><ele>316.0</ele><time>2026-04-05T15:25:30.999Z</time></trkpt><trkpt lat="44.74034908568993" lon="9.387328381138337"><ele>329.3333333333333</ele><time>2026-04-05T15:25:31.999Z</time></trkpt><trkpt lat="44.74052822911402" lon="9.387422368291778"><ele>342.6666666666667</ele><time>2026-04-05T15:25:32.999Z</time></trkpt><trkpt lat="44.74072874456332" lon="9.387542924517616"><ele>356.0</ele><time>2026-04-05T15:25:34Z</time></trkpt><trkpt lat="44.74098124057919" lon="9.387641246469068"><ele>358.5</ele><time>2026-04-05T15:25:35Z</time></trkpt><trkpt lat="44.74126232850941" lon="9.387805952348334"><ele>361.0</ele><time>2026-04-05T15:25:36.015Z</time></trkpt><trkpt lat="44.74144543501905" lon="9.387850563986996"><ele>361.0</ele><time>2026-04-05T15:25:38.015Z</time></trkpt><trkpt lat="44.74163141888496" lon="9.387951063735404"><ele>361.0</ele><time>2026-04-05T15:25:39.011Z</time></trkpt><trkpt lat="44.7428108565926" lon="9.388609640309017"><ele>356.3333333333333</ele><time>2026-04-05T15:25:44Z</time></trkpt><trkpt lat="44.74301980066372" lon="9.388720669960792"><ele>351.6666666666667</ele><time>2026-04-05T15:25:45Z</time></trkpt><trkpt lat="44.74313253666484" lon="9.388942322270328"><ele>347.0</ele><time>2026-04-05T15:25:46Z</time></trkpt><trkpt lat="44.74338551227465" lon="9.389039977035525"><ele>338.5</ele><time>2026-04-05T15:25:47Z</time></trkpt><trkpt lat="44.74360758670801" lon="9.389083335261258"><ele>330.0</ele><time>2026-04-05T15:25:48Z</time></trkpt><trkpt lat="44.74384447258301" lon="9.38901855054271"><ele>330.0</ele><time>2026-04-05T15:25:49Z</time></trkpt><trkpt lat="44.74404371669443" lon="9.389011776157277"><ele>330.0</ele><time>2026-04-05T15:25:50Z</time></trkpt><trkpt lat="44.74421747385584" lon="9.389025276155413"><ele>330.0</ele><time>2026-04-05T15:25:51Z</time></trkpt><trkpt lat="44.744402389687814" lon="9.389066066507693"><ele>324.6666666666667</ele><time>2026-04-05T15:25:52Z</time></trkpt><trkpt lat="44.74459217680859" lon="9.389133593267568"><ele>319.33333333333337</ele><time>2026-04-05T15:25:53Z</time></trkpt><trkpt lat="44.74475538608187" lon="9.389216704196187"><ele>314.0</ele><time>2026-04-05T15:25:54Z</time></trkpt><trkpt lat="44.74508638824863" lon="9.389449247881723"><ele>316.6666666666667</ele><time>2026-04-05T15:25:55Z</time></trkpt><trkpt lat="44.745278018356515" lon="9.389593043138055"><ele>319.3333333333333</ele><time>2026-04-05T15:25:56Z</time></trkpt><trkpt lat="44.74548075926578" lon="9.389744868957239"><ele>322.0</ele><time>2026-04-05T15:25:57Z</time></trkpt><trkpt lat="44.745659831468274" lon="9.389867362061691"><ele>322.0</ele><time>2026-04-05T15:25:58Z</time></trkpt><trkpt lat="44.74590195564293" lon="9.389980474049395"><ele>322.0</ele><time>2026-04-05T15:25:59Z</time></trkpt><trkpt lat="44.74611842023985" lon="9.390085209031962"><ele>316.66666666666663</ele><time>2026-04-05T15:26:00Z</time></trkpt><trkpt lat="44.746302281404155" lon="9.39016702992695"><ele>311.3333333333333</ele><time>2026-04-05T15:26:01Z</time></trkpt><trkpt lat="44.746511409866635" lon="9.390199036249479"><ele>306.0</ele><time>2026-04-05T15:26:02Z</time></trkpt><trkpt lat="44.74674175629934" lon="9.390216214005196"><ele>312.0</ele><time>2026-04-05T15:26:03Z</time></trkpt><trkpt lat="44.74694583163426" lon="9.390114802259145"><ele>318.0</ele><time>2026-04-05T15:26:04Z</time></trkpt><trkpt lat="44.74714338378312" lon="9.390055213905288"><ele>324.0</ele><time>2026-04-05T15:26:05Z</time></trkpt><trkpt lat="44.74734612793104" lon="9.389943091627782"><ele>324.0</ele><time>2026-04-05T15:26:06Z</time></trkpt><trkpt lat="44.74752243198814" lon="9.389820495777492"><ele>324.0</ele><time>2026-04-05T15:26:07Z</time></trkpt><trkpt lat="44.74770323449683" lon="9.389675502596143"><ele>324.0</ele><time>2026-04-05T15:26:08Z</time></trkpt><trkpt lat="44.747864088893216" lon="9.389475565945176"><ele>328.3333333333333</ele><time>2026-04-05T15:26:09Z</time></trkpt><trkpt lat="44.748011880922434" lon="9.389288381333909"><ele>332.66666666666663</ele><time>2026-04-05T15:26:10Z</time></trkpt><trkpt lat="44.748152587634145" lon="9.389006688188317"><ele>337.0</ele><time>2026-04-05T15:26:11Z</time></trkpt><trkpt lat="44.74829379833055" lon="9.38869782010052"><ele>322.0</ele><time>2026-04-05T15:26:12Z</time></trkpt><trkpt lat="44.74844401474124" lon="9.388337119902337"><ele>307.0</ele><time>2026-04-05T15:26:13Z</time></trkpt><trkpt lat="44.74856920174069" lon="9.388010771124076"><ele>327.0</ele><time>2026-04-05T15:26:14Z</time></trkpt><trkpt lat="44.74868292586678" lon="9.387717153051971"><ele>347.0</ele><time>2026-04-05T15:26:15Z</time></trkpt><trkpt lat="44.748793907123805" lon="9.38743823475006"><ele>339.0</ele><time>2026-04-05T15:26:16Z</time></trkpt><trkpt lat="44.74890103526453" lon="9.387151264546212"><ele>331.0</ele><time>2026-04-05T15:26:17Z</time></trkpt><trkpt lat="44.74898161183549" lon="9.38683267676941"><ele>331.0</ele><time>2026-04-05T15:26:18Z</time></trkpt><trkpt lat="44.74901467002992" lon="9.386525651207581"><ele>331.0</ele><time>2026-04-05T15:26:19Z</time></trkpt><trkpt lat="44.749048012632834" lon="9.386112840102841"><ele>324.0</ele><time>2026-04-05T15:26:20Z</time></trkpt><trkpt lat="44.749061071916024" lon="9.385672070320075"><ele>317.0</ele><time>2026-04-05T15:26:21Z</time></trkpt><trkpt lat="44.749030030337444" lon="9.385248528512708"><ele>314.5</ele><time>2026-04-05T15:26:22Z</time></trkpt><trkpt lat="44.74902600299545" lon="9.384860146845046"><ele>312.0</ele><time>2026-04-05T15:26:23Z</time></trkpt><trkpt lat="44.74901555358175" lon="9.384518301320067"><ele>312.0</ele><time>2026-04-05T15:26:24Z</time></trkpt><trkpt lat="44.74900842012618" lon="9.384214338487231"><ele>312.0</ele><time>2026-04-05T15:26:25Z</time></trkpt><trkpt lat="44.74899034518693" lon="9.383908171498655"><ele>312.0</ele><time>2026-04-05T15:26:26Z</time></trkpt><trkpt lat="44.74899534625966" lon="9.383578014355457"><ele>309.5</ele><time>2026-04-05T15:26:27Z</time></trkpt><trkpt lat="44.74892898117948" lon="9.383215710737007"><ele>307.0</ele><time>2026-04-05T15:26:28Z</time></trkpt><trkpt lat="44.74888113030699" lon="9.382888064258559"><ele>306.66666666666663</ele><time>2026-04-05T15:26:29Z</time></trkpt><trkpt lat="44.748812048624934" lon="9.382611380999128"><ele>306.3333333333333</ele><time>2026-04-05T15:26:30Z</time></trkpt><trkpt lat="44.74876890905689" lon="9.38236972316787"><ele>306.0</ele><time>2026-04-05T15:26:31Z</time></trkpt><trkpt lat="44.748747333892005" lon="9.382133949007128"><ele>303.6666666666667</ele><time>2026-04-05T15:26:32Z</time></trkpt><trkpt lat="44.7487258747735" lon="9.381883152194282"><ele>301.33333333333337</ele><time>2026-04-05T15:26:33Z</time></trkpt><trkpt lat="44.74875781579955" lon="9.381651181773636"><ele>299.0</ele><time>2026-04-05T15:26:34Z</time></trkpt><trkpt lat="44.74875681836576" lon="9.381427661848166"><ele>294.33333333333337</ele><time>2026-04-05T15:26:35Z</time></trkpt><trkpt lat="44.748865669438864" lon="9.38116270664243"><ele>289.6666666666667</ele><time>2026-04-05T15:26:36Z</time></trkpt><trkpt lat="44.74893752175924" lon="9.380926632149428"><ele>285.0</ele><time>2026-04-05T15:26:37Z</time></trkpt><trkpt lat="44.74899538607126" lon="9.3806900069556"><ele>282.0</ele><time>2026-04-05T15:26:38Z</time></trkpt><trkpt lat="44.74905045246349" lon="9.380458340797055"><ele>279.0</ele><time>2026-04-05T15:26:38.999Z</time></trkpt><trkpt lat="44.74916417587218" lon="9.380292502258182"><ele>276.0</ele><time>2026-04-05T15:26:39.999Z</time></trkpt><trkpt lat="44.749300913386435" lon="9.380201820134275"><ele>274.0</ele><time>2026-04-05T15:26:40.999Z</time></trkpt><trkpt lat="44.749472780264185" lon="9.380102276208302"><ele>272.0</ele><time>2026-04-05T15:26:41.999Z</time></trkpt><trkpt lat="44.74962220981762" lon="9.379949567763832"><ele>270.0</ele><time>2026-04-05T15:26:42.999Z</time></trkpt><trkpt lat="44.74979195196835" lon="9.379866657233237"><ele>270.0</ele><time>2026-04-05T15:26:43.999Z</time></trkpt><trkpt lat="44.749948091682185" lon="9.379748982756762"><ele>270.0</ele><time>2026-04-05T15:26:44.999Z</time></trkpt><trkpt lat="44.750134444800025" lon="9.379696669389531"><ele>270.0</ele><time>2026-04-05T15:26:45.999Z</time></trkpt><trkpt lat="44.75032244280698" lon="9.379667441406301"><ele>268.5</ele><time>2026-04-05T15:26:46.999Z</time></trkpt><trkpt lat="44.75054644936989" lon="9.379644438105187"><ele>267.0</ele><time>2026-04-05T15:26:47.999Z</time></trkpt><trkpt lat="44.750790686984644" lon="9.379648912224852"><ele>266.0</ele><time>2026-04-05T15:26:48.999Z</time></trkpt><trkpt lat="44.751059260624096" lon="9.379681157778151"><ele>265.0</ele><time>2026-04-05T15:26:49.999Z</time></trkpt><trkpt lat="44.75135869636561" lon="9.379729647980808"><ele>265.0</ele><time>2026-04-05T15:26:50.999Z</time></trkpt><trkpt lat="44.75163017517065" lon="9.379757174955284"><ele>265.0</ele><time>2026-04-05T15:26:51.999Z</time></trkpt><trkpt lat="44.75195593049872" lon="9.379782136270947"><ele>263.5</ele><time>2026-04-05T15:26:52.999Z</time></trkpt><trkpt lat="44.75226245231555" lon="9.379808888437971"><ele>262.0</ele><time>2026-04-05T15:26:53.999Z</time></trkpt><trkpt lat="44.75255731324049" lon="9.379830679023296"><ele>263.0</ele><time>2026-04-05T15:26:54.999Z</time></trkpt><trkpt lat="44.752809873313964" lon="9.379844989713401"><ele>264.0</ele><time>2026-04-05T15:26:55.999Z</time></trkpt><trkpt lat="44.75305666874193" lon="9.379860596494755"><ele>264.0</ele><time>2026-04-05T15:26:56.999Z</time></trkpt><trkpt lat="44.75328459663144" lon="9.379865795328378"><ele>264.0</ele><time>2026-04-05T15:26:57.999Z</time></trkpt><trkpt lat="44.753486639241224" lon="9.379886120236913"><ele>264.0</ele><time>2026-04-05T15:26:58.999Z</time></trkpt><trkpt lat="44.75368871833176" lon="9.379902614974245"><ele>266.3333333333333</ele><time>2026-04-05T15:26:59.999Z</time></trkpt><trkpt lat="44.75385069241901" lon="9.380011404302701"><ele>268.66666666666663</ele><time>2026-04-05T15:27:00.999Z</time></trkpt><trkpt lat="44.754038450574264" lon="9.380089361674633"><ele>271.0</ele><time>2026-04-05T15:27:01.999Z</time></trkpt><trkpt lat="44.75421122640844" lon="9.380230054443135"><ele>271.0</ele><time>2026-04-05T15:27:02.999Z</time></trkpt><trkpt lat="44.754435561596054" lon="9.380379191186456"><ele>271.0</ele><time>2026-04-05T15:27:03.999Z</time></trkpt><trkpt lat="44.754675401877996" lon="9.38056311932818"><ele>271.0</ele><time>2026-04-05T15:27:04.999Z</time></trkpt><trkpt lat="44.7549234075985" lon="9.380860126555937"><ele>271.0</ele><time>2026-04-05T15:27:05.999Z</time></trkpt><trkpt lat="44.7551471195342" lon="9.381096070569457"><ele>270.5</ele><time>2026-04-05T15:27:06.999Z</time></trkpt><trkpt lat="44.75536492854259" lon="9.381276925215571"><ele>270.0</ele><time>2026-04-05T15:27:07.999Z</time></trkpt><trkpt lat="44.7555691307327" lon="9.381449601963281"><ele>270.0</ele><time>2026-04-05T15:27:08.999Z</time></trkpt><trkpt lat="44.75571989181155" lon="9.381610478306044"><ele>270.0</ele><time>2026-04-05T15:27:09.999Z</time></trkpt><trkpt lat="44.75589033806016" lon="9.381765196773351"><ele>270.0</ele><time>2026-04-05T15:27:10.999Z</time></trkpt><trkpt lat="44.75605793323782" lon="9.381902748904476"><ele>270.3333333333333</ele><time>2026-04-05T15:27:11.999Z</time></trkpt><trkpt lat="44.75624071596421" lon="9.382003867349662"><ele>270.66666666666663</ele><time>2026-04-05T15:27:12.999Z</time></trkpt><trkpt lat="44.756428201005335" lon="9.38208358040919"><ele>271.0</ele><time>2026-04-05T15:27:13.999Z</time></trkpt><trkpt lat="44.75663565364452" lon="9.382134598535396"><ele>271.0</ele><time>2026-04-05T15:27:14.999Z</time></trkpt><trkpt lat="44.75683413659751" lon="9.382145619747961"><ele>271.0</ele><time>2026-04-05T15:27:15.999Z</time></trkpt><trkpt lat="44.75706771110173" lon="9.382129942509723"><ele>271.0</ele><time>2026-04-05T15:27:16.999Z</time></trkpt><trkpt lat="44.757281981564496" lon="9.382092515261565"><ele>270.3333333333333</ele><time>2026-04-05T15:27:17.999Z</time></trkpt><trkpt lat="44.757482066420344" lon="9.382045679696418"><ele>269.6666666666667</ele><time>2026-04-05T15:27:18.999Z</time></trkpt><trkpt lat="44.75766995361855" lon="9.382009893556665"><ele>269.0</ele><time>2026-04-05T15:27:19.999Z</time></trkpt><trkpt lat="44.757844311512564" lon="9.381975407082262"><ele>268.5</ele><time>2026-04-05T15:27:20.999Z</time></trkpt><trkpt lat="44.75798573941115" lon="9.381943120977397"><ele>268.0</ele><time>2026-04-05T15:27:21.999Z</time></trkpt><trkpt lat="44.75812873869009" lon="9.381916906696693"><ele>267.5</ele><time>2026-04-05T15:27:22.999Z</time></trkpt><trkpt lat="44.758277455682695" lon="9.381888288195617"><ele>267.0</ele><time>2026-04-05T15:27:23.999Z</time></trkpt><trkpt lat="44.75842287764757" lon="9.381856494143344"><ele>266.8</ele><time>2026-04-05T15:27:24.999Z</time></trkpt><trkpt lat="44.7585543297803" lon="9.381859734639088"><ele>266.6</ele><time>2026-04-05T15:27:25.999Z</time></trkpt><trkpt lat="44.7586761327199" lon="9.381844319209055"><ele>266.40000000000003</ele><time>2026-04-05T15:27:26.999Z</time></trkpt><trkpt lat="44.75874544555692" lon="9.381824630520335"><ele>266.2</ele><time>2026-04-05T15:27:27.999Z</time></trkpt><trkpt lat="44.75882683447717" lon="9.381808034859553"><ele>266.0</ele><time>2026-04-05T15:27:28.999Z</time></trkpt><trkpt lat="44.75896024660175" lon="9.381791107922615"><ele>266.0</ele><time>2026-04-05T15:27:29.999Z</time></trkpt><trkpt lat="44.75909845525908" lon="9.381767883354614"><ele>266.0</ele><time>2026-04-05T15:27:30.999Z</time></trkpt><trkpt lat="44.759225020866374" lon="9.381728615648809"><ele>266.0</ele><time>2026-04-05T15:27:31.999Z</time></trkpt><trkpt lat="44.75936169843112" lon="9.381702145812492"><ele>266.0</ele><time>2026-04-05T15:27:32.999Z</time></trkpt><trkpt lat="44.75950995739676" lon="9.381676531434724"><ele>266.0</ele><time>2026-04-05T15:27:33.999Z</time></trkpt><trkpt lat="44.7596599485179" lon="9.381651467140738"><ele>266.0</ele><time>2026-04-05T15:27:34.999Z</time></trkpt><trkpt lat="44.759803318906805" lon="9.38165345029214"><ele>266.0</ele><time>2026-04-05T15:27:35.999Z</time></trkpt><trkpt lat="44.75995467648342" lon="9.381671719233678"><ele>266.0</ele><time>2026-04-05T15:27:36.999Z</time></trkpt><trkpt lat="44.76011210058304" lon="9.381706593256988"><ele>266.5</ele><time>2026-04-05T15:27:37.999Z</time></trkpt><trkpt lat="44.7602252889952" lon="9.381778279053966"><ele>267.0</ele><time>2026-04-05T15:27:38.999Z</time></trkpt><trkpt lat="44.760371121255034" lon="9.381850572934491"><ele>267.5</ele><time>2026-04-05T15:27:40Z</time></trkpt><trkpt lat="44.760518631478234" lon="9.381928676546135"><ele>268.0</ele><time>2026-04-05T15:27:41Z</time></trkpt><trkpt lat="44.76067429212822" lon="9.382031245790046"><ele>268.0</ele><time>2026-04-05T15:27:42Z</time></trkpt><trkpt lat="44.760825632210086" lon="9.382136055336739"><ele>268.0</ele><time>2026-04-05T15:27:43Z</time></trkpt><trkpt lat="44.760960674993996" lon="9.382235029210738"><ele>268.0</ele><time>2026-04-05T15:27:44Z</time></trkpt><trkpt lat="44.761112258096844" lon="9.38232550283814"><ele>266.3333333333333</ele><time>2026-04-05T15:27:45Z</time></trkpt><trkpt lat="44.761273511982964" lon="9.382426995042916"><ele>264.6666666666667</ele><time>2026-04-05T15:27:46Z</time></trkpt><trkpt lat="44.76142555426305" lon="9.382523721221125"><ele>263.0</ele><time>2026-04-05T15:27:47Z</time></trkpt><trkpt lat="44.76159573361819" lon="9.3826360674941"><ele>263.0</ele><time>2026-04-05T15:27:48Z</time></trkpt><trkpt lat="44.76176614860483" lon="9.382749334056246"><ele>263.0</ele><time>2026-04-05T15:27:49Z</time></trkpt><trkpt lat="44.761944129730864" lon="9.382869430527425"><ele>263.0</ele><time>2026-04-05T15:27:50Z</time></trkpt><trkpt lat="44.76211765576947" lon="9.383000011712758"><ele>263.0</ele><time>2026-04-05T15:27:51Z</time></trkpt><trkpt lat="44.76232588212294" lon="9.383129643937727"><ele>263.0</ele><time>2026-04-05T15:27:52Z</time></trkpt><trkpt lat="44.762500774775326" lon="9.383256844077987"><ele>263.0</ele><time>2026-04-05T15:27:53Z</time></trkpt><trkpt lat="44.76268662698061" lon="9.383416464380602"><ele>264.6666666666667</ele><time>2026-04-05T15:27:54Z</time></trkpt><trkpt lat="44.76285644947833" lon="9.383621106369525"><ele>266.3333333333333</ele><time>2026-04-05T15:27:55Z</time></trkpt><trkpt lat="44.762996219964904" lon="9.383797591448786"><ele>268.0</ele><time>2026-04-05T15:27:56Z</time></trkpt><trkpt lat="44.763125017585494" lon="9.383988338809006"><ele>268.0</ele><time>2026-04-05T15:27:57Z</time></trkpt><trkpt lat="44.76323005178033" lon="9.38417176961545"><ele>268.0</ele><time>2026-04-05T15:27:58Z</time></trkpt><trkpt lat="44.763305863788574" lon="9.384321955721218"><ele>268.0</ele><time>2026-04-05T15:27:59Z</time></trkpt><trkpt lat="44.76338864743293" lon="9.384506381971217"><ele>268.0</ele><time>2026-04-05T15:28:00Z</time></trkpt><trkpt lat="44.763474855925516" lon="9.38467820979154"><ele>268.0</ele><time>2026-04-05T15:28:01Z</time></trkpt><trkpt lat="44.76353406119378" lon="9.38481176602174"><ele>268.0</ele><time>2026-04-05T15:28:02Z</time></trkpt><trkpt lat="44.7635914402662" lon="9.384950644249653"><ele>268.0</ele><time>2026-04-05T15:28:03Z</time></trkpt><trkpt lat="44.76362921338798" lon="9.385029901515528"><ele>268.0</ele><time>2026-04-05T15:28:04Z</time></trkpt><trkpt lat="44.76368956789403" lon="9.385142852784076"><ele>267.66666666666663</ele><time>2026-04-05T15:28:05Z</time></trkpt><trkpt lat="44.76374930030643" lon="9.385254836563945"><ele>267.3333333333333</ele><time>2026-04-05T15:28:06Z</time></trkpt><trkpt lat="44.76381289398656" lon="9.385376504117563"><ele>267.0</ele><time>2026-04-05T15:28:07Z</time></trkpt><trkpt lat="44.763838852793064" lon="9.385477372302857"><ele>266.6666666666667</ele><time>2026-04-05T15:28:08Z</time></trkpt><trkpt lat="44.76389033541486" lon="9.385571276133835"><ele>266.33333333333337</ele><time>2026-04-05T15:28:09Z</time></trkpt><trkpt lat="44.76393471333531" lon="9.385655717813547"><ele>266.0</ele><time>2026-04-05T15:28:10Z</time></trkpt><trkpt lat="44.763974937811945" lon="9.385728804330776"><ele>266.0</ele><time>2026-04-05T15:28:12Z</time></trkpt><trkpt lat="44.76401263556349" lon="9.385810029363904"><ele>266.0</ele><time>2026-04-05T15:28:15Z</time></trkpt><trkpt lat="44.76407651678552" lon="9.385961625037561"><ele>266.0</ele><time>2026-04-05T15:28:24Z</time></trkpt><trkpt lat="44.7641172216036" lon="9.386043492447213"><ele>266.0</ele><time>2026-04-05T15:28:26Z</time></trkpt><trkpt lat="44.76422422128309" lon="9.386034938645484"><ele>266.0</ele><time>2026-04-05T15:28:36Z</time></trkpt><trkpt lat="44.764334645698526" lon="9.386024894858206"><ele>266.6</ele><time>2026-04-05T15:28:37Z</time></trkpt><trkpt lat="44.76442108765133" lon="9.386055959809674"><ele>267.20000000000005</ele><time>2026-04-05T15:28:38Z</time></trkpt><trkpt lat="44.76452368924307" lon="9.386097517450873"><ele>267.79999999999995</ele><time>2026-04-05T15:28:39Z</time></trkpt><trkpt lat="44.7646197887436" lon="9.38614493450663"><ele>268.4</ele><time>2026-04-05T15:28:40Z</time></trkpt><trkpt lat="44.7647047771788" lon="9.386185014809842"><ele>269.0</ele><time>2026-04-05T15:28:41Z</time></trkpt><trkpt lat="44.76479888623349" lon="9.38621109099291"><ele>269.0</ele><time>2026-04-05T15:28:41.999Z</time></trkpt><trkpt lat="44.76491148410651" lon="9.386220241892158"><ele>269.0</ele><time>2026-04-05T15:28:42.999Z</time></trkpt><trkpt lat="44.765012766126254" lon="9.386246521945155"><ele>269.0</ele><time>2026-04-05T15:28:43.999Z</time></trkpt><trkpt lat="44.76512043729113" lon="9.386285766742631"><ele>269.0</ele><time>2026-04-05T15:28:44.999Z</time></trkpt><trkpt lat="44.76525998075472" lon="9.386335604955255"><ele>269.2</ele><time>2026-04-05T15:28:45.999Z</time></trkpt><trkpt lat="44.76534828583545" lon="9.386356676868774"><ele>269.4</ele><time>2026-04-05T15:28:46.999Z</time></trkpt><trkpt lat="44.765486249118624" lon="9.38642429345565"><ele>269.6</ele><time>2026-04-05T15:28:48.999Z</time></trkpt><trkpt lat="44.7655744889627" lon="9.386457692494691"><ele>269.8</ele><time>2026-04-05T15:28:49.999Z</time></trkpt><trkpt lat="44.76566363648608" lon="9.386489505154504"><ele>270.0</ele><time>2026-04-05T15:28:50.999Z</time></trkpt><trkpt lat="44.76575209692136" lon="9.386523285008906"><ele>270.0</ele><time>2026-04-05T15:28:51.999Z</time></trkpt><trkpt lat="44.765826611578596" lon="9.386562507559338"><ele>270.0</ele><time>2026-04-05T15:28:52.999Z</time></trkpt><trkpt lat="44.7658840451689" lon="9.386607152589145"><ele>270.0</ele><time>2026-04-05T15:28:53.999Z</time></trkpt><trkpt lat="44.765967989517165" lon="9.3866962086646"><ele>270.0</ele><time>2026-04-05T15:28:55.999Z</time></trkpt><trkpt lat="44.76603051566567" lon="9.3867629162651"><ele>270.0</ele><time>2026-04-05T15:28:58.999Z</time></trkpt><trkpt lat="44.76603069660406" lon="9.38685430538262"><ele>270.0</ele><time>2026-04-05T15:29:03.999Z</time></trkpt><trkpt lat="44.766048713175365" lon="9.386994712976305"><ele>271.6666666666667</ele><time>2026-04-05T15:29:06.999Z</time></trkpt><trkpt lat="44.76606562462979" lon="9.387101833016036"><ele>273.3333333333333</ele><time>2026-04-05T15:29:07.999Z</time></trkpt><trkpt lat="44.766073842868416" lon="9.387220759317275"><ele>275.0</ele><time>2026-04-05T15:29:08.999Z</time></trkpt><trkpt lat="44.76607211007542" lon="9.387358453606794"><ele>276.66666666666663</ele><time>2026-04-05T15:29:09.999Z</time></trkpt><trkpt lat="44.76609186010492" lon="9.38748521585147"><ele>278.3333333333333</ele><time>2026-04-05T15:29:10.999Z</time></trkpt><trkpt lat="44.76610156928289" lon="9.38759980831923"><ele>280.0</ele><time>2026-04-05T15:29:11.999Z</time></trkpt><trkpt lat="44.76611320505931" lon="9.387724081082377"><ele>280.0</ele><time>2026-04-05T15:29:13.999Z</time></trkpt><trkpt lat="44.76611644094734" lon="9.387555578849257"><ele>280.0</ele><time>2026-04-05T15:29:28.999Z</time></trkpt><trkpt lat="44.766553586928715" lon="9.387100015761444"><ele>280.5</ele><time>2026-04-05T15:29:31.999Z</time></trkpt><trkpt lat="44.766543335835095" lon="9.386996859060933"><ele>281.0</ele><time>2026-04-05T15:29:32.999Z</time></trkpt><trkpt lat="44.76654187558489" lon="9.38687281832956"><ele>281.5</ele><time>2026-04-05T15:29:34.999Z</time></trkpt><trkpt lat="44.76657337009006" lon="9.386713356697335"><ele>282.0</ele><time>2026-04-05T15:29:37.999Z</time></trkpt><trkpt lat="44.76659069408867" lon="9.386351333030198"><ele>282.1666666666667</ele><time>2026-04-05T15:29:38.999Z</time></trkpt><trkpt lat="44.76656754341548" lon="9.386219173694455"><ele>282.3333333333333</ele><time>2026-04-05T15:29:39.999Z</time></trkpt><trkpt lat="44.76655628988724" lon="9.3861319192069"><ele>282.5</ele><time>2026-04-05T15:29:40.999Z</time></trkpt><trkpt lat="44.76654548001121" lon="9.386016420843228"><ele>282.66666666666663</ele><time>2026-04-05T15:29:41.999Z</time></trkpt><trkpt lat="44.766534848839356" lon="9.385886033857869"><ele>282.8333333333333</ele><time>2026-04-05T15:29:42.999Z</time></trkpt><trkpt lat="44.76652444191956" lon="9.385758397237614"><ele>283.0</ele><time>2026-04-05T15:29:43.999Z</time></trkpt><trkpt lat="44.766509032992616" lon="9.385616476505376"><ele>283.0</ele><time>2026-04-05T15:29:44.999Z</time></trkpt><trkpt lat="44.76649296220643" lon="9.385475739619844"><ele>283.0</ele><time>2026-04-05T15:29:46Z</time></trkpt><trkpt lat="44.76647869125319" lon="9.38534244963901"><ele>283.0</ele><time>2026-04-05T15:29:47Z</time></trkpt><trkpt lat="44.76646391541672" lon="9.38520665382513"><ele>283.0</ele><time>2026-04-05T15:29:48Z</time></trkpt><trkpt lat="44.7664506038071" lon="9.385080945342427"><ele>283.0</ele><time>2026-04-05T15:29:49Z</time></trkpt><trkpt lat="44.7664638315085" lon="9.384965557376557"><ele>283.0</ele><time>2026-04-05T15:29:50Z</time></trkpt><trkpt lat="44.76647722077822" lon="9.384876184420541"><ele>283.0</ele><time>2026-04-05T15:29:51Z</time></trkpt><trkpt lat="44.76648158033651" lon="9.38477787774272"><ele>283.0</ele><time>2026-04-05T15:29:52Z</time></trkpt><trkpt lat="44.76648262253511" lon="9.384598202120168"><ele>283.0</ele><time>2026-04-05T15:29:54Z</time></trkpt><trkpt lat="44.766480104689414" lon="9.384428383402895"><ele>283.0</ele><time>2026-04-05T15:29:56Z</time></trkpt><trkpt lat="44.76647147228643" lon="9.384265697286606"><ele>283.0</ele><time>2026-04-05T15:29:58Z</time></trkpt><trkpt lat="44.76646359276009" lon="9.384173278437705"><ele>283.0</ele><time>2026-04-05T15:29:59Z</time></trkpt><trkpt lat="44.76648388000384" lon="9.3840132965571"><ele>283.0</ele><time>2026-04-05T15:30:00Z</time></trkpt><trkpt lat="44.766499005046676" lon="9.383918112671155"><ele>283.0</ele><time>2026-04-05T15:30:01Z</time></trkpt><trkpt lat="44.766543014690676" lon="9.38374320836958"><ele>283.0</ele><time>2026-04-05T15:30:03Z</time></trkpt><trkpt lat="44.7666226897129" lon="9.38365683833451"><ele>282.8333333333333</ele><time>2026-04-05T15:30:04Z</time></trkpt><trkpt lat="44.76669993168147" lon="9.383615192363733"><ele>282.66666666666663</ele><time>2026-04-05T15:30:05Z</time></trkpt><trkpt lat="44.76678253794536" lon="9.383614039054711"><ele>282.5</ele><time>2026-04-05T15:30:06Z</time></trkpt><trkpt lat="44.76683074576513" lon="9.383553927948016"><ele>282.3333333333333</ele><time>2026-04-05T15:30:07Z</time></trkpt><trkpt lat="44.766879625829006" lon="9.383492421607398"><ele>282.1666666666667</ele><time>2026-04-05T15:30:08Z</time></trkpt><trkpt lat="44.766941422605626" lon="9.383373923913666"><ele>282.0</ele><time>2026-04-05T15:30:10Z</time></trkpt><trkpt lat="44.76700062565914" lon="9.38331897471129"><ele>284.4</ele><time>2026-04-05T15:30:12Z</time></trkpt><trkpt lat="44.767066357410016" lon="9.3832525722962"><ele>286.79999999999995</ele><time>2026-04-05T15:30:15Z</time></trkpt><trkpt lat="44.76712783395783" lon="9.383190330695637"><ele>289.2</ele><time>2026-04-05T15:30:17Z</time></trkpt><trkpt lat="44.767208978810565" lon="9.383120608537817"><ele>291.59999999999997</ele><time>2026-04-05T15:30:19Z</time></trkpt><trkpt lat="44.767287114181435" lon="9.383027342873772"><ele>294.0</ele><time>2026-04-05T15:30:21Z</time></trkpt><trkpt lat="44.76739278041794" lon="9.382926909999991"><ele>294.6666666666667</ele><time>2026-04-05T15:30:23Z</time></trkpt><trkpt lat="44.767445750934435" lon="9.382878202356897"><ele>295.3333333333333</ele><time>2026-04-05T15:30:24Z</time></trkpt><trkpt lat="44.76754426018135" lon="9.382787620759771"><ele>296.0</ele><time>2026-04-05T15:30:26Z</time></trkpt><trkpt lat="44.76764283109035" lon="9.382696982465564"><ele>296.66666666666663</ele><time>2026-04-05T15:30:28Z</time></trkpt><trkpt lat="44.767700766327124" lon="9.382642855865027"><ele>297.3333333333333</ele><time>2026-04-05T15:30:29Z</time></trkpt><trkpt lat="44.767753549438304" lon="9.382593483113196"><ele>298.0</ele><time>2026-04-05T15:30:30Z</time></trkpt><trkpt lat="44.76784355021579" lon="9.382510819122391"><ele>299.8</ele><time>2026-04-05T15:30:32Z</time></trkpt><trkpt lat="44.76791376138168" lon="9.382472215430273"><ele>301.6</ele><time>2026-04-05T15:30:34Z</time></trkpt><trkpt lat="44.76801025875912" lon="9.382353671924303"><ele>303.4</ele><time>2026-04-05T15:30:36Z</time></trkpt><trkpt lat="44.76805709088473" lon="9.38226441790765"><ele>305.2</ele><time>2026-04-05T15:30:37Z</time></trkpt><trkpt lat="44.76810570153357" lon="9.382140173340183"><ele>307.0</ele><time>2026-04-05T15:30:38Z</time></trkpt><trkpt lat="44.76817090841036" lon="9.381992910346248"><ele>307.4</ele><time>2026-04-05T15:30:39Z</time></trkpt><trkpt lat="44.768228161921385" lon="9.381859139051507"><ele>307.79999999999995</ele><time>2026-04-05T15:30:40Z</time></trkpt><trkpt lat="44.76831162224491" lon="9.38173265691454"><ele>308.2</ele><time>2026-04-05T15:30:41Z</time></trkpt><trkpt lat="44.76836898853205" lon="9.381597062031192"><ele>308.59999999999997</ele><time>2026-04-05T15:30:42Z</time></trkpt><trkpt lat="44.76842431905204" lon="9.381491802184836"><ele>309.0</ele><time>2026-04-05T15:30:43Z</time></trkpt><trkpt lat="44.768461095043506" lon="9.381396903313433"><ele>310.0</ele><time>2026-04-05T15:30:44Z</time></trkpt><trkpt lat="44.76852829139323" lon="9.381335505324383"><ele>311.0</ele><time>2026-04-05T15:30:46Z</time></trkpt><trkpt lat="44.768567150336274" lon="9.381532252833999"><ele>312.0</ele><time>2026-04-05T15:30:49Z</time></trkpt><trkpt lat="44.768575835120075" lon="9.381679964797684"><ele>313.0</ele><time>2026-04-05T15:30:50Z</time></trkpt><trkpt lat="44.768600471823454" lon="9.38184673741115"><ele>313.0</ele><time>2026-04-05T15:30:51Z</time></trkpt><trkpt lat="44.76864955423792" lon="9.382019733814097"><ele>313.0</ele><time>2026-04-05T15:30:51.999Z</time></trkpt><trkpt lat="44.768724119917735" lon="9.382200349967638"><ele>313.0</ele><time>2026-04-05T15:30:52.999Z</time></trkpt><trkpt lat="44.7688217467076" lon="9.382372632364644"><ele>313.0</ele><time>2026-04-05T15:30:53.999Z</time></trkpt><trkpt lat="44.768901199999185" lon="9.382527500667962"><ele>311.75</ele><time>2026-04-05T15:30:54.999Z</time></trkpt><trkpt lat="44.76897538540921" lon="9.382681040888848"><ele>310.5</ele><time>2026-04-05T15:30:55.999Z</time></trkpt><trkpt lat="44.76904186374159" lon="9.382825162184272"><ele>309.25</ele><time>2026-04-05T15:30:56.999Z</time></trkpt><trkpt lat="44.769097879804306" lon="9.382952492747819"><ele>308.0</ele><time>2026-04-05T15:30:57.999Z</time></trkpt><trkpt lat="44.769155879013084" lon="9.38308225049329"><ele>308.0</ele><time>2026-04-05T15:30:58.999Z</time></trkpt><trkpt lat="44.76920778405027" lon="9.383198112401699"><ele>308.0</ele><time>2026-04-05T15:30:59.999Z</time></trkpt><trkpt lat="44.7692774174816" lon="9.383343048626383"><ele>308.0</ele><time>2026-04-05T15:31:00.999Z</time></trkpt><trkpt lat="44.76933983704231" lon="9.383455662144979"><ele>308.0</ele><time>2026-04-05T15:31:01.999Z</time></trkpt><trkpt lat="44.76939212592306" lon="9.383567070449969"><ele>308.0</ele><time>2026-04-05T15:31:02.999Z</time></trkpt><trkpt lat="44.76943977946126" lon="9.383663102936994"><ele>308.0</ele><time>2026-04-05T15:31:03.999Z</time></trkpt><trkpt lat="44.76948240708839" lon="9.383770665643066"><ele>308.0</ele><time>2026-04-05T15:31:04.999Z</time></trkpt><trkpt lat="44.76952564497857" lon="9.383899386942494"><ele>308.0</ele><time>2026-04-05T15:31:05.999Z</time></trkpt><trkpt lat="44.76958545691185" lon="9.384021513671287"><ele>308.0</ele><time>2026-04-05T15:31:06.999Z</time></trkpt><trkpt lat="44.76964843677776" lon="9.384149844312219"><ele>308.0</ele><time>2026-04-05T15:31:07.999Z</time></trkpt><trkpt lat="44.76968871188245" lon="9.384296688338644"><ele>305.75</ele><time>2026-04-05T15:31:08.999Z</time></trkpt><trkpt lat="44.769761850562695" lon="9.384417187665475"><ele>303.5</ele><time>2026-04-05T15:31:09.999Z</time></trkpt><trkpt lat="44.76983852408851" lon="9.384547085896656"><ele>301.25</ele><time>2026-04-05T15:31:10.999Z</time></trkpt><trkpt lat="44.769902803121866" lon="9.38470357408487"><ele>299.0</ele><time>2026-04-05T15:31:11.999Z</time></trkpt><trkpt lat="44.769958542751105" lon="9.384860949254671"><ele>297.0</ele><time>2026-04-05T15:31:12.999Z</time></trkpt><trkpt lat="44.77002377357695" lon="9.384987140631585"><ele>295.0</ele><time>2026-04-05T15:31:13.999Z</time></trkpt><trkpt lat="44.77006972725908" lon="9.385104877322878"><ele>293.0</ele><time>2026-04-05T15:31:14.999Z</time></trkpt><trkpt lat="44.77010006086255" lon="9.385233593974057"><ele>291.0</ele><time>2026-04-05T15:31:15.999Z</time></trkpt><trkpt lat="44.770123163945314" lon="9.385373766210838"><ele>289.0</ele><time>2026-04-05T15:31:16.999Z</time></trkpt><trkpt lat="44.77013375145532" lon="9.38551193038527"><ele>288.0</ele><time>2026-04-05T15:31:17.999Z</time></trkpt><trkpt lat="44.770118123738186" lon="9.385631915255601"><ele>287.0</ele><time>2026-04-05T15:31:18.999Z</time></trkpt><trkpt lat="44.77009349278862" lon="9.385732089763625"><ele>286.0</ele><time>2026-04-05T15:31:19.999Z</time></trkpt><trkpt lat="44.7700239743817" lon="9.385883764063431"><ele>285.0</ele><time>2026-04-05T15:31:21.999Z</time></trkpt><trkpt lat="44.76992069477694" lon="9.38593825205048"><ele>284.0</ele><time>2026-04-05T15:31:23.999Z</time></trkpt><trkpt lat="44.76981666152133" lon="9.385883659455635"><ele>284.0</ele><time>2026-04-05T15:31:25.999Z</time></trkpt><trkpt lat="44.769768341169424" lon="9.385806093052757"><ele>284.0</ele><time>2026-04-05T15:31:26.999Z</time></trkpt><trkpt lat="44.76967208689524" lon="9.385759062280666"><ele>284.0</ele><time>2026-04-05T15:31:27.999Z</time></trkpt><trkpt lat="44.76954938580636" lon="9.385727016981004"><ele>284.0</ele><time>2026-04-05T15:31:28.999Z</time></trkpt><trkpt lat="44.76945722027551" lon="9.385709968526914"><ele>284.0</ele><time>2026-04-05T15:31:29.999Z</time></trkpt><trkpt lat="44.76938498209441" lon="9.385702476483884"><ele>284.0</ele><time>2026-04-05T15:31:30.999Z</time></trkpt><trkpt lat="44.76927330280396" lon="9.38570758475846"><ele>284.0</ele><time>2026-04-05T15:31:32.999Z</time></trkpt><trkpt lat="44.76920414798948" lon="9.385860183528797"><ele>284.0</ele><time>2026-04-05T15:31:34.999Z</time></trkpt><trkpt lat="44.76926926649461" lon="9.385950810411607"><ele>284.0</ele><time>2026-04-05T15:31:35.999Z</time></trkpt><trkpt lat="44.76931555502491" lon="9.38602165479171"><ele>284.0</ele><time>2026-04-05T15:31:38.999Z</time></trkpt><trkpt lat="44.76943861683122" lon="9.385965618348662"><ele>284.0</ele><time>2026-04-05T15:31:40.999Z</time></trkpt><trkpt lat="44.769502792904" lon="9.38596981129453"><ele>284.0</ele><time>2026-04-05T15:31:42.999Z</time></trkpt><trkpt lat="44.76945385039363" lon="9.3858845786514"><ele>284.0</ele><time>2026-04-05T15:31:52Z</time></trkpt><trkpt lat="44.76955928693351" lon="9.385838842124077"><ele>284.0</ele><time>2026-04-05T15:32:42Z</time></trkpt><trkpt lat="44.76950179927955" lon="9.385884035092667"><ele>284.0</ele><time>2026-04-05T15:32:47Z</time></trkpt><trkpt lat="44.76954870803089" lon="9.385801710555324"><ele>284.0</ele><time>2026-04-05T15:33:15.999Z</time></trkpt><trkpt lat="44.769573899221015" lon="9.385885969883285"><ele>284.0</ele><time>2026-04-05T15:34:35Z</time></trkpt><trkpt lat="44.76951227215414" lon="9.385912795701557"><ele>284.0</ele><time>2026-04-05T15:34:58Z</time></trkpt><trkpt lat="44.769564730298555" lon="9.385971092476886"><ele>284.0</ele><time>2026-04-05T15:39:49.999Z</time></trkpt><trkpt lat="44.76950335246504" lon="9.385912806888555"><ele>284.0</ele><time>2026-04-05T15:40:06.999Z</time></trkpt><trkpt lat="44.76943593460513" lon="9.385957238178536"><ele>284.0</ele><time>2026-04-05T15:52:37.999Z</time></trkpt><trkpt lat="44.76950314618737" lon="9.385950124114615"><ele>284.0</ele><time>2026-04-05T16:02:45.999Z</time></trkpt><trkpt lat="44.76948772536819" lon="9.385849840683427"><ele>284.0</ele><time>2026-04-05T16:04:46.999Z</time></trkpt><trkpt lat="44.76953510738001" lon="9.385909027298451"><ele>284.0</ele><time>2026-04-05T16:04:54.999Z</time></trkpt><trkpt lat="44.76943990084787" lon="9.385859268157407"><ele>284.0</ele><time>2026-04-05T16:05:36Z</time></trkpt><trkpt lat="44.7694580244889" lon="9.385980678976319"><ele>284.0</ele><time>2026-04-05T16:05:52Z</time></trkpt><trkpt lat="44.769523368973545" lon="9.385939714060044"><ele>284.0</ele><time>2026-04-05T16:06:18Z</time></trkpt><trkpt lat="44.76948337640441" lon="9.385839579962862"><ele>284.0</ele><time>2026-04-05T16:06:27Z</time></trkpt><trkpt lat="44.76957258795398" lon="9.38578605695147"><ele>284.0</ele><time>2026-04-05T16:09:38.999Z</time></trkpt><trkpt lat="44.76967411330152" lon="9.38578225860448"><ele>284.0</ele><time>2026-04-05T16:09:42Z</time></trkpt><trkpt lat="44.76972945894296" lon="9.38584809909932"><ele>284.0</ele><time>2026-04-05T16:09:44Z</time></trkpt><trkpt lat="44.769803934353526" lon="9.385866568889178"><ele>284.0</ele><time>2026-04-05T16:09:46Z</time></trkpt><trkpt lat="44.76988580744773" lon="9.38588460027357"><ele>284.0</ele><time>2026-04-05T16:09:47Z</time></trkpt><trkpt lat="44.770017617585104" lon="9.385949393723793"><ele>284.0</ele><time>2026-04-05T16:09:49Z</time></trkpt><trkpt lat="44.77008089541961" lon="9.385980798646298"><ele>284.0</ele><time>2026-04-05T16:09:50Z</time></trkpt><trkpt lat="44.770141649395846" lon="9.385956832735685"><ele>284.0</ele><time>2026-04-05T16:09:52Z</time></trkpt><trkpt lat="44.770192892476125" lon="9.385859309455428"><ele>284.0</ele><time>2026-04-05T16:09:54Z</time></trkpt><trkpt lat="44.77021565836382" lon="9.385641529997176"><ele>284.0</ele><time>2026-04-05T16:09:56Z</time></trkpt><trkpt lat="44.77020710971462" lon="9.385536834175984"><ele>284.0</ele><time>2026-04-05T16:09:57Z</time></trkpt><trkpt lat="44.77022014933348" lon="9.385445118696962"><ele>284.0</ele><time>2026-04-05T16:09:58Z</time></trkpt><trkpt lat="44.77022212399838" lon="9.38535463440078"><ele>284.0</ele><time>2026-04-05T16:09:59Z</time></trkpt><trkpt lat="44.77020817584578" lon="9.385230814391104"><ele>285.0</ele><time>2026-04-05T16:10:00Z</time></trkpt><trkpt lat="44.77019293881833" lon="9.385100417221606"><ele>286.0</ele><time>2026-04-05T16:10:01Z</time></trkpt><trkpt lat="44.77011088537832" lon="9.38496731360605"><ele>287.0</ele><time>2026-04-05T16:10:02Z</time></trkpt><trkpt lat="44.77004999289524" lon="9.384834740268108"><ele>288.0</ele><time>2026-04-05T16:10:03Z</time></trkpt><trkpt lat="44.76999324539381" lon="9.38470515049058"><ele>289.0</ele><time>2026-04-05T16:10:04Z</time></trkpt><trkpt lat="44.769917979041644" lon="9.384564351958865"><ele>291.5</ele><time>2026-04-05T16:10:05Z</time></trkpt><trkpt lat="44.76983406690011" lon="9.384418981482307"><ele>294.0</ele><time>2026-04-05T16:10:06Z</time></trkpt><trkpt lat="44.7697676371309" lon="9.384272215391894"><ele>296.5</ele><time>2026-04-05T16:10:07Z</time></trkpt><trkpt lat="44.76969160612327" lon="9.384111608164627"><ele>299.0</ele><time>2026-04-05T16:10:08Z</time></trkpt><trkpt lat="44.76961873472392" lon="9.383948241009765"><ele>300.0</ele><time>2026-04-05T16:10:09Z</time></trkpt><trkpt lat="44.76953881521208" lon="9.383795195281047"><ele>301.0</ele><time>2026-04-05T16:10:10Z</time></trkpt><trkpt lat="44.76946678005054" lon="9.383647325513747"><ele>302.0</ele><time>2026-04-05T16:10:11Z</time></trkpt><trkpt lat="44.76941684619306" lon="9.383522608511477"><ele>303.0</ele><time>2026-04-05T16:10:12Z</time></trkpt><trkpt lat="44.76934920486271" lon="9.383399323784804"><ele>303.0</ele><time>2026-04-05T16:10:13Z</time></trkpt><trkpt lat="44.7692938055972" lon="9.383292713868816"><ele>303.0</ele><time>2026-04-05T16:10:14Z</time></trkpt><trkpt lat="44.76924352382137" lon="9.383188580474423"><ele>303.0</ele><time>2026-04-05T16:10:15Z</time></trkpt><trkpt lat="44.76918706008508" lon="9.3830753180693"><ele>303.0</ele><time>2026-04-05T16:10:16Z</time></trkpt><trkpt lat="44.769129996512206" lon="9.382952197768855"><ele>303.0</ele><time>2026-04-05T16:10:17Z</time></trkpt><trkpt lat="44.769062442820655" lon="9.382827152740665"><ele>304.25</ele><time>2026-04-05T16:10:18Z</time></trkpt><trkpt lat="44.76901110187594" lon="9.382679920808249"><ele>305.5</ele><time>2026-04-05T16:10:19Z</time></trkpt><trkpt lat="44.76893318304547" lon="9.382534934713805"><ele>306.75</ele><time>2026-04-05T16:10:20Z</time></trkpt><trkpt lat="44.76885694794877" lon="9.382391243631027"><ele>308.0</ele><time>2026-04-05T16:10:21Z</time></trkpt><trkpt lat="44.768780492993294" lon="9.382234843702548"><ele>309.25</ele><time>2026-04-05T16:10:22Z</time></trkpt><trkpt lat="44.768710967150646" lon="9.382080610891636"><ele>310.5</ele><time>2026-04-05T16:10:23Z</time></trkpt><trkpt lat="44.76865198306121" lon="9.381913517854798"><ele>311.75</ele><time>2026-04-05T16:10:24Z</time></trkpt><trkpt lat="44.76861857154734" lon="9.381750825819664"><ele>313.0</ele><time>2026-04-05T16:10:25Z</time></trkpt><trkpt lat="44.76860373451221" lon="9.381586294692665"><ele>313.0</ele><time>2026-04-05T16:10:26Z</time></trkpt><trkpt lat="44.76859247962187" lon="9.38139204302326"><ele>313.0</ele><time>2026-04-05T16:10:27Z</time></trkpt><trkpt lat="44.76857097746516" lon="9.381196918079262"><ele>313.0</ele><time>2026-04-05T16:10:28Z</time></trkpt><trkpt lat="44.76856514119261" lon="9.380979334728114"><ele>313.0</ele><time>2026-04-05T16:10:29Z</time></trkpt><trkpt lat="44.76855415879174" lon="9.380757179124094"><ele>314.0</ele><time>2026-04-05T16:10:30Z</time></trkpt><trkpt lat="44.7685410205762" lon="9.380540855008885"><ele>315.0</ele><time>2026-04-05T16:10:31Z</time></trkpt><trkpt lat="44.768537365502766" lon="9.38035191518063"><ele>316.0</ele><time>2026-04-05T16:10:32Z</time></trkpt><trkpt lat="44.768530016077264" lon="9.380209826791239"><ele>317.0</ele><time>2026-04-05T16:10:33Z</time></trkpt><trkpt lat="44.768503180166405" lon="9.380066532927756"><ele>317.0</ele><time>2026-04-05T16:10:34Z</time></trkpt><trkpt lat="44.768491481102" lon="9.379927103807312"><ele>317.0</ele><time>2026-04-05T16:10:35Z</time></trkpt><trkpt lat="44.76846168422294" lon="9.379780315169185"><ele>317.0</ele><time>2026-04-05T16:10:36Z</time></trkpt><trkpt lat="44.7684141457566" lon="9.379619257064991"><ele>317.0</ele><time>2026-04-05T16:10:37Z</time></trkpt><trkpt lat="44.76835576329306" lon="9.379454252858102"><ele>317.8</ele><time>2026-04-05T16:10:38Z</time></trkpt><trkpt lat="44.7683053433399" lon="9.379286487506512"><ele>318.6</ele><time>2026-04-05T16:10:39Z</time></trkpt><trkpt lat="44.76827250070351" lon="9.379149597902476"><ele>319.40000000000003</ele><time>2026-04-05T16:10:40Z</time></trkpt><trkpt lat="44.76825758277293" lon="9.379018320634326"><ele>320.2</ele><time>2026-04-05T16:10:41Z</time></trkpt><trkpt lat="44.76827033520022" lon="9.378892441787615"><ele>321.0</ele><time>2026-04-05T16:10:42Z</time></trkpt><trkpt lat="44.76834335211276" lon="9.37879089789283"><ele>321.25</ele><time>2026-04-05T16:10:43Z</time></trkpt><trkpt lat="44.76841591603742" lon="9.37866280982315"><ele>321.5</ele><time>2026-04-05T16:10:44Z</time></trkpt><trkpt lat="44.7685115620253" lon="9.378498941747202"><ele>321.75</ele><time>2026-04-05T16:10:45Z</time></trkpt><trkpt lat="44.768597317292205" lon="9.378323887443942"><ele>322.0</ele><time>2026-04-05T16:10:46Z</time></trkpt><trkpt lat="44.768637159274775" lon="9.378151342743319"><ele>325.20000000000005</ele><time>2026-04-05T16:10:47Z</time></trkpt><trkpt lat="44.76867858072589" lon="9.377976328571307"><ele>328.4</ele><time>2026-04-05T16:10:48Z</time></trkpt><trkpt lat="44.768712628101554" lon="9.377818394266399"><ele>331.6</ele><time>2026-04-05T16:10:49Z</time></trkpt><trkpt lat="44.76874460326457" lon="9.377697659702621"><ele>334.79999999999995</ele><time>2026-04-05T16:10:49.999Z</time></trkpt><trkpt lat="44.768804832992465" lon="9.377586723532133"><ele>338.0</ele><time>2026-04-05T16:10:50.999Z</time></trkpt><trkpt lat="44.76888525019695" lon="9.377466921757174"><ele>338.0</ele><time>2026-04-05T16:10:51.999Z</time></trkpt><trkpt lat="44.76897500052712" lon="9.377309312986215"><ele>338.0</ele><time>2026-04-05T16:10:52.999Z</time></trkpt><trkpt lat="44.76905635403775" lon="9.377210205167701"><ele>338.0</ele><time>2026-04-05T16:10:53.999Z</time></trkpt><trkpt lat="44.769216645736904" lon="9.377105767093777"><ele>338.0</ele><time>2026-04-05T16:10:54.999Z</time></trkpt><trkpt lat="44.76933367669245" lon="9.376992194305863"><ele>340.0</ele><time>2026-04-05T16:10:55.999Z</time></trkpt><trkpt lat="44.76942206748044" lon="9.376900964552462"><ele>342.0</ele><time>2026-04-05T16:10:56.999Z</time></trkpt><trkpt lat="44.76950173023817" lon="9.376804374292337"><ele>344.0</ele><time>2026-04-05T16:10:57.999Z</time></trkpt><trkpt lat="44.769554246028726" lon="9.376680841077603"><ele>346.0</ele><time>2026-04-05T16:10:58.999Z</time></trkpt><trkpt lat="44.76957755284878" lon="9.376517732248006"><ele>348.0</ele><time>2026-04-05T16:10:59.999Z</time></trkpt><trkpt lat="44.76959986927312" lon="9.376356563440433"><ele>347.79999999999995</ele><time>2026-04-05T16:11:00.999Z</time></trkpt><trkpt lat="44.769623697411106" lon="9.37620257560517"><ele>347.6</ele><time>2026-04-05T16:11:01.999Z</time></trkpt><trkpt lat="44.76966382201313" lon="9.376104806146657"><ele>347.4</ele><time>2026-04-05T16:11:02.999Z</time></trkpt><trkpt lat="44.76972178928704" lon="9.37600438723037"><ele>347.20000000000005</ele><time>2026-04-05T16:11:03.999Z</time></trkpt><trkpt lat="44.76981759222929" lon="9.375907006959457"><ele>347.0</ele><time>2026-04-05T16:11:04.999Z</time></trkpt><trkpt lat="44.76992653023106" lon="9.375808812186174"><ele>347.0</ele><time>2026-04-05T16:11:05.999Z</time></trkpt><trkpt lat="44.770017453646524" lon="9.375688335559047"><ele>347.0</ele><time>2026-04-05T16:11:06.999Z</time></trkpt><trkpt lat="44.77010641771055" lon="9.375571697931967"><ele>347.0</ele><time>2026-04-05T16:11:07.999Z</time></trkpt><trkpt lat="44.770143561317155" lon="9.375446090682193"><ele>347.0</ele><time>2026-04-05T16:11:08.999Z</time></trkpt><trkpt lat="44.770173843286116" lon="9.375301019948767"><ele>348.20000000000005</ele><time>2026-04-05T16:11:09.999Z</time></trkpt><trkpt lat="44.77020196503865" lon="9.375179146033824"><ele>349.4</ele><time>2026-04-05T16:11:10.999Z</time></trkpt><trkpt lat="44.77024964185715" lon="9.375091465139555"><ele>350.6</ele><time>2026-04-05T16:11:11.999Z</time></trkpt><trkpt lat="44.77031273804" lon="9.375041371754435"><ele>351.79999999999995</ele><time>2026-04-05T16:11:12.999Z</time></trkpt><trkpt lat="44.770429316009114" lon="9.37507300158432"><ele>353.0</ele><time>2026-04-05T16:11:13.999Z</time></trkpt><trkpt lat="44.770570896071774" lon="9.375096583161762"><ele>353.0</ele><time>2026-04-05T16:11:14.999Z</time></trkpt><trkpt lat="44.77068922168563" lon="9.375129835553606"><ele>353.0</ele><time>2026-04-05T16:11:15.999Z</time></trkpt><trkpt lat="44.770815817218185" lon="9.375135886498697"><ele>353.0</ele><time>2026-04-05T16:11:16.999Z</time></trkpt><trkpt lat="44.770912382447385" lon="9.375145316825966"><ele>353.0</ele><time>2026-04-05T16:11:17.999Z</time></trkpt><trkpt lat="44.77100032878881" lon="9.375148208638969"><ele>353.0</ele><time>2026-04-05T16:11:18.999Z</time></trkpt><trkpt lat="44.771083323852906" lon="9.375154295486816"><ele>354.4</ele><time>2026-04-05T16:11:19.999Z</time></trkpt><trkpt lat="44.77114946434155" lon="9.37513880604045"><ele>355.79999999999995</ele><time>2026-04-05T16:11:20.999Z</time></trkpt><trkpt lat="44.77121863016297" lon="9.375075260448861"><ele>357.2</ele><time>2026-04-05T16:11:21.999Z</time></trkpt><trkpt lat="44.77128088074862" lon="9.374979367975731"><ele>358.6</ele><time>2026-04-05T16:11:22.999Z</time></trkpt><trkpt lat="44.77131333025836" lon="9.374852932162181"><ele>360.0</ele><time>2026-04-05T16:11:23.999Z</time></trkpt><trkpt lat="44.771324906374204" lon="9.374666638621996"><ele>360.0</ele><time>2026-04-05T16:11:24.999Z</time></trkpt><trkpt lat="44.77136428536567" lon="9.374524630650098"><ele>360.0</ele><time>2026-04-05T16:11:25.999Z</time></trkpt><trkpt lat="44.77136981219474" lon="9.374373922580297"><ele>360.0</ele><time>2026-04-05T16:11:26.999Z</time></trkpt><trkpt lat="44.77139213125717" lon="9.374238814922386"><ele>360.0</ele><time>2026-04-05T16:11:27.999Z</time></trkpt><trkpt lat="44.771434930637824" lon="9.374131428248837"><ele>360.0</ele><time>2026-04-05T16:11:28.999Z</time></trkpt><trkpt lat="44.771508169254375" lon="9.374052573182327"><ele>360.0</ele><time>2026-04-05T16:11:29.999Z</time></trkpt><trkpt lat="44.77160116738841" lon="9.374033310703604"><ele>360.0</ele><time>2026-04-05T16:11:30.999Z</time></trkpt><trkpt lat="44.77172799227193" lon="9.374021980772776"><ele>360.0</ele><time>2026-04-05T16:11:31.999Z</time></trkpt><trkpt lat="44.7718586074534" lon="9.374020754455305"><ele>360.0</ele><time>2026-04-05T16:11:32.999Z</time></trkpt><trkpt lat="44.77196089226151" lon="9.374011745848016"><ele>362.0</ele><time>2026-04-05T16:11:33.999Z</time></trkpt><trkpt lat="44.77203856346695" lon="9.374010238752273"><ele>364.0</ele><time>2026-04-05T16:11:34.999Z</time></trkpt><trkpt lat="44.77213793976501" lon="9.373988517783571"><ele>366.0</ele><time>2026-04-05T16:11:35.999Z</time></trkpt><trkpt lat="44.772254790304906" lon="9.373941396299916"><ele>368.0</ele><time>2026-04-05T16:11:36.999Z</time></trkpt><trkpt lat="44.772377633415296" lon="9.373854798738712"><ele>370.0</ele><time>2026-04-05T16:11:37.999Z</time></trkpt><trkpt lat="44.7724459593065" lon="9.37374430140717"><ele>370.0</ele><time>2026-04-05T16:11:38.999Z</time></trkpt><trkpt lat="44.77251210000075" lon="9.373619297720332"><ele>370.0</ele><time>2026-04-05T16:11:39.999Z</time></trkpt><trkpt lat="44.77256303945137" lon="9.373416906194144"><ele>370.0</ele><time>2026-04-05T16:11:40.999Z</time></trkpt><trkpt lat="44.77263057509692" lon="9.373201926209957"><ele>370.0</ele><time>2026-04-05T16:11:41.999Z</time></trkpt><trkpt lat="44.77269258585018" lon="9.373008136672205"><ele>374.0</ele><time>2026-04-05T16:11:42.999Z</time></trkpt><trkpt lat="44.772739512125575" lon="9.372826652220802"><ele>378.0</ele><time>2026-04-05T16:11:43.999Z</time></trkpt><trkpt lat="44.77278790437915" lon="9.372701119890236"><ele>382.0</ele><time>2026-04-05T16:11:44.999Z</time></trkpt><trkpt lat="44.772830702725045" lon="9.372568160175199"><ele>386.0</ele><time>2026-04-05T16:11:46Z</time></trkpt><trkpt lat="44.772868900563864" lon="9.372445238715565"><ele>390.0</ele><time>2026-04-05T16:11:47Z</time></trkpt><trkpt lat="44.772902949070655" lon="9.372328738416796"><ele>390.0</ele><time>2026-04-05T16:11:48Z</time></trkpt><trkpt lat="44.77293983807264" lon="9.372196565803744"><ele>390.0</ele><time>2026-04-05T16:11:49Z</time></trkpt><trkpt lat="44.77294859799742" lon="9.372062361970432"><ele>390.0</ele><time>2026-04-05T16:11:50Z</time></trkpt><trkpt lat="44.772913559626595" lon="9.371837418375378"><ele>390.0</ele><time>2026-04-05T16:11:51Z</time></trkpt><trkpt lat="44.772911949870284" lon="9.371601478405093"><ele>391.0</ele><time>2026-04-05T16:11:52Z</time></trkpt><trkpt lat="44.772897735786955" lon="9.371416994449815"><ele>392.0</ele><time>2026-04-05T16:11:53Z</time></trkpt><trkpt lat="44.772905334122754" lon="9.371256740335962"><ele>393.0</ele><time>2026-04-05T16:11:54Z</time></trkpt><trkpt lat="44.77291063302689" lon="9.371122253170816"><ele>394.0</ele><time>2026-04-05T16:11:55Z</time></trkpt><trkpt lat="44.77288119178006" lon="9.37098062876916"><ele>395.0</ele><time>2026-04-05T16:11:56Z</time></trkpt><trkpt lat="44.772817007142436" lon="9.370853170308564"><ele>393.75</ele><time>2026-04-05T16:11:57Z</time></trkpt><trkpt lat="44.7727476280393" lon="9.37073129726302"><ele>392.5</ele><time>2026-04-05T16:11:58Z</time></trkpt><trkpt lat="44.772661732960685" lon="9.370585662994493"><ele>391.25</ele><time>2026-04-05T16:11:59Z</time></trkpt><trkpt lat="44.77258120533498" lon="9.3703982638833"><ele>390.0</ele><time>2026-04-05T16:12:00Z</time></trkpt><trkpt lat="44.77256233051444" lon="9.370269893575463"><ele>390.0</ele><time>2026-04-05T16:12:01Z</time></trkpt><trkpt lat="44.772570352290536" lon="9.370120794387944"><ele>390.0</ele><time>2026-04-05T16:12:02Z</time></trkpt><trkpt lat="44.77256561308" lon="9.369955037580056"><ele>390.0</ele><time>2026-04-05T16:12:03Z</time></trkpt><trkpt lat="44.77257603117322" lon="9.369764952637347"><ele>390.0</ele><time>2026-04-05T16:12:04Z</time></trkpt><trkpt lat="44.77258461698125" lon="9.369579732217742"><ele>391.0</ele><time>2026-04-05T16:12:05Z</time></trkpt><trkpt lat="44.77262678667182" lon="9.369392382360187"><ele>392.0</ele><time>2026-04-05T16:12:06Z</time></trkpt><trkpt lat="44.77262171308908" lon="9.3692186150341"><ele>393.0</ele><time>2026-04-05T16:12:07Z</time></trkpt><trkpt lat="44.77263416159295" lon="9.369076455454444"><ele>394.0</ele><time>2026-04-05T16:12:08Z</time></trkpt><trkpt lat="44.7726767733593" lon="9.368951679810277"><ele>399.75</ele><time>2026-04-05T16:12:09Z</time></trkpt><trkpt lat="44.77273447650637" lon="9.368831622995296"><ele>405.5</ele><time>2026-04-05T16:12:10Z</time></trkpt><trkpt lat="44.772815899894574" lon="9.368698106697265"><ele>411.25</ele><time>2026-04-05T16:12:11Z</time></trkpt><trkpt lat="44.772911703013406" lon="9.368539133393199"><ele>417.0</ele><time>2026-04-05T16:12:12Z</time></trkpt><trkpt lat="44.772997527036765" lon="9.368399486205112"><ele>417.0</ele><time>2026-04-05T16:12:13Z</time></trkpt><trkpt lat="44.77305916054041" lon="9.36827138795578"><ele>417.0</ele><time>2026-04-05T16:12:14Z</time></trkpt><trkpt lat="44.77313215978534" lon="9.368183230159833"><ele>417.0</ele><time>2026-04-05T16:12:15Z</time></trkpt><trkpt lat="44.77317880484777" lon="9.368093557960416"><ele>417.0</ele><time>2026-04-05T16:12:16Z</time></trkpt><trkpt lat="44.77323831079547" lon="9.367989530025742"><ele>417.0</ele><time>2026-04-05T16:12:17Z</time></trkpt><trkpt lat="44.77327634415638" lon="9.367908207966657"><ele>417.0</ele><time>2026-04-05T16:12:18Z</time></trkpt><trkpt lat="44.773297414732944" lon="9.367819781997495"><ele>415.8</ele><time>2026-04-05T16:12:19Z</time></trkpt><trkpt lat="44.77326874313767" lon="9.367687640647828"><ele>414.6</ele><time>2026-04-05T16:12:20Z</time></trkpt><trkpt lat="44.77325260647425" lon="9.36757826214915"><ele>413.40000000000003</ele><time>2026-04-05T16:12:21Z</time></trkpt><trkpt lat="44.77320724406005" lon="9.36745131067838"><ele>412.20000000000005</ele><time>2026-04-05T16:12:22Z</time></trkpt><trkpt lat="44.773179483872724" lon="9.367328722857367"><ele>411.0</ele><time>2026-04-05T16:12:23Z</time></trkpt><trkpt lat="44.77311752535304" lon="9.367214573379258"><ele>410.5</ele><time>2026-04-05T16:12:24Z</time></trkpt><trkpt lat="44.773051879574" lon="9.36712623510883"><ele>410.0</ele><time>2026-04-05T16:12:25Z</time></trkpt><trkpt lat="44.77297615959557" lon="9.367066684950435"><ele>409.5</ele><time>2026-04-05T16:12:26Z</time></trkpt><trkpt lat="44.772894976767546" lon="9.367010159613656"><ele>409.0</ele><time>2026-04-05T16:12:27Z</time></trkpt><trkpt lat="44.77281905788128" lon="9.366971160998965"><ele>408.5</ele><time>2026-04-05T16:12:28Z</time></trkpt><trkpt lat="44.77275322590266" lon="9.366932262321972"><ele>408.0</ele><time>2026-04-05T16:12:29Z</time></trkpt><trkpt lat="44.77268827542849" lon="9.366871528831117"><ele>408.0</ele><time>2026-04-05T16:12:30Z</time></trkpt><trkpt lat="44.77264679939254" lon="9.366769604292541"><ele>408.0</ele><time>2026-04-05T16:12:31Z</time></trkpt><trkpt lat="44.77266266954602" lon="9.366629491676452"><ele>408.0</ele><time>2026-04-05T16:12:32Z</time></trkpt><trkpt lat="44.772649973836394" lon="9.366486471921649"><ele>408.0</ele><time>2026-04-05T16:12:33Z</time></trkpt><trkpt lat="44.7726604565303" lon="9.366352584932796"><ele>408.0</ele><time>2026-04-05T16:12:34Z</time></trkpt><trkpt lat="44.77266958093811" lon="9.366217350433953"><ele>408.59999999999997</ele><time>2026-04-05T16:12:35Z</time></trkpt><trkpt lat="44.77267861046137" lon="9.366098445729156"><ele>409.2</ele><time>2026-04-05T16:12:36Z</time></trkpt><trkpt lat="44.77269518312849" lon="9.365978887522987"><ele>409.8</ele><time>2026-04-05T16:12:37Z</time></trkpt><trkpt lat="44.77275608705566" lon="9.365853432156612"><ele>410.4</ele><time>2026-04-05T16:12:38Z</time></trkpt><trkpt lat="44.77282911075325" lon="9.365714646657983"><ele>411.0</ele><time>2026-04-05T16:12:39Z</time></trkpt><trkpt lat="44.772926883179125" lon="9.3655218262762"><ele>414.5</ele><time>2026-04-05T16:12:40Z</time></trkpt><trkpt lat="44.77301351082731" lon="9.365327772425905"><ele>418.0</ele><time>2026-04-05T16:12:41Z</time></trkpt><trkpt lat="44.77309850194916" lon="9.36519953161806"><ele>421.5</ele><time>2026-04-05T16:12:42Z</time></trkpt><trkpt lat="44.77314722080903" lon="9.36505977690474"><ele>425.0</ele><time>2026-04-05T16:12:43Z</time></trkpt><trkpt lat="44.77318441428435" lon="9.364928062734943"><ele>425.0</ele><time>2026-04-05T16:12:44Z</time></trkpt><trkpt lat="44.77319033193524" lon="9.36480864093667"><ele>425.0</ele><time>2026-04-05T16:12:45Z</time></trkpt><trkpt lat="44.77315409671676" lon="9.36465768651851"><ele>425.0</ele><time>2026-04-05T16:12:46Z</time></trkpt><trkpt lat="44.77311446973322" lon="9.364470957498886"><ele>425.0</ele><time>2026-04-05T16:12:47Z</time></trkpt><trkpt lat="44.77304280200596" lon="9.364249673626885"><ele>425.2</ele><time>2026-04-05T16:12:48Z</time></trkpt><trkpt lat="44.77299539325163" lon="9.364088118864519"><ele>425.4</ele><time>2026-04-05T16:12:49Z</time></trkpt><trkpt lat="44.77298284546437" lon="9.363960396528617"><ele>425.6</ele><time>2026-04-05T16:12:50Z</time></trkpt><trkpt lat="44.77300122613097" lon="9.363833219770411"><ele>425.8</ele><time>2026-04-05T16:12:51Z</time></trkpt><trkpt lat="44.77307992784411" lon="9.363733319164867"><ele>426.0</ele><time>2026-04-05T16:12:52Z</time></trkpt><trkpt lat="44.77318808573458" lon="9.36369505147334"><ele>426.0</ele><time>2026-04-05T16:12:53Z</time></trkpt><trkpt lat="44.77333472136641" lon="9.363617666180417"><ele>426.0</ele><time>2026-04-05T16:12:54Z</time></trkpt><trkpt lat="44.77348651230723" lon="9.363507446422275"><ele>426.0</ele><time>2026-04-05T16:12:55Z</time></trkpt><trkpt lat="44.77363399215747" lon="9.363443126943222"><ele>429.25</ele><time>2026-04-05T16:12:56Z</time></trkpt><trkpt lat="44.77374859514281" lon="9.363374565668128"><ele>432.5</ele><time>2026-04-05T16:12:57Z</time></trkpt><trkpt lat="44.77385826230447" lon="9.363395468191198"><ele>435.75</ele><time>2026-04-05T16:12:57.999Z</time></trkpt><trkpt lat="44.77398609981229" lon="9.363451806736697"><ele>439.0</ele><time>2026-04-05T16:12:58.999Z</time></trkpt><trkpt lat="44.7741690648651" lon="9.363546717138156"><ele>439.0</ele><time>2026-04-05T16:12:59.999Z</time></trkpt><trkpt lat="44.77433807688781" lon="9.363621017626494"><ele>439.0</ele><time>2026-04-05T16:13:00.999Z</time></trkpt><trkpt lat="44.774472432499365" lon="9.363694612736206"><ele>439.0</ele><time>2026-04-05T16:13:01.999Z</time></trkpt><trkpt lat="44.77459418019723" lon="9.363750983022719"><ele>439.0</ele><time>2026-04-05T16:13:02.999Z</time></trkpt><trkpt lat="44.774689941862825" lon="9.363824351611228"><ele>441.33333333333337</ele><time>2026-04-05T16:13:03.999Z</time></trkpt><trkpt lat="44.774770287966824" lon="9.363947007614973"><ele>443.66666666666663</ele><time>2026-04-05T16:13:04.999Z</time></trkpt><trkpt lat="44.774835258286245" lon="9.364151232013231"><ele>446.0</ele><time>2026-04-05T16:13:05.999Z</time></trkpt><trkpt lat="44.77491430607726" lon="9.364367066131651"><ele>446.0</ele><time>2026-04-05T16:13:06.999Z</time></trkpt><trkpt lat="44.77498944081054" lon="9.36456971413552"><ele>446.0</ele><time>2026-04-05T16:13:07.999Z</time></trkpt><trkpt lat="44.77506859320739" lon="9.364727359467643"><ele>446.0</ele><time>2026-04-05T16:13:08.999Z</time></trkpt><trkpt lat="44.77516652812969" lon="9.36481777138172"><ele>446.0</ele><time>2026-04-05T16:13:09.999Z</time></trkpt><trkpt lat="44.77526889059037" lon="9.364855929966275"><ele>447.8</ele><time>2026-04-05T16:13:10.999Z</time></trkpt><trkpt lat="44.775402434111726" lon="9.364953476749392"><ele>449.6</ele><time>2026-04-05T16:13:11.999Z</time></trkpt><trkpt lat="44.77548850079949" lon="9.365040230578975"><ele>451.4</ele><time>2026-04-05T16:13:12.999Z</time></trkpt><trkpt lat="44.77554921268118" lon="9.365149360128308"><ele>453.2</ele><time>2026-04-05T16:13:13.999Z</time></trkpt><trkpt lat="44.77555683975098" lon="9.365258605796315"><ele>455.0</ele><time>2026-04-05T16:13:14.999Z</time></trkpt><trkpt lat="44.775583490287765" lon="9.365450402290035"><ele>455.0</ele><time>2026-04-05T16:13:15.999Z</time></trkpt><trkpt lat="44.77564210025806" lon="9.365594187527922"><ele>455.0</ele><time>2026-04-05T16:13:16.999Z</time></trkpt><trkpt lat="44.77572148095298" lon="9.365677282068482"><ele>455.0</ele><time>2026-04-05T16:13:17.999Z</time></trkpt><trkpt lat="44.775828170959485" lon="9.365683390850082"><ele>455.0</ele><time>2026-04-05T16:13:18.999Z</time></trkpt><trkpt lat="44.77590383585461" lon="9.365679130608367"><ele>455.0</ele><time>2026-04-05T16:13:19.999Z</time></trkpt><trkpt lat="44.776027946779834" lon="9.36553750924537"><ele>460.0</ele><time>2026-04-05T16:13:20.999Z</time></trkpt><trkpt lat="44.776125692811014" lon="9.365345654372979"><ele>465.0</ele><time>2026-04-05T16:13:21.999Z</time></trkpt><trkpt lat="44.77622984572284" lon="9.365148107849881"><ele>470.0</ele><time>2026-04-05T16:13:22.999Z</time></trkpt><trkpt lat="44.776343909614944" lon="9.36490534863081"><ele>469.3333333333333</ele><time>2026-04-05T16:13:23.999Z</time></trkpt><trkpt lat="44.7764643973936" lon="9.364665287953194"><ele>468.66666666666663</ele><time>2026-04-05T16:13:24.999Z</time></trkpt><trkpt lat="44.776562829985735" lon="9.364434321240587"><ele>468.0</ele><time>2026-04-05T16:13:25.999Z</time></trkpt><trkpt lat="44.77666553397132" lon="9.364248343367304"><ele>468.0</ele><time>2026-04-05T16:13:26.999Z</time></trkpt><trkpt lat="44.77675158505049" lon="9.364044974428248"><ele>468.0</ele><time>2026-04-05T16:13:27.999Z</time></trkpt><trkpt lat="44.77682843130339" lon="9.36384775495356"><ele>468.0</ele><time>2026-04-05T16:13:28.999Z</time></trkpt><trkpt lat="44.77686170676669" lon="9.363643033166776"><ele>474.66666666666663</ele><time>2026-04-05T16:13:29.999Z</time></trkpt><trkpt lat="44.77691179224498" lon="9.363402869179701"><ele>481.3333333333333</ele><time>2026-04-05T16:13:30.999Z</time></trkpt><trkpt lat="44.776938318244056" lon="9.363117348421095"><ele>488.0</ele><time>2026-04-05T16:13:31.999Z</time></trkpt><trkpt lat="44.776959338153425" lon="9.362893601977856"><ele>488.0</ele><time>2026-04-05T16:13:32.999Z</time></trkpt><trkpt lat="44.776990833770284" lon="9.362723584599033"><ele>487.99999999999994</ele><time>2026-04-05T16:13:33.999Z</time></trkpt><trkpt lat="44.77701562412138" lon="9.36255844512121"><ele>487.99999999999994</ele><time>2026-04-05T16:13:34.999Z</time></trkpt><trkpt lat="44.77703459574087" lon="9.362415452163384"><ele>488.0</ele><time>2026-04-05T16:13:35.999Z</time></trkpt><trkpt lat="44.77703346398214" lon="9.362301013217602"><ele>488.0</ele><time>2026-04-05T16:13:36.999Z</time></trkpt><trkpt lat="44.777014535284685" lon="9.362194009547718"><ele>488.59999999999997</ele><time>2026-04-05T16:13:37.999Z</time></trkpt><trkpt lat="44.77691295530352" lon="9.362089572017924"><ele>489.19999999999993</ele><time>2026-04-05T16:13:38.999Z</time></trkpt><trkpt lat="44.776835941126926" lon="9.36203637843001"><ele>489.8</ele><time>2026-04-05T16:13:39.999Z</time></trkpt><trkpt lat="44.77675409610028" lon="9.361943056834086"><ele>490.4</ele><time>2026-04-05T16:13:40.999Z</time></trkpt><trkpt lat="44.776678805243044" lon="9.361859752672812"><ele>491.0</ele><time>2026-04-05T16:13:41.999Z</time></trkpt><trkpt lat="44.77660579646042" lon="9.36177305977227"><ele>489.6</ele><time>2026-04-05T16:13:42.999Z</time></trkpt><trkpt lat="44.77656192284631" lon="9.361659029994396"><ele>488.20000000000005</ele><time>2026-04-05T16:13:43.999Z</time></trkpt><trkpt lat="44.77655775407393" lon="9.361497743124358"><ele>486.79999999999995</ele><time>2026-04-05T16:13:44.999Z</time></trkpt><trkpt lat="44.7765876216885" lon="9.361353340885726"><ele>485.4</ele><time>2026-04-05T16:13:45.999Z</time></trkpt><trkpt lat="44.7766851047039" lon="9.361236166418415"><ele>484.0</ele><time>2026-04-05T16:13:46.999Z</time></trkpt><trkpt lat="44.77678886488708" lon="9.361081458908146"><ele>487.0</ele><time>2026-04-05T16:13:47.999Z</time></trkpt><trkpt lat="44.776893544147754" lon="9.360926960994858"><ele>490.0</ele><time>2026-04-05T16:13:48.999Z</time></trkpt><trkpt lat="44.77697057573819" lon="9.36079821231291"><ele>493.0</ele><time>2026-04-05T16:13:49.999Z</time></trkpt><trkpt lat="44.77701747048051" lon="9.36066562015165"><ele>496.0</ele><time>2026-04-05T16:13:50.999Z</time></trkpt><trkpt lat="44.7770301684874" lon="9.36052414407987"><ele>496.8</ele><time>2026-04-05T16:13:52Z</time></trkpt><trkpt lat="44.7770261837883" lon="9.360398771190765"><ele>497.6</ele><time>2026-04-05T16:13:53Z</time></trkpt><trkpt lat="44.777000001334855" lon="9.36028832350998"><ele>498.4</ele><time>2026-04-05T16:13:54Z</time></trkpt><trkpt lat="44.77694455938161" lon="9.36019492234163"><ele>499.2</ele><time>2026-04-05T16:13:55Z</time></trkpt><trkpt lat="44.7768384701702" lon="9.360091182072447"><ele>500.0</ele><time>2026-04-05T16:13:56Z</time></trkpt><trkpt lat="44.776769539164874" lon="9.360063353850194"><ele>497.0</ele><time>2026-04-05T16:13:57Z</time></trkpt><trkpt lat="44.776670262591594" lon="9.360018804860289"><ele>494.0</ele><time>2026-04-05T16:13:58Z</time></trkpt><trkpt lat="44.7765415750001" lon="9.359961946247848"><ele>491.0</ele><time>2026-04-05T16:13:59Z</time></trkpt><trkpt lat="44.776438765786345" lon="9.359876153485644"><ele>488.0</ele><time>2026-04-05T16:14:00Z</time></trkpt><trkpt lat="44.77633129260506" lon="9.359736379639479"><ele>487.3333333333333</ele><time>2026-04-05T16:14:01Z</time></trkpt><trkpt lat="44.77622191753872" lon="9.359537048760592"><ele>486.66666666666663</ele><time>2026-04-05T16:14:02Z</time></trkpt><trkpt lat="44.77609633604955" lon="9.359303530901355"><ele>486.0</ele><time>2026-04-05T16:14:03Z</time></trkpt><trkpt lat="44.775991022393775" lon="9.359086455892056"><ele>486.0</ele><time>2026-04-05T16:14:04Z</time></trkpt><trkpt lat="44.77588637430713" lon="9.358903328884526"><ele>486.0</ele><time>2026-04-05T16:14:05Z</time></trkpt><trkpt lat="44.775785767606706" lon="9.358733673532592"><ele>486.0</ele><time>2026-04-05T16:14:06Z</time></trkpt><trkpt lat="44.77569106320242" lon="9.358597334188975"><ele>487.4</ele><time>2026-04-05T16:14:07Z</time></trkpt><trkpt lat="44.77560532564201" lon="9.358514171016303"><ele>488.8</ele><time>2026-04-05T16:14:08Z</time></trkpt><trkpt lat="44.77551847668948" lon="9.358455437774179"><ele>490.19999999999993</ele><time>2026-04-05T16:14:09Z</time></trkpt><trkpt lat="44.77543245713108" lon="9.358430236466372"><ele>491.59999999999997</ele><time>2026-04-05T16:14:10Z</time></trkpt><trkpt lat="44.77535262730932" lon="9.358403268482151"><ele>493.0</ele><time>2026-04-05T16:14:11Z</time></trkpt><trkpt lat="44.77529848255523" lon="9.358299734940548"><ele>493.0</ele><time>2026-04-05T16:14:12Z</time></trkpt><trkpt lat="44.77528189377262" lon="9.358143400514207"><ele>493.0</ele><time>2026-04-05T16:14:13Z</time></trkpt><trkpt lat="44.775287131863294" lon="9.357947409242644"><ele>493.0</ele><time>2026-04-05T16:14:14Z</time></trkpt><trkpt lat="44.77531157053482" lon="9.357704497632266"><ele>493.0</ele><time>2026-04-05T16:14:15Z</time></trkpt><trkpt lat="44.77531279555364" lon="9.357461738849677"><ele>495.33333333333337</ele><time>2026-04-05T16:14:16Z</time></trkpt><trkpt lat="44.77529115934918" lon="9.357224176671767"><ele>497.66666666666663</ele><time>2026-04-05T16:14:17Z</time></trkpt><trkpt lat="44.775258375133305" lon="9.357012058471481"><ele>500.0</ele><time>2026-04-05T16:14:18Z</time></trkpt><trkpt lat="44.7751881600948" lon="9.35681029568774"><ele>499.66666666666663</ele><time>2026-04-05T16:14:19Z</time></trkpt><trkpt lat="44.77513092022596" lon="9.356595981665036"><ele>499.33333333333337</ele><time>2026-04-05T16:14:20Z</time></trkpt><trkpt lat="44.77507774721194" lon="9.356370019995586"><ele>499.0</ele><time>2026-04-05T16:14:21Z</time></trkpt><trkpt lat="44.77502544045402" lon="9.356148096686061"><ele>499.0</ele><time>2026-04-05T16:14:22Z</time></trkpt><trkpt lat="44.77497715438289" lon="9.355938479133513"><ele>499.0</ele><time>2026-04-05T16:14:23Z</time></trkpt><trkpt lat="44.77492344349955" lon="9.355745383642876"><ele>499.0</ele><time>2026-04-05T16:14:24Z</time></trkpt><trkpt lat="44.77486226207867" lon="9.355567443691019"><ele>499.0</ele><time>2026-04-05T16:14:25Z</time></trkpt><trkpt lat="44.7748172812529" lon="9.355399817512366"><ele>499.6</ele><time>2026-04-05T16:14:26Z</time></trkpt><trkpt lat="44.774772907775954" lon="9.355238656848936"><ele>500.2</ele><time>2026-04-05T16:14:27Z</time></trkpt><trkpt lat="44.774728704258024" lon="9.355112902344546"><ele>500.80000000000007</ele><time>2026-04-05T16:14:28Z</time></trkpt><trkpt lat="44.77474010170892" lon="9.354991514658975"><ele>501.40000000000003</ele><time>2026-04-05T16:14:29Z</time></trkpt><trkpt lat="44.774769731227664" lon="9.354855148122088"><ele>502.0</ele><time>2026-04-05T16:14:30Z</time></trkpt><trkpt lat="44.77480993330022" lon="9.35473830818907"><ele>501.40000000000003</ele><time>2026-04-05T16:14:31Z</time></trkpt><trkpt lat="44.77488167237196" lon="9.354627322375652"><ele>500.80000000000007</ele><time>2026-04-05T16:14:32Z</time></trkpt><trkpt lat="44.77496670964762" lon="9.35459576988409"><ele>500.2</ele><time>2026-04-05T16:14:33Z</time></trkpt><trkpt lat="44.775041928351655" lon="9.354585080766732"><ele>499.6</ele><time>2026-04-05T16:14:34Z</time></trkpt><trkpt lat="44.77513055230238" lon="9.35461527198618"><ele>499.0</ele><time>2026-04-05T16:14:35Z</time></trkpt><trkpt lat="44.775194297906836" lon="9.354774830156654"><ele>502.4</ele><time>2026-04-05T16:14:36Z</time></trkpt><trkpt lat="44.77524086225425" lon="9.354935696192957"><ele>505.79999999999995</ele><time>2026-04-05T16:14:37Z</time></trkpt><trkpt lat="44.775257846038684" lon="9.355073791106552"><ele>509.20000000000005</ele><time>2026-04-05T16:14:38Z</time></trkpt><trkpt lat="44.7752478141513" lon="9.355172382175878"><ele>512.6</ele><time>2026-04-05T16:14:39Z</time></trkpt><trkpt lat="44.7752561026874" lon="9.35526273198462"><ele>516.0</ele><time>2026-04-05T16:14:40Z</time></trkpt><trkpt lat="44.77531411742" lon="9.3553945442845"><ele>516.0</ele><time>2026-04-05T16:14:41Z</time></trkpt><trkpt lat="44.77541770675341" lon="9.355468652350346"><ele>516.0</ele><time>2026-04-05T16:14:42Z</time></trkpt><trkpt lat="44.77552415668795" lon="9.35550665041765"><ele>516.0</ele><time>2026-04-05T16:14:43Z</time></trkpt><trkpt lat="44.77567928489305" lon="9.35556643503807"><ele>516.0</ele><time>2026-04-05T16:14:44Z</time></trkpt><trkpt lat="44.775868252046926" lon="9.355642768605579"><ele>515.0</ele><time>2026-04-05T16:14:45Z</time></trkpt><trkpt lat="44.77600536603254" lon="9.355698155976539"><ele>514.0</ele><time>2026-04-05T16:14:46Z</time></trkpt><trkpt lat="44.776126662219085" lon="9.355747153753256"><ele>513.0</ele><time>2026-04-05T16:14:47Z</time></trkpt><trkpt lat="44.77625168449098" lon="9.355790924678523"><ele>512.0</ele><time>2026-04-05T16:14:48Z</time></trkpt><trkpt lat="44.776401509325034" lon="9.355770817319016"><ele>515.0</ele><time>2026-04-05T16:14:49Z</time></trkpt><trkpt lat="44.776542868567645" lon="9.3557535642518"><ele>518.0</ele><time>2026-04-05T16:14:50Z</time></trkpt><trkpt lat="44.7767017729481" lon="9.355739466012666"><ele>521.0</ele><time>2026-04-05T16:14:51Z</time></trkpt><trkpt lat="44.77681977477773" lon="9.35572464671921"><ele>524.0</ele><time>2026-04-05T16:14:52Z</time></trkpt><trkpt lat="44.77692332683275" lon="9.355738001159366"><ele>527.5</ele><time>2026-04-05T16:14:53Z</time></trkpt><trkpt lat="44.77701278386158" lon="9.355799209569524"><ele>531.0</ele><time>2026-04-05T16:14:54Z</time></trkpt><trkpt lat="44.77709633534796" lon="9.355921458940331"><ele>534.5</ele><time>2026-04-05T16:14:55Z</time></trkpt><trkpt lat="44.77720384924" lon="9.356103546598368"><ele>538.0</ele><time>2026-04-05T16:14:56Z</time></trkpt><trkpt lat="44.77731637876768" lon="9.356291516252826"><ele>539.25</ele><time>2026-04-05T16:14:57Z</time></trkpt><trkpt lat="44.77740810487434" lon="9.356446341745976"><ele>540.5</ele><time>2026-04-05T16:14:58Z</time></trkpt><trkpt lat="44.77748707383988" lon="9.356573899927197"><ele>541.75</ele><time>2026-04-05T16:14:59Z</time></trkpt><trkpt lat="44.777575487394344" lon="9.356676637277154"><ele>543.0</ele><time>2026-04-05T16:15:00Z</time></trkpt><trkpt lat="44.777721249012544" lon="9.3567527075662"><ele>543.0</ele><time>2026-04-05T16:15:01.999Z</time></trkpt><trkpt lat="44.77787736016166" lon="9.356731976647275"><ele>543.0</ele><time>2026-04-05T16:15:02.999Z</time></trkpt><trkpt lat="44.77805394899945" lon="9.356731255804439"><ele>543.0</ele><time>2026-04-05T16:15:03.999Z</time></trkpt><trkpt lat="44.77821886327396" lon="9.356758791727644"><ele>543.0</ele><time>2026-04-05T16:15:04.999Z</time></trkpt><trkpt lat="44.77839843661773" lon="9.356807945807779"><ele>543.0</ele><time>2026-04-05T16:15:05.999Z</time></trkpt><trkpt lat="44.77861279097476" lon="9.35689532160667"><ele>543.0</ele><time>2026-04-05T16:15:06.999Z</time></trkpt><trkpt lat="44.77878373826948" lon="9.356952882761954"><ele>545.25</ele><time>2026-04-05T16:15:07.999Z</time></trkpt><trkpt lat="44.77894408849724" lon="9.356986217873239"><ele>547.5</ele><time>2026-04-05T16:15:08.999Z</time></trkpt><trkpt lat="44.77908467930049" lon="9.357012109750896"><ele>549.75</ele><time>2026-04-05T16:15:09.999Z</time></trkpt><trkpt lat="44.77920936906615" lon="9.357077046388422"><ele>552.0</ele><time>2026-04-05T16:15:10.999Z</time></trkpt><trkpt lat="44.77936965347776" lon="9.357142309600517"><ele>554.0</ele><time>2026-04-05T16:15:11.999Z</time></trkpt><trkpt lat="44.77949512564746" lon="9.357273505258801"><ele>556.0</ele><time>2026-04-05T16:15:12.999Z</time></trkpt><trkpt lat="44.779614575411806" lon="9.357427637018311"><ele>558.0</ele><time>2026-04-05T16:15:13.999Z</time></trkpt><trkpt lat="44.779732435713626" lon="9.357590954963062"><ele>558.0</ele><time>2026-04-05T16:15:14.999Z</time></trkpt><trkpt lat="44.779833038838156" lon="9.357738583642016"><ele>558.0</ele><time>2026-04-05T16:15:15.999Z</time></trkpt><trkpt lat="44.77991995426457" lon="9.357884142719273"><ele>558.0</ele><time>2026-04-05T16:15:16.999Z</time></trkpt><trkpt lat="44.779968538052046" lon="9.358015084592687"><ele>558.0</ele><time>2026-04-05T16:15:17.999Z</time></trkpt><trkpt lat="44.78003834010713" lon="9.35819982716037"><ele>555.3333333333334</ele><time>2026-04-05T16:15:18.999Z</time></trkpt><trkpt lat="44.78011316727387" lon="9.358388520610028"><ele>552.6666666666667</ele><time>2026-04-05T16:15:19.999Z</time></trkpt><trkpt lat="44.78019933022004" lon="9.358541631519358"><ele>550.0</ele><time>2026-04-05T16:15:20.999Z</time></trkpt><trkpt lat="44.78033452257189" lon="9.358668473688184"><ele>556.3333333333334</ele><time>2026-04-05T16:15:21.999Z</time></trkpt><trkpt lat="44.78047709839304" lon="9.358762002825273"><ele>562.6666666666666</ele><time>2026-04-05T16:15:22.999Z</time></trkpt><trkpt lat="44.78065467058403" lon="9.35882572914655"><ele>569.0</ele><time>2026-04-05T16:15:23.999Z</time></trkpt><trkpt lat="44.78077925740859" lon="9.358839820678853"><ele>569.75</ele><time>2026-04-05T16:15:24.999Z</time></trkpt><trkpt lat="44.78088693046996" lon="9.35886824325194"><ele>570.5</ele><time>2026-04-05T16:15:25.999Z</time></trkpt><trkpt lat="44.78097239233738" lon="9.358951567032557"><ele>571.25</ele><time>2026-04-05T16:15:26.999Z</time></trkpt><trkpt lat="44.781051109979266" lon="9.359054506698365"><ele>572.0</ele><time>2026-04-05T16:15:27.999Z</time></trkpt><trkpt lat="44.7811174415225" lon="9.359211597872243"><ele>572.0</ele><time>2026-04-05T16:15:28.999Z</time></trkpt><trkpt lat="44.78119014347215" lon="9.359350255864562"><ele>572.0</ele><time>2026-04-05T16:15:29.999Z</time></trkpt><trkpt lat="44.78125952318727" lon="9.359468862849411"><ele>572.0</ele><time>2026-04-05T16:15:30.999Z</time></trkpt><trkpt lat="44.781349136017894" lon="9.359555321775598"><ele>572.0</ele><time>2026-04-05T16:15:31.999Z</time></trkpt><trkpt lat="44.78149128182764" lon="9.359639746847797"><ele>573.3333333333333</ele><time>2026-04-05T16:15:32.999Z</time></trkpt><trkpt lat="44.78164105368731" lon="9.359707851901925"><ele>574.6666666666666</ele><time>2026-04-05T16:15:33.999Z</time></trkpt><trkpt lat="44.781812983469884" lon="9.359757565021178"><ele>576.0</ele><time>2026-04-05T16:15:34.999Z</time></trkpt><trkpt lat="44.78198497825369" lon="9.359855524368347"><ele>576.0</ele><time>2026-04-05T16:15:35.999Z</time></trkpt><trkpt lat="44.78211648450253" lon="9.35992241429839"><ele>576.0</ele><time>2026-04-05T16:15:36.999Z</time></trkpt><trkpt lat="44.78222887129852" lon="9.359962350611212"><ele>576.0</ele><time>2026-04-05T16:15:37.999Z</time></trkpt><trkpt lat="44.782355496440275" lon="9.360024541448155"><ele>576.0</ele><time>2026-04-05T16:15:38.999Z</time></trkpt><trkpt lat="44.782459991411194" lon="9.360079251392966"><ele>576.0</ele><time>2026-04-05T16:15:39.999Z</time></trkpt><trkpt lat="44.7825642311643" lon="9.360128370773817"><ele>576.0</ele><time>2026-04-05T16:15:40.999Z</time></trkpt><trkpt lat="44.782669002988946" lon="9.360140097728499"><ele>576.0</ele><time>2026-04-05T16:15:41.999Z</time></trkpt><trkpt lat="44.78275827200364" lon="9.360117953531143"><ele>576.0</ele><time>2026-04-05T16:15:42.999Z</time></trkpt><trkpt lat="44.78285341203595" lon="9.360043833405493"><ele>576.0</ele><time>2026-04-05T16:15:43.999Z</time></trkpt><trkpt lat="44.78294206016031" lon="9.359921398862298"><ele>577.2</ele><time>2026-04-05T16:15:44.999Z</time></trkpt><trkpt lat="44.78299300274196" lon="9.35981060969"><ele>578.4000000000001</ele><time>2026-04-05T16:15:45.999Z</time></trkpt><trkpt lat="44.783047546601445" lon="9.359675674859302"><ele>579.6</ele><time>2026-04-05T16:15:46.999Z</time></trkpt><trkpt lat="44.78303421529401" lon="9.359542156352827"><ele>580.8000000000001</ele><time>2026-04-05T16:15:47.999Z</time></trkpt><trkpt lat="44.78302044102715" lon="9.35941436181303"><ele>582.0</ele><time>2026-04-05T16:15:48.999Z</time></trkpt><trkpt lat="44.782984503447345" lon="9.359297445324481"><ele>582.4</ele><time>2026-04-05T16:15:49.999Z</time></trkpt><trkpt lat="44.782894943594336" lon="9.359198759553097"><ele>582.8000000000001</ele><time>2026-04-05T16:15:50.999Z</time></trkpt><trkpt lat="44.782808262597754" lon="9.359071896110349"><ele>583.2</ele><time>2026-04-05T16:15:51.999Z</time></trkpt><trkpt lat="44.7827224648065" lon="9.358965020838403"><ele>583.6</ele><time>2026-04-05T16:15:52.999Z</time></trkpt><trkpt lat="44.782648999434215" lon="9.358880305477292"><ele>584.0</ele><time>2026-04-05T16:15:53.999Z</time></trkpt><trkpt lat="44.78258931835026" lon="9.35880050040112"><ele>585.0</ele><time>2026-04-05T16:15:54.999Z</time></trkpt><trkpt lat="44.78254156872802" lon="9.35869282373367"><ele>586.0</ele><time>2026-04-05T16:15:55.999Z</time></trkpt><trkpt lat="44.782543386396924" lon="9.358554615701223"><ele>587.0</ele><time>2026-04-05T16:15:56.999Z</time></trkpt><trkpt lat="44.78260443326689" lon="9.358423654156207"><ele>588.0</ele><time>2026-04-05T16:15:58Z</time></trkpt><trkpt lat="44.782720290600935" lon="9.358319796051015"><ele>589.0</ele><time>2026-04-05T16:15:59Z</time></trkpt><trkpt lat="44.78284582092776" lon="9.358144614022365"><ele>593.25</ele><time>2026-04-05T16:16:00Z</time></trkpt><trkpt lat="44.78299938145719" lon="9.357993709292446"><ele>597.5</ele><time>2026-04-05T16:16:01Z</time></trkpt><trkpt lat="44.78311334989725" lon="9.357912924449428"><ele>601.75</ele><time>2026-04-05T16:16:02Z</time></trkpt><trkpt lat="44.78317596621966" lon="9.357817002498296"><ele>606.0</ele><time>2026-04-05T16:16:03Z</time></trkpt><trkpt lat="44.78318935162875" lon="9.357716643491242"><ele>606.0</ele><time>2026-04-05T16:16:04Z</time></trkpt><trkpt lat="44.78319638302609" lon="9.357610739795982"><ele>606.0</ele><time>2026-04-05T16:16:05Z</time></trkpt><trkpt lat="44.783154138978986" lon="9.357479957563061"><ele>606.0</ele><time>2026-04-05T16:16:06Z</time></trkpt><trkpt lat="44.78306651637154" lon="9.357315489873228"><ele>606.0</ele><time>2026-04-05T16:16:07Z</time></trkpt><trkpt lat="44.78298670628676" lon="9.35715971475781"><ele>607.75</ele><time>2026-04-05T16:16:08Z</time></trkpt><trkpt lat="44.78290200072692" lon="9.356972195814384"><ele>609.5</ele><time>2026-04-05T16:16:09Z</time></trkpt><trkpt lat="44.782823329490526" lon="9.356789335156677"><ele>611.25</ele><time>2026-04-05T16:16:10Z</time></trkpt><trkpt lat="44.78277582481262" lon="9.35669343846007"><ele>613.0</ele><time>2026-04-05T16:16:11Z</time></trkpt><trkpt lat="44.78274098594389" lon="9.35659336411017"><ele>613.0</ele><time>2026-04-05T16:16:12Z</time></trkpt><trkpt lat="44.782733209232774" lon="9.35647888252988"><ele>613.0</ele><time>2026-04-05T16:16:13Z</time></trkpt><trkpt lat="44.78279206288107" lon="9.356351442522726"><ele>613.0</ele><time>2026-04-05T16:16:14Z</time></trkpt><trkpt lat="44.782913179981264" lon="9.356294704802737"><ele>613.0</ele><time>2026-04-05T16:16:15Z</time></trkpt><trkpt lat="44.783023303234415" lon="9.356286606992162"><ele>613.0</ele><time>2026-04-05T16:16:16Z</time></trkpt><trkpt lat="44.78310583605019" lon="9.356362996691649"><ele>613.0</ele><time>2026-04-05T16:16:17Z</time></trkpt><trkpt lat="44.7832230405337" lon="9.356441974362971"><ele>613.0</ele><time>2026-04-05T16:16:18Z</time></trkpt><trkpt lat="44.78335102481932" lon="9.356523042527925"><ele>613.0</ele><time>2026-04-05T16:16:19Z</time></trkpt><trkpt lat="44.783514620248084" lon="9.35655820687248"><ele>613.0</ele><time>2026-04-05T16:16:20Z</time></trkpt><trkpt lat="44.78369047550631" lon="9.356553808808659"><ele>615.0</ele><time>2026-04-05T16:16:21Z</time></trkpt><trkpt lat="44.78387383028813" lon="9.356518432267233"><ele>617.0</ele><time>2026-04-05T16:16:22Z</time></trkpt><trkpt lat="44.78403551362561" lon="9.356477664492592"><ele>619.0</ele><time>2026-04-05T16:16:23Z</time></trkpt><trkpt lat="44.78416921542637" lon="9.356457919116789"><ele>619.0</ele><time>2026-04-05T16:16:24Z</time></trkpt><trkpt lat="44.78428141189098" lon="9.356457104454533"><ele>619.0</ele><time>2026-04-05T16:16:25Z</time></trkpt><trkpt lat="44.784381184152096" lon="9.35651295257199"><ele>619.0</ele><time>2026-04-05T16:16:26Z</time></trkpt><trkpt lat="44.7844854090842" lon="9.35659975008928"><ele>619.0</ele><time>2026-04-05T16:16:27Z</time></trkpt><trkpt lat="44.784572213513854" lon="9.356756169362448"><ele>619.8</ele><time>2026-04-05T16:16:28Z</time></trkpt><trkpt lat="44.78466389539377" lon="9.356908229563897"><ele>620.5999999999999</ele><time>2026-04-05T16:16:29Z</time></trkpt><trkpt lat="44.78475062382327" lon="9.35702355098721"><ele>621.4</ele><time>2026-04-05T16:16:30Z</time></trkpt><trkpt lat="44.78482750636896" lon="9.35710953898142"><ele>622.1999999999999</ele><time>2026-04-05T16:16:31Z</time></trkpt><trkpt lat="44.78490577765792" lon="9.357134135255949"><ele>623.0</ele><time>2026-04-05T16:16:32Z</time></trkpt><trkpt lat="44.7849980176829" lon="9.357119721310653"><ele>623.0</ele><time>2026-04-05T16:16:33Z</time></trkpt><trkpt lat="44.78511284316103" lon="9.357044881416732"><ele>623.0</ele><time>2026-04-05T16:16:34Z</time></trkpt><trkpt lat="44.78526233078694" lon="9.356933287238204"><ele>623.0</ele><time>2026-04-05T16:16:35Z</time></trkpt><trkpt lat="44.78541975106904" lon="9.356797499734848"><ele>625.3333333333333</ele><time>2026-04-05T16:16:36Z</time></trkpt><trkpt lat="44.785548217506985" lon="9.356658590481198"><ele>627.6666666666666</ele><time>2026-04-05T16:16:37Z</time></trkpt><trkpt lat="44.78566819819781" lon="9.356489899155067"><ele>630.0</ele><time>2026-04-05T16:16:38Z</time></trkpt><trkpt lat="44.78575069870009" lon="9.356322559057963"><ele>631.0</ele><time>2026-04-05T16:16:39Z</time></trkpt><trkpt lat="44.78581550596684" lon="9.356178934176723"><ele>632.0</ele><time>2026-04-05T16:16:40Z</time></trkpt><trkpt lat="44.78590532928775" lon="9.356051896338128"><ele>633.0</ele><time>2026-04-05T16:16:41Z</time></trkpt><trkpt lat="44.786058222225066" lon="9.355934243842349"><ele>634.0</ele><time>2026-04-05T16:16:42Z</time></trkpt><trkpt lat="44.78626429936463" lon="9.355829341265396"><ele>637.0</ele><time>2026-04-05T16:16:43Z</time></trkpt><trkpt lat="44.7865007698595" lon="9.355718915253545"><ele>640.0</ele><time>2026-04-05T16:16:44Z</time></trkpt><trkpt lat="44.786705229086074" lon="9.35563037732743"><ele>643.25</ele><time>2026-04-05T16:16:45Z</time></trkpt><trkpt lat="44.786852371104324" lon="9.35558350405519"><ele>646.5</ele><time>2026-04-05T16:16:46Z</time></trkpt><trkpt lat="44.78697397217603" lon="9.35551388834663"><ele>649.75</ele><time>2026-04-05T16:16:47Z</time></trkpt><trkpt lat="44.78709153339844" lon="9.355430260790936"><ele>653.0</ele><time>2026-04-05T16:16:48Z</time></trkpt><trkpt lat="44.787191230247664" lon="9.35538307785865"><ele>653.0</ele><time>2026-04-05T16:16:49Z</time></trkpt><trkpt lat="44.78728303769337" lon="9.35534171858875"><ele>653.0</ele><time>2026-04-05T16:16:50Z</time></trkpt><trkpt lat="44.78735290365646" lon="9.355385291565076"><ele>653.0</ele><time>2026-04-05T16:16:51Z</time></trkpt><trkpt lat="44.78739431211846" lon="9.355452248518615"><ele>653.0</ele><time>2026-04-05T16:16:52Z</time></trkpt><trkpt lat="44.787462999607754" lon="9.355604250205577"><ele>653.0</ele><time>2026-04-05T16:16:53Z</time></trkpt><trkpt lat="44.78750999754505" lon="9.355870061603863"><ele>653.0</ele><time>2026-04-05T16:16:54Z</time></trkpt><trkpt lat="44.78754001655726" lon="9.356158297023091"><ele>653.0</ele><time>2026-04-05T16:16:55Z</time></trkpt><trkpt lat="44.787566807458596" lon="9.356448017580009"><ele>653.0</ele><time>2026-04-05T16:16:56Z</time></trkpt><trkpt lat="44.787587760307915" lon="9.35679732917625"><ele>653.0</ele><time>2026-04-05T16:16:57Z</time></trkpt><trkpt lat="44.78760247943781" lon="9.35707833462229"><ele>653.0</ele><time>2026-04-05T16:16:58Z</time></trkpt><trkpt lat="44.787611066034415" lon="9.357290090037914"><ele>653.0</ele><time>2026-04-05T16:16:59Z</time></trkpt><trkpt lat="44.787616855040795" lon="9.357500044673207"><ele>653.75</ele><time>2026-04-05T16:17:00Z</time></trkpt><trkpt lat="44.787630264374336" lon="9.357684015659572"><ele>654.5</ele><time>2026-04-05T16:17:01Z</time></trkpt><trkpt lat="44.78766255694839" lon="9.357883470931467"><ele>655.25</ele><time>2026-04-05T16:17:02Z</time></trkpt><trkpt lat="44.78772530184625" lon="9.358072777433618"><ele>656.0</ele><time>2026-04-05T16:17:03Z</time></trkpt><trkpt lat="44.7878387185394" lon="9.358225952003835"><ele>661.0</ele><time>2026-04-05T16:17:04Z</time></trkpt><trkpt lat="44.78801951013012" lon="9.358407508257962"><ele>666.0</ele><time>2026-04-05T16:17:05Z</time></trkpt><trkpt lat="44.788131128171294" lon="9.358555336922427"><ele>671.0</ele><time>2026-04-05T16:17:05.999Z</time></trkpt><trkpt lat="44.788213968338" lon="9.358665850447869"><ele>671.0</ele><time>2026-04-05T16:17:06.999Z</time></trkpt><trkpt lat="44.7882893667105" lon="9.358740685242024"><ele>671.0</ele><time>2026-04-05T16:17:07.999Z</time></trkpt><trkpt lat="44.788387557846484" lon="9.358803331546765"><ele>671.0</ele><time>2026-04-05T16:17:08.999Z</time></trkpt><trkpt lat="44.78847860198131" lon="9.358784154468"><ele>671.0</ele><time>2026-04-05T16:17:09.999Z</time></trkpt><trkpt lat="44.78859295656064" lon="9.358751339402977"><ele>671.0</ele><time>2026-04-05T16:17:10.999Z</time></trkpt><trkpt lat="44.788753160018594" lon="9.358645873157707"><ele>673.3333333333333</ele><time>2026-04-05T16:17:11.999Z</time></trkpt><trkpt lat="44.78896133575846" lon="9.358530224959626"><ele>675.6666666666666</ele><time>2026-04-05T16:17:12.999Z</time></trkpt><trkpt lat="44.78912273704163" lon="9.358464803495009"><ele>678.0</ele><time>2026-04-05T16:17:13.999Z</time></trkpt><trkpt lat="44.78925497198829" lon="9.35841269596307"><ele>680.75</ele><time>2026-04-05T16:17:14.999Z</time></trkpt><trkpt lat="44.78936190471291" lon="9.358382435839422"><ele>683.5</ele><time>2026-04-05T16:17:15.999Z</time></trkpt><trkpt lat="44.789476377247446" lon="9.358366663608802"><ele>686.25</ele><time>2026-04-05T16:17:16.999Z</time></trkpt><trkpt lat="44.78961209075265" lon="9.358432444364073"><ele>689.0</ele><time>2026-04-05T16:17:17.999Z</time></trkpt><trkpt lat="44.78975864742021" lon="9.358505588761306"><ele>689.0</ele><time>2026-04-05T16:17:18.999Z</time></trkpt><trkpt lat="44.78988900205335" lon="9.358610594992582"><ele>689.0</ele><time>2026-04-05T16:17:19.999Z</time></trkpt><trkpt lat="44.79001715734455" lon="9.358748001868452"><ele>689.0</ele><time>2026-04-05T16:17:20.999Z</time></trkpt><trkpt lat="44.79014705806348" lon="9.358913638964479"><ele>692.6666666666666</ele><time>2026-04-05T16:17:21.999Z</time></trkpt><trkpt lat="44.79030574745202" lon="9.35912809132766"><ele>696.3333333333334</ele><time>2026-04-05T16:17:22.999Z</time></trkpt><trkpt lat="44.79046495767558" lon="9.359348857901287"><ele>700.0</ele><time>2026-04-05T16:17:23.999Z</time></trkpt><trkpt lat="44.790601556002116" lon="9.359507120552522"><ele>700.0</ele><time>2026-04-05T16:17:24.999Z</time></trkpt><trkpt lat="44.79073339592701" lon="9.359677733517394"><ele>700.0</ele><time>2026-04-05T16:17:25.999Z</time></trkpt><trkpt lat="44.79083527673632" lon="9.359861105164379"><ele>700.0</ele><time>2026-04-05T16:17:26.999Z</time></trkpt><trkpt lat="44.790961213069096" lon="9.360071740281665"><ele>703.0</ele><time>2026-04-05T16:17:27.999Z</time></trkpt><trkpt lat="44.79102620016805" lon="9.360321258150154"><ele>706.0</ele><time>2026-04-05T16:17:28.999Z</time></trkpt><trkpt lat="44.791098768409874" lon="9.360522216538818"><ele>709.0</ele><time>2026-04-05T16:17:29.999Z</time></trkpt><trkpt lat="44.79118670978504" lon="9.360728351783262"><ele>709.0</ele><time>2026-04-05T16:17:30.999Z</time></trkpt><trkpt lat="44.79130533693235" lon="9.360929569152498"><ele>709.0</ele><time>2026-04-05T16:17:31.999Z</time></trkpt><trkpt lat="44.79143459172763" lon="9.361121948215965"><ele>709.0</ele><time>2026-04-05T16:17:32.999Z</time></trkpt><trkpt lat="44.7915454311877" lon="9.361273463024375"><ele>710.0</ele><time>2026-04-05T16:17:33.999Z</time></trkpt><trkpt lat="44.79163664045368" lon="9.361430943520693"><ele>711.0</ele><time>2026-04-05T16:17:34.999Z</time></trkpt><trkpt lat="44.79172755881986" lon="9.36156959357515"><ele>712.0</ele><time>2026-04-05T16:17:35.999Z</time></trkpt><trkpt lat="44.791813105138715" lon="9.361660981960993"><ele>713.0</ele><time>2026-04-05T16:17:36.999Z</time></trkpt><trkpt lat="44.79191491194208" lon="9.361723248389788"><ele>713.0</ele><time>2026-04-05T16:17:37.999Z</time></trkpt><trkpt lat="44.792037238832805" lon="9.36176678193503"><ele>713.0</ele><time>2026-04-05T16:17:38.999Z</time></trkpt><trkpt lat="44.79214806492537" lon="9.361763812226096"><ele>713.0</ele><time>2026-04-05T16:17:39.999Z</time></trkpt><trkpt lat="44.79226463887753" lon="9.36170849752517"><ele>713.0</ele><time>2026-04-05T16:17:40.999Z</time></trkpt><trkpt lat="44.792382665353365" lon="9.361614515845062"><ele>713.0</ele><time>2026-04-05T16:17:41.999Z</time></trkpt><trkpt lat="44.79250491804279" lon="9.361475139691919"><ele>713.0</ele><time>2026-04-05T16:17:42.999Z</time></trkpt><trkpt lat="44.7926223937764" lon="9.36129922472662"><ele>713.0</ele><time>2026-04-05T16:17:43.999Z</time></trkpt><trkpt lat="44.79273205999679" lon="9.36111471178314"><ele>715.25</ele><time>2026-04-05T16:17:44.999Z</time></trkpt><trkpt lat="44.792838564711666" lon="9.360977019495104"><ele>717.5</ele><time>2026-04-05T16:17:45.999Z</time></trkpt><trkpt lat="44.79291383483987" lon="9.360827907641747"><ele>719.75</ele><time>2026-04-05T16:17:46.999Z</time></trkpt><trkpt lat="44.7930316799156" lon="9.3607233106656"><ele>722.0</ele><time>2026-04-05T16:17:47.999Z</time></trkpt><trkpt lat="44.79313770404507" lon="9.36067032570681"><ele>722.0</ele><time>2026-04-05T16:17:48.999Z</time></trkpt><trkpt lat="44.79321958714521" lon="9.360669942391574"><ele>722.0</ele><time>2026-04-05T16:17:49.999Z</time></trkpt><trkpt lat="44.79331256556828" lon="9.360703467761747"><ele>722.0</ele><time>2026-04-05T16:17:50.999Z</time></trkpt><trkpt lat="44.79340406995289" lon="9.360795518931363"><ele>722.0</ele><time>2026-04-05T16:17:51.999Z</time></trkpt><trkpt lat="44.79346364064603" lon="9.360933724575142"><ele>722.0</ele><time>2026-04-05T16:17:52.999Z</time></trkpt><trkpt lat="44.79348095473138" lon="9.36110494788715"><ele>725.6666666666666</ele><time>2026-04-05T16:17:53.999Z</time></trkpt><trkpt lat="44.79353468598042" lon="9.361370452211444"><ele>729.3333333333334</ele><time>2026-04-05T16:17:54.999Z</time></trkpt><trkpt lat="44.79359584860342" lon="9.361658639427384"><ele>733.0</ele><time>2026-04-05T16:17:55.999Z</time></trkpt><trkpt lat="44.79368331914574" lon="9.361991466819441"><ele>732.5</ele><time>2026-04-05T16:17:56.999Z</time></trkpt><trkpt lat="44.793755601356146" lon="9.362359965000763"><ele>732.0</ele><time>2026-04-05T16:17:57.999Z</time></trkpt><trkpt lat="44.793824294267154" lon="9.362679196902524"><ele>732.0</ele><time>2026-04-05T16:17:58.999Z</time></trkpt><trkpt lat="44.79389220433863" lon="9.363002065311534"><ele>732.0</ele><time>2026-04-05T16:17:59.999Z</time></trkpt><trkpt lat="44.793963161889195" lon="9.363339675973922"><ele>731.3333333333334</ele><time>2026-04-05T16:18:00.999Z</time></trkpt><trkpt lat="44.794029172319284" lon="9.363657460560155"><ele>730.6666666666667</ele><time>2026-04-05T16:18:01.999Z</time></trkpt><trkpt lat="44.79408400849942" lon="9.36394272149992"><ele>730.0</ele><time>2026-04-05T16:18:02.999Z</time></trkpt><trkpt lat="44.79412278697416" lon="9.364198649390035"><ele>729.6666666666667</ele><time>2026-04-05T16:18:04Z</time></trkpt><trkpt lat="44.794139220710264" lon="9.364432686389959"><ele>729.3333333333334</ele><time>2026-04-05T16:18:05Z</time></trkpt><trkpt lat="44.79415087026159" lon="9.364673401571448"><ele>729.0</ele><time>2026-04-05T16:18:06Z</time></trkpt><trkpt lat="44.79414354217973" lon="9.36492937975902"><ele>731.0</ele><time>2026-04-05T16:18:07Z</time></trkpt><trkpt lat="44.79410437013524" lon="9.365175424013275"><ele>733.0</ele><time>2026-04-05T16:18:08Z</time></trkpt><trkpt lat="44.794051831188014" lon="9.365394392434727"><ele>735.0</ele><time>2026-04-05T16:18:09Z</time></trkpt><trkpt lat="44.79398099834564" lon="9.36559903326473"><ele>739.6666666666666</ele><time>2026-04-05T16:18:10Z</time></trkpt><trkpt lat="44.79388333966487" lon="9.36582111654082"><ele>744.3333333333333</ele><time>2026-04-05T16:18:11Z</time></trkpt><trkpt lat="44.79381291279992" lon="9.3659775427736"><ele>749.0</ele><time>2026-04-05T16:18:12Z</time></trkpt><trkpt lat="44.79375852890254" lon="9.36616759796658"><ele>751.0</ele><time>2026-04-05T16:18:13Z</time></trkpt><trkpt lat="44.793700527147934" lon="9.366391666406862"><ele>753.0</ele><time>2026-04-05T16:18:14Z</time></trkpt><trkpt lat="44.79368746717146" lon="9.366678748933449"><ele>755.0</ele><time>2026-04-05T16:18:15Z</time></trkpt><trkpt lat="44.79364548222391" lon="9.366960354200856"><ele>756.6666666666666</ele><time>2026-04-05T16:18:16Z</time></trkpt><trkpt lat="44.79357857211095" lon="9.367245814565974"><ele>758.3333333333334</ele><time>2026-04-05T16:18:17Z</time></trkpt><trkpt lat="44.793523762398365" lon="9.367508207230744"><ele>760.0</ele><time>2026-04-05T16:18:18Z</time></trkpt><trkpt lat="44.793489907616944" lon="9.367798437924982"><ele>755.6666666666667</ele><time>2026-04-05T16:18:19Z</time></trkpt><trkpt lat="44.79345326699484" lon="9.368134181916009"><ele>751.3333333333334</ele><time>2026-04-05T16:18:20Z</time></trkpt><trkpt lat="44.793432757277564" lon="9.368408151302857"><ele>747.0</ele><time>2026-04-05T16:18:21Z</time></trkpt><trkpt lat="44.79341453342009" lon="9.368667019540208"><ele>748.0</ele><time>2026-04-05T16:18:22Z</time></trkpt><trkpt lat="44.79341125181539" lon="9.368925991649071"><ele>749.0</ele><time>2026-04-05T16:18:23Z</time></trkpt><trkpt lat="44.793432651707214" lon="9.36916416775892"><ele>750.0</ele><time>2026-04-05T16:18:24Z</time></trkpt><trkpt lat="44.79345502987448" lon="9.369439973901898"><ele>750.6666666666666</ele><time>2026-04-05T16:18:25Z</time></trkpt><trkpt lat="44.79345873456034" lon="9.369701159037293"><ele>751.3333333333333</ele><time>2026-04-05T16:18:26Z</time></trkpt><trkpt lat="44.79344771769459" lon="9.369914861821556"><ele>752.0</ele><time>2026-04-05T16:18:27Z</time></trkpt><trkpt lat="44.793427166231425" lon="9.370122099609521"><ele>752.0</ele><time>2026-04-05T16:18:28Z</time></trkpt><trkpt lat="44.79340607136475" lon="9.370288096765917"><ele>752.0</ele><time>2026-04-05T16:18:29Z</time></trkpt><trkpt lat="44.793397915986006" lon="9.370428581426111"><ele>752.0</ele><time>2026-04-05T16:18:30Z</time></trkpt><trkpt lat="44.79340442677356" lon="9.370521502252437"><ele>752.0</ele><time>2026-04-05T16:18:31Z</time></trkpt><trkpt lat="44.793433122023146" lon="9.370638106484382"><ele>752.0</ele><time>2026-04-05T16:18:32Z</time></trkpt><trkpt lat="44.79353420891626" lon="9.370661476024763"><ele>752.5</ele><time>2026-04-05T16:18:33Z</time></trkpt><trkpt lat="44.7936177936538" lon="9.370654721707497"><ele>753.0</ele><time>2026-04-05T16:18:34Z</time></trkpt><trkpt lat="44.79373725998166" lon="9.37059430688231"><ele>753.5</ele><time>2026-04-05T16:18:35Z</time></trkpt><trkpt lat="44.79385481923025" lon="9.370530169492486"><ele>754.0</ele><time>2026-04-05T16:18:36Z</time></trkpt><trkpt lat="44.7940508950725" lon="9.370447693308337"><ele>758.0</ele><time>2026-04-05T16:18:37Z</time></trkpt><trkpt lat="44.794230426525075" lon="9.370311218320033"><ele>762.0</ele><time>2026-04-05T16:18:38Z</time></trkpt><trkpt lat="44.794427316898926" lon="9.370188128808943"><ele>766.0</ele><time>2026-04-05T16:18:39Z</time></trkpt><trkpt lat="44.79461232531166" lon="9.370078282140085"><ele>768.6666666666667</ele><time>2026-04-05T16:18:40Z</time></trkpt><trkpt lat="44.794783637440226" lon="9.369992829154898"><ele>771.3333333333334</ele><time>2026-04-05T16:18:41Z</time></trkpt><trkpt lat="44.79492876007169" lon="9.36991918876574"><ele>774.0</ele><time>2026-04-05T16:18:42Z</time></trkpt><trkpt lat="44.79503700814884" lon="9.369854414201297"><ele>774.0</ele><time>2026-04-05T16:18:43Z</time></trkpt><trkpt lat="44.79515287115574" lon="9.369798891205443"><ele>774.0</ele><time>2026-04-05T16:18:44Z</time></trkpt><trkpt lat="44.79526798793817" lon="9.369710911710941"><ele>774.0</ele><time>2026-04-05T16:18:45Z</time></trkpt><trkpt lat="44.79535615503836" lon="9.369676198569962"><ele>774.0</ele><time>2026-04-05T16:18:46Z</time></trkpt><trkpt lat="44.795418572638" lon="9.369627947139342"><ele>774.0</ele><time>2026-04-05T16:18:47Z</time></trkpt><trkpt lat="44.795478623296255" lon="9.369544413402636"><ele>778.5</ele><time>2026-04-05T16:18:48Z</time></trkpt><trkpt lat="44.795528485697254" lon="9.369434839836464"><ele>783.0</ele><time>2026-04-05T16:18:49Z</time></trkpt><trkpt lat="44.79553022731548" lon="9.369245019239594"><ele>787.5</ele><time>2026-04-05T16:18:50Z</time></trkpt><trkpt lat="44.79548485761663" lon="9.369078216976868"><ele>792.0</ele><time>2026-04-05T16:18:51Z</time></trkpt><trkpt lat="44.79541103352063" lon="9.368836300415396"><ele>792.0</ele><time>2026-04-05T16:18:52Z</time></trkpt><trkpt lat="44.79536395983769" lon="9.368678666347899"><ele>792.0</ele><time>2026-04-05T16:18:53Z</time></trkpt><trkpt lat="44.795329227931404" lon="9.368533463939709"><ele>792.0</ele><time>2026-04-05T16:18:54Z</time></trkpt><trkpt lat="44.79531980128344" lon="9.368402353120052"><ele>792.0</ele><time>2026-04-05T16:18:55Z</time></trkpt><trkpt lat="44.79533222461263" lon="9.368239807337183"><ele>792.0</ele><time>2026-04-05T16:18:56Z</time></trkpt><trkpt lat="44.79535491262059" lon="9.368068983964308"><ele>791.75</ele><time>2026-04-05T16:18:57Z</time></trkpt><trkpt lat="44.795405450738755" lon="9.367891894926043"><ele>791.5</ele><time>2026-04-05T16:18:58Z</time></trkpt><trkpt lat="44.79548230121693" lon="9.36772097242871"><ele>791.25</ele><time>2026-04-05T16:18:59Z</time></trkpt><trkpt lat="44.79559618662943" lon="9.36754616629151"><ele>791.0</ele><time>2026-04-05T16:19:00Z</time></trkpt><trkpt lat="44.79571965799287" lon="9.367381084797616"><ele>789.3333333333334</ele><time>2026-04-05T16:19:01Z</time></trkpt><trkpt lat="44.795871907275206" lon="9.36718625900523"><ele>787.6666666666667</ele><time>2026-04-05T16:19:02Z</time></trkpt><trkpt lat="44.79604818805424" lon="9.366995452592517"><ele>786.0</ele><time>2026-04-05T16:19:03Z</time></trkpt><trkpt lat="44.79621087564629" lon="9.36679813639347"><ele>791.0</ele><time>2026-04-05T16:19:04Z</time></trkpt><trkpt lat="44.79635263977471" lon="9.366618147352568"><ele>796.0</ele><time>2026-04-05T16:19:05Z</time></trkpt><trkpt lat="44.79647573979561" lon="9.366463526442901"><ele>801.0</ele><time>2026-04-05T16:19:06Z</time></trkpt><trkpt lat="44.79658056726718" lon="9.366343888688153"><ele>801.0</ele><time>2026-04-05T16:19:06.999Z</time></trkpt><trkpt lat="44.796677507231955" lon="9.366207478649628"><ele>801.0</ele><time>2026-04-05T16:19:07.999Z</time></trkpt><trkpt lat="44.796765715468354" lon="9.366057345103085"><ele>801.0</ele><time>2026-04-05T16:19:08.999Z</time></trkpt><trkpt lat="44.79683338141907" lon="9.36584745313407"><ele>801.0</ele><time>2026-04-05T16:19:09.999Z</time></trkpt><trkpt lat="44.796871922786046" lon="9.365628568584311"><ele>809.0</ele><time>2026-04-05T16:19:10.999Z</time></trkpt><trkpt lat="44.79689424768886" lon="9.365338271849478"><ele>817.0</ele><time>2026-04-05T16:19:11.999Z</time></trkpt><trkpt lat="44.79690009208315" lon="9.365078013747523"><ele>825.0</ele><time>2026-04-05T16:19:12.999Z</time></trkpt><trkpt lat="44.79693258147565" lon="9.364859057155664"><ele>826.0</ele><time>2026-04-05T16:19:13.999Z</time></trkpt><trkpt lat="44.79697868478355" lon="9.364645905726563"><ele>827.0</ele><time>2026-04-05T16:19:14.999Z</time></trkpt><trkpt lat="44.7970434978182" lon="9.364458255691549"><ele>828.0</ele><time>2026-04-05T16:19:15.999Z</time></trkpt><trkpt lat="44.79714930884888" lon="9.36423799605927"><ele>828.0</ele><time>2026-04-05T16:19:16.999Z</time></trkpt><trkpt lat="44.797292378313415" lon="9.363998759889924"><ele>828.0</ele><time>2026-04-05T16:19:17.999Z</time></trkpt><trkpt lat="44.7974639795378" lon="9.363711137487954"><ele>826.6666666666667</ele><time>2026-04-05T16:19:18.999Z</time></trkpt><trkpt lat="44.79762455596172" lon="9.363490578261942"><ele>825.3333333333334</ele><time>2026-04-05T16:19:19.999Z</time></trkpt><trkpt lat="44.79774037845086" lon="9.363240589165619"><ele>824.0</ele><time>2026-04-05T16:19:20.999Z</time></trkpt><trkpt lat="44.797850937870656" lon="9.363050502246175"><ele>827.75</ele><time>2026-04-05T16:19:21.999Z</time></trkpt><trkpt lat="44.797938044679654" lon="9.362862451991074"><ele>831.5</ele><time>2026-04-05T16:19:22.999Z</time></trkpt><trkpt lat="44.798026346169976" lon="9.362695796734751"><ele>835.25</ele><time>2026-04-05T16:19:23.999Z</time></trkpt><trkpt lat="44.79810564641794" lon="9.362558400866504"><ele>839.0</ele><time>2026-04-05T16:19:24.999Z</time></trkpt><trkpt lat="44.79820492549508" lon="9.362473083401973"><ele>839.0</ele><time>2026-04-05T16:19:25.999Z</time></trkpt><trkpt lat="44.7983097744409" lon="9.362384887563461"><ele>839.0</ele><time>2026-04-05T16:19:26.999Z</time></trkpt><trkpt lat="44.798446402595005" lon="9.362350319261182"><ele>839.0</ele><time>2026-04-05T16:19:27.999Z</time></trkpt><trkpt lat="44.79858685451662" lon="9.362327838345136"><ele>839.0</ele><time>2026-04-05T16:19:28.999Z</time></trkpt><trkpt lat="44.79870187228825" lon="9.362314591584614"><ele>843.4000000000001</ele><time>2026-04-05T16:19:29.999Z</time></trkpt><trkpt lat="44.798787452244255" lon="9.362264587293327"><ele>847.8</ele><time>2026-04-05T16:19:30.999Z</time></trkpt><trkpt lat="44.79884192817263" lon="9.362170788369744"><ele>852.1999999999999</ele><time>2026-04-05T16:19:31.999Z</time></trkpt><trkpt lat="44.79887562765363" lon="9.362022509689254"><ele>856.5999999999999</ele><time>2026-04-05T16:19:32.999Z</time></trkpt><trkpt lat="44.798859117120614" lon="9.36180439294431"><ele>861.0</ele><time>2026-04-05T16:19:33.999Z</time></trkpt><trkpt lat="44.798870780121405" lon="9.361589860748856"><ele>861.0</ele><time>2026-04-05T16:19:34.999Z</time></trkpt><trkpt lat="44.79886646715683" lon="9.361408121041656"><ele>860.9999999999999</ele><time>2026-04-05T16:19:35.999Z</time></trkpt><trkpt lat="44.79881910453064" lon="9.361263409264124"><ele>860.9999999999999</ele><time>2026-04-05T16:19:36.999Z</time></trkpt><trkpt lat="44.798796455543254" lon="9.361139497490633"><ele>861.0</ele><time>2026-04-05T16:19:37.999Z</time></trkpt><trkpt lat="44.79882883533034" lon="9.361018481267925"><ele>861.0</ele><time>2026-04-05T16:19:38.999Z</time></trkpt><trkpt lat="44.798917704738784" lon="9.360888094295657"><ele>861.3333333333333</ele><time>2026-04-05T16:19:39.999Z</time></trkpt><trkpt lat="44.79904199543554" lon="9.360721910329268"><ele>861.6666666666666</ele><time>2026-04-05T16:19:40.999Z</time></trkpt><trkpt lat="44.79917187114053" lon="9.360542865192912"><ele>862.0</ele><time>2026-04-05T16:19:41.999Z</time></trkpt><trkpt lat="44.799282807421385" lon="9.36039340324511"><ele>866.0</ele><time>2026-04-05T16:19:42.999Z</time></trkpt><trkpt lat="44.79936242994399" lon="9.360261957569463"><ele>870.0</ele><time>2026-04-05T16:19:43.999Z</time></trkpt><trkpt lat="44.799420832884266" lon="9.360123022425524"><ele>874.0</ele><time>2026-04-05T16:19:44.999Z</time></trkpt><trkpt lat="44.799439592347845" lon="9.359955358450055"><ele>878.0</ele><time>2026-04-05T16:19:45.999Z</time></trkpt><trkpt lat="44.79943083725798" lon="9.359779900668656"><ele>877.5999999999999</ele><time>2026-04-05T16:19:46.999Z</time></trkpt><trkpt lat="44.79941341725324" lon="9.359641596853058"><ele>877.1999999999999</ele><time>2026-04-05T16:19:47.999Z</time></trkpt><trkpt lat="44.7993752923076" lon="9.35951665296342"><ele>876.8</ele><time>2026-04-05T16:19:48.999Z</time></trkpt><trkpt lat="44.799304377246756" lon="9.359394171118803"><ele>876.4</ele><time>2026-04-05T16:19:49.999Z</time></trkpt><trkpt lat="44.79926519897094" lon="9.359301494850982"><ele>876.0</ele><time>2026-04-05T16:19:50.999Z</time></trkpt><trkpt lat="44.79928993073731" lon="9.359074196195683"><ele>876.0</ele><time>2026-04-05T16:19:52.999Z</time></trkpt><trkpt lat="44.799352176491524" lon="9.358932771741667"><ele>876.0</ele><time>2026-04-05T16:19:53.999Z</time></trkpt><trkpt lat="44.799461482184924" lon="9.358857944192266"><ele>876.0</ele><time>2026-04-05T16:19:54.999Z</time></trkpt><trkpt lat="44.799583427427066" lon="9.358867313470336"><ele>876.0</ele><time>2026-04-05T16:19:55.999Z</time></trkpt><trkpt lat="44.799717953805185" lon="9.358910770570244"><ele>876.0</ele><time>2026-04-05T16:19:56.999Z</time></trkpt><trkpt lat="44.79986881389744" lon="9.358939110257891"><ele>876.0</ele><time>2026-04-05T16:19:57.999Z</time></trkpt><trkpt lat="44.799994416225054" lon="9.358932428828608"><ele>876.0</ele><time>2026-04-05T16:19:58.999Z</time></trkpt><trkpt lat="44.800110423599136" lon="9.358858900061009"><ele>876.0</ele><time>2026-04-05T16:19:59.999Z</time></trkpt><trkpt lat="44.800220812071785" lon="9.358767708187536"><ele>874.4</ele><time>2026-04-05T16:20:00.999Z</time></trkpt><trkpt lat="44.800302049179535" lon="9.358694506191899"><ele>872.8</ele><time>2026-04-05T16:20:01.999Z</time></trkpt><trkpt lat="44.80038853342546" lon="9.358689092405708"><ele>871.1999999999999</ele><time>2026-04-05T16:20:02.999Z</time></trkpt><trkpt lat="44.800468049377024" lon="9.35882246115221"><ele>869.5999999999999</ele><time>2026-04-05T16:20:03.999Z</time></trkpt><trkpt lat="44.800577671741294" lon="9.358930980308509"><ele>868.0</ele><time>2026-04-05T16:20:04.999Z</time></trkpt><trkpt lat="44.80071249978709" lon="9.359065739187134"><ele>873.0</ele><time>2026-04-05T16:20:05.999Z</time></trkpt><trkpt lat="44.800845826664755" lon="9.359199900302567"><ele>878.0</ele><time>2026-04-05T16:20:06.999Z</time></trkpt><trkpt lat="44.800955167670374" lon="9.359305926130808"><ele>883.0</ele><time>2026-04-05T16:20:07.999Z</time></trkpt><trkpt lat="44.801054456545025" lon="9.359389332917706"><ele>888.0</ele><time>2026-04-05T16:20:08.999Z</time></trkpt><trkpt lat="44.80115536321834" lon="9.35942567391311"><ele>889.75</ele><time>2026-04-05T16:20:10Z</time></trkpt><trkpt lat="44.801247879415136" lon="9.35943515283655"><ele>891.5</ele><time>2026-04-05T16:20:11Z</time></trkpt><trkpt lat="44.8013374471588" lon="9.359380940417006"><ele>893.25</ele><time>2026-04-05T16:20:12Z</time></trkpt><trkpt lat="44.80140033508688" lon="9.359243574050549"><ele>895.0</ele><time>2026-04-05T16:20:13Z</time></trkpt><trkpt lat="44.80150500422217" lon="9.359043706190462"><ele>895.0</ele><time>2026-04-05T16:20:14Z</time></trkpt><trkpt lat="44.801585181679215" lon="9.35887219461944"><ele>895.0</ele><time>2026-04-05T16:20:15Z</time></trkpt><trkpt lat="44.801655657955074" lon="9.35875160528964"><ele>895.0</ele><time>2026-04-05T16:20:16Z</time></trkpt><trkpt lat="44.80176066152228" lon="9.358665550062648"><ele>895.0</ele><time>2026-04-05T16:20:17Z</time></trkpt><trkpt lat="44.80190114596932" lon="9.358656161077331"><ele>894.3333333333333</ele><time>2026-04-05T16:20:18Z</time></trkpt><trkpt lat="44.802067707412604" lon="9.358632920721172"><ele>893.6666666666667</ele><time>2026-04-05T16:20:19Z</time></trkpt><trkpt lat="44.802254488258136" lon="9.358617704801214"><ele>893.0</ele><time>2026-04-05T16:20:20Z</time></trkpt><trkpt lat="44.802460609682996" lon="9.358610185328745"><ele>893.0</ele><time>2026-04-05T16:20:21Z</time></trkpt><trkpt lat="44.802612321799685" lon="9.358607302423112"><ele>893.0</ele><time>2026-04-05T16:20:22Z</time></trkpt><trkpt lat="44.802736332761846" lon="9.358588083274661"><ele>893.0</ele><time>2026-04-05T16:20:23Z</time></trkpt><trkpt lat="44.802855238038525" lon="9.358582219886367"><ele>893.0</ele><time>2026-04-05T16:20:24Z</time></trkpt><trkpt lat="44.80298446450475" lon="9.358609626265698"><ele>895.8</ele><time>2026-04-05T16:20:25Z</time></trkpt><trkpt lat="44.80307914567362" lon="9.3587393840327"><ele>898.5999999999999</ele><time>2026-04-05T16:20:26Z</time></trkpt><trkpt lat="44.80319483656132" lon="9.358793738520824"><ele>901.4000000000001</ele><time>2026-04-05T16:20:27Z</time></trkpt><trkpt lat="44.80328237384017" lon="9.358828532233154"><ele>904.2</ele><time>2026-04-05T16:20:28Z</time></trkpt><trkpt lat="44.803368272002615" lon="9.35880687448634"><ele>907.0</ele><time>2026-04-05T16:20:29Z</time></trkpt><trkpt lat="44.803437095938214" lon="9.358732691593566"><ele>911.75</ele><time>2026-04-05T16:20:30Z</time></trkpt><trkpt lat="44.803506001360184" lon="9.358621362066643"><ele>916.5</ele><time>2026-04-05T16:20:31Z</time></trkpt><trkpt lat="44.803576431747636" lon="9.35846592828511"><ele>921.25</ele><time>2026-04-05T16:20:32Z</time></trkpt><trkpt lat="44.80365720534594" lon="9.358245930763799"><ele>926.0</ele><time>2026-04-05T16:20:33Z</time></trkpt><trkpt lat="44.80377137604607" lon="9.358006381856704"><ele>926.0</ele><time>2026-04-05T16:20:34Z</time></trkpt><trkpt lat="44.80387530426548" lon="9.357782492557744"><ele>926.0</ele><time>2026-04-05T16:20:35Z</time></trkpt><trkpt lat="44.80395587703969" lon="9.357595133545576"><ele>926.0</ele><time>2026-04-05T16:20:36Z</time></trkpt><trkpt lat="44.80401328088261" lon="9.357430460150015"><ele>926.0</ele><time>2026-04-05T16:20:37Z</time></trkpt><trkpt lat="44.80405622124472" lon="9.357275828579793"><ele>926.0</ele><time>2026-04-05T16:20:38Z</time></trkpt><trkpt lat="44.80408569845062" lon="9.357101217533103"><ele>926.0</ele><time>2026-04-05T16:20:39Z</time></trkpt><trkpt lat="44.80407743528765" lon="9.356895467493489"><ele>926.0</ele><time>2026-04-05T16:20:40Z</time></trkpt><trkpt lat="44.804073053916156" lon="9.356705208927561"><ele>926.1999999999999</ele><time>2026-04-05T16:20:41Z</time></trkpt><trkpt lat="44.80406290322051" lon="9.356561413986551"><ele>926.3999999999999</ele><time>2026-04-05T16:20:42Z</time></trkpt><trkpt lat="44.804096296683014" lon="9.356445498806425"><ele>926.6</ele><time>2026-04-05T16:20:43Z</time></trkpt><trkpt lat="44.80416077648357" lon="9.356351857745738"><ele>926.8</ele><time>2026-04-05T16:20:44Z</time></trkpt><trkpt lat="44.80427223745473" lon="9.356344114442093"><ele>927.0</ele><time>2026-04-05T16:20:45Z</time></trkpt><trkpt lat="44.80439844756009" lon="9.356304358109057"><ele>931.6</ele><time>2026-04-05T16:20:46Z</time></trkpt><trkpt lat="44.80450255667312" lon="9.35624404680286"><ele>936.2</ele><time>2026-04-05T16:20:47Z</time></trkpt><trkpt lat="44.80457619518488" lon="9.356182841376876"><ele>940.8</ele><time>2026-04-05T16:20:48Z</time></trkpt><trkpt lat="44.80462106956951" lon="9.356059313803076"><ele>945.4</ele><time>2026-04-05T16:20:49Z</time></trkpt><trkpt lat="44.80464158371012" lon="9.355887872049935"><ele>950.0</ele><time>2026-04-05T16:20:50Z</time></trkpt><trkpt lat="44.804639828776324" lon="9.355643648631702"><ele>948.5</ele><time>2026-04-05T16:20:51Z</time></trkpt><trkpt lat="44.80465133487458" lon="9.355400178523045"><ele>947.0</ele><time>2026-04-05T16:20:52Z</time></trkpt><trkpt lat="44.804645522955624" lon="9.355205834224481"><ele>945.5</ele><time>2026-04-05T16:20:53Z</time></trkpt><trkpt lat="44.8046273515111" lon="9.355047254989106"><ele>944.0</ele><time>2026-04-05T16:20:54Z</time></trkpt><trkpt lat="44.80460180319478" lon="9.354917504316667"><ele>944.0</ele><time>2026-04-05T16:20:55Z</time></trkpt><trkpt lat="44.80459565050342" lon="9.354799943332136"><ele>944.0</ele><time>2026-04-05T16:20:56Z</time></trkpt><trkpt lat="44.804633780205606" lon="9.354676432927484"><ele>944.0</ele><time>2026-04-05T16:20:57Z</time></trkpt><trkpt lat="44.80473388612017" lon="9.35458675041659"><ele>944.0</ele><time>2026-04-05T16:20:58Z</time></trkpt><trkpt lat="44.80486694441864" lon="9.354450237821323"><ele>942.0</ele><time>2026-04-05T16:20:59Z</time></trkpt><trkpt lat="44.80502544062016" lon="9.354284479997723"><ele>940.0</ele><time>2026-04-05T16:21:00Z</time></trkpt><trkpt lat="44.80517438440445" lon="9.354098425525663"><ele>938.0</ele><time>2026-04-05T16:21:01Z</time></trkpt><trkpt lat="44.805303693987156" lon="9.353968270276305"><ele>942.0</ele><time>2026-04-05T16:21:02Z</time></trkpt><trkpt lat="44.805414524356046" lon="9.353827029122751"><ele>946.0</ele><time>2026-04-05T16:21:03Z</time></trkpt><trkpt lat="44.805525481352205" lon="9.353628574739096"><ele>950.0</ele><time>2026-04-05T16:21:04Z</time></trkpt><trkpt lat="44.805620009794815" lon="9.353443564217097"><ele>950.0</ele><time>2026-04-05T16:21:05Z</time></trkpt><trkpt lat="44.80570898739805" lon="9.353268011240194"><ele>950.0</ele><time>2026-04-05T16:21:06Z</time></trkpt><trkpt lat="44.80577556915177" lon="9.35306984177526"><ele>950.0</ele><time>2026-04-05T16:21:07Z</time></trkpt><trkpt lat="44.80582847727345" lon="9.352865308609696"><ele>951.0</ele><time>2026-04-05T16:21:08Z</time></trkpt><trkpt lat="44.80586553401189" lon="9.352700506161908"><ele>952.0</ele><time>2026-04-05T16:21:09Z</time></trkpt><trkpt lat="44.80590065927377" lon="9.352564079873964"><ele>953.0</ele><time>2026-04-05T16:21:10Z</time></trkpt><trkpt lat="44.80590760146193" lon="9.352472166417687"><ele>954.0</ele><time>2026-04-05T16:21:11Z</time></trkpt><trkpt lat="44.80590121632499" lon="9.352350923703403"><ele>955.0</ele><time>2026-04-05T16:21:12Z</time></trkpt><trkpt lat="44.80584749332304" lon="9.352207670482374"><ele>955.4999999999999</ele><time>2026-04-05T16:21:13Z</time></trkpt><trkpt lat="44.80580135295658" lon="9.35209454933015"><ele>956.0</ele><time>2026-04-05T16:21:14Z</time></trkpt><trkpt lat="44.80575108988413" lon="9.352012429489898"><ele>956.5</ele><time>2026-04-05T16:21:15Z</time></trkpt><trkpt lat="44.80576640962797" lon="9.351852280479642"><ele>957.0</ele><time>2026-04-05T16:21:16.999Z</time></trkpt><trkpt lat="44.80577186455555" lon="9.351757635160075"><ele>957.4999999999999</ele><time>2026-04-05T16:21:17.999Z</time></trkpt><trkpt lat="44.805783282899945" lon="9.35162884317791"><ele>958.0</ele><time>2026-04-05T16:21:18.999Z</time></trkpt><trkpt lat="44.805815258307405" lon="9.351458681494124"><ele>957.0</ele><time>2026-04-05T16:21:19.999Z</time></trkpt><trkpt lat="44.805838197603066" lon="9.35127389979768"><ele>956.0</ele><time>2026-04-05T16:21:20.999Z</time></trkpt><trkpt lat="44.80586508555398" lon="9.351151840979561"><ele>955.0</ele><time>2026-04-05T16:21:21.999Z</time></trkpt><trkpt lat="44.80589412606187" lon="9.351031352803739"><ele>954.0</ele><time>2026-04-05T16:21:22.999Z</time></trkpt><trkpt lat="44.80591768763233" lon="9.3509049933726"><ele>953.0</ele><time>2026-04-05T16:21:23.999Z</time></trkpt><trkpt lat="44.80595090040572" lon="9.350744919610936"><ele>953.0</ele><time>2026-04-05T16:21:24.999Z</time></trkpt><trkpt lat="44.805974788175796" lon="9.350577376072504"><ele>953.0</ele><time>2026-04-05T16:21:25.999Z</time></trkpt><trkpt lat="44.80600019855075" lon="9.35044002564599"><ele>953.0</ele><time>2026-04-05T16:21:26.999Z</time></trkpt><trkpt lat="44.80604527633459" lon="9.350336507344958"><ele>953.0</ele><time>2026-04-05T16:21:27.999Z</time></trkpt><trkpt lat="44.806131821177445" lon="9.350260251736623"><ele>953.0</ele><time>2026-04-05T16:21:28.999Z</time></trkpt><trkpt lat="44.80625528171399" lon="9.350215946635059"><ele>957.0</ele><time>2026-04-05T16:21:29.999Z</time></trkpt><trkpt lat="44.806403580255754" lon="9.350178010370309"><ele>961.0</ele><time>2026-04-05T16:21:30.999Z</time></trkpt><trkpt lat="44.80652247474079" lon="9.350136317017986"><ele>965.0</ele><time>2026-04-05T16:21:31.999Z</time></trkpt><trkpt lat="44.80660256309729" lon="9.350091962685191"><ele>969.0</ele><time>2026-04-05T16:21:32.999Z</time></trkpt><trkpt lat="44.806675449125265" lon="9.349984166889552"><ele>969.0</ele><time>2026-04-05T16:21:33.999Z</time></trkpt><trkpt lat="44.80672575395215" lon="9.34983975154094"><ele>969.0</ele><time>2026-04-05T16:21:34.999Z</time></trkpt><trkpt lat="44.80673795987691" lon="9.349603580599133"><ele>969.0</ele><time>2026-04-05T16:21:35.999Z</time></trkpt><trkpt lat="44.806759269539846" lon="9.349303383728111"><ele>969.0</ele><time>2026-04-05T16:21:36.999Z</time></trkpt><trkpt lat="44.80680669635122" lon="9.349006102986406"><ele>969.0</ele><time>2026-04-05T16:21:37.999Z</time></trkpt><trkpt lat="44.806835195667354" lon="9.348764149188899"><ele>969.0</ele><time>2026-04-05T16:21:38.999Z</time></trkpt><trkpt lat="44.806854696420906" lon="9.348551922935467"><ele>972.8000000000001</ele><time>2026-04-05T16:21:39.999Z</time></trkpt><trkpt lat="44.8068649834643" lon="9.348372681673567"><ele>976.6000000000001</ele><time>2026-04-05T16:21:40.999Z</time></trkpt><trkpt lat="44.80688586094083" lon="9.348271716985893"><ele>980.4</ele><time>2026-04-05T16:21:41.999Z</time></trkpt><trkpt lat="44.80688202280977" lon="9.348147286334825"><ele>984.2</ele><time>2026-04-05T16:21:42.999Z</time></trkpt><trkpt lat="44.80681956215506" lon="9.347995113483986"><ele>988.0</ele><time>2026-04-05T16:21:43.999Z</time></trkpt><trkpt lat="44.80669902641823" lon="9.347842094642168"><ele>988.0</ele><time>2026-04-05T16:21:44.999Z</time></trkpt><trkpt lat="44.80654554802701" lon="9.347650777199044"><ele>988.0</ele><time>2026-04-05T16:21:45.999Z</time></trkpt><trkpt lat="44.806322245283525" lon="9.347441356450751"><ele>988.0</ele><time>2026-04-05T16:21:46.999Z</time></trkpt><trkpt lat="44.80615884021838" lon="9.347257091887085"><ele>988.0</ele><time>2026-04-05T16:21:47.999Z</time></trkpt><trkpt lat="44.80602338964042" lon="9.347103826209967"><ele>988.0</ele><time>2026-04-05T16:21:48.999Z</time></trkpt><trkpt lat="44.80590784329242" lon="9.346988445892018"><ele>992.3333333333333</ele><time>2026-04-05T16:21:49.999Z</time></trkpt><trkpt lat="44.80574952574943" lon="9.346908052410196"><ele>996.6666666666667</ele><time>2026-04-05T16:21:50.999Z</time></trkpt><trkpt lat="44.805559680098696" lon="9.346858131799294"><ele>1001.0</ele><time>2026-04-05T16:21:51.999Z</time></trkpt><trkpt lat="44.80536971352181" lon="9.346817493442119"><ele>1001.0</ele><time>2026-04-05T16:21:52.999Z</time></trkpt><trkpt lat="44.80519752260094" lon="9.346766776743237"><ele>1001.0</ele><time>2026-04-05T16:21:53.999Z</time></trkpt><trkpt lat="44.80505289207651" lon="9.34670638517481"><ele>1001.0</ele><time>2026-04-05T16:21:54.999Z</time></trkpt><trkpt lat="44.80492506597693" lon="9.346639965430183"><ele>996.0</ele><time>2026-04-05T16:21:55.999Z</time></trkpt><trkpt lat="44.80478339277592" lon="9.346546691216677"><ele>991.0</ele><time>2026-04-05T16:21:56.999Z</time></trkpt><trkpt lat="44.80464124986094" lon="9.34639178840173"><ele>986.0</ele><time>2026-04-05T16:21:57.999Z</time></trkpt><trkpt lat="44.80451617945849" lon="9.346241573574039"><ele>985.5999999999999</ele><time>2026-04-05T16:21:58.999Z</time></trkpt><trkpt lat="44.80441453415141" lon="9.346141351943574"><ele>985.1999999999999</ele><time>2026-04-05T16:21:59.999Z</time></trkpt><trkpt lat="44.804326291394894" lon="9.34605013893513"><ele>984.8000000000001</ele><time>2026-04-05T16:22:00.999Z</time></trkpt><trkpt lat="44.804256783580705" lon="9.345974229337994"><ele>984.4000000000001</ele><time>2026-04-05T16:22:01.999Z</time></trkpt><trkpt lat="44.804216343001414" lon="9.345851262070825"><ele>984.0</ele><time>2026-04-05T16:22:02.999Z</time></trkpt><trkpt lat="44.80421246496549" lon="9.345652630635158"><ele>987.5</ele><time>2026-04-05T16:22:03.999Z</time></trkpt><trkpt lat="44.804229261034344" lon="9.345440516143835"><ele>991.0</ele><time>2026-04-05T16:22:04.999Z</time></trkpt><trkpt lat="44.804250750958616" lon="9.345226503852889"><ele>994.5</ele><time>2026-04-05T16:22:05.999Z</time></trkpt><trkpt lat="44.804251180630935" lon="9.345062384358165"><ele>998.0</ele><time>2026-04-05T16:22:06.999Z</time></trkpt><trkpt lat="44.804248114278835" lon="9.344928496428096"><ele>998.0</ele><time>2026-04-05T16:22:07.999Z</time></trkpt><trkpt lat="44.80422478124024" lon="9.344814749117035"><ele>998.0</ele><time>2026-04-05T16:22:08.999Z</time></trkpt><trkpt lat="44.80415682857896" lon="9.344702421133933"><ele>998.0</ele><time>2026-04-05T16:22:09.999Z</time></trkpt><trkpt lat="44.80404795423288" lon="9.344603785655641"><ele>998.0</ele><time>2026-04-05T16:22:10.999Z</time></trkpt><trkpt lat="44.80389681099191" lon="9.344574544170879"><ele>999.5999999999999</ele><time>2026-04-05T16:22:11.999Z</time></trkpt><trkpt lat="44.80378999605223" lon="9.344553211998504"><ele>1001.1999999999999</ele><time>2026-04-05T16:22:12.999Z</time></trkpt><trkpt lat="44.80372085395632" lon="9.344504483514456"><ele>1002.8</ele><time>2026-04-05T16:22:13.999Z</time></trkpt><trkpt lat="44.80367731965684" lon="9.344406408384783"><ele>1004.4</ele><time>2026-04-05T16:22:14.999Z</time></trkpt><trkpt lat="44.803677822622554" lon="9.344272337542092"><ele>1006.0</ele><time>2026-04-05T16:22:16Z</time></trkpt><trkpt lat="44.80371783942142" lon="9.344115124766734"><ele>1006.0</ele><time>2026-04-05T16:22:17Z</time></trkpt><trkpt lat="44.803804419276595" lon="9.343920756748107"><ele>1006.0</ele><time>2026-04-05T16:22:18Z</time></trkpt><trkpt lat="44.803901755427425" lon="9.343761087130456"><ele>1006.0</ele><time>2026-04-05T16:22:19Z</time></trkpt><trkpt lat="44.80402533802475" lon="9.343671425811097"><ele>1005.6666666666666</ele><time>2026-04-05T16:22:20Z</time></trkpt><trkpt lat="44.804157958349876" lon="9.343558890757858"><ele>1005.3333333333333</ele><time>2026-04-05T16:22:21Z</time></trkpt><trkpt lat="44.804296225190974" lon="9.343441651700468"><ele>1005.0</ele><time>2026-04-05T16:22:22Z</time></trkpt><trkpt lat="44.80447179289181" lon="9.343293209875453"><ele>1010.25</ele><time>2026-04-05T16:22:23Z</time></trkpt><trkpt lat="44.80457594106331" lon="9.343192299851168"><ele>1015.5</ele><time>2026-04-05T16:22:24Z</time></trkpt><trkpt lat="44.8046540463411" lon="9.34309763625338"><ele>1020.75</ele><time>2026-04-05T16:22:25Z</time></trkpt><trkpt lat="44.80471009667724" lon="9.34301681218413"><ele>1026.0</ele><time>2026-04-05T16:22:26Z</time></trkpt><trkpt lat="44.80474190224" lon="9.342813116195426"><ele>1026.25</ele><time>2026-04-05T16:22:28Z</time></trkpt><trkpt lat="44.80474279121226" lon="9.342641808194774"><ele>1026.5</ele><time>2026-04-05T16:22:29Z</time></trkpt><trkpt lat="44.80471023816414" lon="9.342496753574261"><ele>1026.75</ele><time>2026-04-05T16:22:30Z</time></trkpt><trkpt lat="44.80462967875918" lon="9.342377400063281"><ele>1027.0</ele><time>2026-04-05T16:22:31Z</time></trkpt><trkpt lat="44.80452206103696" lon="9.342259057666805"><ele>1028.4</ele><time>2026-04-05T16:22:32Z</time></trkpt><trkpt lat="44.804399009657985" lon="9.342153961515319"><ele>1029.8000000000002</ele><time>2026-04-05T16:22:33Z</time></trkpt><trkpt lat="44.80430542233094" lon="9.342067526005977"><ele>1031.2</ele><time>2026-04-05T16:22:34Z</time></trkpt><trkpt lat="44.80425381458815" lon="9.341961600008709"><ele>1032.6000000000001</ele><time>2026-04-05T16:22:35Z</time></trkpt><trkpt lat="44.804221957945316" lon="9.341847350653765"><ele>1034.0</ele><time>2026-04-05T16:22:36Z</time></trkpt><trkpt lat="44.804208605332285" lon="9.341672778834115"><ele>1032.3333333333335</ele><time>2026-04-05T16:22:37Z</time></trkpt><trkpt lat="44.804229320295185" lon="9.341478419623753"><ele>1030.6666666666667</ele><time>2026-04-05T16:22:38Z</time></trkpt><trkpt lat="44.804251463796895" lon="9.341228671857653"><ele>1029.0</ele><time>2026-04-05T16:22:39Z</time></trkpt><trkpt lat="44.80429904338674" lon="9.341004741110943"><ele>1029.0</ele><time>2026-04-05T16:22:40Z</time></trkpt><trkpt lat="44.804331887514415" lon="9.340838937668714"><ele>1029.0</ele><time>2026-04-05T16:22:41Z</time></trkpt><trkpt lat="44.80430910104227" lon="9.340678209270761"><ele>1029.0</ele><time>2026-04-05T16:22:42Z</time></trkpt><trkpt lat="44.80425324831477" lon="9.340537462363956"><ele>1029.0</ele><time>2026-04-05T16:22:43Z</time></trkpt><trkpt lat="44.80418067194607" lon="9.340406793987244"><ele>1033.0</ele><time>2026-04-05T16:22:44Z</time></trkpt><trkpt lat="44.804035075777854" lon="9.340334996976532"><ele>1037.0</ele><time>2026-04-05T16:22:45Z</time></trkpt><trkpt lat="44.80384983854737" lon="9.340246915907459"><ele>1041.0</ele><time>2026-04-05T16:22:46Z</time></trkpt><trkpt lat="44.80371820313052" lon="9.340182790369838"><ele>1041.0</ele><time>2026-04-05T16:22:47Z</time></trkpt><trkpt lat="44.80360862732414" lon="9.340118892214074"><ele>1041.0</ele><time>2026-04-05T16:22:48Z</time></trkpt><trkpt lat="44.80351067154321" lon="9.340049014142657"><ele>1041.0</ele><time>2026-04-05T16:22:49Z</time></trkpt><trkpt lat="44.80346563763956" lon="9.339936595642643"><ele>1041.0</ele><time>2026-04-05T16:22:50Z</time></trkpt><trkpt lat="44.803469341809084" lon="9.339770570138995"><ele>1041.0</ele><time>2026-04-05T16:22:51Z</time></trkpt><trkpt lat="44.803502688673994" lon="9.339616260973841"><ele>1039.0</ele><time>2026-04-05T16:22:52Z</time></trkpt><trkpt lat="44.803581293475695" lon="9.339437676104994"><ele>1037.0</ele><time>2026-04-05T16:22:53Z</time></trkpt><trkpt lat="44.80364955820288" lon="9.339188671534611"><ele>1035.0</ele><time>2026-04-05T16:22:54Z</time></trkpt><trkpt lat="44.803754117735856" lon="9.338967799164614"><ele>1034.25</ele><time>2026-04-05T16:22:55Z</time></trkpt><trkpt lat="44.80382511610133" lon="9.338765206766153"><ele>1033.5</ele><time>2026-04-05T16:22:56Z</time></trkpt><trkpt lat="44.803864358385994" lon="9.33857535570971"><ele>1032.75</ele><time>2026-04-05T16:22:57Z</time></trkpt><trkpt lat="44.803892935907385" lon="9.338416033223428"><ele>1032.0</ele><time>2026-04-05T16:22:58Z</time></trkpt><trkpt lat="44.803891144618476" lon="9.33823849131356"><ele>1038.0</ele><time>2026-04-05T16:22:59Z</time></trkpt><trkpt lat="44.803855550853164" lon="9.33804658393439"><ele>1044.0</ele><time>2026-04-05T16:23:00Z</time></trkpt><trkpt lat="44.80378857973591" lon="9.337870000481033"><ele>1050.0</ele><time>2026-04-05T16:23:01Z</time></trkpt><trkpt lat="44.803661835046476" lon="9.337698763718295"><ele>1050.0</ele><time>2026-04-05T16:23:02Z</time></trkpt><trkpt lat="44.8035103841098" lon="9.33751481377232"><ele>1050.0</ele><time>2026-04-05T16:23:03Z</time></trkpt><trkpt lat="44.803347516927914" lon="9.337354658827616"><ele>1050.0</ele><time>2026-04-05T16:23:04Z</time></trkpt><trkpt lat="44.80319483899075" lon="9.337220194564036"><ele>1058.3333333333333</ele><time>2026-04-05T16:23:05Z</time></trkpt><trkpt lat="44.80306031646221" lon="9.337059744056772"><ele>1066.6666666666665</ele><time>2026-04-05T16:23:06Z</time></trkpt><trkpt lat="44.80293268946476" lon="9.336914188706917"><ele>1075.0</ele><time>2026-04-05T16:23:07Z</time></trkpt><trkpt lat="44.802816131491284" lon="9.33675830315538"><ele>1075.0</ele><time>2026-04-05T16:23:08Z</time></trkpt><trkpt lat="44.802676304699624" lon="9.33662096023862"><ele>1075.0</ele><time>2026-04-05T16:23:09Z</time></trkpt><trkpt lat="44.80256568528438" lon="9.336428813665053"><ele>1075.0</ele><time>2026-04-05T16:23:10Z</time></trkpt><trkpt lat="44.80244702901551" lon="9.336192606188602"><ele>1075.0</ele><time>2026-04-05T16:23:11Z</time></trkpt><trkpt lat="44.80233370202941" lon="9.335972216837318"><ele>1075.0</ele><time>2026-04-05T16:23:12Z</time></trkpt><trkpt lat="44.80222471038477" lon="9.335744510198367"><ele>1075.0</ele><time>2026-04-05T16:23:13Z</time></trkpt><trkpt lat="44.802123866504964" lon="9.335522370554864"><ele>1083.6666666666665</ele><time>2026-04-05T16:23:14Z</time></trkpt><trkpt lat="44.802033379601845" lon="9.335310962598548"><ele>1092.3333333333333</ele><time>2026-04-05T16:23:15Z</time></trkpt><trkpt lat="44.80196081040765" lon="9.335127495056726"><ele>1101.0</ele><time>2026-04-05T16:23:16Z</time></trkpt><trkpt lat="44.80189061370578" lon="9.334980753094047"><ele>1104.25</ele><time>2026-04-05T16:23:17Z</time></trkpt><trkpt lat="44.80182879475865" lon="9.334855569201432"><ele>1107.5</ele><time>2026-04-05T16:23:18Z</time></trkpt><trkpt lat="44.8017950512845" lon="9.334728580920471"><ele>1110.75</ele><time>2026-04-05T16:23:19Z</time></trkpt><trkpt lat="44.80181111568792" lon="9.334554722612035"><ele>1114.0</ele><time>2026-04-05T16:23:20Z</time></trkpt><trkpt lat="44.8018469446726" lon="9.334356532505305"><ele>1114.0</ele><time>2026-04-05T16:23:21Z</time></trkpt><trkpt lat="44.80184464321628" lon="9.334208236838062"><ele>1114.0</ele><time>2026-04-05T16:23:22Z</time></trkpt><trkpt lat="44.80182647558146" lon="9.33406321498723"><ele>1114.0</ele><time>2026-04-05T16:23:22.999Z</time></trkpt><trkpt lat="44.801752158013" lon="9.333934421350076"><ele>1114.0</ele><time>2026-04-05T16:23:23.999Z</time></trkpt><trkpt lat="44.801602870150106" lon="9.333798900880772"><ele>1110.3333333333333</ele><time>2026-04-05T16:23:24.999Z</time></trkpt><trkpt lat="44.80148183676032" lon="9.333655558601173"><ele>1106.6666666666667</ele><time>2026-04-05T16:23:25.999Z</time></trkpt><trkpt lat="44.80136176811779" lon="9.333471538401025"><ele>1103.0</ele><time>2026-04-05T16:23:26.999Z</time></trkpt><trkpt lat="44.801264423961065" lon="9.33328016439428"><ele>1103.0</ele><time>2026-04-05T16:23:27.999Z</time></trkpt><trkpt lat="44.80114332691786" lon="9.33307760794643"><ele>1103.0</ele><time>2026-04-05T16:23:28.999Z</time></trkpt><trkpt lat="44.801018299445076" lon="9.332957329439923"><ele>1103.0</ele><time>2026-04-05T16:23:29.999Z</time></trkpt><trkpt lat="44.800882873265785" lon="9.332831920911632"><ele>1102.6666666666667</ele><time>2026-04-05T16:23:30.999Z</time></trkpt><trkpt lat="44.80072484582367" lon="9.332713286978857"><ele>1102.3333333333333</ele><time>2026-04-05T16:23:31.999Z</time></trkpt><trkpt lat="44.80053314075743" lon="9.332626749138724"><ele>1102.0</ele><time>2026-04-05T16:23:32.999Z</time></trkpt><trkpt lat="44.80033182327792" lon="9.332539625804419"><ele>1099.3333333333333</ele><time>2026-04-05T16:23:33.999Z</time></trkpt><trkpt lat="44.800163104582886" lon="9.332509146400296"><ele>1096.6666666666667</ele><time>2026-04-05T16:23:34.999Z</time></trkpt><trkpt lat="44.80001052018581" lon="9.33244537061721"><ele>1094.0</ele><time>2026-04-05T16:23:35.999Z</time></trkpt><trkpt lat="44.799876489464815" lon="9.332373481787533"><ele>1094.0</ele><time>2026-04-05T16:23:36.999Z</time></trkpt><trkpt lat="44.79977262263442" lon="9.332318895997727"><ele>1094.0</ele><time>2026-04-05T16:23:37.999Z</time></trkpt><trkpt lat="44.79966057357647" lon="9.332198522997583"><ele>1094.0</ele><time>2026-04-05T16:23:38.999Z</time></trkpt><trkpt lat="44.79949458545421" lon="9.33199002450479"><ele>1097.6666666666667</ele><time>2026-04-05T16:23:39.999Z</time></trkpt><trkpt lat="44.79935645573582" lon="9.331809769234622"><ele>1101.3333333333333</ele><time>2026-04-05T16:23:40.999Z</time></trkpt><trkpt lat="44.79923588218653" lon="9.33164683526413"><ele>1105.0</ele><time>2026-04-05T16:23:41.999Z</time></trkpt><trkpt lat="44.79913706442292" lon="9.331500598534273"><ele>1113.0</ele><time>2026-04-05T16:23:42.999Z</time></trkpt><trkpt lat="44.79907903138343" lon="9.331333570896774"><ele>1121.0</ele><time>2026-04-05T16:23:43.999Z</time></trkpt><trkpt lat="44.79900550221123" lon="9.331089353734912"><ele>1129.0</ele><time>2026-04-05T16:23:44.999Z</time></trkpt><trkpt lat="44.7988941240137" lon="9.330823152218436"><ele>1129.0</ele><time>2026-04-05T16:23:45.999Z</time></trkpt><trkpt lat="44.79880015921731" lon="9.330605325459857"><ele>1129.0</ele><time>2026-04-05T16:23:46.999Z</time></trkpt><trkpt lat="44.79869752986537" lon="9.330406837368178"><ele>1129.0</ele><time>2026-04-05T16:23:47.999Z</time></trkpt><trkpt lat="44.79858443172831" lon="9.330216200578548"><ele>1128.6666666666665</ele><time>2026-04-05T16:23:48.999Z</time></trkpt><trkpt lat="44.798468086334466" lon="9.330042515137105"><ele>1128.3333333333333</ele><time>2026-04-05T16:23:49.999Z</time></trkpt><trkpt lat="44.798308653982325" lon="9.329975136280915"><ele>1128.0</ele><time>2026-04-05T16:23:50.999Z</time></trkpt><trkpt lat="44.79817013052182" lon="9.329879637376273"><ele>1128.0</ele><time>2026-04-05T16:23:51.999Z</time></trkpt><trkpt lat="44.79802972359815" lon="9.329783648077482"><ele>1128.0</ele><time>2026-04-05T16:23:52.999Z</time></trkpt><trkpt lat="44.797851704668986" lon="9.329682818157284"><ele>1128.0</ele><time>2026-04-05T16:23:53.999Z</time></trkpt><trkpt lat="44.797688752597765" lon="9.329560509769538"><ele>1130.25</ele><time>2026-04-05T16:23:54.999Z</time></trkpt><trkpt lat="44.79754769668722" lon="9.329464341787217"><ele>1132.5</ele><time>2026-04-05T16:23:55.999Z</time></trkpt><trkpt lat="44.79741815940737" lon="9.329426418218343"><ele>1134.75</ele><time>2026-04-05T16:23:56.999Z</time></trkpt><trkpt lat="44.79731557527906" lon="9.329402304698808"><ele>1137.0</ele><time>2026-04-05T16:23:57.999Z</time></trkpt><trkpt lat="44.7972330428285" lon="9.32932041765591"><ele>1137.0</ele><time>2026-04-05T16:23:58.999Z</time></trkpt><trkpt lat="44.79713193929467" lon="9.329198933240328"><ele>1137.0</ele><time>2026-04-05T16:23:59.999Z</time></trkpt><trkpt lat="44.79702635496599" lon="9.329056366158708"><ele>1137.0</ele><time>2026-04-05T16:24:00.999Z</time></trkpt><trkpt lat="44.79690038072274" lon="9.32890563222922"><ele>1137.0</ele><time>2026-04-05T16:24:01.999Z</time></trkpt><trkpt lat="44.796802554983394" lon="9.328799943805016"><ele>1140.6</ele><time>2026-04-05T16:24:02.999Z</time></trkpt><trkpt lat="44.796704836847724" lon="9.328740464530048"><ele>1144.2</ele><time>2026-04-05T16:24:03.999Z</time></trkpt><trkpt lat="44.796641828378206" lon="9.328670146918439"><ele>1147.8</ele><time>2026-04-05T16:24:04.999Z</time></trkpt><trkpt lat="44.79655447768271" lon="9.328609738759793"><ele>1151.4</ele><time>2026-04-05T16:24:05.999Z</time></trkpt><trkpt lat="44.79647314844962" lon="9.328689189606504"><ele>1155.0</ele><time>2026-04-05T16:24:06.999Z</time></trkpt><trkpt lat="44.79638587996079" lon="9.32877984391278"><ele>1151.5</ele><time>2026-04-05T16:24:07.999Z</time></trkpt><trkpt lat="44.79637244201272" lon="9.329033005844657"><ele>1148.0</ele><time>2026-04-05T16:24:08.999Z</time></trkpt><trkpt lat="44.79626093162649" lon="9.32915494652285"><ele>1144.5</ele><time>2026-04-05T16:24:09.999Z</time></trkpt><trkpt lat="44.796226508464294" lon="9.329299598803416"><ele>1141.0</ele><time>2026-04-05T16:24:11.999Z</time></trkpt><trkpt lat="44.79614568502198" lon="9.329178383376814"><ele>1141.0</ele><time>2026-04-05T16:24:12.999Z</time></trkpt><trkpt lat="44.79611680002296" lon="9.329013368507743"><ele>1141.0</ele><time>2026-04-05T16:24:13.999Z</time></trkpt><trkpt lat="44.796146908612656" lon="9.328899699190478"><ele>1141.0</ele><time>2026-04-05T16:24:14.999Z</time></trkpt><trkpt lat="44.79624120339697" lon="9.328791128355284"><ele>1141.0</ele><time>2026-04-05T16:24:15.999Z</time></trkpt><trkpt lat="44.796330482715035" lon="9.328631143088321"><ele>1144.5</ele><time>2026-04-05T16:24:16.999Z</time></trkpt><trkpt lat="44.79642756735623" lon="9.32852301763134"><ele>1148.0</ele><time>2026-04-05T16:24:17.999Z</time></trkpt><trkpt lat="44.796539700784514" lon="9.328444134945912"><ele>1151.5</ele><time>2026-04-05T16:24:18.999Z</time></trkpt><trkpt lat="44.79667968148713" lon="9.328364871461995"><ele>1155.0</ele><time>2026-04-05T16:24:19.999Z</time></trkpt><trkpt lat="44.79679514697479" lon="9.32832972090715"><ele>1152.0</ele><time>2026-04-05T16:24:20.999Z</time></trkpt><trkpt lat="44.79690267360567" lon="9.32833666599511"><ele>1149.0</ele><time>2026-04-05T16:24:22Z</time></trkpt><trkpt lat="44.79702004871731" lon="9.32835783299146"><ele>1146.0</ele><time>2026-04-05T16:24:23Z</time></trkpt><trkpt lat="44.797115685939985" lon="9.328380175053246"><ele>1143.0</ele><time>2026-04-05T16:24:24Z</time></trkpt><trkpt lat="44.79719978656392" lon="9.328385677128887"><ele>1140.0</ele><time>2026-04-05T16:24:25Z</time></trkpt><trkpt lat="44.79728365569234" lon="9.328405297746395"><ele>1140.0</ele><time>2026-04-05T16:24:27Z</time></trkpt><trkpt lat="44.797352427544325" lon="9.328355028224967"><ele>1140.0</ele><time>2026-04-05T16:24:30Z</time></trkpt><trkpt lat="44.79739893268592" lon="9.328289914241317"><ele>1140.0</ele><time>2026-04-05T16:25:01Z</time></trkpt><trkpt lat="44.797407452028196" lon="9.328174159036514"><ele>1140.0</ele><time>2026-04-05T16:25:07Z</time></trkpt><trkpt lat="44.79744930918192" lon="9.328080649677572"><ele>1140.0</ele><time>2026-04-05T16:25:14Z</time></trkpt><trkpt lat="44.79746334986965" lon="9.328212924843998"><ele>1140.0</ele><time>2026-04-05T16:25:42.999Z</time></trkpt><trkpt lat="44.79740847835048" lon="9.3282654716215"><ele>1140.0</ele><time>2026-04-05T16:25:48.999Z</time></trkpt><trkpt lat="44.79737909406505" lon="9.328347937007564"><ele>1140.0</ele><time>2026-04-05T16:25:53.999Z</time></trkpt><trkpt lat="44.79735064222669" lon="9.32844194537261"><ele>1140.0</ele><time>2026-04-05T16:25:57.999Z</time></trkpt><trkpt lat="44.797368035737826" lon="9.328268713577124"><ele>1140.0</ele><time>2026-04-05T16:28:21.999Z</time></trkpt><trkpt lat="44.79732188585313" lon="9.32811803008053"><ele>1140.0</ele><time>2026-04-05T16:28:23.999Z</time></trkpt><trkpt lat="44.79728475629258" lon="9.32802466628713"><ele>1138.4</ele><time>2026-04-05T16:28:24.999Z</time></trkpt><trkpt lat="44.79725149264246" lon="9.327936255814318"><ele>1136.8</ele><time>2026-04-05T16:28:25.999Z</time></trkpt><trkpt lat="44.7971949502373" lon="9.327854760850567"><ele>1135.2</ele><time>2026-04-05T16:28:26.999Z</time></trkpt><trkpt lat="44.79711618275276" lon="9.327719923499686"><ele>1133.6</ele><time>2026-04-05T16:28:27.999Z</time></trkpt><trkpt lat="44.79703024445914" lon="9.327578155160014"><ele>1132.0</ele><time>2026-04-05T16:28:28.999Z</time></trkpt><trkpt lat="44.79695705602339" lon="9.32743924910922"><ele>1132.0</ele><time>2026-04-05T16:28:29.999Z</time></trkpt><trkpt lat="44.796897320757296" lon="9.327328486340885"><ele>1132.0</ele><time>2026-04-05T16:28:30.999Z</time></trkpt><trkpt lat="44.79684454669168" lon="9.32722634766483"><ele>1132.0</ele><time>2026-04-05T16:28:31.999Z</time></trkpt><trkpt lat="44.7967938645796" lon="9.32712386731144"><ele>1132.0</ele><time>2026-04-05T16:28:32.999Z</time></trkpt><trkpt lat="44.796744216620716" lon="9.327016877066805"><ele>1132.0</ele><time>2026-04-05T16:28:34Z</time></trkpt><trkpt lat="44.79673187285552" lon="9.326875145337844"><ele>1129.8</ele><time>2026-04-05T16:28:35Z</time></trkpt><trkpt lat="44.79685178142873" lon="9.3267704045439"><ele>1127.6</ele><time>2026-04-05T16:28:36Z</time></trkpt><trkpt lat="44.79687991775634" lon="9.326639277659051"><ele>1125.3999999999999</ele><time>2026-04-05T16:28:37Z</time></trkpt><trkpt lat="44.79687932134021" lon="9.326521224150405"><ele>1123.2</ele><time>2026-04-05T16:28:38Z</time></trkpt><trkpt lat="44.796854020128784" lon="9.326421493123638"><ele>1121.0</ele><time>2026-04-05T16:28:39Z</time></trkpt><trkpt lat="44.79677739154482" lon="9.326274797170743"><ele>1120.6</ele><time>2026-04-05T16:28:40Z</time></trkpt><trkpt lat="44.79672467517924" lon="9.326159606033622"><ele>1120.1999999999998</ele><time>2026-04-05T16:28:41Z</time></trkpt><trkpt lat="44.796692946912295" lon="9.32607731221851"><ele>1119.8000000000002</ele><time>2026-04-05T16:28:42Z</time></trkpt><trkpt lat="44.79674860418052" lon="9.32595335990738"><ele>1119.4</ele><time>2026-04-05T16:28:43Z</time></trkpt><trkpt lat="44.796785389388575" lon="9.325816590472574"><ele>1119.0</ele><time>2026-04-05T16:28:44Z</time></trkpt><trkpt lat="44.79687309046313" lon="9.325699734223903"><ele>1119.0</ele><time>2026-04-05T16:28:45Z</time></trkpt><trkpt lat="44.796962555438725" lon="9.32560067525534"><ele>1119.0</ele><time>2026-04-05T16:28:46Z</time></trkpt><trkpt lat="44.79701518849534" lon="9.325464044636439"><ele>1119.0</ele><time>2026-04-05T16:28:47Z</time></trkpt><trkpt lat="44.79704943826858" lon="9.325375892818661"><ele>1119.0</ele><time>2026-04-05T16:28:48Z</time></trkpt><trkpt lat="44.79706949446151" lon="9.325243210633289"><ele>1119.0</ele><time>2026-04-05T16:28:49Z</time></trkpt><trkpt lat="44.79706184731048" lon="9.325081048243657"><ele>1120.0</ele><time>2026-04-05T16:28:50Z</time></trkpt><trkpt lat="44.79700838115942" lon="9.3248916077916"><ele>1121.0</ele><time>2026-04-05T16:28:51Z</time></trkpt><trkpt lat="44.79696614519364" lon="9.324727379179011"><ele>1122.0</ele><time>2026-04-05T16:28:53Z</time></trkpt><trkpt lat="44.79699203298906" lon="9.32459240710895"><ele>1123.0</ele><time>2026-04-05T16:28:54Z</time></trkpt><trkpt lat="44.797058011874554" lon="9.324411468354652"><ele>1124.0</ele><time>2026-04-05T16:28:55Z</time></trkpt><trkpt lat="44.79715180334031" lon="9.324246244506325"><ele>1125.0</ele><time>2026-04-05T16:28:56Z</time></trkpt><trkpt lat="44.79721847930791" lon="9.324079874328723"><ele>1126.0</ele><time>2026-04-05T16:28:57Z</time></trkpt><trkpt lat="44.797261386432034" lon="9.323912089295767"><ele>1127.0</ele><time>2026-04-05T16:28:58Z</time></trkpt><trkpt lat="44.79728742118647" lon="9.323694350435236"><ele>1128.5</ele><time>2026-04-05T16:28:59Z</time></trkpt><trkpt lat="44.79730365311637" lon="9.323478100168542"><ele>1130.0</ele><time>2026-04-05T16:29:00Z</time></trkpt><trkpt lat="44.797315368514205" lon="9.323281531083168"><ele>1131.5</ele><time>2026-04-05T16:29:01Z</time></trkpt><trkpt lat="44.79731756260185" lon="9.323100688030312"><ele>1133.0</ele><time>2026-04-05T16:29:02Z</time></trkpt><trkpt lat="44.797330481404096" lon="9.322932935367772"><ele>1135.2</ele><time>2026-04-05T16:29:03Z</time></trkpt><trkpt lat="44.797332870594815" lon="9.322785767184907"><ele>1137.4</ele><time>2026-04-05T16:29:04Z</time></trkpt><trkpt lat="44.79733433978493" lon="9.32265153871112"><ele>1139.6000000000001</ele><time>2026-04-05T16:29:05Z</time></trkpt><trkpt lat="44.79735469217031" lon="9.322527437032395"><ele>1141.8</ele><time>2026-04-05T16:29:06Z</time></trkpt><trkpt lat="44.797414724354866" lon="9.32242881923188"><ele>1144.0</ele><time>2026-04-05T16:29:07Z</time></trkpt><trkpt lat="44.7974982427231" lon="9.322371343849506"><ele>1144.0</ele><time>2026-04-05T16:29:08Z</time></trkpt><trkpt lat="44.79761233176775" lon="9.322399053700142"><ele>1144.0</ele><time>2026-04-05T16:29:09Z</time></trkpt><trkpt lat="44.7977501456746" lon="9.322374369225562"><ele>1144.0</ele><time>2026-04-05T16:29:10Z</time></trkpt><trkpt lat="44.79788499013444" lon="9.32228885665826"><ele>1144.0</ele><time>2026-04-05T16:29:11Z</time></trkpt><trkpt lat="44.79801971373564" lon="9.32218852797403"><ele>1143.3333333333333</ele><time>2026-04-05T16:29:12Z</time></trkpt><trkpt lat="44.798143547129186" lon="9.322086425696423"><ele>1142.6666666666667</ele><time>2026-04-05T16:29:13Z</time></trkpt><trkpt lat="44.7982731762241" lon="9.321937193639407"><ele>1142.0</ele><time>2026-04-05T16:29:14Z</time></trkpt><trkpt lat="44.79838294432045" lon="9.321764713282523"><ele>1142.0</ele><time>2026-04-05T16:29:15Z</time></trkpt><trkpt lat="44.79849755615695" lon="9.321582603958912"><ele>1142.0</ele><time>2026-04-05T16:29:16Z</time></trkpt><trkpt lat="44.79859278468548" lon="9.321449390614877"><ele>1142.0</ele><time>2026-04-05T16:29:17Z</time></trkpt><trkpt lat="44.79869580776779" lon="9.321344474925256"><ele>1142.0</ele><time>2026-04-05T16:29:18Z</time></trkpt><trkpt lat="44.79879827126848" lon="9.32128077924408"><ele>1138.6</ele><time>2026-04-05T16:29:19Z</time></trkpt><trkpt lat="44.798903787996565" lon="9.321220871559397"><ele>1135.2</ele><time>2026-04-05T16:29:20Z</time></trkpt><trkpt lat="44.798971784719896" lon="9.321207327104966"><ele>1131.8</ele><time>2026-04-05T16:29:21Z</time></trkpt><trkpt lat="44.799047256639135" lon="9.321141362286868"><ele>1128.4</ele><time>2026-04-05T16:29:22Z</time></trkpt><trkpt lat="44.799108801552855" lon="9.321056341985019"><ele>1125.0</ele><time>2026-04-05T16:29:23Z</time></trkpt><trkpt lat="44.799126848742475" lon="9.3209200541782"><ele>1125.0</ele><time>2026-04-05T16:29:24Z</time></trkpt><trkpt lat="44.799093351926906" lon="9.320782531416508"><ele>1125.0</ele><time>2026-04-05T16:29:25Z</time></trkpt><trkpt lat="44.79908214056015" lon="9.320623242899394"><ele>1125.0</ele><time>2026-04-05T16:29:26Z</time></trkpt><trkpt lat="44.79906926067302" lon="9.320498341482054"><ele>1125.0</ele><time>2026-04-05T16:29:27Z</time></trkpt><trkpt lat="44.79904423140043" lon="9.320382350782118"><ele>1125.0</ele><time>2026-04-05T16:29:28Z</time></trkpt><trkpt lat="44.79899709705296" lon="9.320299099227743"><ele>1124.8</ele><time>2026-04-05T16:29:29Z</time></trkpt><trkpt lat="44.798926141910854" lon="9.320225230192971"><ele>1124.6</ele><time>2026-04-05T16:29:30Z</time></trkpt><trkpt lat="44.7988206889" lon="9.320161520103403"><ele>1124.4</ele><time>2026-04-05T16:29:31Z</time></trkpt><trkpt lat="44.79871389765131" lon="9.320093605810653"><ele>1124.2</ele><time>2026-04-05T16:29:32Z</time></trkpt><trkpt lat="44.79862511060746" lon="9.320034181841734"><ele>1124.0</ele><time>2026-04-05T16:29:33Z</time></trkpt><trkpt lat="44.79853167039765" lon="9.319981720072025"><ele>1128.0</ele><time>2026-04-05T16:29:34Z</time></trkpt><trkpt lat="44.79844819757134" lon="9.319934763664962"><ele>1132.0</ele><time>2026-04-05T16:29:35Z</time></trkpt><trkpt lat="44.79837274190354" lon="9.31989887631056"><ele>1136.0</ele><time>2026-04-05T16:29:36Z</time></trkpt><trkpt lat="44.79833908890141" lon="9.319810550946027"><ele>1140.0</ele><time>2026-04-05T16:29:37Z</time></trkpt><trkpt lat="44.79830640149745" lon="9.319698990485886"><ele>1144.0</ele><time>2026-04-05T16:29:38Z</time></trkpt><trkpt lat="44.798346974232494" lon="9.319619445256786"><ele>1148.0</ele><time>2026-04-05T16:29:39Z</time></trkpt><trkpt lat="44.798423564921315" lon="9.319560464113813"><ele>1142.75</ele><time>2026-04-05T16:29:40Z</time></trkpt><trkpt lat="44.798512417244226" lon="9.319507399446552"><ele>1137.5</ele><time>2026-04-05T16:29:40.999Z</time></trkpt><trkpt lat="44.79862679500215" lon="9.319483259191793"><ele>1132.25</ele><time>2026-04-05T16:29:41.999Z</time></trkpt><trkpt lat="44.79875910751821" lon="9.319442184866794"><ele>1127.0</ele><time>2026-04-05T16:29:42.999Z</time></trkpt><trkpt lat="44.79885994731761" lon="9.319381144322483"><ele>1127.0</ele><time>2026-04-05T16:29:43.999Z</time></trkpt><trkpt lat="44.798959340947306" lon="9.31933889807019"><ele>1127.0</ele><time>2026-04-05T16:29:44.999Z</time></trkpt><trkpt lat="44.79904652436668" lon="9.31919151221252"><ele>1127.0</ele><time>2026-04-05T16:29:45.999Z</time></trkpt><trkpt lat="44.79915984071175" lon="9.319037697021654"><ele>1127.0</ele><time>2026-04-05T16:29:46.999Z</time></trkpt><trkpt lat="44.799271050802304" lon="9.318920457769886"><ele>1123.8</ele><time>2026-04-05T16:29:47.999Z</time></trkpt><trkpt lat="44.79936536187388" lon="9.318799484720927"><ele>1120.6</ele><time>2026-04-05T16:29:48.999Z</time></trkpt><trkpt lat="44.799459632226984" lon="9.318708629314964"><ele>1117.3999999999999</ele><time>2026-04-05T16:29:49.999Z</time></trkpt><trkpt lat="44.79957029952812" lon="9.318647472925242"><ele>1114.2</ele><time>2026-04-05T16:29:50.999Z</time></trkpt><trkpt lat="44.799631641987524" lon="9.318560149088317"><ele>1111.0</ele><time>2026-04-05T16:29:51.999Z</time></trkpt><trkpt lat="44.799679526380515" lon="9.318454527500297"><ele>1111.0</ele><time>2026-04-05T16:29:52.999Z</time></trkpt><trkpt lat="44.7997136290718" lon="9.31832430805846"><ele>1111.0</ele><time>2026-04-05T16:29:53.999Z</time></trkpt><trkpt lat="44.79971959269891" lon="9.31814417088692"><ele>1111.0</ele><time>2026-04-05T16:29:54.999Z</time></trkpt><trkpt lat="44.7997385511313" lon="9.317971095814856"><ele>1111.0</ele><time>2026-04-05T16:29:55.999Z</time></trkpt><trkpt lat="44.79974682056684" lon="9.317809052699593"><ele>1111.0</ele><time>2026-04-05T16:29:56.999Z</time></trkpt><trkpt lat="44.799737572637135" lon="9.317660030695412"><ele>1111.0</ele><time>2026-04-05T16:29:57.999Z</time></trkpt><trkpt lat="44.79974973405323" lon="9.317504352260112"><ele>1111.0</ele><time>2026-04-05T16:29:58.999Z</time></trkpt><trkpt lat="44.79972826513535" lon="9.317351598306944"><ele>1111.0</ele><time>2026-04-05T16:29:59.999Z</time></trkpt><trkpt lat="44.799668249816676" lon="9.317175659439437"><ele>1111.0</ele><time>2026-04-05T16:30:00.999Z</time></trkpt><trkpt lat="44.799629277014546" lon="9.317044365109073"><ele>1111.0</ele><time>2026-04-05T16:30:01.999Z</time></trkpt><trkpt lat="44.799603879779525" lon="9.316919259142578"><ele>1111.0</ele><time>2026-04-05T16:30:02.999Z</time></trkpt><trkpt lat="44.799602744573654" lon="9.316805842100417"><ele>1111.0</ele><time>2026-04-05T16:30:03.999Z</time></trkpt><trkpt lat="44.79962780910776" lon="9.316671045009583"><ele>1111.0</ele><time>2026-04-05T16:30:04.999Z</time></trkpt><trkpt lat="44.79967376455207" lon="9.316511810141504"><ele>1112.25</ele><time>2026-04-05T16:30:05.999Z</time></trkpt><trkpt lat="44.79973002344052" lon="9.316340164475985"><ele>1113.5</ele><time>2026-04-05T16:30:06.999Z</time></trkpt><trkpt lat="44.79979609421275" lon="9.316143626070636"><ele>1114.75</ele><time>2026-04-05T16:30:07.999Z</time></trkpt><trkpt lat="44.79984252683315" lon="9.315981646792846"><ele>1116.0</ele><time>2026-04-05T16:30:08.999Z</time></trkpt><trkpt lat="44.79987246355624" lon="9.315762225441098"><ele>1116.0</ele><time>2026-04-05T16:30:09.999Z</time></trkpt><trkpt lat="44.799890857009224" lon="9.31557977738754"><ele>1116.0</ele><time>2026-04-05T16:30:10.999Z</time></trkpt><trkpt lat="44.79990101794234" lon="9.31539488556424"><ele>1116.0</ele><time>2026-04-05T16:30:11.999Z</time></trkpt><trkpt lat="44.799914567800016" lon="9.315215061372168"><ele>1116.0</ele><time>2026-04-05T16:30:12.999Z</time></trkpt><trkpt lat="44.799942526427046" lon="9.315107020846165"><ele>1117.8</ele><time>2026-04-05T16:30:13.999Z</time></trkpt><trkpt lat="44.80001740760719" lon="9.314977303075834"><ele>1119.6</ele><time>2026-04-05T16:30:14.999Z</time></trkpt><trkpt lat="44.80010328184726" lon="9.314872816218564"><ele>1121.4</ele><time>2026-04-05T16:30:15.999Z</time></trkpt><trkpt lat="44.800183433884946" lon="9.314780584895226"><ele>1123.2</ele><time>2026-04-05T16:30:16.999Z</time></trkpt><trkpt lat="44.800216753329565" lon="9.314668419666585"><ele>1125.0</ele><time>2026-04-05T16:30:17.999Z</time></trkpt><trkpt lat="44.80023887648812" lon="9.314529152745084"><ele>1120.0</ele><time>2026-04-05T16:30:18.999Z</time></trkpt><trkpt lat="44.800247306684355" lon="9.314378262930978"><ele>1115.0</ele><time>2026-04-05T16:30:19.999Z</time></trkpt><trkpt lat="44.80026219481964" lon="9.314201715160797"><ele>1110.0</ele><time>2026-04-05T16:30:20.999Z</time></trkpt><trkpt lat="44.80030543518106" lon="9.314053529338022"><ele>1105.0</ele><time>2026-04-05T16:30:21.999Z</time></trkpt><trkpt lat="44.80035875188001" lon="9.313925840869873"><ele>1105.3333333333333</ele><time>2026-04-05T16:30:22.999Z</time></trkpt><trkpt lat="44.80041880717635" lon="9.313830324395543"><ele>1105.6666666666665</ele><time>2026-04-05T16:30:23.999Z</time></trkpt><trkpt lat="44.800485728537616" lon="9.313746470298128"><ele>1106.0</ele><time>2026-04-05T16:30:24.999Z</time></trkpt><trkpt lat="44.8005511171196" lon="9.313664014119647"><ele>1106.3333333333333</ele><time>2026-04-05T16:30:25.999Z</time></trkpt><trkpt lat="44.80062522787508" lon="9.31362932543801"><ele>1106.6666666666667</ele><time>2026-04-05T16:30:26.999Z</time></trkpt><trkpt lat="44.800702549534954" lon="9.313577452345582"><ele>1107.0</ele><time>2026-04-05T16:30:27.999Z</time></trkpt><trkpt lat="44.80077847897043" lon="9.313540180015552"><ele>1107.0</ele><time>2026-04-05T16:30:28.999Z</time></trkpt><trkpt lat="44.800874990253405" lon="9.313506105922059"><ele>1107.0</ele><time>2026-04-05T16:30:29.999Z</time></trkpt><trkpt lat="44.80097922954494" lon="9.313547925580332"><ele>1107.0</ele><time>2026-04-05T16:30:30.999Z</time></trkpt><trkpt lat="44.80108297115199" lon="9.313598970274676"><ele>1107.0</ele><time>2026-04-05T16:30:31.999Z</time></trkpt><trkpt lat="44.80116621453399" lon="9.313660096871734"><ele>1107.0</ele><time>2026-04-05T16:30:32.999Z</time></trkpt><trkpt lat="44.80124208272352" lon="9.313689240901121"><ele>1106.0</ele><time>2026-04-05T16:30:33.999Z</time></trkpt><trkpt lat="44.80130467195098" lon="9.313728359999544"><ele>1105.0</ele><time>2026-04-05T16:30:34.999Z</time></trkpt><trkpt lat="44.80138968029391" lon="9.313756112841428"><ele>1104.0</ele><time>2026-04-05T16:30:36.999Z</time></trkpt><trkpt lat="44.80145665345504" lon="9.313751558105647"><ele>1103.0</ele><time>2026-04-05T16:30:40Z</time></trkpt><trkpt lat="44.80153508321719" lon="9.31372503923818"><ele>1102.0</ele><time>2026-04-05T16:31:50.999Z</time></trkpt><trkpt lat="44.80160831335471" lon="9.313654903782798"><ele>1101.0</ele><time>2026-04-05T16:31:52.999Z</time></trkpt><trkpt lat="44.801675891227646" lon="9.313586866906071"><ele>1101.0</ele><time>2026-04-05T16:31:54.999Z</time></trkpt><trkpt lat="44.80180454311944" lon="9.313486594868557"><ele>1101.0</ele><time>2026-04-05T16:31:56.999Z</time></trkpt><trkpt lat="44.80189201093995" lon="9.313405784064704"><ele>1101.0</ele><time>2026-04-05T16:31:57.999Z</time></trkpt><trkpt lat="44.801978508451874" lon="9.313354393372078"><ele>1101.0</ele><time>2026-04-05T16:31:58.999Z</time></trkpt><trkpt lat="44.8020731274289" lon="9.313255980642037"><ele>1100.3999999999999</ele><time>2026-04-05T16:31:59.999Z</time></trkpt><trkpt lat="44.80213591710492" lon="9.31315627205334"><ele>1099.8</ele><time>2026-04-05T16:32:00.999Z</time></trkpt><trkpt lat="44.80218508365345" lon="9.313034025728225"><ele>1099.1999999999998</ele><time>2026-04-05T16:32:01.999Z</time></trkpt><trkpt lat="44.802225051877734" lon="9.312889101346789"><ele>1098.6</ele><time>2026-04-05T16:32:02.999Z</time></trkpt><trkpt lat="44.80226355017985" lon="9.31275239044443"><ele>1098.0</ele><time>2026-04-05T16:32:03.999Z</time></trkpt><trkpt lat="44.80229063564121" lon="9.312607588651616"><ele>1098.0</ele><time>2026-04-05T16:32:04.999Z</time></trkpt><trkpt lat="44.80232342633797" lon="9.312473481130338"><ele>1098.0</ele><time>2026-04-05T16:32:05.999Z</time></trkpt><trkpt lat="44.802361870655886" lon="9.312373937332351"><ele>1098.0</ele><time>2026-04-05T16:32:06.999Z</time></trkpt><trkpt lat="44.80239309390178" lon="9.312278801555923"><ele>1098.0</ele><time>2026-04-05T16:32:07.999Z</time></trkpt><trkpt lat="44.80244258042295" lon="9.312142406727087"><ele>1098.0</ele><time>2026-04-05T16:32:09.999Z</time></trkpt><trkpt lat="44.80247836605961" lon="9.31204993621415"><ele>1098.0</ele><time>2026-04-05T16:32:18.999Z</time></trkpt><trkpt lat="44.80243378644643" lon="9.312122632641975"><ele>1098.0</ele><time>2026-04-05T16:32:31.999Z</time></trkpt><trkpt lat="44.802343233978895" lon="9.31233294107941"><ele>1098.0</ele><time>2026-04-05T16:32:33.999Z</time></trkpt><trkpt lat="44.80229114665785" lon="9.312500222377686"><ele>1098.0</ele><time>2026-04-05T16:32:34.999Z</time></trkpt><trkpt lat="44.802237240732886" lon="9.3126750731165"><ele>1098.0</ele><time>2026-04-05T16:32:35.999Z</time></trkpt><trkpt lat="44.80218391164153" lon="9.312858069990462"><ele>1098.0</ele><time>2026-04-05T16:32:36.999Z</time></trkpt><trkpt lat="44.8021420613144" lon="9.312993008130125"><ele>1098.0</ele><time>2026-04-05T16:32:37.999Z</time></trkpt><trkpt lat="44.80208955455667" lon="9.313110499600953"><ele>1098.0</ele><time>2026-04-05T16:32:38.999Z</time></trkpt><trkpt lat="44.80205104287256" lon="9.313193382520332"><ele>1098.0</ele><time>2026-04-05T16:32:39.999Z</time></trkpt><trkpt lat="44.80200987350131" lon="9.313311475963893"><ele>1098.0</ele><time>2026-04-05T16:32:41.999Z</time></trkpt><trkpt lat="44.802068692571716" lon="9.3133852711277"><ele>1098.0</ele><time>2026-04-05T16:32:43.999Z</time></trkpt><trkpt lat="44.80215024968541" lon="9.31340635808347"><ele>1097.0</ele><time>2026-04-05T16:32:44.999Z</time></trkpt><trkpt lat="44.802258115734936" lon="9.31340320600767"><ele>1096.0</ele><time>2026-04-05T16:32:46Z</time></trkpt><trkpt lat="44.802372458236334" lon="9.313366675343671"><ele>1095.0</ele><time>2026-04-05T16:32:47Z</time></trkpt><trkpt lat="44.80250931321059" lon="9.313296469481037"><ele>1094.0</ele><time>2026-04-05T16:32:48Z</time></trkpt><trkpt lat="44.80264441772014" lon="9.313195642132854"><ele>1093.5</ele><time>2026-04-05T16:32:49Z</time></trkpt><trkpt lat="44.80279439289639" lon="9.313105410047609"><ele>1093.0</ele><time>2026-04-05T16:32:50Z</time></trkpt><trkpt lat="44.802937853859845" lon="9.313002148933286"><ele>1092.5</ele><time>2026-04-05T16:32:51Z</time></trkpt><trkpt lat="44.80304455620972" lon="9.312913438508666"><ele>1092.0</ele><time>2026-04-05T16:32:52Z</time></trkpt><trkpt lat="44.80312819904023" lon="9.312869417481927"><ele>1092.0</ele><time>2026-04-05T16:32:53Z</time></trkpt><trkpt lat="44.803209216160134" lon="9.312850822820513"><ele>1092.0</ele><time>2026-04-05T16:32:54Z</time></trkpt><trkpt lat="44.803290182338735" lon="9.31285898969297"><ele>1092.0</ele><time>2026-04-05T16:32:55Z</time></trkpt><trkpt lat="44.80336021274545" lon="9.312927039238872"><ele>1092.0</ele><time>2026-04-05T16:32:56Z</time></trkpt><trkpt lat="44.803393811449496" lon="9.313090926461296"><ele>1092.0</ele><time>2026-04-05T16:32:57Z</time></trkpt><trkpt lat="44.803392202388494" lon="9.313206425452595"><ele>1092.0</ele><time>2026-04-05T16:32:58Z</time></trkpt><trkpt lat="44.80332835079021" lon="9.313323178097338"><ele>1092.0</ele><time>2026-04-05T16:32:59Z</time></trkpt><trkpt lat="44.80324629822249" lon="9.313469659251409"><ele>1092.0</ele><time>2026-04-05T16:33:00Z</time></trkpt><trkpt lat="44.80312800059144" lon="9.313661069646201"><ele>1092.0</ele><time>2026-04-05T16:33:01Z</time></trkpt><trkpt lat="44.80299017046958" lon="9.313870302247793"><ele>1091.0</ele><time>2026-04-05T16:33:02Z</time></trkpt><trkpt lat="44.80286537632455" lon="9.314051452555614"><ele>1090.0</ele><time>2026-04-05T16:33:03Z</time></trkpt><trkpt lat="44.80274482851854" lon="9.31421614792318"><ele>1089.0</ele><time>2026-04-05T16:33:04Z</time></trkpt><trkpt lat="44.802643235871" lon="9.314348325345096"><ele>1089.0</ele><time>2026-04-05T16:33:05Z</time></trkpt><trkpt lat="44.8025529015775" lon="9.314501647919567"><ele>1089.0</ele><time>2026-04-05T16:33:06Z</time></trkpt><trkpt lat="44.80247199925852" lon="9.314620116245079"><ele>1089.0</ele><time>2026-04-05T16:33:07Z</time></trkpt><trkpt lat="44.802407627789364" lon="9.314727136469966"><ele>1089.0</ele><time>2026-04-05T16:33:08Z</time></trkpt><trkpt lat="44.8023603976268" lon="9.314805300853466"><ele>1089.0</ele><time>2026-04-05T16:33:09Z</time></trkpt><trkpt lat="44.802329860327816" lon="9.314885334701899"><ele>1086.5</ele><time>2026-04-05T16:33:10Z</time></trkpt><trkpt lat="44.80239286525867" lon="9.315035866076636"><ele>1084.0</ele><time>2026-04-05T16:33:12Z</time></trkpt><trkpt lat="44.80245894757243" lon="9.315097303799455"><ele>1081.5</ele><time>2026-04-05T16:33:13Z</time></trkpt><trkpt lat="44.80263098309612" lon="9.315039023424422"><ele>1079.0</ele><time>2026-04-05T16:33:15Z</time></trkpt><trkpt lat="44.80275234986369" lon="9.314960916692117"><ele>1076.0</ele><time>2026-04-05T16:33:16Z</time></trkpt><trkpt lat="44.80288014114563" lon="9.314898680728039"><ele>1073.0</ele><time>2026-04-05T16:33:17Z</time></trkpt><trkpt lat="44.80303666325544" lon="9.314831195471035"><ele>1070.0</ele><time>2026-04-05T16:33:18Z</time></trkpt><trkpt lat="44.80320869675598" lon="9.314886708145986"><ele>1070.0</ele><time>2026-04-05T16:33:19Z</time></trkpt><trkpt lat="44.80339396051389" lon="9.31486889634961"><ele>1070.0</ele><time>2026-04-05T16:33:20Z</time></trkpt><trkpt lat="44.80356729963717" lon="9.314863173263376"><ele>1070.0</ele><time>2026-04-05T16:33:21Z</time></trkpt><trkpt lat="44.80372460178176" lon="9.314883244581571"><ele>1069.25</ele><time>2026-04-05T16:33:22Z</time></trkpt><trkpt lat="44.80386763739361" lon="9.314881055292869"><ele>1068.5</ele><time>2026-04-05T16:33:23Z</time></trkpt><trkpt lat="44.80399643210547" lon="9.314896457835605"><ele>1067.75</ele><time>2026-04-05T16:33:24Z</time></trkpt><trkpt lat="44.804117924314006" lon="9.314910942929528"><ele>1067.0</ele><time>2026-04-05T16:33:25Z</time></trkpt><trkpt lat="44.80421249755182" lon="9.314960196216045"><ele>1067.0</ele><time>2026-04-05T16:33:26Z</time></trkpt><trkpt lat="44.80430821714429" lon="9.315010283277047"><ele>1067.0</ele><time>2026-04-05T16:33:27Z</time></trkpt><trkpt lat="44.80439009319303" lon="9.315117975454301"><ele>1067.0</ele><time>2026-04-05T16:33:28Z</time></trkpt><trkpt lat="44.80447005786772" lon="9.315282165388076"><ele>1067.0</ele><time>2026-04-05T16:33:29Z</time></trkpt><trkpt lat="44.804541482632345" lon="9.315445224244804"><ele>1065.75</ele><time>2026-04-05T16:33:30Z</time></trkpt><trkpt lat="44.804620098755834" lon="9.315582943188225"><ele>1064.5</ele><time>2026-04-05T16:33:31Z</time></trkpt><trkpt lat="44.804683454376296" lon="9.315715693467075"><ele>1063.25</ele><time>2026-04-05T16:33:32Z</time></trkpt><trkpt lat="44.804752875300906" lon="9.315824685567277"><ele>1062.0</ele><time>2026-04-05T16:33:33Z</time></trkpt><trkpt lat="44.804849840416466" lon="9.315922678691024"><ele>1062.0</ele><time>2026-04-05T16:33:34Z</time></trkpt><trkpt lat="44.804955183154576" lon="9.316011012843104"><ele>1062.0</ele><time>2026-04-05T16:33:35Z</time></trkpt><trkpt lat="44.805055149180724" lon="9.3160925074771"><ele>1062.0</ele><time>2026-04-05T16:33:36Z</time></trkpt><trkpt lat="44.805161512980696" lon="9.316155853693743"><ele>1062.0</ele><time>2026-04-05T16:33:37Z</time></trkpt><trkpt lat="44.805270850478465" lon="9.316217504317153"><ele>1061.0</ele><time>2026-04-05T16:33:38Z</time></trkpt><trkpt lat="44.805416029729244" lon="9.316281653581761"><ele>1060.0</ele><time>2026-04-05T16:33:39Z</time></trkpt><trkpt lat="44.80554408693485" lon="9.316335923949673"><ele>1059.0</ele><time>2026-04-05T16:33:40Z</time></trkpt><trkpt lat="44.80565954240024" lon="9.316387685540208"><ele>1058.0</ele><time>2026-04-05T16:33:41Z</time></trkpt><trkpt lat="44.80577135071277" lon="9.31644068835332"><ele>1058.0</ele><time>2026-04-05T16:33:42Z</time></trkpt><trkpt lat="44.80588197352458" lon="9.316527660038652"><ele>1058.0</ele><time>2026-04-05T16:33:43Z</time></trkpt><trkpt lat="44.80602958306427" lon="9.316656715174334"><ele>1058.0</ele><time>2026-04-05T16:33:44Z</time></trkpt><trkpt lat="44.80615394987163" lon="9.316790710748682"><ele>1059.25</ele><time>2026-04-05T16:33:45Z</time></trkpt><trkpt lat="44.80627413817666" lon="9.316893182254237"><ele>1060.5</ele><time>2026-04-05T16:33:46Z</time></trkpt><trkpt lat="44.80638348883574" lon="9.31698834870353"><ele>1061.75</ele><time>2026-04-05T16:33:47Z</time></trkpt><trkpt lat="44.80649624720651" lon="9.317084371643617"><ele>1063.0</ele><time>2026-04-05T16:33:48Z</time></trkpt><trkpt lat="44.8065992579896" lon="9.317159750310855"><ele>1063.0</ele><time>2026-04-05T16:33:49Z</time></trkpt><trkpt lat="44.806713095600024" lon="9.317211418998161"><ele>1063.0</ele><time>2026-04-05T16:33:49.999Z</time></trkpt><trkpt lat="44.80680551717164" lon="9.317256137394345"><ele>1063.0</ele><time>2026-04-05T16:33:50.999Z</time></trkpt><trkpt lat="44.806909739533154" lon="9.317297642571175"><ele>1063.0</ele><time>2026-04-05T16:33:51.999Z</time></trkpt><trkpt lat="44.80698220351155" lon="9.317289308782794"><ele>1063.0</ele><time>2026-04-05T16:33:52.999Z</time></trkpt><trkpt lat="44.80707144623464" lon="9.31729283285139"><ele>1061.6666666666665</ele><time>2026-04-05T16:33:53.999Z</time></trkpt><trkpt lat="44.80714489250642" lon="9.317307095077265"><ele>1060.3333333333333</ele><time>2026-04-05T16:33:54.999Z</time></trkpt><trkpt lat="44.80721550151471" lon="9.317382701920344"><ele>1059.0</ele><time>2026-04-05T16:33:55.999Z</time></trkpt><trkpt lat="44.80723158237006" lon="9.317511062272144"><ele>1057.6666666666667</ele><time>2026-04-05T16:33:56.999Z</time></trkpt><trkpt lat="44.807274901808725" lon="9.317616847678824"><ele>1056.3333333333335</ele><time>2026-04-05T16:33:57.999Z</time></trkpt><trkpt lat="44.80732790237593" lon="9.317733796605882"><ele>1055.0</ele><time>2026-04-05T16:33:58.999Z</time></trkpt><trkpt lat="44.80738880630341" lon="9.31780741603769"><ele>1055.0</ele><time>2026-04-05T16:33:59.999Z</time></trkpt><trkpt lat="44.80745247163851" lon="9.317893666839451"><ele>1055.0</ele><time>2026-04-05T16:34:00.999Z</time></trkpt><trkpt lat="44.80753574692328" lon="9.317913287463586"><ele>1055.0</ele><time>2026-04-05T16:34:01.999Z</time></trkpt><trkpt lat="44.80762741273676" lon="9.317956097663062"><ele>1055.0</ele><time>2026-04-05T16:34:02.999Z</time></trkpt><trkpt lat="44.807749145427564" lon="9.318025716862207"><ele>1055.0</ele><time>2026-04-05T16:34:03.999Z</time></trkpt><trkpt lat="44.80790847264163" lon="9.318142288752808"><ele>1052.0</ele><time>2026-04-05T16:34:04.999Z</time></trkpt><trkpt lat="44.808046232215126" lon="9.318250586196122"><ele>1049.0</ele><time>2026-04-05T16:34:05.999Z</time></trkpt><trkpt lat="44.80814862202476" lon="9.318407140869578"><ele>1046.0</ele><time>2026-04-05T16:34:06.999Z</time></trkpt><trkpt lat="44.808255078997846" lon="9.318500949163889"><ele>1043.0</ele><time>2026-04-05T16:34:07.999Z</time></trkpt><trkpt lat="44.80835429807351" lon="9.318565232918186"><ele>1043.0</ele><time>2026-04-05T16:34:08.999Z</time></trkpt><trkpt lat="44.808458145074724" lon="9.318620961727358"><ele>1043.0</ele><time>2026-04-05T16:34:09.999Z</time></trkpt><trkpt lat="44.80851160667912" lon="9.318752435978778"><ele>1043.0</ele><time>2026-04-05T16:34:11.999Z</time></trkpt><trkpt lat="44.80850730386906" lon="9.318858356329418"><ele>1043.0</ele><time>2026-04-05T16:34:12.999Z</time></trkpt><trkpt lat="44.808447734156374" lon="9.318946451882072"><ele>1043.0</ele><time>2026-04-05T16:34:13.999Z</time></trkpt><trkpt lat="44.80836423882828" lon="9.31897031417198"><ele>1043.0</ele><time>2026-04-05T16:34:14.999Z</time></trkpt><trkpt lat="44.808296675531324" lon="9.318926279990034"><ele>1043.0</ele><time>2026-04-05T16:34:15.999Z</time></trkpt><trkpt lat="44.80821196467484" lon="9.31885478862156"><ele>1043.0</ele><time>2026-04-05T16:34:16.999Z</time></trkpt><trkpt lat="44.80812390491584" lon="9.31874071221223"><ele>1043.0</ele><time>2026-04-05T16:34:17.999Z</time></trkpt><trkpt lat="44.80805317946089" lon="9.318605964658824"><ele>1043.0</ele><time>2026-04-05T16:34:18.999Z</time></trkpt><trkpt lat="44.80798531496326" lon="9.318500523120111"><ele>1043.0</ele><time>2026-04-05T16:34:19.999Z</time></trkpt><trkpt lat="44.807941212095905" lon="9.318398324651305"><ele>1043.0</ele><time>2026-04-05T16:34:20.999Z</time></trkpt><trkpt lat="44.80787804142492" lon="9.318336843535919"><ele>1043.0</ele><time>2026-04-05T16:34:21.999Z</time></trkpt><trkpt lat="44.80777627773536" lon="9.31824066222584"><ele>1043.0</ele><time>2026-04-05T16:34:23.999Z</time></trkpt><trkpt lat="44.807711869620356" lon="9.318301572196795"><ele>1043.0</ele><time>2026-04-05T16:34:24.999Z</time></trkpt><trkpt lat="44.807637737307324" lon="9.318492596556725"><ele>1043.0</ele><time>2026-04-05T16:34:26.999Z</time></trkpt><trkpt lat="44.807738251704855" lon="9.318743384533033"><ele>1043.0</ele><time>2026-04-05T16:34:28.999Z</time></trkpt><trkpt lat="44.80782680259007" lon="9.318826641037857"><ele>1043.0</ele><time>2026-04-05T16:34:29.999Z</time></trkpt><trkpt lat="44.80793314795888" lon="9.318865573418599"><ele>1043.0</ele><time>2026-04-05T16:34:30.999Z</time></trkpt><trkpt lat="44.80802024726397" lon="9.318951926223132"><ele>1039.25</ele><time>2026-04-05T16:34:31.999Z</time></trkpt><trkpt lat="44.808114016496354" lon="9.319078265743519"><ele>1035.5</ele><time>2026-04-05T16:34:32.999Z</time></trkpt><trkpt lat="44.80819959867609" lon="9.319200119010233"><ele>1031.75</ele><time>2026-04-05T16:34:33.999Z</time></trkpt><trkpt lat="44.80828901401505" lon="9.319318710143188"><ele>1028.0</ele><time>2026-04-05T16:34:34.999Z</time></trkpt><trkpt lat="44.808442541392566" lon="9.319460277807181"><ele>1028.0</ele><time>2026-04-05T16:34:35.999Z</time></trkpt><trkpt lat="44.808572087856014" lon="9.319569879470098"><ele>1028.0</ele><time>2026-04-05T16:34:36.999Z</time></trkpt><trkpt lat="44.80869307198712" lon="9.319671809442896"><ele>1028.0</ele><time>2026-04-05T16:34:37.999Z</time></trkpt><trkpt lat="44.808809173690534" lon="9.319771290612957"><ele>1028.0</ele><time>2026-04-05T16:34:38.999Z</time></trkpt><trkpt lat="44.80894583458051" lon="9.319842532702076"><ele>1024.6666666666667</ele><time>2026-04-05T16:34:39.999Z</time></trkpt><trkpt lat="44.80906647228148" lon="9.319937814924018"><ele>1021.3333333333333</ele><time>2026-04-05T16:34:40.999Z</time></trkpt><trkpt lat="44.80918104450512" lon="9.320090529080316"><ele>1018.0</ele><time>2026-04-05T16:34:41.999Z</time></trkpt><trkpt lat="44.809244973086436" lon="9.320297491547459"><ele>1018.0</ele><time>2026-04-05T16:34:42.999Z</time></trkpt><trkpt lat="44.80931365924135" lon="9.32048257079435"><ele>1018.0</ele><time>2026-04-05T16:34:43.999Z</time></trkpt><trkpt lat="44.80937963437234" lon="9.3206051533978"><ele>1018.0</ele><time>2026-04-05T16:34:44.999Z</time></trkpt><trkpt lat="44.809425854787214" lon="9.320701670605647"><ele>1018.0</ele><time>2026-04-05T16:34:45.999Z</time></trkpt><trkpt lat="44.809467407213454" lon="9.320779296691793"><ele>1018.0</ele><time>2026-04-05T16:34:46.999Z</time></trkpt><trkpt lat="44.80954287623511" lon="9.320857297511335"><ele>1015.0</ele><time>2026-04-05T16:34:48.999Z</time></trkpt><trkpt lat="44.80966483744112" lon="9.320882662178457"><ele>1012.0</ele><time>2026-04-05T16:34:50.999Z</time></trkpt><trkpt lat="44.80972230848473" lon="9.320840433032146"><ele>1009.0</ele><time>2026-04-05T16:34:52Z</time></trkpt><trkpt lat="44.80980713433793" lon="9.32079167351081"><ele>1006.0</ele><time>2026-04-05T16:34:53Z</time></trkpt><trkpt lat="44.80989334163763" lon="9.320734366811198"><ele>1003.0</ele><time>2026-04-05T16:34:54Z</time></trkpt><trkpt lat="44.809960828070366" lon="9.320579903859077"><ele>1002.9999999999999</ele><time>2026-04-05T16:34:55Z</time></trkpt><trkpt lat="44.81004857089979" lon="9.320545897497537"><ele>1003.0</ele><time>2026-04-05T16:34:56Z</time></trkpt><trkpt lat="44.810154347216766" lon="9.320548958092255"><ele>1003.0</ele><time>2026-04-05T16:34:57Z</time></trkpt><trkpt lat="44.81022895548162" lon="9.3206401629487"><ele>1003.0</ele><time>2026-04-05T16:34:58Z</time></trkpt><trkpt lat="44.8102192666846" lon="9.320748693059183"><ele>1002.9999999999999</ele><time>2026-04-05T16:34:59Z</time></trkpt><trkpt lat="44.81019692638095" lon="9.320843316035342"><ele>1003.0</ele><time>2026-04-05T16:35:00Z</time></trkpt><trkpt lat="44.8101147243728" lon="9.32091262121484"><ele>1003.0</ele><time>2026-04-05T16:35:01Z</time></trkpt><trkpt lat="44.81003236094051" lon="9.321009267227305"><ele>1003.0</ele><time>2026-04-05T16:35:02Z</time></trkpt><trkpt lat="44.80994151529446" lon="9.321108938561556"><ele>1003.0</ele><time>2026-04-05T16:35:03Z</time></trkpt><trkpt lat="44.809847039055505" lon="9.321198890125496"><ele>1003.0</ele><time>2026-04-05T16:35:04Z</time></trkpt><trkpt lat="44.8097516087361" lon="9.321279256608246"><ele>1003.0</ele><time>2026-04-05T16:35:05Z</time></trkpt><trkpt lat="44.809673433858094" lon="9.321320304421855"><ele>1003.0</ele><time>2026-04-05T16:35:06Z</time></trkpt><trkpt lat="44.8095618336587" lon="9.321320999703401"><ele>1003.0</ele><time>2026-04-05T16:35:08Z</time></trkpt><trkpt lat="44.80948854206838" lon="9.321279619487242"><ele>1003.0</ele><time>2026-04-05T16:35:09Z</time></trkpt><trkpt lat="44.809419863167456" lon="9.321195528625637"><ele>1003.0</ele><time>2026-04-05T16:35:10Z</time></trkpt><trkpt lat="44.8093463855091" lon="9.321065800045043"><ele>1003.0</ele><time>2026-04-05T16:35:11Z</time></trkpt><trkpt lat="44.809283891062286" lon="9.320955870371163"><ele>1003.2</ele><time>2026-04-05T16:35:12Z</time></trkpt><trkpt lat="44.8092266191093" lon="9.320858594030902"><ele>1003.4</ele><time>2026-04-05T16:35:13Z</time></trkpt><trkpt lat="44.809151309539004" lon="9.320762616737"><ele>1003.6000000000001</ele><time>2026-04-05T16:35:14Z</time></trkpt><trkpt lat="44.809046328807604" lon="9.320728212214139"><ele>1003.8000000000001</ele><time>2026-04-05T16:35:15Z</time></trkpt><trkpt lat="44.80891961729197" lon="9.320738782313764"><ele>1004.0</ele><time>2026-04-05T16:35:16Z</time></trkpt><trkpt lat="44.8087811631388" lon="9.32078037036227"><ele>1004.0</ele><time>2026-04-05T16:35:17Z</time></trkpt><trkpt lat="44.808662936522964" lon="9.320774815014264"><ele>1004.0</ele><time>2026-04-05T16:35:18Z</time></trkpt><trkpt lat="44.80854305582619" lon="9.32078851118641"><ele>1004.0</ele><time>2026-04-05T16:35:19Z</time></trkpt><trkpt lat="44.808422494810046" lon="9.320749771605659"><ele>1004.0</ele><time>2026-04-05T16:35:20Z</time></trkpt><trkpt lat="44.808301258930605" lon="9.320679600535895"><ele>1005.4000000000001</ele><time>2026-04-05T16:35:21Z</time></trkpt><trkpt lat="44.80818697793812" lon="9.32059270118007"><ele>1006.8000000000001</ele><time>2026-04-05T16:35:22Z</time></trkpt><trkpt lat="44.80808889076474" lon="9.320513219259167"><ele>1008.1999999999999</ele><time>2026-04-05T16:35:23Z</time></trkpt><trkpt lat="44.80800874120474" lon="9.32043564704646"><ele>1009.5999999999999</ele><time>2026-04-05T16:35:24Z</time></trkpt><trkpt lat="44.8079333862736" lon="9.320402759408934"><ele>1011.0</ele><time>2026-04-05T16:35:25Z</time></trkpt><trkpt lat="44.807850966703455" lon="9.320401704451083"><ele>1011.0</ele><time>2026-04-05T16:35:26Z</time></trkpt><trkpt lat="44.807779167065284" lon="9.320433297768828"><ele>1010.9999999999999</ele><time>2026-04-05T16:35:27Z</time></trkpt><trkpt lat="44.807695122995064" lon="9.320495829883493"><ele>1010.9999999999999</ele><time>2026-04-05T16:35:28Z</time></trkpt><trkpt lat="44.80759120261124" lon="9.320578816449737"><ele>1011.0</ele><time>2026-04-05T16:35:29Z</time></trkpt><trkpt lat="44.80749506640828" lon="9.32067362698301"><ele>1011.0</ele><time>2026-04-05T16:35:30Z</time></trkpt><trkpt lat="44.8073994968864" lon="9.320733911743371"><ele>1006.5999999999999</ele><time>2026-04-05T16:35:31Z</time></trkpt><trkpt lat="44.807309123068016" lon="9.320807190166464"><ele>1002.1999999999999</ele><time>2026-04-05T16:35:32Z</time></trkpt><trkpt lat="44.807213087029425" lon="9.320860821418691"><ele>997.8000000000001</ele><time>2026-04-05T16:35:33Z</time></trkpt><trkpt lat="44.80711891322985" lon="9.320898521505503"><ele>993.4000000000001</ele><time>2026-04-05T16:35:34Z</time></trkpt><trkpt lat="44.80701290045729" lon="9.320897907710535"><ele>989.0</ele><time>2026-04-05T16:35:35Z</time></trkpt><trkpt lat="44.806905115945256" lon="9.320867937311911"><ele>988.5</ele><time>2026-04-05T16:35:36Z</time></trkpt><trkpt lat="44.8067797661443" lon="9.320827274597804"><ele>988.0</ele><time>2026-04-05T16:35:37Z</time></trkpt><trkpt lat="44.80666465340161" lon="9.320762457943436"><ele>987.5</ele><time>2026-04-05T16:35:38Z</time></trkpt><trkpt lat="44.80656686799679" lon="9.320696331415895"><ele>987.0</ele><time>2026-04-05T16:35:39Z</time></trkpt><trkpt lat="44.80646905871391" lon="9.320660093479423"><ele>987.0</ele><time>2026-04-05T16:35:40Z</time></trkpt><trkpt lat="44.806374538048516" lon="9.320648782490514"><ele>987.0</ele><time>2026-04-05T16:35:41Z</time></trkpt><trkpt lat="44.8062736042103" lon="9.32066182919008"><ele>987.0</ele><time>2026-04-05T16:35:42Z</time></trkpt><trkpt lat="44.806176598431726" lon="9.32070105728785"><ele>987.0</ele><time>2026-04-05T16:35:43Z</time></trkpt><trkpt lat="44.80607103000042" lon="9.32075739350976"><ele>987.0</ele><time>2026-04-05T16:35:44Z</time></trkpt><trkpt lat="44.805967524720565" lon="9.32082667706459"><ele>987.2</ele><time>2026-04-05T16:35:45Z</time></trkpt><trkpt lat="44.80586589567724" lon="9.320884149804856"><ele>987.4000000000001</ele><time>2026-04-05T16:35:46Z</time></trkpt><trkpt lat="44.80576651371741" lon="9.320941170793734"><ele>987.5999999999999</ele><time>2026-04-05T16:35:47Z</time></trkpt><trkpt lat="44.80567790051529" lon="9.320982631809763"><ele>987.8</ele><time>2026-04-05T16:35:48Z</time></trkpt><trkpt lat="44.80560177928785" lon="9.321016877466473"><ele>988.0</ele><time>2026-04-05T16:35:49Z</time></trkpt><trkpt lat="44.80554041949254" lon="9.32108502092048"><ele>988.0</ele><time>2026-04-05T16:35:50Z</time></trkpt><trkpt lat="44.80550157884782" lon="9.321176082501303"><ele>988.0</ele><time>2026-04-05T16:35:51Z</time></trkpt><trkpt lat="44.80549788910445" lon="9.321272320500459"><ele>988.0</ele><time>2026-04-05T16:35:52Z</time></trkpt><trkpt lat="44.80552311765803" lon="9.321358377879603"><ele>988.0</ele><time>2026-04-05T16:35:53Z</time></trkpt><trkpt lat="44.80557179110265" lon="9.321444248686602"><ele>988.0</ele><time>2026-04-05T16:35:54Z</time></trkpt><trkpt lat="44.8056357004206" lon="9.321498520338496"><ele>988.0</ele><time>2026-04-05T16:35:54.999Z</time></trkpt><trkpt lat="44.80571777565785" lon="9.32152424212615"><ele>988.0</ele><time>2026-04-05T16:35:55.999Z</time></trkpt><trkpt lat="44.805817724147325" lon="9.321532434886972"><ele>985.5999999999999</ele><time>2026-04-05T16:35:56.999Z</time></trkpt><trkpt lat="44.80594059614636" lon="9.321552351994118"><ele>983.1999999999999</ele><time>2026-04-05T16:35:57.999Z</time></trkpt><trkpt lat="44.80604877507588" lon="9.321570820354351"><ele>980.8</ele><time>2026-04-05T16:35:58.999Z</time></trkpt><trkpt lat="44.80616306349615" lon="9.321580343562161"><ele>978.4</ele><time>2026-04-05T16:35:59.999Z</time></trkpt><trkpt lat="44.806257680552704" lon="9.321584106367458"><ele>976.0</ele><time>2026-04-05T16:36:00.999Z</time></trkpt><trkpt lat="44.806327219522004" lon="9.321596072855916"><ele>975.5</ele><time>2026-04-05T16:36:01.999Z</time></trkpt><trkpt lat="44.80643527114528" lon="9.321666479736301"><ele>975.0</ele><time>2026-04-05T16:36:03.999Z</time></trkpt><trkpt lat="44.80652404030493" lon="9.32179024804524"><ele>974.5</ele><time>2026-04-05T16:36:05.999Z</time></trkpt><trkpt lat="44.80648730739726" lon="9.322026479312324"><ele>974.0</ele><time>2026-04-05T16:36:07.999Z</time></trkpt><trkpt lat="44.80643314989884" lon="9.322130495274852"><ele>972.0</ele><time>2026-04-05T16:36:08.999Z</time></trkpt><trkpt lat="44.80635352944883" lon="9.322243784077983"><ele>970.0000000000001</ele><time>2026-04-05T16:36:09.999Z</time></trkpt><trkpt lat="44.80626510467587" lon="9.322353342469938"><ele>968.0000000000001</ele><time>2026-04-05T16:36:10.999Z</time></trkpt><trkpt lat="44.80618916221538" lon="9.32247122919765"><ele>966.0</ele><time>2026-04-05T16:36:11.999Z</time></trkpt><trkpt lat="44.806113635410995" lon="9.322560181241522"><ele>964.0</ele><time>2026-04-05T16:36:12.999Z</time></trkpt><trkpt lat="44.80608530643722" lon="9.322656730858062"><ele>964.0</ele><time>2026-04-05T16:36:13.999Z</time></trkpt><trkpt lat="44.806037565641766" lon="9.322765972548366"><ele>964.0000000000001</ele><time>2026-04-05T16:36:14.999Z</time></trkpt><trkpt lat="44.8060264003547" lon="9.322894297800262"><ele>964.0000000000001</ele><time>2026-04-05T16:36:15.999Z</time></trkpt><trkpt lat="44.80601465306945" lon="9.32303680082897"><ele>964.0</ele><time>2026-04-05T16:36:16.999Z</time></trkpt><trkpt lat="44.80599771516933" lon="9.323147497745424"><ele>964.0</ele><time>2026-04-05T16:36:17.999Z</time></trkpt><trkpt lat="44.805943066970265" lon="9.323265640380686"><ele>964.2</ele><time>2026-04-05T16:36:18.999Z</time></trkpt><trkpt lat="44.80587326224501" lon="9.323394000638755"><ele>964.4000000000001</ele><time>2026-04-05T16:36:19.999Z</time></trkpt><trkpt lat="44.805805590835995" lon="9.323501996280084"><ele>964.6</ele><time>2026-04-05T16:36:20.999Z</time></trkpt><trkpt lat="44.80576472908433" lon="9.323601295746359"><ele>964.8</ele><time>2026-04-05T16:36:21.999Z</time></trkpt><trkpt lat="44.80570197608277" lon="9.323735525878329"><ele>965.0</ele><time>2026-04-05T16:36:23.999Z</time></trkpt><trkpt lat="44.805729540028736" lon="9.323916769961407"><ele>963.4</ele><time>2026-04-05T16:36:25.999Z</time></trkpt><trkpt lat="44.80577697476805" lon="9.32397581689054"><ele>961.8</ele><time>2026-04-05T16:36:26.999Z</time></trkpt><trkpt lat="44.80590341033963" lon="9.323953283154795"><ele>960.2</ele><time>2026-04-05T16:36:28.999Z</time></trkpt><trkpt lat="44.80597503712183" lon="9.323902527963572"><ele>958.6</ele><time>2026-04-05T16:36:29.999Z</time></trkpt><trkpt lat="44.80607044173434" lon="9.323853875797118"><ele>957.0</ele><time>2026-04-05T16:36:30.999Z</time></trkpt><trkpt lat="44.80614865212134" lon="9.32377649381131"><ele>957.0</ele><time>2026-04-05T16:36:31.999Z</time></trkpt><trkpt lat="44.80621931276185" lon="9.323693235929868"><ele>957.0</ele><time>2026-04-05T16:36:32.999Z</time></trkpt><trkpt lat="44.80627264707483" lon="9.323594113904877"><ele>957.0</ele><time>2026-04-05T16:36:33.999Z</time></trkpt><trkpt lat="44.806336389297286" lon="9.323536677194987"><ele>957.0</ele><time>2026-04-05T16:36:34.999Z</time></trkpt><trkpt lat="44.80639452248301" lon="9.323483150433411"><ele>957.0</ele><time>2026-04-05T16:36:35.999Z</time></trkpt><trkpt lat="44.806477784453115" lon="9.32343337627244"><ele>957.0</ele><time>2026-04-05T16:36:36.999Z</time></trkpt><trkpt lat="44.806565767215425" lon="9.323298758567669"><ele>957.0</ele><time>2026-04-05T16:36:37.999Z</time></trkpt><trkpt lat="44.80667284678326" lon="9.323201222195602"><ele>957.0</ele><time>2026-04-05T16:36:38.999Z</time></trkpt><trkpt lat="44.8067688935478" lon="9.323131802786511"><ele>957.0</ele><time>2026-04-05T16:36:39.999Z</time></trkpt><trkpt lat="44.80686394574665" lon="9.323110260285729"><ele>957.0</ele><time>2026-04-05T16:36:40.999Z</time></trkpt><trkpt lat="44.80699748143642" lon="9.323106040729975"><ele>956.6666666666667</ele><time>2026-04-05T16:36:41.999Z</time></trkpt><trkpt lat="44.80714051559937" lon="9.323162211108952"><ele>956.3333333333334</ele><time>2026-04-05T16:36:42.999Z</time></trkpt><trkpt lat="44.807280250395685" lon="9.323235438162925"><ele>956.0</ele><time>2026-04-05T16:36:43.999Z</time></trkpt><trkpt lat="44.80743413522438" lon="9.323325057432735"><ele>956.0</ele><time>2026-04-05T16:36:44.999Z</time></trkpt><trkpt lat="44.8075532514811" lon="9.323389439164464"><ele>956.0</ele><time>2026-04-05T16:36:45.999Z</time></trkpt><trkpt lat="44.80764348114989" lon="9.323431748219676"><ele>956.0</ele><time>2026-04-05T16:36:46.999Z</time></trkpt><trkpt lat="44.8077601969711" lon="9.323474807683954"><ele>956.0</ele><time>2026-04-05T16:36:47.999Z</time></trkpt><trkpt lat="44.80789749336382" lon="9.323513789104544"><ele>955.5</ele><time>2026-04-05T16:36:48.999Z</time></trkpt><trkpt lat="44.80804341869699" lon="9.323524097976899"><ele>955.0</ele><time>2026-04-05T16:36:49.999Z</time></trkpt><trkpt lat="44.80818425962434" lon="9.323537492929471"><ele>954.5</ele><time>2026-04-05T16:36:50.999Z</time></trkpt><trkpt lat="44.808304478818705" lon="9.323553281025646"><ele>954.0</ele><time>2026-04-05T16:36:51.999Z</time></trkpt><trkpt lat="44.80842260740234" lon="9.323561930586582"><ele>954.6</ele><time>2026-04-05T16:36:52.999Z</time></trkpt><trkpt lat="44.808518189368684" lon="9.323605335588551"><ele>955.2</ele><time>2026-04-05T16:36:53.999Z</time></trkpt><trkpt lat="44.80860391124125" lon="9.323679342497973"><ele>955.8000000000001</ele><time>2026-04-05T16:36:54.999Z</time></trkpt><trkpt lat="44.80868465893321" lon="9.323774904776995"><ele>956.4000000000001</ele><time>2026-04-05T16:36:55.999Z</time></trkpt><trkpt lat="44.80874922055455" lon="9.323874262113346"><ele>957.0</ele><time>2026-04-05T16:36:56.999Z</time></trkpt><trkpt lat="44.80884739112064" lon="9.323941065061165"><ele>954.25</ele><time>2026-04-05T16:36:58Z</time></trkpt><trkpt lat="44.80895542989107" lon="9.323972470554768"><ele>951.5</ele><time>2026-04-05T16:36:59Z</time></trkpt><trkpt lat="44.809088390753566" lon="9.323985862950948"><ele>948.75</ele><time>2026-04-05T16:37:00Z</time></trkpt><trkpt lat="44.80920964145133" lon="9.323994682629223"><ele>946.0</ele><time>2026-04-05T16:37:01Z</time></trkpt><trkpt lat="44.80932639819255" lon="9.324011049046566"><ele>945.0</ele><time>2026-04-05T16:37:02Z</time></trkpt><trkpt lat="44.80944633315711" lon="9.324018322926475"><ele>943.9999999999999</ele><time>2026-04-05T16:37:03Z</time></trkpt><trkpt lat="44.809549720421735" lon="9.3240293334889"><ele>942.9999999999999</ele><time>2026-04-05T16:37:04Z</time></trkpt><trkpt lat="44.80965759875238" lon="9.324040499100688"><ele>942.0</ele><time>2026-04-05T16:37:05Z</time></trkpt><trkpt lat="44.809758954772875" lon="9.324044055815092"><ele>941.0</ele><time>2026-04-05T16:37:06Z</time></trkpt><trkpt lat="44.80986404818394" lon="9.324050348348546"><ele>941.0</ele><time>2026-04-05T16:37:07Z</time></trkpt><trkpt lat="44.809958853030075" lon="9.324075600825836"><ele>940.9999999999999</ele><time>2026-04-05T16:37:08Z</time></trkpt><trkpt lat="44.810054584276735" lon="9.324082120333406"><ele>940.9999999999999</ele><time>2026-04-05T16:37:09Z</time></trkpt><trkpt lat="44.81015588029517" lon="9.32410286037908"><ele>941.0</ele><time>2026-04-05T16:37:10Z</time></trkpt><trkpt lat="44.81026489584487" lon="9.3241357599404"><ele>941.0</ele><time>2026-04-05T16:37:11Z</time></trkpt><trkpt lat="44.81035740560799" lon="9.324187681124371"><ele>941.0</ele><time>2026-04-05T16:37:12Z</time></trkpt><trkpt lat="44.810471251728515" lon="9.324248423347337"><ele>941.0</ele><time>2026-04-05T16:37:13Z</time></trkpt><trkpt lat="44.81061344964055" lon="9.324323725340554"><ele>941.0</ele><time>2026-04-05T16:37:14Z</time></trkpt><trkpt lat="44.81074956521091" lon="9.324405317799474"><ele>941.0</ele><time>2026-04-05T16:37:15Z</time></trkpt><trkpt lat="44.8108556073548" lon="9.324478636934014"><ele>941.0</ele><time>2026-04-05T16:37:16Z</time></trkpt><trkpt lat="44.81095291537484" lon="9.324536815741341"><ele>940.9999999999999</ele><time>2026-04-05T16:37:17Z</time></trkpt><trkpt lat="44.81103095906994" lon="9.324586482333817"><ele>940.9999999999999</ele><time>2026-04-05T16:37:18Z</time></trkpt><trkpt lat="44.81112359647626" lon="9.3246187720382"><ele>941.0</ele><time>2026-04-05T16:37:19Z</time></trkpt><trkpt lat="44.811208512197325" lon="9.324624783963241"><ele>941.0</ele><time>2026-04-05T16:37:20Z</time></trkpt><trkpt lat="44.81129663701146" lon="9.324592323318772"><ele>940.75</ele><time>2026-04-05T16:37:21Z</time></trkpt><trkpt lat="44.81139758332679" lon="9.324560433076616"><ele>940.5</ele><time>2026-04-05T16:37:22Z</time></trkpt><trkpt lat="44.81150268467887" lon="9.32451512615849"><ele>940.25</ele><time>2026-04-05T16:37:23Z</time></trkpt><trkpt lat="44.811623335055266" lon="9.324560118407089"><ele>940.0</ele><time>2026-04-05T16:37:24Z</time></trkpt><trkpt lat="44.81175898812788" lon="9.32457319397789"><ele>937.5</ele><time>2026-04-05T16:37:25Z</time></trkpt><trkpt lat="44.81188355412102" lon="9.324583950061623"><ele>935.0</ele><time>2026-04-05T16:37:26Z</time></trkpt><trkpt lat="44.81204380083576" lon="9.324592097474968"><ele>932.5</ele><time>2026-04-05T16:37:27Z</time></trkpt><trkpt lat="44.81215475333532" lon="9.32452946602733"><ele>930.0</ele><time>2026-04-05T16:37:28Z</time></trkpt><trkpt lat="44.81228291690541" lon="9.324482690919902"><ele>930.0</ele><time>2026-04-05T16:37:29Z</time></trkpt><trkpt lat="44.812416680369225" lon="9.324436349542827"><ele>930.0</ele><time>2026-04-05T16:37:30Z</time></trkpt><trkpt lat="44.812534522412655" lon="9.32442452461286"><ele>930.0</ele><time>2026-04-05T16:37:31Z</time></trkpt><trkpt lat="44.81265924148698" lon="9.324369447571021"><ele>930.0</ele><time>2026-04-05T16:37:32Z</time></trkpt><trkpt lat="44.81275295526793" lon="9.324311462649188"><ele>926.6666666666666</ele><time>2026-04-05T16:37:33Z</time></trkpt><trkpt lat="44.812825076132256" lon="9.324257436266388"><ele>923.3333333333333</ele><time>2026-04-05T16:37:34Z</time></trkpt><trkpt lat="44.81293766210361" lon="9.324180359373678"><ele>920.0</ele><time>2026-04-05T16:37:36Z</time></trkpt><trkpt lat="44.81303185459209" lon="9.324188642757058"><ele>916.6666666666666</ele><time>2026-04-05T16:37:37Z</time></trkpt><trkpt lat="44.81308780590496" lon="9.324233620927316"><ele>913.3333333333333</ele><time>2026-04-05T16:37:38Z</time></trkpt><trkpt lat="44.81304903692991" lon="9.324318183412647"><ele>910.0</ele><time>2026-04-05T16:37:39Z</time></trkpt><trkpt lat="44.81298596745626" lon="9.324400543468071"><ele>909.9999999999999</ele><time>2026-04-05T16:37:41Z</time></trkpt><trkpt lat="44.81290008772606" lon="9.32444742645641"><ele>910.0</ele><time>2026-04-05T16:37:42Z</time></trkpt><trkpt lat="44.81284013395976" lon="9.324494426465796"><ele>910.0</ele><time>2026-04-05T16:37:43Z</time></trkpt><trkpt lat="44.81276019497871" lon="9.324538102077648"><ele>910.0</ele><time>2026-04-05T16:37:44Z</time></trkpt><trkpt lat="44.81269981456691" lon="9.324651393530235"><ele>909.9999999999999</ele><time>2026-04-05T16:37:45Z</time></trkpt><trkpt lat="44.81267541616212" lon="9.324784950496266"><ele>910.0</ele><time>2026-04-05T16:37:46Z</time></trkpt><trkpt lat="44.81264554788543" lon="9.324899135042491"><ele>909.4</ele><time>2026-04-05T16:37:47Z</time></trkpt><trkpt lat="44.81259708291784" lon="9.325010393228368"><ele>908.8</ele><time>2026-04-05T16:37:48Z</time></trkpt><trkpt lat="44.81247937777544" lon="9.325044221531108"><ele>908.2</ele><time>2026-04-05T16:37:49Z</time></trkpt><trkpt lat="44.81236715267061" lon="9.325059173071528"><ele>907.6</ele><time>2026-04-05T16:37:50Z</time></trkpt><trkpt lat="44.81227063011732" lon="9.325079522478553"><ele>907.0</ele><time>2026-04-05T16:37:51Z</time></trkpt><trkpt lat="44.812191957251315" lon="9.325101287902237"><ele>906.9999999999999</ele><time>2026-04-05T16:37:52Z</time></trkpt><trkpt lat="44.81212647051507" lon="9.325141850835536"><ele>907.0</ele><time>2026-04-05T16:37:53Z</time></trkpt><trkpt lat="44.81207119904226" lon="9.325197834636299"><ele>907.0</ele><time>2026-04-05T16:37:54Z</time></trkpt><trkpt lat="44.812020385392834" lon="9.325259355658385"><ele>907.0</ele><time>2026-04-05T16:37:55Z</time></trkpt><trkpt lat="44.81199865583465" lon="9.325406496164357"><ele>906.9999999999999</ele><time>2026-04-05T16:37:56Z</time></trkpt><trkpt lat="44.81204048404059" lon="9.325508186166509"><ele>907.0</ele><time>2026-04-05T16:37:57Z</time></trkpt><trkpt lat="44.81212867537419" lon="9.325528876510752"><ele>907.0</ele><time>2026-04-05T16:37:58Z</time></trkpt><trkpt lat="44.8122210284303" lon="9.325495000741215"><ele>907.0</ele><time>2026-04-05T16:37:58.999Z</time></trkpt><trkpt lat="44.812328330215884" lon="9.325447629724987"><ele>907.0</ele><time>2026-04-05T16:37:59.999Z</time></trkpt><trkpt lat="44.81245859321258" lon="9.325443498957888"><ele>907.0</ele><time>2026-04-05T16:38:00.999Z</time></trkpt><trkpt lat="44.81260344917529" lon="9.325454201356196"><ele>903.8</ele><time>2026-04-05T16:38:01.999Z</time></trkpt><trkpt lat="44.812724536368655" lon="9.325481404086707"><ele>900.6</ele><time>2026-04-05T16:38:02.999Z</time></trkpt><trkpt lat="44.812818832308025" lon="9.325498338334768"><ele>897.3999999999999</ele><time>2026-04-05T16:38:03.999Z</time></trkpt><trkpt lat="44.81290045235368" lon="9.325496190630831"><ele>894.1999999999999</ele><time>2026-04-05T16:38:04.999Z</time></trkpt><trkpt lat="44.81298668388083" lon="9.325456269462927"><ele>891.0</ele><time>2026-04-05T16:38:05.999Z</time></trkpt><trkpt lat="44.81304537800543" lon="9.325382171202609"><ele>891.0</ele><time>2026-04-05T16:38:06.999Z</time></trkpt><trkpt lat="44.81309777010996" lon="9.32525531843853"><ele>890.9999999999999</ele><time>2026-04-05T16:38:07.999Z</time></trkpt><trkpt lat="44.81316327411521" lon="9.325139625003551"><ele>890.9999999999999</ele><time>2026-04-05T16:38:08.999Z</time></trkpt><trkpt lat="44.81325400102641" lon="9.32508062718644"><ele>891.0</ele><time>2026-04-05T16:38:09.999Z</time></trkpt><trkpt lat="44.813377950116596" lon="9.325047482066388"><ele>891.0</ele><time>2026-04-05T16:38:10.999Z</time></trkpt><trkpt lat="44.813509778111225" lon="9.325021154445745"><ele>892.8</ele><time>2026-04-05T16:38:11.999Z</time></trkpt><trkpt lat="44.813627334906585" lon="9.324986361631854"><ele>894.5999999999999</ele><time>2026-04-05T16:38:12.999Z</time></trkpt><trkpt lat="44.81373227516008" lon="9.324917406924882"><ele>896.4</ele><time>2026-04-05T16:38:13.999Z</time></trkpt><trkpt lat="44.81380994151531" lon="9.324826531323701"><ele>898.2</ele><time>2026-04-05T16:38:14.999Z</time></trkpt><trkpt lat="44.81389181011163" lon="9.324741281341767"><ele>900.0</ele><time>2026-04-05T16:38:15.999Z</time></trkpt><trkpt lat="44.81399052726429" lon="9.324721697337775"><ele>900.0</ele><time>2026-04-05T16:38:16.999Z</time></trkpt><trkpt lat="44.814091517871645" lon="9.32468218223511"><ele>900.0</ele><time>2026-04-05T16:38:17.999Z</time></trkpt><trkpt lat="44.81417682322043" lon="9.324587216733772"><ele>900.0</ele><time>2026-04-05T16:38:18.999Z</time></trkpt><trkpt lat="44.81425613060593" lon="9.324483197551851"><ele>900.0</ele><time>2026-04-05T16:38:19.999Z</time></trkpt><trkpt lat="44.8143640656272" lon="9.324435112877252"><ele>900.0</ele><time>2026-04-05T16:38:20.999Z</time></trkpt><trkpt lat="44.81449436839608" lon="9.324435936897562"><ele>897.6666666666667</ele><time>2026-04-05T16:38:21.999Z</time></trkpt><trkpt lat="44.814662752489625" lon="9.324443375688086"><ele>895.3333333333334</ele><time>2026-04-05T16:38:22.999Z</time></trkpt><trkpt lat="44.814817971600036" lon="9.324483361194572"><ele>893.0</ele><time>2026-04-05T16:38:23.999Z</time></trkpt><trkpt lat="44.814986746431984" lon="9.324557135796468"><ele>898.0</ele><time>2026-04-05T16:38:24.999Z</time></trkpt><trkpt lat="44.81515869593749" lon="9.324642578055204"><ele>903.0</ele><time>2026-04-05T16:38:25.999Z</time></trkpt><trkpt lat="44.81536714738396" lon="9.324793516169533"><ele>908.0</ele><time>2026-04-05T16:38:26.999Z</time></trkpt><trkpt lat="44.81552489588757" lon="9.32491735640399"><ele>899.0</ele><time>2026-04-05T16:38:27.999Z</time></trkpt><trkpt lat="44.815693301705224" lon="9.325028208212624"><ele>890.0</ele><time>2026-04-05T16:38:28.999Z</time></trkpt><trkpt lat="44.81580940023098" lon="9.325114393075866"><ele>881.0</ele><time>2026-04-05T16:38:29.999Z</time></trkpt><trkpt lat="44.81592240134349" lon="9.32518290110862"><ele>872.0</ele><time>2026-04-05T16:38:30.999Z</time></trkpt><trkpt lat="44.81605359026915" lon="9.32521639392461"><ele>870.5</ele><time>2026-04-05T16:38:31.999Z</time></trkpt><trkpt lat="44.81618106457134" lon="9.32523103504531"><ele>869.0</ele><time>2026-04-05T16:38:32.999Z</time></trkpt><trkpt lat="44.816285972510286" lon="9.325278377641048"><ele>867.5</ele><time>2026-04-05T16:38:33.999Z</time></trkpt><trkpt lat="44.816396485839846" lon="9.325363735808088"><ele>866.0</ele><time>2026-04-05T16:38:34.999Z</time></trkpt><trkpt lat="44.816497987540025" lon="9.32542349793495"><ele>866.0</ele><time>2026-04-05T16:38:35.999Z</time></trkpt><trkpt lat="44.81659733149075" lon="9.325477404657294"><ele>866.0</ele><time>2026-04-05T16:38:36.999Z</time></trkpt><trkpt lat="44.81672515445185" lon="9.325417834448961"><ele>866.0</ele><time>2026-04-05T16:38:37.999Z</time></trkpt><trkpt lat="44.816865043306194" lon="9.32533310610779"><ele>866.0</ele><time>2026-04-05T16:38:38.999Z</time></trkpt><trkpt lat="44.817005642590125" lon="9.325259864083355"><ele>860.0</ele><time>2026-04-05T16:38:39.999Z</time></trkpt><trkpt lat="44.817135794998606" lon="9.325176033496447"><ele>854.0</ele><time>2026-04-05T16:38:40.999Z</time></trkpt><trkpt lat="44.81725954869885" lon="9.325096324294675"><ele>848.0</ele><time>2026-04-05T16:38:41.999Z</time></trkpt><trkpt lat="44.81737964653502" lon="9.325018969819011"><ele>842.0</ele><time>2026-04-05T16:38:42.999Z</time></trkpt><trkpt lat="44.81748237529693" lon="9.324839721557021"><ele>842.0</ele><time>2026-04-05T16:38:43.999Z</time></trkpt><trkpt lat="44.81751589387587" lon="9.324740903810467"><ele>842.0</ele><time>2026-04-05T16:38:44.999Z</time></trkpt><trkpt lat="44.81759342817747" lon="9.32460129025879"><ele>842.0</ele><time>2026-04-05T16:38:45.999Z</time></trkpt><trkpt lat="44.81766644017182" lon="9.324508955488707"><ele>842.0</ele><time>2026-04-05T16:38:46.999Z</time></trkpt><trkpt lat="44.81778479256003" lon="9.324393729226442"><ele>842.0</ele><time>2026-04-05T16:38:47.999Z</time></trkpt><trkpt lat="44.817931412837964" lon="9.324262709008499"><ele>843.0</ele><time>2026-04-05T16:38:48.999Z</time></trkpt><trkpt lat="44.81810614362155" lon="9.324130455730058"><ele>844.0</ele><time>2026-04-05T16:38:49.999Z</time></trkpt><trkpt lat="44.81830319759957" lon="9.324005667376426"><ele>845.0</ele><time>2026-04-05T16:38:50.999Z</time></trkpt><trkpt lat="44.81849220175898" lon="9.32387158296299"><ele>845.0</ele><time>2026-04-05T16:38:51.999Z</time></trkpt><trkpt lat="44.81867513934472" lon="9.323762380620046"><ele>845.0</ele><time>2026-04-05T16:38:52.999Z</time></trkpt><trkpt lat="44.81884397945318" lon="9.323665284002066"><ele>845.0</ele><time>2026-04-05T16:38:53.999Z</time></trkpt><trkpt lat="44.81898032557262" lon="9.32357948668235"><ele>845.0</ele><time>2026-04-05T16:38:54.999Z</time></trkpt><trkpt lat="44.81911946256878" lon="9.323510031738964"><ele>845.0</ele><time>2026-04-05T16:38:55.999Z</time></trkpt><trkpt lat="44.819271376962064" lon="9.323451216427575"><ele>845.0</ele><time>2026-04-05T16:38:56.999Z</time></trkpt><trkpt lat="44.81942117092093" lon="9.323458368256428"><ele>845.3333333333334</ele><time>2026-04-05T16:38:57.999Z</time></trkpt><trkpt lat="44.81957974520037" lon="9.323483515227414"><ele>845.6666666666667</ele><time>2026-04-05T16:38:58.999Z</time></trkpt><trkpt lat="44.81971277694766" lon="9.323548308557827"><ele>846.0</ele><time>2026-04-05T16:38:59.999Z</time></trkpt><trkpt lat="44.81984180730753" lon="9.323670079958553"><ele>846.0</ele><time>2026-04-05T16:39:00.999Z</time></trkpt><trkpt lat="44.81994242717664" lon="9.32375706700391"><ele>846.0</ele><time>2026-04-05T16:39:01.999Z</time></trkpt><trkpt lat="44.820054448537135" lon="9.323786244362186"><ele>846.0</ele><time>2026-04-05T16:39:02.999Z</time></trkpt><trkpt lat="44.82020054934279" lon="9.323785521503613"><ele>846.0</ele><time>2026-04-05T16:39:04Z</time></trkpt><trkpt lat="44.82031770474459" lon="9.323782409224048"><ele>844.5</ele><time>2026-04-05T16:39:05Z</time></trkpt><trkpt lat="44.820463160256665" lon="9.323786065409536"><ele>843.0</ele><time>2026-04-05T16:39:06Z</time></trkpt><trkpt lat="44.820582515953944" lon="9.323747646356948"><ele>841.5</ele><time>2026-04-05T16:39:07Z</time></trkpt><trkpt lat="44.82070666284011" lon="9.323677529074148"><ele>840.0</ele><time>2026-04-05T16:39:08Z</time></trkpt><trkpt lat="44.82083907832828" lon="9.323565835400881"><ele>832.3333333333333</ele><time>2026-04-05T16:39:09Z</time></trkpt><trkpt lat="44.82098861967855" lon="9.323447756592534"><ele>824.6666666666666</ele><time>2026-04-05T16:39:10Z</time></trkpt><trkpt lat="44.82114139046066" lon="9.323323555910864"><ele>817.0</ele><time>2026-04-05T16:39:11Z</time></trkpt><trkpt lat="44.821243013603976" lon="9.323220839069567"><ele>817.0</ele><time>2026-04-05T16:39:12Z</time></trkpt><trkpt lat="44.821322165042744" lon="9.323135474431822"><ele>817.0</ele><time>2026-04-05T16:39:13Z</time></trkpt><trkpt lat="44.821422503505005" lon="9.323042239176312"><ele>817.0</ele><time>2026-04-05T16:39:14Z</time></trkpt><trkpt lat="44.82150358697264" lon="9.32297579671061"><ele>817.0</ele><time>2026-04-05T16:39:15Z</time></trkpt><trkpt lat="44.821605462831805" lon="9.322911412665658"><ele>817.0</ele><time>2026-04-05T16:39:16Z</time></trkpt><trkpt lat="44.821735308691" lon="9.322897320324751"><ele>819.6666666666666</ele><time>2026-04-05T16:39:17Z</time></trkpt><trkpt lat="44.82188521266251" lon="9.322933162568813"><ele>822.3333333333333</ele><time>2026-04-05T16:39:18Z</time></trkpt><trkpt lat="44.82203903681934" lon="9.322976086379372"><ele>825.0</ele><time>2026-04-05T16:39:19Z</time></trkpt><trkpt lat="44.822198534359615" lon="9.323005374410771"><ele>825.0</ele><time>2026-04-05T16:39:20Z</time></trkpt><trkpt lat="44.82234020772545" lon="9.323020234783948"><ele>825.0</ele><time>2026-04-05T16:39:21Z</time></trkpt><trkpt lat="44.82246373190066" lon="9.323017299480282"><ele>825.0</ele><time>2026-04-05T16:39:22Z</time></trkpt><trkpt lat="44.822588198392836" lon="9.323006667728153"><ele>825.0</ele><time>2026-04-05T16:39:23Z</time></trkpt><trkpt lat="44.82268653118329" lon="9.322995531100435"><ele>822.0</ele><time>2026-04-05T16:39:24Z</time></trkpt><trkpt lat="44.82277820239441" lon="9.323007248283947"><ele>819.0</ele><time>2026-04-05T16:39:25Z</time></trkpt><trkpt lat="44.82288519769991" lon="9.323064859745791"><ele>816.0</ele><time>2026-04-05T16:39:26Z</time></trkpt><trkpt lat="44.82297672045835" lon="9.323163089440952"><ele>813.0</ele><time>2026-04-05T16:39:27Z</time></trkpt><trkpt lat="44.823056359562024" lon="9.323263799767638"><ele>810.0</ele><time>2026-04-05T16:39:28Z</time></trkpt><trkpt lat="44.823128030678426" lon="9.323346834233911"><ele>810.0</ele><time>2026-04-05T16:39:29Z</time></trkpt><trkpt lat="44.823181631724076" lon="9.323421681608595"><ele>810.0</ele><time>2026-04-05T16:39:30Z</time></trkpt><trkpt lat="44.82321477996217" lon="9.323506970655224"><ele>810.0</ele><time>2026-04-05T16:39:31Z</time></trkpt><trkpt lat="44.82322654303217" lon="9.323600001652721"><ele>810.0</ele><time>2026-04-05T16:39:32Z</time></trkpt><trkpt lat="44.823205179161086" lon="9.323695078467038"><ele>810.0</ele><time>2026-04-05T16:39:33Z</time></trkpt><trkpt lat="44.823138405245146" lon="9.32378695027756"><ele>810.0</ele><time>2026-04-05T16:39:34Z</time></trkpt><trkpt lat="44.82304129844174" lon="9.323868992892542"><ele>810.0</ele><time>2026-04-05T16:39:35Z</time></trkpt><trkpt lat="44.82294938126649" lon="9.323912402226565"><ele>810.0</ele><time>2026-04-05T16:39:36Z</time></trkpt><trkpt lat="44.82287182472917" lon="9.323934165175643"><ele>810.0</ele><time>2026-04-05T16:39:37Z</time></trkpt><trkpt lat="44.822761797873106" lon="9.323918322961404"><ele>810.0</ele><time>2026-04-05T16:39:39Z</time></trkpt><trkpt lat="44.82270144954464" lon="9.32387087139992"><ele>810.0</ele><time>2026-04-05T16:39:40Z</time></trkpt><trkpt lat="44.82264793990398" lon="9.323802037588926"><ele>810.0</ele><time>2026-04-05T16:39:41Z</time></trkpt><trkpt lat="44.822585870046176" lon="9.323724127450772"><ele>811.0</ele><time>2026-04-05T16:39:42Z</time></trkpt><trkpt lat="44.82251799065208" lon="9.323647638468621"><ele>812.0</ele><time>2026-04-05T16:39:43Z</time></trkpt><trkpt lat="44.82243431959778" lon="9.323591166431505"><ele>813.0</ele><time>2026-04-05T16:39:44Z</time></trkpt><trkpt lat="44.822340703537904" lon="9.323540662069105"><ele>814.0</ele><time>2026-04-05T16:39:45Z</time></trkpt><trkpt lat="44.82223739231272" lon="9.323514904180632"><ele>815.0</ele><time>2026-04-05T16:39:46Z</time></trkpt><trkpt lat="44.822129051206176" lon="9.32349562915548"><ele>815.0</ele><time>2026-04-05T16:39:47Z</time></trkpt><trkpt lat="44.82201397008731" lon="9.323472426242157"><ele>815.0</ele><time>2026-04-05T16:39:48Z</time></trkpt><trkpt lat="44.821899473735286" lon="9.323461679431706"><ele>815.0</ele><time>2026-04-05T16:39:49Z</time></trkpt><trkpt lat="44.821789630503964" lon="9.323482241654874"><ele>815.0</ele><time>2026-04-05T16:39:50Z</time></trkpt><trkpt lat="44.821682198177555" lon="9.32353539696934"><ele>815.5</ele><time>2026-04-05T16:39:51Z</time></trkpt><trkpt lat="44.821561605019234" lon="9.32364647380039"><ele>816.0</ele><time>2026-04-05T16:39:52Z</time></trkpt><trkpt lat="44.82144592276964" lon="9.323738084741994"><ele>816.5</ele><time>2026-04-05T16:39:53Z</time></trkpt><trkpt lat="44.82136657754667" lon="9.323854196924826"><ele>817.0</ele><time>2026-04-05T16:39:54Z</time></trkpt><trkpt lat="44.82128022386797" lon="9.323926689709676"><ele>815.4999999999999</ele><time>2026-04-05T16:39:55Z</time></trkpt><trkpt lat="44.82120266060385" lon="9.324011887617289"><ele>814.0</ele><time>2026-04-05T16:39:56Z</time></trkpt><trkpt lat="44.821136545263144" lon="9.324087792986269"><ele>812.5</ele><time>2026-04-05T16:39:57Z</time></trkpt><trkpt lat="44.82106817516936" lon="9.32416482934894"><ele>811.0</ele><time>2026-04-05T16:39:58Z</time></trkpt><trkpt lat="44.82099516213204" lon="9.324223255666151"><ele>809.4999999999999</ele><time>2026-04-05T16:39:59Z</time></trkpt><trkpt lat="44.820924850787065" lon="9.324307852284585"><ele>808.0</ele><time>2026-04-05T16:40:00Z</time></trkpt><trkpt lat="44.82084322160308" lon="9.32440064800859"><ele>808.0</ele><time>2026-04-05T16:40:01Z</time></trkpt><trkpt lat="44.82074835660148" lon="9.324458962367293"><ele>808.0</ele><time>2026-04-05T16:40:02Z</time></trkpt><trkpt lat="44.82061674037058" lon="9.324469016102968"><ele>808.0</ele><time>2026-04-05T16:40:02.999Z</time></trkpt><trkpt lat="44.82048504404313" lon="9.324496997592188"><ele>808.0</ele><time>2026-04-05T16:40:03.999Z</time></trkpt><trkpt lat="44.82035152608378" lon="9.324573309326466"><ele>808.0</ele><time>2026-04-05T16:40:04.999Z</time></trkpt><trkpt lat="44.82019768715658" lon="9.324699137652052"><ele>808.0</ele><time>2026-04-05T16:40:05.999Z</time></trkpt><trkpt lat="44.82003888630406" lon="9.324785808857369"><ele>808.0</ele><time>2026-04-05T16:40:06.999Z</time></trkpt><trkpt lat="44.81986335724063" lon="9.324829808366829"><ele>801.0</ele><time>2026-04-05T16:40:07.999Z</time></trkpt><trkpt lat="44.81969844352881" lon="9.32492949897557"><ele>794.0</ele><time>2026-04-05T16:40:08.999Z</time></trkpt><trkpt lat="44.819517724114256" lon="9.32506813937778"><ele>787.0</ele><time>2026-04-05T16:40:09.999Z</time></trkpt><trkpt lat="44.819327985694834" lon="9.32525461491212"><ele>785.0</ele><time>2026-04-05T16:40:10.999Z</time></trkpt><trkpt lat="44.8191732695293" lon="9.325433337956515"><ele>783.0</ele><time>2026-04-05T16:40:11.999Z</time></trkpt><trkpt lat="44.81901950716513" lon="9.325562864422828"><ele>781.0</ele><time>2026-04-05T16:40:12.999Z</time></trkpt><trkpt lat="44.818890139790824" lon="9.325723057523469"><ele>781.0</ele><time>2026-04-05T16:40:13.999Z</time></trkpt><trkpt lat="44.8187626276511" lon="9.325830738111295"><ele>781.0</ele><time>2026-04-05T16:40:14.999Z</time></trkpt><trkpt lat="44.81867180784604" lon="9.325932443952638"><ele>781.0</ele><time>2026-04-05T16:40:15.999Z</time></trkpt><trkpt lat="44.81859963276482" lon="9.326016083780345"><ele>781.0</ele><time>2026-04-05T16:40:16.999Z</time></trkpt><trkpt lat="44.81855707694175" lon="9.32612302240331"><ele>781.0</ele><time>2026-04-05T16:40:17.999Z</time></trkpt><trkpt lat="44.81853014134857" lon="9.326223116413404"><ele>780.9999999999999</ele><time>2026-04-05T16:40:18.999Z</time></trkpt><trkpt lat="44.81853198199101" lon="9.326346687337558"><ele>781.0</ele><time>2026-04-05T16:40:19.999Z</time></trkpt><trkpt lat="44.81856239071137" lon="9.326458305797491"><ele>781.0</ele><time>2026-04-05T16:40:20.999Z</time></trkpt><trkpt lat="44.81861497771584" lon="9.326532048652464"><ele>781.0</ele><time>2026-04-05T16:40:21.999Z</time></trkpt><trkpt lat="44.81869623304473" lon="9.326596953271896"><ele>780.9999999999999</ele><time>2026-04-05T16:40:22.999Z</time></trkpt><trkpt lat="44.818801145299396" lon="9.32658073424573"><ele>781.0</ele><time>2026-04-05T16:40:23.999Z</time></trkpt><trkpt lat="44.81892433868153" lon="9.326578423128407"><ele>778.25</ele><time>2026-04-05T16:40:24.999Z</time></trkpt><trkpt lat="44.81905240913626" lon="9.326611907916021"><ele>775.5</ele><time>2026-04-05T16:40:25.999Z</time></trkpt><trkpt lat="44.819184629130945" lon="9.326675049402368"><ele>772.75</ele><time>2026-04-05T16:40:26.999Z</time></trkpt><trkpt lat="44.81929756741018" lon="9.326727361663265"><ele>770.0</ele><time>2026-04-05T16:40:27.999Z</time></trkpt><trkpt lat="44.819423568173356" lon="9.326732009729266"><ele>768.25</ele><time>2026-04-05T16:40:28.999Z</time></trkpt><trkpt lat="44.819557698208854" lon="9.326707942346497"><ele>766.5</ele><time>2026-04-05T16:40:29.999Z</time></trkpt><trkpt lat="44.81970282583103" lon="9.326641138178724"><ele>764.75</ele><time>2026-04-05T16:40:30.999Z</time></trkpt><trkpt lat="44.819855402539766" lon="9.326606066210212"><ele>763.0</ele><time>2026-04-05T16:40:31.999Z</time></trkpt><trkpt lat="44.81996547049502" lon="9.326565577260297"><ele>763.0</ele><time>2026-04-05T16:40:32.999Z</time></trkpt><trkpt lat="44.820074229698506" lon="9.326537682722314"><ele>763.0</ele><time>2026-04-05T16:40:33.999Z</time></trkpt><trkpt lat="44.82015734306841" lon="9.326494333767037"><ele>763.0</ele><time>2026-04-05T16:40:34.999Z</time></trkpt><trkpt lat="44.82023650195481" lon="9.326436723512856"><ele>763.0</ele><time>2026-04-05T16:40:35.999Z</time></trkpt><trkpt lat="44.82031074725765" lon="9.326343580432749"><ele>763.0</ele><time>2026-04-05T16:40:36.999Z</time></trkpt><trkpt lat="44.82039906954974" lon="9.32622603534514"><ele>760.0</ele><time>2026-04-05T16:40:37.999Z</time></trkpt><trkpt lat="44.82048342696555" lon="9.32609713135251"><ele>757.0</ele><time>2026-04-05T16:40:38.999Z</time></trkpt><trkpt lat="44.820563499031095" lon="9.326004947628556"><ele>754.0</ele><time>2026-04-05T16:40:39.999Z</time></trkpt><trkpt lat="44.82067114739882" lon="9.325916557120648"><ele>751.0</ele><time>2026-04-05T16:40:40.999Z</time></trkpt><trkpt lat="44.82079133259649" lon="9.325841272276058"><ele>751.0</ele><time>2026-04-05T16:40:41.999Z</time></trkpt><trkpt lat="44.820892893086686" lon="9.325740903120293"><ele>751.0</ele><time>2026-04-05T16:40:42.999Z</time></trkpt><trkpt lat="44.82098165317198" lon="9.325616686609056"><ele>751.0</ele><time>2026-04-05T16:40:43.999Z</time></trkpt><trkpt lat="44.82105428039934" lon="9.325517901715214"><ele>751.0</ele><time>2026-04-05T16:40:44.999Z</time></trkpt><trkpt lat="44.82113238648341" lon="9.325443600530594"><ele>751.0</ele><time>2026-04-05T16:40:45.999Z</time></trkpt><trkpt lat="44.82124093435996" lon="9.325378897479565"><ele>753.5</ele><time>2026-04-05T16:40:46.999Z</time></trkpt><trkpt lat="44.82139158434302" lon="9.325386351568568"><ele>756.0</ele><time>2026-04-05T16:40:47.999Z</time></trkpt><trkpt lat="44.82150808031627" lon="9.325395303949662"><ele>758.5</ele><time>2026-04-05T16:40:48.999Z</time></trkpt><trkpt lat="44.82163238005209" lon="9.325384785146694"><ele>761.0</ele><time>2026-04-05T16:40:49.999Z</time></trkpt><trkpt lat="44.82177804717922" lon="9.325336762531158"><ele>761.8</ele><time>2026-04-05T16:40:50.999Z</time></trkpt><trkpt lat="44.821885276580254" lon="9.325282628496101"><ele>762.5999999999999</ele><time>2026-04-05T16:40:51.999Z</time></trkpt><trkpt lat="44.82198504080617" lon="9.325236573893315"><ele>763.4</ele><time>2026-04-05T16:40:52.999Z</time></trkpt><trkpt lat="44.82208434738355" lon="9.3252243567863"><ele>764.2</ele><time>2026-04-05T16:40:53.999Z</time></trkpt><trkpt lat="44.82217430291395" lon="9.325273964374944"><ele>765.0</ele><time>2026-04-05T16:40:54.999Z</time></trkpt><trkpt lat="44.82228223568507" lon="9.325357173112506"><ele>765.0</ele><time>2026-04-05T16:40:55.999Z</time></trkpt><trkpt lat="44.82237941597049" lon="9.325483314154608"><ele>765.0</ele><time>2026-04-05T16:40:56.999Z</time></trkpt><trkpt lat="44.822466637850496" lon="9.325565884226998"><ele>765.0</ele><time>2026-04-05T16:40:57.999Z</time></trkpt><trkpt lat="44.822542885097455" lon="9.325642241112176"><ele>765.0</ele><time>2026-04-05T16:40:58.999Z</time></trkpt><trkpt lat="44.82272037113749" lon="9.325666072163369"><ele>762.6666666666666</ele><time>2026-04-05T16:41:00.999Z</time></trkpt><trkpt lat="44.82284818400492" lon="9.325629151490253"><ele>760.3333333333333</ele><time>2026-04-05T16:41:01.999Z</time></trkpt><trkpt lat="44.822992798546814" lon="9.325566246770704"><ele>758.0</ele><time>2026-04-05T16:41:02.999Z</time></trkpt><trkpt lat="44.82317069983036" lon="9.325498811160877"><ele>758.0</ele><time>2026-04-05T16:41:03.999Z</time></trkpt><trkpt lat="44.82335323842037" lon="9.32547541345851"><ele>758.0</ele><time>2026-04-05T16:41:04.999Z</time></trkpt><trkpt lat="44.82351787019032" lon="9.325474508670165"><ele>758.0</ele><time>2026-04-05T16:41:05.999Z</time></trkpt><trkpt lat="44.82367297895976" lon="9.325455951925104"><ele>755.25</ele><time>2026-04-05T16:41:06.999Z</time></trkpt><trkpt lat="44.82382247629418" lon="9.32540278995885"><ele>752.5</ele><time>2026-04-05T16:41:07.999Z</time></trkpt><trkpt lat="44.82392680165626" lon="9.325348697758649"><ele>749.75</ele><time>2026-04-05T16:41:08.999Z</time></trkpt><trkpt lat="44.82405867202102" lon="9.325276850327429"><ele>747.0</ele><time>2026-04-05T16:41:10Z</time></trkpt><trkpt lat="44.82421586975193" lon="9.325236591223256"><ele>740.6666666666666</ele><time>2026-04-05T16:41:11Z</time></trkpt><trkpt lat="44.8243747152591" lon="9.325209822054587"><ele>734.3333333333333</ele><time>2026-04-05T16:41:12Z</time></trkpt><trkpt lat="44.82455947289215" lon="9.325179384931898"><ele>728.0</ele><time>2026-04-05T16:41:13Z</time></trkpt><trkpt lat="44.82470604223223" lon="9.325141124721535"><ele>728.0</ele><time>2026-04-05T16:41:14Z</time></trkpt><trkpt lat="44.82486240725318" lon="9.325158345048996"><ele>728.0</ele><time>2026-04-05T16:41:15Z</time></trkpt><trkpt lat="44.82500732026878" lon="9.325183574776313"><ele>728.0</ele><time>2026-04-05T16:41:16Z</time></trkpt><trkpt lat="44.82513813719204" lon="9.32524983450457"><ele>728.0</ele><time>2026-04-05T16:41:17Z</time></trkpt><trkpt lat="44.825261800653664" lon="9.32530328686856"><ele>724.4</ele><time>2026-04-05T16:41:18Z</time></trkpt><trkpt lat="44.8253755114555" lon="9.325324579302485"><ele>720.8</ele><time>2026-04-05T16:41:19Z</time></trkpt><trkpt lat="44.82547372948646" lon="9.325309804711573"><ele>717.2</ele><time>2026-04-05T16:41:20Z</time></trkpt><trkpt lat="44.82555083810135" lon="9.325277254079673"><ele>713.6</ele><time>2026-04-05T16:41:21Z</time></trkpt><trkpt lat="44.82563113179147" lon="9.325191738887014"><ele>710.0</ele><time>2026-04-05T16:41:22Z</time></trkpt><trkpt lat="44.82568246892405" lon="9.325060856428593"><ele>710.0</ele><time>2026-04-05T16:41:23Z</time></trkpt><trkpt lat="44.8257223152711" lon="9.324866860392868"><ele>710.0</ele><time>2026-04-05T16:41:24Z</time></trkpt><trkpt lat="44.8257592934093" lon="9.324646559715408"><ele>710.0</ele><time>2026-04-05T16:41:25Z</time></trkpt><trkpt lat="44.82578483753929" lon="9.324432875361218"><ele>710.5</ele><time>2026-04-05T16:41:26Z</time></trkpt><trkpt lat="44.825787797795286" lon="9.32424587185227"><ele>711.0</ele><time>2026-04-05T16:41:27Z</time></trkpt><trkpt lat="44.82577645894402" lon="9.324049075338575"><ele>711.5</ele><time>2026-04-05T16:41:28Z</time></trkpt><trkpt lat="44.82576648581579" lon="9.323865547929879"><ele>712.0</ele><time>2026-04-05T16:41:29Z</time></trkpt><trkpt lat="44.825737989496844" lon="9.32368759679462"><ele>713.0</ele><time>2026-04-05T16:41:30Z</time></trkpt><trkpt lat="44.825713319483825" lon="9.323525374730611"><ele>714.0</ele><time>2026-04-05T16:41:31Z</time></trkpt><trkpt lat="44.82568674035413" lon="9.323368326106367"><ele>715.0</ele><time>2026-04-05T16:41:32Z</time></trkpt><trkpt lat="44.82568837480768" lon="9.323232674952166"><ele>716.0</ele><time>2026-04-05T16:41:33Z</time></trkpt><trkpt lat="44.82572317687326" lon="9.323107276284125"><ele>717.0</ele><time>2026-04-05T16:41:34Z</time></trkpt><trkpt lat="44.825750483492236" lon="9.323000910997354"><ele>718.3333333333334</ele><time>2026-04-05T16:41:35Z</time></trkpt><trkpt lat="44.82579308172697" lon="9.32292126821644"><ele>719.6666666666666</ele><time>2026-04-05T16:41:36Z</time></trkpt><trkpt lat="44.82585825603615" lon="9.322875303702137"><ele>721.0</ele><time>2026-04-05T16:41:37Z</time></trkpt><trkpt lat="44.825932765492155" lon="9.32285977531021"><ele>722.3333333333333</ele><time>2026-04-05T16:41:38Z</time></trkpt><trkpt lat="44.826009932027354" lon="9.322897437830415"><ele>723.6666666666666</ele><time>2026-04-05T16:41:39Z</time></trkpt><trkpt lat="44.8260743247676" lon="9.322994209466795"><ele>725.0</ele><time>2026-04-05T16:41:40Z</time></trkpt><trkpt lat="44.82612540218335" lon="9.323165199038572"><ele>725.0</ele><time>2026-04-05T16:41:41Z</time></trkpt><trkpt lat="44.82618765310902" lon="9.323308645053718"><ele>725.0</ele><time>2026-04-05T16:41:42Z</time></trkpt><trkpt lat="44.82632521822161" lon="9.323447522301775"><ele>725.0</ele><time>2026-04-05T16:41:43Z</time></trkpt><trkpt lat="44.826488023820886" lon="9.32357052908608"><ele>725.0</ele><time>2026-04-05T16:41:44Z</time></trkpt><trkpt lat="44.82665709470012" lon="9.323711956882935"><ele>725.0</ele><time>2026-04-05T16:41:45Z</time></trkpt><trkpt lat="44.82681164857275" lon="9.323874739762656"><ele>725.0</ele><time>2026-04-05T16:41:46Z</time></trkpt><trkpt lat="44.82695314881845" lon="9.32400635445158"><ele>725.0</ele><time>2026-04-05T16:41:47Z</time></trkpt><trkpt lat="44.827061657564" lon="9.324162057743159"><ele>725.0</ele><time>2026-04-05T16:41:48Z</time></trkpt><trkpt lat="44.82716856486272" lon="9.324364616231728"><ele>725.0</ele><time>2026-04-05T16:41:49Z</time></trkpt><trkpt lat="44.827279117761435" lon="9.324556857755873"><ele>716.0</ele><time>2026-04-05T16:41:50Z</time></trkpt><trkpt lat="44.82737968146572" lon="9.324731618661081"><ele>707.0</ele><time>2026-04-05T16:41:51Z</time></trkpt><trkpt lat="44.82747311135723" lon="9.324894079932827"><ele>698.0</ele><time>2026-04-05T16:41:52Z</time></trkpt><trkpt lat="44.827560746458886" lon="9.325061952507113"><ele>698.3333333333333</ele><time>2026-04-05T16:41:53Z</time></trkpt><trkpt lat="44.827671576682796" lon="9.325231709122882"><ele>698.6666666666666</ele><time>2026-04-05T16:41:54Z</time></trkpt><trkpt lat="44.82778737983859" lon="9.325407570367632"><ele>699.0</ele><time>2026-04-05T16:41:55Z</time></trkpt><trkpt lat="44.82793719891394" lon="9.325583444645408"><ele>699.0</ele><time>2026-04-05T16:41:56Z</time></trkpt><trkpt lat="44.82810789013211" lon="9.325746555620452"><ele>699.0</ele><time>2026-04-05T16:41:57Z</time></trkpt><trkpt lat="44.82829123898961" lon="9.32587841308147"><ele>699.0</ele><time>2026-04-05T16:41:58Z</time></trkpt><trkpt lat="44.828436153378824" lon="9.32601078517524"><ele>696.5</ele><time>2026-04-05T16:41:59Z</time></trkpt><trkpt lat="44.8285624819825" lon="9.32611874576538"><ele>694.0</ele><time>2026-04-05T16:42:00Z</time></trkpt><trkpt lat="44.828669711249695" lon="9.326217320996594"><ele>691.5</ele><time>2026-04-05T16:42:01Z</time></trkpt><trkpt lat="44.82875128165924" lon="9.326322501874019"><ele>689.0</ele><time>2026-04-05T16:42:02Z</time></trkpt><trkpt lat="44.82883237256033" lon="9.326446586577172"><ele>689.0</ele><time>2026-04-05T16:42:03Z</time></trkpt><trkpt lat="44.82891617930412" lon="9.326586812199718"><ele>689.0</ele><time>2026-04-05T16:42:04Z</time></trkpt><trkpt lat="44.82899653169943" lon="9.32670840948798"><ele>689.0</ele><time>2026-04-05T16:42:05Z</time></trkpt><trkpt lat="44.829079756060956" lon="9.326804305454182"><ele>689.0</ele><time>2026-04-05T16:42:06Z</time></trkpt><trkpt lat="44.82914332228722" lon="9.32688553685072"><ele>689.0</ele><time>2026-04-05T16:42:07Z</time></trkpt><trkpt lat="44.82921974999625" lon="9.326930379569898"><ele>689.0</ele><time>2026-04-05T16:42:08Z</time></trkpt><trkpt lat="44.829292457751585" lon="9.326943058549334"><ele>689.0</ele><time>2026-04-05T16:42:09Z</time></trkpt><trkpt lat="44.82938579690884" lon="9.32688552668604"><ele>689.0</ele><time>2026-04-05T16:42:10Z</time></trkpt><trkpt lat="44.829473723716596" lon="9.326733954757247"><ele>689.0</ele><time>2026-04-05T16:42:11Z</time></trkpt><trkpt lat="44.82959061232331" lon="9.326572318775026"><ele>692.3333333333333</ele><time>2026-04-05T16:42:11.999Z</time></trkpt><trkpt lat="44.829715829244776" lon="9.326443802555543"><ele>695.6666666666666</ele><time>2026-04-05T16:42:12.999Z</time></trkpt><trkpt lat="44.82985368384794" lon="9.326344589710997"><ele>699.0</ele><time>2026-04-05T16:42:13.999Z</time></trkpt><trkpt lat="44.83000053452704" lon="9.326245702535203"><ele>699.0</ele><time>2026-04-05T16:42:14.999Z</time></trkpt><trkpt lat="44.830120300304785" lon="9.326165892887566"><ele>699.0</ele><time>2026-04-05T16:42:15.999Z</time></trkpt><trkpt lat="44.830252375151304" lon="9.326078926092853"><ele>699.0</ele><time>2026-04-05T16:42:16.999Z</time></trkpt><trkpt lat="44.8303852016854" lon="9.326010853284496"><ele>699.0</ele><time>2026-04-05T16:42:17.999Z</time></trkpt><trkpt lat="44.83054006090819" lon="9.32598520793119"><ele>696.75</ele><time>2026-04-05T16:42:18.999Z</time></trkpt><trkpt lat="44.83070017892693" lon="9.325983144977245"><ele>694.5</ele><time>2026-04-05T16:42:19.999Z</time></trkpt><trkpt lat="44.83084573123588" lon="9.325957174263838"><ele>692.25</ele><time>2026-04-05T16:42:20.999Z</time></trkpt><trkpt lat="44.830983447552185" lon="9.32593561099488"><ele>690.0</ele><time>2026-04-05T16:42:21.999Z</time></trkpt><trkpt lat="44.83110371012544" lon="9.325938202198774"><ele>690.0</ele><time>2026-04-05T16:42:22.999Z</time></trkpt><trkpt lat="44.83125134194139" lon="9.325976529935724"><ele>690.0</ele><time>2026-04-05T16:42:23.999Z</time></trkpt><trkpt lat="44.831413982569" lon="9.32609447046427"><ele>690.0</ele><time>2026-04-05T16:42:24.999Z</time></trkpt><trkpt lat="44.83156451071002" lon="9.326225447080532"><ele>690.0</ele><time>2026-04-05T16:42:25.999Z</time></trkpt><trkpt lat="44.831683497951914" lon="9.326312644076841"><ele>690.0</ele><time>2026-04-05T16:42:26.999Z</time></trkpt><trkpt lat="44.831803417534374" lon="9.326374831370682"><ele>690.0</ele><time>2026-04-05T16:42:27.999Z</time></trkpt><trkpt lat="44.831922840964424" lon="9.32643290504192"><ele>690.0</ele><time>2026-04-05T16:42:28.999Z</time></trkpt><trkpt lat="44.832048785233106" lon="9.32644359250144"><ele>689.6666666666666</ele><time>2026-04-05T16:42:29.999Z</time></trkpt><trkpt lat="44.8321925312211" lon="9.326400572372753"><ele>689.3333333333333</ele><time>2026-04-05T16:42:30.999Z</time></trkpt><trkpt lat="44.8323457812653" lon="9.326352313938063"><ele>689.0</ele><time>2026-04-05T16:42:31.999Z</time></trkpt><trkpt lat="44.83249540258673" lon="9.326340462021617"><ele>685.6666666666666</ele><time>2026-04-05T16:42:32.999Z</time></trkpt><trkpt lat="44.83265444545521" lon="9.326334852414332"><ele>682.3333333333334</ele><time>2026-04-05T16:42:33.999Z</time></trkpt><trkpt lat="44.83280615621856" lon="9.326351333211967"><ele>679.0</ele><time>2026-04-05T16:42:34.999Z</time></trkpt><trkpt lat="44.832941485692956" lon="9.326408552593573"><ele>674.6666666666667</ele><time>2026-04-05T16:42:35.999Z</time></trkpt><trkpt lat="44.833099870701716" lon="9.326486290110383"><ele>670.3333333333334</ele><time>2026-04-05T16:42:36.999Z</time></trkpt><trkpt lat="44.833255050338366" lon="9.32662080021886"><ele>666.0</ele><time>2026-04-05T16:42:37.999Z</time></trkpt><trkpt lat="44.83338724421428" lon="9.326741880568912"><ele>665.75</ele><time>2026-04-05T16:42:38.999Z</time></trkpt><trkpt lat="44.83350468053145" lon="9.3268424804713"><ele>665.5</ele><time>2026-04-05T16:42:39.999Z</time></trkpt><trkpt lat="44.8335911422917" lon="9.326918988167773"><ele>665.25</ele><time>2026-04-05T16:42:40.999Z</time></trkpt><trkpt lat="44.83369489106354" lon="9.326978066691535"><ele>665.0</ele><time>2026-04-05T16:42:41.999Z</time></trkpt><trkpt lat="44.83379909979571" lon="9.327028626154847"><ele>665.0</ele><time>2026-04-05T16:42:42.999Z</time></trkpt><trkpt lat="44.83390760706185" lon="9.327043390508365"><ele>665.0</ele><time>2026-04-05T16:42:43.999Z</time></trkpt><trkpt lat="44.83403513861159" lon="9.327025134884709"><ele>665.0</ele><time>2026-04-05T16:42:44.999Z</time></trkpt><trkpt lat="44.83414595792538" lon="9.327005913735796"><ele>665.0</ele><time>2026-04-05T16:42:45.999Z</time></trkpt><trkpt lat="44.83425629353009" lon="9.326977854461067"><ele>662.0</ele><time>2026-04-05T16:42:46.999Z</time></trkpt><trkpt lat="44.83432187260695" lon="9.32694207662514"><ele>659.0</ele><time>2026-04-05T16:42:47.999Z</time></trkpt><trkpt lat="44.834379345975115" lon="9.326904601135942"><ele>656.0</ele><time>2026-04-05T16:42:48.999Z</time></trkpt><trkpt lat="44.834429967727694" lon="9.326829717758061"><ele>653.0</ele><time>2026-04-05T16:42:49.999Z</time></trkpt><trkpt lat="44.83445760666131" lon="9.326743056027508"><ele>650.0</ele><time>2026-04-05T16:42:50.999Z</time></trkpt><trkpt lat="44.83442961918936" lon="9.326608691755956"><ele>647.0</ele><time>2026-04-05T16:42:51.999Z</time></trkpt><trkpt lat="44.83439434572371" lon="9.326452597107336"><ele>644.25</ele><time>2026-04-05T16:42:52.999Z</time></trkpt><trkpt lat="44.83434522225099" lon="9.326270637935055"><ele>641.5</ele><time>2026-04-05T16:42:53.999Z</time></trkpt><trkpt lat="44.834285247024205" lon="9.32609747526361"><ele>638.75</ele><time>2026-04-05T16:42:54.999Z</time></trkpt><trkpt lat="44.834237415796835" lon="9.325906685198731"><ele>636.0</ele><time>2026-04-05T16:42:55.999Z</time></trkpt><trkpt lat="44.83411669492917" lon="9.325726573475292"><ele>640.0</ele><time>2026-04-05T16:42:56.999Z</time></trkpt><trkpt lat="44.83400821521745" lon="9.325586956361992"><ele>644.0</ele><time>2026-04-05T16:42:57.999Z</time></trkpt><trkpt lat="44.8339525236445" lon="9.325419284536544"><ele>648.0</ele><time>2026-04-05T16:42:58.999Z</time></trkpt><trkpt lat="44.83389131829369" lon="9.325265034927087"><ele>652.0</ele><time>2026-04-05T16:42:59.999Z</time></trkpt><trkpt lat="44.8338345944331" lon="9.325134647574908"><ele>652.0</ele><time>2026-04-05T16:43:00.999Z</time></trkpt><trkpt lat="44.833783128161464" lon="9.32500230504702"><ele>652.0</ele><time>2026-04-05T16:43:01.999Z</time></trkpt><trkpt lat="44.83375998122496" lon="9.324841891610445"><ele>652.0</ele><time>2026-04-05T16:43:02.999Z</time></trkpt><trkpt lat="44.833756053195835" lon="9.324610049532014"><ele>652.0</ele><time>2026-04-05T16:43:03.999Z</time></trkpt><trkpt lat="44.83373650859991" lon="9.324346924120965"><ele>648.3333333333334</ele><time>2026-04-05T16:43:04.999Z</time></trkpt><trkpt lat="44.83369827477294" lon="9.324052452834914"><ele>644.6666666666666</ele><time>2026-04-05T16:43:05.999Z</time></trkpt><trkpt lat="44.833648678569844" lon="9.3237385823603"><ele>641.0</ele><time>2026-04-05T16:43:06.999Z</time></trkpt><trkpt lat="44.83359735026974" lon="9.323476547346038"><ele>640.0</ele><time>2026-04-05T16:43:07.999Z</time></trkpt><trkpt lat="44.833510371997775" lon="9.323254608277294"><ele>639.0</ele><time>2026-04-05T16:43:08.999Z</time></trkpt><trkpt lat="44.833472537642514" lon="9.32301806934987"><ele>638.0</ele><time>2026-04-05T16:43:09.999Z</time></trkpt><trkpt lat="44.83343778925866" lon="9.322802700535753"><ele>641.5</ele><time>2026-04-05T16:43:10.999Z</time></trkpt><trkpt lat="44.83340631855221" lon="9.32260543699672"><ele>645.0</ele><time>2026-04-05T16:43:11.999Z</time></trkpt><trkpt lat="44.83337868542867" lon="9.322444685373657"><ele>648.5</ele><time>2026-04-05T16:43:12.999Z</time></trkpt><trkpt lat="44.83335634562537" lon="9.322300886443657"><ele>652.0</ele><time>2026-04-05T16:43:13.999Z</time></trkpt><trkpt lat="44.83334707931969" lon="9.322177667079275"><ele>652.0</ele><time>2026-04-05T16:43:14.999Z</time></trkpt><trkpt lat="44.83335458566744" lon="9.322055807390779"><ele>652.0</ele><time>2026-04-05T16:43:16Z</time></trkpt><trkpt lat="44.83340210884161" lon="9.321961437830037"><ele>652.0</ele><time>2026-04-05T16:43:17Z</time></trkpt><trkpt lat="44.83346815303149" lon="9.32189938622934"><ele>652.0</ele><time>2026-04-05T16:43:18Z</time></trkpt><trkpt lat="44.83355439792532" lon="9.321912659293448"><ele>652.0</ele><time>2026-04-05T16:43:19Z</time></trkpt><trkpt lat="44.83363606665254" lon="9.321988405881749"><ele>652.0</ele><time>2026-04-05T16:43:20Z</time></trkpt><trkpt lat="44.83374621972158" lon="9.322148444897145"><ele>650.0</ele><time>2026-04-05T16:43:21Z</time></trkpt><trkpt lat="44.8338802029971" lon="9.322367942267437"><ele>648.0</ele><time>2026-04-05T16:43:22Z</time></trkpt><trkpt lat="44.833980005798665" lon="9.322565984971376"><ele>646.0</ele><time>2026-04-05T16:43:23Z</time></trkpt><trkpt lat="44.834064968101565" lon="9.322753700508958"><ele>646.0</ele><time>2026-04-05T16:43:24Z</time></trkpt><trkpt lat="44.83414781562934" lon="9.322926576127681"><ele>646.0</ele><time>2026-04-05T16:43:25Z</time></trkpt><trkpt lat="44.83424628774315" lon="9.323108918374036"><ele>646.0</ele><time>2026-04-05T16:43:26Z</time></trkpt><trkpt lat="44.834347155102925" lon="9.323267060089641"><ele>645.5</ele><time>2026-04-05T16:43:27Z</time></trkpt><trkpt lat="44.834458903172" lon="9.323396415221854"><ele>645.0</ele><time>2026-04-05T16:43:28Z</time></trkpt><trkpt lat="44.83456409767243" lon="9.323521392439059"><ele>644.5</ele><time>2026-04-05T16:43:29Z</time></trkpt><trkpt lat="44.83465865721921" lon="9.323638784646327"><ele>644.0</ele><time>2026-04-05T16:43:30Z</time></trkpt><trkpt lat="44.83475599298584" lon="9.323759984919226"><ele>644.0</ele><time>2026-04-05T16:43:31Z</time></trkpt><trkpt lat="44.834846904651855" lon="9.323870126692297"><ele>644.0</ele><time>2026-04-05T16:43:32Z</time></trkpt><trkpt lat="44.83495795579717" lon="9.323999906610723"><ele>644.0</ele><time>2026-04-05T16:43:33Z</time></trkpt><trkpt lat="44.83508941858549" lon="9.324166093931446"><ele>644.0</ele><time>2026-04-05T16:43:34Z</time></trkpt><trkpt lat="44.83525775000997" lon="9.324376683726651"><ele>642.0</ele><time>2026-04-05T16:43:35Z</time></trkpt><trkpt lat="44.83543706444459" lon="9.324611864159198"><ele>640.0</ele><time>2026-04-05T16:43:36Z</time></trkpt><trkpt lat="44.83559568989112" lon="9.32481561666668"><ele>638.3333333333334</ele><time>2026-04-05T16:43:37Z</time></trkpt><trkpt lat="44.83574487547656" lon="9.32501069858354"><ele>636.6666666666666</ele><time>2026-04-05T16:43:38Z</time></trkpt><trkpt lat="44.835886557260565" lon="9.325201717172542"><ele>635.0</ele><time>2026-04-05T16:43:39Z</time></trkpt><trkpt lat="44.83601412541249" lon="9.32539365857046"><ele>632.6666666666666</ele><time>2026-04-05T16:43:40Z</time></trkpt><trkpt lat="44.836120286374744" lon="9.325583987237072"><ele>630.3333333333334</ele><time>2026-04-05T16:43:41Z</time></trkpt><trkpt lat="44.83621442765712" lon="9.325801185849556"><ele>628.0</ele><time>2026-04-05T16:43:42Z</time></trkpt><trkpt lat="44.836313377272994" lon="9.326071511017204"><ele>628.0</ele><time>2026-04-05T16:43:43Z</time></trkpt><trkpt lat="44.83641300768483" lon="9.326371979151963"><ele>628.0</ele><time>2026-04-05T16:43:44Z</time></trkpt><trkpt lat="44.8365062843078" lon="9.326659734526112"><ele>624.6666666666667</ele><time>2026-04-05T16:43:45Z</time></trkpt><trkpt lat="44.83658553467051" lon="9.326925870665361"><ele>621.3333333333334</ele><time>2026-04-05T16:43:46Z</time></trkpt><trkpt lat="44.836662994100244" lon="9.327175195249215"><ele>618.0</ele><time>2026-04-05T16:43:47Z</time></trkpt><trkpt lat="44.83674218683829" lon="9.327414205440167"><ele>619.6666666666666</ele><time>2026-04-05T16:43:48Z</time></trkpt><trkpt lat="44.83680335276404" lon="9.3276297811567"><ele>621.3333333333333</ele><time>2026-04-05T16:43:49Z</time></trkpt><trkpt lat="44.83686788270376" lon="9.327844830415938"><ele>623.0</ele><time>2026-04-05T16:43:50Z</time></trkpt><trkpt lat="44.83692759106274" lon="9.328055889917314"><ele>621.6666666666666</ele><time>2026-04-05T16:43:51Z</time></trkpt><trkpt lat="44.83699001617094" lon="9.328266345088188"><ele>620.3333333333334</ele><time>2026-04-05T16:43:52Z</time></trkpt><trkpt lat="44.83705398196676" lon="9.32844986119907"><ele>619.0</ele><time>2026-04-05T16:43:53Z</time></trkpt><trkpt lat="44.83711529507852" lon="9.328631734410902"><ele>619.0</ele><time>2026-04-05T16:43:54Z</time></trkpt><trkpt lat="44.83716968757445" lon="9.328818459380392"><ele>619.0</ele><time>2026-04-05T16:43:55Z</time></trkpt><trkpt lat="44.837224085841015" lon="9.329031035962025"><ele>619.0</ele><time>2026-04-05T16:43:56Z</time></trkpt><trkpt lat="44.83727326187802" lon="9.329262115445824"><ele>618.5</ele><time>2026-04-05T16:43:57Z</time></trkpt><trkpt lat="44.83732227885772" lon="9.329465729983854"><ele>618.0</ele><time>2026-04-05T16:43:58Z</time></trkpt><trkpt lat="44.83736928362541" lon="9.329660921735664"><ele>617.5</ele><time>2026-04-05T16:43:59Z</time></trkpt><trkpt lat="44.837416037579594" lon="9.329843261664085"><ele>617.0</ele><time>2026-04-05T16:44:00Z</time></trkpt><trkpt lat="44.83747416264011" lon="9.330018168751309"><ele>616.5</ele><time>2026-04-05T16:44:01Z</time></trkpt><trkpt lat="44.83753861882188" lon="9.330178618760984"><ele>616.0</ele><time>2026-04-05T16:44:02Z</time></trkpt><trkpt lat="44.837593272539266" lon="9.330295763411176"><ele>615.5</ele><time>2026-04-05T16:44:03Z</time></trkpt><trkpt lat="44.83766715168672" lon="9.330401383888349"><ele>615.0</ele><time>2026-04-05T16:44:04Z</time></trkpt><trkpt lat="44.83777799412271" lon="9.330491291599971"><ele>607.6666666666666</ele><time>2026-04-05T16:44:05Z</time></trkpt><trkpt lat="44.837926691851614" lon="9.3305777094335"><ele>600.3333333333333</ele><time>2026-04-05T16:44:06Z</time></trkpt><trkpt lat="44.83809503350922" lon="9.330669130631515"><ele>593.0</ele><time>2026-04-05T16:44:07Z</time></trkpt><trkpt lat="44.83824207158853" lon="9.330732461679718"><ele>593.0</ele><time>2026-04-05T16:44:08Z</time></trkpt><trkpt lat="44.83837551516065" lon="9.330805144032205"><ele>593.0</ele><time>2026-04-05T16:44:09Z</time></trkpt><trkpt lat="44.83848443963082" lon="9.330892891353038"><ele>593.0</ele><time>2026-04-05T16:44:10Z</time></trkpt><trkpt lat="44.83860400160566" lon="9.330948108889345"><ele>593.0</ele><time>2026-04-05T16:44:11Z</time></trkpt><trkpt lat="44.838726550848854" lon="9.331000531510027"><ele>591.5</ele><time>2026-04-05T16:44:12Z</time></trkpt><trkpt lat="44.83885222778897" lon="9.33100152739305"><ele>590.0</ele><time>2026-04-05T16:44:13Z</time></trkpt><trkpt lat="44.83898929772689" lon="9.33094627465045"><ele>588.5</ele><time>2026-04-05T16:44:14Z</time></trkpt><trkpt lat="44.83910674032169" lon="9.330874843733673"><ele>587.0</ele><time>2026-04-05T16:44:15Z</time></trkpt><trkpt lat="44.839223876548594" lon="9.330822342357564"><ele>587.0</ele><time>2026-04-05T16:44:16Z</time></trkpt><trkpt lat="44.83934487096372" lon="9.33077448601298"><ele>587.0</ele><time>2026-04-05T16:44:16.999Z</time></trkpt><trkpt lat="44.83942792396367" lon="9.330721711705907"><ele>587.0</ele><time>2026-04-05T16:44:17.999Z</time></trkpt><trkpt lat="44.839519707356054" lon="9.330676159383593"><ele>587.0</ele><time>2026-04-05T16:44:18.999Z</time></trkpt><trkpt lat="44.83958911013731" lon="9.330644180567713"><ele>587.0</ele><time>2026-04-05T16:44:19.999Z</time></trkpt><trkpt lat="44.8396976368539" lon="9.330604314791454"><ele>587.0</ele><time>2026-04-05T16:44:20.999Z</time></trkpt><trkpt lat="44.839790772356245" lon="9.330576558725754"><ele>587.0</ele><time>2026-04-05T16:44:21.999Z</time></trkpt><trkpt lat="44.83989010199375" lon="9.330596637450228"><ele>587.0</ele><time>2026-04-05T16:44:22.999Z</time></trkpt><trkpt lat="44.83999126573472" lon="9.330651323627016"><ele>587.0</ele><time>2026-04-05T16:44:23.999Z</time></trkpt><trkpt lat="44.84009102758185" lon="9.330751950192022"><ele>587.0</ele><time>2026-04-05T16:44:24.999Z</time></trkpt><trkpt lat="44.84021072334827" lon="9.330912685017816"><ele>586.6666666666666</ele><time>2026-04-05T16:44:25.999Z</time></trkpt><trkpt lat="44.840350459352294" lon="9.331108280149182"><ele>586.3333333333334</ele><time>2026-04-05T16:44:26.999Z</time></trkpt><trkpt lat="44.84049649457485" lon="9.33130928380585"><ele>586.0</ele><time>2026-04-05T16:44:27.999Z</time></trkpt><trkpt lat="44.84061786526194" lon="9.331476977952839"><ele>586.0</ele><time>2026-04-05T16:44:28.999Z</time></trkpt><trkpt lat="44.84072764442402" lon="9.331628483017242"><ele>586.0</ele><time>2026-04-05T16:44:29.999Z</time></trkpt><trkpt lat="44.84083408847683" lon="9.331774018385245"><ele>586.0</ele><time>2026-04-05T16:44:30.999Z</time></trkpt><trkpt lat="44.84093324657851" lon="9.331916284666177"><ele>586.0</ele><time>2026-04-05T16:44:31.999Z</time></trkpt><trkpt lat="44.84104359185888" lon="9.332051927248912"><ele>585.0</ele><time>2026-04-05T16:44:32.999Z</time></trkpt><trkpt lat="44.841173858558186" lon="9.332144564614184"><ele>584.0</ele><time>2026-04-05T16:44:33.999Z</time></trkpt><trkpt lat="44.84130850833824" lon="9.332201387051713"><ele>583.0</ele><time>2026-04-05T16:44:34.999Z</time></trkpt><trkpt lat="44.8414469752237" lon="9.332225363735304"><ele>582.0</ele><time>2026-04-05T16:44:35.999Z</time></trkpt><trkpt lat="44.841562562413685" lon="9.332206699413655"><ele>582.0</ele><time>2026-04-05T16:44:36.999Z</time></trkpt><trkpt lat="44.84166528808427" lon="9.332146872575114"><ele>582.0</ele><time>2026-04-05T16:44:37.999Z</time></trkpt><trkpt lat="44.841776087246096" lon="9.332046887578997"><ele>582.0</ele><time>2026-04-05T16:44:38.999Z</time></trkpt><trkpt lat="44.8418769359068" lon="9.331886958393488"><ele>582.0</ele><time>2026-04-05T16:44:39.999Z</time></trkpt><trkpt lat="44.84196825330247" lon="9.33176448279475"><ele>580.75</ele><time>2026-04-05T16:44:40.999Z</time></trkpt><trkpt lat="44.8420706989915" lon="9.331634730811402"><ele>579.5</ele><time>2026-04-05T16:44:41.999Z</time></trkpt><trkpt lat="44.84220426610368" lon="9.33157340956482"><ele>578.25</ele><time>2026-04-05T16:44:42.999Z</time></trkpt><trkpt lat="44.84234682903707" lon="9.3315373027865"><ele>577.0</ele><time>2026-04-05T16:44:43.999Z</time></trkpt><trkpt lat="44.8425134855203" lon="9.331560915491337"><ele>576.6666666666667</ele><time>2026-04-05T16:44:44.999Z</time></trkpt><trkpt lat="44.84272064268161" lon="9.331621751696794"><ele>576.3333333333334</ele><time>2026-04-05T16:44:45.999Z</time></trkpt><trkpt lat="44.842940574543306" lon="9.331697925441869"><ele>576.0</ele><time>2026-04-05T16:44:46.999Z</time></trkpt><trkpt lat="44.843137925179484" lon="9.331747482307547"><ele>576.0</ele><time>2026-04-05T16:44:47.999Z</time></trkpt><trkpt lat="44.84332029069956" lon="9.33177667505176"><ele>576.0</ele><time>2026-04-05T16:44:48.999Z</time></trkpt><trkpt lat="44.84351583835133" lon="9.33177177543179"><ele>576.0</ele><time>2026-04-05T16:44:49.999Z</time></trkpt><trkpt lat="44.843733320484475" lon="9.331741661948554"><ele>575.3333333333334</ele><time>2026-04-05T16:44:50.999Z</time></trkpt><trkpt lat="44.84393754009289" lon="9.331699389872"><ele>574.6666666666667</ele><time>2026-04-05T16:44:51.999Z</time></trkpt><trkpt lat="44.844124090297115" lon="9.331673744876518"><ele>574.0</ele><time>2026-04-05T16:44:52.999Z</time></trkpt><trkpt lat="44.8443053785702" lon="9.331635187599385"><ele>572.75</ele><time>2026-04-05T16:44:53.999Z</time></trkpt><trkpt lat="44.84443562791231" lon="9.331587214210332"><ele>571.5</ele><time>2026-04-05T16:44:54.999Z</time></trkpt><trkpt lat="44.844586332604436" lon="9.331566065581539"><ele>570.25</ele><time>2026-04-05T16:44:55.999Z</time></trkpt><trkpt lat="44.84471753733585" lon="9.331543360999902"><ele>569.0</ele><time>2026-04-05T16:44:56.999Z</time></trkpt><trkpt lat="44.84483066583064" lon="9.331528006319727"><ele>569.0</ele><time>2026-04-05T16:44:57.999Z</time></trkpt><trkpt lat="44.84495483324066" lon="9.331477085080259"><ele>569.0</ele><time>2026-04-05T16:44:58.999Z</time></trkpt><trkpt lat="44.8450666335016" lon="9.331411089918472"><ele>569.0</ele><time>2026-04-05T16:44:59.999Z</time></trkpt><trkpt lat="44.84518442949463" lon="9.331381520493743"><ele>569.0</ele><time>2026-04-05T16:45:00.999Z</time></trkpt><trkpt lat="44.84528640319387" lon="9.331301667922766"><ele>569.5</ele><time>2026-04-05T16:45:01.999Z</time></trkpt><trkpt lat="44.845399113874976" lon="9.331224572782435"><ele>570.0</ele><time>2026-04-05T16:45:02.999Z</time></trkpt><trkpt lat="44.84552916289681" lon="9.331176735879918"><ele>570.5</ele><time>2026-04-05T16:45:03.999Z</time></trkpt><trkpt lat="44.84570676456036" lon="9.331166196833436"><ele>571.0</ele><time>2026-04-05T16:45:04.999Z</time></trkpt><trkpt lat="44.845938683627935" lon="9.33118899683641"><ele>570.0</ele><time>2026-04-05T16:45:05.999Z</time></trkpt><trkpt lat="44.846143554096074" lon="9.331179885311881"><ele>569.0</ele><time>2026-04-05T16:45:06.999Z</time></trkpt><trkpt lat="44.84631148661601" lon="9.331166850418379"><ele>568.0</ele><time>2026-04-05T16:45:07.999Z</time></trkpt><trkpt lat="44.8464557406504" lon="9.331155842687593"><ele>568.0</ele><time>2026-04-05T16:45:08.999Z</time></trkpt><trkpt lat="44.8465853418876" lon="9.331163350662372"><ele>568.0</ele><time>2026-04-05T16:45:09.999Z</time></trkpt><trkpt lat="44.84671667067126" lon="9.331213103809539"><ele>568.0</ele><time>2026-04-05T16:45:10.999Z</time></trkpt><trkpt lat="44.846861285385124" lon="9.331323759443334"><ele>568.0</ele><time>2026-04-05T16:45:11.999Z</time></trkpt><trkpt lat="44.84702790787" lon="9.33146948662645"><ele>566.6666666666667</ele><time>2026-04-05T16:45:12.999Z</time></trkpt><trkpt lat="44.84721495540569" lon="9.331561892179657"><ele>565.3333333333334</ele><time>2026-04-05T16:45:13.999Z</time></trkpt><trkpt lat="44.847384348305866" lon="9.331643636276674"><ele>564.0</ele><time>2026-04-05T16:45:14.999Z</time></trkpt><trkpt lat="44.847550739696686" lon="9.33171108425584"><ele>563.3333333333334</ele><time>2026-04-05T16:45:15.999Z</time></trkpt><trkpt lat="44.847714268461694" lon="9.331775827819028"><ele>562.6666666666667</ele><time>2026-04-05T16:45:16.999Z</time></trkpt><trkpt lat="44.84788882529544" lon="9.33182059419759"><ele>562.0</ele><time>2026-04-05T16:45:17.999Z</time></trkpt><trkpt lat="44.84805316043794" lon="9.331846003328957"><ele>562.0</ele><time>2026-04-05T16:45:18.999Z</time></trkpt><trkpt lat="44.84820134507211" lon="9.3318560507062"><ele>562.0</ele><time>2026-04-05T16:45:19.999Z</time></trkpt><trkpt lat="44.84833945485259" lon="9.331827370113183"><ele>562.0</ele><time>2026-04-05T16:45:20.999Z</time></trkpt><trkpt lat="44.848515170487964" lon="9.331738246500533"><ele>562.0</ele><time>2026-04-05T16:45:22Z</time></trkpt><trkpt lat="44.84872134230602" lon="9.331608816902936"><ele>562.0</ele><time>2026-04-05T16:45:23Z</time></trkpt><trkpt lat="44.84892194652957" lon="9.331510853005193"><ele>562.0</ele><time>2026-04-05T16:45:24Z</time></trkpt><trkpt lat="44.84911230143068" lon="9.331385787067887"><ele>563.5</ele><time>2026-04-05T16:45:25Z</time></trkpt><trkpt lat="44.84931918173658" lon="9.331304716336511"><ele>565.0</ele><time>2026-04-05T16:45:26Z</time></trkpt><trkpt lat="44.849559536686904" lon="9.331190482944454"><ele>565.0</ele><time>2026-04-05T16:45:27Z</time></trkpt><trkpt lat="44.849831528454985" lon="9.331089735807785"><ele>565.0</ele><time>2026-04-05T16:45:28Z</time></trkpt><trkpt lat="44.85008031697711" lon="9.33099859235089"><ele>563.6666666666667</ele><time>2026-04-05T16:45:29Z</time></trkpt><trkpt lat="44.85030385955648" lon="9.3309165312065"><ele>562.3333333333334</ele><time>2026-04-05T16:45:30Z</time></trkpt><trkpt lat="44.85051281625556" lon="9.33083968741994"><ele>561.0</ele><time>2026-04-05T16:45:31Z</time></trkpt><trkpt lat="44.85070562181677" lon="9.330741071289857"><ele>561.0</ele><time>2026-04-05T16:45:32Z</time></trkpt><trkpt lat="44.85089885438478" lon="9.33068005190844"><ele>561.0</ele><time>2026-04-05T16:45:33Z</time></trkpt><trkpt lat="44.851075505087124" lon="9.330645048370572"><ele>561.0</ele><time>2026-04-05T16:45:34Z</time></trkpt><trkpt lat="44.851227114091195" lon="9.330623970175855"><ele>561.25</ele><time>2026-04-05T16:45:35Z</time></trkpt><trkpt lat="44.85135575609649" lon="9.330611021100022"><ele>561.5</ele><time>2026-04-05T16:45:36Z</time></trkpt><trkpt lat="44.851463809612135" lon="9.33059821530299"><ele>561.75</ele><time>2026-04-05T16:45:37Z</time></trkpt><trkpt lat="44.85157839784854" lon="9.330556350005258"><ele>562.0</ele><time>2026-04-05T16:45:38Z</time></trkpt><trkpt lat="44.85168265115283" lon="9.330461272282736"><ele>562.0</ele><time>2026-04-05T16:45:39Z</time></trkpt><trkpt lat="44.85175649232561" lon="9.330327737129723"><ele>562.0</ele><time>2026-04-05T16:45:40Z</time></trkpt><trkpt lat="44.85181930418251" lon="9.330150359158916"><ele>562.0</ele><time>2026-04-05T16:45:41Z</time></trkpt><trkpt lat="44.85184644151516" lon="9.32995072616641"><ele>562.0</ele><time>2026-04-05T16:45:42Z</time></trkpt><trkpt lat="44.85184905456916" lon="9.329766520119671"><ele>560.75</ele><time>2026-04-05T16:45:43Z</time></trkpt><trkpt lat="44.85188264888853" lon="9.329608738539473"><ele>559.5</ele><time>2026-04-05T16:45:44Z</time></trkpt><trkpt lat="44.85197241018729" lon="9.329475212441125"><ele>558.25</ele><time>2026-04-05T16:45:45Z</time></trkpt><trkpt lat="44.852057633212155" lon="9.32936740114174"><ele>557.0</ele><time>2026-04-05T16:45:46Z</time></trkpt><trkpt lat="44.85216843662595" lon="9.32930109552775"><ele>557.0</ele><time>2026-04-05T16:45:47Z</time></trkpt><trkpt lat="44.85232572093932" lon="9.329254921801358"><ele>557.0</ele><time>2026-04-05T16:45:48Z</time></trkpt><trkpt lat="44.85253190758252" lon="9.329199618840619"><ele>557.0</ele><time>2026-04-05T16:45:49Z</time></trkpt><trkpt lat="44.85271257413482" lon="9.32915603679503"><ele>555.0</ele><time>2026-04-05T16:45:50Z</time></trkpt><trkpt lat="44.85287698520842" lon="9.329109992007107"><ele>553.0</ele><time>2026-04-05T16:45:51Z</time></trkpt><trkpt lat="44.85303496903025" lon="9.329034395163152"><ele>551.0</ele><time>2026-04-05T16:45:52Z</time></trkpt><trkpt lat="44.85319228574506" lon="9.328923539447562"><ele>549.3333333333333</ele><time>2026-04-05T16:45:53Z</time></trkpt><trkpt lat="44.85335022502177" lon="9.328785774421766"><ele>547.6666666666666</ele><time>2026-04-05T16:45:54Z</time></trkpt><trkpt lat="44.853496235588565" lon="9.32862687348674"><ele>546.0</ele><time>2026-04-05T16:45:55Z</time></trkpt><trkpt lat="44.85364064540895" lon="9.328420422892625"><ele>546.0</ele><time>2026-04-05T16:45:56Z</time></trkpt><trkpt lat="44.85381059074295" lon="9.328152944877285"><ele>546.0</ele><time>2026-04-05T16:45:57Z</time></trkpt><trkpt lat="44.853988550041365" lon="9.3278936030329"><ele>545.0</ele><time>2026-04-05T16:45:58Z</time></trkpt><trkpt lat="44.85412238888025" lon="9.327675775651318"><ele>544.0</ele><time>2026-04-05T16:45:59Z</time></trkpt><trkpt lat="44.85425154691871" lon="9.327466689961069"><ele>543.0</ele><time>2026-04-05T16:46:00Z</time></trkpt><trkpt lat="44.85437726001855" lon="9.327272748629081"><ele>547.6666666666666</ele><time>2026-04-05T16:46:01Z</time></trkpt><trkpt lat="44.854484341420175" lon="9.327122214586392"><ele>552.3333333333333</ele><time>2026-04-05T16:46:02Z</time></trkpt><trkpt lat="44.854625708180194" lon="9.327025620497611"><ele>557.0</ele><time>2026-04-05T16:46:03Z</time></trkpt><trkpt lat="44.85481864927588" lon="9.326909435299653"><ele>557.0</ele><time>2026-04-05T16:46:04Z</time></trkpt><trkpt lat="44.855040737153665" lon="9.326817121695298"><ele>557.0</ele><time>2026-04-05T16:46:05Z</time></trkpt><trkpt lat="44.855246273098864" lon="9.326686832961919"><ele>557.0</ele><time>2026-04-05T16:46:06Z</time></trkpt><trkpt lat="44.85541724423723" lon="9.32654279735998"><ele>557.0</ele><time>2026-04-05T16:46:07Z</time></trkpt><trkpt lat="44.85557838038231" lon="9.32640526071648"><ele>557.0</ele><time>2026-04-05T16:46:08Z</time></trkpt><trkpt lat="44.85574932579526" lon="9.326277160226997"><ele>557.0</ele><time>2026-04-05T16:46:09Z</time></trkpt><trkpt lat="44.85587375674073" lon="9.326112815858346"><ele>557.0</ele><time>2026-04-05T16:46:10Z</time></trkpt><trkpt lat="44.85599096132277" lon="9.325982099999795"><ele>557.0</ele><time>2026-04-05T16:46:11Z</time></trkpt><trkpt lat="44.85610263431986" lon="9.325847245633394"><ele>553.3333333333333</ele><time>2026-04-05T16:46:12Z</time></trkpt><trkpt lat="44.85621295891971" lon="9.325718155247921"><ele>549.6666666666666</ele><time>2026-04-05T16:46:13Z</time></trkpt><trkpt lat="44.85630840758812" lon="9.325521069199615"><ele>546.0</ele><time>2026-04-05T16:46:14Z</time></trkpt><trkpt lat="44.85639280705941" lon="9.325280137533483"><ele>546.0</ele><time>2026-04-05T16:46:15Z</time></trkpt><trkpt lat="44.85646586627611" lon="9.325049588643493"><ele>546.0</ele><time>2026-04-05T16:46:16Z</time></trkpt><trkpt lat="44.856526648933865" lon="9.324853283172198"><ele>546.0</ele><time>2026-04-05T16:46:17Z</time></trkpt><trkpt lat="44.85658376740004" lon="9.324678211187472"><ele>548.0</ele><time>2026-04-05T16:46:18Z</time></trkpt><trkpt lat="44.85664517418723" lon="9.32451283849355"><ele>550.0</ele><time>2026-04-05T16:46:19Z</time></trkpt><trkpt lat="44.85672182756439" lon="9.324382239795924"><ele>552.0</ele><time>2026-04-05T16:46:20Z</time></trkpt><trkpt lat="44.85684589977238" lon="9.324270760246698"><ele>554.0</ele><time>2026-04-05T16:46:21Z</time></trkpt><trkpt lat="44.85697214482303" lon="9.324122972317062"><ele>549.6666666666666</ele><time>2026-04-05T16:46:22Z</time></trkpt><trkpt lat="44.85707806837557" lon="9.323879991290989"><ele>545.3333333333334</ele><time>2026-04-05T16:46:23Z</time></trkpt><trkpt lat="44.857215915203646" lon="9.323599041124234"><ele>541.0</ele><time>2026-04-05T16:46:23.999Z</time></trkpt><trkpt lat="44.857333930204405" lon="9.323316612916488"><ele>543.6666666666667</ele><time>2026-04-05T16:46:24.999Z</time></trkpt><trkpt lat="44.85744912874011" lon="9.323045934448261"><ele>546.3333333333334</ele><time>2026-04-05T16:46:25.999Z</time></trkpt><trkpt lat="44.85755268711442" lon="9.322815602023661"><ele>549.0</ele><time>2026-04-05T16:46:26.999Z</time></trkpt><trkpt lat="44.857653495068284" lon="9.322599652422863"><ele>543.3333333333334</ele><time>2026-04-05T16:46:27.999Z</time></trkpt><trkpt lat="44.85774394586338" lon="9.322400558039982"><ele>537.6666666666667</ele><time>2026-04-05T16:46:28.999Z</time></trkpt><trkpt lat="44.85783364399062" lon="9.322210483671153"><ele>532.0</ele><time>2026-04-05T16:46:29.999Z</time></trkpt><trkpt lat="44.85791631574194" lon="9.32199965281009"><ele>532.0</ele><time>2026-04-05T16:46:30.999Z</time></trkpt><trkpt lat="44.85800995366318" lon="9.321750035190245"><ele>532.0</ele><time>2026-04-05T16:46:31.999Z</time></trkpt><trkpt lat="44.858084862130255" lon="9.321444827645287"><ele>532.0</ele><time>2026-04-05T16:46:32.999Z</time></trkpt><trkpt lat="44.858163155044544" lon="9.321143258718442"><ele>534.3333333333334</ele><time>2026-04-05T16:46:33.999Z</time></trkpt><trkpt lat="44.85823566114576" lon="9.320860029933161"><ele>536.6666666666666</ele><time>2026-04-05T16:46:34.999Z</time></trkpt><trkpt lat="44.858302220267475" lon="9.320598149275874"><ele>539.0</ele><time>2026-04-05T16:46:35.999Z</time></trkpt><trkpt lat="44.858367471449256" lon="9.320341415101522"><ele>540.3333333333333</ele><time>2026-04-05T16:46:36.999Z</time></trkpt><trkpt lat="44.8584382362807" lon="9.320063194916534"><ele>541.6666666666666</ele><time>2026-04-05T16:46:37.999Z</time></trkpt><trkpt lat="44.85853205724069" lon="9.31980713027021"><ele>543.0</ele><time>2026-04-05T16:46:38.999Z</time></trkpt><trkpt lat="44.858649578095786" lon="9.31953274087264"><ele>540.0</ele><time>2026-04-05T16:46:39.999Z</time></trkpt><trkpt lat="44.85875141604237" lon="9.319284679288275"><ele>537.0</ele><time>2026-04-05T16:46:40.999Z</time></trkpt><trkpt lat="44.85886114667576" lon="9.319050489481686"><ele>534.0</ele><time>2026-04-05T16:46:41.999Z</time></trkpt><trkpt lat="44.85898380110201" lon="9.31879602750237"><ele>534.0</ele><time>2026-04-05T16:46:42.999Z</time></trkpt><trkpt lat="44.859058617667785" lon="9.318527506086607"><ele>534.0</ele><time>2026-04-05T16:46:43.999Z</time></trkpt><trkpt lat="44.85911866351825" lon="9.318293578661658"><ele>534.0</ele><time>2026-04-05T16:46:44.999Z</time></trkpt><trkpt lat="44.859191702408786" lon="9.318056957049963"><ele>529.6666666666666</ele><time>2026-04-05T16:46:45.999Z</time></trkpt><trkpt lat="44.85930511012391" lon="9.317809064007594"><ele>525.3333333333333</ele><time>2026-04-05T16:46:46.999Z</time></trkpt><trkpt lat="44.85942547740875" lon="9.317582095533158"><ele>521.0</ele><time>2026-04-05T16:46:47.999Z</time></trkpt><trkpt lat="44.859532207793436" lon="9.317382905505019"><ele>521.25</ele><time>2026-04-05T16:46:48.999Z</time></trkpt><trkpt lat="44.85963004721569" lon="9.317202278863038"><ele>521.5</ele><time>2026-04-05T16:46:49.999Z</time></trkpt><trkpt lat="44.859714185443906" lon="9.317047175132227"><ele>521.75</ele><time>2026-04-05T16:46:50.999Z</time></trkpt><trkpt lat="44.859780166897096" lon="9.316920314847556"><ele>522.0</ele><time>2026-04-05T16:46:51.999Z</time></trkpt><trkpt lat="44.85981814514433" lon="9.316784960312093"><ele>522.0</ele><time>2026-04-05T16:46:52.999Z</time></trkpt><trkpt lat="44.85983600254499" lon="9.316659542864368"><ele>522.0</ele><time>2026-04-05T16:46:53.999Z</time></trkpt><trkpt lat="44.859812230563435" lon="9.316535016152217"><ele>522.0</ele><time>2026-04-05T16:46:54.999Z</time></trkpt><trkpt lat="44.859750683716655" lon="9.316424061771604"><ele>522.0</ele><time>2026-04-05T16:46:55.999Z</time></trkpt><trkpt lat="44.859646694249" lon="9.316313648124364"><ele>522.0</ele><time>2026-04-05T16:46:56.999Z</time></trkpt><trkpt lat="44.85952848796565" lon="9.31619441827771"><ele>521.4</ele><time>2026-04-05T16:46:57.999Z</time></trkpt><trkpt lat="44.859430914395276" lon="9.316062801894654"><ele>520.8000000000001</ele><time>2026-04-05T16:46:58.999Z</time></trkpt><trkpt lat="44.859359030088584" lon="9.315958191628171"><ele>520.2</ele><time>2026-04-05T16:46:59.999Z</time></trkpt><trkpt lat="44.85931549691839" lon="9.315845529095734"><ele>519.6</ele><time>2026-04-05T16:47:00.999Z</time></trkpt><trkpt lat="44.859291157754626" lon="9.315716520032584"><ele>519.0</ele><time>2026-04-05T16:47:01.999Z</time></trkpt><trkpt lat="44.85930980894177" lon="9.315554801168686"><ele>520.75</ele><time>2026-04-05T16:47:02.999Z</time></trkpt><trkpt lat="44.8593504722595" lon="9.315402599804258"><ele>522.5</ele><time>2026-04-05T16:47:03.999Z</time></trkpt><trkpt lat="44.859414390997195" lon="9.31528931211731"><ele>524.25</ele><time>2026-04-05T16:47:04.999Z</time></trkpt><trkpt lat="44.85952251629795" lon="9.315211400585088"><ele>526.0</ele><time>2026-04-05T16:47:05.999Z</time></trkpt><trkpt lat="44.859666838489886" lon="9.315157764870799"><ele>526.0</ele><time>2026-04-05T16:47:06.999Z</time></trkpt><trkpt lat="44.85984900548412" lon="9.315116070408898"><ele>526.0</ele><time>2026-04-05T16:47:07.999Z</time></trkpt><trkpt lat="44.86002792912156" lon="9.315085697815608"><ele>526.0</ele><time>2026-04-05T16:47:08.999Z</time></trkpt><trkpt lat="44.86018460520031" lon="9.315026127523241"><ele>526.3333333333334</ele><time>2026-04-05T16:47:09.999Z</time></trkpt><trkpt lat="44.86032383021755" lon="9.314934118390426"><ele>526.6666666666666</ele><time>2026-04-05T16:47:10.999Z</time></trkpt><trkpt lat="44.86045317442578" lon="9.314806479095646"><ele>527.0</ele><time>2026-04-05T16:47:11.999Z</time></trkpt><trkpt lat="44.86060260236172" lon="9.314622907939135"><ele>527.0</ele><time>2026-04-05T16:47:12.999Z</time></trkpt><trkpt lat="44.86077419865454" lon="9.314440868778888"><ele>527.0</ele><time>2026-04-05T16:47:13.999Z</time></trkpt><trkpt lat="44.86089069959235" lon="9.31429510391095"><ele>527.0</ele><time>2026-04-05T16:47:14.999Z</time></trkpt><trkpt lat="44.86101316689414" lon="9.314153555757859"><ele>524.0</ele><time>2026-04-05T16:47:15.999Z</time></trkpt><trkpt lat="44.861179575896436" lon="9.314061958638696"><ele>521.0</ele><time>2026-04-05T16:47:16.999Z</time></trkpt><trkpt lat="44.86133443184334" lon="9.313997166962773"><ele>518.0</ele><time>2026-04-05T16:47:17.999Z</time></trkpt><trkpt lat="44.86146550081173" lon="9.31393415552245"><ele>519.75</ele><time>2026-04-05T16:47:18.999Z</time></trkpt><trkpt lat="44.86158433084914" lon="9.31385505159636"><ele>521.5</ele><time>2026-04-05T16:47:19.999Z</time></trkpt><trkpt lat="44.861678373593314" lon="9.313739685412676"><ele>523.25</ele><time>2026-04-05T16:47:20.999Z</time></trkpt><trkpt lat="44.86175139303052" lon="9.313574911932623"><ele>525.0</ele><time>2026-04-05T16:47:21.999Z</time></trkpt><trkpt lat="44.86182008230521" lon="9.313321352409488"><ele>517.5</ele><time>2026-04-05T16:47:22.999Z</time></trkpt><trkpt lat="44.861901233834864" lon="9.313006255644462"><ele>510.0</ele><time>2026-04-05T16:47:23.999Z</time></trkpt><trkpt lat="44.86198975142367" lon="9.312660078593524"><ele>510.0</ele><time>2026-04-05T16:47:24.999Z</time></trkpt><trkpt lat="44.86206537180007" lon="9.312379414928495"><ele>510.0</ele><time>2026-04-05T16:47:25.999Z</time></trkpt><trkpt lat="44.86214005514212" lon="9.312125052487932"><ele>510.0</ele><time>2026-04-05T16:47:26.999Z</time></trkpt><trkpt lat="44.86219135378145" lon="9.311898193003463"><ele>511.5</ele><time>2026-04-05T16:47:28Z</time></trkpt><trkpt lat="44.86225978386963" lon="9.311700392419345"><ele>513.0</ele><time>2026-04-05T16:47:29Z</time></trkpt><trkpt lat="44.86229346156295" lon="9.311513053069852"><ele>514.5</ele><time>2026-04-05T16:47:30Z</time></trkpt><trkpt lat="44.86233629917051" lon="9.311353789028175"><ele>516.0</ele><time>2026-04-05T16:47:31Z</time></trkpt><trkpt lat="44.86235440102704" lon="9.311188351269605"><ele>516.0</ele><time>2026-04-05T16:47:32Z</time></trkpt><trkpt lat="44.862330413679096" lon="9.310997441149834"><ele>516.0</ele><time>2026-04-05T16:47:33Z</time></trkpt><trkpt lat="44.86229261730334" lon="9.310780022433507"><ele>516.0</ele><time>2026-04-05T16:47:34Z</time></trkpt><trkpt lat="44.86226815390937" lon="9.310594854422767"><ele>516.0</ele><time>2026-04-05T16:47:35Z</time></trkpt><trkpt lat="44.862262358259194" lon="9.310415634868903"><ele>517.3333333333334</ele><time>2026-04-05T16:47:36Z</time></trkpt><trkpt lat="44.86234039307562" lon="9.310140974320191"><ele>518.6666666666667</ele><time>2026-04-05T16:47:37Z</time></trkpt><trkpt lat="44.86241577992335" lon="9.309821052769491"><ele>520.0</ele><time>2026-04-05T16:47:38Z</time></trkpt><trkpt lat="44.86247456462099" lon="9.309559011551958"><ele>521.3333333333334</ele><time>2026-04-05T16:47:39Z</time></trkpt><trkpt lat="44.8625263333328" lon="9.309335944472169"><ele>522.6666666666666</ele><time>2026-04-05T16:47:40Z</time></trkpt><trkpt lat="44.862577656364685" lon="9.309131472180976"><ele>524.0</ele><time>2026-04-05T16:47:41Z</time></trkpt><trkpt lat="44.8626816420917" lon="9.308963568924751"><ele>520.0</ele><time>2026-04-05T16:47:42Z</time></trkpt><trkpt lat="44.86279981043617" lon="9.308832001974102"><ele>516.0</ele><time>2026-04-05T16:47:43Z</time></trkpt><trkpt lat="44.86289678140065" lon="9.308732735317005"><ele>512.0</ele><time>2026-04-05T16:47:44Z</time></trkpt><trkpt lat="44.86296935160403" lon="9.308626469631497"><ele>508.0</ele><time>2026-04-05T16:47:45Z</time></trkpt><trkpt lat="44.86302147168527" lon="9.308512313568508"><ele>508.0</ele><time>2026-04-05T16:47:46Z</time></trkpt><trkpt lat="44.86302098987431" lon="9.308373165030309"><ele>508.0</ele><time>2026-04-05T16:47:47Z</time></trkpt><trkpt lat="44.8629677733998" lon="9.308211264275602"><ele>508.0</ele><time>2026-04-05T16:47:48Z</time></trkpt><trkpt lat="44.862885344892945" lon="9.308057982574152"><ele>508.0</ele><time>2026-04-05T16:47:49Z</time></trkpt><trkpt lat="44.862765811230766" lon="9.30788302947854"><ele>506.5</ele><time>2026-04-05T16:47:50Z</time></trkpt><trkpt lat="44.862674827806366" lon="9.307695788872289"><ele>505.0</ele><time>2026-04-05T16:47:51Z</time></trkpt><trkpt lat="44.862601144806455" lon="9.307557157387617"><ele>503.5</ele><time>2026-04-05T16:47:52Z</time></trkpt><trkpt lat="44.862545214829524" lon="9.307421590946708"><ele>502.0</ele><time>2026-04-05T16:47:53Z</time></trkpt><trkpt lat="44.862536280955474" lon="9.307270192971245"><ele>502.20000000000005</ele><time>2026-04-05T16:47:54Z</time></trkpt><trkpt lat="44.862559243986055" lon="9.307109246911669"><ele>502.40000000000003</ele><time>2026-04-05T16:47:55Z</time></trkpt><trkpt lat="44.86258618956231" lon="9.306963795006189"><ele>502.59999999999997</ele><time>2026-04-05T16:47:56Z</time></trkpt><trkpt lat="44.86262931054122" lon="9.30684951415165"><ele>502.79999999999995</ele><time>2026-04-05T16:47:57Z</time></trkpt><trkpt lat="44.86264664476371" lon="9.306740119427092"><ele>503.0</ele><time>2026-04-05T16:47:59Z</time></trkpt><trkpt lat="44.86264058573534" lon="9.306647730174225"><ele>507.4</ele><time>2026-04-05T16:48:01Z</time></trkpt><trkpt lat="44.862596462379145" lon="9.306562298925632"><ele>511.79999999999995</ele><time>2026-04-05T16:48:04Z</time></trkpt><trkpt lat="44.862528133957724" lon="9.306346579029478"><ele>516.2</ele><time>2026-04-05T16:48:21Z</time></trkpt><trkpt lat="44.862508811892354" lon="9.306254915629506"><ele>520.6</ele><time>2026-04-05T16:48:22Z</time></trkpt><trkpt lat="44.8624643453137" lon="9.306168290706996"><ele>525.0</ele><time>2026-04-05T16:48:23Z</time></trkpt><trkpt lat="44.86243951951426" lon="9.306051588122294"><ele>525.0</ele><time>2026-04-05T16:48:24Z</time></trkpt><trkpt lat="44.86240472185629" lon="9.305819332872966"><ele>525.0</ele><time>2026-04-05T16:48:25Z</time></trkpt><trkpt lat="44.8624640120195" lon="9.305581859751882"><ele>525.0</ele><time>2026-04-05T16:48:26Z</time></trkpt><trkpt lat="44.862579023794304" lon="9.305345841932152"><ele>518.6666666666666</ele><time>2026-04-05T16:48:27Z</time></trkpt><trkpt lat="44.862677943535516" lon="9.305132091888309"><ele>512.3333333333333</ele><time>2026-04-05T16:48:28Z</time></trkpt><trkpt lat="44.862741182813" lon="9.304920733042007"><ele>506.0</ele><time>2026-04-05T16:48:29Z</time></trkpt><trkpt lat="44.862791964596354" lon="9.30471861209534"><ele>506.0</ele><time>2026-04-05T16:48:29.999Z</time></trkpt><trkpt lat="44.86282901144685" lon="9.304508963494072"><ele>506.0</ele><time>2026-04-05T16:48:30.999Z</time></trkpt><trkpt lat="44.862862423118834" lon="9.304290518835245"><ele>506.0</ele><time>2026-04-05T16:48:31.999Z</time></trkpt><trkpt lat="44.86289092209559" lon="9.304034060915297"><ele>505.66666666666663</ele><time>2026-04-05T16:48:32.999Z</time></trkpt><trkpt lat="44.86289007184185" lon="9.303781545549224"><ele>505.33333333333337</ele><time>2026-04-05T16:48:33.999Z</time></trkpt><trkpt lat="44.862876677440624" lon="9.303566795933058"><ele>505.0</ele><time>2026-04-05T16:48:34.999Z</time></trkpt><trkpt lat="44.86287895738383" lon="9.30337558402461"><ele>505.0</ele><time>2026-04-05T16:48:35.999Z</time></trkpt><trkpt lat="44.86284606003336" lon="9.303191239579432"><ele>505.0</ele><time>2026-04-05T16:48:36.999Z</time></trkpt><trkpt lat="44.86279773983867" lon="9.302988889380394"><ele>505.0</ele><time>2026-04-05T16:48:37.999Z</time></trkpt><trkpt lat="44.86274192713863" lon="9.302818330597194"><ele>505.0</ele><time>2026-04-05T16:48:38.999Z</time></trkpt><trkpt lat="44.86271757567308" lon="9.302617318178006"><ele>505.33333333333337</ele><time>2026-04-05T16:48:39.999Z</time></trkpt><trkpt lat="44.8627336384449" lon="9.302404116541512"><ele>505.66666666666663</ele><time>2026-04-05T16:48:40.999Z</time></trkpt><trkpt lat="44.86278270400626" lon="9.302170137069309"><ele>506.0</ele><time>2026-04-05T16:48:41.999Z</time></trkpt><trkpt lat="44.86282900356731" lon="9.301952951544456"><ele>507.0</ele><time>2026-04-05T16:48:42.999Z</time></trkpt><trkpt lat="44.86291338966739" lon="9.301759246714637"><ele>508.0</ele><time>2026-04-05T16:48:43.999Z</time></trkpt><trkpt lat="44.863058311975074" lon="9.301548904248344"><ele>509.0</ele><time>2026-04-05T16:48:44.999Z</time></trkpt><trkpt lat="44.86319969420438" lon="9.301354473674998"><ele>513.6666666666666</ele><time>2026-04-05T16:48:45.999Z</time></trkpt><trkpt lat="44.86330376963381" lon="9.301175011783007"><ele>518.3333333333334</ele><time>2026-04-05T16:48:46.999Z</time></trkpt><trkpt lat="44.86338181678096" lon="9.30100193021248"><ele>523.0</ele><time>2026-04-05T16:48:47.999Z</time></trkpt><trkpt lat="44.86343870898328" lon="9.300806622663597"><ele>513.6666666666667</ele><time>2026-04-05T16:48:48.999Z</time></trkpt><trkpt lat="44.863488755546854" lon="9.300596383185074"><ele>504.33333333333337</ele><time>2026-04-05T16:48:49.999Z</time></trkpt><trkpt lat="44.863524411971156" lon="9.30036835225071"><ele>495.0</ele><time>2026-04-05T16:48:50.999Z</time></trkpt><trkpt lat="44.86359218270686" lon="9.300189351016368"><ele>495.0</ele><time>2026-04-05T16:48:51.999Z</time></trkpt><trkpt lat="44.8636583289106" lon="9.300030821031818"><ele>495.0</ele><time>2026-04-05T16:48:52.999Z</time></trkpt><trkpt lat="44.863721967543434" lon="9.299881784444283"><ele>495.0</ele><time>2026-04-05T16:48:53.999Z</time></trkpt><trkpt lat="44.863760339349845" lon="9.299726620869961"><ele>495.0</ele><time>2026-04-05T16:48:54.999Z</time></trkpt><trkpt lat="44.863788144183765" lon="9.299573519927831"><ele>494.25</ele><time>2026-04-05T16:48:55.999Z</time></trkpt><trkpt lat="44.8637960557056" lon="9.299400941324288"><ele>493.5</ele><time>2026-04-05T16:48:56.999Z</time></trkpt><trkpt lat="44.86373320839721" lon="9.299200319454922"><ele>492.75</ele><time>2026-04-05T16:48:57.999Z</time></trkpt><trkpt lat="44.86365652103382" lon="9.29899240313001"><ele>492.0</ele><time>2026-04-05T16:48:58.999Z</time></trkpt><trkpt lat="44.86361967141755" lon="9.298733215876531"><ele>490.0</ele><time>2026-04-05T16:48:59.999Z</time></trkpt><trkpt lat="44.8635885755781" lon="9.298516212866776"><ele>488.0</ele><time>2026-04-05T16:49:00.999Z</time></trkpt><trkpt lat="44.863565781133055" lon="9.298298083174755"><ele>486.0</ele><time>2026-04-05T16:49:01.999Z</time></trkpt><trkpt lat="44.863544695777954" lon="9.298065667376928"><ele>486.0</ele><time>2026-04-05T16:49:02.999Z</time></trkpt><trkpt lat="44.86356865309464" lon="9.297805032014733"><ele>486.0</ele><time>2026-04-05T16:49:03.999Z</time></trkpt><trkpt lat="44.86365521621337" lon="9.297491678006791"><ele>486.0</ele><time>2026-04-05T16:49:04.999Z</time></trkpt><trkpt lat="44.86373494606329" lon="9.297194677406724"><ele>487.0</ele><time>2026-04-05T16:49:05.999Z</time></trkpt><trkpt lat="44.86379208602392" lon="9.296932209946407"><ele>488.0</ele><time>2026-04-05T16:49:06.999Z</time></trkpt><trkpt lat="44.86386870778838" lon="9.296691150652363"><ele>489.0</ele><time>2026-04-05T16:49:07.999Z</time></trkpt><trkpt lat="44.863926768103234" lon="9.296464262331748"><ele>490.75</ele><time>2026-04-05T16:49:08.999Z</time></trkpt><trkpt lat="44.86397465805842" lon="9.296258369627427"><ele>492.5</ele><time>2026-04-05T16:49:09.999Z</time></trkpt><trkpt lat="44.86400033876044" lon="9.296078052994535"><ele>494.25</ele><time>2026-04-05T16:49:10.999Z</time></trkpt><trkpt lat="44.864024188721054" lon="9.295903910313001"><ele>496.0</ele><time>2026-04-05T16:49:11.999Z</time></trkpt><trkpt lat="44.864071291975606" lon="9.295759649277091"><ele>496.0</ele><time>2026-04-05T16:49:12.999Z</time></trkpt><trkpt lat="44.864164750917155" lon="9.295613097472488"><ele>496.0</ele><time>2026-04-05T16:49:13.999Z</time></trkpt><trkpt lat="44.864287155475324" lon="9.295496902048903"><ele>496.0</ele><time>2026-04-05T16:49:14.999Z</time></trkpt><trkpt lat="44.864362555569095" lon="9.295379821169249"><ele>496.0</ele><time>2026-04-05T16:49:15.999Z</time></trkpt><trkpt lat="44.864440128188384" lon="9.295307889171003"><ele>489.75</ele><time>2026-04-05T16:49:16.999Z</time></trkpt><trkpt lat="44.86450004801996" lon="9.295208000395231"><ele>483.5</ele><time>2026-04-05T16:49:17.999Z</time></trkpt><trkpt lat="44.86452354301105" lon="9.29506972941911"><ele>477.25</ele><time>2026-04-05T16:49:18.999Z</time></trkpt><trkpt lat="44.86451128938435" lon="9.294884970625429"><ele>471.0</ele><time>2026-04-05T16:49:19.999Z</time></trkpt><trkpt lat="44.86449444246473" lon="9.294701756788069"><ele>471.0</ele><time>2026-04-05T16:49:20.999Z</time></trkpt><trkpt lat="44.864497757725125" lon="9.294524017556101"><ele>471.0</ele><time>2026-04-05T16:49:21.999Z</time></trkpt><trkpt lat="44.864530780205214" lon="9.294343459068939"><ele>471.0</ele><time>2026-04-05T16:49:22.999Z</time></trkpt><trkpt lat="44.86458730883886" lon="9.294188603504207"><ele>471.0</ele><time>2026-04-05T16:49:23.999Z</time></trkpt><trkpt lat="44.864642842105894" lon="9.29405643370766"><ele>470.5</ele><time>2026-04-05T16:49:24.999Z</time></trkpt><trkpt lat="44.86467217980491" lon="9.293913135741702"><ele>470.0</ele><time>2026-04-05T16:49:25.999Z</time></trkpt><trkpt lat="44.86469821886866" lon="9.293762327404911"><ele>469.5</ele><time>2026-04-05T16:49:26.999Z</time></trkpt><trkpt lat="44.86468457423575" lon="9.293569813035624"><ele>469.0</ele><time>2026-04-05T16:49:27.999Z</time></trkpt><trkpt lat="44.86465723214437" lon="9.293367300540785"><ele>469.0</ele><time>2026-04-05T16:49:28.999Z</time></trkpt><trkpt lat="44.86462685902112" lon="9.293163438860166"><ele>469.0</ele><time>2026-04-05T16:49:29.999Z</time></trkpt><trkpt lat="44.86459417969095" lon="9.292955822400295"><ele>469.0</ele><time>2026-04-05T16:49:30.999Z</time></trkpt><trkpt lat="44.86456482153654" lon="9.292774147102891"><ele>469.0</ele><time>2026-04-05T16:49:31.999Z</time></trkpt><trkpt lat="44.864539090242104" lon="9.292619759274206"><ele>469.33333333333337</ele><time>2026-04-05T16:49:32.999Z</time></trkpt><trkpt lat="44.864504060079554" lon="9.292486938865444"><ele>469.6666666666667</ele><time>2026-04-05T16:49:34Z</time></trkpt><trkpt lat="44.864507852139916" lon="9.292356425795361"><ele>470.0</ele><time>2026-04-05T16:49:35Z</time></trkpt><trkpt lat="44.86449671413692" lon="9.29223254343263"><ele>470.33333333333337</ele><time>2026-04-05T16:49:36Z</time></trkpt><trkpt lat="44.864529298374094" lon="9.292150389363544"><ele>470.6666666666667</ele><time>2026-04-05T16:49:37Z</time></trkpt><trkpt lat="44.864581063857" lon="9.292037969598717"><ele>471.0</ele><time>2026-04-05T16:49:38Z</time></trkpt><trkpt lat="44.8646554983014" lon="9.291964806387714"><ele>473.0</ele><time>2026-04-05T16:49:39Z</time></trkpt><trkpt lat="44.86475274517304" lon="9.291935606481804"><ele>475.0</ele><time>2026-04-05T16:49:40Z</time></trkpt><trkpt lat="44.86486526767519" lon="9.291943487663412"><ele>477.0</ele><time>2026-04-05T16:49:41Z</time></trkpt><trkpt lat="44.86501871158368" lon="9.292005319293729"><ele>479.0</ele><time>2026-04-05T16:49:42Z</time></trkpt><trkpt lat="44.865196085764204" lon="9.292092217638443"><ele>479.0</ele><time>2026-04-05T16:49:43Z</time></trkpt><trkpt lat="44.865336137880675" lon="9.292154160822633"><ele>479.0</ele><time>2026-04-05T16:49:44Z</time></trkpt><trkpt lat="44.86545963240998" lon="9.292210732374423"><ele>479.0</ele><time>2026-04-05T16:49:45Z</time></trkpt><trkpt lat="44.86556357732748" lon="9.292241525056278"><ele>479.0</ele><time>2026-04-05T16:49:46Z</time></trkpt><trkpt lat="44.86564381468464" lon="9.292240077383891"><ele>479.0</ele><time>2026-04-05T16:49:47Z</time></trkpt><trkpt lat="44.86571682116225" lon="9.29220861939276"><ele>479.0</ele><time>2026-04-05T16:49:48Z</time></trkpt><trkpt lat="44.865783973281026" lon="9.2921378647226"><ele>479.0</ele><time>2026-04-05T16:49:49Z</time></trkpt><trkpt lat="44.865835832234424" lon="9.292050132258751"><ele>479.0</ele><time>2026-04-05T16:49:50Z</time></trkpt><trkpt lat="44.86582247088117" lon="9.29190008169153"><ele>479.0</ele><time>2026-04-05T16:49:51Z</time></trkpt><trkpt lat="44.8658039808392" lon="9.291743807887542"><ele>479.0</ele><time>2026-04-05T16:49:52Z</time></trkpt><trkpt lat="44.86576996311279" lon="9.291547522784368"><ele>479.0</ele><time>2026-04-05T16:49:53Z</time></trkpt><trkpt lat="44.86573054127906" lon="9.29133417022558"><ele>479.0</ele><time>2026-04-05T16:49:54Z</time></trkpt><trkpt lat="44.86568762805691" lon="9.29114608376998"><ele>479.0</ele><time>2026-04-05T16:49:55Z</time></trkpt><trkpt lat="44.86562153276111" lon="9.291011570741807"><ele>479.79999999999995</ele><time>2026-04-05T16:49:56Z</time></trkpt><trkpt lat="44.865535347728056" lon="9.290892462371463"><ele>480.59999999999997</ele><time>2026-04-05T16:49:57Z</time></trkpt><trkpt lat="44.865437247984225" lon="9.290790059906794"><ele>481.4</ele><time>2026-04-05T16:49:58Z</time></trkpt><trkpt lat="44.865381310071854" lon="9.290691772344184"><ele>482.2</ele><time>2026-04-05T16:49:59Z</time></trkpt><trkpt lat="44.86533859081981" lon="9.290590821999258"><ele>483.0</ele><time>2026-04-05T16:50:00Z</time></trkpt><trkpt lat="44.86534953201043" lon="9.290457460937809"><ele>484.5</ele><time>2026-04-05T16:50:01Z</time></trkpt><trkpt lat="44.865405703945015" lon="9.290344623582248"><ele>486.0</ele><time>2026-04-05T16:50:02Z</time></trkpt><trkpt lat="44.86551341795007" lon="9.290286622988509"><ele>487.5</ele><time>2026-04-05T16:50:03Z</time></trkpt><trkpt lat="44.865643137714095" lon="9.290197656420492"><ele>489.0</ele><time>2026-04-05T16:50:04Z</time></trkpt><trkpt lat="44.86580323147906" lon="9.290072218273213"><ele>489.66666666666663</ele><time>2026-04-05T16:50:05Z</time></trkpt><trkpt lat="44.86600114259585" lon="9.289917705712615"><ele>490.3333333333333</ele><time>2026-04-05T16:50:06Z</time></trkpt><trkpt lat="44.86618728609307" lon="9.289779968538461"><ele>491.0</ele><time>2026-04-05T16:50:07Z</time></trkpt><trkpt lat="44.86634590582712" lon="9.289662726956784"><ele>491.0</ele><time>2026-04-05T16:50:08Z</time></trkpt><trkpt lat="44.86647931189594" lon="9.289532551130602"><ele>491.0</ele><time>2026-04-05T16:50:09Z</time></trkpt><trkpt lat="44.866610004722276" lon="9.289364935356723"><ele>491.0</ele><time>2026-04-05T16:50:10Z</time></trkpt><trkpt lat="44.866733044618385" lon="9.289143357108106"><ele>492.0</ele><time>2026-04-05T16:50:11Z</time></trkpt><trkpt lat="44.86684835571847" lon="9.288891037722822"><ele>493.0</ele><time>2026-04-05T16:50:12Z</time></trkpt><trkpt lat="44.86695092188201" lon="9.288699898809606"><ele>494.0</ele><time>2026-04-05T16:50:13Z</time></trkpt><trkpt lat="44.86701302288585" lon="9.28854574920603"><ele>494.0</ele><time>2026-04-05T16:50:14Z</time></trkpt><trkpt lat="44.8670962301072" lon="9.288448062973103"><ele>494.0</ele><time>2026-04-05T16:50:15Z</time></trkpt><trkpt lat="44.86719530584835" lon="9.288371936324943"><ele>494.0</ele><time>2026-04-05T16:50:16Z</time></trkpt><trkpt lat="44.86733138515864" lon="9.288343171366781"><ele>494.0</ele><time>2026-04-05T16:50:17Z</time></trkpt><trkpt lat="44.86753395310313" lon="9.28833274532884"><ele>489.5</ele><time>2026-04-05T16:50:18Z</time></trkpt><trkpt lat="44.86768943040239" lon="9.2883068965091"><ele>485.0</ele><time>2026-04-05T16:50:19Z</time></trkpt><trkpt lat="44.86782738250696" lon="9.288293696306418"><ele>480.5</ele><time>2026-04-05T16:50:20Z</time></trkpt><trkpt lat="44.86795098271018" lon="9.28828635424709"><ele>476.0</ele><time>2026-04-05T16:50:21Z</time></trkpt><trkpt lat="44.868051716738634" lon="9.288276577274841"><ele>476.0</ele><time>2026-04-05T16:50:22Z</time></trkpt><trkpt lat="44.86814076071652" lon="9.288244776491817"><ele>476.0</ele><time>2026-04-05T16:50:23Z</time></trkpt><trkpt lat="44.8682346303027" lon="9.28818220647587"><ele>476.0</ele><time>2026-04-05T16:50:24Z</time></trkpt><trkpt lat="44.86829087620904" lon="9.288027983212386"><ele>476.0</ele><time>2026-04-05T16:50:25Z</time></trkpt><trkpt lat="44.868335899255094" lon="9.287869339343146"><ele>476.0</ele><time>2026-04-05T16:50:26Z</time></trkpt><trkpt lat="44.86837515114261" lon="9.287732836129617"><ele>478.20000000000005</ele><time>2026-04-05T16:50:27Z</time></trkpt><trkpt lat="44.868390657515306" lon="9.287629715628311"><ele>480.40000000000003</ele><time>2026-04-05T16:50:28Z</time></trkpt><trkpt lat="44.86838876306417" lon="9.287517949203238"><ele>482.6</ele><time>2026-04-05T16:50:29Z</time></trkpt><trkpt lat="44.86835362075423" lon="9.287392284956493"><ele>484.8</ele><time>2026-04-05T16:50:30Z</time></trkpt><trkpt lat="44.86827981369238" lon="9.287299082553927"><ele>487.0</ele><time>2026-04-05T16:50:31Z</time></trkpt><trkpt lat="44.868187905980086" lon="9.28721959852683"><ele>487.0</ele><time>2026-04-05T16:50:32Z</time></trkpt><trkpt lat="44.86812929151696" lon="9.287107776498473"><ele>487.00000000000006</ele><time>2026-04-05T16:50:33Z</time></trkpt><trkpt lat="44.86812055170043" lon="9.286969210437091"><ele>487.00000000000006</ele><time>2026-04-05T16:50:34Z</time></trkpt><trkpt lat="44.86813559762549" lon="9.286806884794125"><ele>487.0</ele><time>2026-04-05T16:50:34.999Z</time></trkpt><trkpt lat="44.86818880302815" lon="9.286632632099419"><ele>487.0</ele><time>2026-04-05T16:50:35.999Z</time></trkpt><trkpt lat="44.86827234396063" lon="9.286434264022438"><ele>489.0</ele><time>2026-04-05T16:50:36.999Z</time></trkpt><trkpt lat="44.86833672234509" lon="9.286232985732097"><ele>491.0</ele><time>2026-04-05T16:50:37.999Z</time></trkpt><trkpt lat="44.868373925002395" lon="9.286037470942972"><ele>493.0</ele><time>2026-04-05T16:50:38.999Z</time></trkpt><trkpt lat="44.86841561877353" lon="9.28586225475771"><ele>495.0</ele><time>2026-04-05T16:50:39.999Z</time></trkpt><trkpt lat="44.86849061632977" lon="9.285733673293405"><ele>489.75</ele><time>2026-04-05T16:50:40.999Z</time></trkpt><trkpt lat="44.8686240078829" lon="9.285626677046748"><ele>484.5</ele><time>2026-04-05T16:50:41.999Z</time></trkpt><trkpt lat="44.86874493500472" lon="9.285514897906701"><ele>479.25</ele><time>2026-04-05T16:50:42.999Z</time></trkpt><trkpt lat="44.868856877580626" lon="9.285434228480813"><ele>474.0</ele><time>2026-04-05T16:50:43.999Z</time></trkpt><trkpt lat="44.868933017597605" lon="9.285322183661933"><ele>474.0</ele><time>2026-04-05T16:50:44.999Z</time></trkpt><trkpt lat="44.86899678815382" lon="9.28520537543698"><ele>474.0</ele><time>2026-04-05T16:50:45.999Z</time></trkpt><trkpt lat="44.86903387774368" lon="9.285073236873995"><ele>474.0</ele><time>2026-04-05T16:50:46.999Z</time></trkpt><trkpt lat="44.86905425073053" lon="9.284945849239454"><ele>474.0</ele><time>2026-04-05T16:50:47.999Z</time></trkpt><trkpt lat="44.869029293761216" lon="9.284824559272183"><ele>474.0</ele><time>2026-04-05T16:50:48.999Z</time></trkpt><trkpt lat="44.8689503938322" lon="9.284635555462874"><ele>473.25</ele><time>2026-04-05T16:50:49.999Z</time></trkpt><trkpt lat="44.868869356409625" lon="9.284448527364923"><ele>472.5</ele><time>2026-04-05T16:50:50.999Z</time></trkpt><trkpt lat="44.86880018328844" lon="9.284260860159831"><ele>471.75</ele><time>2026-04-05T16:50:51.999Z</time></trkpt><trkpt lat="44.86873700084674" lon="9.284103985140414"><ele>471.0</ele><time>2026-04-05T16:50:52.999Z</time></trkpt><trkpt lat="44.86868578528572" lon="9.283949492370974"><ele>469.75</ele><time>2026-04-05T16:50:53.999Z</time></trkpt><trkpt lat="44.86866118217489" lon="9.28378482906936"><ele>468.5</ele><time>2026-04-05T16:50:54.999Z</time></trkpt><trkpt lat="44.868679175291064" lon="9.283595620813657"><ele>467.25</ele><time>2026-04-05T16:50:55.999Z</time></trkpt><trkpt lat="44.86872010398338" lon="9.28333935436087"><ele>466.0</ele><time>2026-04-05T16:50:56.999Z</time></trkpt><trkpt lat="44.868763688946466" lon="9.283049727543371"><ele>466.0</ele><time>2026-04-05T16:50:57.999Z</time></trkpt><trkpt lat="44.868806136143185" lon="9.282764876574698"><ele>466.0</ele><time>2026-04-05T16:50:58.999Z</time></trkpt><trkpt lat="44.86884561436174" lon="9.2824999496907"><ele>466.0</ele><time>2026-04-05T16:50:59.999Z</time></trkpt><trkpt lat="44.86888176328609" lon="9.282257364763813"><ele>467.33333333333337</ele><time>2026-04-05T16:51:00.999Z</time></trkpt><trkpt lat="44.86891697450541" lon="9.282021072241827"><ele>468.66666666666663</ele><time>2026-04-05T16:51:01.999Z</time></trkpt><trkpt lat="44.86895226118374" lon="9.2817630324634"><ele>470.0</ele><time>2026-04-05T16:51:02.999Z</time></trkpt><trkpt lat="44.86908282309015" lon="9.281519419524262"><ele>472.0</ele><time>2026-04-05T16:51:03.999Z</time></trkpt><trkpt lat="44.869192686795444" lon="9.281281401506444"><ele>474.0</ele><time>2026-04-05T16:51:04.999Z</time></trkpt><trkpt lat="44.86928397812341" lon="9.281062357091841"><ele>476.0</ele><time>2026-04-05T16:51:05.999Z</time></trkpt><trkpt lat="44.869362964447554" lon="9.280863551338411"><ele>473.25</ele><time>2026-04-05T16:51:06.999Z</time></trkpt><trkpt lat="44.86943724903203" lon="9.280680843067781"><ele>470.5</ele><time>2026-04-05T16:51:07.999Z</time></trkpt><trkpt lat="44.86951356372965" lon="9.280537135546167"><ele>467.75</ele><time>2026-04-05T16:51:08.999Z</time></trkpt><trkpt lat="44.86961764748323" lon="9.28040634529543"><ele>465.0</ele><time>2026-04-05T16:51:09.999Z</time></trkpt><trkpt lat="44.86973563423336" lon="9.280298443686702"><ele>465.0</ele><time>2026-04-05T16:51:10.999Z</time></trkpt><trkpt lat="44.86985061933885" lon="9.28020084339805"><ele>465.0</ele><time>2026-04-05T16:51:11.999Z</time></trkpt><trkpt lat="44.8699565949086" lon="9.280102852453686"><ele>465.0</ele><time>2026-04-05T16:51:12.999Z</time></trkpt><trkpt lat="44.87004789603768" lon="9.279985124064897"><ele>465.0</ele><time>2026-04-05T16:51:13.999Z</time></trkpt><trkpt lat="44.8701108694099" lon="9.279846745206703"><ele>462.25</ele><time>2026-04-05T16:51:14.999Z</time></trkpt><trkpt lat="44.870145266666626" lon="9.279664045763084"><ele>459.5</ele><time>2026-04-05T16:51:15.999Z</time></trkpt><trkpt lat="44.870163727615875" lon="9.279471839054066"><ele>456.75</ele><time>2026-04-05T16:51:16.999Z</time></trkpt><trkpt lat="44.87016664607209" lon="9.27928845138844"><ele>454.0</ele><time>2026-04-05T16:51:17.999Z</time></trkpt><trkpt lat="44.87015853523019" lon="9.279122426208373"><ele>454.00000000000006</ele><time>2026-04-05T16:51:18.999Z</time></trkpt><trkpt lat="44.87014193758332" lon="9.278969240865743"><ele>454.0</ele><time>2026-04-05T16:51:19.999Z</time></trkpt><trkpt lat="44.87013585614616" lon="9.278836147602773"><ele>454.0</ele><time>2026-04-05T16:51:20.999Z</time></trkpt><trkpt lat="44.870146583725216" lon="9.27872493689587"><ele>454.0</ele><time>2026-04-05T16:51:21.999Z</time></trkpt><trkpt lat="44.870182574149474" lon="9.278637027623281"><ele>454.00000000000006</ele><time>2026-04-05T16:51:22.999Z</time></trkpt><trkpt lat="44.87024088157199" lon="9.27855026672033"><ele>454.0</ele><time>2026-04-05T16:51:23.999Z</time></trkpt><trkpt lat="44.87029953319975" lon="9.27845654420958"><ele>454.33333333333337</ele><time>2026-04-05T16:51:24.999Z</time></trkpt><trkpt lat="44.870344891874126" lon="9.278375777675985"><ele>454.6666666666667</ele><time>2026-04-05T16:51:25.999Z</time></trkpt><trkpt lat="44.87039099930573" lon="9.278275962307248"><ele>455.0</ele><time>2026-04-05T16:51:27.999Z</time></trkpt><trkpt lat="44.87045353722142" lon="9.278171379309272"><ele>455.33333333333337</ele><time>2026-04-05T16:51:32.999Z</time></trkpt><trkpt lat="44.87053927375096" lon="9.278156309466315"><ele>455.6666666666667</ele><time>2026-04-05T16:51:33.999Z</time></trkpt><trkpt lat="44.87061890868703" lon="9.278093583972545"><ele>456.0</ele><time>2026-04-05T16:51:34.999Z</time></trkpt><trkpt lat="44.87067913741866" lon="9.277980456128478"><ele>456.25</ele><time>2026-04-05T16:51:35.999Z</time></trkpt><trkpt lat="44.870703774775116" lon="9.277824067408565"><ele>456.5</ele><time>2026-04-05T16:51:36.999Z</time></trkpt><trkpt lat="44.87072746111121" lon="9.277653897459665"><ele>456.75</ele><time>2026-04-05T16:51:37.999Z</time></trkpt><trkpt lat="44.87074339034021" lon="9.27746894734953"><ele>457.0</ele><time>2026-04-05T16:51:38.999Z</time></trkpt><trkpt lat="44.870740440789795" lon="9.277271634783"><ele>457.0</ele><time>2026-04-05T16:51:40Z</time></trkpt><trkpt lat="44.87074706231331" lon="9.277068847513728"><ele>457.0</ele><time>2026-04-05T16:51:41Z</time></trkpt><trkpt lat="44.87074726896394" lon="9.276894556459432"><ele>457.0</ele><time>2026-04-05T16:51:42Z</time></trkpt><trkpt lat="44.870753561133895" lon="9.276724457586143"><ele>457.0</ele><time>2026-04-05T16:51:43Z</time></trkpt><trkpt lat="44.87077132582602" lon="9.276561513072856"><ele>458.0</ele><time>2026-04-05T16:51:44Z</time></trkpt><trkpt lat="44.87081481453265" lon="9.276392435259833"><ele>459.0</ele><time>2026-04-05T16:51:45Z</time></trkpt><trkpt lat="44.87088067563959" lon="9.276210971707442"><ele>460.0</ele><time>2026-04-05T16:51:46Z</time></trkpt><trkpt lat="44.87097834526317" lon="9.276028693501637"><ele>461.0</ele><time>2026-04-05T16:51:47Z</time></trkpt><trkpt lat="44.87110098059817" lon="9.275861169923832"><ele>458.3333333333333</ele><time>2026-04-05T16:51:48Z</time></trkpt><trkpt lat="44.87126564746877" lon="9.275706857047457"><ele>455.66666666666663</ele><time>2026-04-05T16:51:49Z</time></trkpt><trkpt lat="44.87142224157822" lon="9.27551856515653"><ele>453.0</ele><time>2026-04-05T16:51:50Z</time></trkpt><trkpt lat="44.87156819005709" lon="9.275360433886835"><ele>453.0</ele><time>2026-04-05T16:51:51Z</time></trkpt><trkpt lat="44.87169897788554" lon="9.275213313398858"><ele>453.0</ele><time>2026-04-05T16:51:52Z</time></trkpt><trkpt lat="44.87181423175107" lon="9.275075438152871"><ele>453.0</ele><time>2026-04-05T16:51:53Z</time></trkpt><trkpt lat="44.87191789743859" lon="9.274951817694001"><ele>449.75</ele><time>2026-04-05T16:51:54Z</time></trkpt><trkpt lat="44.87200830630133" lon="9.274823364939776"><ele>446.5</ele><time>2026-04-05T16:51:55Z</time></trkpt><trkpt lat="44.87207889094497" lon="9.274673514322405"><ele>443.25</ele><time>2026-04-05T16:51:56Z</time></trkpt><trkpt lat="44.87213577272622" lon="9.27450942315092"><ele>440.0</ele><time>2026-04-05T16:51:57Z</time></trkpt><trkpt lat="44.872177700432005" lon="9.274326921035312"><ele>440.0</ele><time>2026-04-05T16:51:58Z</time></trkpt><trkpt lat="44.8722242669813" lon="9.27414652841061"><ele>440.0</ele><time>2026-04-05T16:51:59Z</time></trkpt><trkpt lat="44.87225687843596" lon="9.273962145632543"><ele>440.0</ele><time>2026-04-05T16:52:00Z</time></trkpt><trkpt lat="44.87230017689477" lon="9.273819799229276"><ele>440.0</ele><time>2026-04-05T16:52:01Z</time></trkpt><trkpt lat="44.872376513756244" lon="9.273691878260056"><ele>442.66666666666663</ele><time>2026-04-05T16:52:02Z</time></trkpt><trkpt lat="44.87250214533103" lon="9.273580283601065"><ele>445.33333333333337</ele><time>2026-04-05T16:52:03Z</time></trkpt><trkpt lat="44.872661255021214" lon="9.273406085689512"><ele>448.0</ele><time>2026-04-05T16:52:04Z</time></trkpt><trkpt lat="44.87280658124596" lon="9.273284678655058"><ele>446.5</ele><time>2026-04-05T16:52:05Z</time></trkpt><trkpt lat="44.87291744722231" lon="9.273163818335316"><ele>445.0</ele><time>2026-04-05T16:52:06Z</time></trkpt><trkpt lat="44.8730100233872" lon="9.27304171757531"><ele>443.5</ele><time>2026-04-05T16:52:07Z</time></trkpt><trkpt lat="44.87311845748414" lon="9.272950976140033"><ele>442.0</ele><time>2026-04-05T16:52:08Z</time></trkpt><trkpt lat="44.87324284873435" lon="9.272867989279373"><ele>442.0</ele><time>2026-04-05T16:52:09Z</time></trkpt><trkpt lat="44.87339135740937" lon="9.272839842057543"><ele>442.0</ele><time>2026-04-05T16:52:10Z</time></trkpt><trkpt lat="44.873538686341675" lon="9.272835178523929"><ele>442.0</ele><time>2026-04-05T16:52:11Z</time></trkpt><trkpt lat="44.87367065189522" lon="9.272812733668856"><ele>442.0</ele><time>2026-04-05T16:52:12Z</time></trkpt><trkpt lat="44.87378713712205" lon="9.272776350219656"><ele>440.0</ele><time>2026-04-05T16:52:13Z</time></trkpt><trkpt lat="44.87389696399049" lon="9.272728625312515"><ele>438.00000000000006</ele><time>2026-04-05T16:52:14Z</time></trkpt><trkpt lat="44.87400378350966" lon="9.272677011951071"><ele>436.00000000000006</ele><time>2026-04-05T16:52:15Z</time></trkpt><trkpt lat="44.8741059040512" lon="9.27263337256798"><ele>434.0</ele><time>2026-04-05T16:52:16Z</time></trkpt><trkpt lat="44.874197164548455" lon="9.272581772527086"><ele>432.0</ele><time>2026-04-05T16:52:17Z</time></trkpt><trkpt lat="44.87428076117596" lon="9.272543098689402"><ele>429.6666666666667</ele><time>2026-04-05T16:52:18Z</time></trkpt><trkpt lat="44.87436426290759" lon="9.272505359270141"><ele>427.33333333333337</ele><time>2026-04-05T16:52:19Z</time></trkpt><trkpt lat="44.87444515314801" lon="9.272451261227157"><ele>425.0</ele><time>2026-04-05T16:52:20Z</time></trkpt><trkpt lat="44.874513059358634" lon="9.272409506965058"><ele>422.6666666666667</ele><time>2026-04-05T16:52:21Z</time></trkpt><trkpt lat="44.87457289141058" lon="9.272332121386839"><ele>420.33333333333337</ele><time>2026-04-05T16:52:22Z</time></trkpt><trkpt lat="44.87462837458694" lon="9.272188969888616"><ele>418.0</ele><time>2026-04-05T16:52:23Z</time></trkpt><trkpt lat="44.87464431189213" lon="9.272036761512815"><ele>418.0</ele><time>2026-04-05T16:52:24Z</time></trkpt><trkpt lat="44.87465784061468" lon="9.27188776378055"><ele>418.0</ele><time>2026-04-05T16:52:25Z</time></trkpt><trkpt lat="44.874671467893634" lon="9.271742874710165"><ele>418.0</ele><time>2026-04-05T16:52:26Z</time></trkpt><trkpt lat="44.87469838053807" lon="9.271608536507976"><ele>418.0</ele><time>2026-04-05T16:52:27Z</time></trkpt><trkpt lat="44.87476718265643" lon="9.271495164728389"><ele>418.0</ele><time>2026-04-05T16:52:28Z</time></trkpt><trkpt lat="44.87485762907518" lon="9.271388697409423"><ele>418.25</ele><time>2026-04-05T16:52:29Z</time></trkpt><trkpt lat="44.87496470268528" lon="9.27131834936976"><ele>418.5</ele><time>2026-04-05T16:52:30Z</time></trkpt><trkpt lat="44.87506767933487" lon="9.271263030297675"><ele>418.75</ele><time>2026-04-05T16:52:31Z</time></trkpt><trkpt lat="44.87516067718249" lon="9.271176909022408"><ele>419.0</ele><time>2026-04-05T16:52:32Z</time></trkpt><trkpt lat="44.87525459671009" lon="9.271052220403284"><ele>417.0</ele><time>2026-04-05T16:52:33Z</time></trkpt><trkpt lat="44.87533655808136" lon="9.270911845684426"><ele>415.0</ele><time>2026-04-05T16:52:34Z</time></trkpt><trkpt lat="44.87540712402463" lon="9.270766887152158"><ele>413.0</ele><time>2026-04-05T16:52:35Z</time></trkpt><trkpt lat="44.87548098925791" lon="9.270624858892743"><ele>411.0</ele><time>2026-04-05T16:52:36Z</time></trkpt><trkpt lat="44.875562947455734" lon="9.270499063430643"><ele>411.0</ele><time>2026-04-05T16:52:37Z</time></trkpt><trkpt lat="44.87565524620939" lon="9.270391458359954"><ele>411.0</ele><time>2026-04-05T16:52:38Z</time></trkpt><trkpt lat="44.875748140070385" lon="9.270297977351811"><ele>411.0</ele><time>2026-04-05T16:52:39Z</time></trkpt><trkpt lat="44.87584879876067" lon="9.270215854602213"><ele>411.0</ele><time>2026-04-05T16:52:40Z</time></trkpt><trkpt lat="44.87595855141742" lon="9.270134005526568"><ele>409.0</ele><time>2026-04-05T16:52:40.999Z</time></trkpt><trkpt lat="44.87607712658526" lon="9.270069960537851"><ele>407.0</ele><time>2026-04-05T16:52:41.999Z</time></trkpt><trkpt lat="44.876195917882015" lon="9.270019531701285"><ele>405.0</ele><time>2026-04-05T16:52:42.999Z</time></trkpt><trkpt lat="44.87630555806926" lon="9.269986934775403"><ele>403.0</ele><time>2026-04-05T16:52:43.999Z</time></trkpt><trkpt lat="44.87641505566491" lon="9.269933692382905"><ele>403.0</ele><time>2026-04-05T16:52:44.999Z</time></trkpt><trkpt lat="44.876533915394454" lon="9.269834289893184"><ele>403.0</ele><time>2026-04-05T16:52:45.999Z</time></trkpt><trkpt lat="44.87664601922687" lon="9.26970583936236"><ele>403.0</ele><time>2026-04-05T16:52:46.999Z</time></trkpt><trkpt lat="44.87676987272319" lon="9.269577151926313"><ele>403.0</ele><time>2026-04-05T16:52:47.999Z</time></trkpt><trkpt lat="44.87687276979512" lon="9.269440240765546"><ele>401.0</ele><time>2026-04-05T16:52:48.999Z</time></trkpt><trkpt lat="44.87695279600036" lon="9.269307913150179"><ele>399.0</ele><time>2026-04-05T16:52:49.999Z</time></trkpt><trkpt lat="44.87704405076005" lon="9.269193944192391"><ele>397.0</ele><time>2026-04-05T16:52:50.999Z</time></trkpt><trkpt lat="44.87713121213657" lon="9.26908077236892"><ele>395.0</ele><time>2026-04-05T16:52:51.999Z</time></trkpt><trkpt lat="44.87721666791182" lon="9.26897200262882"><ele>396.0</ele><time>2026-04-05T16:52:52.999Z</time></trkpt><trkpt lat="44.877306611628605" lon="9.268856895052496"><ele>397.0</ele><time>2026-04-05T16:52:53.999Z</time></trkpt><trkpt lat="44.877399545411414" lon="9.268753828635905"><ele>398.0</ele><time>2026-04-05T16:52:54.999Z</time></trkpt><trkpt lat="44.87749398435955" lon="9.268648115267002"><ele>399.0</ele><time>2026-04-05T16:52:55.999Z</time></trkpt><trkpt lat="44.87758992950342" lon="9.26855037664944"><ele>397.6</ele><time>2026-04-05T16:52:56.999Z</time></trkpt><trkpt lat="44.877683236479584" lon="9.268466939010379"><ele>396.2</ele><time>2026-04-05T16:52:57.999Z</time></trkpt><trkpt lat="44.87777824775558" lon="9.268399376871045"><ele>394.8</ele><time>2026-04-05T16:52:58.999Z</time></trkpt><trkpt lat="44.87787763517731" lon="9.268346471193547"><ele>393.40000000000003</ele><time>2026-04-05T16:52:59.999Z</time></trkpt><trkpt lat="44.87799369108906" lon="9.268308971322755"><ele>392.0</ele><time>2026-04-05T16:53:00.999Z</time></trkpt><trkpt lat="44.87813382420533" lon="9.268271679603288"><ele>392.0</ele><time>2026-04-05T16:53:01.999Z</time></trkpt><trkpt lat="44.87828162088513" lon="9.268237848519789"><ele>392.0</ele><time>2026-04-05T16:53:02.999Z</time></trkpt><trkpt lat="44.87840433496366" lon="9.268221021251211"><ele>392.0</ele><time>2026-04-05T16:53:03.999Z</time></trkpt><trkpt lat="44.878518712720975" lon="9.26819552043236"><ele>392.0</ele><time>2026-04-05T16:53:04.999Z</time></trkpt><trkpt lat="44.87862386616089" lon="9.268151402923689"><ele>391.0</ele><time>2026-04-05T16:53:05.999Z</time></trkpt><trkpt lat="44.878712353880836" lon="9.26807297841833"><ele>390.0</ele><time>2026-04-05T16:53:06.999Z</time></trkpt><trkpt lat="44.87881383843909" lon="9.267982347291902"><ele>389.0</ele><time>2026-04-05T16:53:07.999Z</time></trkpt><trkpt lat="44.87890084527199" lon="9.267857560814095"><ele>388.0</ele><time>2026-04-05T16:53:08.999Z</time></trkpt><trkpt lat="44.87897864740671" lon="9.267731205689717"><ele>388.0</ele><time>2026-04-05T16:53:09.999Z</time></trkpt><trkpt lat="44.87904883734595" lon="9.267608296406703"><ele>388.0</ele><time>2026-04-05T16:53:10.999Z</time></trkpt><trkpt lat="44.87916507003318" lon="9.267475853880537"><ele>388.0</ele><time>2026-04-05T16:53:11.999Z</time></trkpt><trkpt lat="44.8792658052612" lon="9.267323348571969"><ele>388.0</ele><time>2026-04-05T16:53:12.999Z</time></trkpt><trkpt lat="44.87939321298996" lon="9.267146950574736"><ele>386.6666666666667</ele><time>2026-04-05T16:53:13.999Z</time></trkpt><trkpt lat="44.87953631715887" lon="9.266935625246505"><ele>385.33333333333337</ele><time>2026-04-05T16:53:14.999Z</time></trkpt><trkpt lat="44.87966678792827" lon="9.266751254624936"><ele>384.0</ele><time>2026-04-05T16:53:15.999Z</time></trkpt><trkpt lat="44.87977948020577" lon="9.266586701553479"><ele>384.33333333333337</ele><time>2026-04-05T16:53:16.999Z</time></trkpt><trkpt lat="44.87987447303472" lon="9.266413389533417"><ele>384.6666666666667</ele><time>2026-04-05T16:53:17.999Z</time></trkpt><trkpt lat="44.87995340686424" lon="9.266222120739044"><ele>385.0</ele><time>2026-04-05T16:53:18.999Z</time></trkpt><trkpt lat="44.88001161648092" lon="9.265991724148737"><ele>385.0</ele><time>2026-04-05T16:53:19.999Z</time></trkpt><trkpt lat="44.880089998967264" lon="9.265755073135162"><ele>385.0</ele><time>2026-04-05T16:53:20.999Z</time></trkpt><trkpt lat="44.88014661552944" lon="9.265566545932423"><ele>385.0</ele><time>2026-04-05T16:53:21.999Z</time></trkpt><trkpt lat="44.88019174339855" lon="9.26541744075489"><ele>385.0</ele><time>2026-04-05T16:53:22.999Z</time></trkpt><trkpt lat="44.880232218247095" lon="9.26528940575078"><ele>385.4</ele><time>2026-04-05T16:53:23.999Z</time></trkpt><trkpt lat="44.880274638905874" lon="9.265189253346067"><ele>385.8</ele><time>2026-04-05T16:53:24.999Z</time></trkpt><trkpt lat="44.880378743038484" lon="9.265084545229714"><ele>386.20000000000005</ele><time>2026-04-05T16:53:26.999Z</time></trkpt><trkpt lat="44.88044100110898" lon="9.265000723534936"><ele>386.6</ele><time>2026-04-05T16:53:27.999Z</time></trkpt><trkpt lat="44.880540994840345" lon="9.264992493761252"><ele>387.0</ele><time>2026-04-05T16:53:28.999Z</time></trkpt><trkpt lat="44.880642650550776" lon="9.264994178829145"><ele>387.0</ele><time>2026-04-05T16:53:29.999Z</time></trkpt><trkpt lat="44.88073968414912" lon="9.264981323732572"><ele>387.0</ele><time>2026-04-05T16:53:30.999Z</time></trkpt><trkpt lat="44.880836247286744" lon="9.265022653207158"><ele>387.0</ele><time>2026-04-05T16:53:31.999Z</time></trkpt><trkpt lat="44.88093002086039" lon="9.265016464966386"><ele>387.0</ele><time>2026-04-05T16:53:32.999Z</time></trkpt><trkpt lat="44.881030022053245" lon="9.26500986574993"><ele>387.0</ele><time>2026-04-05T16:53:33.999Z</time></trkpt><trkpt lat="44.8811297480158" lon="9.26500328470916"><ele>386.20000000000005</ele><time>2026-04-05T16:53:34.999Z</time></trkpt><trkpt lat="44.881228564318356" lon="9.264996763696871"><ele>385.4</ele><time>2026-04-05T16:53:35.999Z</time></trkpt><trkpt lat="44.88133425079261" lon="9.264989789304911"><ele>384.6</ele><time>2026-04-05T16:53:36.999Z</time></trkpt><trkpt lat="44.88143568704476" lon="9.264983095400094"><ele>383.79999999999995</ele><time>2026-04-05T16:53:37.999Z</time></trkpt><trkpt lat="44.88154004312184" lon="9.264952551592478"><ele>383.0</ele><time>2026-04-05T16:53:38.999Z</time></trkpt><trkpt lat="44.8816549814037" lon="9.264944931741326"><ele>382.5</ele><time>2026-04-05T16:53:39.999Z</time></trkpt><trkpt lat="44.881773190638214" lon="9.26492830876056"><ele>382.0</ele><time>2026-04-05T16:53:40.999Z</time></trkpt><trkpt lat="44.88189719591841" lon="9.264903125904231"><ele>381.5</ele><time>2026-04-05T16:53:41.999Z</time></trkpt><trkpt lat="44.88201805814" lon="9.264895789676707"><ele>381.0</ele><time>2026-04-05T16:53:42.999Z</time></trkpt><trkpt lat="44.882140303490836" lon="9.264866010898285"><ele>381.0</ele><time>2026-04-05T16:53:43.999Z</time></trkpt><trkpt lat="44.88226578310967" lon="9.264815409215606"><ele>381.0</ele><time>2026-04-05T16:53:44.999Z</time></trkpt><trkpt lat="44.88239315539421" lon="9.264790145312368"><ele>381.0</ele><time>2026-04-05T16:53:46Z</time></trkpt><trkpt lat="44.88251488716681" lon="9.264760245497245"><ele>381.0</ele><time>2026-04-05T16:53:47Z</time></trkpt><trkpt lat="44.88264313934326" lon="9.264729539064115"><ele>381.6666666666667</ele><time>2026-04-05T16:53:48Z</time></trkpt><trkpt lat="44.88278234914483" lon="9.264710629714541"><ele>382.33333333333337</ele><time>2026-04-05T16:53:49Z</time></trkpt><trkpt lat="44.88295041890956" lon="9.264679155461879"><ele>383.0</ele><time>2026-04-05T16:53:50Z</time></trkpt><trkpt lat="44.883119550047496" lon="9.264643624261561"><ele>383.0</ele><time>2026-04-05T16:53:51Z</time></trkpt><trkpt lat="44.88329154020569" lon="9.264591237447252"><ele>383.0</ele><time>2026-04-05T16:53:52Z</time></trkpt><trkpt lat="44.88344651561041" lon="9.26455963339303"><ele>383.0</ele><time>2026-04-05T16:53:53Z</time></trkpt><trkpt lat="44.883618768842375" lon="9.26453575230897"><ele>382.0</ele><time>2026-04-05T16:53:54Z</time></trkpt><trkpt lat="44.88380660908806" lon="9.26453134847803"><ele>381.0</ele><time>2026-04-05T16:53:55Z</time></trkpt><trkpt lat="44.88400852175479" lon="9.264535017435767"><ele>380.0</ele><time>2026-04-05T16:53:56Z</time></trkpt><trkpt lat="44.88422141523493" lon="9.264546503625724"><ele>381.5</ele><time>2026-04-05T16:53:57Z</time></trkpt><trkpt lat="44.88445846559303" lon="9.26457611354142"><ele>383.0</ele><time>2026-04-05T16:53:58Z</time></trkpt><trkpt lat="44.88474640523386" lon="9.264657499804814"><ele>383.0</ele><time>2026-04-05T16:53:59Z</time></trkpt><trkpt lat="44.88502129931402" lon="9.264696056708834"><ele>383.0</ele><time>2026-04-05T16:54:00Z</time></trkpt><trkpt lat="44.88526684338792" lon="9.264721544970076"><ele>384.33333333333337</ele><time>2026-04-05T16:54:01Z</time></trkpt><trkpt lat="44.88547729213449" lon="9.264734461111411"><ele>385.6666666666667</ele><time>2026-04-05T16:54:02Z</time></trkpt><trkpt lat="44.88568042333142" lon="9.264754637050553"><ele>387.0</ele><time>2026-04-05T16:54:03Z</time></trkpt><trkpt lat="44.885883931307475" lon="9.26479040917089"><ele>383.3333333333333</ele><time>2026-04-05T16:54:04Z</time></trkpt><trkpt lat="44.88609226272764" lon="9.264802244206413"><ele>379.66666666666663</ele><time>2026-04-05T16:54:05Z</time></trkpt><trkpt lat="44.886296316980186" lon="9.26485181587718"><ele>376.0</ele><time>2026-04-05T16:54:06Z</time></trkpt><trkpt lat="44.886519224720445" lon="9.26494500203928"><ele>379.5</ele><time>2026-04-05T16:54:07Z</time></trkpt><trkpt lat="44.88677300012668" lon="9.265070585347868"><ele>383.0</ele><time>2026-04-05T16:54:08Z</time></trkpt><trkpt lat="44.88702059790532" lon="9.265206624006844"><ele>383.0</ele><time>2026-04-05T16:54:09Z</time></trkpt><trkpt lat="44.887234275733064" lon="9.26531552454421"><ele>383.0</ele><time>2026-04-05T16:54:10Z</time></trkpt><trkpt lat="44.88743107558169" lon="9.265421569020727"><ele>383.0</ele><time>2026-04-05T16:54:11Z</time></trkpt><trkpt lat="44.88759978753197" lon="9.265525016798277"><ele>384.0</ele><time>2026-04-05T16:54:12Z</time></trkpt><trkpt lat="44.88775772868076" lon="9.265608430706404"><ele>385.0</ele><time>2026-04-05T16:54:13Z</time></trkpt><trkpt lat="44.88792357865597" lon="9.265708180415372"><ele>386.0</ele><time>2026-04-05T16:54:14Z</time></trkpt><trkpt lat="44.888091477845386" lon="9.265816952772964"><ele>383.3333333333333</ele><time>2026-04-05T16:54:15Z</time></trkpt><trkpt lat="44.88826214639616" lon="9.265939378702898"><ele>380.66666666666663</ele><time>2026-04-05T16:54:16Z</time></trkpt><trkpt lat="44.88843321771542" lon="9.2660747622931"><ele>378.0</ele><time>2026-04-05T16:54:17Z</time></trkpt><trkpt lat="44.88860429098355" lon="9.266192304898963"><ele>378.0</ele><time>2026-04-05T16:54:18Z</time></trkpt><trkpt lat="44.888759555550614" lon="9.26629695933782"><ele>378.0</ele><time>2026-04-05T16:54:19Z</time></trkpt><trkpt lat="44.88890001049856" lon="9.266408196266177"><ele>378.0</ele><time>2026-04-05T16:54:20Z</time></trkpt><trkpt lat="44.889029254672195" lon="9.26650291138911"><ele>376.75</ele><time>2026-04-05T16:54:21Z</time></trkpt><trkpt lat="44.8891566683984" lon="9.26657656078606"><ele>375.5</ele><time>2026-04-05T16:54:22Z</time></trkpt><trkpt lat="44.889267292964874" lon="9.266624796864505"><ele>374.25</ele><time>2026-04-05T16:54:23Z</time></trkpt><trkpt lat="44.88938773129371" lon="9.266624463542849"><ele>373.0</ele><time>2026-04-05T16:54:24Z</time></trkpt><trkpt lat="44.88950208874843" lon="9.26658763738578"><ele>373.0</ele><time>2026-04-05T16:54:25Z</time></trkpt><trkpt lat="44.88958705978232" lon="9.266499764016563"><ele>373.0</ele><time>2026-04-05T16:54:26Z</time></trkpt><trkpt lat="44.88964907174691" lon="9.266365725672452"><ele>373.0</ele><time>2026-04-05T16:54:27Z</time></trkpt><trkpt lat="44.88969713070833" lon="9.266193808985712"><ele>373.0</ele><time>2026-04-05T16:54:28Z</time></trkpt><trkpt lat="44.889747337626545" lon="9.266030672260577"><ele>373.0</ele><time>2026-04-05T16:54:29Z</time></trkpt><trkpt lat="44.88981284726976" lon="9.26590169039571"><ele>373.0</ele><time>2026-04-05T16:54:30Z</time></trkpt><trkpt lat="44.8898928633441" lon="9.265806520493117"><ele>373.0</ele><time>2026-04-05T16:54:31Z</time></trkpt><trkpt lat="44.88997595116263" lon="9.265752690155892"><ele>373.0</ele><time>2026-04-05T16:54:32Z</time></trkpt><trkpt lat="44.89004550811996" lon="9.265700553629438"><ele>373.0</ele><time>2026-04-05T16:54:33Z</time></trkpt><trkpt lat="44.890101613607875" lon="9.265656626210367"><ele>374.5</ele><time>2026-04-05T16:54:34Z</time></trkpt><trkpt lat="44.89018084469449" lon="9.265594934001172"><ele>376.0</ele><time>2026-04-05T16:54:36Z</time></trkpt><trkpt lat="44.89025389506332" lon="9.265527994481731"><ele>377.5</ele><time>2026-04-05T16:54:38Z</time></trkpt><trkpt lat="44.89030476617777" lon="9.265456810670305"><ele>379.0</ele><time>2026-04-05T16:54:39Z</time></trkpt><trkpt lat="44.8903512835011" lon="9.26536745209427"><ele>380.5</ele><time>2026-04-05T16:54:40Z</time></trkpt><trkpt lat="44.890396885784384" lon="9.265273217560875"><ele>382.0</ele><time>2026-04-05T16:54:41Z</time></trkpt><trkpt lat="44.890449280489946" lon="9.265161886089608"><ele>382.0</ele><time>2026-04-05T16:54:42Z</time></trkpt><trkpt lat="44.89050917982467" lon="9.26503998942432"><ele>382.0</ele><time>2026-04-05T16:54:43Z</time></trkpt><trkpt lat="44.890571553605604" lon="9.264913969711749"><ele>382.0</ele><time>2026-04-05T16:54:44Z</time></trkpt><trkpt lat="44.890639404612955" lon="9.264776882164675"><ele>382.0</ele><time>2026-04-05T16:54:45Z</time></trkpt><trkpt lat="44.89070755457456" lon="9.26462744155389"><ele>382.0</ele><time>2026-04-05T16:54:46Z</time></trkpt><trkpt lat="44.890782247334684" lon="9.264468698007214"><ele>382.0</ele><time>2026-04-05T16:54:46.999Z</time></trkpt><trkpt lat="44.89085512522328" lon="9.264336158455956"><ele>382.0</ele><time>2026-04-05T16:54:47.999Z</time></trkpt><trkpt lat="44.89092340615016" lon="9.264243137746796"><ele>382.0</ele><time>2026-04-05T16:54:48.999Z</time></trkpt><trkpt lat="44.89098798562241" lon="9.264196631341875"><ele>382.0</ele><time>2026-04-05T16:54:49.999Z</time></trkpt><trkpt lat="44.89105306908075" lon="9.26417535071348"><ele>383.16666666666663</ele><time>2026-04-05T16:54:50.999Z</time></trkpt><trkpt lat="44.89111794933354" lon="9.264169289304276"><ele>384.3333333333333</ele><time>2026-04-05T16:54:51.999Z</time></trkpt><trkpt lat="44.89117322936677" lon="9.264239513967443"><ele>385.5</ele><time>2026-04-05T16:54:52.999Z</time></trkpt><trkpt lat="44.89119668830274" lon="9.264339031700322"><ele>386.66666666666663</ele><time>2026-04-05T16:54:53.999Z</time></trkpt><trkpt lat="44.89118381792931" lon="9.264445422175696"><ele>387.8333333333333</ele><time>2026-04-05T16:54:54.999Z</time></trkpt><trkpt lat="44.8911397548238" lon="9.264586180471982"><ele>389.0</ele><time>2026-04-05T16:54:55.999Z</time></trkpt><trkpt lat="44.891078692552696" lon="9.264744098008638"><ele>389.6</ele><time>2026-04-05T16:54:56.999Z</time></trkpt><trkpt lat="44.89104554311439" lon="9.264879774222559"><ele>390.2</ele><time>2026-04-05T16:54:57.999Z</time></trkpt><trkpt lat="44.891041868754385" lon="9.26502120037475"><ele>390.8</ele><time>2026-04-05T16:54:58.999Z</time></trkpt><trkpt lat="44.89105587024109" lon="9.265174795490827"><ele>391.40000000000003</ele><time>2026-04-05T16:54:59.999Z</time></trkpt><trkpt lat="44.89108783008826" lon="9.26532704862269"><ele>392.0</ele><time>2026-04-05T16:55:00.999Z</time></trkpt><trkpt lat="44.891171576076836" lon="9.26543740305018"><ele>392.0</ele><time>2026-04-05T16:55:01.999Z</time></trkpt><trkpt lat="44.89125791660419" lon="9.265555466887236"><ele>392.0</ele><time>2026-04-05T16:55:02.999Z</time></trkpt><trkpt lat="44.89134465382065" lon="9.265679543464016"><ele>392.0</ele><time>2026-04-05T16:55:03.999Z</time></trkpt><trkpt lat="44.89143023480876" lon="9.265819037807104"><ele>392.0</ele><time>2026-04-05T16:55:04.999Z</time></trkpt><trkpt lat="44.891498489179675" lon="9.265964208170967"><ele>392.25</ele><time>2026-04-05T16:55:05.999Z</time></trkpt><trkpt lat="44.89155566877019" lon="9.266118938510257"><ele>392.5</ele><time>2026-04-05T16:55:06.999Z</time></trkpt><trkpt lat="44.89161473873012" lon="9.266254227201015"><ele>392.75</ele><time>2026-04-05T16:55:07.999Z</time></trkpt><trkpt lat="44.891668861411" lon="9.266382111391994"><ele>393.0</ele><time>2026-04-05T16:55:08.999Z</time></trkpt><trkpt lat="44.89172136362571" lon="9.26653058186195"><ele>397.5</ele><time>2026-04-05T16:55:09.999Z</time></trkpt><trkpt lat="44.891762742155024" lon="9.266681626739471"><ele>402.0</ele><time>2026-04-05T16:55:10.999Z</time></trkpt><trkpt lat="44.891788075170695" lon="9.266854083954064"><ele>406.5</ele><time>2026-04-05T16:55:11.999Z</time></trkpt><trkpt lat="44.891813694255404" lon="9.26703576468208"><ele>411.0</ele><time>2026-04-05T16:55:12.999Z</time></trkpt><trkpt lat="44.89183750190025" lon="9.267207139357057"><ele>410.6</ele><time>2026-04-05T16:55:13.999Z</time></trkpt><trkpt lat="44.891858621913904" lon="9.267358141437159"><ele>410.20000000000005</ele><time>2026-04-05T16:55:14.999Z</time></trkpt><trkpt lat="44.891874798738336" lon="9.267482748022035"><ele>409.79999999999995</ele><time>2026-04-05T16:55:15.999Z</time></trkpt><trkpt lat="44.8918848605928" lon="9.267602094038425"><ele>409.4</ele><time>2026-04-05T16:55:16.999Z</time></trkpt><trkpt lat="44.89194744012941" lon="9.267703617551062"><ele>409.0</ele><time>2026-04-05T16:55:17.999Z</time></trkpt><trkpt lat="44.89200576395019" lon="9.267814188162136"><ele>409.00000000000006</ele><time>2026-04-05T16:55:18.999Z</time></trkpt><trkpt lat="44.89206770423344" lon="9.267897525578976"><ele>409.0</ele><time>2026-04-05T16:55:19.999Z</time></trkpt><trkpt lat="44.8921393780775" lon="9.267990249418927"><ele>409.0</ele><time>2026-04-05T16:55:20.999Z</time></trkpt><trkpt lat="44.89220616066169" lon="9.26807991459138"><ele>409.0</ele><time>2026-04-05T16:55:21.999Z</time></trkpt><trkpt lat="44.892254227603786" lon="9.268163257984217"><ele>409.00000000000006</ele><time>2026-04-05T16:55:22.999Z</time></trkpt><trkpt lat="44.892296285056" lon="9.268265463053588"><ele>409.0</ele><time>2026-04-05T16:55:23.999Z</time></trkpt><trkpt lat="44.89231733650067" lon="9.268384836912354"><ele>408.2</ele><time>2026-04-05T16:55:24.999Z</time></trkpt><trkpt lat="44.89234574182992" lon="9.268532324537476"><ele>407.4</ele><time>2026-04-05T16:55:25.999Z</time></trkpt><trkpt lat="44.89237703281086" lon="9.26867254218177"><ele>406.6</ele><time>2026-04-05T16:55:26.999Z</time></trkpt><trkpt lat="44.89239193524951" lon="9.26879509783108"><ele>405.8</ele><time>2026-04-05T16:55:27.999Z</time></trkpt><trkpt lat="44.892455208374635" lon="9.268871674011118"><ele>405.0</ele><time>2026-04-05T16:55:28.999Z</time></trkpt><trkpt lat="44.89251655739137" lon="9.268942708478567"><ele>407.1666666666667</ele><time>2026-04-05T16:55:29.999Z</time></trkpt><trkpt lat="44.892596227987" lon="9.26897961576435"><ele>409.33333333333337</ele><time>2026-04-05T16:55:30.999Z</time></trkpt><trkpt lat="44.892678610672064" lon="9.268973571513019"><ele>411.5</ele><time>2026-04-05T16:55:31.999Z</time></trkpt><trkpt lat="44.89274912144869" lon="9.268931218075563"><ele>413.6666666666667</ele><time>2026-04-05T16:55:32.999Z</time></trkpt><trkpt lat="44.89281618913695" lon="9.268876204755111"><ele>415.83333333333337</ele><time>2026-04-05T16:55:33.999Z</time></trkpt><trkpt lat="44.892861945748145" lon="9.268774412481438"><ele>418.0</ele><time>2026-04-05T16:55:34.999Z</time></trkpt><trkpt lat="44.892867016495664" lon="9.268637053231696"><ele>419.4</ele><time>2026-04-05T16:55:35.999Z</time></trkpt><trkpt lat="44.89286951773024" lon="9.268512381108792"><ele>420.79999999999995</ele><time>2026-04-05T16:55:36.999Z</time></trkpt><trkpt lat="44.89285267165553" lon="9.26839225680203"><ele>422.2</ele><time>2026-04-05T16:55:37.999Z</time></trkpt><trkpt lat="44.892802704812134" lon="9.268246348647885"><ele>423.6</ele><time>2026-04-05T16:55:38.999Z</time></trkpt><trkpt lat="44.892745883549274" lon="9.268107594823139"><ele>425.0</ele><time>2026-04-05T16:55:39.999Z</time></trkpt><trkpt lat="44.89271381212466" lon="9.268027027079413"><ele>426.0</ele><time>2026-04-05T16:55:40.999Z</time></trkpt><trkpt lat="44.892677916992824" lon="9.267902347473592"><ele>427.0</ele><time>2026-04-05T16:55:41.999Z</time></trkpt><trkpt lat="44.89265740944345" lon="9.267765337878677"><ele>428.0</ele><time>2026-04-05T16:55:42.999Z</time></trkpt><trkpt lat="44.892641651160794" lon="9.267615778064417"><ele>429.0</ele><time>2026-04-05T16:55:43.999Z</time></trkpt><trkpt lat="44.8926379416765" lon="9.26746441036395"><ele>430.0</ele><time>2026-04-05T16:55:44.999Z</time></trkpt><trkpt lat="44.89265267432308" lon="9.267315050757666"><ele>429.75</ele><time>2026-04-05T16:55:45.999Z</time></trkpt><trkpt lat="44.89268686280562" lon="9.267173806097954"><ele>429.5</ele><time>2026-04-05T16:55:46.999Z</time></trkpt><trkpt lat="44.892763863617866" lon="9.26703601175396"><ele>429.25</ele><time>2026-04-05T16:55:47.999Z</time></trkpt><trkpt lat="44.892851962810795" lon="9.266885915474882"><ele>429.0</ele><time>2026-04-05T16:55:48.999Z</time></trkpt><trkpt lat="44.89291942458364" lon="9.26675572424111"><ele>429.0</ele><time>2026-04-05T16:55:49.999Z</time></trkpt><trkpt lat="44.89296781286824" lon="9.266631651741177"><ele>429.0</ele><time>2026-04-05T16:55:50.999Z</time></trkpt><trkpt lat="44.892981034716676" lon="9.266472132810609"><ele>429.0</ele><time>2026-04-05T16:55:52Z</time></trkpt><trkpt lat="44.89299068225093" lon="9.266302318448458"><ele>429.0</ele><time>2026-04-05T16:55:53Z</time></trkpt><trkpt lat="44.89297882300998" lon="9.266114953477024"><ele>429.0</ele><time>2026-04-05T16:55:54Z</time></trkpt><trkpt lat="44.89295568487414" lon="9.265915834600072"><ele>429.0</ele><time>2026-04-05T16:55:55Z</time></trkpt><trkpt lat="44.89293045538136" lon="9.265724587842364"><ele>429.0</ele><time>2026-04-05T16:55:56Z</time></trkpt><trkpt lat="44.89291797228563" lon="9.265560893671651"><ele>429.0</ele><time>2026-04-05T16:55:57Z</time></trkpt><trkpt lat="44.892907964596255" lon="9.26542246691197"><ele>429.0</ele><time>2026-04-05T16:55:58Z</time></trkpt><trkpt lat="44.89290079474037" lon="9.265279154534177"><ele>429.0</ele><time>2026-04-05T16:55:59Z</time></trkpt><trkpt lat="44.892903490078645" lon="9.265145910085222"><ele>429.0</ele><time>2026-04-05T16:56:00Z</time></trkpt><trkpt lat="44.892910530590086" lon="9.265033349203316"><ele>429.0</ele><time>2026-04-05T16:56:01Z</time></trkpt><trkpt lat="44.89293428012801" lon="9.26490944545167"><ele>429.0</ele><time>2026-04-05T16:56:02Z</time></trkpt><trkpt lat="44.892982020272584" lon="9.264788536559257"><ele>429.0</ele><time>2026-04-05T16:56:03Z</time></trkpt><trkpt lat="44.89303511896304" lon="9.264719671415795"><ele>429.0</ele><time>2026-04-05T16:56:04Z</time></trkpt><trkpt lat="44.89311305601288" lon="9.264673069596133"><ele>429.0</ele><time>2026-04-05T16:56:05Z</time></trkpt><trkpt lat="44.89319419408183" lon="9.264689787689333"><ele>429.0</ele><time>2026-04-05T16:56:06Z</time></trkpt><trkpt lat="44.89326500477739" lon="9.264728709406018"><ele>429.0</ele><time>2026-04-05T16:56:07Z</time></trkpt><trkpt lat="44.89331837363947" lon="9.264786080910158"><ele>429.0</ele><time>2026-04-05T16:56:08Z</time></trkpt><trkpt lat="44.89335541677033" lon="9.264882440989378"><ele>429.0</ele><time>2026-04-05T16:56:09Z</time></trkpt><trkpt lat="44.89335944475861" lon="9.26499142438912"><ele>429.0</ele><time>2026-04-05T16:56:10Z</time></trkpt><trkpt lat="44.89333488260694" lon="9.265110075320749"><ele>429.0</ele><time>2026-04-05T16:56:11Z</time></trkpt><trkpt lat="44.893305037258855" lon="9.265249076370573"><ele>429.0</ele><time>2026-04-05T16:56:12Z</time></trkpt><trkpt lat="44.893285565276194" lon="9.265367759990896"><ele>429.0</ele><time>2026-04-05T16:56:13Z</time></trkpt><trkpt lat="44.893284057135205" lon="9.265480006274425"><ele>429.0</ele><time>2026-04-05T16:56:14Z</time></trkpt><trkpt lat="44.8933065983235" lon="9.265601858137124"><ele>429.79999999999995</ele><time>2026-04-05T16:56:15Z</time></trkpt><trkpt lat="44.89334983193458" lon="9.26571089231971"><ele>430.59999999999997</ele><time>2026-04-05T16:56:16Z</time></trkpt><trkpt lat="44.89339344693316" lon="9.265836158469021"><ele>431.4</ele><time>2026-04-05T16:56:17Z</time></trkpt><trkpt lat="44.8934626938152" lon="9.265947481438376"><ele>432.2</ele><time>2026-04-05T16:56:18Z</time></trkpt><trkpt lat="44.89351508482675" lon="9.266066642342059"><ele>433.0</ele><time>2026-04-05T16:56:19Z</time></trkpt><trkpt lat="44.89355710889778" lon="9.266198844930809"><ele>436.0</ele><time>2026-04-05T16:56:20Z</time></trkpt><trkpt lat="44.89357902515765" lon="9.2663240227459"><ele>438.99999999999994</ele><time>2026-04-05T16:56:21Z</time></trkpt><trkpt lat="44.89358094566137" lon="9.266463384202678"><ele>441.99999999999994</ele><time>2026-04-05T16:56:22Z</time></trkpt><trkpt lat="44.89357789412946" lon="9.266598774878942"><ele>445.0</ele><time>2026-04-05T16:56:23Z</time></trkpt><trkpt lat="44.89356358728609" lon="9.266733900160945"><ele>448.0</ele><time>2026-04-05T16:56:24Z</time></trkpt><trkpt lat="44.89354064063178" lon="9.266868896412323"><ele>448.0</ele><time>2026-04-05T16:56:25Z</time></trkpt><trkpt lat="44.893525210395865" lon="9.266988622685716"><ele>448.0</ele><time>2026-04-05T16:56:26Z</time></trkpt><trkpt lat="44.8935144982118" lon="9.26708453006393"><ele>448.0</ele><time>2026-04-05T16:56:27Z</time></trkpt><trkpt lat="44.89352229736902" lon="9.267186723350799"><ele>448.0</ele><time>2026-04-05T16:56:28Z</time></trkpt><trkpt lat="44.893542710252945" lon="9.267282061533788"><ele>448.0</ele><time>2026-04-05T16:56:29Z</time></trkpt><trkpt lat="44.89356761203635" lon="9.267374127541313"><ele>448.0</ele><time>2026-04-05T16:56:30Z</time></trkpt><trkpt lat="44.893617124663315" lon="9.267440572319689"><ele>448.0</ele><time>2026-04-05T16:56:31Z</time></trkpt><trkpt lat="44.893684361135044" lon="9.267475103633284"><ele>448.00000000000006</ele><time>2026-04-05T16:56:32Z</time></trkpt><trkpt lat="44.89375672976304" lon="9.267470184005786"><ele>448.0</ele><time>2026-04-05T16:56:33Z</time></trkpt><trkpt lat="44.89382531879154" lon="9.267438922848742"><ele>448.0</ele><time>2026-04-05T16:56:34Z</time></trkpt><trkpt lat="44.89389576945374" lon="9.267379553546467"><ele>448.0</ele><time>2026-04-05T16:56:35Z</time></trkpt><trkpt lat="44.89395315358905" lon="9.267295689851675"><ele>448.00000000000006</ele><time>2026-04-05T16:56:36Z</time></trkpt><trkpt lat="44.89399393571853" lon="9.267188958634865"><ele>448.0</ele><time>2026-04-05T16:56:37Z</time></trkpt><trkpt lat="44.894006785527594" lon="9.267059748747199"><ele>448.0</ele><time>2026-04-05T16:56:38Z</time></trkpt><trkpt lat="44.8940251079884" lon="9.266900636872345"><ele>448.0</ele><time>2026-04-05T16:56:39Z</time></trkpt><trkpt lat="44.8940363035394" lon="9.26674860965673"><ele>448.0</ele><time>2026-04-05T16:56:40Z</time></trkpt><trkpt lat="44.89403951950679" lon="9.266589428972603"><ele>448.0</ele><time>2026-04-05T16:56:41Z</time></trkpt><trkpt lat="44.89403767578773" lon="9.266422000173732"><ele>448.0</ele><time>2026-04-05T16:56:42Z</time></trkpt><trkpt lat="44.89403042373197" lon="9.266244296067748"><ele>448.0</ele><time>2026-04-05T16:56:43Z</time></trkpt><trkpt lat="44.89400706636506" lon="9.266054992769469"><ele>448.0</ele><time>2026-04-05T16:56:44Z</time></trkpt><trkpt lat="44.893991033812114" lon="9.265865298507771"><ele>448.0</ele><time>2026-04-05T16:56:45Z</time></trkpt><trkpt lat="44.89399169805808" lon="9.265696881541336"><ele>447.33333333333337</ele><time>2026-04-05T16:56:46Z</time></trkpt><trkpt lat="44.89398640234042" lon="9.265554764150526"><ele>446.6666666666667</ele><time>2026-04-05T16:56:47Z</time></trkpt><trkpt lat="44.8939912587918" lon="9.265428811689372"><ele>446.0</ele><time>2026-04-05T16:56:48Z</time></trkpt><trkpt lat="44.894004398064325" lon="9.265316976827883"><ele>445.33333333333337</ele><time>2026-04-05T16:56:49Z</time></trkpt><trkpt lat="44.89402931262652" lon="9.26521017470657"><ele>444.6666666666667</ele><time>2026-04-05T16:56:50Z</time></trkpt><trkpt lat="44.894062982923415" lon="9.265121356494936"><ele>444.0</ele><time>2026-04-05T16:56:51Z</time></trkpt><trkpt lat="44.894119204144786" lon="9.265050200744382"><ele>444.0</ele><time>2026-04-05T16:56:52Z</time></trkpt><trkpt lat="44.894183199920924" lon="9.264995213881376"><ele>444.0</ele><time>2026-04-05T16:56:53Z</time></trkpt><trkpt lat="44.89425510073566" lon="9.26498515068638"><ele>444.0</ele><time>2026-04-05T16:56:53.999Z</time></trkpt><trkpt lat="44.89431336039175" lon="9.265029530077427"><ele>444.0</ele><time>2026-04-05T16:56:54.999Z</time></trkpt><trkpt lat="44.89435931322701" lon="9.265092395713323"><ele>444.0</ele><time>2026-04-05T16:56:55.999Z</time></trkpt><trkpt lat="44.89439819980557" lon="9.26517396924558"><ele>444.0</ele><time>2026-04-05T16:56:56.999Z</time></trkpt><trkpt lat="44.89442209097027" lon="9.26527385283782"><ele>444.0</ele><time>2026-04-05T16:56:57.999Z</time></trkpt><trkpt lat="44.894423147181605" lon="9.26541764236991"><ele>446.0</ele><time>2026-04-05T16:56:58.999Z</time></trkpt><trkpt lat="44.89440939429172" lon="9.26557678399077"><ele>448.0</ele><time>2026-04-05T16:56:59.999Z</time></trkpt><trkpt lat="44.89439211345308" lon="9.265736373571043"><ele>450.0</ele><time>2026-04-05T16:57:00.999Z</time></trkpt><trkpt lat="44.89438314867064" lon="9.265863395478345"><ele>452.0</ele><time>2026-04-05T16:57:01.999Z</time></trkpt><trkpt lat="44.894387482407275" lon="9.265995306273622"><ele>454.0</ele><time>2026-04-05T16:57:02.999Z</time></trkpt><trkpt lat="44.8944091619763" lon="9.26613053620467"><ele>455.79999999999995</ele><time>2026-04-05T16:57:03.999Z</time></trkpt><trkpt lat="44.89445425447782" lon="9.266261261941265"><ele>457.59999999999997</ele><time>2026-04-05T16:57:04.999Z</time></trkpt><trkpt lat="44.89451475837595" lon="9.266370625053503"><ele>459.4</ele><time>2026-04-05T16:57:05.999Z</time></trkpt><trkpt lat="44.8945842631645" lon="9.266482397534727"><ele>461.2</ele><time>2026-04-05T16:57:06.999Z</time></trkpt><trkpt lat="44.89465600001264" lon="9.266586924368058"><ele>463.0</ele><time>2026-04-05T16:57:07.999Z</time></trkpt><trkpt lat="44.89470823023116" lon="9.26668141775661"><ele>463.0</ele><time>2026-04-05T16:57:08.999Z</time></trkpt><trkpt lat="44.89475302750956" lon="9.266800275108913"><ele>462.99999999999994</ele><time>2026-04-05T16:57:09.999Z</time></trkpt><trkpt lat="44.89477786394232" lon="9.266937317721286"><ele>462.99999999999994</ele><time>2026-04-05T16:57:10.999Z</time></trkpt><trkpt lat="44.89479393301248" lon="9.267106654882772"><ele>463.0</ele><time>2026-04-05T16:57:11.999Z</time></trkpt><trkpt lat="44.89480307957747" lon="9.26725111486401"><ele>463.0</ele><time>2026-04-05T16:57:12.999Z</time></trkpt><trkpt lat="44.894828095944014" lon="9.267369390434203"><ele>463.00000000000006</ele><time>2026-04-05T16:57:13.999Z</time></trkpt><trkpt lat="44.89486981633636" lon="9.267471942252923"><ele>463.0</ele><time>2026-04-05T16:57:14.999Z</time></trkpt><trkpt lat="44.89491835246704" lon="9.267556613438684"><ele>463.0</ele><time>2026-04-05T16:57:15.999Z</time></trkpt><trkpt lat="44.894971973067385" lon="9.267625149211085"><ele>463.0</ele><time>2026-04-05T16:57:16.999Z</time></trkpt><trkpt lat="44.89503857678972" lon="9.267718516089534"><ele>463.00000000000006</ele><time>2026-04-05T16:57:17.999Z</time></trkpt><trkpt lat="44.89510416964292" lon="9.2678118672024"><ele>463.0</ele><time>2026-04-05T16:57:18.999Z</time></trkpt><trkpt lat="44.895151540859075" lon="9.267911088671116"><ele>465.79999999999995</ele><time>2026-04-05T16:57:19.999Z</time></trkpt><trkpt lat="44.89518843473663" lon="9.268045075415131"><ele>468.59999999999997</ele><time>2026-04-05T16:57:20.999Z</time></trkpt><trkpt lat="44.895206179028975" lon="9.268190856081944"><ele>471.40000000000003</ele><time>2026-04-05T16:57:21.999Z</time></trkpt><trkpt lat="44.89522565326687" lon="9.268340490375046"><ele>474.20000000000005</ele><time>2026-04-05T16:57:22.999Z</time></trkpt><trkpt lat="44.895251360170015" lon="9.268483485671066"><ele>477.0</ele><time>2026-04-05T16:57:23.999Z</time></trkpt><trkpt lat="44.89528938270226" lon="9.268594858833847"><ele>477.0</ele><time>2026-04-05T16:57:24.999Z</time></trkpt><trkpt lat="44.89534090670058" lon="9.268675494784574"><ele>477.00000000000006</ele><time>2026-04-05T16:57:25.999Z</time></trkpt><trkpt lat="44.89541826851365" lon="9.26875257855425"><ele>477.00000000000006</ele><time>2026-04-05T16:57:26.999Z</time></trkpt><trkpt lat="44.89552182351235" lon="9.268808765393889"><ele>477.0</ele><time>2026-04-05T16:57:27.999Z</time></trkpt><trkpt lat="44.895638768987915" lon="9.26885462605048"><ele>477.0</ele><time>2026-04-05T16:57:28.999Z</time></trkpt><trkpt lat="44.8957342658662" lon="9.268910586409163"><ele>477.0</ele><time>2026-04-05T16:57:29.999Z</time></trkpt><trkpt lat="44.8958444305213" lon="9.268957769741341"><ele>477.00000000000006</ele><time>2026-04-05T16:57:30.999Z</time></trkpt><trkpt lat="44.895950777249" lon="9.269007476608994"><ele>477.00000000000006</ele><time>2026-04-05T16:57:31.999Z</time></trkpt><trkpt lat="44.8960454792397" lon="9.269064472813856"><ele>477.0</ele><time>2026-04-05T16:57:32.999Z</time></trkpt><trkpt lat="44.89613745342365" lon="9.26916435214518"><ele>477.0</ele><time>2026-04-05T16:57:33.999Z</time></trkpt><trkpt lat="44.89622867861381" lon="9.2692921254098"><ele>477.0</ele><time>2026-04-05T16:57:34.999Z</time></trkpt><trkpt lat="44.89631702262156" lon="9.269433334140494"><ele>477.00000000000006</ele><time>2026-04-05T16:57:35.999Z</time></trkpt><trkpt lat="44.896403919823506" lon="9.269555373826483"><ele>477.00000000000006</ele><time>2026-04-05T16:57:36.999Z</time></trkpt><trkpt lat="44.89648430361906" lon="9.269636764235877"><ele>477.0</ele><time>2026-04-05T16:57:37.999Z</time></trkpt><trkpt lat="44.89656392511031" lon="9.269689060187833"><ele>477.0</ele><time>2026-04-05T16:57:38.999Z</time></trkpt><trkpt lat="44.89665444848981" lon="9.269711405985028"><ele>477.0</ele><time>2026-04-05T16:57:39.999Z</time></trkpt><trkpt lat="44.89674544177532" lon="9.269690340596041"><ele>477.00000000000006</ele><time>2026-04-05T16:57:40.999Z</time></trkpt><trkpt lat="44.89683527649747" lon="9.26966100890597"><ele>477.00000000000006</ele><time>2026-04-05T16:57:41.999Z</time></trkpt><trkpt lat="44.89691214197911" lon="9.269557880109428"><ele>477.0</ele><time>2026-04-05T16:57:42.999Z</time></trkpt><trkpt lat="44.896959616407365" lon="9.269424183350953"><ele>477.0</ele><time>2026-04-05T16:57:43.999Z</time></trkpt><trkpt lat="44.89698639809368" lon="9.269281359291929"><ele>479.8</ele><time>2026-04-05T16:57:44.999Z</time></trkpt><trkpt lat="44.89698837550397" lon="9.269158217350707"><ele>482.6</ele><time>2026-04-05T16:57:45.999Z</time></trkpt><trkpt lat="44.89698159430033" lon="9.269027354787106"><ele>485.40000000000003</ele><time>2026-04-05T16:57:46.999Z</time></trkpt><trkpt lat="44.89693635954827" lon="9.26890157955139"><ele>488.20000000000005</ele><time>2026-04-05T16:57:47.999Z</time></trkpt><trkpt lat="44.89688255030531" lon="9.268778341326838"><ele>491.0</ele><time>2026-04-05T16:57:48.999Z</time></trkpt><trkpt lat="44.89679937554709" lon="9.268675235908304"><ele>489.75</ele><time>2026-04-05T16:57:49.999Z</time></trkpt><trkpt lat="44.896682773583805" lon="9.268580875909196"><ele>488.5</ele><time>2026-04-05T16:57:50.999Z</time></trkpt><trkpt lat="44.89654019143993" lon="9.268492655085067"><ele>487.25</ele><time>2026-04-05T16:57:51.999Z</time></trkpt><trkpt lat="44.896432445435785" lon="9.268433004127385"><ele>486.0</ele><time>2026-04-05T16:57:52.999Z</time></trkpt><trkpt lat="44.896335741278214" lon="9.268370689285499"><ele>486.0</ele><time>2026-04-05T16:57:53.999Z</time></trkpt><trkpt lat="44.89625890518245" lon="9.268309151572568"><ele>486.0</ele><time>2026-04-05T16:57:54.999Z</time></trkpt><trkpt lat="44.896186589639306" lon="9.26821838805596"><ele>486.0</ele><time>2026-04-05T16:57:55.999Z</time></trkpt><trkpt lat="44.89613216424627" lon="9.268112730243125"><ele>486.0</ele><time>2026-04-05T16:57:56.999Z</time></trkpt><trkpt lat="44.89609802494016" lon="9.26798674436047"><ele>486.0</ele><time>2026-04-05T16:57:58Z</time></trkpt><trkpt lat="44.89608823244328" lon="9.267835323959462"><ele>489.25</ele><time>2026-04-05T16:57:59Z</time></trkpt><trkpt lat="44.896092634516556" lon="9.267668665451437"><ele>492.5</ele><time>2026-04-05T16:58:00Z</time></trkpt><trkpt lat="44.89610304706379" lon="9.267489240882815"><ele>495.75</ele><time>2026-04-05T16:58:01Z</time></trkpt><trkpt lat="44.89611005613523" lon="9.26732461793878"><ele>499.0</ele><time>2026-04-05T16:58:02Z</time></trkpt><trkpt lat="44.89613514688425" lon="9.267185031026342"><ele>499.0</ele><time>2026-04-05T16:58:03Z</time></trkpt><trkpt lat="44.89613782927968" lon="9.267035023377485"><ele>499.0</ele><time>2026-04-05T16:58:04Z</time></trkpt><trkpt lat="44.89617381184122" lon="9.266891832515588"><ele>499.0</ele><time>2026-04-05T16:58:05Z</time></trkpt><trkpt lat="44.896251246487694" lon="9.266778996281452"><ele>499.0</ele><time>2026-04-05T16:58:06Z</time></trkpt><trkpt lat="44.896323045845094" lon="9.266626330170645"><ele>499.0</ele><time>2026-04-05T16:58:07Z</time></trkpt><trkpt lat="44.89643556104753" lon="9.266512871245487"><ele>499.0</ele><time>2026-04-05T16:58:08Z</time></trkpt><trkpt lat="44.8964929345526" lon="9.266357769947401"><ele>499.0</ele><time>2026-04-05T16:58:09Z</time></trkpt><trkpt lat="44.89654969773232" lon="9.266207767453922"><ele>499.0</ele><time>2026-04-05T16:58:10Z</time></trkpt><trkpt lat="44.89662106106691" lon="9.266060713640625"><ele>499.25</ele><time>2026-04-05T16:58:11Z</time></trkpt><trkpt lat="44.896680532385645" lon="9.265911375494873"><ele>499.5</ele><time>2026-04-05T16:58:12Z</time></trkpt><trkpt lat="44.89675173879598" lon="9.265779847080351"><ele>499.75</ele><time>2026-04-05T16:58:13Z</time></trkpt><trkpt lat="44.896833419118764" lon="9.265660219596455"><ele>500.0</ele><time>2026-04-05T16:58:14Z</time></trkpt><trkpt lat="44.896905397558584" lon="9.265564109538742"><ele>499.99999999999994</ele><time>2026-04-05T16:58:15Z</time></trkpt><trkpt lat="44.89695589839051" lon="9.265480576342753"><ele>500.0</ele><time>2026-04-05T16:58:16Z</time></trkpt><trkpt lat="44.89702115314997" lon="9.265437509840863"><ele>500.0</ele><time>2026-04-05T16:58:17Z</time></trkpt><trkpt lat="44.89708174873941" lon="9.265413215640244"><ele>500.0</ele><time>2026-04-05T16:58:18Z</time></trkpt><trkpt lat="44.897200998853144" lon="9.26542946224913"><ele>499.99999999999994</ele><time>2026-04-05T16:58:20Z</time></trkpt><trkpt lat="44.89726053788796" lon="9.26547931880298"><ele>500.0</ele><time>2026-04-05T16:58:21Z</time></trkpt><trkpt lat="44.89730628134222" lon="9.265553542916585"><ele>501.4</ele><time>2026-04-05T16:58:22Z</time></trkpt><trkpt lat="44.89734237783754" lon="9.265645226087523"><ele>502.8</ele><time>2026-04-05T16:58:23Z</time></trkpt><trkpt lat="44.89736237114114" lon="9.265766210444749"><ele>504.20000000000005</ele><time>2026-04-05T16:58:24Z</time></trkpt><trkpt lat="44.89735767703524" lon="9.26590619387239"><ele>505.6</ele><time>2026-04-05T16:58:25Z</time></trkpt><trkpt lat="44.89733271722638" lon="9.266054002687028"><ele>507.0</ele><time>2026-04-05T16:58:26Z</time></trkpt><trkpt lat="44.897282003940205" lon="9.266200297443694"><ele>507.0</ele><time>2026-04-05T16:58:27Z</time></trkpt><trkpt lat="44.89720933106811" lon="9.266332247077711"><ele>507.0</ele><time>2026-04-05T16:58:28Z</time></trkpt><trkpt lat="44.89711770628765" lon="9.26646247275743"><ele>507.0</ele><time>2026-04-05T16:58:29Z</time></trkpt><trkpt lat="44.89705029152217" lon="9.266574226406563"><ele>507.0</ele><time>2026-04-05T16:58:30Z</time></trkpt><trkpt lat="44.8969927360307" lon="9.26669149195316"><ele>507.8</ele><time>2026-04-05T16:58:31Z</time></trkpt><trkpt lat="44.896955655614974" lon="9.266804434983774"><ele>508.6</ele><time>2026-04-05T16:58:32Z</time></trkpt><trkpt lat="44.896939729916944" lon="9.26692988555836"><ele>509.40000000000003</ele><time>2026-04-05T16:58:33Z</time></trkpt><trkpt lat="44.89693752566923" lon="9.267065852106466"><ele>510.20000000000005</ele><time>2026-04-05T16:58:34Z</time></trkpt><trkpt lat="44.89699533414593" lon="9.267172034387455"><ele>511.0</ele><time>2026-04-05T16:58:35Z</time></trkpt><trkpt lat="44.89705065944618" lon="9.267258741718912"><ele>510.0</ele><time>2026-04-05T16:58:36Z</time></trkpt><trkpt lat="44.897121064835424" lon="9.267314216006007"><ele>509.0</ele><time>2026-04-05T16:58:37Z</time></trkpt><trkpt lat="44.897215146411824" lon="9.267339439693762"><ele>508.0</ele><time>2026-04-05T16:58:38Z</time></trkpt><trkpt lat="44.89733002386763" lon="9.267336711582644"><ele>507.0</ele><time>2026-04-05T16:58:39Z</time></trkpt><trkpt lat="44.89744781262528" lon="9.267328417488338"><ele>506.0</ele><time>2026-04-05T16:58:40Z</time></trkpt><trkpt lat="44.897560798409835" lon="9.267318646742616"><ele>508.8</ele><time>2026-04-05T16:58:41Z</time></trkpt><trkpt lat="44.89765862144808" lon="9.267285023204789"><ele>511.6</ele><time>2026-04-05T16:58:42Z</time></trkpt><trkpt lat="44.8977418887996" lon="9.26722713249277"><ele>514.4</ele><time>2026-04-05T16:58:43Z</time></trkpt><trkpt lat="44.897816058463654" lon="9.267144082995854"><ele>517.2</ele><time>2026-04-05T16:58:44Z</time></trkpt><trkpt lat="44.89787586552506" lon="9.267052105079758"><ele>520.0</ele><time>2026-04-05T16:58:45Z</time></trkpt><trkpt lat="44.89792577696447" lon="9.266937673981868"><ele>520.6</ele><time>2026-04-05T16:58:46Z</time></trkpt><trkpt lat="44.89795223845024" lon="9.266809594629777"><ele>521.2</ele><time>2026-04-05T16:58:47Z</time></trkpt><trkpt lat="44.897957538492975" lon="9.26666336810631"><ele>521.8</ele><time>2026-04-05T16:58:48Z</time></trkpt><trkpt lat="44.897967845851866" lon="9.266511657882846"><ele>522.4</ele><time>2026-04-05T16:58:49Z</time></trkpt><trkpt lat="44.89796997009279" lon="9.266349805778413"><ele>523.0</ele><time>2026-04-05T16:58:50Z</time></trkpt><trkpt lat="44.897980220597475" lon="9.266188382298997"><ele>523.0</ele><time>2026-04-05T16:58:51Z</time></trkpt><trkpt lat="44.89803237641781" lon="9.266040562246562"><ele>523.0</ele><time>2026-04-05T16:58:52Z</time></trkpt><trkpt lat="44.89810484233539" lon="9.265904324245117"><ele>523.0</ele><time>2026-04-05T16:58:53Z</time></trkpt><trkpt lat="44.89817691712914" lon="9.265782377913037"><ele>523.0</ele><time>2026-04-05T16:58:54Z</time></trkpt><trkpt lat="44.89825318361349" lon="9.265689033458932"><ele>524.0</ele><time>2026-04-05T16:58:55Z</time></trkpt><trkpt lat="44.89833247898834" lon="9.26556817318669"><ele>525.0</ele><time>2026-04-05T16:58:56Z</time></trkpt><trkpt lat="44.89842622157954" lon="9.265442262276332"><ele>526.0</ele><time>2026-04-05T16:58:57Z</time></trkpt><trkpt lat="44.89853896546939" lon="9.265324881299746"><ele>527.0</ele><time>2026-04-05T16:58:58Z</time></trkpt><trkpt lat="44.89866625051829" lon="9.265210893805857"><ele>527.0</ele><time>2026-04-05T16:58:59Z</time></trkpt><trkpt lat="44.898774676353575" lon="9.26513862702557"><ele>527.0</ele><time>2026-04-05T16:59:00Z</time></trkpt><trkpt lat="44.89887620205735" lon="9.265086841998455"><ele>527.0</ele><time>2026-04-05T16:59:00.999Z</time></trkpt><trkpt lat="44.89897654069463" lon="9.265063216828402"><ele>527.0</ele><time>2026-04-05T16:59:01.999Z</time></trkpt><trkpt lat="44.89907068528321" lon="9.265062116649647"><ele>527.0</ele><time>2026-04-05T16:59:02.999Z</time></trkpt><trkpt lat="44.89917627904238" lon="9.265119522307891"><ele>531.0</ele><time>2026-04-05T16:59:03.999Z</time></trkpt><trkpt lat="44.899285110981154" lon="9.265211062641576"><ele>535.0</ele><time>2026-04-05T16:59:04.999Z</time></trkpt><trkpt lat="44.89938726208253" lon="9.265297265298319"><ele>539.0</ele><time>2026-04-05T16:59:05.999Z</time></trkpt><trkpt lat="44.89948223231936" lon="9.265335891957275"><ele>543.0</ele><time>2026-04-05T16:59:06.999Z</time></trkpt><trkpt lat="44.899597595786275" lon="9.265327111669382"><ele>543.0</ele><time>2026-04-05T16:59:07.999Z</time></trkpt><trkpt lat="44.89970359958255" lon="9.265281936195711"><ele>543.0</ele><time>2026-04-05T16:59:08.999Z</time></trkpt><trkpt lat="44.89979107161769" lon="9.265185458783588"><ele>543.0</ele><time>2026-04-05T16:59:09.999Z</time></trkpt><trkpt lat="44.899866597161136" lon="9.265041696228668"><ele>543.0</ele><time>2026-04-05T16:59:10.999Z</time></trkpt><trkpt lat="44.899947760709374" lon="9.264831317751229"><ele>541.0</ele><time>2026-04-05T16:59:11.999Z</time></trkpt><trkpt lat="44.90004639280731" lon="9.2645811029171"><ele>539.0</ele><time>2026-04-05T16:59:12.999Z</time></trkpt><trkpt lat="44.90014396915526" lon="9.26434429832846"><ele>537.0</ele><time>2026-04-05T16:59:13.999Z</time></trkpt><trkpt lat="44.90024046908689" lon="9.264095590520258"><ele>542.3333333333334</ele><time>2026-04-05T16:59:14.999Z</time></trkpt><trkpt lat="44.90032864017792" lon="9.263863552277536"><ele>547.6666666666667</ele><time>2026-04-05T16:59:15.999Z</time></trkpt><trkpt lat="44.900412854132995" lon="9.26363699636987"><ele>553.0</ele><time>2026-04-05T16:59:16.999Z</time></trkpt><trkpt lat="44.90048350987171" lon="9.263398811615112"><ele>553.0</ele><time>2026-04-05T16:59:17.999Z</time></trkpt><trkpt lat="44.90056320980269" lon="9.263181368998634"><ele>553.0</ele><time>2026-04-05T16:59:18.999Z</time></trkpt><trkpt lat="44.90063559726762" lon="9.262974145055423"><ele>553.0</ele><time>2026-04-05T16:59:19.999Z</time></trkpt><trkpt lat="44.900723293524734" lon="9.262787404805506"><ele>552.75</ele><time>2026-04-05T16:59:20.999Z</time></trkpt><trkpt lat="44.900784044928216" lon="9.262627904782939"><ele>552.5</ele><time>2026-04-05T16:59:21.999Z</time></trkpt><trkpt lat="44.900842015965786" lon="9.262482292224016"><ele>552.25</ele><time>2026-04-05T16:59:22.999Z</time></trkpt><trkpt lat="44.90090639441331" lon="9.262353855963614"><ele>552.0</ele><time>2026-04-05T16:59:23.999Z</time></trkpt><trkpt lat="44.900994933538435" lon="9.262220547898481"><ele>555.0</ele><time>2026-04-05T16:59:24.999Z</time></trkpt><trkpt lat="44.901099897782096" lon="9.26207024894506"><ele>558.0</ele><time>2026-04-05T16:59:25.999Z</time></trkpt><trkpt lat="44.90126173230703" lon="9.26197472951282"><ele>561.0</ele><time>2026-04-05T16:59:26.999Z</time></trkpt><trkpt lat="44.901410519065244" lon="9.261841775074428"><ele>561.0</ele><time>2026-04-05T16:59:27.999Z</time></trkpt><trkpt lat="44.901547373076234" lon="9.261747133907258"><ele>561.0</ele><time>2026-04-05T16:59:28.999Z</time></trkpt><trkpt lat="44.90168800615675" lon="9.261626160034123"><ele>561.0</ele><time>2026-04-05T16:59:29.999Z</time></trkpt><trkpt lat="44.90181687807224" lon="9.261509097736004"><ele>562.5</ele><time>2026-04-05T16:59:30.999Z</time></trkpt><trkpt lat="44.9019429896337" lon="9.261385864384685"><ele>564.0</ele><time>2026-04-05T16:59:31.999Z</time></trkpt><trkpt lat="44.902061852402916" lon="9.261270032507557"><ele>565.5</ele><time>2026-04-05T16:59:32.999Z</time></trkpt><trkpt lat="44.902178403799155" lon="9.261142462438833"><ele>567.0</ele><time>2026-04-05T16:59:33.999Z</time></trkpt><trkpt lat="44.90228567650158" lon="9.261018613221117"><ele>567.0</ele><time>2026-04-05T16:59:34.999Z</time></trkpt><trkpt lat="44.90237735744536" lon="9.260906933563932"><ele>567.0</ele><time>2026-04-05T16:59:35.999Z</time></trkpt><trkpt lat="44.90246602686663" lon="9.2608153040156"><ele>567.0</ele><time>2026-04-05T16:59:36.999Z</time></trkpt><trkpt lat="44.90253428552026" lon="9.260725514519994"><ele>567.0</ele><time>2026-04-05T16:59:37.999Z</time></trkpt><trkpt lat="44.90259187004356" lon="9.260643547674869"><ele>567.0</ele><time>2026-04-05T16:59:38.999Z</time></trkpt><trkpt lat="44.90264188917413" lon="9.260581724465277"><ele>566.8333333333334</ele><time>2026-04-05T16:59:39.999Z</time></trkpt><trkpt lat="44.902692117905836" lon="9.260523775242785"><ele>566.6666666666666</ele><time>2026-04-05T16:59:40.999Z</time></trkpt><trkpt lat="44.90275301686868" lon="9.26045808131305"><ele>566.5</ele><time>2026-04-05T16:59:41.999Z</time></trkpt><trkpt lat="44.90281992836961" lon="9.260419262534029"><ele>566.3333333333333</ele><time>2026-04-05T16:59:42.999Z</time></trkpt><trkpt lat="44.90289525024448" lon="9.260387590892126"><ele>566.1666666666666</ele><time>2026-04-05T16:59:43.999Z</time></trkpt><trkpt lat="44.90297030027264" lon="9.260418965200346"><ele>566.0</ele><time>2026-04-05T16:59:44.999Z</time></trkpt><trkpt lat="44.903047373642494" lon="9.260493529382812"><ele>566.0</ele><time>2026-04-05T16:59:45.999Z</time></trkpt><trkpt lat="44.90314150809774" lon="9.260529396991094"><ele>566.0</ele><time>2026-04-05T16:59:46.999Z</time></trkpt><trkpt lat="44.9032253748869" lon="9.260580206707875"><ele>566.0</ele><time>2026-04-05T16:59:47.999Z</time></trkpt><trkpt lat="44.903302608096496" lon="9.260612622405064"><ele>566.0</ele><time>2026-04-05T16:59:48.999Z</time></trkpt><trkpt lat="44.90339052930811" lon="9.260620919318907"><ele>566.0</ele><time>2026-04-05T16:59:49.999Z</time></trkpt><trkpt lat="44.903487827149014" lon="9.260603244586084"><ele>567.0</ele><time>2026-04-05T16:59:50.999Z</time></trkpt><trkpt lat="44.90358166002382" lon="9.260572720064975"><ele>568.0</ele><time>2026-04-05T16:59:51.999Z</time></trkpt><trkpt lat="44.90366880567682" lon="9.260533094410713"><ele>569.0</ele><time>2026-04-05T16:59:52.999Z</time></trkpt><trkpt lat="44.90374834848795" lon="9.260500785971557"><ele>570.0</ele><time>2026-04-05T16:59:53.999Z</time></trkpt><trkpt lat="44.9038467852625" lon="9.260477845499434"><ele>571.0</ele><time>2026-04-05T16:59:54.999Z</time></trkpt><trkpt lat="44.90394897712222" lon="9.260439234752702"><ele>571.0</ele><time>2026-04-05T16:59:55.999Z</time></trkpt><trkpt lat="44.90405795115763" lon="9.260399128193395"><ele>571.0</ele><time>2026-04-05T16:59:56.999Z</time></trkpt><trkpt lat="44.90416393596868" lon="9.260353536019512"><ele>571.0</ele><time>2026-04-05T16:59:57.999Z</time></trkpt><trkpt lat="44.9042599076137" lon="9.260320953053697"><ele>571.0</ele><time>2026-04-05T16:59:58.999Z</time></trkpt><trkpt lat="44.90436458011035" lon="9.26028440051082"><ele>571.0</ele><time>2026-04-05T16:59:59.999Z</time></trkpt><trkpt lat="44.90446265409791" lon="9.260248297871321"><ele>572.6</ele><time>2026-04-05T17:00:00.999Z</time></trkpt><trkpt lat="44.90455939958634" lon="9.260215624081184"><ele>574.2</ele><time>2026-04-05T17:00:01.999Z</time></trkpt><trkpt lat="44.904652347776704" lon="9.260192411893472"><ele>575.8</ele><time>2026-04-05T17:00:02.999Z</time></trkpt><trkpt lat="44.90473662140163" lon="9.260176842856904"><ele>577.4</ele><time>2026-04-05T17:00:04Z</time></trkpt><trkpt lat="44.90481784982591" lon="9.26016130142163"><ele>579.0</ele><time>2026-04-05T17:00:05Z</time></trkpt><trkpt lat="44.904912635009936" lon="9.26014390146412"><ele>579.0</ele><time>2026-04-05T17:00:06Z</time></trkpt><trkpt lat="44.90500660937425" lon="9.260148161593259"><ele>579.0</ele><time>2026-04-05T17:00:07Z</time></trkpt><trkpt lat="44.9051061626008" lon="9.260182460464604"><ele>579.0</ele><time>2026-04-05T17:00:08Z</time></trkpt><trkpt lat="44.90522459540206" lon="9.260257934514147"><ele>579.0</ele><time>2026-04-05T17:00:09Z</time></trkpt><trkpt lat="44.905393626805875" lon="9.260330210885671"><ele>578.75</ele><time>2026-04-05T17:00:10Z</time></trkpt><trkpt lat="44.90555559323552" lon="9.260401103775354"><ele>578.5</ele><time>2026-04-05T17:00:11Z</time></trkpt><trkpt lat="44.90568712985187" lon="9.26046074712176"><ele>578.25</ele><time>2026-04-05T17:00:12Z</time></trkpt><trkpt lat="44.90581495696453" lon="9.260515708485508"><ele>578.0</ele><time>2026-04-05T17:00:13Z</time></trkpt><trkpt lat="44.90594048399556" lon="9.260582856497297"><ele>579.25</ele><time>2026-04-05T17:00:14Z</time></trkpt><trkpt lat="44.90606457625367" lon="9.26066006903331"><ele>580.5</ele><time>2026-04-05T17:00:15Z</time></trkpt><trkpt lat="44.906184586762535" lon="9.260776213214669"><ele>581.75</ele><time>2026-04-05T17:00:16Z</time></trkpt><trkpt lat="44.906310662166184" lon="9.260914270828245"><ele>583.0</ele><time>2026-04-05T17:00:17Z</time></trkpt><trkpt lat="44.90645519609318" lon="9.261079849632488"><ele>583.0</ele><time>2026-04-05T17:00:18Z</time></trkpt><trkpt lat="44.90661233252598" lon="9.261261775429068"><ele>583.0</ele><time>2026-04-05T17:00:19Z</time></trkpt><trkpt lat="44.906756289337444" lon="9.261416067381283"><ele>583.0</ele><time>2026-04-05T17:00:20Z</time></trkpt><trkpt lat="44.90688126490177" lon="9.261554065822942"><ele>584.0</ele><time>2026-04-05T17:00:21Z</time></trkpt><trkpt lat="44.90699264136015" lon="9.261687182309196"><ele>585.0</ele><time>2026-04-05T17:00:22Z</time></trkpt><trkpt lat="44.907087955942835" lon="9.261808573224368"><ele>586.0</ele><time>2026-04-05T17:00:23Z</time></trkpt><trkpt lat="44.90717745016305" lon="9.26193000669378"><ele>587.0</ele><time>2026-04-05T17:00:24Z</time></trkpt><trkpt lat="44.90725463741309" lon="9.26208093741461"><ele>587.0</ele><time>2026-04-05T17:00:25Z</time></trkpt><trkpt lat="44.90732188807264" lon="9.262274015390739"><ele>587.0</ele><time>2026-04-05T17:00:26Z</time></trkpt><trkpt lat="44.90738227455626" lon="9.262461442839443"><ele>587.0</ele><time>2026-04-05T17:00:27Z</time></trkpt><trkpt lat="44.90744895968029" lon="9.262628774477273"><ele>587.0</ele><time>2026-04-05T17:00:28Z</time></trkpt><trkpt lat="44.90754290889269" lon="9.262780196290446"><ele>588.3333333333333</ele><time>2026-04-05T17:00:29Z</time></trkpt><trkpt lat="44.90766725045404" lon="9.262906787289323"><ele>589.6666666666666</ele><time>2026-04-05T17:00:30Z</time></trkpt><trkpt lat="44.90781324519411" lon="9.263012258229779"><ele>591.0</ele><time>2026-04-05T17:00:31Z</time></trkpt><trkpt lat="44.90793414428938" lon="9.263093180405495"><ele>592.6</ele><time>2026-04-05T17:00:32Z</time></trkpt><trkpt lat="44.90805222286472" lon="9.263175870352256"><ele>594.2</ele><time>2026-04-05T17:00:33Z</time></trkpt><trkpt lat="44.908160270810264" lon="9.263254273667984"><ele>595.8</ele><time>2026-04-05T17:00:34Z</time></trkpt><trkpt lat="44.90824432584099" lon="9.263317336632031"><ele>597.4</ele><time>2026-04-05T17:00:35Z</time></trkpt><trkpt lat="44.90832800696649" lon="9.263371438288598"><ele>599.0</ele><time>2026-04-05T17:00:36Z</time></trkpt><trkpt lat="44.908395013895" lon="9.263422391364813"><ele>598.2</ele><time>2026-04-05T17:00:37Z</time></trkpt><trkpt lat="44.90846767629462" lon="9.26346355691763"><ele>597.4</ele><time>2026-04-05T17:00:38Z</time></trkpt><trkpt lat="44.908541110031635" lon="9.26351400288589"><ele>596.6</ele><time>2026-04-05T17:00:39Z</time></trkpt><trkpt lat="44.90862298169364" lon="9.263567430011584"><ele>595.8</ele><time>2026-04-05T17:00:40Z</time></trkpt><trkpt lat="44.90871290794059" lon="9.263621056445535"><ele>595.0</ele><time>2026-04-05T17:00:41Z</time></trkpt><trkpt lat="44.908808007148096" lon="9.263686371624164"><ele>595.0</ele><time>2026-04-05T17:00:42Z</time></trkpt><trkpt lat="44.90889771728716" lon="9.263751364154798"><ele>595.0</ele><time>2026-04-05T17:00:43Z</time></trkpt><trkpt lat="44.90899890896051" lon="9.263812355516963"><ele>595.0</ele><time>2026-04-05T17:00:44Z</time></trkpt><trkpt lat="44.90910928433116" lon="9.263876162781848"><ele>595.0</ele><time>2026-04-05T17:00:45Z</time></trkpt><trkpt lat="44.909216429881475" lon="9.26393636399749"><ele>595.0</ele><time>2026-04-05T17:00:46Z</time></trkpt><trkpt lat="44.90931664483436" lon="9.26399835737676"><ele>596.6666666666667</ele><time>2026-04-05T17:00:47Z</time></trkpt><trkpt lat="44.909401126786406" lon="9.264047091101165"><ele>598.3333333333334</ele><time>2026-04-05T17:00:48Z</time></trkpt><trkpt lat="44.90947791176512" lon="9.264092838977586"><ele>600.0</ele><time>2026-04-05T17:00:49Z</time></trkpt><trkpt lat="44.909540985999435" lon="9.264130845477519"><ele>601.6666666666666</ele><time>2026-04-05T17:00:50Z</time></trkpt><trkpt lat="44.909605089317886" lon="9.264170452752316"><ele>603.3333333333333</ele><time>2026-04-05T17:00:51Z</time></trkpt><trkpt lat="44.90967221191106" lon="9.264215377203808"><ele>605.0</ele><time>2026-04-05T17:00:52Z</time></trkpt><trkpt lat="44.9097388113452" lon="9.26425351174812"><ele>605.0</ele><time>2026-04-05T17:00:53Z</time></trkpt><trkpt lat="44.90980253489853" lon="9.26429148781183"><ele>605.0</ele><time>2026-04-05T17:00:54Z</time></trkpt><trkpt lat="44.9098827285234" lon="9.264333368284522"><ele>605.0</ele><time>2026-04-05T17:00:55Z</time></trkpt><trkpt lat="44.90996711944508" lon="9.264390367741338"><ele>605.0</ele><time>2026-04-05T17:00:56Z</time></trkpt><trkpt lat="44.910054867685425" lon="9.264437284923229"><ele>605.0</ele><time>2026-04-05T17:00:57Z</time></trkpt><trkpt lat="44.910140162366474" lon="9.264472108722522"><ele>605.0</ele><time>2026-04-05T17:00:58Z</time></trkpt><trkpt lat="44.91022449319579" lon="9.26450213245364"><ele>605.0</ele><time>2026-04-05T17:00:59Z</time></trkpt><trkpt lat="44.9103210864879" lon="9.2645240104588"><ele>605.0</ele><time>2026-04-05T17:01:00Z</time></trkpt><trkpt lat="44.9104215709104" lon="9.264532962056238"><ele>605.0</ele><time>2026-04-05T17:01:01Z</time></trkpt><trkpt lat="44.91052754012049" lon="9.26451840514908"><ele>605.0</ele><time>2026-04-05T17:01:02Z</time></trkpt><trkpt lat="44.91062622843352" lon="9.264488169371958"><ele>605.0</ele><time>2026-04-05T17:01:03Z</time></trkpt><trkpt lat="44.91073455129132" lon="9.264456162131873"><ele>605.0</ele><time>2026-04-05T17:01:04Z</time></trkpt><trkpt lat="44.910833968662466" lon="9.264432162439677"><ele>605.0</ele><time>2026-04-05T17:01:05Z</time></trkpt><trkpt lat="44.91093204623158" lon="9.264403555182033"><ele>605.0</ele><time>2026-04-05T17:01:05.999Z</time></trkpt><trkpt lat="44.911033522956124" lon="9.264367510851525"><ele>605.0</ele><time>2026-04-05T17:01:06.999Z</time></trkpt><trkpt lat="44.9111282696356" lon="9.264338330164835"><ele>605.0</ele><time>2026-04-05T17:01:07.999Z</time></trkpt><trkpt lat="44.911223434117524" lon="9.264300340165413"><ele>605.6</ele><time>2026-04-05T17:01:08.999Z</time></trkpt><trkpt lat="44.91131583434109" lon="9.264267415969863"><ele>606.2</ele><time>2026-04-05T17:01:09.999Z</time></trkpt><trkpt lat="44.91141259873765" lon="9.264224084648138"><ele>606.8</ele><time>2026-04-05T17:01:10.999Z</time></trkpt><trkpt lat="44.91150383087908" lon="9.264175612098628"><ele>607.4</ele><time>2026-04-05T17:01:11.999Z</time></trkpt><trkpt lat="44.911585388692004" lon="9.264112905092663"><ele>608.0</ele><time>2026-04-05T17:01:12.999Z</time></trkpt><trkpt lat="44.911666922870346" lon="9.264035628353854"><ele>608.1999999999999</ele><time>2026-04-05T17:01:13.999Z</time></trkpt><trkpt lat="44.911745661173384" lon="9.263955796634898"><ele>608.4</ele><time>2026-04-05T17:01:14.999Z</time></trkpt><trkpt lat="44.91181978105046" lon="9.263870733143868"><ele>608.5999999999999</ele><time>2026-04-05T17:01:15.999Z</time></trkpt><trkpt lat="44.911894966452785" lon="9.263774153063038"><ele>608.8</ele><time>2026-04-05T17:01:16.999Z</time></trkpt><trkpt lat="44.91197501244671" lon="9.263677419368756"><ele>609.0</ele><time>2026-04-05T17:01:17.999Z</time></trkpt><trkpt lat="44.912055904623195" lon="9.263579732336476"><ele>608.5</ele><time>2026-04-05T17:01:18.999Z</time></trkpt><trkpt lat="44.9121259250966" lon="9.263497776092134"><ele>608.0</ele><time>2026-04-05T17:01:19.999Z</time></trkpt><trkpt lat="44.91219428630621" lon="9.263413399190895"><ele>607.5</ele><time>2026-04-05T17:01:20.999Z</time></trkpt><trkpt lat="44.912255774115145" lon="9.263344587914299"><ele>607.0</ele><time>2026-04-05T17:01:21.999Z</time></trkpt><trkpt lat="44.91231300834202" lon="9.263272379535968"><ele>606.5</ele><time>2026-04-05T17:01:22.999Z</time></trkpt><trkpt lat="44.91237008359314" lon="9.263219090261389"><ele>606.0</ele><time>2026-04-05T17:01:23.999Z</time></trkpt><trkpt lat="44.91247859383997" lon="9.26314867147007"><ele>606.0</ele><time>2026-04-05T17:01:25.999Z</time></trkpt><trkpt lat="44.91254726356449" lon="9.263153123021366"><ele>606.0</ele><time>2026-04-05T17:01:26.999Z</time></trkpt><trkpt lat="44.912622991379315" lon="9.263186290988171"><ele>606.0</ele><time>2026-04-05T17:01:27.999Z</time></trkpt><trkpt lat="44.91271668655152" lon="9.263255206768154"><ele>606.0</ele><time>2026-04-05T17:01:28.999Z</time></trkpt><trkpt lat="44.91281985196379" lon="9.263347720874751"><ele>606.0</ele><time>2026-04-05T17:01:29.999Z</time></trkpt><trkpt lat="44.91292259149633" lon="9.263445405363223"><ele>604.0</ele><time>2026-04-05T17:01:30.999Z</time></trkpt><trkpt lat="44.91300552046816" lon="9.263522252914948"><ele>602.0</ele><time>2026-04-05T17:01:31.999Z</time></trkpt><trkpt lat="44.91308826149652" lon="9.263589547875524"><ele>600.0</ele><time>2026-04-05T17:01:32.999Z</time></trkpt><trkpt lat="44.91316133111396" lon="9.263658145257844"><ele>598.0</ele><time>2026-04-05T17:01:33.999Z</time></trkpt><trkpt lat="44.9132346740626" lon="9.263728263982859"><ele>596.0</ele><time>2026-04-05T17:01:34.999Z</time></trkpt><trkpt lat="44.913307287667685" lon="9.263784252277524"><ele>596.0</ele><time>2026-04-05T17:01:35.999Z</time></trkpt><trkpt lat="44.91337923440715" lon="9.263832050956708"><ele>596.0</ele><time>2026-04-05T17:01:36.999Z</time></trkpt><trkpt lat="44.9134582197376" lon="9.263868984176991"><ele>596.0</ele><time>2026-04-05T17:01:37.999Z</time></trkpt><trkpt lat="44.913553618593596" lon="9.263882238872558"><ele>596.0</ele><time>2026-04-05T17:01:38.999Z</time></trkpt><trkpt lat="44.91366219714587" lon="9.263872391553083"><ele>596.0</ele><time>2026-04-05T17:01:39.999Z</time></trkpt><trkpt lat="44.91378089896347" lon="9.263850913642397"><ele>595.2</ele><time>2026-04-05T17:01:40.999Z</time></trkpt><trkpt lat="44.91389880818285" lon="9.263813357544569"><ele>594.4000000000001</ele><time>2026-04-05T17:01:41.999Z</time></trkpt><trkpt lat="44.91400218598668" lon="9.26379263788406"><ele>593.6</ele><time>2026-04-05T17:01:42.999Z</time></trkpt><trkpt lat="44.91410641148968" lon="9.263762891787124"><ele>592.8000000000001</ele><time>2026-04-05T17:01:43.999Z</time></trkpt><trkpt lat="44.91421641111167" lon="9.263729939450302"><ele>592.0</ele><time>2026-04-05T17:01:44.999Z</time></trkpt><trkpt lat="44.9143260856382" lon="9.26371190718823"><ele>591.75</ele><time>2026-04-05T17:01:45.999Z</time></trkpt><trkpt lat="44.91443549513285" lon="9.263659483909695"><ele>591.5</ele><time>2026-04-05T17:01:46.999Z</time></trkpt><trkpt lat="44.9145396278084" lon="9.263599468195265"><ele>591.25</ele><time>2026-04-05T17:01:47.999Z</time></trkpt><trkpt lat="44.914652018961945" lon="9.263509697007938"><ele>591.0</ele><time>2026-04-05T17:01:48.999Z</time></trkpt><trkpt lat="44.91476059471083" lon="9.263401559867978"><ele>591.0</ele><time>2026-04-05T17:01:49.999Z</time></trkpt><trkpt lat="44.91486543417992" lon="9.263281955647056"><ele>591.0</ele><time>2026-04-05T17:01:50.999Z</time></trkpt><trkpt lat="44.91497722657374" lon="9.26316927447391"><ele>591.0</ele><time>2026-04-05T17:01:51.999Z</time></trkpt><trkpt lat="44.91507158526104" lon="9.263069729988347"><ele>591.0</ele><time>2026-04-05T17:01:52.999Z</time></trkpt><trkpt lat="44.91516631106457" lon="9.262968259008174"><ele>589.8</ele><time>2026-04-05T17:01:53.999Z</time></trkpt><trkpt lat="44.91525172363193" lon="9.262874052551116"><ele>588.6</ele><time>2026-04-05T17:01:54.999Z</time></trkpt><trkpt lat="44.91533197739977" lon="9.262779121384462"><ele>587.4</ele><time>2026-04-05T17:01:55.999Z</time></trkpt><trkpt lat="44.9154096145418" lon="9.262690276862719"><ele>586.2</ele><time>2026-04-05T17:01:56.999Z</time></trkpt><trkpt lat="44.91548439132948" lon="9.262606544170897"><ele>585.0</ele><time>2026-04-05T17:01:57.999Z</time></trkpt><trkpt lat="44.915560424926426" lon="9.26252320953183"><ele>585.0</ele><time>2026-04-05T17:01:58.999Z</time></trkpt><trkpt lat="44.91563825147631" lon="9.26244129200444"><ele>585.0</ele><time>2026-04-05T17:01:59.999Z</time></trkpt><trkpt lat="44.9157240268028" lon="9.262352612136084"><ele>585.0</ele><time>2026-04-05T17:02:00.999Z</time></trkpt><trkpt lat="44.91581552310188" lon="9.262252067908934"><ele>585.0</ele><time>2026-04-05T17:02:01.999Z</time></trkpt><trkpt lat="44.91591697827777" lon="9.262139617176476"><ele>585.0</ele><time>2026-04-05T17:02:02.999Z</time></trkpt><trkpt lat="44.91601628101082" lon="9.262025027565066"><ele>583.0</ele><time>2026-04-05T17:02:03.999Z</time></trkpt><trkpt lat="44.91610990273537" lon="9.261925061458124"><ele>581.0</ele><time>2026-04-05T17:02:04.999Z</time></trkpt><trkpt lat="44.91619503883931" lon="9.26182746951761"><ele>579.0</ele><time>2026-04-05T17:02:05.999Z</time></trkpt><trkpt lat="44.916280695861275" lon="9.261736039094636"><ele>577.0</ele><time>2026-04-05T17:02:06.999Z</time></trkpt><trkpt lat="44.916373976337304" lon="9.261646021529078"><ele>575.0</ele><time>2026-04-05T17:02:07.999Z</time></trkpt><trkpt lat="44.91645711825219" lon="9.261554576026219"><ele>575.0</ele><time>2026-04-05T17:02:08.999Z</time></trkpt><trkpt lat="44.916521999601464" lon="9.261464377518372"><ele>575.0</ele><time>2026-04-05T17:02:10Z</time></trkpt><trkpt lat="44.916597587308374" lon="9.261388082904494"><ele>575.0</ele><time>2026-04-05T17:02:11Z</time></trkpt><trkpt lat="44.91666657887908" lon="9.26131180901353"><ele>575.0</ele><time>2026-04-05T17:02:12Z</time></trkpt><trkpt lat="44.9167362641792" lon="9.26124153198474"><ele>575.0</ele><time>2026-04-05T17:02:13Z</time></trkpt><trkpt lat="44.91679887016093" lon="9.26118170584265"><ele>575.0</ele><time>2026-04-05T17:02:14Z</time></trkpt><trkpt lat="44.91686104762515" lon="9.261122647124276"><ele>574.0</ele><time>2026-04-05T17:02:15Z</time></trkpt><trkpt lat="44.91692634434106" lon="9.261076880835402"><ele>573.0</ele><time>2026-04-05T17:02:16Z</time></trkpt><trkpt lat="44.91700689017175" lon="9.261058479096864"><ele>572.0</ele><time>2026-04-05T17:02:17Z</time></trkpt><trkpt lat="44.91710036639947" lon="9.261049444175438"><ele>571.0</ele><time>2026-04-05T17:02:18Z</time></trkpt><trkpt lat="44.91719172148197" lon="9.261098675069714"><ele>570.0</ele><time>2026-04-05T17:02:19Z</time></trkpt><trkpt lat="44.917274788225896" lon="9.261146424674367"><ele>569.0</ele><time>2026-04-05T17:02:20Z</time></trkpt><trkpt lat="44.91736818587663" lon="9.26117187933371"><ele>569.0</ele><time>2026-04-05T17:02:21Z</time></trkpt><trkpt lat="44.91745225401763" lon="9.261244806728529"><ele>569.0</ele><time>2026-04-05T17:02:22Z</time></trkpt><trkpt lat="44.91755200461641" lon="9.261298698769512"><ele>569.0</ele><time>2026-04-05T17:02:23Z</time></trkpt><trkpt lat="44.917647883728996" lon="9.261334068470621"><ele>569.0</ele><time>2026-04-05T17:02:24Z</time></trkpt><trkpt lat="44.91774770182332" lon="9.261360711740158"><ele>569.0</ele><time>2026-04-05T17:02:25Z</time></trkpt><trkpt lat="44.91784975839374" lon="9.261372954067468"><ele>568.8</ele><time>2026-04-05T17:02:26Z</time></trkpt><trkpt lat="44.917945491115844" lon="9.261365536266126"><ele>568.5999999999999</ele><time>2026-04-05T17:02:27Z</time></trkpt><trkpt lat="44.91804242292388" lon="9.26134195392658"><ele>568.4</ele><time>2026-04-05T17:02:28Z</time></trkpt><trkpt lat="44.91813781991837" lon="9.261308673762404"><ele>568.1999999999999</ele><time>2026-04-05T17:02:29Z</time></trkpt><trkpt lat="44.918235721457236" lon="9.261274952076041"><ele>568.0</ele><time>2026-04-05T17:02:30Z</time></trkpt><trkpt lat="44.91833380140607" lon="9.26124111154243"><ele>566.0</ele><time>2026-04-05T17:02:31Z</time></trkpt><trkpt lat="44.91841798517177" lon="9.26122654854892"><ele>564.0</ele><time>2026-04-05T17:02:32Z</time></trkpt><trkpt lat="44.918505473392756" lon="9.261230607611497"><ele>562.0</ele><time>2026-04-05T17:02:33Z</time></trkpt><trkpt lat="44.9185966574228" lon="9.261237819661662"><ele>560.0</ele><time>2026-04-05T17:02:34Z</time></trkpt><trkpt lat="44.91868985196809" lon="9.26123813962262"><ele>558.0</ele><time>2026-04-05T17:02:35Z</time></trkpt><trkpt lat="44.91878323697469" lon="9.26121350479633"><ele>558.0</ele><time>2026-04-05T17:02:36Z</time></trkpt><trkpt lat="44.91886365125663" lon="9.261143441678335"><ele>558.0</ele><time>2026-04-05T17:02:37Z</time></trkpt><trkpt lat="44.91894271787259" lon="9.261116649153918"><ele>558.0</ele><time>2026-04-05T17:02:38Z</time></trkpt><trkpt lat="44.919015880719215" lon="9.26107799690983"><ele>558.0</ele><time>2026-04-05T17:02:39Z</time></trkpt><trkpt lat="44.91908483087248" lon="9.261074139936936"><ele>558.0</ele><time>2026-04-05T17:02:40Z</time></trkpt><trkpt lat="44.91916039731408" lon="9.261098189865098"><ele>558.0</ele><time>2026-04-05T17:02:41Z</time></trkpt><trkpt lat="44.91922821922606" lon="9.261157006521772"><ele>556.6</ele><time>2026-04-05T17:02:42Z</time></trkpt><trkpt lat="44.919294961152296" lon="9.261251195792648"><ele>555.1999999999999</ele><time>2026-04-05T17:02:43Z</time></trkpt><trkpt lat="44.919345178561" lon="9.261364422408336"><ele>553.8</ele><time>2026-04-05T17:02:44Z</time></trkpt><trkpt lat="44.919388943290876" lon="9.261483493089289"><ele>552.4</ele><time>2026-04-05T17:02:45Z</time></trkpt><trkpt lat="44.919434470975574" lon="9.261593369461885"><ele>551.0</ele><time>2026-04-05T17:02:46Z</time></trkpt><trkpt lat="44.91945948973631" lon="9.261708501174125"><ele>551.0</ele><time>2026-04-05T17:02:47Z</time></trkpt><trkpt lat="44.919487759779564" lon="9.261815745726294"><ele>551.0</ele><time>2026-04-05T17:02:48Z</time></trkpt><trkpt lat="44.91951580882472" lon="9.261912746036632"><ele>551.0</ele><time>2026-04-05T17:02:49Z</time></trkpt><trkpt lat="44.91956695208065" lon="9.261992585130935"><ele>551.0</ele><time>2026-04-05T17:02:50Z</time></trkpt><trkpt lat="44.91964505617858" lon="9.26204936933961"><ele>551.0</ele><time>2026-04-05T17:02:51Z</time></trkpt><trkpt lat="44.9197314690244" lon="9.262076251137762"><ele>551.0</ele><time>2026-04-05T17:02:52Z</time></trkpt><trkpt lat="44.9198238372759" lon="9.262093410793746"><ele>551.0</ele><time>2026-04-05T17:02:53Z</time></trkpt><trkpt lat="44.919923099106455" lon="9.262098081065371"><ele>551.0</ele><time>2026-04-05T17:02:54Z</time></trkpt><trkpt lat="44.920030183170326" lon="9.262104712364845"><ele>551.0</ele><time>2026-04-05T17:02:55Z</time></trkpt><trkpt lat="44.920144945920846" lon="9.262109194420711"><ele>551.0</ele><time>2026-04-05T17:02:56Z</time></trkpt><trkpt lat="44.92025068706075" lon="9.262107836997027"><ele>551.0</ele><time>2026-04-05T17:02:57Z</time></trkpt><trkpt lat="44.9203474722811" lon="9.262121377149768"><ele>550.0</ele><time>2026-04-05T17:02:58Z</time></trkpt><trkpt lat="44.92045022243983" lon="9.262127819600392"><ele>549.0</ele><time>2026-04-05T17:02:59Z</time></trkpt><trkpt lat="44.92055550418825" lon="9.2621344354717"><ele>548.0</ele><time>2026-04-05T17:03:00Z</time></trkpt><trkpt lat="44.92066525789197" lon="9.262138848135645"><ele>547.0</ele><time>2026-04-05T17:03:01Z</time></trkpt><trkpt lat="44.92077808760537" lon="9.262134712081373"><ele>546.0</ele><time>2026-04-05T17:03:02Z</time></trkpt><trkpt lat="44.92089260694838" lon="9.262139143801415"><ele>544.75</ele><time>2026-04-05T17:03:03Z</time></trkpt><trkpt lat="44.92099198229545" lon="9.262156475480092"><ele>543.5</ele><time>2026-04-05T17:03:04Z</time></trkpt><trkpt lat="44.921112896163365" lon="9.26216267081174"><ele>542.25</ele><time>2026-04-05T17:03:05Z</time></trkpt><trkpt lat="44.92123518109089" lon="9.262170064958957"><ele>541.0</ele><time>2026-04-05T17:03:06Z</time></trkpt><trkpt lat="44.92136386403886" lon="9.262179293251116"><ele>541.0</ele><time>2026-04-05T17:03:07Z</time></trkpt><trkpt lat="44.92148389610095" lon="9.262186352263186"><ele>541.0</ele><time>2026-04-05T17:03:08Z</time></trkpt><trkpt lat="44.92159890187893" lon="9.2621938977639"><ele>541.0</ele><time>2026-04-05T17:03:09Z</time></trkpt><trkpt lat="44.92171091468443" lon="9.262202541623333"><ele>541.0</ele><time>2026-04-05T17:03:10Z</time></trkpt><trkpt lat="44.92181623090875" lon="9.262208017204335"><ele>539.5</ele><time>2026-04-05T17:03:11Z</time></trkpt><trkpt lat="44.92191985842305" lon="9.26221161789104"><ele>538.0</ele><time>2026-04-05T17:03:12Z</time></trkpt><trkpt lat="44.92201422283983" lon="9.262216356469446"><ele>536.5</ele><time>2026-04-05T17:03:13Z</time></trkpt><trkpt lat="44.9220953660053" lon="9.262200505741944"><ele>535.0</ele><time>2026-04-05T17:03:13.999Z</time></trkpt><trkpt lat="44.922163753099255" lon="9.262158040336807"><ele>533.5</ele><time>2026-04-05T17:03:14.999Z</time></trkpt><trkpt lat="44.92221940616711" lon="9.26209029542488"><ele>532.0</ele><time>2026-04-05T17:03:15.999Z</time></trkpt><trkpt lat="44.92227602934914" lon="9.26201311407144"><ele>532.0</ele><time>2026-04-05T17:03:16.999Z</time></trkpt><trkpt lat="44.92229735024379" lon="9.261886699106588"><ele>532.0</ele><time>2026-04-05T17:03:17.999Z</time></trkpt><trkpt lat="44.922287375027025" lon="9.261749798165827"><ele>532.0</ele><time>2026-04-05T17:03:18.999Z</time></trkpt><trkpt lat="44.92228353822205" lon="9.261614054124708"><ele>532.0</ele><time>2026-04-05T17:03:19.999Z</time></trkpt><trkpt lat="44.922282425232844" lon="9.261488137556322"><ele>532.0</ele><time>2026-04-05T17:03:20.999Z</time></trkpt><trkpt lat="44.92231075995509" lon="9.261375925894276"><ele>531.0</ele><time>2026-04-05T17:03:21.999Z</time></trkpt><trkpt lat="44.922367274065344" lon="9.261294289471184"><ele>530.0</ele><time>2026-04-05T17:03:22.999Z</time></trkpt><trkpt lat="44.92243901353481" lon="9.261243589944437"><ele>529.0</ele><time>2026-04-05T17:03:23.999Z</time></trkpt><trkpt lat="44.92252233169339" lon="9.261188289983616"><ele>528.0</ele><time>2026-04-05T17:03:24.999Z</time></trkpt><trkpt lat="44.92261806245477" lon="9.261130334662946"><ele>527.0</ele><time>2026-04-05T17:03:25.999Z</time></trkpt><trkpt lat="44.922726857509616" lon="9.261055648051592"><ele>525.5</ele><time>2026-04-05T17:03:26.999Z</time></trkpt><trkpt lat="44.92284687946962" lon="9.260978469024748"><ele>524.0</ele><time>2026-04-05T17:03:27.999Z</time></trkpt><trkpt lat="44.92297513276618" lon="9.260890342566075"><ele>522.5</ele><time>2026-04-05T17:03:28.999Z</time></trkpt><trkpt lat="44.923094431379525" lon="9.260814490223199"><ele>521.0</ele><time>2026-04-05T17:03:29.999Z</time></trkpt><trkpt lat="44.92320617642807" lon="9.260745302036119"><ele>521.0</ele><time>2026-04-05T17:03:30.999Z</time></trkpt><trkpt lat="44.92331235602934" lon="9.260680029431308"><ele>521.0</ele><time>2026-04-05T17:03:31.999Z</time></trkpt><trkpt lat="44.92341560566914" lon="9.26061262567494"><ele>521.0</ele><time>2026-04-05T17:03:32.999Z</time></trkpt><trkpt lat="44.92352913552757" lon="9.260535922103468"><ele>521.0</ele><time>2026-04-05T17:03:33.999Z</time></trkpt><trkpt lat="44.92365139466666" lon="9.260452708374267"><ele>519.75</ele><time>2026-04-05T17:03:34.999Z</time></trkpt><trkpt lat="44.923771242395304" lon="9.260376043123882"><ele>518.5</ele><time>2026-04-05T17:03:35.999Z</time></trkpt><trkpt lat="44.9238845410727" lon="9.26029431247285"><ele>517.25</ele><time>2026-04-05T17:03:36.999Z</time></trkpt><trkpt lat="44.9239916341188" lon="9.260194727355817"><ele>516.0</ele><time>2026-04-05T17:03:37.999Z</time></trkpt><trkpt lat="44.92409344774554" lon="9.260080087420102"><ele>516.0</ele><time>2026-04-05T17:03:38.999Z</time></trkpt><trkpt lat="44.92418559962279" lon="9.259970251804432"><ele>516.0</ele><time>2026-04-05T17:03:39.999Z</time></trkpt><trkpt lat="44.924275334254745" lon="9.259865823252909"><ele>516.0</ele><time>2026-04-05T17:03:40.999Z</time></trkpt><trkpt lat="44.924354875678226" lon="9.259768224435053"><ele>516.0</ele><time>2026-04-05T17:03:41.999Z</time></trkpt><trkpt lat="44.92443905999744" lon="9.259674285071293"><ele>516.0</ele><time>2026-04-05T17:03:42.999Z</time></trkpt><trkpt lat="44.92452756995365" lon="9.259595917532753"><ele>514.6</ele><time>2026-04-05T17:03:43.999Z</time></trkpt><trkpt lat="44.92462369799417" lon="9.259523364535731"><ele>513.2</ele><time>2026-04-05T17:03:44.999Z</time></trkpt><trkpt lat="44.92472118344041" lon="9.259472341491703"><ele>511.79999999999995</ele><time>2026-04-05T17:03:45.999Z</time></trkpt><trkpt lat="44.92481588878649" lon="9.259442559142137"><ele>510.4</ele><time>2026-04-05T17:03:46.999Z</time></trkpt><trkpt lat="44.92491625527077" lon="9.259422311775309"><ele>509.0</ele><time>2026-04-05T17:03:47.999Z</time></trkpt><trkpt lat="44.92500892666891" lon="9.259406309840925"><ele>508.8333333333333</ele><time>2026-04-05T17:03:48.999Z</time></trkpt><trkpt lat="44.925095576064976" lon="9.259393877140424"><ele>508.66666666666663</ele><time>2026-04-05T17:03:49.999Z</time></trkpt><trkpt lat="44.92517636510833" lon="9.259384677740984"><ele>508.5</ele><time>2026-04-05T17:03:50.999Z</time></trkpt><trkpt lat="44.92525364211116" lon="9.259383171326526"><ele>508.33333333333337</ele><time>2026-04-05T17:03:51.999Z</time></trkpt><trkpt lat="44.925331464426726" lon="9.259389894776012"><ele>508.1666666666667</ele><time>2026-04-05T17:03:52.999Z</time></trkpt><trkpt lat="44.92540688628044" lon="9.259449705138664"><ele>508.0</ele><time>2026-04-05T17:03:53.999Z</time></trkpt><trkpt lat="44.925499442262534" lon="9.259473245060745"><ele>508.0</ele><time>2026-04-05T17:03:54.999Z</time></trkpt><trkpt lat="44.92556885043446" lon="9.259573303219465"><ele>507.99999999999994</ele><time>2026-04-05T17:03:55.999Z</time></trkpt><trkpt lat="44.9256531842532" lon="9.259652672286474"><ele>507.99999999999994</ele><time>2026-04-05T17:03:56.999Z</time></trkpt><trkpt lat="44.92573722811683" lon="9.259731913649889"><ele>508.0</ele><time>2026-04-05T17:03:57.999Z</time></trkpt><trkpt lat="44.92582342751043" lon="9.259813187366067"><ele>508.0</ele><time>2026-04-05T17:03:58.999Z</time></trkpt><trkpt lat="44.92590572500862" lon="9.259890754903656"><ele>508.59999999999997</ele><time>2026-04-05T17:03:59.999Z</time></trkpt><trkpt lat="44.92599002060441" lon="9.259968065417135"><ele>509.19999999999993</ele><time>2026-04-05T17:04:00.999Z</time></trkpt><trkpt lat="44.92607043451113" lon="9.260041730378257"><ele>509.8</ele><time>2026-04-05T17:04:01.999Z</time></trkpt><trkpt lat="44.926154593931486" lon="9.2600930810538"><ele>510.4</ele><time>2026-04-05T17:04:02.999Z</time></trkpt><trkpt lat="44.926232010336925" lon="9.260170231178959"><ele>511.0</ele><time>2026-04-05T17:04:03.999Z</time></trkpt><trkpt lat="44.92631907871096" lon="9.260250046336841"><ele>511.0</ele><time>2026-04-05T17:04:04.999Z</time></trkpt><trkpt lat="44.926411221472655" lon="9.260333837871427"><ele>511.0</ele><time>2026-04-05T17:04:05.999Z</time></trkpt><trkpt lat="44.92649643716218" lon="9.260423261881863"><ele>511.0</ele><time>2026-04-05T17:04:06.999Z</time></trkpt><trkpt lat="44.92659070156723" lon="9.260504086219461"><ele>511.0</ele><time>2026-04-05T17:04:07.999Z</time></trkpt><trkpt lat="44.92669127205261" lon="9.260577510339875"><ele>511.0</ele><time>2026-04-05T17:04:08.999Z</time></trkpt><trkpt lat="44.92679296167581" lon="9.260641536942526"><ele>509.0</ele><time>2026-04-05T17:04:09.999Z</time></trkpt><trkpt lat="44.926884690516445" lon="9.260698009811891"><ele>507.0</ele><time>2026-04-05T17:04:10.999Z</time></trkpt><trkpt lat="44.926971159950675" lon="9.26076765308756"><ele>505.0</ele><time>2026-04-05T17:04:11.999Z</time></trkpt><trkpt lat="44.92706125945666" lon="9.260816433954865"><ele>503.0</ele><time>2026-04-05T17:04:12.999Z</time></trkpt><trkpt lat="44.927147057289844" lon="9.260864884847182"><ele>501.0</ele><time>2026-04-05T17:04:13.999Z</time></trkpt><trkpt lat="44.92723235790562" lon="9.260916491029548"><ele>501.0</ele><time>2026-04-05T17:04:14.999Z</time></trkpt><trkpt lat="44.92731325990911" lon="9.2609532110534"><ele>501.0</ele><time>2026-04-05T17:04:16Z</time></trkpt><trkpt lat="44.92737922655222" lon="9.26102889705085"><ele>501.0</ele><time>2026-04-05T17:04:17Z</time></trkpt><trkpt lat="44.92745448215299" lon="9.261132161285207"><ele>501.0</ele><time>2026-04-05T17:04:18Z</time></trkpt><trkpt lat="44.927514536427836" lon="9.261269474411973"><ele>501.0</ele><time>2026-04-05T17:04:19Z</time></trkpt><trkpt lat="44.92757419079384" lon="9.261402488480956"><ele>499.25</ele><time>2026-04-05T17:04:20Z</time></trkpt><trkpt lat="44.92764437975954" lon="9.261543895615299"><ele>497.5</ele><time>2026-04-05T17:04:21Z</time></trkpt><trkpt lat="44.927697986099375" lon="9.261697653115343"><ele>495.75</ele><time>2026-04-05T17:04:22Z</time></trkpt><trkpt lat="44.92775886799146" lon="9.26183785216791"><ele>494.0</ele><time>2026-04-05T17:04:23Z</time></trkpt><trkpt lat="44.92781684971074" lon="9.261965919888361"><ele>493.99999999999994</ele><time>2026-04-05T17:04:24Z</time></trkpt><trkpt lat="44.92786288886263" lon="9.262071227725114"><ele>494.0</ele><time>2026-04-05T17:04:25Z</time></trkpt><trkpt lat="44.92790783772912" lon="9.26217453295834"><ele>494.0</ele><time>2026-04-05T17:04:26Z</time></trkpt><trkpt lat="44.927950699862784" lon="9.26226890462621"><ele>494.0</ele><time>2026-04-05T17:04:27Z</time></trkpt><trkpt lat="44.92799283753226" lon="9.262359353561845"><ele>493.99999999999994</ele><time>2026-04-05T17:04:28Z</time></trkpt><trkpt lat="44.928035470876004" lon="9.26244912718537"><ele>494.0</ele><time>2026-04-05T17:04:29Z</time></trkpt><trkpt lat="44.92807185007069" lon="9.262528493120216"><ele>493.3333333333333</ele><time>2026-04-05T17:04:30Z</time></trkpt><trkpt lat="44.92811682540886" lon="9.262645510943184"><ele>492.66666666666663</ele><time>2026-04-05T17:04:32Z</time></trkpt><trkpt lat="44.928163891385054" lon="9.262727201990588"><ele>492.0</ele><time>2026-04-05T17:04:34Z</time></trkpt><trkpt lat="44.92826839517979" lon="9.262709672865133"><ele>491.33333333333337</ele><time>2026-04-05T17:04:36Z</time></trkpt><trkpt lat="44.92831626228567" lon="9.262647683920267"><ele>490.6666666666667</ele><time>2026-04-05T17:04:37Z</time></trkpt><trkpt lat="44.928367794737646" lon="9.26256607558948"><ele>490.0</ele><time>2026-04-05T17:04:38Z</time></trkpt><trkpt lat="44.92841875795972" lon="9.262483930838444"><ele>488.4</ele><time>2026-04-05T17:04:39Z</time></trkpt><trkpt lat="44.92845908729429" lon="9.262412631191257"><ele>486.8</ele><time>2026-04-05T17:04:40Z</time></trkpt><trkpt lat="44.928544307102726" lon="9.26226026634041"><ele>485.20000000000005</ele><time>2026-04-05T17:04:42Z</time></trkpt><trkpt lat="44.928581590602306" lon="9.262169608792036"><ele>483.6</ele><time>2026-04-05T17:04:43Z</time></trkpt><trkpt lat="44.92861189208574" lon="9.262076464012015"><ele>482.0</ele><time>2026-04-05T17:04:44Z</time></trkpt><trkpt lat="44.92864163817005" lon="9.261907773123875"><ele>482.0</ele><time>2026-04-05T17:04:46Z</time></trkpt><trkpt lat="44.92868697196622" lon="9.26175228526519"><ele>482.00000000000006</ele><time>2026-04-05T17:04:48Z</time></trkpt><trkpt lat="44.928712650226515" lon="9.26166937470129"><ele>482.00000000000006</ele><time>2026-04-05T17:04:49Z</time></trkpt><trkpt lat="44.92879087684551" lon="9.261534177168906"><ele>482.0</ele><time>2026-04-05T17:04:51Z</time></trkpt><trkpt lat="44.92889164583273" lon="9.261403585975376"><ele>482.0</ele><time>2026-04-05T17:04:53Z</time></trkpt><trkpt lat="44.92896589102362" lon="9.261333079809567"><ele>483.6</ele><time>2026-04-05T17:04:54Z</time></trkpt><trkpt lat="44.92902925376394" lon="9.261255967603335"><ele>485.20000000000005</ele><time>2026-04-05T17:04:55Z</time></trkpt><trkpt lat="44.929100556581105" lon="9.26116132551578"><ele>486.8</ele><time>2026-04-05T17:04:56Z</time></trkpt><trkpt lat="44.92917028137761" lon="9.26106292938281"><ele>488.4</ele><time>2026-04-05T17:04:57Z</time></trkpt><trkpt lat="44.92924475565142" lon="9.260949160023669"><ele>490.0</ele><time>2026-04-05T17:04:58Z</time></trkpt><trkpt lat="44.92932688808077" lon="9.260817023360968"><ele>488.2</ele><time>2026-04-05T17:04:59Z</time></trkpt><trkpt lat="44.92938640463534" lon="9.260691910086246"><ele>486.4</ele><time>2026-04-05T17:05:00Z</time></trkpt><trkpt lat="44.929434448227255" lon="9.260552527736682"><ele>484.6</ele><time>2026-04-05T17:05:01Z</time></trkpt><trkpt lat="44.92948043729596" lon="9.260418732144833"><ele>482.8</ele><time>2026-04-05T17:05:02Z</time></trkpt><trkpt lat="44.92952446434673" lon="9.260288491050481"><ele>481.0</ele><time>2026-04-05T17:05:03Z</time></trkpt><trkpt lat="44.92956458031323" lon="9.260156339461933"><ele>481.0</ele><time>2026-04-05T17:05:04Z</time></trkpt><trkpt lat="44.92963933597419" lon="9.260061302124425"><ele>481.0</ele><time>2026-04-05T17:05:05Z</time></trkpt><trkpt lat="44.929699188501296" lon="9.259935852147587"><ele>481.0</ele><time>2026-04-05T17:05:06Z</time></trkpt><trkpt lat="44.929795216864456" lon="9.259836291817459"><ele>481.0</ele><time>2026-04-05T17:05:07Z</time></trkpt><trkpt lat="44.92987357020588" lon="9.259746572369783"><ele>481.0</ele><time>2026-04-05T17:05:08Z</time></trkpt><trkpt lat="44.92994518578027" lon="9.259676197721355"><ele>482.20000000000005</ele><time>2026-04-05T17:05:09Z</time></trkpt><trkpt lat="44.93001874023827" lon="9.259615740415626"><ele>483.40000000000003</ele><time>2026-04-05T17:05:10Z</time></trkpt><trkpt lat="44.93010362676531" lon="9.25955966718193"><ele>484.6</ele><time>2026-04-05T17:05:11Z</time></trkpt><trkpt lat="44.930203155016834" lon="9.259522672749084"><ele>485.8</ele><time>2026-04-05T17:05:12Z</time></trkpt><trkpt lat="44.93031590104158" lon="9.259499107293715"><ele>487.0</ele><time>2026-04-05T17:05:13Z</time></trkpt><trkpt lat="44.93042574803078" lon="9.259421868803702"><ele>487.0</ele><time>2026-04-05T17:05:14Z</time></trkpt><trkpt lat="44.93051941734788" lon="9.259380864871906"><ele>487.00000000000006</ele><time>2026-04-05T17:05:15Z</time></trkpt><trkpt lat="44.93060559061305" lon="9.259322649328636"><ele>487.00000000000006</ele><time>2026-04-05T17:05:16Z</time></trkpt><trkpt lat="44.93070347677352" lon="9.259244864235141"><ele>487.0</ele><time>2026-04-05T17:05:17Z</time></trkpt><trkpt lat="44.93077346106299" lon="9.259196576352085"><ele>487.0</ele><time>2026-04-05T17:05:18Z</time></trkpt><trkpt lat="44.930853689444135" lon="9.259129336615395"><ele>487.20000000000005</ele><time>2026-04-05T17:05:18.999Z</time></trkpt><trkpt lat="44.93093502521064" lon="9.259065939414874"><ele>487.40000000000003</ele><time>2026-04-05T17:05:19.999Z</time></trkpt><trkpt lat="44.93100912619656" lon="9.259001250413467"><ele>487.59999999999997</ele><time>2026-04-05T17:05:20.999Z</time></trkpt><trkpt lat="44.93108634650746" lon="9.258957317247969"><ele>487.79999999999995</ele><time>2026-04-05T17:05:21.999Z</time></trkpt><trkpt lat="44.931179541753465" lon="9.258935299621577"><ele>488.0</ele><time>2026-04-05T17:05:22.999Z</time></trkpt><trkpt lat="44.93128081928997" lon="9.258923380039372"><ele>488.0</ele><time>2026-04-05T17:05:23.999Z</time></trkpt><trkpt lat="44.931380467276156" lon="9.258926739229151"><ele>487.99999999999994</ele><time>2026-04-05T17:05:24.999Z</time></trkpt><trkpt lat="44.93148508730381" lon="9.258928716027182"><ele>487.99999999999994</ele><time>2026-04-05T17:05:25.999Z</time></trkpt><trkpt lat="44.9315839027085" lon="9.258931114439385"><ele>488.0</ele><time>2026-04-05T17:05:26.999Z</time></trkpt><trkpt lat="44.931681895238704" lon="9.258934155391648"><ele>488.0</ele><time>2026-04-05T17:05:27.999Z</time></trkpt><trkpt lat="44.931779197905676" lon="9.258932912959926"><ele>487.99999999999994</ele><time>2026-04-05T17:05:28.999Z</time></trkpt><trkpt lat="44.9318640501924" lon="9.258936957142556"><ele>488.0</ele><time>2026-04-05T17:05:29.999Z</time></trkpt><trkpt lat="44.931947968462225" lon="9.258931265806458"><ele>488.0</ele><time>2026-04-05T17:05:30.999Z</time></trkpt><trkpt lat="44.932035535536514" lon="9.25893842617606"><ele>488.0</ele><time>2026-04-05T17:05:31.999Z</time></trkpt><trkpt lat="44.93212657561141" lon="9.258923081742097"><ele>487.99999999999994</ele><time>2026-04-05T17:05:32.999Z</time></trkpt><trkpt lat="44.93222103364315" lon="9.258901239557192"><ele>488.0</ele><time>2026-04-05T17:05:33.999Z</time></trkpt><trkpt lat="44.93232194582844" lon="9.2588545538235"><ele>488.0</ele><time>2026-04-05T17:05:34.999Z</time></trkpt><trkpt lat="44.932437202448604" lon="9.258785280990345"><ele>488.0</ele><time>2026-04-05T17:05:35.999Z</time></trkpt><trkpt lat="44.93255004477321" lon="9.258712809322676"><ele>488.0</ele><time>2026-04-05T17:05:36.999Z</time></trkpt><trkpt lat="44.932656227486206" lon="9.258644067895357"><ele>488.0</ele><time>2026-04-05T17:05:37.999Z</time></trkpt><trkpt lat="44.93276038812748" lon="9.258579986842797"><ele>487.2</ele><time>2026-04-05T17:05:38.999Z</time></trkpt><trkpt lat="44.93285952529409" lon="9.258519208419724"><ele>486.4</ele><time>2026-04-05T17:05:39.999Z</time></trkpt><trkpt lat="44.93295894772233" lon="9.258461152484626"><ele>485.59999999999997</ele><time>2026-04-05T17:05:40.999Z</time></trkpt><trkpt lat="44.93305947842502" lon="9.258392810795204"><ele>484.79999999999995</ele><time>2026-04-05T17:05:41.999Z</time></trkpt><trkpt lat="44.93315915797967" lon="9.258327225703784"><ele>484.0</ele><time>2026-04-05T17:05:42.999Z</time></trkpt><trkpt lat="44.93324870504404" lon="9.258269069523914"><ele>484.0</ele><time>2026-04-05T17:05:43.999Z</time></trkpt><trkpt lat="44.93333628246737" lon="9.25821520061068"><ele>484.0</ele><time>2026-04-05T17:05:44.999Z</time></trkpt><trkpt lat="44.933423968513615" lon="9.258158843201404"><ele>484.0</ele><time>2026-04-05T17:05:45.999Z</time></trkpt><trkpt lat="44.93351705305614" lon="9.258103445221659"><ele>484.0</ele><time>2026-04-05T17:05:46.999Z</time></trkpt><trkpt lat="44.933612099896116" lon="9.258044788041593"><ele>484.0</ele><time>2026-04-05T17:05:47.999Z</time></trkpt><trkpt lat="44.93371062740573" lon="9.257982460947984"><ele>484.0</ele><time>2026-04-05T17:05:48.999Z</time></trkpt><trkpt lat="44.93381642886892" lon="9.257913826778152"><ele>484.0</ele><time>2026-04-05T17:05:49.999Z</time></trkpt><trkpt lat="44.93392745622202" lon="9.257833125326432"><ele>484.0</ele><time>2026-04-05T17:05:50.999Z</time></trkpt><trkpt lat="44.93403765599366" lon="9.257743458958135"><ele>484.0</ele><time>2026-04-05T17:05:51.999Z</time></trkpt><trkpt lat="44.93414087848587" lon="9.257649296331165"><ele>482.79999999999995</ele><time>2026-04-05T17:05:52.999Z</time></trkpt><trkpt lat="44.934240062246566" lon="9.257555850193869"><ele>481.59999999999997</ele><time>2026-04-05T17:05:53.999Z</time></trkpt><trkpt lat="44.93433863958458" lon="9.257471759948702"><ele>480.4</ele><time>2026-04-05T17:05:54.999Z</time></trkpt><trkpt lat="44.934428614699875" lon="9.257391953263648"><ele>479.2</ele><time>2026-04-05T17:05:55.999Z</time></trkpt><trkpt lat="44.93451456725606" lon="9.257313585787363"><ele>478.0</ele><time>2026-04-05T17:05:56.999Z</time></trkpt><trkpt lat="44.934592581908575" lon="9.257239189127802"><ele>478.00000000000006</ele><time>2026-04-05T17:05:57.999Z</time></trkpt><trkpt lat="44.9346632239811" lon="9.257174775610507"><ele>478.0</ele><time>2026-04-05T17:05:58.999Z</time></trkpt><trkpt lat="44.93472661302677" lon="9.257114262094925"><ele>478.0</ele><time>2026-04-05T17:05:59.999Z</time></trkpt><trkpt lat="44.93478845624577" lon="9.257053488096734"><ele>478.0</ele><time>2026-04-05T17:06:00.999Z</time></trkpt><trkpt lat="44.93483417811611" lon="9.256961454490098"><ele>478.00000000000006</ele><time>2026-04-05T17:06:01.999Z</time></trkpt><trkpt lat="44.93487020553881" lon="9.256862949349822"><ele>478.0</ele><time>2026-04-05T17:06:02.999Z</time></trkpt><trkpt lat="44.93489748223707" lon="9.256755090602816"><ele>478.00000000000006</ele><time>2026-04-05T17:06:03.999Z</time></trkpt><trkpt lat="44.93491755489311" lon="9.256647785988593"><ele>478.0</ele><time>2026-04-05T17:06:04.999Z</time></trkpt><trkpt lat="44.93493892640605" lon="9.256539469112926"><ele>478.0</ele><time>2026-04-05T17:06:05.999Z</time></trkpt><trkpt lat="44.934967212585796" lon="9.256433698226958"><ele>478.0</ele><time>2026-04-05T17:06:06.999Z</time></trkpt><trkpt lat="44.935015932981926" lon="9.256347544067358"><ele>478.00000000000006</ele><time>2026-04-05T17:06:07.999Z</time></trkpt><trkpt lat="44.93507782798697" lon="9.256266432686848"><ele>478.0</ele><time>2026-04-05T17:06:08.999Z</time></trkpt><trkpt lat="44.93514940334541" lon="9.256211432460537"><ele>478.33333333333337</ele><time>2026-04-05T17:06:09.999Z</time></trkpt><trkpt lat="44.93523927541336" lon="9.256167478202295"><ele>478.6666666666667</ele><time>2026-04-05T17:06:10.999Z</time></trkpt><trkpt lat="44.93533715092415" lon="9.25615180556424"><ele>479.0</ele><time>2026-04-05T17:06:11.999Z</time></trkpt><trkpt lat="44.93542057097575" lon="9.256129581681513"><ele>479.33333333333337</ele><time>2026-04-05T17:06:12.999Z</time></trkpt><trkpt lat="44.935500746805204" lon="9.256143310370776"><ele>479.6666666666667</ele><time>2026-04-05T17:06:13.999Z</time></trkpt><trkpt lat="44.93558711600594" lon="9.256150181496254"><ele>480.0</ele><time>2026-04-05T17:06:14.999Z</time></trkpt><trkpt lat="44.935669626385305" lon="9.256149135979186"><ele>480.0</ele><time>2026-04-05T17:06:15.999Z</time></trkpt><trkpt lat="44.93575284544696" lon="9.256150290699024"><ele>480.0</ele><time>2026-04-05T17:06:16.999Z</time></trkpt><trkpt lat="44.93583479603967" lon="9.256154152644282"><ele>480.0</ele><time>2026-04-05T17:06:17.999Z</time></trkpt><trkpt lat="44.93591952441268" lon="9.256141295609684"><ele>480.0</ele><time>2026-04-05T17:06:18.999Z</time></trkpt><trkpt lat="44.936005559605796" lon="9.256112293135295"><ele>480.0</ele><time>2026-04-05T17:06:19.999Z</time></trkpt><trkpt lat="44.93607946555328" lon="9.256063537248064"><ele>480.0</ele><time>2026-04-05T17:06:20.999Z</time></trkpt><trkpt lat="44.93614226944604" lon="9.25600273283498"><ele>479.8</ele><time>2026-04-05T17:06:22Z</time></trkpt><trkpt lat="44.93619725361641" lon="9.25595157473481"><ele>479.6</ele><time>2026-04-05T17:06:23Z</time></trkpt><trkpt lat="44.93631857132558" lon="9.255919227054132"><ele>479.4</ele><time>2026-04-05T17:06:25Z</time></trkpt><trkpt lat="44.93643728437313" lon="9.256009472158995"><ele>479.2</ele><time>2026-04-05T17:06:27Z</time></trkpt><trkpt lat="44.936501939416544" lon="9.256089646216683"><ele>479.0</ele><time>2026-04-05T17:06:28Z</time></trkpt><trkpt lat="44.936576432912986" lon="9.256175327376713"><ele>479.0</ele><time>2026-04-05T17:06:29Z</time></trkpt><trkpt lat="44.93664447628142" lon="9.256251354676895"><ele>479.0</ele><time>2026-04-05T17:06:30Z</time></trkpt><trkpt lat="44.936707393652654" lon="9.256316974962564"><ele>479.0</ele><time>2026-04-05T17:06:31Z</time></trkpt><trkpt lat="44.93681398066575" lon="9.256425003571819"><ele>479.0</ele><time>2026-04-05T17:06:33Z</time></trkpt><trkpt lat="44.93688707853194" lon="9.256450327054278"><ele>479.0</ele><time>2026-04-05T17:06:34Z</time></trkpt><trkpt lat="44.93697816895493" lon="9.256455544909942"><ele>477.49999999999994</ele><time>2026-04-05T17:06:35Z</time></trkpt><trkpt lat="44.937069893826624" lon="9.256438049531798"><ele>476.0</ele><time>2026-04-05T17:06:36Z</time></trkpt><trkpt lat="44.93714765513619" lon="9.256408883061775"><ele>474.5</ele><time>2026-04-05T17:06:37Z</time></trkpt><trkpt lat="44.93722205703124" lon="9.256380842133932"><ele>473.0</ele><time>2026-04-05T17:06:38Z</time></trkpt><trkpt lat="44.93729699175608" lon="9.25634427784355"><ele>471.49999999999994</ele><time>2026-04-05T17:06:39Z</time></trkpt><trkpt lat="44.93736983543869" lon="9.25629569978496"><ele>470.0</ele><time>2026-04-05T17:06:40Z</time></trkpt><trkpt lat="44.93743936308092" lon="9.25623013454407"><ele>469.99999999999994</ele><time>2026-04-05T17:06:41Z</time></trkpt><trkpt lat="44.93749325967588" lon="9.256136296846485"><ele>470.0</ele><time>2026-04-05T17:06:42Z</time></trkpt><trkpt lat="44.93754112791206" lon="9.256035530945784"><ele>470.0</ele><time>2026-04-05T17:06:43Z</time></trkpt><trkpt lat="44.93757984937206" lon="9.255941864212524"><ele>470.0</ele><time>2026-04-05T17:06:44Z</time></trkpt><trkpt lat="44.93761037534306" lon="9.255847636116005"><ele>469.99999999999994</ele><time>2026-04-05T17:06:45Z</time></trkpt><trkpt lat="44.93763513106399" lon="9.255748725167251"><ele>470.0</ele><time>2026-04-05T17:06:46Z</time></trkpt><trkpt lat="44.93766300918249" lon="9.25565080627959"><ele>469.3333333333333</ele><time>2026-04-05T17:06:47Z</time></trkpt><trkpt lat="44.937690594529656" lon="9.255553346337221"><ele>468.66666666666663</ele><time>2026-04-05T17:06:48Z</time></trkpt><trkpt lat="44.93771680540253" lon="9.255442839528744"><ele>468.0</ele><time>2026-04-05T17:06:49Z</time></trkpt><trkpt lat="44.93774500184114" lon="9.255343090742823"><ele>467.33333333333337</ele><time>2026-04-05T17:06:50Z</time></trkpt><trkpt lat="44.93777245128684" lon="9.255250829076441"><ele>466.6666666666667</ele><time>2026-04-05T17:06:51Z</time></trkpt><trkpt lat="44.937801297597716" lon="9.255158120646223"><ele>466.0</ele><time>2026-04-05T17:06:52Z</time></trkpt><trkpt lat="44.937880286343436" lon="9.255031935147564"><ele>466.00000000000006</ele><time>2026-04-05T17:06:54Z</time></trkpt><trkpt lat="44.93797476431769" lon="9.254924298787923"><ele>466.0</ele><time>2026-04-05T17:06:56Z</time></trkpt><trkpt lat="44.93804318470839" lon="9.254889541298693"><ele>466.0</ele><time>2026-04-05T17:06:57Z</time></trkpt><trkpt lat="44.93811620167778" lon="9.254888997638174"><ele>466.0</ele><time>2026-04-05T17:06:58Z</time></trkpt><trkpt lat="44.93819601112419" lon="9.25490620432841"><ele>466.00000000000006</ele><time>2026-04-05T17:06:59Z</time></trkpt><trkpt lat="44.938267414020956" lon="9.254937798324514"><ele>466.0</ele><time>2026-04-05T17:07:00Z</time></trkpt><trkpt lat="44.93834207116353" lon="9.254980711767708"><ele>464.33333333333337</ele><time>2026-04-05T17:07:01Z</time></trkpt><trkpt lat="44.9384124860776" lon="9.255026872779887"><ele>462.6666666666667</ele><time>2026-04-05T17:07:02Z</time></trkpt><trkpt lat="44.93848532011296" lon="9.255055926491853"><ele>461.0</ele><time>2026-04-05T17:07:03Z</time></trkpt><trkpt lat="44.938558660671426" lon="9.255088989402049"><ele>459.33333333333337</ele><time>2026-04-05T17:07:04Z</time></trkpt><trkpt lat="44.9386390276092" lon="9.25506883016762"><ele>457.6666666666667</ele><time>2026-04-05T17:07:05Z</time></trkpt><trkpt lat="44.93872104530909" lon="9.255017574155517"><ele>456.0</ele><time>2026-04-05T17:07:06Z</time></trkpt><trkpt lat="44.93880203273167" lon="9.254926405446986"><ele>456.0</ele><time>2026-04-05T17:07:07Z</time></trkpt><trkpt lat="44.93886227735785" lon="9.254834410827259"><ele>456.0</ele><time>2026-04-05T17:07:08Z</time></trkpt><trkpt lat="44.93894195950943" lon="9.254789475310666"><ele>456.0</ele><time>2026-04-05T17:07:09Z</time></trkpt><trkpt lat="44.93901046462999" lon="9.254741669746979"><ele>456.0</ele><time>2026-04-05T17:07:10Z</time></trkpt><trkpt lat="44.93906956517554" lon="9.254694860988952"><ele>456.0</ele><time>2026-04-05T17:07:11Z</time></trkpt><trkpt lat="44.939142752757085" lon="9.254628199217807"><ele>456.0</ele><time>2026-04-05T17:07:12Z</time></trkpt><trkpt lat="44.93922572564973" lon="9.254566223121175"><ele>456.3333333333333</ele><time>2026-04-05T17:07:13Z</time></trkpt><trkpt lat="44.93931193582184" lon="9.254520094015627"><ele>456.66666666666663</ele><time>2026-04-05T17:07:14Z</time></trkpt><trkpt lat="44.93938572118844" lon="9.254459969743563"><ele>457.0</ele><time>2026-04-05T17:07:15Z</time></trkpt><trkpt lat="44.93945053822968" lon="9.25438944303225"><ele>457.3333333333333</ele><time>2026-04-05T17:07:16Z</time></trkpt><trkpt lat="44.93952062150576" lon="9.254327993784084"><ele>457.66666666666663</ele><time>2026-04-05T17:07:17Z</time></trkpt><trkpt lat="44.939571434305435" lon="9.254248357273445"><ele>458.0</ele><time>2026-04-05T17:07:18Z</time></trkpt><trkpt lat="44.93962365735876" lon="9.254168866620558"><ele>458.0</ele><time>2026-04-05T17:07:19Z</time></trkpt><trkpt lat="44.93968447938707" lon="9.254100011041247"><ele>457.99999999999994</ele><time>2026-04-05T17:07:20Z</time></trkpt><trkpt lat="44.93976673792471" lon="9.254048116399275"><ele>457.99999999999994</ele><time>2026-04-05T17:07:21Z</time></trkpt><trkpt lat="44.93987717632735" lon="9.254009414583837"><ele>458.0</ele><time>2026-04-05T17:07:22Z</time></trkpt><trkpt lat="44.939981775529226" lon="9.253973103304192"><ele>458.0</ele><time>2026-04-05T17:07:22.999Z</time></trkpt><trkpt lat="44.940080602882055" lon="9.253937546811697"><ele>458.16666666666663</ele><time>2026-04-05T17:07:23.999Z</time></trkpt><trkpt lat="44.94017450723028" lon="9.253914940938557"><ele>458.3333333333333</ele><time>2026-04-05T17:07:24.999Z</time></trkpt><trkpt lat="44.94026070395543" lon="9.253873683875346"><ele>458.5</ele><time>2026-04-05T17:07:25.999Z</time></trkpt><trkpt lat="44.94033701252186" lon="9.253836166577"><ele>458.66666666666663</ele><time>2026-04-05T17:07:26.999Z</time></trkpt><trkpt lat="44.94041433494138" lon="9.253802863486033"><ele>458.8333333333333</ele><time>2026-04-05T17:07:27.999Z</time></trkpt><trkpt lat="44.94049692103886" lon="9.253767831384145"><ele>459.0</ele><time>2026-04-05T17:07:28.999Z</time></trkpt><trkpt lat="44.940571902938956" lon="9.253737573076164"><ele>459.0</ele><time>2026-04-05T17:07:29.999Z</time></trkpt><trkpt lat="44.940643639086865" lon="9.2537249157644"><ele>459.0</ele><time>2026-04-05T17:07:30.999Z</time></trkpt><trkpt lat="44.940726933019846" lon="9.253705787629157"><ele>459.0</ele><time>2026-04-05T17:07:31.999Z</time></trkpt><trkpt lat="44.94080287631392" lon="9.253703070344608"><ele>459.0</ele><time>2026-04-05T17:07:32.999Z</time></trkpt><trkpt lat="44.94087119129593" lon="9.253700139928796"><ele>459.0</ele><time>2026-04-05T17:07:33.999Z</time></trkpt><trkpt lat="44.94096409369797" lon="9.253676507543267"><ele>459.0</ele><time>2026-04-05T17:07:35.999Z</time></trkpt><trkpt lat="44.941085456632436" lon="9.253646706232184"><ele>457.57142857142856</ele><time>2026-04-05T17:11:57.999Z</time></trkpt><trkpt lat="44.941148266240816" lon="9.25367124982473"><ele>456.1428571428571</ele><time>2026-04-05T17:12:02.999Z</time></trkpt><trkpt lat="44.94122442032027" lon="9.253662572163076"><ele>454.71428571428567</ele><time>2026-04-05T17:12:15.999Z</time></trkpt><trkpt lat="44.94128971204758" lon="9.253626972961282"><ele>453.2857142857143</ele><time>2026-04-05T17:12:25.999Z</time></trkpt><trkpt lat="44.94122626780415" lon="9.25364750168814"><ele>451.8571428571428</ele><time>2026-04-05T17:13:38Z</time></trkpt><trkpt lat="44.94115742535308" lon="9.253656917390789"><ele>450.4285714285714</ele><time>2026-04-05T17:14:03.999Z</time></trkpt><trkpt lat="44.941090127940384" lon="9.253630004063643"><ele>449.0</ele><time>2026-04-05T17:14:18.999Z</time></trkpt><trkpt lat="44.94102707474332" lon="9.253591745731718"><ele>449.0</ele><time>2026-04-05T17:14:24.999Z</time></trkpt><trkpt lat="44.94116733721082" lon="9.2533543395557"><ele>449.0</ele><time>2026-04-05T17:18:39.999Z</time></trkpt><trkpt lat="44.941242708563" lon="9.253306950614052"><ele>449.0</ele><time>2026-04-05T17:18:40.999Z</time></trkpt><trkpt lat="44.94131712401892" lon="9.253279943061573"><ele>449.0</ele><time>2026-04-05T17:18:41.999Z</time></trkpt><trkpt lat="44.94138944190452" lon="9.253293612934335"><ele>449.0</ele><time>2026-04-05T17:18:42.999Z</time></trkpt><trkpt lat="44.9414886517767" lon="9.253189322345927"><ele>449.0</ele><time>2026-04-05T17:18:44.999Z</time></trkpt><trkpt lat="44.94156507174386" lon="9.253100738389126"><ele>449.0</ele><time>2026-04-05T17:18:46.999Z</time></trkpt><trkpt lat="44.94156700765813" lon="9.25298493292827"><ele>449.0</ele><time>2026-04-05T17:18:48.999Z</time></trkpt><trkpt lat="44.941544074478664" lon="9.252750848707892"><ele>448.6</ele><time>2026-04-05T17:19:09Z</time></trkpt><trkpt lat="44.941535445142165" lon="9.25262193794592"><ele>448.2</ele><time>2026-04-05T17:19:10Z</time></trkpt><trkpt lat="44.94151659058176" lon="9.252500225568097"><ele>447.80000000000007</ele><time>2026-04-05T17:19:11Z</time></trkpt><trkpt lat="44.94150866956812" lon="9.252411532975037"><ele>447.40000000000003</ele><time>2026-04-05T17:19:12Z</time></trkpt><trkpt lat="44.94154148865052" lon="9.252256043639763"><ele>447.0</ele><time>2026-04-05T17:19:14Z</time></trkpt><trkpt lat="44.94165068468864" lon="9.25224606015308"><ele>447.0</ele><time>2026-04-05T17:19:16Z</time></trkpt><trkpt lat="44.94168666080895" lon="9.252420159378904"><ele>447.00000000000006</ele><time>2026-04-05T17:19:18Z</time></trkpt><trkpt lat="44.94169945553738" lon="9.252566081808414"><ele>447.00000000000006</ele><time>2026-04-05T17:19:19Z</time></trkpt><trkpt lat="44.94171077148564" lon="9.252705100148775"><ele>447.0</ele><time>2026-04-05T17:19:20Z</time></trkpt><trkpt lat="44.94173206254461" lon="9.252833076613037"><ele>447.0</ele><time>2026-04-05T17:19:21Z</time></trkpt><trkpt lat="44.941771955060915" lon="9.252960940284563"><ele>442.5</ele><time>2026-04-05T17:19:22Z</time></trkpt><trkpt lat="44.94182066737758" lon="9.253085103731511"><ele>438.0</ele><time>2026-04-05T17:19:23Z</time></trkpt><trkpt lat="44.941880314323605" lon="9.253227814011556"><ele>433.5</ele><time>2026-04-05T17:19:24Z</time></trkpt><trkpt lat="44.94194309559783" lon="9.253375125050427"><ele>429.0</ele><time>2026-04-05T17:19:25Z</time></trkpt><trkpt lat="44.94199908968048" lon="9.253512796985552"><ele>428.79999999999995</ele><time>2026-04-05T17:19:26Z</time></trkpt><trkpt lat="44.94204722659647" lon="9.253652872418092"><ele>428.59999999999997</ele><time>2026-04-05T17:19:27Z</time></trkpt><trkpt lat="44.94208294178077" lon="9.253787263937145"><ele>428.4</ele><time>2026-04-05T17:19:28Z</time></trkpt><trkpt lat="44.94210711464397" lon="9.253920716811761"><ele>428.2</ele><time>2026-04-05T17:19:29Z</time></trkpt><trkpt lat="44.94212994080993" lon="9.254062161512476"><ele>428.0</ele><time>2026-04-05T17:19:30Z</time></trkpt><trkpt lat="44.94214051428603" lon="9.254204055363397"><ele>427.99999999999994</ele><time>2026-04-05T17:19:31Z</time></trkpt><trkpt lat="44.94214791919688" lon="9.254318721675766"><ele>428.0</ele><time>2026-04-05T17:19:32Z</time></trkpt><trkpt lat="44.94213011610875" lon="9.254426637984965"><ele>428.0</ele><time>2026-04-05T17:19:33Z</time></trkpt><trkpt lat="44.942087213017" lon="9.254520977778686"><ele>428.0</ele><time>2026-04-05T17:19:34Z</time></trkpt><trkpt lat="44.94202184941957" lon="9.254610217444899"><ele>427.99999999999994</ele><time>2026-04-05T17:19:35Z</time></trkpt><trkpt lat="44.9419612251346" lon="9.254708298677336"><ele>428.0</ele><time>2026-04-05T17:19:36Z</time></trkpt><trkpt lat="44.94190656927047" lon="9.25480032242993"><ele>427.4</ele><time>2026-04-05T17:19:37Z</time></trkpt><trkpt lat="44.941845424264216" lon="9.254879076106786"><ele>426.79999999999995</ele><time>2026-04-05T17:19:38Z</time></trkpt><trkpt lat="44.94180081286589" lon="9.254954475562762"><ele>426.2</ele><time>2026-04-05T17:19:39Z</time></trkpt><trkpt lat="44.94177377613442" lon="9.255113800103683"><ele>425.6</ele><time>2026-04-05T17:19:41Z</time></trkpt><trkpt lat="44.941795509562084" lon="9.255199072823284"><ele>425.0</ele><time>2026-04-05T17:19:42Z</time></trkpt><trkpt lat="44.941882957766175" lon="9.255325243514635"><ele>424.99999999999994</ele><time>2026-04-05T17:19:44Z</time></trkpt><trkpt lat="44.94195665886973" lon="9.25531729018455"><ele>425.0</ele><time>2026-04-05T17:19:45Z</time></trkpt><trkpt lat="44.942044877093764" lon="9.255335253563604"><ele>425.0</ele><time>2026-04-05T17:19:46Z</time></trkpt><trkpt lat="44.942125972072056" lon="9.255328974378566"><ele>425.0</ele><time>2026-04-05T17:19:47Z</time></trkpt><trkpt lat="44.94220002780516" lon="9.255294976109905"><ele>424.99999999999994</ele><time>2026-04-05T17:19:48Z</time></trkpt><trkpt lat="44.94229022505271" lon="9.255298290245255"><ele>425.0</ele><time>2026-04-05T17:19:49Z</time></trkpt><trkpt lat="44.942379298047705" lon="9.255271627371787"><ele>424.99999999999994</ele><time>2026-04-05T17:19:50Z</time></trkpt><trkpt lat="44.942468621549274" lon="9.25522682396889"><ele>425.0</ele><time>2026-04-05T17:19:51Z</time></trkpt><trkpt lat="44.94253586603775" lon="9.255145723410104"><ele>425.0</ele><time>2026-04-05T17:19:52Z</time></trkpt><trkpt lat="44.94259960595899" lon="9.255090277506158"><ele>425.0</ele><time>2026-04-05T17:19:53Z</time></trkpt><trkpt lat="44.94265880873082" lon="9.255028645020762"><ele>424.99999999999994</ele><time>2026-04-05T17:19:54Z</time></trkpt><trkpt lat="44.942724514150356" lon="9.254975052779898"><ele>425.0</ele><time>2026-04-05T17:19:55Z</time></trkpt><trkpt lat="44.94276829129235" lon="9.254894557300213"><ele>423.16666666666663</ele><time>2026-04-05T17:19:56Z</time></trkpt><trkpt lat="44.94279860916941" lon="9.25479550520654"><ele>421.3333333333333</ele><time>2026-04-05T17:19:57Z</time></trkpt><trkpt lat="44.94280910398293" lon="9.25467557439566"><ele>419.5</ele><time>2026-04-05T17:19:58Z</time></trkpt><trkpt lat="44.94279574142254" lon="9.254553382799562"><ele>417.66666666666663</ele><time>2026-04-05T17:19:59Z</time></trkpt><trkpt lat="44.94279403440203" lon="9.254430599954336"><ele>415.8333333333333</ele><time>2026-04-05T17:20:00Z</time></trkpt><trkpt lat="44.942788996673634" lon="9.254308444872315"><ele>414.0</ele><time>2026-04-05T17:20:01Z</time></trkpt><trkpt lat="44.94278639476439" lon="9.25419962917652"><ele>413.5</ele><time>2026-04-05T17:20:02Z</time></trkpt><trkpt lat="44.94282876877103" lon="9.254042001533136"><ele>413.0</ele><time>2026-04-05T17:20:04Z</time></trkpt><trkpt lat="44.94288243981959" lon="9.253993784385466"><ele>412.5</ele><time>2026-04-05T17:20:05Z</time></trkpt><trkpt lat="44.94299589996836" lon="9.25402122096145"><ele>412.0</ele><time>2026-04-05T17:20:07Z</time></trkpt><trkpt lat="44.943042215633916" lon="9.254091073183325"><ele>411.5</ele><time>2026-04-05T17:20:07.999Z</time></trkpt><trkpt lat="44.94307648454344" lon="9.254196813864437"><ele>411.0</ele><time>2026-04-05T17:20:08.999Z</time></trkpt><trkpt lat="44.94310653931165" lon="9.254311275556798"><ele>411.0</ele><time>2026-04-05T17:20:09.999Z</time></trkpt><trkpt lat="44.943131860800854" lon="9.254443749519634"><ele>411.0</ele><time>2026-04-05T17:20:10.999Z</time></trkpt><trkpt lat="44.943159503273904" lon="9.254586921991931"><ele>411.0</ele><time>2026-04-05T17:20:11.999Z</time></trkpt><trkpt lat="44.943206761741045" lon="9.25472821372773"><ele>411.0</ele><time>2026-04-05T17:20:12.999Z</time></trkpt><trkpt lat="44.943266399358485" lon="9.254851496213755"><ele>411.0</ele><time>2026-04-05T17:20:13.999Z</time></trkpt><trkpt lat="44.94333467385284" lon="9.25497340719871"><ele>409.6</ele><time>2026-04-05T17:20:14.999Z</time></trkpt><trkpt lat="44.94339684829465" lon="9.255077599582243"><ele>408.20000000000005</ele><time>2026-04-05T17:20:15.999Z</time></trkpt><trkpt lat="44.94344721290531" lon="9.255186755105711"><ele>406.79999999999995</ele><time>2026-04-05T17:20:16.999Z</time></trkpt><trkpt lat="44.94347706457891" lon="9.255310615039223"><ele>405.4</ele><time>2026-04-05T17:20:17.999Z</time></trkpt><trkpt lat="44.943494090377236" lon="9.255449006205241"><ele>404.0</ele><time>2026-04-05T17:20:18.999Z</time></trkpt><trkpt lat="44.94350840864682" lon="9.255577622130925"><ele>404.79999999999995</ele><time>2026-04-05T17:20:19.999Z</time></trkpt><trkpt lat="44.943533816032634" lon="9.255692853236061"><ele>405.59999999999997</ele><time>2026-04-05T17:20:20.999Z</time></trkpt><trkpt lat="44.94357038457911" lon="9.255795096256467"><ele>406.4</ele><time>2026-04-05T17:20:21.999Z</time></trkpt><trkpt lat="44.94366518648059" lon="9.255904923452205"><ele>407.2</ele><time>2026-04-05T17:20:23.999Z</time></trkpt><trkpt lat="44.943789961214094" lon="9.25593382575764"><ele>408.0</ele><time>2026-04-05T17:20:25.999Z</time></trkpt><trkpt lat="44.9438630829887" lon="9.255887411031793"><ele>408.0</ele><time>2026-04-05T17:20:26.999Z</time></trkpt><trkpt lat="44.943909415539466" lon="9.255758265231213"><ele>408.0</ele><time>2026-04-05T17:20:27.999Z</time></trkpt><trkpt lat="44.94393818773541" lon="9.25562801387545"><ele>408.0</ele><time>2026-04-05T17:20:28.999Z</time></trkpt><trkpt lat="44.94397529346008" lon="9.25547106823862"><ele>408.0</ele><time>2026-04-05T17:20:29.999Z</time></trkpt><trkpt lat="44.94402122085893" lon="9.255313163559864"><ele>408.0</ele><time>2026-04-05T17:20:30.999Z</time></trkpt><trkpt lat="44.94407046654512" lon="9.25515802676326"><ele>407.2</ele><time>2026-04-05T17:20:31.999Z</time></trkpt><trkpt lat="44.94410926243632" lon="9.25500768930426"><ele>406.4</ele><time>2026-04-05T17:20:32.999Z</time></trkpt><trkpt lat="44.94418098183854" lon="9.254888395334342"><ele>405.59999999999997</ele><time>2026-04-05T17:20:33.999Z</time></trkpt><trkpt lat="44.94422769259672" lon="9.254751530284079"><ele>404.79999999999995</ele><time>2026-04-05T17:20:34.999Z</time></trkpt><trkpt lat="44.94428114687447" lon="9.254654204800419"><ele>404.0</ele><time>2026-04-05T17:20:35.999Z</time></trkpt><trkpt lat="44.94434316027179" lon="9.254584189405923"><ele>401.2</ele><time>2026-04-05T17:20:36.999Z</time></trkpt><trkpt lat="44.94441615936352" lon="9.254526774048351"><ele>398.4</ele><time>2026-04-05T17:20:37.999Z</time></trkpt><trkpt lat="44.94450344713058" lon="9.254498245512377"><ele>395.6</ele><time>2026-04-05T17:20:38.999Z</time></trkpt><trkpt lat="44.94459281724611" lon="9.254477461486845"><ele>392.8</ele><time>2026-04-05T17:20:39.999Z</time></trkpt><trkpt lat="44.94468677650247" lon="9.254468733565284"><ele>390.0</ele><time>2026-04-05T17:20:40.999Z</time></trkpt><trkpt lat="44.94478775488752" lon="9.254481524186007"><ele>390.0</ele><time>2026-04-05T17:20:41.999Z</time></trkpt><trkpt lat="44.94487779456506" lon="9.254483210802775"><ele>390.0</ele><time>2026-04-05T17:20:42.999Z</time></trkpt><trkpt lat="44.94495997754646" lon="9.254494486116636"><ele>390.0</ele><time>2026-04-05T17:20:43.999Z</time></trkpt><trkpt lat="44.9450381342643" lon="9.254497072016115"><ele>390.0</ele><time>2026-04-05T17:20:44.999Z</time></trkpt><trkpt lat="44.94510408583796" lon="9.254552313660689"><ele>390.0</ele><time>2026-04-05T17:20:45.999Z</time></trkpt><trkpt lat="44.9451736789558" lon="9.254625313066605"><ele>390.0</ele><time>2026-04-05T17:20:46.999Z</time></trkpt><trkpt lat="44.9452394086864" lon="9.254739763852495"><ele>388.8</ele><time>2026-04-05T17:20:47.999Z</time></trkpt><trkpt lat="44.94529602246264" lon="9.254855871742013"><ele>387.6</ele><time>2026-04-05T17:20:48.999Z</time></trkpt><trkpt lat="44.94535919450358" lon="9.2549512783175"><ele>386.4</ele><time>2026-04-05T17:20:49.999Z</time></trkpt><trkpt lat="44.94543862325814" lon="9.255041508661533"><ele>385.2</ele><time>2026-04-05T17:20:50.999Z</time></trkpt><trkpt lat="44.94552061396137" lon="9.255101231488563"><ele>384.0</ele><time>2026-04-05T17:20:51.999Z</time></trkpt><trkpt lat="44.94560479678919" lon="9.255152088942225"><ele>384.0</ele><time>2026-04-05T17:20:52.999Z</time></trkpt><trkpt lat="44.945688735237205" lon="9.255218759225292"><ele>384.0</ele><time>2026-04-05T17:20:53.999Z</time></trkpt><trkpt lat="44.94578118601925" lon="9.255267178582223"><ele>384.0</ele><time>2026-04-05T17:20:54.999Z</time></trkpt><trkpt lat="44.945869940087405" lon="9.255319061570919"><ele>384.0</ele><time>2026-04-05T17:20:55.999Z</time></trkpt><trkpt lat="44.945964847169755" lon="9.255388552207995"><ele>384.0</ele><time>2026-04-05T17:20:56.999Z</time></trkpt><trkpt lat="44.946060068231205" lon="9.255478703500913"><ele>382.0</ele><time>2026-04-05T17:20:57.999Z</time></trkpt><trkpt lat="44.94614144415003" lon="9.255562071653861"><ele>380.0</ele><time>2026-04-05T17:20:58.999Z</time></trkpt><trkpt lat="44.94621113548195" lon="9.255651451819856"><ele>378.0</ele><time>2026-04-05T17:20:59.999Z</time></trkpt><trkpt lat="44.94627019777343" lon="9.255741204021799"><ele>376.0</ele><time>2026-04-05T17:21:00.999Z</time></trkpt><trkpt lat="44.946317872388526" lon="9.255840199839966"><ele>374.0</ele><time>2026-04-05T17:21:01.999Z</time></trkpt><trkpt lat="44.946360012744854" lon="9.2559629457592"><ele>374.0</ele><time>2026-04-05T17:21:02.999Z</time></trkpt><trkpt lat="44.94638123963279" lon="9.256091215591544"><ele>374.0</ele><time>2026-04-05T17:21:04Z</time></trkpt><trkpt lat="44.94639118865886" lon="9.256232551631895"><ele>374.0</ele><time>2026-04-05T17:21:05Z</time></trkpt><trkpt lat="44.94639880149854" lon="9.256413891543664"><ele>374.0</ele><time>2026-04-05T17:21:06Z</time></trkpt><trkpt lat="44.94640782292307" lon="9.256614280873308"><ele>373.75</ele><time>2026-04-05T17:21:07Z</time></trkpt><trkpt lat="44.946409455018845" lon="9.256811282973688"><ele>373.5</ele><time>2026-04-05T17:21:08Z</time></trkpt><trkpt lat="44.94641062068124" lon="9.256982971096887"><ele>373.25</ele><time>2026-04-05T17:21:09Z</time></trkpt><trkpt lat="44.946417838637636" lon="9.257151626147461"><ele>373.0</ele><time>2026-04-05T17:21:10Z</time></trkpt><trkpt lat="44.946425184561704" lon="9.257305645624193"><ele>372.8333333333333</ele><time>2026-04-05T17:21:11Z</time></trkpt><trkpt lat="44.94642672782988" lon="9.257461707599381"><ele>372.66666666666663</ele><time>2026-04-05T17:21:12Z</time></trkpt><trkpt lat="44.946432617676074" lon="9.257589563936325"><ele>372.5</ele><time>2026-04-05T17:21:13Z</time></trkpt><trkpt lat="44.94646100310691" lon="9.257690019311166"><ele>372.3333333333333</ele><time>2026-04-05T17:21:14Z</time></trkpt><trkpt lat="44.946513126357374" lon="9.257777704065955"><ele>372.1666666666667</ele><time>2026-04-05T17:21:15Z</time></trkpt><trkpt lat="44.94658050516408" lon="9.257843452873958"><ele>372.0</ele><time>2026-04-05T17:21:16Z</time></trkpt><trkpt lat="44.94666242017534" lon="9.25788055241997"><ele>369.40000000000003</ele><time>2026-04-05T17:21:17Z</time></trkpt><trkpt lat="44.94674418580561" lon="9.257888136285164"><ele>366.8</ele><time>2026-04-05T17:21:18Z</time></trkpt><trkpt lat="44.94682784939895" lon="9.257858431983367"><ele>364.2</ele><time>2026-04-05T17:21:19Z</time></trkpt><trkpt lat="44.94691653600665" lon="9.257818833704375"><ele>361.6</ele><time>2026-04-05T17:21:20Z</time></trkpt><trkpt lat="44.94700587058882" lon="9.257706645171687"><ele>359.0</ele><time>2026-04-05T17:21:21Z</time></trkpt><trkpt lat="44.94708864170373" lon="9.257531783393812"><ele>359.0</ele><time>2026-04-05T17:21:22Z</time></trkpt><trkpt lat="44.94717752212162" lon="9.25737811714326"><ele>359.0</ele><time>2026-04-05T17:21:23Z</time></trkpt><trkpt lat="44.94726868119337" lon="9.257238305241923"><ele>359.0</ele><time>2026-04-05T17:21:24Z</time></trkpt><trkpt lat="44.94737170982444" lon="9.257148288115253"><ele>359.0</ele><time>2026-04-05T17:21:25Z</time></trkpt><trkpt lat="44.947455263485914" lon="9.257043872005971"><ele>359.0</ele><time>2026-04-05T17:21:26Z</time></trkpt><trkpt lat="44.94749764217537" lon="9.256946503805136"><ele>359.0</ele><time>2026-04-05T17:21:27Z</time></trkpt><trkpt lat="44.94754456219666" lon="9.256883755837114"><ele>359.0</ele><time>2026-04-05T17:21:28Z</time></trkpt><trkpt lat="44.94756367120914" lon="9.256787365911366"><ele>359.0</ele><time>2026-04-05T17:21:29Z</time></trkpt><trkpt lat="44.94755591250366" lon="9.25666380116989"><ele>359.0</ele><time>2026-04-05T17:21:30Z</time></trkpt><trkpt lat="44.947500347029866" lon="9.256534017021522"><ele>359.0</ele><time>2026-04-05T17:21:31Z</time></trkpt><trkpt lat="44.947454029553576" lon="9.256409404854013"><ele>358.1666666666667</ele><time>2026-04-05T17:21:32Z</time></trkpt><trkpt lat="44.947391701307915" lon="9.256315766505116"><ele>357.33333333333337</ele><time>2026-04-05T17:21:33Z</time></trkpt><trkpt lat="44.94733908528822" lon="9.256216522332286"><ele>356.5</ele><time>2026-04-05T17:21:34Z</time></trkpt><trkpt lat="44.947307835660524" lon="9.256105527820647"><ele>355.6666666666667</ele><time>2026-04-05T17:21:35Z</time></trkpt><trkpt lat="44.9472953940958" lon="9.255989792713006"><ele>354.8333333333333</ele><time>2026-04-05T17:21:36Z</time></trkpt><trkpt lat="44.94730792337928" lon="9.255898433952172"><ele>354.0</ele><time>2026-04-05T17:21:37Z</time></trkpt><trkpt lat="44.94733697234865" lon="9.2558187773625"><ele>354.0</ele><time>2026-04-05T17:21:38Z</time></trkpt><trkpt lat="44.947383832132026" lon="9.255749773363041"><ele>354.0</ele><time>2026-04-05T17:21:39Z</time></trkpt><trkpt lat="44.947443979747696" lon="9.255696884122239"><ele>354.0</ele><time>2026-04-05T17:21:40Z</time></trkpt><trkpt lat="44.947512126189906" lon="9.255706820713376"><ele>354.0</ele><time>2026-04-05T17:21:41Z</time></trkpt><trkpt lat="44.947585688836455" lon="9.255684140656301"><ele>354.0</ele><time>2026-04-05T17:21:42Z</time></trkpt><trkpt lat="44.94766952074887" lon="9.255693974685306"><ele>354.0</ele><time>2026-04-05T17:21:43Z</time></trkpt><trkpt lat="44.94776314514355" lon="9.255715004527541"><ele>351.6</ele><time>2026-04-05T17:21:44Z</time></trkpt><trkpt lat="44.94784726723132" lon="9.255750077749687"><ele>349.2</ele><time>2026-04-05T17:21:45Z</time></trkpt><trkpt lat="44.947928327206974" lon="9.255806460938478"><ele>346.8</ele><time>2026-04-05T17:21:46Z</time></trkpt><trkpt lat="44.948000400180895" lon="9.255889126457241"><ele>344.40000000000003</ele><time>2026-04-05T17:21:47Z</time></trkpt><trkpt lat="44.94806853731536" lon="9.256014225354052"><ele>342.0</ele><time>2026-04-05T17:21:48Z</time></trkpt><trkpt lat="44.94814356473606" lon="9.256147727127784"><ele>342.0</ele><time>2026-04-05T17:21:49Z</time></trkpt><trkpt lat="44.94820171275087" lon="9.256248973606812"><ele>342.0</ele><time>2026-04-05T17:21:50Z</time></trkpt><trkpt lat="44.9482638282499" lon="9.25632828548914"><ele>342.0</ele><time>2026-04-05T17:21:51Z</time></trkpt><trkpt lat="44.94831533014922" lon="9.256396620971334"><ele>342.0</ele><time>2026-04-05T17:21:52Z</time></trkpt><trkpt lat="44.94837619123591" lon="9.25643509527391"><ele>342.0</ele><time>2026-04-05T17:21:53Z</time></trkpt><trkpt lat="44.94844441037279" lon="9.2564745496748"><ele>342.0</ele><time>2026-04-05T17:21:54Z</time></trkpt><trkpt lat="44.948517612318106" lon="9.256432901618263"><ele>340.1666666666667</ele><time>2026-04-05T17:21:55Z</time></trkpt><trkpt lat="44.94860230256809" lon="9.256388745277704"><ele>338.3333333333333</ele><time>2026-04-05T17:21:56Z</time></trkpt><trkpt lat="44.94868587885207" lon="9.256357750529858"><ele>336.5</ele><time>2026-04-05T17:21:57Z</time></trkpt><trkpt lat="44.948757025515334" lon="9.256299692336372"><ele>334.66666666666663</ele><time>2026-04-05T17:21:58Z</time></trkpt><trkpt lat="44.94881406462006" lon="9.256226490509832"><ele>332.8333333333333</ele><time>2026-04-05T17:21:59Z</time></trkpt><trkpt lat="44.94885153608431" lon="9.256145557370992"><ele>331.0</ele><time>2026-04-05T17:22:00Z</time></trkpt><trkpt lat="44.948873670696806" lon="9.256049364995468"><ele>331.0</ele><time>2026-04-05T17:22:01Z</time></trkpt><trkpt lat="44.94888138072755" lon="9.255953767228304"><ele>331.0</ele><time>2026-04-05T17:22:02Z</time></trkpt><trkpt lat="44.948867488821165" lon="9.255847843738184"><ele>331.0</ele><time>2026-04-05T17:22:03Z</time></trkpt><trkpt lat="44.94882890484294" lon="9.255765615888722"><ele>331.0</ele><time>2026-04-05T17:22:04Z</time></trkpt><trkpt lat="44.94879545053636" lon="9.25567876479916"><ele>331.0</ele><time>2026-04-05T17:22:05Z</time></trkpt><trkpt lat="44.948738005754784" lon="9.255571760946365"><ele>331.0</ele><time>2026-04-05T17:22:06Z</time></trkpt><trkpt lat="44.94868345845663" lon="9.255481345032656"><ele>330.0</ele><time>2026-04-05T17:22:07Z</time></trkpt><trkpt lat="44.94863196019965" lon="9.255403525798949"><ele>329.0</ele><time>2026-04-05T17:22:08Z</time></trkpt><trkpt lat="44.94859804666821" lon="9.255266728758356"><ele>328.0</ele><time>2026-04-05T17:22:09.999Z</time></trkpt><trkpt lat="44.94866904198215" lon="9.255124967162455"><ele>327.0</ele><time>2026-04-05T17:22:11.999Z</time></trkpt><trkpt lat="44.948741797633154" lon="9.255096301788287"><ele>326.0</ele><time>2026-04-05T17:22:12.999Z</time></trkpt><trkpt lat="44.94883675251832" lon="9.255088682302928"><ele>326.0</ele><time>2026-04-05T17:22:13.999Z</time></trkpt><trkpt lat="44.94893106457455" lon="9.25510719125545"><ele>326.0</ele><time>2026-04-05T17:22:14.999Z</time></trkpt><trkpt lat="44.94900803950733" lon="9.25510853066161"><ele>326.0</ele><time>2026-04-05T17:22:15.999Z</time></trkpt><trkpt lat="44.949074977335" lon="9.255083385869558"><ele>326.0</ele><time>2026-04-05T17:22:16.999Z</time></trkpt><trkpt lat="44.94915565778077" lon="9.254946301599619"><ele>326.0</ele><time>2026-04-05T17:22:18.999Z</time></trkpt><trkpt lat="44.949169576224385" lon="9.254836937258629"><ele>326.0</ele><time>2026-04-05T17:22:19.999Z</time></trkpt><trkpt lat="44.94916998250023" lon="9.254717147938878"><ele>325.20000000000005</ele><time>2026-04-05T17:22:20.999Z</time></trkpt><trkpt lat="44.94917798879208" lon="9.25460468182508"><ele>324.40000000000003</ele><time>2026-04-05T17:22:21.999Z</time></trkpt><trkpt lat="44.949223231231095" lon="9.25448661207191"><ele>323.6</ele><time>2026-04-05T17:22:22.999Z</time></trkpt><trkpt lat="44.94929134020909" lon="9.254384193518087"><ele>322.8</ele><time>2026-04-05T17:22:23.999Z</time></trkpt><trkpt lat="44.94937978885642" lon="9.25427782338835"><ele>322.0</ele><time>2026-04-05T17:22:24.999Z</time></trkpt><trkpt lat="44.94946098618472" lon="9.254189523720168"><ele>321.0</ele><time>2026-04-05T17:22:25.999Z</time></trkpt><trkpt lat="44.949539243739565" lon="9.254107291897412"><ele>320.0</ele><time>2026-04-05T17:22:26.999Z</time></trkpt><trkpt lat="44.949623748542855" lon="9.254038285992241"><ele>319.0</ele><time>2026-04-05T17:22:27.999Z</time></trkpt><trkpt lat="44.949722972039844" lon="9.253982324603239"><ele>318.0</ele><time>2026-04-05T17:22:28.999Z</time></trkpt><trkpt lat="44.949823665814435" lon="9.253951478639406"><ele>317.0</ele><time>2026-04-05T17:22:29.999Z</time></trkpt><trkpt lat="44.94992466806956" lon="9.253931226092728"><ele>316.2</ele><time>2026-04-05T17:22:30.999Z</time></trkpt><trkpt lat="44.950022328250206" lon="9.2539297055454"><ele>315.4</ele><time>2026-04-05T17:22:31.999Z</time></trkpt><trkpt lat="44.950129270805874" lon="9.253937603145566"><ele>314.6</ele><time>2026-04-05T17:22:32.999Z</time></trkpt><trkpt lat="44.950236107211744" lon="9.253968666114837"><ele>313.8</ele><time>2026-04-05T17:22:33.999Z</time></trkpt><trkpt lat="44.950338688547724" lon="9.254019822200517"><ele>313.0</ele><time>2026-04-05T17:22:34.999Z</time></trkpt><trkpt lat="44.9504343282897" lon="9.25405886438651"><ele>313.0</ele><time>2026-04-05T17:22:35.999Z</time></trkpt><trkpt lat="44.950513728471996" lon="9.254087810960824"><ele>313.0</ele><time>2026-04-05T17:22:36.999Z</time></trkpt><trkpt lat="44.95058674934248" lon="9.254108079249393"><ele>313.0</ele><time>2026-04-05T17:22:37.999Z</time></trkpt><trkpt lat="44.950655529295986" lon="9.254104692406655"><ele>313.0</ele><time>2026-04-05T17:22:38.999Z</time></trkpt><trkpt lat="44.95072233801289" lon="9.25408099035839"><ele>313.0</ele><time>2026-04-05T17:22:39.999Z</time></trkpt><trkpt lat="44.95081150481761" lon="9.253972225205146"><ele>313.0</ele><time>2026-04-05T17:22:41.999Z</time></trkpt><trkpt lat="44.95083608502143" lon="9.253887190316673"><ele>312.4</ele><time>2026-04-05T17:22:42.999Z</time></trkpt><trkpt lat="44.9508560716753" lon="9.253716639034993"><ele>311.8</ele><time>2026-04-05T17:22:44.999Z</time></trkpt><trkpt lat="44.95075220250759" lon="9.253625846584864"><ele>311.2</ele><time>2026-04-05T17:22:45.999Z</time></trkpt><trkpt lat="44.95068892664528" lon="9.253546621164206"><ele>310.6</ele><time>2026-04-05T17:22:46.999Z</time></trkpt><trkpt lat="44.950625178220854" lon="9.25347781921742"><ele>310.0</ele><time>2026-04-05T17:22:47.999Z</time></trkpt><trkpt lat="44.95055900999484" lon="9.25341652775762"><ele>310.0</ele><time>2026-04-05T17:22:48.999Z</time></trkpt><trkpt lat="44.950481323125686" lon="9.253372000533332"><ele>310.0</ele><time>2026-04-05T17:22:49.999Z</time></trkpt><trkpt lat="44.95039696440816" lon="9.253337261727868"><ele>310.0</ele><time>2026-04-05T17:22:50.999Z</time></trkpt><trkpt lat="44.95031304476478" lon="9.253301444452706"><ele>310.0</ele><time>2026-04-05T17:22:51.999Z</time></trkpt><trkpt lat="44.950244316663046" lon="9.2532607841868"><ele>310.0</ele><time>2026-04-05T17:22:52.999Z</time></trkpt><trkpt lat="44.95016515126296" lon="9.253105250131554"><ele>307.8</ele><time>2026-04-05T17:22:54.999Z</time></trkpt><trkpt lat="44.95016096309883" lon="9.252995284784227"><ele>305.6</ele><time>2026-04-05T17:22:55.999Z</time></trkpt><trkpt lat="44.95017401399124" lon="9.252855197454805"><ele>303.4</ele><time>2026-04-05T17:22:56.999Z</time></trkpt><trkpt lat="44.95019719842675" lon="9.252696638570292"><ele>301.2</ele><time>2026-04-05T17:22:57.999Z</time></trkpt><trkpt lat="44.950220058925495" lon="9.252565358748695"><ele>299.0</ele><time>2026-04-05T17:22:58.999Z</time></trkpt><trkpt lat="44.950237755495266" lon="9.252459834729981"><ele>299.0</ele><time>2026-04-05T17:22:59.999Z</time></trkpt><trkpt lat="44.95028281235982" lon="9.252367056834139"><ele>299.0</ele><time>2026-04-05T17:23:00.999Z</time></trkpt><trkpt lat="44.950367661891896" lon="9.252297081704292"><ele>299.0</ele><time>2026-04-05T17:23:01.999Z</time></trkpt><trkpt lat="44.95045497639518" lon="9.252247792301915"><ele>299.0</ele><time>2026-04-05T17:23:02.999Z</time></trkpt><trkpt lat="44.95053358299424" lon="9.252216930128604"><ele>299.0</ele><time>2026-04-05T17:23:03.999Z</time></trkpt><trkpt lat="44.950602549672226" lon="9.25221922289361"><ele>299.0</ele><time>2026-04-05T17:23:04.999Z</time></trkpt><trkpt lat="44.95066868398288" lon="9.252255317141378"><ele>299.0</ele><time>2026-04-05T17:23:05.999Z</time></trkpt><trkpt lat="44.95072174320531" lon="9.252325141571692"><ele>299.0</ele><time>2026-04-05T17:23:06.999Z</time></trkpt><trkpt lat="44.95078182330761" lon="9.25242970738727"><ele>299.0</ele><time>2026-04-05T17:23:07.999Z</time></trkpt><trkpt lat="44.95083162289677" lon="9.252527917210768"><ele>299.0</ele><time>2026-04-05T17:23:08.999Z</time></trkpt><trkpt lat="44.95088638429547" lon="9.252600456961073"><ele>299.0</ele><time>2026-04-05T17:23:10Z</time></trkpt><trkpt lat="44.9509433133909" lon="9.25263843555083"><ele>299.0</ele><time>2026-04-05T17:23:11Z</time></trkpt><trkpt lat="44.951069969020054" lon="9.252610245142405"><ele>298.5</ele><time>2026-04-05T17:23:13Z</time></trkpt><trkpt lat="44.95112945699716" lon="9.252538944413335"><ele>298.0</ele><time>2026-04-05T17:23:14Z</time></trkpt><trkpt lat="44.95117732277839" lon="9.252448905875555"><ele>297.5</ele><time>2026-04-05T17:23:15Z</time></trkpt><trkpt lat="44.95122873655447" lon="9.252374350631959"><ele>297.0</ele><time>2026-04-05T17:23:16Z</time></trkpt><trkpt lat="44.95131096432622" lon="9.252339180282766"><ele>296.5</ele><time>2026-04-05T17:23:17Z</time></trkpt><trkpt lat="44.951392836015316" lon="9.252348596503648"><ele>296.0</ele><time>2026-04-05T17:23:18Z</time></trkpt><trkpt lat="44.95147897004384" lon="9.252397374576091"><ele>296.0</ele><time>2026-04-05T17:23:19Z</time></trkpt><trkpt lat="44.951579468968745" lon="9.25246047068141"><ele>296.0</ele><time>2026-04-05T17:23:20Z</time></trkpt><trkpt lat="44.95168237134641" lon="9.252514532614953"><ele>296.0</ele><time>2026-04-05T17:23:21Z</time></trkpt><trkpt lat="44.95178302322004" lon="9.252466142442108"><ele>296.0</ele><time>2026-04-05T17:23:22Z</time></trkpt><trkpt lat="44.95187622048535" lon="9.252415151744108"><ele>296.0</ele><time>2026-04-05T17:23:23Z</time></trkpt><trkpt lat="44.951966921446974" lon="9.25234378354191"><ele>292.2</ele><time>2026-04-05T17:23:24Z</time></trkpt><trkpt lat="44.952037201611425" lon="9.252242433245803"><ele>288.40000000000003</ele><time>2026-04-05T17:23:25Z</time></trkpt><trkpt lat="44.952098485359585" lon="9.25212169599883"><ele>284.6</ele><time>2026-04-05T17:23:26Z</time></trkpt><trkpt lat="44.952160696706706" lon="9.251995161364066"><ele>280.8</ele><time>2026-04-05T17:23:27Z</time></trkpt><trkpt lat="44.952229381439544" lon="9.251895780735815"><ele>277.0</ele><time>2026-04-05T17:23:28Z</time></trkpt><trkpt lat="44.952284163680076" lon="9.251812362055189"><ele>277.0</ele><time>2026-04-05T17:23:29Z</time></trkpt><trkpt lat="44.95234115386133" lon="9.251751436976363"><ele>277.0</ele><time>2026-04-05T17:23:30Z</time></trkpt><trkpt lat="44.95245964732091" lon="9.251717351068468"><ele>277.0</ele><time>2026-04-05T17:23:32Z</time></trkpt><trkpt lat="44.95251989341915" lon="9.251770485654207"><ele>277.0</ele><time>2026-04-05T17:23:33Z</time></trkpt><trkpt lat="44.95257083029593" lon="9.251864258640788"><ele>277.0</ele><time>2026-04-05T17:23:34Z</time></trkpt><trkpt lat="44.95261404132817" lon="9.251978317730478"><ele>277.0</ele><time>2026-04-05T17:23:35Z</time></trkpt><trkpt lat="44.95265241437001" lon="9.252104224364137"><ele>276.2</ele><time>2026-04-05T17:23:36Z</time></trkpt><trkpt lat="44.952714104755124" lon="9.252197854845774"><ele>275.4</ele><time>2026-04-05T17:23:37Z</time></trkpt><trkpt lat="44.95279149293164" lon="9.252286809646218"><ele>274.6</ele><time>2026-04-05T17:23:38Z</time></trkpt><trkpt lat="44.952911834030864" lon="9.25229308062415"><ele>273.8</ele><time>2026-04-05T17:23:39Z</time></trkpt><trkpt lat="44.95303049183109" lon="9.252306281548707"><ele>273.0</ele><time>2026-04-05T17:23:40Z</time></trkpt><trkpt lat="44.95313187435844" lon="9.25232008924051"><ele>273.0</ele><time>2026-04-05T17:23:41Z</time></trkpt><trkpt lat="44.95323346762383" lon="9.252356864569954"><ele>273.0</ele><time>2026-04-05T17:23:42Z</time></trkpt><trkpt lat="44.95332914345816" lon="9.252423185741021"><ele>273.0</ele><time>2026-04-05T17:23:43Z</time></trkpt><trkpt lat="44.95342052928585" lon="9.25251075134879"><ele>273.0</ele><time>2026-04-05T17:23:44Z</time></trkpt><trkpt lat="44.953511913672095" lon="9.252592333501562"><ele>273.0</ele><time>2026-04-05T17:23:45Z</time></trkpt><trkpt lat="44.95359762573209" lon="9.252668445799637"><ele>272.2</ele><time>2026-04-05T17:23:46Z</time></trkpt><trkpt lat="44.953671983230514" lon="9.252760975617822"><ele>271.4</ele><time>2026-04-05T17:23:47Z</time></trkpt><trkpt lat="44.95375849541042" lon="9.25280640150728"><ele>270.59999999999997</ele><time>2026-04-05T17:23:48Z</time></trkpt><trkpt lat="44.953866367450054" lon="9.252821865423034"><ele>269.8</ele><time>2026-04-05T17:23:49Z</time></trkpt><trkpt lat="44.95398328634628" lon="9.252827466529332"><ele>269.0</ele><time>2026-04-05T17:23:50Z</time></trkpt><trkpt lat="44.954113245889225" lon="9.25282262504756"><ele>267.8</ele><time>2026-04-05T17:23:51Z</time></trkpt><trkpt lat="44.95421859526321" lon="9.252815135779844"><ele>266.59999999999997</ele><time>2026-04-05T17:23:52Z</time></trkpt><trkpt lat="44.95431688664377" lon="9.252812916534706"><ele>265.4</ele><time>2026-04-05T17:23:53Z</time></trkpt><trkpt lat="44.954418380061384" lon="9.252805949287334"><ele>264.2</ele><time>2026-04-05T17:23:54Z</time></trkpt><trkpt lat="44.95451727440612" lon="9.252837344691189"><ele>263.0</ele><time>2026-04-05T17:23:55Z</time></trkpt><trkpt lat="44.954609481821194" lon="9.25283418173325"><ele>263.0</ele><time>2026-04-05T17:23:56Z</time></trkpt><trkpt lat="44.954704213293326" lon="9.252870429937209"><ele>263.0</ele><time>2026-04-05T17:23:57Z</time></trkpt><trkpt lat="44.9547808746719" lon="9.252906578166598"><ele>263.0</ele><time>2026-04-05T17:23:58Z</time></trkpt><trkpt lat="44.95483724775434" lon="9.252957826824984"><ele>263.0</ele><time>2026-04-05T17:23:59Z</time></trkpt><trkpt lat="44.95489045474362" lon="9.253034125453656"><ele>263.0</ele><time>2026-04-05T17:24:00Z</time></trkpt><trkpt lat="44.95492839188549" lon="9.253118246384009"><ele>263.0</ele><time>2026-04-05T17:24:01Z</time></trkpt><trkpt lat="44.954941014254956" lon="9.253212407753539"><ele>263.0</ele><time>2026-04-05T17:24:02Z</time></trkpt><trkpt lat="44.95493780342577" lon="9.253318685534015"><ele>263.0</ele><time>2026-04-05T17:24:03Z</time></trkpt><trkpt lat="44.95490761134404" lon="9.25344493452653"><ele>263.0</ele><time>2026-04-05T17:24:04Z</time></trkpt><trkpt lat="44.954867106392896" lon="9.253574385984408"><ele>263.0</ele><time>2026-04-05T17:24:05Z</time></trkpt><trkpt lat="44.95484462696245" lon="9.253689109750129"><ele>263.0</ele><time>2026-04-05T17:24:06Z</time></trkpt><trkpt lat="44.954853130121975" lon="9.2537974602929"><ele>263.0</ele><time>2026-04-05T17:24:07Z</time></trkpt><trkpt lat="44.95493321787932" lon="9.253955759127672"><ele>262.33333333333337</ele><time>2026-04-05T17:24:09Z</time></trkpt><trkpt lat="44.955018376560126" lon="9.25402512972956"><ele>261.6666666666667</ele><time>2026-04-05T17:24:10Z</time></trkpt><trkpt lat="44.95510711274758" lon="9.25408499298745"><ele>261.0</ele><time>2026-04-05T17:24:11Z</time></trkpt><trkpt lat="44.95518927153034" lon="9.254139742074328"><ele>260.3333333333333</ele><time>2026-04-05T17:24:12Z</time></trkpt><trkpt lat="44.95526059356783" lon="9.254180665699037"><ele>259.66666666666663</ele><time>2026-04-05T17:24:12.999Z</time></trkpt><trkpt lat="44.9553328791765" lon="9.254208814046327"><ele>259.0</ele><time>2026-04-05T17:24:13.999Z</time></trkpt><trkpt lat="44.9554118223668" lon="9.25422882474627"><ele>258.8</ele><time>2026-04-05T17:24:14.999Z</time></trkpt><trkpt lat="44.95550570970063" lon="9.254217246416491"><ele>258.59999999999997</ele><time>2026-04-05T17:24:15.999Z</time></trkpt><trkpt lat="44.95561403072383" lon="9.254131894240162"><ele>258.4</ele><time>2026-04-05T17:24:16.999Z</time></trkpt><trkpt lat="44.95571791962659" lon="9.254047160534222"><ele>258.2</ele><time>2026-04-05T17:24:17.999Z</time></trkpt><trkpt lat="44.95581333329183" lon="9.253978563131307"><ele>258.0</ele><time>2026-04-05T17:24:18.999Z</time></trkpt><trkpt lat="44.95590754295264" lon="9.253919170761558"><ele>257.2</ele><time>2026-04-05T17:24:19.999Z</time></trkpt><trkpt lat="44.956007799845445" lon="9.25387419963906"><ele>256.4</ele><time>2026-04-05T17:24:20.999Z</time></trkpt><trkpt lat="44.956102077972034" lon="9.253848164263058"><ele>255.59999999999997</ele><time>2026-04-05T17:24:21.999Z</time></trkpt><trkpt lat="44.95620446139961" lon="9.253846230175748"><ele>254.79999999999998</ele><time>2026-04-05T17:24:22.999Z</time></trkpt><trkpt lat="44.95631527696687" lon="9.253861802594638"><ele>254.0</ele><time>2026-04-05T17:24:23.999Z</time></trkpt><trkpt lat="44.95642134659061" lon="9.253885353486849"><ele>254.0</ele><time>2026-04-05T17:24:24.999Z</time></trkpt><trkpt lat="44.956528279301736" lon="9.253914455017844"><ele>253.99999999999997</ele><time>2026-04-05T17:24:25.999Z</time></trkpt><trkpt lat="44.95663556930656" lon="9.253935276010463"><ele>253.99999999999997</ele><time>2026-04-05T17:24:26.999Z</time></trkpt><trkpt lat="44.956732530051" lon="9.253979712458918"><ele>254.0</ele><time>2026-04-05T17:24:27.999Z</time></trkpt><trkpt lat="44.95683320768119" lon="9.25401683127864"><ele>254.0</ele><time>2026-04-05T17:24:28.999Z</time></trkpt><trkpt lat="44.95695774823631" lon="9.254056980209592"><ele>255.0</ele><time>2026-04-05T17:24:29.999Z</time></trkpt><trkpt lat="44.95706687979711" lon="9.254080581690621"><ele>256.0</ele><time>2026-04-05T17:24:30.999Z</time></trkpt><trkpt lat="44.95719156170644" lon="9.254099679941735"><ele>257.0</ele><time>2026-04-05T17:24:31.999Z</time></trkpt><trkpt lat="44.95733341504265" lon="9.254107529478818"><ele>258.0</ele><time>2026-04-05T17:24:32.999Z</time></trkpt><trkpt lat="44.957476220756035" lon="9.254106274773129"><ele>259.25</ele><time>2026-04-05T17:24:33.999Z</time></trkpt><trkpt lat="44.957612964420655" lon="9.254113630879983"><ele>260.5</ele><time>2026-04-05T17:24:34.999Z</time></trkpt><trkpt lat="44.95776138753004" lon="9.254079267550729"><ele>261.75</ele><time>2026-04-05T17:24:35.999Z</time></trkpt><trkpt lat="44.95789459138299" lon="9.254029072139248"><ele>263.0</ele><time>2026-04-05T17:24:36.999Z</time></trkpt><trkpt lat="44.95801361895532" lon="9.253964845396752"><ele>263.0</ele><time>2026-04-05T17:24:37.999Z</time></trkpt><trkpt lat="44.95813656734525" lon="9.253870193685215"><ele>263.0</ele><time>2026-04-05T17:24:38.999Z</time></trkpt><trkpt lat="44.9582822258157" lon="9.253751166431933"><ele>263.0</ele><time>2026-04-05T17:24:39.999Z</time></trkpt><trkpt lat="44.95841303888945" lon="9.253638960540627"><ele>263.0</ele><time>2026-04-05T17:24:40.999Z</time></trkpt><trkpt lat="44.95855935371135" lon="9.253560600078105"><ele>263.0</ele><time>2026-04-05T17:24:41.999Z</time></trkpt><trkpt lat="44.95869084350516" lon="9.253490970159735"><ele>263.0</ele><time>2026-04-05T17:24:42.999Z</time></trkpt><trkpt lat="44.95881679914876" lon="9.253426180403995"><ele>263.0</ele><time>2026-04-05T17:24:43.999Z</time></trkpt><trkpt lat="44.95894962614677" lon="9.25342254389344"><ele>263.0</ele><time>2026-04-05T17:24:44.999Z</time></trkpt><trkpt lat="44.95906207267183" lon="9.253421669438099"><ele>263.0</ele><time>2026-04-05T17:24:45.999Z</time></trkpt><trkpt lat="44.959186212221205" lon="9.253404288773037"><ele>263.0</ele><time>2026-04-05T17:24:46.999Z</time></trkpt><trkpt lat="44.95928398581982" lon="9.25338418006269"><ele>263.0</ele><time>2026-04-05T17:24:47.999Z</time></trkpt><trkpt lat="44.95937480629143" lon="9.253358918175"><ele>263.0</ele><time>2026-04-05T17:24:48.999Z</time></trkpt><trkpt lat="44.95948247551559" lon="9.253306541906577"><ele>261.8</ele><time>2026-04-05T17:24:49.999Z</time></trkpt><trkpt lat="44.95959960203046" lon="9.253280994219972"><ele>260.6</ele><time>2026-04-05T17:24:50.999Z</time></trkpt><trkpt lat="44.95969530668656" lon="9.253228662323293"><ele>259.4</ele><time>2026-04-05T17:24:51.999Z</time></trkpt><trkpt lat="44.95979046500034" lon="9.253170316820993"><ele>258.2</ele><time>2026-04-05T17:24:52.999Z</time></trkpt><trkpt lat="44.9598861289225" lon="9.253143934890044"><ele>257.0</ele><time>2026-04-05T17:24:53.999Z</time></trkpt><trkpt lat="44.959998638723874" lon="9.253143054383784"><ele>257.5</ele><time>2026-04-05T17:24:54.999Z</time></trkpt><trkpt lat="44.960124615032484" lon="9.253178962999172"><ele>258.0</ele><time>2026-04-05T17:24:55.999Z</time></trkpt><trkpt lat="44.96023906720108" lon="9.253221245653187"><ele>258.5</ele><time>2026-04-05T17:24:56.999Z</time></trkpt><trkpt lat="44.960361287796786" lon="9.25322634989718"><ele>259.0</ele><time>2026-04-05T17:24:57.999Z</time></trkpt><trkpt lat="44.960516239057924" lon="9.253200091549804"><ele>259.0</ele><time>2026-04-05T17:24:58.999Z</time></trkpt><trkpt lat="44.96067220911527" lon="9.253164958721268"><ele>259.0</ele><time>2026-04-05T17:24:59.999Z</time></trkpt><trkpt lat="44.96080682067005" lon="9.253142214068436"><ele>259.0</ele><time>2026-04-05T17:25:00.999Z</time></trkpt><trkpt lat="44.960928989761335" lon="9.253135207272708"><ele>259.0</ele><time>2026-04-05T17:25:01.999Z</time></trkpt><trkpt lat="44.96104471699414" lon="9.25310127686548"><ele>257.75</ele><time>2026-04-05T17:25:02.999Z</time></trkpt><trkpt lat="44.96115285206606" lon="9.253049413344424"><ele>256.5</ele><time>2026-04-05T17:25:03.999Z</time></trkpt><trkpt lat="44.96125397547619" lon="9.25296439191519"><ele>255.25</ele><time>2026-04-05T17:25:04.999Z</time></trkpt><trkpt lat="44.96134996472812" lon="9.252859584220278"><ele>254.0</ele><time>2026-04-05T17:25:05.999Z</time></trkpt><trkpt lat="44.961452857639706" lon="9.252733412768583"><ele>254.0</ele><time>2026-04-05T17:25:06.999Z</time></trkpt><trkpt lat="44.961522721121284" lon="9.25260607581989"><ele>253.99999999999997</ele><time>2026-04-05T17:25:07.999Z</time></trkpt><trkpt lat="44.96161381896167" lon="9.252513403675783"><ele>253.99999999999997</ele><time>2026-04-05T17:25:08.999Z</time></trkpt><trkpt lat="44.96169151717249" lon="9.252413779110054"><ele>254.0</ele><time>2026-04-05T17:25:09.999Z</time></trkpt><trkpt lat="44.96176782384583" lon="9.252316139985224"><ele>254.0</ele><time>2026-04-05T17:25:10.999Z</time></trkpt><trkpt lat="44.96184512350418" lon="9.25224376410172"><ele>251.79999999999998</ele><time>2026-04-05T17:25:11.999Z</time></trkpt><trkpt lat="44.961925112873026" lon="9.252191968902633"><ele>249.59999999999997</ele><time>2026-04-05T17:25:12.999Z</time></trkpt><trkpt lat="44.96201442231077" lon="9.252154933575664"><ele>247.4</ele><time>2026-04-05T17:25:13.999Z</time></trkpt><trkpt lat="44.96210426371779" lon="9.252159048641603"><ele>245.2</ele><time>2026-04-05T17:25:14.999Z</time></trkpt><trkpt lat="44.96219277880227" lon="9.25219097524714"><ele>243.0</ele><time>2026-04-05T17:25:16Z</time></trkpt><trkpt lat="44.962279617794664" lon="9.252255682452434"><ele>244.60000000000002</ele><time>2026-04-05T17:25:17Z</time></trkpt><trkpt lat="44.96237468247352" lon="9.252349130929593"><ele>246.20000000000002</ele><time>2026-04-05T17:25:18Z</time></trkpt><trkpt lat="44.962473113737424" lon="9.252438978611888"><ele>247.8</ele><time>2026-04-05T17:25:19Z</time></trkpt><trkpt lat="44.962570093416026" lon="9.25249980906012"><ele>249.4</ele><time>2026-04-05T17:25:20Z</time></trkpt><trkpt lat="44.96266990348262" lon="9.252551906389458"><ele>251.0</ele><time>2026-04-05T17:25:21Z</time></trkpt><trkpt lat="44.962773516916435" lon="9.252582429496977"><ele>251.0</ele><time>2026-04-05T17:25:22Z</time></trkpt><trkpt lat="44.96289549585553" lon="9.25258974700368"><ele>251.0</ele><time>2026-04-05T17:25:23Z</time></trkpt><trkpt lat="44.96303421304974" lon="9.252580412734726"><ele>251.0</ele><time>2026-04-05T17:25:24Z</time></trkpt><trkpt lat="44.96318992147608" lon="9.252561338569752"><ele>251.0</ele><time>2026-04-05T17:25:25Z</time></trkpt><trkpt lat="44.96333555847467" lon="9.252543184256215"><ele>250.4</ele><time>2026-04-05T17:25:26Z</time></trkpt><trkpt lat="44.96345863060561" lon="9.252528163463348"><ele>249.8</ele><time>2026-04-05T17:25:27Z</time></trkpt><trkpt lat="44.96358089988612" lon="9.252519715476767"><ele>249.20000000000002</ele><time>2026-04-05T17:25:28Z</time></trkpt><trkpt lat="44.96367778610869" lon="9.252514615949174"><ele>248.60000000000002</ele><time>2026-04-05T17:25:29Z</time></trkpt><trkpt lat="44.963756743773224" lon="9.25252166015487"><ele>248.0</ele><time>2026-04-05T17:25:30Z</time></trkpt><trkpt lat="44.96385264662593" lon="9.252542114510245"><ele>248.0</ele><time>2026-04-05T17:25:31Z</time></trkpt><trkpt lat="44.96395241744112" lon="9.252595096123914"><ele>248.0</ele><time>2026-04-05T17:25:32Z</time></trkpt><trkpt lat="44.96405216436663" lon="9.252662149756508"><ele>248.0</ele><time>2026-04-05T17:25:33Z</time></trkpt><trkpt lat="44.964158002446354" lon="9.252722506970697"><ele>248.0</ele><time>2026-04-05T17:25:34Z</time></trkpt><trkpt lat="44.96428151351827" lon="9.25276144861021"><ele>247.0</ele><time>2026-04-05T17:25:35Z</time></trkpt><trkpt lat="44.9644139785295" lon="9.252796998554443"><ele>246.0</ele><time>2026-04-05T17:25:36Z</time></trkpt><trkpt lat="44.96456489850457" lon="9.252830725342843"><ele>245.0</ele><time>2026-04-05T17:25:37Z</time></trkpt><trkpt lat="44.96471392802564" lon="9.252872708991877"><ele>244.0</ele><time>2026-04-05T17:25:38Z</time></trkpt><trkpt lat="44.96485384612828" lon="9.252923142022796"><ele>244.0</ele><time>2026-04-05T17:25:39Z</time></trkpt><trkpt lat="44.964982004272194" lon="9.25296665712422"><ele>244.0</ele><time>2026-04-05T17:25:40Z</time></trkpt><trkpt lat="44.96510073418857" lon="9.253026597335156"><ele>244.0</ele><time>2026-04-05T17:25:41Z</time></trkpt><trkpt lat="44.965215249135525" lon="9.253089974392097"><ele>244.0</ele><time>2026-04-05T17:25:42Z</time></trkpt><trkpt lat="44.9653356068565" lon="9.253141659570204"><ele>244.75</ele><time>2026-04-05T17:25:43Z</time></trkpt><trkpt lat="44.96545842231216" lon="9.25315057406872"><ele>245.5</ele><time>2026-04-05T17:25:44Z</time></trkpt><trkpt lat="44.96559251208057" lon="9.25312640524635"><ele>246.25</ele><time>2026-04-05T17:25:45Z</time></trkpt><trkpt lat="44.96571693419893" lon="9.253120949512502"><ele>247.0</ele><time>2026-04-05T17:25:46Z</time></trkpt><trkpt lat="44.96583718276679" lon="9.253113657517492"><ele>245.0</ele><time>2026-04-05T17:25:47Z</time></trkpt><trkpt lat="44.96594966726349" lon="9.253128133977508"><ele>243.0</ele><time>2026-04-05T17:25:48Z</time></trkpt><trkpt lat="44.96605929826902" lon="9.253147566531116"><ele>241.0</ele><time>2026-04-05T17:25:49Z</time></trkpt><trkpt lat="44.96616753812397" lon="9.253179005987713"><ele>239.0</ele><time>2026-04-05T17:25:50Z</time></trkpt><trkpt lat="44.96627908118017" lon="9.253226212705854"><ele>239.0</ele><time>2026-04-05T17:25:51Z</time></trkpt><trkpt lat="44.96638173992477" lon="9.253322719178508"><ele>239.0</ele><time>2026-04-05T17:25:52Z</time></trkpt><trkpt lat="44.96647420293588" lon="9.253417010304197"><ele>239.0</ele><time>2026-04-05T17:25:53Z</time></trkpt><trkpt lat="44.9665826685066" lon="9.253448501156752"><ele>239.0</ele><time>2026-04-05T17:25:54Z</time></trkpt><trkpt lat="44.96672682961131" lon="9.253478453820149"><ele>236.75</ele><time>2026-04-05T17:25:55Z</time></trkpt><trkpt lat="44.9668807843458" lon="9.253510381223899"><ele>234.5</ele><time>2026-04-05T17:25:56Z</time></trkpt><trkpt lat="44.9670297649653" lon="9.253536189189093"><ele>232.25</ele><time>2026-04-05T17:25:57Z</time></trkpt><trkpt lat="44.967155459770595" lon="9.25356394281536"><ele>230.0</ele><time>2026-04-05T17:25:58Z</time></trkpt><trkpt lat="44.96728601702965" lon="9.253620282795255"><ele>230.0</ele><time>2026-04-05T17:25:59Z</time></trkpt><trkpt lat="44.967426831792984" lon="9.253709925545046"><ele>230.0</ele><time>2026-04-05T17:26:00Z</time></trkpt><trkpt lat="44.96757384153779" lon="9.253819136696864"><ele>230.0</ele><time>2026-04-05T17:26:01Z</time></trkpt><trkpt lat="44.96771045089865" lon="9.253906195800361"><ele>230.25</ele><time>2026-04-05T17:26:02Z</time></trkpt><trkpt lat="44.96784527002491" lon="9.253979020295258"><ele>230.5</ele><time>2026-04-05T17:26:03Z</time></trkpt><trkpt lat="44.96798003253954" lon="9.25404432771628"><ele>230.75</ele><time>2026-04-05T17:26:04Z</time></trkpt><trkpt lat="44.96809685144669" lon="9.25410259445322"><ele>231.0</ele><time>2026-04-05T17:26:05Z</time></trkpt><trkpt lat="44.9682016162821" lon="9.254155437015969"><ele>231.0</ele><time>2026-04-05T17:26:06Z</time></trkpt><trkpt lat="44.96828374983127" lon="9.254200025651377"><ele>231.00000000000003</ele><time>2026-04-05T17:26:07Z</time></trkpt><trkpt lat="44.96836700127371" lon="9.254233826216876"><ele>231.00000000000003</ele><time>2026-04-05T17:26:08Z</time></trkpt><trkpt lat="44.96845833032124" lon="9.254230431707665"><ele>231.0</ele><time>2026-04-05T17:26:09Z</time></trkpt><trkpt lat="44.96857120644233" lon="9.254177086737382"><ele>231.0</ele><time>2026-04-05T17:26:10Z</time></trkpt><trkpt lat="44.968692529424736" lon="9.254083174119039"><ele>228.0</ele><time>2026-04-05T17:26:11Z</time></trkpt><trkpt lat="44.96882710579981" lon="9.253953945493107"><ele>225.0</ele><time>2026-04-05T17:26:12Z</time></trkpt><trkpt lat="44.968969801664805" lon="9.25384162422237"><ele>222.0</ele><time>2026-04-05T17:26:13Z</time></trkpt><trkpt lat="44.969157836253004" lon="9.253741089807669"><ele>220.66666666666669</ele><time>2026-04-05T17:26:14Z</time></trkpt><trkpt lat="44.969377241163286" lon="9.253655451928168"><ele>219.33333333333334</ele><time>2026-04-05T17:26:15Z</time></trkpt><trkpt lat="44.96958650756722" lon="9.253568554415393"><ele>218.0</ele><time>2026-04-05T17:26:16Z</time></trkpt><trkpt lat="44.96976651868703" lon="9.253477584646294"><ele>218.0</ele><time>2026-04-05T17:26:17Z</time></trkpt><trkpt lat="44.96994584031086" lon="9.253395687105028"><ele>218.0</ele><time>2026-04-05T17:26:18Z</time></trkpt><trkpt lat="44.9701303373823" lon="9.253306574142158"><ele>218.0</ele><time>2026-04-05T17:26:18.999Z</time></trkpt><trkpt lat="44.970289781791806" lon="9.253231182066207"><ele>218.33333333333334</ele><time>2026-04-05T17:26:19.999Z</time></trkpt><trkpt lat="44.970437293132306" lon="9.253148735881854"><ele>218.66666666666669</ele><time>2026-04-05T17:26:20.999Z</time></trkpt><trkpt lat="44.970592283793984" lon="9.253083261700098"><ele>219.0</ele><time>2026-04-05T17:26:21.999Z</time></trkpt><trkpt lat="44.97074659971121" lon="9.253015132824371"><ele>219.0</ele><time>2026-04-05T17:26:22.999Z</time></trkpt><trkpt lat="44.970879324764276" lon="9.252942089112286"><ele>219.0</ele><time>2026-04-05T17:26:23.999Z</time></trkpt><trkpt lat="44.97100471980119" lon="9.252849301629219"><ele>219.0</ele><time>2026-04-05T17:26:24.999Z</time></trkpt><trkpt lat="44.97113903120152" lon="9.252711133515225"><ele>219.0</ele><time>2026-04-05T17:26:25.999Z</time></trkpt><trkpt lat="44.97129469728905" lon="9.252537205820287"><ele>219.0</ele><time>2026-04-05T17:26:26.999Z</time></trkpt><trkpt lat="44.97144120467588" lon="9.25235919409856"><ele>219.0</ele><time>2026-04-05T17:26:27.999Z</time></trkpt><trkpt lat="44.97157995448355" lon="9.252200014038547"><ele>217.33333333333331</ele><time>2026-04-05T17:26:28.999Z</time></trkpt><trkpt lat="44.97171474265988" lon="9.252042485748792"><ele>215.66666666666666</ele><time>2026-04-05T17:26:29.999Z</time></trkpt><trkpt lat="44.97188224627778" lon="9.251866341290446"><ele>214.0</ele><time>2026-04-05T17:26:30.999Z</time></trkpt><trkpt lat="44.972056527486735" lon="9.251677701044544"><ele>214.0</ele><time>2026-04-05T17:26:31.999Z</time></trkpt><trkpt lat="44.97221262554129" lon="9.251496126319656"><ele>214.0</ele><time>2026-04-05T17:26:32.999Z</time></trkpt><trkpt lat="44.97236035587504" lon="9.25132206056577"><ele>214.0</ele><time>2026-04-05T17:26:33.999Z</time></trkpt><trkpt lat="44.972497691802936" lon="9.25116397431885"><ele>214.0</ele><time>2026-04-05T17:26:34.999Z</time></trkpt><trkpt lat="44.97262368159401" lon="9.251030739912775"><ele>214.0</ele><time>2026-04-05T17:26:35.999Z</time></trkpt><trkpt lat="44.97274926004074" lon="9.250909205127122"><ele>214.0</ele><time>2026-04-05T17:26:36.999Z</time></trkpt><trkpt lat="44.972871616015446" lon="9.250776625557954"><ele>214.0</ele><time>2026-04-05T17:26:37.999Z</time></trkpt><trkpt lat="44.97299468058412" lon="9.250643278186706"><ele>214.0</ele><time>2026-04-05T17:26:38.999Z</time></trkpt><trkpt lat="44.97310004176606" lon="9.250498712235649"><ele>214.0</ele><time>2026-04-05T17:26:39.999Z</time></trkpt><trkpt lat="44.97320814958854" lon="9.250383302290718"><ele>214.0</ele><time>2026-04-05T17:26:40.999Z</time></trkpt><trkpt lat="44.97331243984953" lon="9.250295026886574"><ele>213.75</ele><time>2026-04-05T17:26:41.999Z</time></trkpt><trkpt lat="44.97340649885937" lon="9.250201827511932"><ele>213.5</ele><time>2026-04-05T17:26:42.999Z</time></trkpt><trkpt lat="44.97349745051918" lon="9.250106774659864"><ele>213.25</ele><time>2026-04-05T17:26:43.999Z</time></trkpt><trkpt lat="44.97360372327052" lon="9.24998537574694"><ele>213.0</ele><time>2026-04-05T17:26:44.999Z</time></trkpt><trkpt lat="44.97372656633234" lon="9.249846531611567"><ele>212.66666666666669</ele><time>2026-04-05T17:26:45.999Z</time></trkpt><trkpt lat="44.97385939394785" lon="9.249677732352088"><ele>212.33333333333334</ele><time>2026-04-05T17:26:46.999Z</time></trkpt><trkpt lat="44.97399981823883" lon="9.249518626608177"><ele>212.0</ele><time>2026-04-05T17:26:47.999Z</time></trkpt><trkpt lat="44.974119879764245" lon="9.249384945862209"><ele>212.75</ele><time>2026-04-05T17:26:48.999Z</time></trkpt><trkpt lat="44.97422583266171" lon="9.249247010616893"><ele>213.5</ele><time>2026-04-05T17:26:49.999Z</time></trkpt><trkpt lat="44.97433242527894" lon="9.249139845180554"><ele>214.25</ele><time>2026-04-05T17:26:50.999Z</time></trkpt><trkpt lat="44.974453550704425" lon="9.24903669056617"><ele>215.0</ele><time>2026-04-05T17:26:51.999Z</time></trkpt><trkpt lat="44.97460807156223" lon="9.248967999203522"><ele>212.33333333333334</ele><time>2026-04-05T17:26:52.999Z</time></trkpt><trkpt lat="44.97479688369928" lon="9.248882917829475"><ele>209.66666666666669</ele><time>2026-04-05T17:26:53.999Z</time></trkpt><trkpt lat="44.97499856228969" lon="9.24880678925108"><ele>207.0</ele><time>2026-04-05T17:26:54.999Z</time></trkpt><trkpt lat="44.975145496053166" lon="9.248773755835868"><ele>206.66666666666669</ele><time>2026-04-05T17:26:55.999Z</time></trkpt><trkpt lat="44.97532270116735" lon="9.248692249885165"><ele>206.33333333333334</ele><time>2026-04-05T17:26:56.999Z</time></trkpt><trkpt lat="44.97549861213966" lon="9.248628558879656"><ele>206.0</ele><time>2026-04-05T17:26:57.999Z</time></trkpt><trkpt lat="44.97569188462929" lon="9.24856733419531"><ele>208.0</ele><time>2026-04-05T17:26:58.999Z</time></trkpt><trkpt lat="44.97587121751832" lon="9.24850173346433"><ele>210.0</ele><time>2026-04-05T17:26:59.999Z</time></trkpt><trkpt lat="44.97603595075533" lon="9.248453245210142"><ele>212.0</ele><time>2026-04-05T17:27:00.999Z</time></trkpt><trkpt lat="44.976197814024765" lon="9.248400030021529"><ele>212.0</ele><time>2026-04-05T17:27:01.999Z</time></trkpt><trkpt lat="44.9763520498994" lon="9.248346862963515"><ele>212.0</ele><time>2026-04-05T17:27:02.999Z</time></trkpt><trkpt lat="44.97650547644271" lon="9.248288495198533"><ele>212.0</ele><time>2026-04-05T17:27:03.999Z</time></trkpt><trkpt lat="44.97665409034578" lon="9.24822458456134"><ele>211.75</ele><time>2026-04-05T17:27:04.999Z</time></trkpt><trkpt lat="44.97681029147186" lon="9.248155252812156"><ele>211.5</ele><time>2026-04-05T17:27:05.999Z</time></trkpt><trkpt lat="44.97694650828698" lon="9.248100619930819"><ele>211.25</ele><time>2026-04-05T17:27:06.999Z</time></trkpt><trkpt lat="44.9770683004192" lon="9.248054108416143"><ele>211.0</ele><time>2026-04-05T17:27:07.999Z</time></trkpt><trkpt lat="44.97718438077325" lon="9.248032047268584"><ele>208.0</ele><time>2026-04-05T17:27:08.999Z</time></trkpt><trkpt lat="44.97731977431636" lon="9.248016679145179"><ele>205.0</ele><time>2026-04-05T17:27:09.999Z</time></trkpt><trkpt lat="44.97748012875823" lon="9.2479994165426"><ele>202.0</ele><time>2026-04-05T17:27:10.999Z</time></trkpt><trkpt lat="44.97766637913191" lon="9.247978524667104"><ele>202.0</ele><time>2026-04-05T17:27:11.999Z</time></trkpt><trkpt lat="44.977852285763745" lon="9.247931087468647"><ele>202.0</ele><time>2026-04-05T17:27:12.999Z</time></trkpt><trkpt lat="44.97801418683152" lon="9.247884817083357"><ele>202.0</ele><time>2026-04-05T17:27:13.999Z</time></trkpt><trkpt lat="44.978170071348586" lon="9.247835874089464"><ele>202.0</ele><time>2026-04-05T17:27:14.999Z</time></trkpt><trkpt lat="44.97831109349127" lon="9.247804273917351"><ele>202.0</ele><time>2026-04-05T17:27:15.999Z</time></trkpt><trkpt lat="44.97843699148833" lon="9.247772577889897"><ele>202.0</ele><time>2026-04-05T17:27:16.999Z</time></trkpt><trkpt lat="44.97855985120317" lon="9.247739034029896"><ele>202.0</ele><time>2026-04-05T17:27:17.999Z</time></trkpt><trkpt lat="44.978676642956174" lon="9.247710979391877"><ele>201.25</ele><time>2026-04-05T17:27:18.999Z</time></trkpt><trkpt lat="44.978823180715" lon="9.247664649412794"><ele>200.5</ele><time>2026-04-05T17:27:19.999Z</time></trkpt><trkpt lat="44.978952616443046" lon="9.247628563758298"><ele>199.75</ele><time>2026-04-05T17:27:20.999Z</time></trkpt><trkpt lat="44.97908383411059" lon="9.24758431566908"><ele>199.0</ele><time>2026-04-05T17:27:22Z</time></trkpt><trkpt lat="44.97924031918466" lon="9.247558592411103"><ele>198.33333333333331</ele><time>2026-04-05T17:27:23Z</time></trkpt><trkpt lat="44.97943951150496" lon="9.247542510630309"><ele>197.66666666666669</ele><time>2026-04-05T17:27:24Z</time></trkpt><trkpt lat="44.97961841839523" lon="9.247546076737034"><ele>197.0</ele><time>2026-04-05T17:27:25Z</time></trkpt><trkpt lat="44.97977621507323" lon="9.247555191179153"><ele>197.0</ele><time>2026-04-05T17:27:26Z</time></trkpt><trkpt lat="44.97994554802401" lon="9.247549242716005"><ele>197.0</ele><time>2026-04-05T17:27:27Z</time></trkpt><trkpt lat="44.98009179357856" lon="9.247541493827915"><ele>197.0</ele><time>2026-04-05T17:27:28Z</time></trkpt><trkpt lat="44.980220157584434" lon="9.247540689355025"><ele>197.0</ele><time>2026-04-05T17:27:29Z</time></trkpt><trkpt lat="44.98034142619589" lon="9.247538881566228"><ele>197.0</ele><time>2026-04-05T17:27:30Z</time></trkpt><trkpt lat="44.98045619494423" lon="9.24756093162447"><ele>197.0</ele><time>2026-04-05T17:27:31Z</time></trkpt><trkpt lat="44.980565394710666" lon="9.247529254279751"><ele>197.0</ele><time>2026-04-05T17:27:32Z</time></trkpt><trkpt lat="44.98066440644114" lon="9.247516248150335"><ele>197.0</ele><time>2026-04-05T17:27:33Z</time></trkpt><trkpt lat="44.98076024675951" lon="9.247458021037357"><ele>197.0</ele><time>2026-04-05T17:27:34Z</time></trkpt><trkpt lat="44.98086377469158" lon="9.247365812730019"><ele>198.8</ele><time>2026-04-05T17:27:35Z</time></trkpt><trkpt lat="44.9809520987217" lon="9.247257231581886"><ele>200.6</ele><time>2026-04-05T17:27:36Z</time></trkpt><trkpt lat="44.98103950924471" lon="9.247159514401417"><ele>202.4</ele><time>2026-04-05T17:27:37Z</time></trkpt><trkpt lat="44.981132393137976" lon="9.247075421837188"><ele>204.20000000000002</ele><time>2026-04-05T17:27:38Z</time></trkpt><trkpt lat="44.98123273717424" lon="9.247013852231412"><ele>206.0</ele><time>2026-04-05T17:27:39Z</time></trkpt><trkpt lat="44.98134544604908" lon="9.246993619578618"><ele>206.0</ele><time>2026-04-05T17:27:40Z</time></trkpt><trkpt lat="44.981481252191685" lon="9.24699853615659"><ele>206.0</ele><time>2026-04-05T17:27:41Z</time></trkpt><trkpt lat="44.98164740600471" lon="9.247008248116213"><ele>206.0</ele><time>2026-04-05T17:27:42Z</time></trkpt><trkpt lat="44.981792214722674" lon="9.247025301130815"><ele>206.0</ele><time>2026-04-05T17:27:43Z</time></trkpt><trkpt lat="44.98193053828476" lon="9.247051821621579"><ele>205.66666666666669</ele><time>2026-04-05T17:27:44Z</time></trkpt><trkpt lat="44.982080049797005" lon="9.247106547417891"><ele>205.33333333333331</ele><time>2026-04-05T17:27:45Z</time></trkpt><trkpt lat="44.982230263568596" lon="9.247210962096858"><ele>205.0</ele><time>2026-04-05T17:27:46Z</time></trkpt><trkpt lat="44.982412095392974" lon="9.247343273058965"><ele>199.5</ele><time>2026-04-05T17:27:47Z</time></trkpt><trkpt lat="44.98262898930139" lon="9.247505068976642"><ele>194.0</ele><time>2026-04-05T17:27:48Z</time></trkpt><trkpt lat="44.98286260368339" lon="9.247661465574927"><ele>194.0</ele><time>2026-04-05T17:27:49Z</time></trkpt><trkpt lat="44.98307813743147" lon="9.247815223099316"><ele>194.0</ele><time>2026-04-05T17:27:50Z</time></trkpt><trkpt lat="44.98324667794423" lon="9.247964006314676"><ele>194.0</ele><time>2026-04-05T17:27:51Z</time></trkpt><trkpt lat="44.98340483426198" lon="9.248091844441328"><ele>194.33333333333334</ele><time>2026-04-05T17:27:52Z</time></trkpt><trkpt lat="44.98355644150834" lon="9.248198187962743"><ele>194.66666666666669</ele><time>2026-04-05T17:27:53Z</time></trkpt><trkpt lat="44.9836926676156" lon="9.248297115158786"><ele>195.0</ele><time>2026-04-05T17:27:54Z</time></trkpt><trkpt lat="44.98380865386316" lon="9.248388159728608"><ele>195.0</ele><time>2026-04-05T17:27:55Z</time></trkpt><trkpt lat="44.9839183077347" lon="9.248480709351375"><ele>195.0</ele><time>2026-04-05T17:27:56Z</time></trkpt><trkpt lat="44.984001303376274" lon="9.24860731421103"><ele>195.0</ele><time>2026-04-05T17:27:57Z</time></trkpt><trkpt lat="44.98407108766194" lon="9.248741465897936"><ele>195.0</ele><time>2026-04-05T17:27:58Z</time></trkpt><trkpt lat="44.98414144875293" lon="9.248911702848076"><ele>198.33333333333331</ele><time>2026-04-05T17:27:59Z</time></trkpt><trkpt lat="44.98422244915499" lon="9.2491197711917"><ele>201.66666666666666</ele><time>2026-04-05T17:28:00Z</time></trkpt><trkpt lat="44.984294361444164" lon="9.249318138923561"><ele>205.0</ele><time>2026-04-05T17:28:01Z</time></trkpt><trkpt lat="44.984375821004946" lon="9.24952312436099"><ele>205.0</ele><time>2026-04-05T17:28:02Z</time></trkpt><trkpt lat="44.984472765162835" lon="9.249728417294914"><ele>205.0</ele><time>2026-04-05T17:28:03Z</time></trkpt><trkpt lat="44.98458050860384" lon="9.249926443303204"><ele>205.0</ele><time>2026-04-05T17:28:04Z</time></trkpt><trkpt lat="44.984695914623885" lon="9.250164599955838"><ele>204.66666666666666</ele><time>2026-04-05T17:28:05Z</time></trkpt><trkpt lat="44.9848219396353" lon="9.250394010743788"><ele>204.33333333333331</ele><time>2026-04-05T17:28:06Z</time></trkpt><trkpt lat="44.98494008815413" lon="9.25061377203448"><ele>204.0</ele><time>2026-04-05T17:28:07Z</time></trkpt><trkpt lat="44.98504495018746" lon="9.25084151564529"><ele>204.0</ele><time>2026-04-05T17:28:08Z</time></trkpt><trkpt lat="44.98517526404291" lon="9.251052877999983"><ele>204.0</ele><time>2026-04-05T17:28:09Z</time></trkpt><trkpt lat="44.98529248573897" lon="9.25127538143969"><ele>204.0</ele><time>2026-04-05T17:28:10Z</time></trkpt><trkpt lat="44.98539684458102" lon="9.251488201517846"><ele>200.33333333333331</ele><time>2026-04-05T17:28:11Z</time></trkpt><trkpt lat="44.98550790108463" lon="9.251697263943617"><ele>196.66666666666666</ele><time>2026-04-05T17:28:12Z</time></trkpt><trkpt lat="44.98560472127316" lon="9.251877197676906"><ele>193.0</ele><time>2026-04-05T17:28:13Z</time></trkpt><trkpt lat="44.98569210243398" lon="9.252037293434078"><ele>193.0</ele><time>2026-04-05T17:28:14Z</time></trkpt><trkpt lat="44.9857691763468" lon="9.252175709403653"><ele>193.0</ele><time>2026-04-05T17:28:15Z</time></trkpt><trkpt lat="44.985817139933815" lon="9.252324552175272"><ele>193.0</ele><time>2026-04-05T17:28:16Z</time></trkpt><trkpt lat="44.98587146142183" lon="9.252477383247689"><ele>193.0</ele><time>2026-04-05T17:28:17Z</time></trkpt><trkpt lat="44.98589846348998" lon="9.252695972417966"><ele>192.66666666666666</ele><time>2026-04-05T17:28:18Z</time></trkpt><trkpt lat="44.98591850420716" lon="9.252932175577726"><ele>192.33333333333331</ele><time>2026-04-05T17:28:19Z</time></trkpt><trkpt lat="44.985932032789144" lon="9.253136240895095"><ele>192.0</ele><time>2026-04-05T17:28:20Z</time></trkpt><trkpt lat="44.98594663995355" lon="9.253343003683069"><ele>192.0</ele><time>2026-04-05T17:28:21Z</time></trkpt><trkpt lat="44.98597463788442" lon="9.253545077640675"><ele>192.0</ele><time>2026-04-05T17:28:22Z</time></trkpt><trkpt lat="44.986016952530754" lon="9.25372959157857"><ele>192.0</ele><time>2026-04-05T17:28:23Z</time></trkpt><trkpt lat="44.98606096081927" lon="9.25392175237571"><ele>192.0</ele><time>2026-04-05T17:28:24Z</time></trkpt><trkpt lat="44.986149753844636" lon="9.254072573097945"><ele>191.0</ele><time>2026-04-05T17:28:24.999Z</time></trkpt><trkpt lat="44.98623833812712" lon="9.25422178860547"><ele>190.0</ele><time>2026-04-05T17:28:25.999Z</time></trkpt><trkpt lat="44.9863412288385" lon="9.25435212449796"><ele>189.0</ele><time>2026-04-05T17:28:26.999Z</time></trkpt><trkpt lat="44.986470961121825" lon="9.254485041868753"><ele>188.0</ele><time>2026-04-05T17:28:27.999Z</time></trkpt><trkpt lat="44.986628250825966" lon="9.254627844664"><ele>188.0</ele><time>2026-04-05T17:28:28.999Z</time></trkpt><trkpt lat="44.98677246075057" lon="9.254750004850834"><ele>188.0</ele><time>2026-04-05T17:28:29.999Z</time></trkpt><trkpt lat="44.9869052253809" lon="9.254873653436505"><ele>188.0</ele><time>2026-04-05T17:28:30.999Z</time></trkpt><trkpt lat="44.98703614118163" lon="9.254995199772113"><ele>188.0</ele><time>2026-04-05T17:28:31.999Z</time></trkpt><trkpt lat="44.98716213345272" lon="9.25511070500911"><ele>188.0</ele><time>2026-04-05T17:28:32.999Z</time></trkpt><trkpt lat="44.98727960032182" lon="9.255216069187497"><ele>188.0</ele><time>2026-04-05T17:28:33.999Z</time></trkpt><trkpt lat="44.98738159874535" lon="9.25533941270591"><ele>188.0</ele><time>2026-04-05T17:28:34.999Z</time></trkpt><trkpt lat="44.987455217199056" lon="9.255516005795855"><ele>188.0</ele><time>2026-04-05T17:28:35.999Z</time></trkpt><trkpt lat="44.98751883036107" lon="9.255694796489692"><ele>188.0</ele><time>2026-04-05T17:28:36.999Z</time></trkpt><trkpt lat="44.98757031587789" lon="9.25587816710044"><ele>188.0</ele><time>2026-04-05T17:28:37.999Z</time></trkpt><trkpt lat="44.9876160322438" lon="9.25603978869538"><ele>188.0</ele><time>2026-04-05T17:28:38.999Z</time></trkpt><trkpt lat="44.9876987795981" lon="9.25620296322147"><ele>188.0</ele><time>2026-04-05T17:28:39.999Z</time></trkpt><trkpt lat="44.98781279648773" lon="9.256381990110176"><ele>188.0</ele><time>2026-04-05T17:28:40.999Z</time></trkpt><trkpt lat="44.98795978552622" lon="9.256587372690566"><ele>188.0</ele><time>2026-04-05T17:28:41.999Z</time></trkpt><trkpt lat="44.988103235478704" lon="9.25678412486059"><ele>186.0</ele><time>2026-04-05T17:28:42.999Z</time></trkpt><trkpt lat="44.98822125083837" lon="9.25695914616674"><ele>184.0</ele><time>2026-04-05T17:28:43.999Z</time></trkpt><trkpt lat="44.98834274873209" lon="9.257133038504413"><ele>182.0</ele><time>2026-04-05T17:28:44.999Z</time></trkpt><trkpt lat="44.98846795641704" lon="9.257311891697805"><ele>181.66666666666666</ele><time>2026-04-05T17:28:45.999Z</time></trkpt><trkpt lat="44.988584919678814" lon="9.257470322896575"><ele>181.33333333333334</ele><time>2026-04-05T17:28:46.999Z</time></trkpt><trkpt lat="44.98870476425096" lon="9.25760051322327"><ele>181.0</ele><time>2026-04-05T17:28:47.999Z</time></trkpt><trkpt lat="44.988815041531126" lon="9.257718758168187"><ele>181.0</ele><time>2026-04-05T17:28:48.999Z</time></trkpt><trkpt lat="44.98892464449794" lon="9.257815908627066"><ele>181.0</ele><time>2026-04-05T17:28:49.999Z</time></trkpt><trkpt lat="44.989055655652265" lon="9.257896536351641"><ele>181.0</ele><time>2026-04-05T17:28:50.999Z</time></trkpt><trkpt lat="44.98920844747355" lon="9.257954653959535"><ele>181.0</ele><time>2026-04-05T17:28:51.999Z</time></trkpt><trkpt lat="44.989371835083624" lon="9.258011080405046"><ele>180.33333333333334</ele><time>2026-04-05T17:28:52.999Z</time></trkpt><trkpt lat="44.989522438417254" lon="9.25806422738729"><ele>179.66666666666666</ele><time>2026-04-05T17:28:53.999Z</time></trkpt><trkpt lat="44.98966969927357" lon="9.25814528881906"><ele>179.0</ele><time>2026-04-05T17:28:54.999Z</time></trkpt><trkpt lat="44.9898012546266" lon="9.258201891009115"><ele>179.0</ele><time>2026-04-05T17:28:55.999Z</time></trkpt><trkpt lat="44.989930976509825" lon="9.25824682232875"><ele>179.0</ele><time>2026-04-05T17:28:56.999Z</time></trkpt><trkpt lat="44.99004296371135" lon="9.258345541032277"><ele>179.0</ele><time>2026-04-05T17:28:57.999Z</time></trkpt><trkpt lat="44.990172458490015" lon="9.258452325407783"><ele>179.0</ele><time>2026-04-05T17:28:58.999Z</time></trkpt><trkpt lat="44.99031752935821" lon="9.258612803667699"><ele>177.66666666666666</ele><time>2026-04-05T17:28:59.999Z</time></trkpt><trkpt lat="44.990467447077066" lon="9.25876438266772"><ele>176.33333333333334</ele><time>2026-04-05T17:29:00.999Z</time></trkpt><trkpt lat="44.99058766403088" lon="9.258915771509095"><ele>175.0</ele><time>2026-04-05T17:29:01.999Z</time></trkpt><trkpt lat="44.99070400925702" lon="9.259052028995796"><ele>175.0</ele><time>2026-04-05T17:29:02.999Z</time></trkpt><trkpt lat="44.990812021595644" lon="9.259184604763965"><ele>175.0</ele><time>2026-04-05T17:29:03.999Z</time></trkpt><trkpt lat="44.99091634636162" lon="9.259295855540184"><ele>175.0</ele><time>2026-04-05T17:29:04.999Z</time></trkpt><trkpt lat="44.99101357755195" lon="9.259395555748998"><ele>175.0</ele><time>2026-04-05T17:29:05.999Z</time></trkpt><trkpt lat="44.9911425451353" lon="9.259429542628403"><ele>178.66666666666669</ele><time>2026-04-05T17:29:06.999Z</time></trkpt><trkpt lat="44.99130477725014" lon="9.259458793941521"><ele>182.33333333333334</ele><time>2026-04-05T17:29:07.999Z</time></trkpt><trkpt lat="44.99146873231164" lon="9.259476062639228"><ele>186.0</ele><time>2026-04-05T17:29:08.999Z</time></trkpt><trkpt lat="44.99162020637412" lon="9.259492809686645"><ele>189.66666666666669</ele><time>2026-04-05T17:29:09.999Z</time></trkpt><trkpt lat="44.99181957061071" lon="9.259544370001242"><ele>193.33333333333334</ele><time>2026-04-05T17:29:10.999Z</time></trkpt><trkpt lat="44.992045137046276" lon="9.259645708275709"><ele>197.0</ele><time>2026-04-05T17:29:11.999Z</time></trkpt><trkpt lat="44.992237353334765" lon="9.259750970412993"><ele>191.66666666666669</ele><time>2026-04-05T17:29:12.999Z</time></trkpt><trkpt lat="44.99240068524911" lon="9.259861137889736"><ele>186.33333333333334</ele><time>2026-04-05T17:29:13.999Z</time></trkpt><trkpt lat="44.992565406979736" lon="9.259946254747215"><ele>181.0</ele><time>2026-04-05T17:29:14.999Z</time></trkpt><trkpt lat="44.99272389538841" lon="9.260022244287535"><ele>181.0</ele><time>2026-04-05T17:29:15.999Z</time></trkpt><trkpt lat="44.99289407259873" lon="9.26009133315439"><ele>181.0</ele><time>2026-04-05T17:29:16.999Z</time></trkpt><trkpt lat="44.99309932907402" lon="9.260128314072036"><ele>181.0</ele><time>2026-04-05T17:29:17.999Z</time></trkpt><trkpt lat="44.993280720004094" lon="9.260168465950919"><ele>182.25</ele><time>2026-04-05T17:29:18.999Z</time></trkpt><trkpt lat="44.99343838484795" lon="9.260210585011357"><ele>183.5</ele><time>2026-04-05T17:29:19.999Z</time></trkpt><trkpt lat="44.9935702041434" lon="9.260246978219463"><ele>184.75</ele><time>2026-04-05T17:29:20.999Z</time></trkpt><trkpt lat="44.99367924018181" lon="9.260321386333164"><ele>186.0</ele><time>2026-04-05T17:29:21.999Z</time></trkpt><trkpt lat="44.993768983260374" lon="9.26040447225139"><ele>186.0</ele><time>2026-04-05T17:29:22.999Z</time></trkpt><trkpt lat="44.99386890500972" lon="9.260524411872792"><ele>186.0</ele><time>2026-04-05T17:29:23.999Z</time></trkpt><trkpt lat="44.993930180577046" lon="9.260718889863229"><ele>186.0</ele><time>2026-04-05T17:29:24.999Z</time></trkpt><trkpt lat="44.993995743733166" lon="9.260907994906153"><ele>186.0</ele><time>2026-04-05T17:29:25.999Z</time></trkpt><trkpt lat="44.994059212305665" lon="9.261043446205813"><ele>185.33333333333334</ele><time>2026-04-05T17:29:26.999Z</time></trkpt><trkpt lat="44.99413509179644" lon="9.26119063406302"><ele>184.66666666666669</ele><time>2026-04-05T17:29:28Z</time></trkpt><trkpt lat="44.994242807723836" lon="9.261368928956431"><ele>184.0</ele><time>2026-04-05T17:29:29Z</time></trkpt><trkpt lat="44.9943805508107" lon="9.261516922583848"><ele>181.0</ele><time>2026-04-05T17:29:30Z</time></trkpt><trkpt lat="44.9945040995225" lon="9.261676639151448"><ele>178.0</ele><time>2026-04-05T17:29:31Z</time></trkpt><trkpt lat="44.99463086229173" lon="9.261835288213916"><ele>175.0</ele><time>2026-04-05T17:29:32Z</time></trkpt><trkpt lat="44.99474565122188" lon="9.261988408614489"><ele>175.0</ele><time>2026-04-05T17:29:33Z</time></trkpt><trkpt lat="44.99485728826341" lon="9.262147276203919"><ele>175.0</ele><time>2026-04-05T17:29:34Z</time></trkpt><trkpt lat="44.99497795240125" lon="9.26230381300074"><ele>175.0</ele><time>2026-04-05T17:29:35Z</time></trkpt><trkpt lat="44.99511240007969" lon="9.262448663964573"><ele>175.0</ele><time>2026-04-05T17:29:36Z</time></trkpt><trkpt lat="44.99524263344681" lon="9.262583194898424"><ele>175.0</ele><time>2026-04-05T17:29:37Z</time></trkpt><trkpt lat="44.99536405391409" lon="9.26270490049936"><ele>175.0</ele><time>2026-04-05T17:29:38Z</time></trkpt><trkpt lat="44.995478910409325" lon="9.262812387675694"><ele>175.0</ele><time>2026-04-05T17:29:39Z</time></trkpt><trkpt lat="44.99559338390157" lon="9.262900828777171"><ele>175.0</ele><time>2026-04-05T17:29:40Z</time></trkpt><trkpt lat="44.99573382406086" lon="9.262961330130482"><ele>175.0</ele><time>2026-04-05T17:29:41Z</time></trkpt><trkpt lat="44.995898346509804" lon="9.26303385695698"><ele>175.0</ele><time>2026-04-05T17:29:42Z</time></trkpt><trkpt lat="44.99609321451315" lon="9.263054760828473"><ele>176.0</ele><time>2026-04-05T17:29:43Z</time></trkpt><trkpt lat="44.99627254241547" lon="9.263091473709126"><ele>177.0</ele><time>2026-04-05T17:29:44Z</time></trkpt><trkpt lat="44.99642503627796" lon="9.263129688948657"><ele>178.0</ele><time>2026-04-05T17:29:45Z</time></trkpt><trkpt lat="44.996561843014966" lon="9.26317314321931"><ele>173.0</ele><time>2026-04-05T17:29:46Z</time></trkpt><trkpt lat="44.996690114292335" lon="9.263204898771491"><ele>168.0</ele><time>2026-04-05T17:29:47Z</time></trkpt><trkpt lat="44.99680710937685" lon="9.26320895985259"><ele>163.0</ele><time>2026-04-05T17:29:48Z</time></trkpt><trkpt lat="44.99692719204269" lon="9.263202059943419"><ele>158.0</ele><time>2026-04-05T17:29:49Z</time></trkpt><trkpt lat="44.99704005249914" lon="9.263140298251141"><ele>158.0</ele><time>2026-04-05T17:29:50Z</time></trkpt><trkpt lat="44.99715832144486" lon="9.26302636463451"><ele>158.0</ele><time>2026-04-05T17:29:51Z</time></trkpt><trkpt lat="44.9972759284657" lon="9.262867367537401"><ele>158.0</ele><time>2026-04-05T17:29:52Z</time></trkpt><trkpt lat="44.99737695605341" lon="9.262726896355035"><ele>158.0</ele><time>2026-04-05T17:29:53Z</time></trkpt><trkpt lat="44.997508595376324" lon="9.262600117025194"><ele>158.0</ele><time>2026-04-05T17:29:54Z</time></trkpt><trkpt lat="44.99760873638454" lon="9.26251949009036"><ele>158.0</ele><time>2026-04-05T17:29:55Z</time></trkpt><trkpt lat="44.99773097396732" lon="9.262454248070094"><ele>158.0</ele><time>2026-04-05T17:29:56Z</time></trkpt><trkpt lat="44.9978626732713" lon="9.262389257090623"><ele>158.0</ele><time>2026-04-05T17:29:57Z</time></trkpt><trkpt lat="44.99801217672362" lon="9.262365822812598"><ele>158.0</ele><time>2026-04-05T17:29:58Z</time></trkpt><trkpt lat="44.99817747541124" lon="9.262369880281538"><ele>158.0</ele><time>2026-04-05T17:29:59Z</time></trkpt><trkpt lat="44.99835214942713" lon="9.262383857962677"><ele>158.0</ele><time>2026-04-05T17:30:00Z</time></trkpt><trkpt lat="44.998537186095845" lon="9.262387041651206"><ele>157.66666666666666</ele><time>2026-04-05T17:30:01Z</time></trkpt><trkpt lat="44.99872239553969" lon="9.262386506960313"><ele>157.33333333333334</ele><time>2026-04-05T17:30:02Z</time></trkpt><trkpt lat="44.99890960425082" lon="9.262392969537402"><ele>157.0</ele><time>2026-04-05T17:30:03Z</time></trkpt><trkpt lat="44.999126529021744" lon="9.262386584514262"><ele>156.66666666666669</ele><time>2026-04-05T17:30:04Z</time></trkpt><trkpt lat="44.99932778552234" lon="9.262408013977762"><ele>156.33333333333334</ele><time>2026-04-05T17:30:05Z</time></trkpt><trkpt lat="44.99951036464832" lon="9.262412459030724"><ele>156.0</ele><time>2026-04-05T17:30:06Z</time></trkpt><trkpt lat="44.999685889214646" lon="9.262420101518506"><ele>156.0</ele><time>2026-04-05T17:30:07Z</time></trkpt><trkpt lat="44.999839028434735" lon="9.262424958448378"><ele>156.0</ele><time>2026-04-05T17:30:08Z</time></trkpt><trkpt lat="44.99997866614757" lon="9.26242756100183"><ele>156.0</ele><time>2026-04-05T17:30:09Z</time></trkpt><trkpt lat="45.00011041732823" lon="9.262427561003463"><ele>156.0</ele><time>2026-04-05T17:30:10Z</time></trkpt><trkpt lat="45.0002443214238" lon="9.26242756100319"><ele>156.0</ele><time>2026-04-05T17:30:11Z</time></trkpt><trkpt lat="45.000405537176064" lon="9.262402489166675"><ele>156.0</ele><time>2026-04-05T17:30:12Z</time></trkpt><trkpt lat="45.00059058074687" lon="9.262345161050673"><ele>156.0</ele><time>2026-04-05T17:30:13Z</time></trkpt><trkpt lat="45.00077158942721" lon="9.262249963224134"><ele>156.0</ele><time>2026-04-05T17:30:14Z</time></trkpt><trkpt lat="45.00095289930108" lon="9.262134919970963"><ele>156.0</ele><time>2026-04-05T17:30:15Z</time></trkpt><trkpt lat="45.00114127892905" lon="9.262004458051495"><ele>156.0</ele><time>2026-04-05T17:30:16Z</time></trkpt><trkpt lat="45.001315756173" lon="9.261873224695956"><ele>156.0</ele><time>2026-04-05T17:30:17Z</time></trkpt><trkpt lat="45.00145395121511" lon="9.261768862422175"><ele>156.0</ele><time>2026-04-05T17:30:18Z</time></trkpt><trkpt lat="45.00158486079968" lon="9.261670687851245"><ele>156.0</ele><time>2026-04-05T17:30:19Z</time></trkpt><trkpt lat="45.00172782168801" lon="9.261544317336837"><ele>154.33333333333334</ele><time>2026-04-05T17:30:20Z</time></trkpt><trkpt lat="45.00188008187118" lon="9.261457612833293"><ele>152.66666666666669</ele><time>2026-04-05T17:30:21Z</time></trkpt><trkpt lat="45.002057800953736" lon="9.261329367140865"><ele>151.0</ele><time>2026-04-05T17:30:22Z</time></trkpt><trkpt lat="45.00226084353513" lon="9.261181643431552"><ele>151.0</ele><time>2026-04-05T17:30:23Z</time></trkpt><trkpt lat="45.002461350118686" lon="9.26103576479232"><ele>151.0</ele><time>2026-04-05T17:30:24Z</time></trkpt><trkpt lat="45.00266028194009" lon="9.26089103186994"><ele>151.0</ele><time>2026-04-05T17:30:25Z</time></trkpt><trkpt lat="45.002851274685725" lon="9.260751823932921"><ele>151.33333333333334</ele><time>2026-04-05T17:30:26Z</time></trkpt><trkpt lat="45.00304067809511" lon="9.26061260836521"><ele>151.66666666666666</ele><time>2026-04-05T17:30:27Z</time></trkpt><trkpt lat="45.003226320740964" lon="9.260476157055635"><ele>152.0</ele><time>2026-04-05T17:30:28Z</time></trkpt><trkpt lat="45.00342251490766" lon="9.26033195014978"><ele>151.0</ele><time>2026-04-05T17:30:29Z</time></trkpt><trkpt lat="45.00360698314826" lon="9.260171713064782"><ele>150.0</ele><time>2026-04-05T17:30:30Z</time></trkpt><trkpt lat="45.00379531481375" lon="9.260057304919034"><ele>149.0</ele><time>2026-04-05T17:30:30.999Z</time></trkpt><trkpt lat="45.00397887053179" lon="9.259921540669477"><ele>149.0</ele><time>2026-04-05T17:30:31.999Z</time></trkpt><trkpt lat="45.004144430283695" lon="9.259799086849897"><ele>149.0</ele><time>2026-04-05T17:30:32.999Z</time></trkpt><trkpt lat="45.00430570300313" lon="9.259679803871448"><ele>149.0</ele><time>2026-04-05T17:30:33.999Z</time></trkpt><trkpt lat="45.00445603409224" lon="9.259566816687645"><ele>149.66666666666666</ele><time>2026-04-05T17:30:34.999Z</time></trkpt><trkpt lat="45.00459189804795" lon="9.259463000665146"><ele>150.33333333333334</ele><time>2026-04-05T17:30:35.999Z</time></trkpt><trkpt lat="45.004725723211685" lon="9.259353685826381"><ele>151.0</ele><time>2026-04-05T17:30:36.999Z</time></trkpt><trkpt lat="45.00484737212086" lon="9.259250484134835"><ele>151.0</ele><time>2026-04-05T17:30:37.999Z</time></trkpt><trkpt lat="45.00497153837459" lon="9.259133025446301"><ele>151.0</ele><time>2026-04-05T17:30:38.999Z</time></trkpt><trkpt lat="45.00510578456573" lon="9.25898841954656"><ele>151.0</ele><time>2026-04-05T17:30:39.999Z</time></trkpt><trkpt lat="45.00524471424923" lon="9.258800907742726"><ele>150.0</ele><time>2026-04-05T17:30:40.999Z</time></trkpt><trkpt lat="45.0053866000302" lon="9.25857226160727"><ele>149.0</ele><time>2026-04-05T17:30:41.999Z</time></trkpt><trkpt lat="45.005517464849845" lon="9.258335911619092"><ele>148.0</ele><time>2026-04-05T17:30:42.999Z</time></trkpt><trkpt lat="45.00563361802141" lon="9.25811980163111"><ele>148.33333333333334</ele><time>2026-04-05T17:30:43.999Z</time></trkpt><trkpt lat="45.00572855701129" lon="9.25790843146727"><ele>148.66666666666666</ele><time>2026-04-05T17:30:44.999Z</time></trkpt><trkpt lat="45.00586161662417" lon="9.257712622022206"><ele>149.0</ele><time>2026-04-05T17:30:45.999Z</time></trkpt><trkpt lat="45.00604800020989" lon="9.257498087069298"><ele>146.0</ele><time>2026-04-05T17:30:46.999Z</time></trkpt><trkpt lat="45.006287404641185" lon="9.25729288421632"><ele>143.0</ele><time>2026-04-05T17:30:47.999Z</time></trkpt><trkpt lat="45.00653019546797" lon="9.25703154816514"><ele>141.5</ele><time>2026-04-05T17:30:48.999Z</time></trkpt><trkpt lat="45.006776408199826" lon="9.256795357503899"><ele>140.0</ele><time>2026-04-05T17:30:49.999Z</time></trkpt><trkpt lat="45.00698294023656" lon="9.256595897801166"><ele>139.66666666666666</ele><time>2026-04-05T17:30:50.999Z</time></trkpt><trkpt lat="45.0071622029022" lon="9.256420992233071"><ele>139.33333333333334</ele><time>2026-04-05T17:30:51.999Z</time></trkpt><trkpt lat="45.00733439183014" lon="9.25625512888881"><ele>139.0</ele><time>2026-04-05T17:30:52.999Z</time></trkpt><trkpt lat="45.00749435679287" lon="9.256106095042883"><ele>139.0</ele><time>2026-04-05T17:30:53.999Z</time></trkpt><trkpt lat="45.007656435018944" lon="9.255944583735818"><ele>139.0</ele><time>2026-04-05T17:30:54.999Z</time></trkpt><trkpt lat="45.007830521478105" lon="9.255784208228208"><ele>139.0</ele><time>2026-04-05T17:30:55.999Z</time></trkpt><trkpt lat="45.00800423612485" lon="9.2556125747305"><ele>139.33333333333334</ele><time>2026-04-05T17:30:56.999Z</time></trkpt><trkpt lat="45.008180527351485" lon="9.255431508564012"><ele>139.66666666666666</ele><time>2026-04-05T17:30:57.999Z</time></trkpt><trkpt lat="45.008362154746614" lon="9.255262689503724"><ele>140.0</ele><time>2026-04-05T17:30:58.999Z</time></trkpt><trkpt lat="45.008551434965106" lon="9.255084870941374"><ele>140.0</ele><time>2026-04-05T17:30:59.999Z</time></trkpt><trkpt lat="45.008742318884984" lon="9.254899321853115"><ele>140.0</ele><time>2026-04-05T17:31:00.999Z</time></trkpt><trkpt lat="45.00891317116914" lon="9.254743214718967"><ele>140.0</ele><time>2026-04-05T17:31:01.999Z</time></trkpt><trkpt lat="45.009066677537106" lon="9.254587311693786"><ele>139.66666666666666</ele><time>2026-04-05T17:31:02.999Z</time></trkpt><trkpt lat="45.00921414838489" lon="9.254456344893592"><ele>139.33333333333334</ele><time>2026-04-05T17:31:03.999Z</time></trkpt><trkpt lat="45.0093537933074" lon="9.254307977948999"><ele>139.0</ele><time>2026-04-05T17:31:04.999Z</time></trkpt><trkpt lat="45.009487861003215" lon="9.25417627083282"><ele>139.0</ele><time>2026-04-05T17:31:05.999Z</time></trkpt><trkpt lat="45.00961360119674" lon="9.254059107661417"><ele>139.0</ele><time>2026-04-05T17:31:06.999Z</time></trkpt><trkpt lat="45.009735555329634" lon="9.253940464638005"><ele>139.0</ele><time>2026-04-05T17:31:07.999Z</time></trkpt><trkpt lat="45.00987117691686" lon="9.25381045295488"><ele>138.66666666666669</ele><time>2026-04-05T17:31:08.999Z</time></trkpt><trkpt lat="45.010008186094396" lon="9.253672528508712"><ele>138.33333333333334</ele><time>2026-04-05T17:31:09.999Z</time></trkpt><trkpt lat="45.010135660898165" lon="9.253543859632089"><ele>138.0</ele><time>2026-04-05T17:31:10.999Z</time></trkpt><trkpt lat="45.01026019424712" lon="9.253416344242082"><ele>138.0</ele><time>2026-04-05T17:31:11.999Z</time></trkpt><trkpt lat="45.010399124074794" lon="9.25330436761283"><ele>138.0</ele><time>2026-04-05T17:31:12.999Z</time></trkpt><trkpt lat="45.01053930523621" lon="9.253169040097175"><ele>138.0</ele><time>2026-04-05T17:31:13.999Z</time></trkpt><trkpt lat="45.01068072596747" lon="9.25303251392747"><ele>137.75</ele><time>2026-04-05T17:31:14.999Z</time></trkpt><trkpt lat="45.01081317792318" lon="9.252904646384758"><ele>137.5</ele><time>2026-04-05T17:31:15.999Z</time></trkpt><trkpt lat="45.01093172392964" lon="9.252791324836855"><ele>137.25</ele><time>2026-04-05T17:31:16.999Z</time></trkpt><trkpt lat="45.011045882318655" lon="9.25268229636117"><ele>137.0</ele><time>2026-04-05T17:31:17.999Z</time></trkpt><trkpt lat="45.011159336781375" lon="9.252575042066765"><ele>137.0</ele><time>2026-04-05T17:31:18.999Z</time></trkpt><trkpt lat="45.01125523633258" lon="9.252461598414458"><ele>137.0</ele><time>2026-04-05T17:31:19.999Z</time></trkpt><trkpt lat="45.01135546345305" lon="9.252382120958858"><ele>137.0</ele><time>2026-04-05T17:31:20.999Z</time></trkpt><trkpt lat="45.0114614213936" lon="9.252300634097518"><ele>137.0</ele><time>2026-04-05T17:31:21.999Z</time></trkpt><trkpt lat="45.01158083084037" lon="9.25222096536924"><ele>136.75</ele><time>2026-04-05T17:31:22.999Z</time></trkpt><trkpt lat="45.011707133244364" lon="9.252121632126748"><ele>136.5</ele><time>2026-04-05T17:31:23.999Z</time></trkpt><trkpt lat="45.011836513318066" lon="9.25202911641764"><ele>136.25</ele><time>2026-04-05T17:31:24.999Z</time></trkpt><trkpt lat="45.01196112665736" lon="9.251959631038513"><ele>136.0</ele><time>2026-04-05T17:31:25.999Z</time></trkpt><trkpt lat="45.012088614723645" lon="9.251898082077869"><ele>136.0</ele><time>2026-04-05T17:31:26.999Z</time></trkpt><trkpt lat="45.01222142545651" lon="9.25184840195438"><ele>136.0</ele><time>2026-04-05T17:31:27.999Z</time></trkpt><trkpt lat="45.012356293361826" lon="9.25180070969511"><ele>136.0</ele><time>2026-04-05T17:31:28.999Z</time></trkpt><trkpt lat="45.01249186822606" lon="9.251764282804944"><ele>136.0</ele><time>2026-04-05T17:31:29.999Z</time></trkpt><trkpt lat="45.01262507195368" lon="9.25173608027077"><ele>135.33333333333334</ele><time>2026-04-05T17:31:30.999Z</time></trkpt><trkpt lat="45.01277736801005" lon="9.251727145271987"><ele>134.66666666666666</ele><time>2026-04-05T17:31:31.999Z</time></trkpt><trkpt lat="45.01294814182904" lon="9.251716879359588"><ele>134.0</ele><time>2026-04-05T17:31:32.999Z</time></trkpt><trkpt lat="45.013120513275965" lon="9.251713745951811"><ele>134.0</ele><time>2026-04-05T17:31:34Z</time></trkpt><trkpt lat="45.0132783185788" lon="9.251715565872427"><ele>134.0</ele><time>2026-04-05T17:31:35Z</time></trkpt><trkpt lat="45.01344204609617" lon="9.251719846862619"><ele>134.0</ele><time>2026-04-05T17:31:36Z</time></trkpt><trkpt lat="45.01366641864652" lon="9.251723007941614"><ele>133.66666666666666</ele><time>2026-04-05T17:31:37Z</time></trkpt><trkpt lat="45.01390218019711" lon="9.251721343885373"><ele>133.33333333333334</ele><time>2026-04-05T17:31:38Z</time></trkpt><trkpt lat="45.01410237326108" lon="9.25173385561612"><ele>133.0</ele><time>2026-04-05T17:31:39Z</time></trkpt><trkpt lat="45.01428297480047" lon="9.251743857653896"><ele>132.0</ele><time>2026-04-05T17:31:40Z</time></trkpt><trkpt lat="45.014454873216536" lon="9.251756335582423"><ele>131.0</ele><time>2026-04-05T17:31:41Z</time></trkpt><trkpt lat="45.014614049795966" lon="9.251767594748388"><ele>130.0</ele><time>2026-04-05T17:31:42Z</time></trkpt><trkpt lat="45.014762219651494" lon="9.25178686745895"><ele>130.0</ele><time>2026-04-05T17:31:43Z</time></trkpt><trkpt lat="45.014918872869764" lon="9.251810374493271"><ele>130.0</ele><time>2026-04-05T17:31:44Z</time></trkpt><trkpt lat="45.015082124182356" lon="9.251846057525169"><ele>130.0</ele><time>2026-04-05T17:31:45Z</time></trkpt><trkpt lat="45.01524384020833" lon="9.251902948036417"><ele>129.75</ele><time>2026-04-05T17:31:46Z</time></trkpt><trkpt lat="45.01537883106501" lon="9.251956083631947"><ele>129.5</ele><time>2026-04-05T17:31:47Z</time></trkpt><trkpt lat="45.01549262304972" lon="9.25200382924159"><ele>129.25</ele><time>2026-04-05T17:31:48Z</time></trkpt><trkpt lat="45.01559636817833" lon="9.252060326460194"><ele>129.0</ele><time>2026-04-05T17:31:49Z</time></trkpt><trkpt lat="45.01570291798243" lon="9.252117123830635"><ele>129.0</ele><time>2026-04-05T17:31:50Z</time></trkpt><trkpt lat="45.01583581012383" lon="9.2521944369791"><ele>129.0</ele><time>2026-04-05T17:31:51Z</time></trkpt><trkpt lat="45.015984810186076" lon="9.252281763535965"><ele>129.0</ele><time>2026-04-05T17:31:52Z</time></trkpt><trkpt lat="45.01614106711812" lon="9.252362872408499"><ele>129.0</ele><time>2026-04-05T17:31:53Z</time></trkpt><trkpt lat="45.01629942824186" lon="9.252439164901443"><ele>129.0</ele><time>2026-04-05T17:31:54Z</time></trkpt><trkpt lat="45.01644100281934" lon="9.252513078241936"><ele>129.0</ele><time>2026-04-05T17:31:55Z</time></trkpt><trkpt lat="45.016578447626216" lon="9.25258066490072"><ele>128.5</ele><time>2026-04-05T17:31:56Z</time></trkpt><trkpt lat="45.01669946465125" lon="9.252644716935107"><ele>128.0</ele><time>2026-04-05T17:31:57Z</time></trkpt><trkpt lat="45.01680846280844" lon="9.252706381226742"><ele>127.5</ele><time>2026-04-05T17:31:58Z</time></trkpt><trkpt lat="45.01691059796488" lon="9.252748520210224"><ele>127.0</ele><time>2026-04-05T17:31:59Z</time></trkpt><trkpt lat="45.01701835459664" lon="9.252785244616655"><ele>127.0</ele><time>2026-04-05T17:32:00Z</time></trkpt><trkpt lat="45.017147443085115" lon="9.252822120829054"><ele>127.0</ele><time>2026-04-05T17:32:01Z</time></trkpt><trkpt lat="45.017283617177924" lon="9.252848655159971"><ele>127.0</ele><time>2026-04-05T17:32:02Z</time></trkpt><trkpt lat="45.01745908649588" lon="9.252853754166688"><ele>127.0</ele><time>2026-04-05T17:32:03Z</time></trkpt><trkpt lat="45.01766673446959" lon="9.252833957683494"><ele>126.33333333333334</ele><time>2026-04-05T17:32:04Z</time></trkpt><trkpt lat="45.01784631521216" lon="9.25280167444266"><ele>125.66666666666666</ele><time>2026-04-05T17:32:05Z</time></trkpt><trkpt lat="45.01800407594131" lon="9.252769934951953"><ele>125.0</ele><time>2026-04-05T17:32:06Z</time></trkpt><trkpt lat="45.01815596905506" lon="9.252745951031569"><ele>125.0</ele><time>2026-04-05T17:32:07Z</time></trkpt><trkpt lat="45.018286027347266" lon="9.252727499925985"><ele>125.0</ele><time>2026-04-05T17:32:08Z</time></trkpt><trkpt lat="45.01840700871499" lon="9.25270898047914"><ele>125.0</ele><time>2026-04-05T17:32:09Z</time></trkpt><trkpt lat="45.01852049374428" lon="9.252682167820597"><ele>125.0</ele><time>2026-04-05T17:32:10Z</time></trkpt><trkpt lat="45.01866222112543" lon="9.252657404098718"><ele>125.0</ele><time>2026-04-05T17:32:11Z</time></trkpt><trkpt lat="45.01883163596949" lon="9.252624289163684"><ele>125.0</ele><time>2026-04-05T17:32:12Z</time></trkpt><trkpt lat="45.01902362709151" lon="9.25261789243575"><ele>125.0</ele><time>2026-04-05T17:32:13Z</time></trkpt><trkpt lat="45.01923347371322" lon="9.252644912746936"><ele>125.0</ele><time>2026-04-05T17:32:14Z</time></trkpt><trkpt lat="45.01944755582283" lon="9.252704201468237"><ele>125.0</ele><time>2026-04-05T17:32:15Z</time></trkpt><trkpt lat="45.01962688772068" lon="9.252753164711677"><ele>125.0</ele><time>2026-04-05T17:32:16Z</time></trkpt><trkpt lat="45.01981117268217" lon="9.252786851724203"><ele>125.33333333333333</ele><time>2026-04-05T17:32:17Z</time></trkpt><trkpt lat="45.01998420038539" lon="9.252810452646868"><ele>125.66666666666666</ele><time>2026-04-05T17:32:18Z</time></trkpt><trkpt lat="45.02015048638077" lon="9.252827881513108"><ele>126.0</ele><time>2026-04-05T17:32:19Z</time></trkpt><trkpt lat="45.02030097139186" lon="9.252858966431956"><ele>126.0</ele><time>2026-04-05T17:32:20Z</time></trkpt><trkpt lat="45.020450595143046" lon="9.25287005224171"><ele>126.0</ele><time>2026-04-05T17:32:21Z</time></trkpt><trkpt lat="45.0206052696239" lon="9.252910591676912"><ele>126.0</ele><time>2026-04-05T17:32:22Z</time></trkpt><trkpt lat="45.020753410542575" lon="9.252936607892646"><ele>126.0</ele><time>2026-04-05T17:32:23Z</time></trkpt><trkpt lat="45.02089162254204" lon="9.252969553555186"><ele>126.0</ele><time>2026-04-05T17:32:24Z</time></trkpt><trkpt lat="45.02102831088976" lon="9.253002412614098"><ele>126.0</ele><time>2026-04-05T17:32:25Z</time></trkpt><trkpt lat="45.0211702036343" lon="9.253068170219617"><ele>126.0</ele><time>2026-04-05T17:32:26Z</time></trkpt><trkpt lat="45.021327628905595" lon="9.253132303682854"><ele>125.0</ele><time>2026-04-05T17:32:27Z</time></trkpt><trkpt lat="45.02151881423981" lon="9.25324098278385"><ele>124.0</ele><time>2026-04-05T17:32:28Z</time></trkpt><trkpt lat="45.021718497983805" lon="9.253326932306068"><ele>123.0</ele><time>2026-04-05T17:32:29Z</time></trkpt><trkpt lat="45.021901217229136" lon="9.253398638572152"><ele>123.0</ele><time>2026-04-05T17:32:30Z</time></trkpt><trkpt lat="45.022109526582184" lon="9.253482559047189"><ele>123.0</ele><time>2026-04-05T17:32:31Z</time></trkpt><trkpt lat="45.02235743016905" lon="9.253517225232747"><ele>122.5</ele><time>2026-04-05T17:32:32Z</time></trkpt><trkpt lat="45.022613066367775" lon="9.253530133497778"><ele>122.0</ele><time>2026-04-05T17:32:33Z</time></trkpt><trkpt lat="45.0228797270571" lon="9.253570895861701"><ele>122.0</ele><time>2026-04-05T17:32:33.999Z</time></trkpt><trkpt lat="45.02313522909226" lon="9.253651247326006"><ele>122.0</ele><time>2026-04-05T17:32:34.999Z</time></trkpt><trkpt lat="45.02335958346809" lon="9.253718526561382"><ele>121.0</ele><time>2026-04-05T17:32:35.999Z</time></trkpt><trkpt lat="45.02356589367118" lon="9.25378119426757"><ele>120.0</ele><time>2026-04-05T17:32:36.999Z</time></trkpt><trkpt lat="45.023753340350055" lon="9.253848962903803"><ele>119.0</ele><time>2026-04-05T17:32:37.999Z</time></trkpt><trkpt lat="45.02393651199514" lon="9.253897662840181"><ele>119.0</ele><time>2026-04-05T17:32:38.999Z</time></trkpt><trkpt lat="45.02411383523612" lon="9.253941351566485"><ele>119.0</ele><time>2026-04-05T17:32:39.999Z</time></trkpt><trkpt lat="45.02428159917519" lon="9.253971541980423"><ele>119.0</ele><time>2026-04-05T17:32:40.999Z</time></trkpt><trkpt lat="45.024451337318204" lon="9.253974838190588"><ele>119.0</ele><time>2026-04-05T17:32:41.999Z</time></trkpt><trkpt lat="45.02461697976846" lon="9.253978940194793"><ele>119.0</ele><time>2026-04-05T17:32:42.999Z</time></trkpt><trkpt lat="45.02476829236183" lon="9.25394429628771"><ele>119.0</ele><time>2026-04-05T17:32:43.999Z</time></trkpt><trkpt lat="45.02493635916686" lon="9.253882744282636"><ele>118.33333333333333</ele><time>2026-04-05T17:32:44.999Z</time></trkpt><trkpt lat="45.02513395712063" lon="9.25380023296718"><ele>117.66666666666666</ele><time>2026-04-05T17:32:45.999Z</time></trkpt><trkpt lat="45.02533379866533" lon="9.253717619321433"><ele>117.0</ele><time>2026-04-05T17:32:46.999Z</time></trkpt><trkpt lat="45.02550477674915" lon="9.253656010811513"><ele>117.0</ele><time>2026-04-05T17:32:47.999Z</time></trkpt><trkpt lat="45.02568151359224" lon="9.253608803459384"><ele>117.0</ele><time>2026-04-05T17:32:48.999Z</time></trkpt><trkpt lat="45.02586055938152" lon="9.253594456827011"><ele>117.0</ele><time>2026-04-05T17:32:49.999Z</time></trkpt><trkpt lat="45.02605171856332" lon="9.253608083895282"><ele>116.66666666666666</ele><time>2026-04-05T17:32:50.999Z</time></trkpt><trkpt lat="45.026241793892794" lon="9.253673549005452"><ele>116.33333333333333</ele><time>2026-04-05T17:32:51.999Z</time></trkpt><trkpt lat="45.026461629310944" lon="9.253767338777537"><ele>116.0</ele><time>2026-04-05T17:32:52.999Z</time></trkpt><trkpt lat="45.0267073213413" lon="9.253874864428997"><ele>115.0</ele><time>2026-04-05T17:32:53.999Z</time></trkpt><trkpt lat="45.02697193911711" lon="9.253994851613108"><ele>114.0</ele><time>2026-04-05T17:32:54.999Z</time></trkpt><trkpt lat="45.02723176669257" lon="9.254109366350526"><ele>113.5</ele><time>2026-04-05T17:32:55.999Z</time></trkpt><trkpt lat="45.027479918025584" lon="9.254217142610338"><ele>113.0</ele><time>2026-04-05T17:32:56.999Z</time></trkpt><trkpt lat="45.0277240753252" lon="9.254317529858795"><ele>113.0</ele><time>2026-04-05T17:32:57.999Z</time></trkpt><trkpt lat="45.027952297812206" lon="9.2544117072982"><ele>113.0</ele><time>2026-04-05T17:32:58.999Z</time></trkpt><trkpt lat="45.028165574286426" lon="9.254500523279873"><ele>113.33333333333333</ele><time>2026-04-05T17:32:59.999Z</time></trkpt><trkpt lat="45.02836481950555" lon="9.254589658714137"><ele>113.66666666666666</ele><time>2026-04-05T17:33:00.999Z</time></trkpt><trkpt lat="45.028554024239604" lon="9.254686894515778"><ele>114.0</ele><time>2026-04-05T17:33:01.999Z</time></trkpt><trkpt lat="45.02873622141278" lon="9.254801173839697"><ele>114.0</ele><time>2026-04-05T17:33:02.999Z</time></trkpt><trkpt lat="45.02893176603997" lon="9.254937246487302"><ele>114.0</ele><time>2026-04-05T17:33:03.999Z</time></trkpt><trkpt lat="45.02914606925663" lon="9.255084312889073"><ele>114.0</ele><time>2026-04-05T17:33:04.999Z</time></trkpt><trkpt lat="45.029371426333135" lon="9.255238439258724"><ele>114.0</ele><time>2026-04-05T17:33:05.999Z</time></trkpt><trkpt lat="45.02960260398913" lon="9.25539203051062"><ele>114.0</ele><time>2026-04-05T17:33:06.999Z</time></trkpt><trkpt lat="45.029803678702216" lon="9.255531666967926"><ele>114.0</ele><time>2026-04-05T17:33:07.999Z</time></trkpt><trkpt lat="45.02997848423485" lon="9.255657225261537"><ele>114.0</ele><time>2026-04-05T17:33:08.999Z</time></trkpt><trkpt lat="45.0301837968366" lon="9.255803844478043"><ele>113.0</ele><time>2026-04-05T17:33:09.999Z</time></trkpt><trkpt lat="45.030423715819246" lon="9.255925107269231"><ele>112.0</ele><time>2026-04-05T17:33:10.999Z</time></trkpt><trkpt lat="45.03069538000202" lon="9.256027896699772"><ele>112.5</ele><time>2026-04-05T17:33:11.999Z</time></trkpt><trkpt lat="45.03095175369275" lon="9.256168843255104"><ele>113.0</ele><time>2026-04-05T17:33:12.999Z</time></trkpt><trkpt lat="45.03120717680673" lon="9.256269016403255"><ele>113.0</ele><time>2026-04-05T17:33:13.999Z</time></trkpt><trkpt lat="45.03145737780309" lon="9.256412190428865"><ele>113.0</ele><time>2026-04-05T17:33:14.999Z</time></trkpt><trkpt lat="45.03169569434454" lon="9.256504160911264"><ele>111.5</ele><time>2026-04-05T17:33:15.999Z</time></trkpt><trkpt lat="45.03192479466792" lon="9.256605640161439"><ele>110.0</ele><time>2026-04-05T17:33:16.999Z</time></trkpt><trkpt lat="45.032138176351374" lon="9.256707909156699"><ele>110.0</ele><time>2026-04-05T17:33:17.999Z</time></trkpt><trkpt lat="45.03234891486033" lon="9.25681690878918"><ele>110.0</ele><time>2026-04-05T17:33:18.999Z</time></trkpt><trkpt lat="45.03256643902688" lon="9.256922819219497"><ele>110.33333333333333</ele><time>2026-04-05T17:33:19.999Z</time></trkpt><trkpt lat="45.03278635970961" lon="9.257051012609354"><ele>110.66666666666666</ele><time>2026-04-05T17:33:20.999Z</time></trkpt><trkpt lat="45.03297984129709" lon="9.25714634478864"><ele>111.0</ele><time>2026-04-05T17:33:21.999Z</time></trkpt><trkpt lat="45.03316648328346" lon="9.257235355622647"><ele>109.0</ele><time>2026-04-05T17:33:22.999Z</time></trkpt><trkpt lat="45.03337433772303" lon="9.257321891866898"><ele>107.0</ele><time>2026-04-05T17:33:23.999Z</time></trkpt><trkpt lat="45.03362016943186" lon="9.25738939671598"><ele>107.0</ele><time>2026-04-05T17:33:24.999Z</time></trkpt><trkpt lat="45.03386714685301" lon="9.25745029099788"><ele>107.0</ele><time>2026-04-05T17:33:25.999Z</time></trkpt><trkpt lat="45.03408520872987" lon="9.257504055869127"><ele>107.33333333333333</ele><time>2026-04-05T17:33:26.999Z</time></trkpt><trkpt lat="45.034295345299775" lon="9.257506288117643"><ele>107.66666666666666</ele><time>2026-04-05T17:33:27.999Z</time></trkpt><trkpt lat="45.03448511512577" lon="9.25754570014356"><ele>108.0</ele><time>2026-04-05T17:33:28.999Z</time></trkpt><trkpt lat="45.03468790839043" lon="9.257606670045"><ele>108.0</ele><time>2026-04-05T17:33:29.999Z</time></trkpt><trkpt lat="45.03489627139986" lon="9.257705196823654"><ele>108.0</ele><time>2026-04-05T17:33:30.999Z</time></trkpt><trkpt lat="45.03511572169847" lon="9.257841450313963"><ele>108.66666666666666</ele><time>2026-04-05T17:33:31.999Z</time></trkpt><trkpt lat="45.03531047574047" lon="9.257976721056972"><ele>109.33333333333333</ele><time>2026-04-05T17:33:32.999Z</time></trkpt><trkpt lat="45.03549073536332" lon="9.258103170151896"><ele>110.0</ele><time>2026-04-05T17:33:33.999Z</time></trkpt><trkpt lat="45.035660143452475" lon="9.258217442963787"><ele>109.0</ele><time>2026-04-05T17:33:34.999Z</time></trkpt><trkpt lat="45.03580980475794" lon="9.258329347663977"><ele>108.0</ele><time>2026-04-05T17:33:35.999Z</time></trkpt><trkpt lat="45.03595795350106" lon="9.258435573750164"><ele>107.0</ele><time>2026-04-05T17:33:36.999Z</time></trkpt><trkpt lat="45.03612042088839" lon="9.258516207494399"><ele>107.0</ele><time>2026-04-05T17:33:37.999Z</time></trkpt><trkpt lat="45.03633263865728" lon="9.258579768736565"><ele>107.0</ele><time>2026-04-05T17:33:38.999Z</time></trkpt><trkpt lat="45.0365465834523" lon="9.258639523154983"><ele>107.0</ele><time>2026-04-05T17:33:40Z</time></trkpt><trkpt lat="45.03675662770924" lon="9.25869505699459"><ele>107.66666666666666</ele><time>2026-04-05T17:33:41Z</time></trkpt><trkpt lat="45.03696415210007" lon="9.258746450980697"><ele>108.33333333333334</ele><time>2026-04-05T17:33:42Z</time></trkpt><trkpt lat="45.037161428304394" lon="9.258788782655419"><ele>109.0</ele><time>2026-04-05T17:33:43Z</time></trkpt><trkpt lat="45.03735565443706" lon="9.25883426023245"><ele>108.33333333333334</ele><time>2026-04-05T17:33:44Z</time></trkpt><trkpt lat="45.03754827194853" lon="9.25888099353471"><ele>107.66666666666666</ele><time>2026-04-05T17:33:45Z</time></trkpt><trkpt lat="45.037749538685866" lon="9.258935471160147"><ele>107.0</ele><time>2026-04-05T17:33:46Z</time></trkpt><trkpt lat="45.03794164587495" lon="9.258979352917347"><ele>105.66666666666666</ele><time>2026-04-05T17:33:47Z</time></trkpt><trkpt lat="45.03815780433419" lon="9.258991270675478"><ele>104.33333333333334</ele><time>2026-04-05T17:33:48Z</time></trkpt><trkpt lat="45.03836688816756" lon="9.258976148579212"><ele>103.0</ele><time>2026-04-05T17:33:49Z</time></trkpt><trkpt lat="45.03854790050172" lon="9.258968314689803"><ele>102.66666666666667</ele><time>2026-04-05T17:33:50Z</time></trkpt><trkpt lat="45.03872189793347" lon="9.258968796960325"><ele>102.33333333333334</ele><time>2026-04-05T17:33:51Z</time></trkpt><trkpt lat="45.03888282123615" lon="9.258970983208412"><ele>102.0</ele><time>2026-04-05T17:33:52Z</time></trkpt><trkpt lat="45.03902951267842" lon="9.25897142981145"><ele>102.0</ele><time>2026-04-05T17:33:53Z</time></trkpt><trkpt lat="45.03916650822994" lon="9.258987394512321"><ele>102.0</ele><time>2026-04-05T17:33:54Z</time></trkpt><trkpt lat="45.03928990929525" lon="9.259005290213361"><ele>102.0</ele><time>2026-04-05T17:33:55Z</time></trkpt><trkpt lat="45.03940892172388" lon="9.25901912191618"><ele>102.0</ele><time>2026-04-05T17:33:56Z</time></trkpt><trkpt lat="45.039525438018025" lon="9.259034904265167"><ele>102.0</ele><time>2026-04-05T17:33:57Z</time></trkpt><trkpt lat="45.039647988525125" lon="9.259051532739399"><ele>102.0</ele><time>2026-04-05T17:33:58Z</time></trkpt><trkpt lat="45.03977640112305" lon="9.259069863078901"><ele>102.0</ele><time>2026-04-05T17:33:59Z</time></trkpt><trkpt lat="45.03991436229173" lon="9.259089607329763"><ele>102.0</ele><time>2026-04-05T17:34:00Z</time></trkpt><trkpt lat="45.04006140448861" lon="9.259123461074422"><ele>101.33333333333334</ele><time>2026-04-05T17:34:01Z</time></trkpt><trkpt lat="45.04024757970574" lon="9.259187994054509"><ele>100.66666666666667</ele><time>2026-04-05T17:34:02Z</time></trkpt><trkpt lat="45.04045003773454" lon="9.259277419412808"><ele>100.0</ele><time>2026-04-05T17:34:03Z</time></trkpt><trkpt lat="45.04065948494141" lon="9.259368109236345"><ele>99.0</ele><time>2026-04-05T17:34:04Z</time></trkpt><trkpt lat="45.040884832224286" lon="9.259420688761477"><ele>98.0</ele><time>2026-04-05T17:34:05Z</time></trkpt><trkpt lat="45.041119531653266" lon="9.25946281439693"><ele>98.0</ele><time>2026-04-05T17:34:06Z</time></trkpt><trkpt lat="45.041330665151555" lon="9.25949267858644"><ele>98.0</ele><time>2026-04-05T17:34:07Z</time></trkpt><trkpt lat="45.04150928415328" lon="9.25950975536102"><ele>98.0</ele><time>2026-04-05T17:34:08Z</time></trkpt><trkpt lat="45.041681991253775" lon="9.259513826732311"><ele>98.0</ele><time>2026-04-05T17:34:09Z</time></trkpt><trkpt lat="45.04185451685471" lon="9.259491328722495"><ele>98.0</ele><time>2026-04-05T17:34:10Z</time></trkpt><trkpt lat="45.0420279267205" lon="9.25943411285745"><ele>98.0</ele><time>2026-04-05T17:34:11Z</time></trkpt><trkpt lat="45.04220817958782" lon="9.259339412924525"><ele>98.0</ele><time>2026-04-05T17:34:12Z</time></trkpt><trkpt lat="45.04241457358289" lon="9.259210015747811"><ele>98.0</ele><time>2026-04-05T17:34:13Z</time></trkpt><trkpt lat="45.04263957225591" lon="9.259045193713424"><ele>97.0</ele><time>2026-04-05T17:34:14Z</time></trkpt><trkpt lat="45.04286680398645" lon="9.258858202972904"><ele>96.0</ele><time>2026-04-05T17:34:15Z</time></trkpt><trkpt lat="45.04308714917376" lon="9.258676539652141"><ele>96.0</ele><time>2026-04-05T17:34:16Z</time></trkpt><trkpt lat="45.043289867175254" lon="9.258513356967155"><ele>96.0</ele><time>2026-04-05T17:34:17Z</time></trkpt><trkpt lat="45.04348713255582" lon="9.25835865996519"><ele>96.5</ele><time>2026-04-05T17:34:18Z</time></trkpt><trkpt lat="45.04368351797595" lon="9.25819771105978"><ele>97.0</ele><time>2026-04-05T17:34:19Z</time></trkpt><trkpt lat="45.04388410470525" lon="9.258050554644663"><ele>98.5</ele><time>2026-04-05T17:34:20Z</time></trkpt><trkpt lat="45.04409159712955" lon="9.257881573530007"><ele>100.0</ele><time>2026-04-05T17:34:21Z</time></trkpt><trkpt lat="45.04428102468876" lon="9.257731877678292"><ele>100.0</ele><time>2026-04-05T17:34:22Z</time></trkpt><trkpt lat="45.04449610639725" lon="9.257576763252631"><ele>100.0</ele><time>2026-04-05T17:34:23Z</time></trkpt><trkpt lat="45.04470149757676" lon="9.257454743194913"><ele>100.0</ele><time>2026-04-05T17:34:24Z</time></trkpt><trkpt lat="45.0449195466013" lon="9.257340607679641"><ele>100.0</ele><time>2026-04-05T17:34:25Z</time></trkpt><trkpt lat="45.04515617047182" lon="9.257212075013875"><ele>102.5</ele><time>2026-04-05T17:34:26Z</time></trkpt><trkpt lat="45.045364626069144" lon="9.257103079327504"><ele>105.0</ele><time>2026-04-05T17:34:27Z</time></trkpt><trkpt lat="45.04558450932494" lon="9.256990386282322"><ele>102.5</ele><time>2026-04-05T17:34:28Z</time></trkpt><trkpt lat="45.04582212111283" lon="9.256868786116371"><ele>100.0</ele><time>2026-04-05T17:34:29Z</time></trkpt><trkpt lat="45.04603162139474" lon="9.25675864329652"><ele>100.0</ele><time>2026-04-05T17:34:30Z</time></trkpt><trkpt lat="45.04622398340002" lon="9.256663780087562"><ele>100.0</ele><time>2026-04-05T17:34:31Z</time></trkpt><trkpt lat="45.04641236671585" lon="9.256570086355792"><ele>100.0</ele><time>2026-04-05T17:34:32Z</time></trkpt><trkpt lat="45.04660113268459" lon="9.256477888154139"><ele>101.0</ele><time>2026-04-05T17:34:33Z</time></trkpt><trkpt lat="45.04679783267094" lon="9.256378229879422"><ele>102.0</ele><time>2026-04-05T17:34:34Z</time></trkpt><trkpt lat="45.04699218988199" lon="9.256282132152139"><ele>103.0</ele><time>2026-04-05T17:34:35Z</time></trkpt><trkpt lat="45.047182727268385" lon="9.256183533262977"><ele>103.0</ele><time>2026-04-05T17:34:36Z</time></trkpt><trkpt lat="45.047389888992335" lon="9.256084713568354"><ele>103.0</ele><time>2026-04-05T17:34:37Z</time></trkpt><trkpt lat="45.04760299773196" lon="9.255974741161175"><ele>103.0</ele><time>2026-04-05T17:34:38Z</time></trkpt><trkpt lat="45.04778545702915" lon="9.25588680376265"><ele>100.66666666666667</ele><time>2026-04-05T17:34:39Z</time></trkpt><trkpt lat="45.04795636971814" lon="9.25579500731392"><ele>98.33333333333334</ele><time>2026-04-05T17:34:39.999Z</time></trkpt><trkpt lat="45.04812502099794" lon="9.25570770780199"><ele>96.0</ele><time>2026-04-05T17:34:40.999Z</time></trkpt><trkpt lat="45.0482932598156" lon="9.255620735392352"><ele>96.33333333333334</ele><time>2026-04-05T17:34:41.999Z</time></trkpt><trkpt lat="45.04845829663157" lon="9.255536061666847"><ele>96.66666666666667</ele><time>2026-04-05T17:34:42.999Z</time></trkpt><trkpt lat="45.048621255133945" lon="9.25544667622701"><ele>97.0</ele><time>2026-04-05T17:34:43.999Z</time></trkpt><trkpt lat="45.04880047362443" lon="9.255352322115872"><ele>97.0</ele><time>2026-04-05T17:34:44.999Z</time></trkpt><trkpt lat="45.04896862926695" lon="9.255258460311142"><ele>97.0</ele><time>2026-04-05T17:34:45.999Z</time></trkpt><trkpt lat="45.04911458569751" lon="9.255169016249715"><ele>97.0</ele><time>2026-04-05T17:34:46.999Z</time></trkpt><trkpt lat="45.049255092087826" lon="9.255088657461032"><ele>95.5</ele><time>2026-04-05T17:34:47.999Z</time></trkpt><trkpt lat="45.04938473164051" lon="9.255019025848322"><ele>94.0</ele><time>2026-04-05T17:34:48.999Z</time></trkpt><trkpt lat="45.049505030161235" lon="9.254963716937862"><ele>92.5</ele><time>2026-04-05T17:34:49.999Z</time></trkpt><trkpt lat="45.04962599753398" lon="9.254940041330903"><ele>91.0</ele><time>2026-04-05T17:34:50.999Z</time></trkpt><trkpt lat="45.04975308303271" lon="9.254940164138084"><ele>91.0</ele><time>2026-04-05T17:34:51.999Z</time></trkpt><trkpt lat="45.04988560459773" lon="9.254953177550806"><ele>91.0</ele><time>2026-04-05T17:34:52.999Z</time></trkpt><trkpt lat="45.050030768347554" lon="9.25497336565271"><ele>91.0</ele><time>2026-04-05T17:34:53.999Z</time></trkpt><trkpt lat="45.050183254651394" lon="9.255001609043456"><ele>91.0</ele><time>2026-04-05T17:34:54.999Z</time></trkpt><trkpt lat="45.05034536224103" lon="9.255031165614596"><ele>90.33333333333333</ele><time>2026-04-05T17:34:55.999Z</time></trkpt><trkpt lat="45.05051432304345" lon="9.255057192005621"><ele>89.66666666666667</ele><time>2026-04-05T17:34:56.999Z</time></trkpt><trkpt lat="45.05067376217599" lon="9.255082678142651"><ele>89.0</ele><time>2026-04-05T17:34:57.999Z</time></trkpt><trkpt lat="45.05079620247489" lon="9.255099040991414"><ele>89.0</ele><time>2026-04-05T17:34:58.999Z</time></trkpt><trkpt lat="45.050898697834235" lon="9.255127045303924"><ele>89.0</ele><time>2026-04-05T17:34:59.999Z</time></trkpt><trkpt lat="45.05099473517557" lon="9.255147078619663"><ele>89.0</ele><time>2026-04-05T17:35:00.999Z</time></trkpt><trkpt lat="45.05108490273467" lon="9.25516520843842"><ele>89.0</ele><time>2026-04-05T17:35:01.999Z</time></trkpt><trkpt lat="45.051158372249056" lon="9.255180872955123"><ele>89.0</ele><time>2026-04-05T17:35:02.999Z</time></trkpt><trkpt lat="45.05126561095996" lon="9.25521202975991"><ele>89.0</ele><time>2026-04-05T17:35:04.999Z</time></trkpt><trkpt lat="45.05134785777426" lon="9.255216311384574"><ele>89.0</ele><time>2026-04-05T17:35:33.999Z</time></trkpt><trkpt lat="45.05134933774511" lon="9.255070937268517"><ele>89.0</ele><time>2026-04-05T17:35:34.999Z</time></trkpt><trkpt lat="45.051315278008985" lon="9.254913355330363"><ele>89.0</ele><time>2026-04-05T17:35:36.999Z</time></trkpt><trkpt lat="45.0512919342673" lon="9.254817785074232"><ele>89.0</ele><time>2026-04-05T17:35:37.999Z</time></trkpt><trkpt lat="45.05128170983934" lon="9.25469651110715"><ele>88.25</ele><time>2026-04-05T17:35:38.999Z</time></trkpt><trkpt lat="45.05128681825664" lon="9.25454465753287"><ele>87.5</ele><time>2026-04-05T17:35:39.999Z</time></trkpt><trkpt lat="45.05129593332474" lon="9.254384123482415"><ele>86.75</ele><time>2026-04-05T17:35:40.999Z</time></trkpt><trkpt lat="45.05131095511239" lon="9.254213800450419"><ele>86.0</ele><time>2026-04-05T17:35:41.999Z</time></trkpt><trkpt lat="45.0513701320406" lon="9.254051589686942"><ele>85.75</ele><time>2026-04-05T17:35:42.999Z</time></trkpt><trkpt lat="45.05144372238111" lon="9.253876117855858"><ele>85.5</ele><time>2026-04-05T17:35:43.999Z</time></trkpt><trkpt lat="45.051520045769735" lon="9.253720295325854"><ele>85.25</ele><time>2026-04-05T17:35:44.999Z</time></trkpt><trkpt lat="45.05158580926964" lon="9.253573187793906"><ele>85.0</ele><time>2026-04-05T17:35:46Z</time></trkpt><trkpt lat="45.051640401495845" lon="9.253416073060155"><ele>85.25</ele><time>2026-04-05T17:35:47Z</time></trkpt><trkpt lat="45.05170568780205" lon="9.253260205156035"><ele>85.5</ele><time>2026-04-05T17:35:48Z</time></trkpt><trkpt lat="45.051769662243785" lon="9.253112667937836"><ele>85.75</ele><time>2026-04-05T17:35:49Z</time></trkpt><trkpt lat="45.0518432581154" lon="9.252976110587634"><ele>86.0</ele><time>2026-04-05T17:35:50Z</time></trkpt><trkpt lat="45.051929813637265" lon="9.25285662939711"><ele>86.0</ele><time>2026-04-05T17:35:51Z</time></trkpt><trkpt lat="45.052031839373285" lon="9.252719896687944"><ele>86.0</ele><time>2026-04-05T17:35:52Z</time></trkpt><trkpt lat="45.052132625216984" lon="9.252611068846345"><ele>86.0</ele><time>2026-04-05T17:35:53Z</time></trkpt><trkpt lat="45.052221477240224" lon="9.252512800949283"><ele>86.0</ele><time>2026-04-05T17:35:54Z</time></trkpt><trkpt lat="45.052310438613496" lon="9.252402318856435"><ele>85.75</ele><time>2026-04-05T17:35:55Z</time></trkpt><trkpt lat="45.05240475672574" lon="9.252279166897468"><ele>85.5</ele><time>2026-04-05T17:35:56Z</time></trkpt><trkpt lat="45.05250571425292" lon="9.252177549090252"><ele>85.25</ele><time>2026-04-05T17:35:57Z</time></trkpt><trkpt lat="45.05261773221306" lon="9.252074656363154"><ele>85.0</ele><time>2026-04-05T17:35:58Z</time></trkpt><trkpt lat="45.05276280767183" lon="9.252017172015169"><ele>85.0</ele><time>2026-04-05T17:35:59Z</time></trkpt><trkpt lat="45.05292667474129" lon="9.251918267472417"><ele>85.0</ele><time>2026-04-05T17:36:00Z</time></trkpt><trkpt lat="45.05309115865068" lon="9.251853084447824"><ele>85.0</ele><time>2026-04-05T17:36:01Z</time></trkpt><trkpt lat="45.05323303548286" lon="9.251785130836236"><ele>85.0</ele><time>2026-04-05T17:36:02Z</time></trkpt><trkpt lat="45.05336525480968" lon="9.251725066911185"><ele>85.0</ele><time>2026-04-05T17:36:03Z</time></trkpt><trkpt lat="45.05349321101634" lon="9.251648770063538"><ele>85.0</ele><time>2026-04-05T17:36:04Z</time></trkpt><trkpt lat="45.053620172127594" lon="9.251564785248307"><ele>85.0</ele><time>2026-04-05T17:36:05Z</time></trkpt><trkpt lat="45.053731168624516" lon="9.251436024367523"><ele>85.0</ele><time>2026-04-05T17:36:06Z</time></trkpt><trkpt lat="45.05383120141341" lon="9.251292130036976"><ele>85.0</ele><time>2026-04-05T17:36:07Z</time></trkpt><trkpt lat="45.053930858848474" lon="9.251130349561091"><ele>85.0</ele><time>2026-04-05T17:36:08Z</time></trkpt><trkpt lat="45.05401986776284" lon="9.250952784257326"><ele>85.0</ele><time>2026-04-05T17:36:09Z</time></trkpt><trkpt lat="45.054095206049006" lon="9.250792451996874"><ele>85.0</ele><time>2026-04-05T17:36:10Z</time></trkpt><trkpt lat="45.05417118376651" lon="9.25065397090078"><ele>85.0</ele><time>2026-04-05T17:36:11Z</time></trkpt><trkpt lat="45.05424598874122" lon="9.250538533867436"><ele>85.0</ele><time>2026-04-05T17:36:12Z</time></trkpt><trkpt lat="45.054346387875235" lon="9.250445051332267"><ele>85.0</ele><time>2026-04-05T17:36:13Z</time></trkpt><trkpt lat="45.05446784474033" lon="9.250374899908156"><ele>85.0</ele><time>2026-04-05T17:36:14Z</time></trkpt><trkpt lat="45.05459992743493" lon="9.250297845190005"><ele>85.0</ele><time>2026-04-05T17:36:15Z</time></trkpt><trkpt lat="45.05474213822201" lon="9.250227091046213"><ele>85.0</ele><time>2026-04-05T17:36:16Z</time></trkpt><trkpt lat="45.054892489844676" lon="9.250135841044296"><ele>85.33333333333333</ele><time>2026-04-05T17:36:17Z</time></trkpt><trkpt lat="45.055054218566625" lon="9.250033063123874"><ele>85.66666666666667</ele><time>2026-04-05T17:36:18Z</time></trkpt><trkpt lat="45.05521253727744" lon="9.24993813638311"><ele>86.0</ele><time>2026-04-05T17:36:19Z</time></trkpt><trkpt lat="45.05536626391277" lon="9.249880518128265"><ele>86.0</ele><time>2026-04-05T17:36:20Z</time></trkpt><trkpt lat="45.055510034720335" lon="9.249803896569004"><ele>86.0</ele><time>2026-04-05T17:36:21Z</time></trkpt><trkpt lat="45.05565865826005" lon="9.249722371483275"><ele>86.0</ele><time>2026-04-05T17:36:22Z</time></trkpt><trkpt lat="45.05580681780516" lon="9.24964581789596"><ele>85.33333333333334</ele><time>2026-04-05T17:36:23Z</time></trkpt><trkpt lat="45.0559689719117" lon="9.24957900185168"><ele>84.66666666666667</ele><time>2026-04-05T17:36:24Z</time></trkpt><trkpt lat="45.05613741216795" lon="9.249515451988465"><ele>84.0</ele><time>2026-04-05T17:36:25Z</time></trkpt><trkpt lat="45.056323129798436" lon="9.249463485311734"><ele>84.0</ele><time>2026-04-05T17:36:26Z</time></trkpt><trkpt lat="45.056512692811765" lon="9.249417336988602"><ele>84.0</ele><time>2026-04-05T17:36:27Z</time></trkpt><trkpt lat="45.056698572745226" lon="9.24938357005048"><ele>84.0</ele><time>2026-04-05T17:36:28Z</time></trkpt><trkpt lat="45.05686661504943" lon="9.249355171077468"><ele>84.25</ele><time>2026-04-05T17:36:29Z</time></trkpt><trkpt lat="45.05702896729818" lon="9.24932754987873"><ele>84.5</ele><time>2026-04-05T17:36:30Z</time></trkpt><trkpt lat="45.05717501421733" lon="9.249295919679215"><ele>84.75</ele><time>2026-04-05T17:36:31Z</time></trkpt><trkpt lat="45.05730154047124" lon="9.249247517050579"><ele>85.0</ele><time>2026-04-05T17:36:32Z</time></trkpt><trkpt lat="45.05741046167904" lon="9.249196903870645"><ele>84.8</ele><time>2026-04-05T17:36:33Z</time></trkpt><trkpt lat="45.057489782896134" lon="9.249147389482829"><ele>84.6</ele><time>2026-04-05T17:36:34Z</time></trkpt><trkpt lat="45.05756736812376" lon="9.249079011511613"><ele>84.4</ele><time>2026-04-05T17:36:36Z</time></trkpt><trkpt lat="45.05768928695761" lon="9.24907476965569"><ele>84.2</ele><time>2026-04-05T17:36:39Z</time></trkpt><trkpt lat="45.05775588716657" lon="9.249148945949763"><ele>84.0</ele><time>2026-04-05T17:36:40Z</time></trkpt><trkpt lat="45.05781676206733" lon="9.249242032993422"><ele>84.0</ele><time>2026-04-05T17:36:41Z</time></trkpt><trkpt lat="45.057890869415225" lon="9.249362212625194"><ele>84.0</ele><time>2026-04-05T17:36:42Z</time></trkpt><trkpt lat="45.05796893341538" lon="9.249479855811574"><ele>84.0</ele><time>2026-04-05T17:36:43Z</time></trkpt><trkpt lat="45.058051812178896" lon="9.249604474497652"><ele>84.0</ele><time>2026-04-05T17:36:44Z</time></trkpt><trkpt lat="45.058135938429245" lon="9.249732630301594"><ele>84.25</ele><time>2026-04-05T17:36:45Z</time></trkpt><trkpt lat="45.05822244899346" lon="9.249852033331962"><ele>84.5</ele><time>2026-04-05T17:36:45.999Z</time></trkpt><trkpt lat="45.05830648840854" lon="9.249977843752948"><ele>84.75</ele><time>2026-04-05T17:36:46.999Z</time></trkpt><trkpt lat="45.05839484596744" lon="9.250101221916006"><ele>85.0</ele><time>2026-04-05T17:36:47.999Z</time></trkpt><trkpt lat="45.05849256018235" lon="9.250240155616117"><ele>85.0</ele><time>2026-04-05T17:36:48.999Z</time></trkpt><trkpt lat="45.058600967637275" lon="9.250387828669025"><ele>85.0</ele><time>2026-04-05T17:36:49.999Z</time></trkpt><trkpt lat="45.05872002611552" lon="9.250559514249215"><ele>85.0</ele><time>2026-04-05T17:36:50.999Z</time></trkpt><trkpt lat="45.05884263672791" lon="9.250730620747376"><ele>84.66666666666666</ele><time>2026-04-05T17:36:51.999Z</time></trkpt><trkpt lat="45.05899189317587" lon="9.250947367686026"><ele>84.33333333333333</ele><time>2026-04-05T17:36:52.999Z</time></trkpt><trkpt lat="45.05914775346264" lon="9.251183890798638"><ele>84.0</ele><time>2026-04-05T17:36:53.999Z</time></trkpt><trkpt lat="45.059274853953255" lon="9.251394019333269"><ele>83.33333333333333</ele><time>2026-04-05T17:36:54.999Z</time></trkpt><trkpt lat="45.05938586709889" lon="9.251581027841876"><ele>82.66666666666666</ele><time>2026-04-05T17:36:55.999Z</time></trkpt><trkpt lat="45.059481806678136" lon="9.251761069430648"><ele>82.0</ele><time>2026-04-05T17:36:56.999Z</time></trkpt><trkpt lat="45.059566579609935" lon="9.251927361235884"><ele>82.0</ele><time>2026-04-05T17:36:57.999Z</time></trkpt><trkpt lat="45.05964912911481" lon="9.252097408666518"><ele>82.0</ele><time>2026-04-05T17:36:58.999Z</time></trkpt><trkpt lat="45.0596991831162" lon="9.25227976188105"><ele>82.0</ele><time>2026-04-05T17:36:59.999Z</time></trkpt><trkpt lat="45.05975080699675" lon="9.252463290636044"><ele>82.0</ele><time>2026-04-05T17:37:00.999Z</time></trkpt><trkpt lat="45.05979170122732" lon="9.252625301825153"><ele>82.0</ele><time>2026-04-05T17:37:01.999Z</time></trkpt><trkpt lat="45.059828993761975" lon="9.252781313073033"><ele>82.0</ele><time>2026-04-05T17:37:02.999Z</time></trkpt><trkpt lat="45.05985503962836" lon="9.252924071454887"><ele>82.0</ele><time>2026-04-05T17:37:03.999Z</time></trkpt><trkpt lat="45.0598757636481" lon="9.25303636515678"><ele>82.0</ele><time>2026-04-05T17:37:04.999Z</time></trkpt><trkpt lat="45.059906543557936" lon="9.253114178657802"><ele>82.0</ele><time>2026-04-05T17:37:05.999Z</time></trkpt><trkpt lat="45.05995923447796" lon="9.25317023043396"><ele>82.0</ele><time>2026-04-05T17:37:06.999Z</time></trkpt><trkpt lat="45.06004456166256" lon="9.253215768914144"><ele>82.39999999999999</ele><time>2026-04-05T17:37:07.999Z</time></trkpt><trkpt lat="45.06014381012761" lon="9.253271197905491"><ele>82.8</ele><time>2026-04-05T17:37:08.999Z</time></trkpt><trkpt lat="45.06022211011645" lon="9.25337914644323"><ele>83.2</ele><time>2026-04-05T17:37:09.999Z</time></trkpt><trkpt lat="45.060275577988975" lon="9.253489977395601"><ele>83.6</ele><time>2026-04-05T17:37:10.999Z</time></trkpt><trkpt lat="45.06032039600249" lon="9.25359114833126"><ele>84.0</ele><time>2026-04-05T17:37:11.999Z</time></trkpt><trkpt lat="45.060357354044385" lon="9.253678623524582"><ele>84.0</ele><time>2026-04-05T17:37:12.999Z</time></trkpt><trkpt lat="45.06040196489586" lon="9.25378229259265"><ele>84.0</ele><time>2026-04-05T17:37:14.999Z</time></trkpt><trkpt lat="45.06045157740731" lon="9.253849382988241"><ele>84.0</ele><time>2026-04-05T17:37:24.999Z</time></trkpt><trkpt lat="45.06059080351787" lon="9.254005871307669"><ele>84.0</ele><time>2026-04-05T17:38:38Z</time></trkpt><trkpt lat="45.06062868462456" lon="9.254113291892844"><ele>84.0</ele><time>2026-04-05T17:38:39Z</time></trkpt><trkpt lat="45.06063833249075" lon="9.25426199003667"><ele>84.0</ele><time>2026-04-05T17:38:40Z</time></trkpt><trkpt lat="45.06068794598907" lon="9.254371603200577"><ele>84.0</ele><time>2026-04-05T17:38:41Z</time></trkpt><trkpt lat="45.060738279491424" lon="9.254481677685478"><ele>84.0</ele><time>2026-04-05T17:38:42Z</time></trkpt><trkpt lat="45.060797055458536" lon="9.254608775836639"><ele>84.0</ele><time>2026-04-05T17:38:43Z</time></trkpt><trkpt lat="45.060860368858904" lon="9.254745685447434"><ele>84.0</ele><time>2026-04-05T17:38:44Z</time></trkpt><trkpt lat="45.060921931761996" lon="9.254878814346261"><ele>84.0</ele><time>2026-04-05T17:38:45Z</time></trkpt><trkpt lat="45.060995640116865" lon="9.255006532936585"><ele>84.0</ele><time>2026-04-05T17:38:46Z</time></trkpt><trkpt lat="45.061085033306185" lon="9.255126456178143"><ele>84.0</ele><time>2026-04-05T17:38:47Z</time></trkpt><trkpt lat="45.06117205068911" lon="9.255251906528924"><ele>84.0</ele><time>2026-04-05T17:38:48Z</time></trkpt><trkpt lat="45.061275517113444" lon="9.255356206791289"><ele>84.0</ele><time>2026-04-05T17:38:49Z</time></trkpt><trkpt lat="45.0613774500094" lon="9.255440783717713"><ele>84.0</ele><time>2026-04-05T17:38:50Z</time></trkpt><trkpt lat="45.06148742303861" lon="9.25551533587501"><ele>84.0</ele><time>2026-04-05T17:38:51Z</time></trkpt><trkpt lat="45.061615631700114" lon="9.25558942043841"><ele>84.0</ele><time>2026-04-05T17:38:52Z</time></trkpt><trkpt lat="45.061758525085324" lon="9.255646624311032"><ele>83.66666666666667</ele><time>2026-04-05T17:38:52.999Z</time></trkpt><trkpt lat="45.061916631205484" lon="9.255687868969948"><ele>83.33333333333334</ele><time>2026-04-05T17:38:53.999Z</time></trkpt><trkpt lat="45.06206092892661" lon="9.255747598642065"><ele>83.0</ele><time>2026-04-05T17:38:54.999Z</time></trkpt><trkpt lat="45.06220151528814" lon="9.255791784259193"><ele>83.0</ele><time>2026-04-05T17:38:55.999Z</time></trkpt><trkpt lat="45.062361768960855" lon="9.255827320243652"><ele>83.0</ele><time>2026-04-05T17:38:56.999Z</time></trkpt><trkpt lat="45.06251684350379" lon="9.255875670043471"><ele>83.0</ele><time>2026-04-05T17:38:57.999Z</time></trkpt><trkpt lat="45.0626506183219" lon="9.25591667533053"><ele>83.25</ele><time>2026-04-05T17:38:58.999Z</time></trkpt><trkpt lat="45.06278407427062" lon="9.255958994913724"><ele>83.5</ele><time>2026-04-05T17:38:59.999Z</time></trkpt><trkpt lat="45.062919264742035" lon="9.255989766990139"><ele>83.75</ele><time>2026-04-05T17:39:00.999Z</time></trkpt><trkpt lat="45.063053697903314" lon="9.256018863050215"><ele>84.0</ele><time>2026-04-05T17:39:01.999Z</time></trkpt><trkpt lat="45.06318993249511" lon="9.256046316131558"><ele>83.25</ele><time>2026-04-05T17:39:02.999Z</time></trkpt><trkpt lat="45.06332328320664" lon="9.25608060632467"><ele>82.5</ele><time>2026-04-05T17:39:03.999Z</time></trkpt><trkpt lat="45.06343825353377" lon="9.256169691844672"><ele>81.75</ele><time>2026-04-05T17:39:04.999Z</time></trkpt><trkpt lat="45.063553621157034" lon="9.256219771892377"><ele>81.0</ele><time>2026-04-05T17:39:05.999Z</time></trkpt><trkpt lat="45.063667206496966" lon="9.256266186107363"><ele>81.0</ele><time>2026-04-05T17:39:06.999Z</time></trkpt><trkpt lat="45.063755322460096" lon="9.256359276066584"><ele>81.0</ele><time>2026-04-05T17:39:07.999Z</time></trkpt><trkpt lat="45.06384806535304" lon="9.256425722547936"><ele>81.0</ele><time>2026-04-05T17:39:08.999Z</time></trkpt><trkpt lat="45.063934447706764" lon="9.256490108480314"><ele>81.0</ele><time>2026-04-05T17:39:09.999Z</time></trkpt><trkpt lat="45.064013755379996" lon="9.256549830564209"><ele>81.0</ele><time>2026-04-05T17:39:10.999Z</time></trkpt><trkpt lat="45.06408176555607" lon="9.256608087653772"><ele>80.8</ele><time>2026-04-05T17:39:11.999Z</time></trkpt><trkpt lat="45.06414585749715" lon="9.256670397945525"><ele>80.6</ele><time>2026-04-05T17:39:12.999Z</time></trkpt><trkpt lat="45.06419606438799" lon="9.256773418160735"><ele>80.4</ele><time>2026-04-05T17:39:13.999Z</time></trkpt><trkpt lat="45.06425113592121" lon="9.256899703845528"><ele>80.2</ele><time>2026-04-05T17:39:14.999Z</time></trkpt><trkpt lat="45.06431383476052" lon="9.257037764932226"><ele>80.0</ele><time>2026-04-05T17:39:15.999Z</time></trkpt><trkpt lat="45.06438514835509" lon="9.257169564082247"><ele>80.0</ele><time>2026-04-05T17:39:16.999Z</time></trkpt><trkpt lat="45.06444561305358" lon="9.257294373564672"><ele>80.0</ele><time>2026-04-05T17:39:17.999Z</time></trkpt><trkpt lat="45.064510600595355" lon="9.257427885633938"><ele>80.0</ele><time>2026-04-05T17:39:18.999Z</time></trkpt><trkpt lat="45.06457938649184" lon="9.257573518429524"><ele>80.0</ele><time>2026-04-05T17:39:19.999Z</time></trkpt><trkpt lat="45.064645630376475" lon="9.257714514984503"><ele>80.0</ele><time>2026-04-05T17:39:20.999Z</time></trkpt><trkpt lat="45.064713940784834" lon="9.257848504690644"><ele>80.0</ele><time>2026-04-05T17:39:21.999Z</time></trkpt><trkpt lat="45.06477624612819" lon="9.257976214423815"><ele>80.0</ele><time>2026-04-05T17:39:22.999Z</time></trkpt><trkpt lat="45.06483343503008" lon="9.25809670369106"><ele>80.0</ele><time>2026-04-05T17:39:23.999Z</time></trkpt><trkpt lat="45.06489308967055" lon="9.25820941926918"><ele>80.0</ele><time>2026-04-05T17:39:24.999Z</time></trkpt><trkpt lat="45.06494518493996" lon="9.258307995639832"><ele>80.0</ele><time>2026-04-05T17:39:25.999Z</time></trkpt><trkpt lat="45.064991353610814" lon="9.258395324973863"><ele>80.0</ele><time>2026-04-05T17:39:26.999Z</time></trkpt><trkpt lat="45.06503245164185" lon="9.258471268962342"><ele>80.0</ele><time>2026-04-05T17:39:27.999Z</time></trkpt><trkpt lat="45.065097582514795" lon="9.258591708012291"><ele>80.0</ele><time>2026-04-05T17:39:29.999Z</time></trkpt><trkpt lat="45.065143049472915" lon="9.258665188209111"><ele>80.0</ele><time>2026-04-05T17:39:36.999Z</time></trkpt><trkpt lat="45.06526131641582" lon="9.258846269697248"><ele>80.5</ele><time>2026-04-05T17:40:23Z</time></trkpt><trkpt lat="45.06532167511618" lon="9.258969433616915"><ele>81.0</ele><time>2026-04-05T17:40:24Z</time></trkpt><trkpt lat="45.06538643031585" lon="9.259109374049764"><ele>81.5</ele><time>2026-04-05T17:40:25Z</time></trkpt><trkpt lat="45.06545107509635" lon="9.259245830200221"><ele>82.0</ele><time>2026-04-05T17:40:26Z</time></trkpt><trkpt lat="45.06552122919003" lon="9.259402145692981"><ele>82.0</ele><time>2026-04-05T17:40:27Z</time></trkpt><trkpt lat="45.06560683157818" lon="9.259576201268654"><ele>82.0</ele><time>2026-04-05T17:40:28Z</time></trkpt><trkpt lat="45.06570141452283" lon="9.25974615750706"><ele>82.0</ele><time>2026-04-05T17:40:29Z</time></trkpt><trkpt lat="45.065799667293355" lon="9.259952347922582"><ele>81.25</ele><time>2026-04-05T17:40:30Z</time></trkpt><trkpt lat="45.065888112901234" lon="9.260142285731018"><ele>80.5</ele><time>2026-04-05T17:40:31Z</time></trkpt><trkpt lat="45.065971538588336" lon="9.26031762284464"><ele>79.75</ele><time>2026-04-05T17:40:32Z</time></trkpt><trkpt lat="45.06604467712939" lon="9.260472288586813"><ele>79.0</ele><time>2026-04-05T17:40:33Z</time></trkpt><trkpt lat="45.066095505013806" lon="9.260624254798715"><ele>79.0</ele><time>2026-04-05T17:40:34Z</time></trkpt><trkpt lat="45.06617448775158" lon="9.260762165475267"><ele>79.0</ele><time>2026-04-05T17:40:35Z</time></trkpt><trkpt lat="45.06621890430644" lon="9.260886593216783"><ele>79.0</ele><time>2026-04-05T17:40:36Z</time></trkpt><trkpt lat="45.066273130849794" lon="9.261022578057519"><ele>79.0</ele><time>2026-04-05T17:40:37Z</time></trkpt><trkpt lat="45.066330014072044" lon="9.261161848951671"><ele>79.0</ele><time>2026-04-05T17:40:38Z</time></trkpt><trkpt lat="45.066377981390865" lon="9.261273394363906"><ele>79.0</ele><time>2026-04-05T17:40:39Z</time></trkpt><trkpt lat="45.066443319922335" lon="9.2613998398949"><ele>79.0</ele><time>2026-04-05T17:40:40Z</time></trkpt><trkpt lat="45.066533076947756" lon="9.261559337444334"><ele>79.0</ele><time>2026-04-05T17:40:41Z</time></trkpt><trkpt lat="45.06663993663113" lon="9.261726275261664"><ele>79.0</ele><time>2026-04-05T17:40:42Z</time></trkpt><trkpt lat="45.06674880854843" lon="9.26192071563372"><ele>79.0</ele><time>2026-04-05T17:40:43Z</time></trkpt><trkpt lat="45.06685922059839" lon="9.262137057278537"><ele>79.0</ele><time>2026-04-05T17:40:44Z</time></trkpt><trkpt lat="45.06697351996971" lon="9.262365327445071"><ele>79.0</ele><time>2026-04-05T17:40:45Z</time></trkpt><trkpt lat="45.06709828859579" lon="9.262591516089657"><ele>80.0</ele><time>2026-04-05T17:40:46Z</time></trkpt><trkpt lat="45.067223003953735" lon="9.262836262076707"><ele>81.0</ele><time>2026-04-05T17:40:47Z</time></trkpt><trkpt lat="45.06734412417556" lon="9.263082216011968"><ele>82.0</ele><time>2026-04-05T17:40:48Z</time></trkpt><trkpt lat="45.06744943658997" lon="9.263315812400588"><ele>82.0</ele><time>2026-04-05T17:40:49Z</time></trkpt><trkpt lat="45.06758351188365" lon="9.26356547233693"><ele>82.0</ele><time>2026-04-05T17:40:50Z</time></trkpt><trkpt lat="45.06770105836398" lon="9.263796557216331"><ele>82.0</ele><time>2026-04-05T17:40:51Z</time></trkpt><trkpt lat="45.06781823317052" lon="9.264030337250068"><ele>82.0</ele><time>2026-04-05T17:40:52Z</time></trkpt><trkpt lat="45.06792640201021" lon="9.264254059765141"><ele>82.0</ele><time>2026-04-05T17:40:53Z</time></trkpt><trkpt lat="45.06803102657052" lon="9.264470708431068"><ele>82.0</ele><time>2026-04-05T17:40:54Z</time></trkpt><trkpt lat="45.06813654923065" lon="9.26468055947124"><ele>82.0</ele><time>2026-04-05T17:40:55Z</time></trkpt><trkpt lat="45.068241286989206" lon="9.264887958278262"><ele>82.0</ele><time>2026-04-05T17:40:56Z</time></trkpt><trkpt lat="45.06833812088827" lon="9.26507563972614"><ele>82.0</ele><time>2026-04-05T17:40:57Z</time></trkpt><trkpt lat="45.06842400020931" lon="9.265242695180556"><ele>82.0</ele><time>2026-04-05T17:40:58Z</time></trkpt><trkpt lat="45.068504049937445" lon="9.265393453838868"><ele>82.0</ele><time>2026-04-05T17:40:58.999Z</time></trkpt><trkpt lat="45.06858342643319" lon="9.26554850040716"><ele>82.0</ele><time>2026-04-05T17:40:59.999Z</time></trkpt><trkpt lat="45.0686634154076" lon="9.265713026948355"><ele>82.0</ele><time>2026-04-05T17:41:00.999Z</time></trkpt><trkpt lat="45.068742229495406" lon="9.265882620713247"><ele>82.0</ele><time>2026-04-05T17:41:01.999Z</time></trkpt><trkpt lat="45.06880592593487" lon="9.266023495450128"><ele>82.0</ele><time>2026-04-05T17:41:02.999Z</time></trkpt><trkpt lat="45.06885858119699" lon="9.266140269680921"><ele>82.0</ele><time>2026-04-05T17:41:03.999Z</time></trkpt><trkpt lat="45.06889971659347" lon="9.266240785435288"><ele>82.0</ele><time>2026-04-05T17:41:04.999Z</time></trkpt><trkpt lat="45.06893851932393" lon="9.266348000041226"><ele>82.0</ele><time>2026-04-05T17:41:05.999Z</time></trkpt><trkpt lat="45.06895344942588" lon="9.266475748452041"><ele>82.33333333333333</ele><time>2026-04-05T17:41:06.999Z</time></trkpt><trkpt lat="45.0689624541871" lon="9.266590371813953"><ele>82.66666666666666</ele><time>2026-04-05T17:41:07.999Z</time></trkpt><trkpt lat="45.06898222051472" lon="9.266680088726112"><ele>83.0</ele><time>2026-04-05T17:41:08.999Z</time></trkpt><trkpt lat="45.06908331234664" lon="9.26675171029908"><ele>83.33333333333333</ele><time>2026-04-05T17:41:10.999Z</time></trkpt><trkpt lat="45.06915009018402" lon="9.266728289681396"><ele>83.66666666666667</ele><time>2026-04-05T17:41:11.999Z</time></trkpt><trkpt lat="45.069205093614464" lon="9.266660705283561"><ele>84.0</ele><time>2026-04-05T17:41:12.999Z</time></trkpt><trkpt lat="45.06924502654398" lon="9.26655697320256"><ele>83.25</ele><time>2026-04-05T17:41:13.999Z</time></trkpt><trkpt lat="45.06929622630848" lon="9.266425329274687"><ele>82.5</ele><time>2026-04-05T17:41:14.999Z</time></trkpt><trkpt lat="45.06937144297742" lon="9.266293005978198"><ele>81.75</ele><time>2026-04-05T17:41:15.999Z</time></trkpt><trkpt lat="45.06947266811579" lon="9.266171087131196"><ele>81.0</ele><time>2026-04-05T17:41:16.999Z</time></trkpt><trkpt lat="45.069601086666914" lon="9.266051498886885"><ele>81.0</ele><time>2026-04-05T17:41:17.999Z</time></trkpt><trkpt lat="45.06975124876548" lon="9.265918929769919"><ele>81.0</ele><time>2026-04-05T17:41:18.999Z</time></trkpt><trkpt lat="45.06990604064472" lon="9.265778480025892"><ele>81.0</ele><time>2026-04-05T17:41:19.999Z</time></trkpt><trkpt lat="45.0700559955847" lon="9.265645465181688"><ele>80.33333333333333</ele><time>2026-04-05T17:41:20.999Z</time></trkpt><trkpt lat="45.0702085417147" lon="9.265504972269518"><ele>79.66666666666666</ele><time>2026-04-05T17:41:21.999Z</time></trkpt><trkpt lat="45.07034384364433" lon="9.265380022344898"><ele>79.0</ele><time>2026-04-05T17:41:22.999Z</time></trkpt><trkpt lat="45.07046896821023" lon="9.265261391995676"><ele>79.0</ele><time>2026-04-05T17:41:23.999Z</time></trkpt><trkpt lat="45.070597504652824" lon="9.265141718949724"><ele>79.0</ele><time>2026-04-05T17:41:24.999Z</time></trkpt><trkpt lat="45.07073065751861" lon="9.265025553116804"><ele>79.0</ele><time>2026-04-05T17:41:25.999Z</time></trkpt><trkpt lat="45.07086135709156" lon="9.264909665770576"><ele>79.33333333333333</ele><time>2026-04-05T17:41:26.999Z</time></trkpt><trkpt lat="45.07099225954958" lon="9.264783846805035"><ele>79.66666666666667</ele><time>2026-04-05T17:41:27.999Z</time></trkpt><trkpt lat="45.071126792691615" lon="9.264655618768156"><ele>80.0</ele><time>2026-04-05T17:41:28.999Z</time></trkpt><trkpt lat="45.07126552159203" lon="9.264536115492596"><ele>79.0</ele><time>2026-04-05T17:41:29.999Z</time></trkpt><trkpt lat="45.07140572061891" lon="9.264416911403044"><ele>78.0</ele><time>2026-04-05T17:41:30.999Z</time></trkpt><trkpt lat="45.07155266222313" lon="9.264285527519194"><ele>77.0</ele><time>2026-04-05T17:41:31.999Z</time></trkpt><trkpt lat="45.071697077933564" lon="9.26414659957896"><ele>77.0</ele><time>2026-04-05T17:41:32.999Z</time></trkpt><trkpt lat="45.07184958639498" lon="9.264006536920856"><ele>77.0</ele><time>2026-04-05T17:41:33.999Z</time></trkpt><trkpt lat="45.072019936357464" lon="9.26385825330245"><ele>77.0</ele><time>2026-04-05T17:41:34.999Z</time></trkpt><trkpt lat="45.072200967287436" lon="9.26369148405305"><ele>76.0</ele><time>2026-04-05T17:41:35.999Z</time></trkpt><trkpt lat="45.07238622623892" lon="9.26352310339999"><ele>75.0</ele><time>2026-04-05T17:41:36.999Z</time></trkpt><trkpt lat="45.07257722784844" lon="9.263340801948303"><ele>75.0</ele><time>2026-04-05T17:41:37.999Z</time></trkpt><trkpt lat="45.07277124796617" lon="9.263160633442872"><ele>75.0</ele><time>2026-04-05T17:41:38.999Z</time></trkpt><trkpt lat="45.072971528857636" lon="9.262984417863409"><ele>75.0</ele><time>2026-04-05T17:41:39.999Z</time></trkpt><trkpt lat="45.07317639942692" lon="9.26280693674435"><ele>75.0</ele><time>2026-04-05T17:41:40.999Z</time></trkpt><trkpt lat="45.07338460515341" lon="9.262620808107446"><ele>74.5</ele><time>2026-04-05T17:41:41.999Z</time></trkpt><trkpt lat="45.073594317416095" lon="9.262425800172647"><ele>74.0</ele><time>2026-04-05T17:41:42.999Z</time></trkpt><trkpt lat="45.0738079718745" lon="9.262233680859495"><ele>74.0</ele><time>2026-04-05T17:41:43.999Z</time></trkpt><trkpt lat="45.07401002389654" lon="9.262049864938923"><ele>74.0</ele><time>2026-04-05T17:41:44.999Z</time></trkpt><trkpt lat="45.07419391485026" lon="9.261878387173319"><ele>74.0</ele><time>2026-04-05T17:41:45.999Z</time></trkpt><trkpt lat="45.07437161544909" lon="9.261719697344645"><ele>74.0</ele><time>2026-04-05T17:41:46.999Z</time></trkpt><trkpt lat="45.074545406115284" lon="9.26154817742874"><ele>74.0</ele><time>2026-04-05T17:41:47.999Z</time></trkpt><trkpt lat="45.07471824318046" lon="9.261398168194898"><ele>74.0</ele><time>2026-04-05T17:41:48.999Z</time></trkpt><trkpt lat="45.07488788698496" lon="9.261250188076398"><ele>74.0</ele><time>2026-04-05T17:41:49.999Z</time></trkpt><trkpt lat="45.07505086475427" lon="9.261109009852262"><ele>74.0</ele><time>2026-04-05T17:41:50.999Z</time></trkpt><trkpt lat="45.075215299892875" lon="9.26097680116985"><ele>74.0</ele><time>2026-04-05T17:41:51.999Z</time></trkpt><trkpt lat="45.075384295149604" lon="9.260860325241586"><ele>74.0</ele><time>2026-04-05T17:41:52.999Z</time></trkpt><trkpt lat="45.0755578502446" lon="9.260754818527207"><ele>74.0</ele><time>2026-04-05T17:41:53.999Z</time></trkpt><trkpt lat="45.07574294389286" lon="9.26065532183387"><ele>73.33333333333334</ele><time>2026-04-05T17:41:54.999Z</time></trkpt><trkpt lat="45.07593944784252" lon="9.260548359416555"><ele>72.66666666666667</ele><time>2026-04-05T17:41:55.999Z</time></trkpt><trkpt lat="45.07613810386464" lon="9.26046150914138"><ele>72.0</ele><time>2026-04-05T17:41:56.999Z</time></trkpt><trkpt lat="45.07634755565406" lon="9.260376719826082"><ele>72.0</ele><time>2026-04-05T17:41:57.999Z</time></trkpt><trkpt lat="45.07657550548635" lon="9.260287980414606"><ele>72.0</ele><time>2026-04-05T17:41:58.999Z</time></trkpt><trkpt lat="45.07680562268747" lon="9.260210414062659"><ele>72.5</ele><time>2026-04-05T17:41:59.999Z</time></trkpt><trkpt lat="45.07705231139342" lon="9.260140236262195"><ele>73.0</ele><time>2026-04-05T17:42:00.999Z</time></trkpt><trkpt lat="45.07728525705789" lon="9.260073345970607"><ele>72.0</ele><time>2026-04-05T17:42:01.999Z</time></trkpt><trkpt lat="45.07751763468296" lon="9.260006639525006"><ele>71.0</ele><time>2026-04-05T17:42:02.999Z</time></trkpt><trkpt lat="45.07775096655541" lon="9.259945510409937"><ele>71.0</ele><time>2026-04-05T17:42:04Z</time></trkpt><trkpt lat="45.07798615336192" lon="9.259879473223053"><ele>71.0</ele><time>2026-04-05T17:42:05Z</time></trkpt><trkpt lat="45.07821776686832" lon="9.259811428111192"><ele>71.0</ele><time>2026-04-05T17:42:06Z</time></trkpt><trkpt lat="45.07844450184822" lon="9.259741576273523"><ele>71.0</ele><time>2026-04-05T17:42:07Z</time></trkpt><trkpt lat="45.07869012082623" lon="9.259664589901659"><ele>71.0</ele><time>2026-04-05T17:42:08Z</time></trkpt><trkpt lat="45.07894544758103" lon="9.259586160366494"><ele>71.0</ele><time>2026-04-05T17:42:09Z</time></trkpt><trkpt lat="45.07919562550271" lon="9.259515348378589"><ele>70.0</ele><time>2026-04-05T17:42:10Z</time></trkpt><trkpt lat="45.079432935951026" lon="9.259450975155364"><ele>69.0</ele><time>2026-04-05T17:42:11Z</time></trkpt><trkpt lat="45.07966923959081" lon="9.259379163896135"><ele>69.0</ele><time>2026-04-05T17:42:12Z</time></trkpt><trkpt lat="45.07990673033894" lon="9.259310663673372"><ele>69.0</ele><time>2026-04-05T17:42:13Z</time></trkpt><trkpt lat="45.08014404674925" lon="9.259239991402838"><ele>68.5</ele><time>2026-04-05T17:42:14Z</time></trkpt><trkpt lat="45.08037742355751" lon="9.259169608223392"><ele>68.0</ele><time>2026-04-05T17:42:15Z</time></trkpt><trkpt lat="45.080613054206246" lon="9.259105044974145"><ele>68.0</ele><time>2026-04-05T17:42:16Z</time></trkpt><trkpt lat="45.080848049356185" lon="9.25903541272728"><ele>68.0</ele><time>2026-04-05T17:42:17Z</time></trkpt><trkpt lat="45.08107539870453" lon="9.258972602819748"><ele>68.0</ele><time>2026-04-05T17:42:18Z</time></trkpt><trkpt lat="45.08129971875156" lon="9.258903852165204"><ele>68.0</ele><time>2026-04-05T17:42:19Z</time></trkpt><trkpt lat="45.081528383494955" lon="9.258834419202222"><ele>68.0</ele><time>2026-04-05T17:42:20Z</time></trkpt><trkpt lat="45.08176281344216" lon="9.258764955175241"><ele>68.0</ele><time>2026-04-05T17:42:21Z</time></trkpt><trkpt lat="45.081992897247815" lon="9.25869820705064"><ele>68.0</ele><time>2026-04-05T17:42:22Z</time></trkpt><trkpt lat="45.08221918369937" lon="9.258628675976174"><ele>68.0</ele><time>2026-04-05T17:42:23Z</time></trkpt><trkpt lat="45.08244347277118" lon="9.258563552904503"><ele>68.33333333333334</ele><time>2026-04-05T17:42:24Z</time></trkpt><trkpt lat="45.08266225609023" lon="9.258499208001293"><ele>68.66666666666667</ele><time>2026-04-05T17:42:25Z</time></trkpt><trkpt lat="45.082878088744636" lon="9.258431024465612"><ele>69.0</ele><time>2026-04-05T17:42:26Z</time></trkpt><trkpt lat="45.08309456173036" lon="9.258366112181417"><ele>69.0</ele><time>2026-04-05T17:42:27Z</time></trkpt><trkpt lat="45.083317427051796" lon="9.25830752067486"><ele>69.0</ele><time>2026-04-05T17:42:28Z</time></trkpt><trkpt lat="45.08355514685386" lon="9.258245375815013"><ele>69.0</ele><time>2026-04-05T17:42:29Z</time></trkpt><trkpt lat="45.083808559178856" lon="9.258184322306843"><ele>69.0</ele><time>2026-04-05T17:42:30Z</time></trkpt><trkpt lat="45.084058500805035" lon="9.258131575778329"><ele>68.0</ele><time>2026-04-05T17:42:31Z</time></trkpt><trkpt lat="45.084291468633495" lon="9.258078924520248"><ele>67.0</ele><time>2026-04-05T17:42:32Z</time></trkpt><trkpt lat="45.08452043087543" lon="9.258035528634181"><ele>67.0</ele><time>2026-04-05T17:42:33Z</time></trkpt><trkpt lat="45.08474738985412" lon="9.257992581490953"><ele>67.0</ele><time>2026-04-05T17:42:34Z</time></trkpt><trkpt lat="45.08496184942955" lon="9.257951979132553"><ele>67.0</ele><time>2026-04-05T17:42:35Z</time></trkpt><trkpt lat="45.08517142241577" lon="9.25790267208358"><ele>66.33333333333333</ele><time>2026-04-05T17:42:36Z</time></trkpt><trkpt lat="45.08538136646412" lon="9.257853904722353"><ele>65.66666666666667</ele><time>2026-04-05T17:42:37Z</time></trkpt><trkpt lat="45.08558948846175" lon="9.257796211833769"><ele>65.0</ele><time>2026-04-05T17:42:38Z</time></trkpt><trkpt lat="45.08579562214202" lon="9.257732672616692"><ele>65.0</ele><time>2026-04-05T17:42:39Z</time></trkpt><trkpt lat="45.08600269012477" lon="9.257663664065646"><ele>65.0</ele><time>2026-04-05T17:42:40Z</time></trkpt><trkpt lat="45.0862099737905" lon="9.25758275833933"><ele>65.0</ele><time>2026-04-05T17:42:41Z</time></trkpt><trkpt lat="45.0864198353278" lon="9.257496988460293"><ele>65.0</ele><time>2026-04-05T17:42:42Z</time></trkpt><trkpt lat="45.086621010524" lon="9.25740007362842"><ele>65.0</ele><time>2026-04-05T17:42:43Z</time></trkpt><trkpt lat="45.086783563773984" lon="9.25732159985275"><ele>65.0</ele><time>2026-04-05T17:42:44Z</time></trkpt><trkpt lat="45.08692377396695" lon="9.257245630028422"><ele>65.0</ele><time>2026-04-05T17:42:45Z</time></trkpt><trkpt lat="45.08705155219068" lon="9.257168261663779"><ele>65.0</ele><time>2026-04-05T17:42:46Z</time></trkpt><trkpt lat="45.08717564691281" lon="9.257108834200796"><ele>65.0</ele><time>2026-04-05T17:42:47Z</time></trkpt><trkpt lat="45.087293020848485" lon="9.257049712030934"><ele>65.0</ele><time>2026-04-05T17:42:48Z</time></trkpt><trkpt lat="45.087402039075" lon="9.256989310805983"><ele>65.6</ele><time>2026-04-05T17:42:49Z</time></trkpt><trkpt lat="45.08750340873686" lon="9.256929586574218"><ele>66.2</ele><time>2026-04-05T17:42:50Z</time></trkpt><trkpt lat="45.08759635467888" lon="9.256884128130546"><ele>66.8</ele><time>2026-04-05T17:42:51Z</time></trkpt><trkpt lat="45.08768908294449" lon="9.256845384810774"><ele>67.4</ele><time>2026-04-05T17:42:52Z</time></trkpt><trkpt lat="45.0877685186898" lon="9.256813682707815"><ele>68.0</ele><time>2026-04-05T17:42:53Z</time></trkpt><trkpt lat="45.08784191173225" lon="9.25678991407225"><ele>68.0</ele><time>2026-04-05T17:42:54Z</time></trkpt><trkpt lat="45.087914234146844" lon="9.256788319424434"><ele>68.0</ele><time>2026-04-05T17:42:55Z</time></trkpt><trkpt lat="45.08798055404063" lon="9.256808639418827"><ele>68.0</ele><time>2026-04-05T17:42:56Z</time></trkpt><trkpt lat="45.08805807323517" lon="9.25686494777966"><ele>68.0</ele><time>2026-04-05T17:42:57Z</time></trkpt><trkpt lat="45.088129473032176" lon="9.256926362963194"><ele>68.0</ele><time>2026-04-05T17:42:58Z</time></trkpt><trkpt lat="45.088207489429244" lon="9.256958349298921"><ele>68.0</ele><time>2026-04-05T17:42:59Z</time></trkpt><trkpt lat="45.08828031909197" lon="9.256946532996832"><ele>67.8</ele><time>2026-04-05T17:43:00Z</time></trkpt><trkpt lat="45.0883425561589" lon="9.256892520237251"><ele>67.6</ele><time>2026-04-05T17:43:01Z</time></trkpt><trkpt lat="45.08839079299194" lon="9.256799562740456"><ele>67.4</ele><time>2026-04-05T17:43:02Z</time></trkpt><trkpt lat="45.088431510801946" lon="9.256672716279828"><ele>67.2</ele><time>2026-04-05T17:43:03Z</time></trkpt><trkpt lat="45.08848355616797" lon="9.256539200173338"><ele>67.0</ele><time>2026-04-05T17:43:04Z</time></trkpt><trkpt lat="45.0885684543323" lon="9.256415571710553"><ele>67.0</ele><time>2026-04-05T17:43:05Z</time></trkpt><trkpt lat="45.088681798150105" lon="9.256293696229974"><ele>67.0</ele><time>2026-04-05T17:43:06Z</time></trkpt><trkpt lat="45.08881019091864" lon="9.256180543973318"><ele>67.0</ele><time>2026-04-05T17:43:07Z</time></trkpt><trkpt lat="45.088956361961586" lon="9.256057211518161"><ele>67.0</ele><time>2026-04-05T17:43:08Z</time></trkpt><trkpt lat="45.0891268439946" lon="9.255943019021865"><ele>67.0</ele><time>2026-04-05T17:43:08.999Z</time></trkpt><trkpt lat="45.089310931376225" lon="9.255828200083739"><ele>67.0</ele><time>2026-04-05T17:43:09.999Z</time></trkpt><trkpt lat="45.08950235854584" lon="9.255709725469691"><ele>66.33333333333333</ele><time>2026-04-05T17:43:10.999Z</time></trkpt><trkpt lat="45.08967728003825" lon="9.255598274234329"><ele>65.66666666666667</ele><time>2026-04-05T17:43:11.999Z</time></trkpt><trkpt lat="45.08985845051122" lon="9.255477588172791"><ele>65.0</ele><time>2026-04-05T17:43:12.999Z</time></trkpt><trkpt lat="45.09003680630385" lon="9.25536853628643"><ele>65.0</ele><time>2026-04-05T17:43:13.999Z</time></trkpt><trkpt lat="45.09021566053493" lon="9.255253272966987"><ele>65.0</ele><time>2026-04-05T17:43:14.999Z</time></trkpt><trkpt lat="45.090394224297334" lon="9.255149638216169"><ele>65.0</ele><time>2026-04-05T17:43:15.999Z</time></trkpt><trkpt lat="45.09057373540903" lon="9.25504034309542"><ele>65.0</ele><time>2026-04-05T17:43:16.999Z</time></trkpt><trkpt lat="45.09074489397283" lon="9.254941970370021"><ele>65.0</ele><time>2026-04-05T17:43:17.999Z</time></trkpt><trkpt lat="45.09089985043686" lon="9.254842998087401"><ele>65.0</ele><time>2026-04-05T17:43:18.999Z</time></trkpt><trkpt lat="45.09104389962793" lon="9.254754270302916"><ele>65.0</ele><time>2026-04-05T17:43:19.999Z</time></trkpt><trkpt lat="45.091174134816804" lon="9.254669200030643"><ele>65.0</ele><time>2026-04-05T17:43:20.999Z</time></trkpt><trkpt lat="45.091301262839174" lon="9.254598929235465"><ele>65.0</ele><time>2026-04-05T17:43:21.999Z</time></trkpt><trkpt lat="45.09142173391461" lon="9.254524914607359"><ele>65.0</ele><time>2026-04-05T17:43:22.999Z</time></trkpt><trkpt lat="45.09154216147083" lon="9.254449185893098"><ele>65.25</ele><time>2026-04-05T17:43:23.999Z</time></trkpt><trkpt lat="45.09166067791413" lon="9.254374539103392"><ele>65.5</ele><time>2026-04-05T17:43:24.999Z</time></trkpt><trkpt lat="45.09177778232412" lon="9.25430043624556"><ele>65.75</ele><time>2026-04-05T17:43:25.999Z</time></trkpt><trkpt lat="45.09189253094581" lon="9.254224373163515"><ele>66.0</ele><time>2026-04-05T17:43:26.999Z</time></trkpt><trkpt lat="45.09199875865578" lon="9.254154006092"><ele>66.0</ele><time>2026-04-05T17:43:27.999Z</time></trkpt><trkpt lat="45.092101817010644" lon="9.254088728712578"><ele>66.0</ele><time>2026-04-05T17:43:28.999Z</time></trkpt><trkpt lat="45.092198431572356" lon="9.254029959499654"><ele>66.0</ele><time>2026-04-05T17:43:29.999Z</time></trkpt><trkpt lat="45.092284874544305" lon="9.253974444260598"><ele>66.0</ele><time>2026-04-05T17:43:30.999Z</time></trkpt><trkpt lat="45.09236218529286" lon="9.253916148268937"><ele>66.0</ele><time>2026-04-05T17:43:31.999Z</time></trkpt><trkpt lat="45.09242800248921" lon="9.253868314816536"><ele>65.6</ele><time>2026-04-05T17:43:32.999Z</time></trkpt><trkpt lat="45.09250540423532" lon="9.25381558886767"><ele>65.19999999999999</ele><time>2026-04-05T17:43:33.999Z</time></trkpt><trkpt lat="45.09258177532805" lon="9.253749297819944"><ele>64.80000000000001</ele><time>2026-04-05T17:43:34.999Z</time></trkpt><trkpt lat="45.09266393276353" lon="9.253686777238924"><ele>64.4</ele><time>2026-04-05T17:43:35.999Z</time></trkpt><trkpt lat="45.09275785052331" lon="9.25364409854101"><ele>64.0</ele><time>2026-04-05T17:43:36.999Z</time></trkpt><trkpt lat="45.092858744150114" lon="9.253602625122072"><ele>64.0</ele><time>2026-04-05T17:43:37.999Z</time></trkpt><trkpt lat="45.09294570024537" lon="9.253528632638227"><ele>64.0</ele><time>2026-04-05T17:43:38.999Z</time></trkpt><trkpt lat="45.09303233337351" lon="9.253449819277716"><ele>64.0</ele><time>2026-04-05T17:43:39.999Z</time></trkpt><trkpt lat="45.09314344229859" lon="9.25339594787494"><ele>64.0</ele><time>2026-04-05T17:43:40.999Z</time></trkpt><trkpt lat="45.093269837895434" lon="9.253328857603908"><ele>64.25</ele><time>2026-04-05T17:43:41.999Z</time></trkpt><trkpt lat="45.09340252710201" lon="9.25324681155255"><ele>64.5</ele><time>2026-04-05T17:43:42.999Z</time></trkpt><trkpt lat="45.09352899356126" lon="9.253162619514256"><ele>64.75</ele><time>2026-04-05T17:43:43.999Z</time></trkpt><trkpt lat="45.093653940051944" lon="9.253071685771335"><ele>65.0</ele><time>2026-04-05T17:43:44.999Z</time></trkpt><trkpt lat="45.09377325445068" lon="9.25297423512125"><ele>65.0</ele><time>2026-04-05T17:43:45.999Z</time></trkpt><trkpt lat="45.093889772895984" lon="9.252875516393491"><ele>65.0</ele><time>2026-04-05T17:43:46.999Z</time></trkpt><trkpt lat="45.09400296455572" lon="9.252767213604887"><ele>65.0</ele><time>2026-04-05T17:43:47.999Z</time></trkpt><trkpt lat="45.09411786669946" lon="9.252645507298967"><ele>65.0</ele><time>2026-04-05T17:43:48.999Z</time></trkpt><trkpt lat="45.09422202112458" lon="9.252531506211369"><ele>65.25</ele><time>2026-04-05T17:43:49.999Z</time></trkpt><trkpt lat="45.094316170732604" lon="9.252425446546503"><ele>65.5</ele><time>2026-04-05T17:43:50.999Z</time></trkpt><trkpt lat="45.09440541679195" lon="9.252314300490122"><ele>65.75</ele><time>2026-04-05T17:43:51.999Z</time></trkpt><trkpt lat="45.09449388823689" lon="9.252202802553711"><ele>66.0</ele><time>2026-04-05T17:43:52.999Z</time></trkpt><trkpt lat="45.09457507206205" lon="9.252108256905027"><ele>66.0</ele><time>2026-04-05T17:43:53.999Z</time></trkpt><trkpt lat="45.094655039851446" lon="9.252004644505165"><ele>66.0</ele><time>2026-04-05T17:43:54.999Z</time></trkpt><trkpt lat="45.09474377108633" lon="9.251894122462872"><ele>66.0</ele><time>2026-04-05T17:43:55.999Z</time></trkpt><trkpt lat="45.094839063566546" lon="9.251778658537011"><ele>66.0</ele><time>2026-04-05T17:43:56.999Z</time></trkpt><trkpt lat="45.094945511598546" lon="9.251670698964544"><ele>66.0</ele><time>2026-04-05T17:43:57.999Z</time></trkpt><trkpt lat="45.095059033366766" lon="9.251565771118534"><ele>66.0</ele><time>2026-04-05T17:43:58.999Z</time></trkpt><trkpt lat="45.09517381551056" lon="9.251473713382264"><ele>66.0</ele><time>2026-04-05T17:43:59.999Z</time></trkpt><trkpt lat="45.09528905652884" lon="9.25136346207404"><ele>66.0</ele><time>2026-04-05T17:44:00.999Z</time></trkpt><trkpt lat="45.095413431138645" lon="9.251252108684088"><ele>66.0</ele><time>2026-04-05T17:44:01.999Z</time></trkpt><trkpt lat="45.09554889800667" lon="9.251142820132609"><ele>66.0</ele><time>2026-04-05T17:44:02.999Z</time></trkpt><trkpt lat="45.09568937421003" lon="9.251030360654338"><ele>66.0</ele><time>2026-04-05T17:44:03.999Z</time></trkpt><trkpt lat="45.09582296198561" lon="9.250907266287529"><ele>65.25</ele><time>2026-04-05T17:44:04.999Z</time></trkpt><trkpt lat="45.09594618844963" lon="9.25080968762228"><ele>64.5</ele><time>2026-04-05T17:44:05.999Z</time></trkpt><trkpt lat="45.09606000507184" lon="9.250719786346927"><ele>63.75</ele><time>2026-04-05T17:44:06.999Z</time></trkpt><trkpt lat="45.096166034525716" lon="9.250640802002868"><ele>63.0</ele><time>2026-04-05T17:44:07.999Z</time></trkpt><trkpt lat="45.096263556895835" lon="9.250563974079075"><ele>63.0</ele><time>2026-04-05T17:44:08.999Z</time></trkpt><trkpt lat="45.096359565725535" lon="9.250494430454749"><ele>63.0</ele><time>2026-04-05T17:44:10Z</time></trkpt><trkpt lat="45.09646505353366" lon="9.250405205187471"><ele>63.0</ele><time>2026-04-05T17:44:11Z</time></trkpt><trkpt lat="45.096568542693795" lon="9.250322533164264"><ele>63.0</ele><time>2026-04-05T17:44:12Z</time></trkpt><trkpt lat="45.09666408431137" lon="9.250249612731844"><ele>63.0</ele><time>2026-04-05T17:44:13Z</time></trkpt><trkpt lat="45.096756946506794" lon="9.250188385832587"><ele>63.0</ele><time>2026-04-05T17:44:14Z</time></trkpt><trkpt lat="45.096840240809" lon="9.250132767380551"><ele>63.0</ele><time>2026-04-05T17:44:15Z</time></trkpt><trkpt lat="45.09691293283971" lon="9.250060651780354"><ele>63.0</ele><time>2026-04-05T17:44:16Z</time></trkpt><trkpt lat="45.09697833889421" lon="9.24999728607874"><ele>63.0</ele><time>2026-04-05T17:44:17Z</time></trkpt><trkpt lat="45.0970375419391" lon="9.249941712281075"><ele>63.0</ele><time>2026-04-05T17:44:18Z</time></trkpt><trkpt lat="45.09710936409544" lon="9.249895606034956"><ele>63.0</ele><time>2026-04-05T17:44:19Z</time></trkpt><trkpt lat="45.09719118218188" lon="9.249878802325984"><ele>63.0</ele><time>2026-04-05T17:44:20Z</time></trkpt><trkpt lat="45.09727456431691" lon="9.249880419466594"><ele>63.0</ele><time>2026-04-05T17:44:21Z</time></trkpt><trkpt lat="45.097351628798066" lon="9.249878467565116"><ele>63.0</ele><time>2026-04-05T17:44:22Z</time></trkpt><trkpt lat="45.09743100982955" lon="9.249843998413702"><ele>63.0</ele><time>2026-04-05T17:44:23Z</time></trkpt><trkpt lat="45.09749232328596" lon="9.24976449933603"><ele>63.0</ele><time>2026-04-05T17:44:24Z</time></trkpt><trkpt lat="45.0975467026964" lon="9.249664163661949"><ele>63.25</ele><time>2026-04-05T17:44:25Z</time></trkpt><trkpt lat="45.097612614398635" lon="9.24956111514232"><ele>63.5</ele><time>2026-04-05T17:44:26Z</time></trkpt><trkpt lat="45.09770435664048" lon="9.249447016046872"><ele>63.75</ele><time>2026-04-05T17:44:27Z</time></trkpt><trkpt lat="45.09780679333547" lon="9.24934714081619"><ele>64.0</ele><time>2026-04-05T17:44:28Z</time></trkpt><trkpt lat="45.09791075276714" lon="9.249243525134464"><ele>64.0</ele><time>2026-04-05T17:44:29Z</time></trkpt><trkpt lat="45.098022782638125" lon="9.249150033880913"><ele>64.0</ele><time>2026-04-05T17:44:30Z</time></trkpt><trkpt lat="45.09813028218086" lon="9.24905794148294"><ele>64.0</ele><time>2026-04-05T17:44:31Z</time></trkpt><trkpt lat="45.09823352667978" lon="9.248966958894753"><ele>64.0</ele><time>2026-04-05T17:44:32Z</time></trkpt><trkpt lat="45.09832265605493" lon="9.248892607519776"><ele>63.800000000000004</ele><time>2026-04-05T17:44:33Z</time></trkpt><trkpt lat="45.09840962337151" lon="9.248821420265704"><ele>63.60000000000001</ele><time>2026-04-05T17:44:34Z</time></trkpt><trkpt lat="45.098500335809405" lon="9.248746074118642"><ele>63.4</ele><time>2026-04-05T17:44:35Z</time></trkpt><trkpt lat="45.09859612995157" lon="9.248670424595247"><ele>63.2</ele><time>2026-04-05T17:44:36Z</time></trkpt><trkpt lat="45.09868931268902" lon="9.24858776470207"><ele>63.0</ele><time>2026-04-05T17:44:37Z</time></trkpt><trkpt lat="45.098788879158285" lon="9.248498748757177"><ele>63.0</ele><time>2026-04-05T17:44:38Z</time></trkpt><trkpt lat="45.09889490987839" lon="9.248412587731734"><ele>63.0</ele><time>2026-04-05T17:44:39Z</time></trkpt><trkpt lat="45.09900175345655" lon="9.248308566911598"><ele>63.0</ele><time>2026-04-05T17:44:40Z</time></trkpt><trkpt lat="45.09911319050555" lon="9.248209410604332"><ele>63.0</ele><time>2026-04-05T17:44:41Z</time></trkpt><trkpt lat="45.09922834102571" lon="9.248117479791883"><ele>63.0</ele><time>2026-04-05T17:44:42Z</time></trkpt><trkpt lat="45.0993502558266" lon="9.248031027604485"><ele>63.0</ele><time>2026-04-05T17:44:43Z</time></trkpt><trkpt lat="45.09947150809375" lon="9.247933689631155"><ele>63.0</ele><time>2026-04-05T17:44:44Z</time></trkpt><trkpt lat="45.09959730172367" lon="9.247816614415749"><ele>63.0</ele><time>2026-04-05T17:44:45Z</time></trkpt><trkpt lat="45.09972759542421" lon="9.247718224155104"><ele>63.0</ele><time>2026-04-05T17:44:46Z</time></trkpt><trkpt lat="45.09986226376486" lon="9.247602351494843"><ele>63.0</ele><time>2026-04-05T17:44:47Z</time></trkpt><trkpt lat="45.10000388910546" lon="9.247484125033028"><ele>63.0</ele><time>2026-04-05T17:44:48Z</time></trkpt><trkpt lat="45.10014138997017" lon="9.24736793556309"><ele>62.5</ele><time>2026-04-05T17:44:49Z</time></trkpt><trkpt lat="45.100275550002166" lon="9.247267918234854"><ele>62.0</ele><time>2026-04-05T17:44:50Z</time></trkpt><trkpt lat="45.100401470690365" lon="9.247166948872612"><ele>61.5</ele><time>2026-04-05T17:44:51Z</time></trkpt><trkpt lat="45.10051731904632" lon="9.24707752099078"><ele>61.0</ele><time>2026-04-05T17:44:52Z</time></trkpt><trkpt lat="45.10062778187672" lon="9.24700475732906"><ele>61.0</ele><time>2026-04-05T17:44:53Z</time></trkpt><trkpt lat="45.10074658810748" lon="9.246907809398506"><ele>61.0</ele><time>2026-04-05T17:44:54Z</time></trkpt><trkpt lat="45.10086828522999" lon="9.246812793011399"><ele>61.0</ele><time>2026-04-05T17:44:55Z</time></trkpt><trkpt lat="45.10098709983709" lon="9.246717902882896"><ele>61.0</ele><time>2026-04-05T17:44:56Z</time></trkpt><trkpt lat="45.10110413883848" lon="9.246623718591099"><ele>61.0</ele><time>2026-04-05T17:44:57Z</time></trkpt><trkpt lat="45.10121261928888" lon="9.246538737611864"><ele>61.0</ele><time>2026-04-05T17:44:58Z</time></trkpt><trkpt lat="45.1013196695167" lon="9.2464505593323"><ele>61.0</ele><time>2026-04-05T17:44:59Z</time></trkpt><trkpt lat="45.10143133419018" lon="9.246357580355587"><ele>61.0</ele><time>2026-04-05T17:45:00Z</time></trkpt><trkpt lat="45.10155134836976" lon="9.246266534758789"><ele>61.666666666666664</ele><time>2026-04-05T17:45:01Z</time></trkpt><trkpt lat="45.10168006861049" lon="9.246161803509487"><ele>62.33333333333333</ele><time>2026-04-05T17:45:02Z</time></trkpt><trkpt lat="45.10182109412477" lon="9.246055513418506"><ele>63.0</ele><time>2026-04-05T17:45:03Z</time></trkpt><trkpt lat="45.10197056046941" lon="9.24593994871779"><ele>63.0</ele><time>2026-04-05T17:45:04Z</time></trkpt><trkpt lat="45.10211452542037" lon="9.245830878176111"><ele>63.0</ele><time>2026-04-05T17:45:05Z</time></trkpt><trkpt lat="45.10225135894075" lon="9.24575105830841"><ele>63.0</ele><time>2026-04-05T17:45:06Z</time></trkpt><trkpt lat="45.102385779041526" lon="9.245641883147258"><ele>63.25</ele><time>2026-04-05T17:45:07Z</time></trkpt><trkpt lat="45.102523368262034" lon="9.245538133043073"><ele>63.5</ele><time>2026-04-05T17:45:08Z</time></trkpt><trkpt lat="45.1026488592862" lon="9.245432454939126"><ele>63.75</ele><time>2026-04-05T17:45:09Z</time></trkpt><trkpt lat="45.10276523300558" lon="9.245344466820121"><ele>64.0</ele><time>2026-04-05T17:45:10Z</time></trkpt><trkpt lat="45.10287688333658" lon="9.245256310297377"><ele>64.0</ele><time>2026-04-05T17:45:11Z</time></trkpt><trkpt lat="45.10298533055773" lon="9.245165904624466"><ele>64.0</ele><time>2026-04-05T17:45:12Z</time></trkpt><trkpt lat="45.10309998082753" lon="9.245075447443272"><ele>64.0</ele><time>2026-04-05T17:45:12.999Z</time></trkpt><trkpt lat="45.10321949447194" lon="9.244981587814246"><ele>64.0</ele><time>2026-04-05T17:45:13.999Z</time></trkpt><trkpt lat="45.10334910535088" lon="9.244890312801106"><ele>63.75</ele><time>2026-04-05T17:45:14.999Z</time></trkpt><trkpt lat="45.10345881152081" lon="9.244815486149434"><ele>63.5</ele><time>2026-04-05T17:45:15.999Z</time></trkpt><trkpt lat="45.10356237336741" lon="9.244737153396294"><ele>63.25</ele><time>2026-04-05T17:45:16.999Z</time></trkpt><trkpt lat="45.10365671027857" lon="9.244666393964783"><ele>63.0</ele><time>2026-04-05T17:45:17.999Z</time></trkpt><trkpt lat="45.103761012222584" lon="9.244591415790557"><ele>62.66666666666667</ele><time>2026-04-05T17:45:18.999Z</time></trkpt><trkpt lat="45.103884979246516" lon="9.244488124795744"><ele>62.333333333333336</ele><time>2026-04-05T17:45:19.999Z</time></trkpt><trkpt lat="45.1040285899021" lon="9.244371185953478"><ele>62.0</ele><time>2026-04-05T17:45:20.999Z</time></trkpt><trkpt lat="45.104182621210015" lon="9.244261926298725"><ele>62.0</ele><time>2026-04-05T17:45:21.999Z</time></trkpt><trkpt lat="45.10434624151356" lon="9.244158207194895"><ele>62.0</ele><time>2026-04-05T17:45:22.999Z</time></trkpt><trkpt lat="45.104515165021894" lon="9.244041697288674"><ele>62.0</ele><time>2026-04-05T17:45:23.999Z</time></trkpt><trkpt lat="45.10467997355235" lon="9.243926899994923"><ele>62.0</ele><time>2026-04-05T17:45:24.999Z</time></trkpt><trkpt lat="45.10483103574893" lon="9.243825494911482"><ele>62.0</ele><time>2026-04-05T17:45:25.999Z</time></trkpt><trkpt lat="45.10497385113024" lon="9.24371737137032"><ele>62.0</ele><time>2026-04-05T17:45:26.999Z</time></trkpt><trkpt lat="45.10511646262071" lon="9.243613421196605"><ele>62.0</ele><time>2026-04-05T17:45:27.999Z</time></trkpt><trkpt lat="45.1052607666725" lon="9.243504512073997"><ele>62.0</ele><time>2026-04-05T17:45:28.999Z</time></trkpt><trkpt lat="45.10540826728123" lon="9.243407933961022"><ele>62.0</ele><time>2026-04-05T17:45:29.999Z</time></trkpt><trkpt lat="45.10556634578198" lon="9.243319860732715"><ele>62.0</ele><time>2026-04-05T17:45:30.999Z</time></trkpt><trkpt lat="45.10573684565682" lon="9.243245269082532"><ele>62.0</ele><time>2026-04-05T17:45:31.999Z</time></trkpt><trkpt lat="45.10592107000288" lon="9.243168478099415"><ele>62.0</ele><time>2026-04-05T17:45:32.999Z</time></trkpt><trkpt lat="45.106104618321936" lon="9.243119488778552"><ele>60.66666666666667</ele><time>2026-04-05T17:45:33.999Z</time></trkpt><trkpt lat="45.106278771191484" lon="9.243074743520381"><ele>59.33333333333333</ele><time>2026-04-05T17:45:34.999Z</time></trkpt><trkpt lat="45.10646186775173" lon="9.243035420846603"><ele>58.0</ele><time>2026-04-05T17:45:35.999Z</time></trkpt><trkpt lat="45.10666324886568" lon="9.242998918765684"><ele>57.0</ele><time>2026-04-05T17:45:36.999Z</time></trkpt><trkpt lat="45.106865006708" lon="9.24295782032742"><ele>56.0</ele><time>2026-04-05T17:45:37.999Z</time></trkpt><trkpt lat="45.10706813009272" lon="9.24291013984758"><ele>55.0</ele><time>2026-04-05T17:45:38.999Z</time></trkpt><trkpt lat="45.107253819925496" lon="9.24287213761869"><ele>56.0</ele><time>2026-04-05T17:45:39.999Z</time></trkpt><trkpt lat="45.10741837098802" lon="9.242839296381979"><ele>57.0</ele><time>2026-04-05T17:45:40.999Z</time></trkpt><trkpt lat="45.10756880719031" lon="9.242803848466203"><ele>58.0</ele><time>2026-04-05T17:45:41.999Z</time></trkpt><trkpt lat="45.1076999875732" lon="9.242773897123044"><ele>58.0</ele><time>2026-04-05T17:45:42.999Z</time></trkpt><trkpt lat="45.10783168113994" lon="9.242739067335346"><ele>58.0</ele><time>2026-04-05T17:45:43.999Z</time></trkpt><trkpt lat="45.10794965378587" lon="9.242715369772004"><ele>58.0</ele><time>2026-04-05T17:45:44.999Z</time></trkpt><trkpt lat="45.10805877216779" lon="9.242694101828077"><ele>58.0</ele><time>2026-04-05T17:45:45.999Z</time></trkpt><trkpt lat="45.10814611045381" lon="9.242671863555529"><ele>57.99999999999999</ele><time>2026-04-05T17:45:46.999Z</time></trkpt><trkpt lat="45.10822542703185" lon="9.24265915660797"><ele>58.0</ele><time>2026-04-05T17:45:47.999Z</time></trkpt><trkpt lat="45.10834260329819" lon="9.242704079858253"><ele>58.0</ele><time>2026-04-05T17:45:49.999Z</time></trkpt><trkpt lat="45.108391850620215" lon="9.24276449865841"><ele>58.0</ele><time>2026-04-05T17:45:50.999Z</time></trkpt><trkpt lat="45.10843322517794" lon="9.242852864745394"><ele>57.99999999999999</ele><time>2026-04-05T17:45:51.999Z</time></trkpt><trkpt lat="45.10846441957701" lon="9.24296511682285"><ele>58.0</ele><time>2026-04-05T17:45:52.999Z</time></trkpt><trkpt lat="45.108504899338655" lon="9.243074128700355"><ele>57.99999999999999</ele><time>2026-04-05T17:45:53.999Z</time></trkpt><trkpt lat="45.10853607680304" lon="9.243160910555877"><ele>58.0</ele><time>2026-04-05T17:45:54.999Z</time></trkpt><trkpt lat="45.108566441479944" lon="9.243242888831832"><ele>58.0</ele><time>2026-04-05T17:45:55.999Z</time></trkpt><trkpt lat="45.108629788882126" lon="9.243398614881515"><ele>58.0</ele><time>2026-04-05T17:45:57.999Z</time></trkpt><trkpt lat="45.10866416933972" lon="9.243481233599603"><ele>57.99999999999999</ele><time>2026-04-05T17:45:58.999Z</time></trkpt><trkpt lat="45.10870377147059" lon="9.24355633107802"><ele>58.0</ele><time>2026-04-05T17:45:59.999Z</time></trkpt><trkpt lat="45.10877137943987" lon="9.243715388650712"><ele>57.99999999999999</ele><time>2026-04-05T17:46:01.999Z</time></trkpt><trkpt lat="45.10881361945084" lon="9.243812186270912"><ele>58.0</ele><time>2026-04-05T17:46:02.999Z</time></trkpt><trkpt lat="45.10885831576805" lon="9.243919551826718"><ele>58.0</ele><time>2026-04-05T17:46:03.999Z</time></trkpt><trkpt lat="45.10890211194767" lon="9.244029836785137"><ele>58.0</ele><time>2026-04-05T17:46:04.999Z</time></trkpt><trkpt lat="45.108952458969924" lon="9.244145221354946"><ele>57.99999999999999</ele><time>2026-04-05T17:46:05.999Z</time></trkpt><trkpt lat="45.108997738053716" lon="9.244259215120211"><ele>58.0</ele><time>2026-04-05T17:46:06.999Z</time></trkpt><trkpt lat="45.10903774472507" lon="9.244356333829181"><ele>58.0</ele><time>2026-04-05T17:46:07.999Z</time></trkpt><trkpt lat="45.10906949742017" lon="9.244434669345805"><ele>58.0</ele><time>2026-04-05T17:46:08.999Z</time></trkpt><trkpt lat="45.10912973801003" lon="9.244564180637266"><ele>58.0</ele><time>2026-04-05T17:46:10.999Z</time></trkpt><trkpt lat="45.10918038652191" lon="9.244680124040178"><ele>58.0</ele><time>2026-04-05T17:46:12.999Z</time></trkpt><trkpt lat="45.1092437201151" lon="9.244826671958151"><ele>58.0</ele><time>2026-04-05T17:46:14.999Z</time></trkpt><trkpt lat="45.10929112401786" lon="9.244909217997769"><ele>57.83333333333333</ele><time>2026-04-05T17:46:16Z</time></trkpt><trkpt lat="45.109334540682276" lon="9.244994109534543"><ele>57.666666666666664</ele><time>2026-04-05T17:46:17Z</time></trkpt><trkpt lat="45.10938249714515" lon="9.245098760710611"><ele>57.5</ele><time>2026-04-05T17:46:18Z</time></trkpt><trkpt lat="45.10942489479627" lon="9.245203972424212"><ele>57.33333333333333</ele><time>2026-04-05T17:46:19Z</time></trkpt><trkpt lat="45.109467928416976" lon="9.245292182160853"><ele>57.166666666666664</ele><time>2026-04-05T17:46:20Z</time></trkpt><trkpt lat="45.109508885012225" lon="9.245371801120394"><ele>57.0</ele><time>2026-04-05T17:46:21Z</time></trkpt><trkpt lat="45.10956010613944" lon="9.245501798869594"><ele>57.0</ele><time>2026-04-05T17:46:23Z</time></trkpt><trkpt lat="45.10962533648191" lon="9.245622644234297"><ele>57.0</ele><time>2026-04-05T17:46:25Z</time></trkpt><trkpt lat="45.10964217051457" lon="9.245727814992287"><ele>57.0</ele><time>2026-04-05T17:46:27Z</time></trkpt><trkpt lat="45.109624425908756" lon="9.245817046653503"><ele>57.0</ele><time>2026-04-05T17:46:29Z</time></trkpt><trkpt lat="45.10954782855096" lon="9.245869153249568"><ele>57.0</ele><time>2026-04-05T17:46:32Z</time></trkpt><trkpt lat="45.10950829800788" lon="9.245942570576135"><ele>57.0</ele><time>2026-04-05T17:47:00Z</time></trkpt><trkpt lat="45.10943132799706" lon="9.246014981251868"><ele>56.6</ele><time>2026-04-05T17:47:02Z</time></trkpt><trkpt lat="45.109340760383205" lon="9.246100919231841"><ele>56.2</ele><time>2026-04-05T17:47:04Z</time></trkpt><trkpt lat="45.109247039530196" lon="9.246173655918815"><ele>55.8</ele><time>2026-04-05T17:47:06Z</time></trkpt><trkpt lat="45.109153353218574" lon="9.246260662659703"><ele>55.4</ele><time>2026-04-05T17:47:08Z</time></trkpt><trkpt lat="45.10905678638908" lon="9.246339293193142"><ele>55.0</ele><time>2026-04-05T17:47:10Z</time></trkpt><trkpt lat="45.108990193513755" lon="9.246401905033366"><ele>59.0</ele><time>2026-04-05T17:47:12Z</time></trkpt><trkpt lat="45.108906506200064" lon="9.24647938182392"><ele>59.0</ele><time>2026-04-05T17:47:14Z</time></trkpt><trkpt lat="45.108807425859666" lon="9.246558313090185"><ele>59.0</ele><time>2026-04-05T17:47:16Z</time></trkpt><trkpt lat="45.108752368569576" lon="9.246621777426746"><ele>59.0</ele><time>2026-04-05T17:47:18Z</time></trkpt><trkpt lat="45.108743294745985" lon="9.246719549378557"><ele>59.0</ele><time>2026-04-05T17:47:20.999Z</time></trkpt></trkseg></trk></gpx>